<?xml version="1.0" encoding="UTF-8" standalone="no" ?>
<gpx xmlns="http://www.topografix.com/GPX/1/1" xmlns:xsi="http://www.w3.org/2001/XMLSchema-instance" xsi:schemaLocation="http://www.topografix.com/GPX/1/1 http://www.topografix.com/GPX/1/1/gpx.xsd" version="1.1" creator="VisuGPX - https://www.visugpx.com">
  <metadata>
    <name>2016-09-12 Bike ride-Sainte Paule-Sarcey</name>
    <desc><![CDATA[2016-09-12 Bike ride-Sainte Paule-Sarcey]]></desc>
  </metadata>
  <wpt lat="45.92455" lon="4.73711">
    <ele>174</ele>
    <name><![CDATA[2016-09-12 10:02 (Start)]]></name>
  </wpt>
  <wpt lat="45.92462" lon="4.73707">
    <ele>174</ele>
    <name><![CDATA[2016-09-12 10:02 (End)]]></name>
    <desc><![CDATA[Created by Google My Tracks on Android  Name: 2016-09-12 10:02 Activity type: biking Description: - Total distance: 60.78 km (37.8 mi) Total time: 3:17:31 Moving time: 3:09:51 Average speed: 18.46 km/h (11.5 mi/h) Average moving speed: 19.21 km/h (11.9 mi/h) Max speed: 46.61 km/h (29.0 mi/h) Average pace: 3:15 min/km (5:14 min/mi) Average moving pace: 3:07 min/km (5:02 min/mi) Fastest pace: 1:17 min/km (2:04 min/mi) Max elevation: 564 m (1850 ft) Min elevation: 148 m (484 ft) Elevation gain: 1050 m (3445 ft) Max grade: 47 % Min grade: -9 % Recorded: 12/09/2016 10:02]]></desc>
  </wpt>
  <trk>
    <name><![CDATA[2016-09-12 10:02]]></name>
    <trkseg>
      <trkpt lat="45.92455" lon="4.73711">
        <ele>174</ele>
        <time>2016-09-12T08:02:21.55Z</time>
      </trkpt>
      <trkpt lat="45.92453" lon="4.73709">
        <ele>174</ele>
        <time>2016-09-12T08:03:04Z</time>
      </trkpt>
      <trkpt lat="45.92454" lon="4.73712">
        <ele>174</ele>
        <time>2016-09-12T08:04:06Z</time>
      </trkpt>
      <trkpt lat="45.92453" lon="4.7371">
        <ele>174</ele>
        <time>2016-09-12T08:04:07Z</time>
      </trkpt>
      <trkpt lat="45.92462" lon="4.7371">
        <ele>174</ele>
        <time>2016-09-12T08:04:24Z</time>
      </trkpt>
      <trkpt lat="45.92463" lon="4.73709">
        <ele>174</ele>
        <time>2016-09-12T08:04:25Z</time>
      </trkpt>
      <trkpt lat="45.92467" lon="4.73698">
        <ele>174</ele>
        <time>2016-09-12T08:04:29Z</time>
      </trkpt>
      <trkpt lat="45.92468" lon="4.73694">
        <ele>174</ele>
        <time>2016-09-12T08:04:30Z</time>
      </trkpt>
      <trkpt lat="45.92469" lon="4.73685">
        <ele>174</ele>
        <time>2016-09-12T08:04:32Z</time>
      </trkpt>
      <trkpt lat="45.92469" lon="4.7368">
        <ele>174</ele>
        <time>2016-09-12T08:04:33Z</time>
      </trkpt>
      <trkpt lat="45.9247" lon="4.73669">
        <ele>174</ele>
        <time>2016-09-12T08:04:35Z</time>
      </trkpt>
      <trkpt lat="45.9247" lon="4.73662">
        <ele>174</ele>
        <time>2016-09-12T08:04:36Z</time>
      </trkpt>
      <trkpt lat="45.92471" lon="4.73651">
        <ele>174</ele>
        <time>2016-09-12T08:04:38Z</time>
      </trkpt>
      <trkpt lat="45.92472" lon="4.73643">
        <ele>174</ele>
        <time>2016-09-12T08:04:39Z</time>
      </trkpt>
      <trkpt lat="45.92471" lon="4.73636">
        <ele>174</ele>
        <time>2016-09-12T08:04:40Z</time>
      </trkpt>
      <trkpt lat="45.92471" lon="4.73628">
        <ele>174</ele>
        <time>2016-09-12T08:04:41Z</time>
      </trkpt>
      <trkpt lat="45.9247" lon="4.7362">
        <ele>174</ele>
        <time>2016-09-12T08:04:42Z</time>
      </trkpt>
      <trkpt lat="45.9247" lon="4.73612">
        <ele>174</ele>
        <time>2016-09-12T08:04:43Z</time>
      </trkpt>
      <trkpt lat="45.92469" lon="4.73604">
        <ele>174</ele>
        <time>2016-09-12T08:04:44Z</time>
      </trkpt>
      <trkpt lat="45.9247" lon="4.73596">
        <ele>174</ele>
        <time>2016-09-12T08:04:45Z</time>
      </trkpt>
      <trkpt lat="45.9247" lon="4.73588">
        <ele>174</ele>
        <time>2016-09-12T08:04:46Z</time>
      </trkpt>
      <trkpt lat="45.92469" lon="4.7358">
        <ele>173</ele>
        <time>2016-09-12T08:04:47Z</time>
      </trkpt>
      <trkpt lat="45.92469" lon="4.73573">
        <ele>173</ele>
        <time>2016-09-12T08:04:48Z</time>
      </trkpt>
      <trkpt lat="45.92468" lon="4.73567">
        <ele>173</ele>
        <time>2016-09-12T08:04:49Z</time>
      </trkpt>
      <trkpt lat="45.92466" lon="4.73556">
        <ele>173</ele>
        <time>2016-09-12T08:04:51Z</time>
      </trkpt>
      <trkpt lat="45.92464" lon="4.73552">
        <ele>173</ele>
        <time>2016-09-12T08:04:52Z</time>
      </trkpt>
      <trkpt lat="45.92459" lon="4.73548">
        <ele>173</ele>
        <time>2016-09-12T08:04:54Z</time>
      </trkpt>
      <trkpt lat="45.92454" lon="4.73549">
        <ele>174</ele>
        <time>2016-09-12T08:04:55Z</time>
      </trkpt>
      <trkpt lat="45.92445" lon="4.73551">
        <ele>174</ele>
        <time>2016-09-12T08:04:57Z</time>
      </trkpt>
      <trkpt lat="45.92441" lon="4.73553">
        <ele>174</ele>
        <time>2016-09-12T08:04:58Z</time>
      </trkpt>
      <trkpt lat="45.92436" lon="4.73554">
        <ele>174</ele>
        <time>2016-09-12T08:04:59Z</time>
      </trkpt>
      <trkpt lat="45.92431" lon="4.73557">
        <ele>174</ele>
        <time>2016-09-12T08:05:00Z</time>
      </trkpt>
      <trkpt lat="45.92426" lon="4.73559">
        <ele>174</ele>
        <time>2016-09-12T08:05:01Z</time>
      </trkpt>
      <trkpt lat="45.92421" lon="4.73561">
        <ele>174</ele>
        <time>2016-09-12T08:05:02Z</time>
      </trkpt>
      <trkpt lat="45.92417" lon="4.73563">
        <ele>173</ele>
        <time>2016-09-12T08:05:03Z</time>
      </trkpt>
      <trkpt lat="45.92412" lon="4.73565">
        <ele>173</ele>
        <time>2016-09-12T08:05:04Z</time>
      </trkpt>
      <trkpt lat="45.92407" lon="4.73567">
        <ele>173</ele>
        <time>2016-09-12T08:05:05Z</time>
      </trkpt>
      <trkpt lat="45.92402" lon="4.7357">
        <ele>173</ele>
        <time>2016-09-12T08:05:06Z</time>
      </trkpt>
      <trkpt lat="45.92396" lon="4.73573">
        <ele>173</ele>
        <time>2016-09-12T08:05:07Z</time>
      </trkpt>
      <trkpt lat="45.92391" lon="4.73575">
        <ele>173</ele>
        <time>2016-09-12T08:05:08Z</time>
      </trkpt>
      <trkpt lat="45.92385" lon="4.73578">
        <ele>173</ele>
        <time>2016-09-12T08:05:09Z</time>
      </trkpt>
      <trkpt lat="45.9238" lon="4.73581">
        <ele>173</ele>
        <time>2016-09-12T08:05:10Z</time>
      </trkpt>
      <trkpt lat="45.92374" lon="4.73584">
        <ele>173</ele>
        <time>2016-09-12T08:05:11Z</time>
      </trkpt>
      <trkpt lat="45.9237" lon="4.73588">
        <ele>173</ele>
        <time>2016-09-12T08:05:12Z</time>
      </trkpt>
      <trkpt lat="45.92365" lon="4.73591">
        <ele>173</ele>
        <time>2016-09-12T08:05:13Z</time>
      </trkpt>
      <trkpt lat="45.9236" lon="4.73594">
        <ele>173</ele>
        <time>2016-09-12T08:05:14Z</time>
      </trkpt>
      <trkpt lat="45.92355" lon="4.73596">
        <ele>173</ele>
        <time>2016-09-12T08:05:15Z</time>
      </trkpt>
      <trkpt lat="45.9235" lon="4.73599">
        <ele>173</ele>
        <time>2016-09-12T08:05:16Z</time>
      </trkpt>
      <trkpt lat="45.92346" lon="4.73601">
        <ele>173</ele>
        <time>2016-09-12T08:05:17Z</time>
      </trkpt>
      <trkpt lat="45.92341" lon="4.73603">
        <ele>173</ele>
        <time>2016-09-12T08:05:18Z</time>
      </trkpt>
      <trkpt lat="45.92336" lon="4.73605">
        <ele>173</ele>
        <time>2016-09-12T08:05:19Z</time>
      </trkpt>
      <trkpt lat="45.92331" lon="4.73607">
        <ele>172</ele>
        <time>2016-09-12T08:05:20Z</time>
      </trkpt>
      <trkpt lat="45.92327" lon="4.73609">
        <ele>172</ele>
        <time>2016-09-12T08:05:21Z</time>
      </trkpt>
      <trkpt lat="45.92322" lon="4.73611">
        <ele>172</ele>
        <time>2016-09-12T08:05:22Z</time>
      </trkpt>
      <trkpt lat="45.92317" lon="4.73614">
        <ele>172</ele>
        <time>2016-09-12T08:05:23Z</time>
      </trkpt>
      <trkpt lat="45.92313" lon="4.73617">
        <ele>172</ele>
        <time>2016-09-12T08:05:24Z</time>
      </trkpt>
      <trkpt lat="45.92308" lon="4.7362">
        <ele>172</ele>
        <time>2016-09-12T08:05:25Z</time>
      </trkpt>
      <trkpt lat="45.92304" lon="4.73623">
        <ele>172</ele>
        <time>2016-09-12T08:05:26Z</time>
      </trkpt>
      <trkpt lat="45.92299" lon="4.73626">
        <ele>172</ele>
        <time>2016-09-12T08:05:27Z</time>
      </trkpt>
      <trkpt lat="45.92294" lon="4.73629">
        <ele>172</ele>
        <time>2016-09-12T08:05:28Z</time>
      </trkpt>
      <trkpt lat="45.92288" lon="4.73632">
        <ele>172</ele>
        <time>2016-09-12T08:05:29Z</time>
      </trkpt>
      <trkpt lat="45.92283" lon="4.73636">
        <ele>172</ele>
        <time>2016-09-12T08:05:30Z</time>
      </trkpt>
      <trkpt lat="45.92278" lon="4.73639">
        <ele>172</ele>
        <time>2016-09-12T08:05:31Z</time>
      </trkpt>
      <trkpt lat="45.92272" lon="4.73642">
        <ele>172</ele>
        <time>2016-09-12T08:05:32Z</time>
      </trkpt>
      <trkpt lat="45.92267" lon="4.73645">
        <ele>172</ele>
        <time>2016-09-12T08:05:33Z</time>
      </trkpt>
      <trkpt lat="45.92261" lon="4.73648">
        <ele>171</ele>
        <time>2016-09-12T08:05:34Z</time>
      </trkpt>
      <trkpt lat="45.92256" lon="4.73651">
        <ele>171</ele>
        <time>2016-09-12T08:05:35Z</time>
      </trkpt>
      <trkpt lat="45.92251" lon="4.73654">
        <ele>171</ele>
        <time>2016-09-12T08:05:36Z</time>
      </trkpt>
      <trkpt lat="45.92246" lon="4.73657">
        <ele>171</ele>
        <time>2016-09-12T08:05:37Z</time>
      </trkpt>
      <trkpt lat="45.9224" lon="4.7366">
        <ele>171</ele>
        <time>2016-09-12T08:05:38Z</time>
      </trkpt>
      <trkpt lat="45.92235" lon="4.73663">
        <ele>171</ele>
        <time>2016-09-12T08:05:39Z</time>
      </trkpt>
      <trkpt lat="45.9223" lon="4.73666">
        <ele>171</ele>
        <time>2016-09-12T08:05:40Z</time>
      </trkpt>
      <trkpt lat="45.92225" lon="4.73669">
        <ele>171</ele>
        <time>2016-09-12T08:05:41Z</time>
      </trkpt>
      <trkpt lat="45.9222" lon="4.73672">
        <ele>171</ele>
        <time>2016-09-12T08:05:42Z</time>
      </trkpt>
      <trkpt lat="45.92214" lon="4.73675">
        <ele>171</ele>
        <time>2016-09-12T08:05:43Z</time>
      </trkpt>
      <trkpt lat="45.92209" lon="4.73678">
        <ele>171</ele>
        <time>2016-09-12T08:05:44Z</time>
      </trkpt>
      <trkpt lat="45.92203" lon="4.73681">
        <ele>171</ele>
        <time>2016-09-12T08:05:45Z</time>
      </trkpt>
      <trkpt lat="45.92197" lon="4.73684">
        <ele>171</ele>
        <time>2016-09-12T08:05:46Z</time>
      </trkpt>
      <trkpt lat="45.92191" lon="4.73686">
        <ele>171</ele>
        <time>2016-09-12T08:05:47Z</time>
      </trkpt>
      <trkpt lat="45.92185" lon="4.73689">
        <ele>171</ele>
        <time>2016-09-12T08:05:48Z</time>
      </trkpt>
      <trkpt lat="45.9218" lon="4.73691">
        <ele>171</ele>
        <time>2016-09-12T08:05:49Z</time>
      </trkpt>
      <trkpt lat="45.92174" lon="4.73694">
        <ele>171</ele>
        <time>2016-09-12T08:05:50Z</time>
      </trkpt>
      <trkpt lat="45.92169" lon="4.73696">
        <ele>171</ele>
        <time>2016-09-12T08:05:51Z</time>
      </trkpt>
      <trkpt lat="45.92163" lon="4.73699">
        <ele>171</ele>
        <time>2016-09-12T08:05:52Z</time>
      </trkpt>
      <trkpt lat="45.92158" lon="4.73701">
        <ele>171</ele>
        <time>2016-09-12T08:05:53Z</time>
      </trkpt>
      <trkpt lat="45.92152" lon="4.73703">
        <ele>171</ele>
        <time>2016-09-12T08:05:54Z</time>
      </trkpt>
      <trkpt lat="45.92146" lon="4.73706">
        <ele>171</ele>
        <time>2016-09-12T08:05:55Z</time>
      </trkpt>
      <trkpt lat="45.92141" lon="4.73708">
        <ele>171</ele>
        <time>2016-09-12T08:05:56Z</time>
      </trkpt>
      <trkpt lat="45.92132" lon="4.73711">
        <ele>171</ele>
        <time>2016-09-12T08:05:58Z</time>
      </trkpt>
      <trkpt lat="45.92127" lon="4.73713">
        <ele>171</ele>
        <time>2016-09-12T08:05:59Z</time>
      </trkpt>
      <trkpt lat="45.92121" lon="4.73715">
        <ele>171</ele>
        <time>2016-09-12T08:06:00Z</time>
      </trkpt>
      <trkpt lat="45.92115" lon="4.73717">
        <ele>171</ele>
        <time>2016-09-12T08:06:01Z</time>
      </trkpt>
      <trkpt lat="45.92108" lon="4.73718">
        <ele>171</ele>
        <time>2016-09-12T08:06:02Z</time>
      </trkpt>
      <trkpt lat="45.92103" lon="4.7372">
        <ele>171</ele>
        <time>2016-09-12T08:06:03Z</time>
      </trkpt>
      <trkpt lat="45.92096" lon="4.73721">
        <ele>171</ele>
        <time>2016-09-12T08:06:04Z</time>
      </trkpt>
      <trkpt lat="45.92091" lon="4.73722">
        <ele>171</ele>
        <time>2016-09-12T08:06:05Z</time>
      </trkpt>
      <trkpt lat="45.92085" lon="4.73723">
        <ele>171</ele>
        <time>2016-09-12T08:06:06Z</time>
      </trkpt>
      <trkpt lat="45.92079" lon="4.73724">
        <ele>171</ele>
        <time>2016-09-12T08:06:07Z</time>
      </trkpt>
      <trkpt lat="45.92073" lon="4.73724">
        <ele>171</ele>
        <time>2016-09-12T08:06:08Z</time>
      </trkpt>
      <trkpt lat="45.92067" lon="4.73725">
        <ele>171</ele>
        <time>2016-09-12T08:06:09Z</time>
      </trkpt>
      <trkpt lat="45.92061" lon="4.73726">
        <ele>171</ele>
        <time>2016-09-12T08:06:10Z</time>
      </trkpt>
      <trkpt lat="45.92055" lon="4.73726">
        <ele>171</ele>
        <time>2016-09-12T08:06:11Z</time>
      </trkpt>
      <trkpt lat="45.92049" lon="4.73726">
        <ele>171</ele>
        <time>2016-09-12T08:06:12Z</time>
      </trkpt>
      <trkpt lat="45.92043" lon="4.73726">
        <ele>171</ele>
        <time>2016-09-12T08:06:13Z</time>
      </trkpt>
      <trkpt lat="45.92037" lon="4.73727">
        <ele>171</ele>
        <time>2016-09-12T08:06:14Z</time>
      </trkpt>
      <trkpt lat="45.92031" lon="4.73727">
        <ele>171</ele>
        <time>2016-09-12T08:06:15Z</time>
      </trkpt>
      <trkpt lat="45.92025" lon="4.73727">
        <ele>171</ele>
        <time>2016-09-12T08:06:16Z</time>
      </trkpt>
      <trkpt lat="45.9202" lon="4.73727">
        <ele>171</ele>
        <time>2016-09-12T08:06:17Z</time>
      </trkpt>
      <trkpt lat="45.92015" lon="4.73727">
        <ele>171</ele>
        <time>2016-09-12T08:06:18Z</time>
      </trkpt>
      <trkpt lat="45.92009" lon="4.73728">
        <ele>171</ele>
        <time>2016-09-12T08:06:19Z</time>
      </trkpt>
      <trkpt lat="45.92004" lon="4.73728">
        <ele>171</ele>
        <time>2016-09-12T08:06:20Z</time>
      </trkpt>
      <trkpt lat="45.91999" lon="4.73728">
        <ele>171</ele>
        <time>2016-09-12T08:06:21Z</time>
      </trkpt>
      <trkpt lat="45.91993" lon="4.73728">
        <ele>171</ele>
        <time>2016-09-12T08:06:22Z</time>
      </trkpt>
      <trkpt lat="45.91988" lon="4.73729">
        <ele>171</ele>
        <time>2016-09-12T08:06:23Z</time>
      </trkpt>
      <trkpt lat="45.91982" lon="4.7373">
        <ele>171</ele>
        <time>2016-09-12T08:06:24Z</time>
      </trkpt>
      <trkpt lat="45.91977" lon="4.7373">
        <ele>171</ele>
        <time>2016-09-12T08:06:25Z</time>
      </trkpt>
      <trkpt lat="45.91971" lon="4.7373">
        <ele>171</ele>
        <time>2016-09-12T08:06:26Z</time>
      </trkpt>
      <trkpt lat="45.91966" lon="4.7373">
        <ele>171</ele>
        <time>2016-09-12T08:06:27Z</time>
      </trkpt>
      <trkpt lat="45.91962" lon="4.73728">
        <ele>171</ele>
        <time>2016-09-12T08:06:28Z</time>
      </trkpt>
      <trkpt lat="45.91955" lon="4.73727">
        <ele>170</ele>
        <time>2016-09-12T08:06:29Z</time>
      </trkpt>
      <trkpt lat="45.9195" lon="4.73727">
        <ele>170</ele>
        <time>2016-09-12T08:06:30Z</time>
      </trkpt>
      <trkpt lat="45.91943" lon="4.73727">
        <ele>170</ele>
        <time>2016-09-12T08:06:31Z</time>
      </trkpt>
      <trkpt lat="45.91937" lon="4.73727">
        <ele>170</ele>
        <time>2016-09-12T08:06:32Z</time>
      </trkpt>
      <trkpt lat="45.91931" lon="4.73727">
        <ele>170</ele>
        <time>2016-09-12T08:06:33Z</time>
      </trkpt>
      <trkpt lat="45.91924" lon="4.73727">
        <ele>170</ele>
        <time>2016-09-12T08:06:34Z</time>
      </trkpt>
      <trkpt lat="45.91917" lon="4.73727">
        <ele>171</ele>
        <time>2016-09-12T08:06:35Z</time>
      </trkpt>
      <trkpt lat="45.9191" lon="4.73727">
        <ele>171</ele>
        <time>2016-09-12T08:06:36Z</time>
      </trkpt>
      <trkpt lat="45.91904" lon="4.73727">
        <ele>171</ele>
        <time>2016-09-12T08:06:37Z</time>
      </trkpt>
      <trkpt lat="45.91898" lon="4.73727">
        <ele>171</ele>
        <time>2016-09-12T08:06:38Z</time>
      </trkpt>
      <trkpt lat="45.91892" lon="4.73727">
        <ele>171</ele>
        <time>2016-09-12T08:06:39Z</time>
      </trkpt>
      <trkpt lat="45.91885" lon="4.73728">
        <ele>171</ele>
        <time>2016-09-12T08:06:40Z</time>
      </trkpt>
      <trkpt lat="45.91879" lon="4.73728">
        <ele>171</ele>
        <time>2016-09-12T08:06:41Z</time>
      </trkpt>
      <trkpt lat="45.91872" lon="4.73728">
        <ele>171</ele>
        <time>2016-09-12T08:06:42Z</time>
      </trkpt>
      <trkpt lat="45.91866" lon="4.73728">
        <ele>171</ele>
        <time>2016-09-12T08:06:43Z</time>
      </trkpt>
      <trkpt lat="45.91861" lon="4.73729">
        <ele>171</ele>
        <time>2016-09-12T08:06:44Z</time>
      </trkpt>
      <trkpt lat="45.91855" lon="4.73729">
        <ele>171</ele>
        <time>2016-09-12T08:06:45Z</time>
      </trkpt>
      <trkpt lat="45.91848" lon="4.73729">
        <ele>172</ele>
        <time>2016-09-12T08:06:46Z</time>
      </trkpt>
      <trkpt lat="45.91842" lon="4.7373">
        <ele>172</ele>
        <time>2016-09-12T08:06:47Z</time>
      </trkpt>
      <trkpt lat="45.91836" lon="4.7373">
        <ele>172</ele>
        <time>2016-09-12T08:06:48Z</time>
      </trkpt>
      <trkpt lat="45.91831" lon="4.73731">
        <ele>172</ele>
        <time>2016-09-12T08:06:49Z</time>
      </trkpt>
      <trkpt lat="45.91824" lon="4.73731">
        <ele>172</ele>
        <time>2016-09-12T08:06:50Z</time>
      </trkpt>
      <trkpt lat="45.91819" lon="4.73731">
        <ele>172</ele>
        <time>2016-09-12T08:06:51Z</time>
      </trkpt>
      <trkpt lat="45.91813" lon="4.73731">
        <ele>172</ele>
        <time>2016-09-12T08:06:52Z</time>
      </trkpt>
      <trkpt lat="45.91807" lon="4.73731">
        <ele>172</ele>
        <time>2016-09-12T08:06:53Z</time>
      </trkpt>
      <trkpt lat="45.91802" lon="4.73731">
        <ele>172</ele>
        <time>2016-09-12T08:06:54Z</time>
      </trkpt>
      <trkpt lat="45.91796" lon="4.73732">
        <ele>172</ele>
        <time>2016-09-12T08:06:55Z</time>
      </trkpt>
      <trkpt lat="45.91791" lon="4.73732">
        <ele>173</ele>
        <time>2016-09-12T08:06:56Z</time>
      </trkpt>
      <trkpt lat="45.91785" lon="4.73732">
        <ele>173</ele>
        <time>2016-09-12T08:06:57Z</time>
      </trkpt>
      <trkpt lat="45.91779" lon="4.73732">
        <ele>173</ele>
        <time>2016-09-12T08:06:58Z</time>
      </trkpt>
      <trkpt lat="45.91773" lon="4.73733">
        <ele>173</ele>
        <time>2016-09-12T08:06:59Z</time>
      </trkpt>
      <trkpt lat="45.91767" lon="4.73731">
        <ele>173</ele>
        <time>2016-09-12T08:07:00Z</time>
      </trkpt>
      <trkpt lat="45.91761" lon="4.73731">
        <ele>173</ele>
        <time>2016-09-12T08:07:01Z</time>
      </trkpt>
      <trkpt lat="45.91755" lon="4.73731">
        <ele>173</ele>
        <time>2016-09-12T08:07:02Z</time>
      </trkpt>
      <trkpt lat="45.91749" lon="4.73731">
        <ele>173</ele>
        <time>2016-09-12T08:07:03Z</time>
      </trkpt>
      <trkpt lat="45.91743" lon="4.73732">
        <ele>173</ele>
        <time>2016-09-12T08:07:04Z</time>
      </trkpt>
      <trkpt lat="45.91738" lon="4.73732">
        <ele>173</ele>
        <time>2016-09-12T08:07:05Z</time>
      </trkpt>
      <trkpt lat="45.91732" lon="4.73733">
        <ele>173</ele>
        <time>2016-09-12T08:07:06Z</time>
      </trkpt>
      <trkpt lat="45.91726" lon="4.73733">
        <ele>173</ele>
        <time>2016-09-12T08:07:07Z</time>
      </trkpt>
      <trkpt lat="45.9172" lon="4.73733">
        <ele>173</ele>
        <time>2016-09-12T08:07:08Z</time>
      </trkpt>
      <trkpt lat="45.91714" lon="4.73733">
        <ele>173</ele>
        <time>2016-09-12T08:07:09Z</time>
      </trkpt>
      <trkpt lat="45.91709" lon="4.73732">
        <ele>173</ele>
        <time>2016-09-12T08:07:10Z</time>
      </trkpt>
      <trkpt lat="45.91703" lon="4.73732">
        <ele>172</ele>
        <time>2016-09-12T08:07:11Z</time>
      </trkpt>
      <trkpt lat="45.91697" lon="4.73732">
        <ele>172</ele>
        <time>2016-09-12T08:07:12Z</time>
      </trkpt>
      <trkpt lat="45.91691" lon="4.73732">
        <ele>172</ele>
        <time>2016-09-12T08:07:13Z</time>
      </trkpt>
      <trkpt lat="45.91686" lon="4.73732">
        <ele>172</ele>
        <time>2016-09-12T08:07:14Z</time>
      </trkpt>
      <trkpt lat="45.9168" lon="4.73733">
        <ele>172</ele>
        <time>2016-09-12T08:07:15Z</time>
      </trkpt>
      <trkpt lat="45.91674" lon="4.73733">
        <ele>172</ele>
        <time>2016-09-12T08:07:16Z</time>
      </trkpt>
      <trkpt lat="45.91669" lon="4.73733">
        <ele>172</ele>
        <time>2016-09-12T08:07:17Z</time>
      </trkpt>
      <trkpt lat="45.91662" lon="4.73734">
        <ele>172</ele>
        <time>2016-09-12T08:07:18Z</time>
      </trkpt>
      <trkpt lat="45.91656" lon="4.73734">
        <ele>172</ele>
        <time>2016-09-12T08:07:19Z</time>
      </trkpt>
      <trkpt lat="45.9165" lon="4.73735">
        <ele>172</ele>
        <time>2016-09-12T08:07:20Z</time>
      </trkpt>
      <trkpt lat="45.91644" lon="4.73735">
        <ele>172</ele>
        <time>2016-09-12T08:07:21Z</time>
      </trkpt>
      <trkpt lat="45.91639" lon="4.73735">
        <ele>172</ele>
        <time>2016-09-12T08:07:22Z</time>
      </trkpt>
      <trkpt lat="45.91632" lon="4.73736">
        <ele>172</ele>
        <time>2016-09-12T08:07:23Z</time>
      </trkpt>
      <trkpt lat="45.91626" lon="4.73735">
        <ele>172</ele>
        <time>2016-09-12T08:07:24Z</time>
      </trkpt>
      <trkpt lat="45.91619" lon="4.73735">
        <ele>173</ele>
        <time>2016-09-12T08:07:25Z</time>
      </trkpt>
      <trkpt lat="45.91613" lon="4.73735">
        <ele>173</ele>
        <time>2016-09-12T08:07:26Z</time>
      </trkpt>
      <trkpt lat="45.91607" lon="4.73735">
        <ele>173</ele>
        <time>2016-09-12T08:07:27Z</time>
      </trkpt>
      <trkpt lat="45.91601" lon="4.73735">
        <ele>173</ele>
        <time>2016-09-12T08:07:28Z</time>
      </trkpt>
      <trkpt lat="45.91594" lon="4.73735">
        <ele>173</ele>
        <time>2016-09-12T08:07:29Z</time>
      </trkpt>
      <trkpt lat="45.91588" lon="4.73734">
        <ele>173</ele>
        <time>2016-09-12T08:07:30Z</time>
      </trkpt>
      <trkpt lat="45.91582" lon="4.73734">
        <ele>173</ele>
        <time>2016-09-12T08:07:31Z</time>
      </trkpt>
      <trkpt lat="45.91575" lon="4.73734">
        <ele>173</ele>
        <time>2016-09-12T08:07:32Z</time>
      </trkpt>
      <trkpt lat="45.91569" lon="4.73735">
        <ele>173</ele>
        <time>2016-09-12T08:07:33Z</time>
      </trkpt>
      <trkpt lat="45.91562" lon="4.73735">
        <ele>173</ele>
        <time>2016-09-12T08:07:34Z</time>
      </trkpt>
      <trkpt lat="45.91556" lon="4.73735">
        <ele>174</ele>
        <time>2016-09-12T08:07:35Z</time>
      </trkpt>
      <trkpt lat="45.91549" lon="4.73735">
        <ele>174</ele>
        <time>2016-09-12T08:07:36Z</time>
      </trkpt>
      <trkpt lat="45.91543" lon="4.73735">
        <ele>174</ele>
        <time>2016-09-12T08:07:37Z</time>
      </trkpt>
      <trkpt lat="45.91537" lon="4.73736">
        <ele>174</ele>
        <time>2016-09-12T08:07:38Z</time>
      </trkpt>
      <trkpt lat="45.9153" lon="4.73735">
        <ele>174</ele>
        <time>2016-09-12T08:07:39Z</time>
      </trkpt>
      <trkpt lat="45.91524" lon="4.73735">
        <ele>174</ele>
        <time>2016-09-12T08:07:40Z</time>
      </trkpt>
      <trkpt lat="45.91518" lon="4.73735">
        <ele>174</ele>
        <time>2016-09-12T08:07:41Z</time>
      </trkpt>
      <trkpt lat="45.91512" lon="4.73735">
        <ele>174</ele>
        <time>2016-09-12T08:07:42Z</time>
      </trkpt>
      <trkpt lat="45.91506" lon="4.73735">
        <ele>174</ele>
        <time>2016-09-12T08:07:43Z</time>
      </trkpt>
      <trkpt lat="45.91501" lon="4.73735">
        <ele>174</ele>
        <time>2016-09-12T08:07:44Z</time>
      </trkpt>
      <trkpt lat="45.91495" lon="4.73735">
        <ele>174</ele>
        <time>2016-09-12T08:07:45Z</time>
      </trkpt>
      <trkpt lat="45.91489" lon="4.73735">
        <ele>174</ele>
        <time>2016-09-12T08:07:46Z</time>
      </trkpt>
      <trkpt lat="45.91483" lon="4.73734">
        <ele>174</ele>
        <time>2016-09-12T08:07:47Z</time>
      </trkpt>
      <trkpt lat="45.91477" lon="4.73734">
        <ele>174</ele>
        <time>2016-09-12T08:07:48Z</time>
      </trkpt>
      <trkpt lat="45.91472" lon="4.73734">
        <ele>174</ele>
        <time>2016-09-12T08:07:49Z</time>
      </trkpt>
      <trkpt lat="45.91465" lon="4.73734">
        <ele>174</ele>
        <time>2016-09-12T08:07:50Z</time>
      </trkpt>
      <trkpt lat="45.9146" lon="4.73734">
        <ele>174</ele>
        <time>2016-09-12T08:07:51Z</time>
      </trkpt>
      <trkpt lat="45.91454" lon="4.73734">
        <ele>173</ele>
        <time>2016-09-12T08:07:52Z</time>
      </trkpt>
      <trkpt lat="45.91448" lon="4.73735">
        <ele>173</ele>
        <time>2016-09-12T08:07:53Z</time>
      </trkpt>
      <trkpt lat="45.91442" lon="4.73735">
        <ele>173</ele>
        <time>2016-09-12T08:07:54Z</time>
      </trkpt>
      <trkpt lat="45.91436" lon="4.73735">
        <ele>173</ele>
        <time>2016-09-12T08:07:55Z</time>
      </trkpt>
      <trkpt lat="45.9143" lon="4.73735">
        <ele>173</ele>
        <time>2016-09-12T08:07:56Z</time>
      </trkpt>
      <trkpt lat="45.91424" lon="4.73735">
        <ele>173</ele>
        <time>2016-09-12T08:07:57Z</time>
      </trkpt>
      <trkpt lat="45.91418" lon="4.73735">
        <ele>173</ele>
        <time>2016-09-12T08:07:58Z</time>
      </trkpt>
      <trkpt lat="45.91412" lon="4.73735">
        <ele>173</ele>
        <time>2016-09-12T08:07:59Z</time>
      </trkpt>
      <trkpt lat="45.91406" lon="4.73735">
        <ele>173</ele>
        <time>2016-09-12T08:08:00Z</time>
      </trkpt>
      <trkpt lat="45.91399" lon="4.73735">
        <ele>173</ele>
        <time>2016-09-12T08:08:01Z</time>
      </trkpt>
      <trkpt lat="45.91393" lon="4.73736">
        <ele>173</ele>
        <time>2016-09-12T08:08:02Z</time>
      </trkpt>
      <trkpt lat="45.91387" lon="4.73736">
        <ele>173</ele>
        <time>2016-09-12T08:08:03Z</time>
      </trkpt>
      <trkpt lat="45.91381" lon="4.73736">
        <ele>173</ele>
        <time>2016-09-12T08:08:04Z</time>
      </trkpt>
      <trkpt lat="45.91375" lon="4.73736">
        <ele>173</ele>
        <time>2016-09-12T08:08:05Z</time>
      </trkpt>
      <trkpt lat="45.91369" lon="4.73736">
        <ele>173</ele>
        <time>2016-09-12T08:08:06Z</time>
      </trkpt>
      <trkpt lat="45.91364" lon="4.73736">
        <ele>173</ele>
        <time>2016-09-12T08:08:07Z</time>
      </trkpt>
      <trkpt lat="45.91358" lon="4.73735">
        <ele>173</ele>
        <time>2016-09-12T08:08:08Z</time>
      </trkpt>
      <trkpt lat="45.91353" lon="4.73735">
        <ele>173</ele>
        <time>2016-09-12T08:08:09Z</time>
      </trkpt>
      <trkpt lat="45.91347" lon="4.73735">
        <ele>173</ele>
        <time>2016-09-12T08:08:10Z</time>
      </trkpt>
      <trkpt lat="45.91341" lon="4.73735">
        <ele>173</ele>
        <time>2016-09-12T08:08:11Z</time>
      </trkpt>
      <trkpt lat="45.91335" lon="4.73735">
        <ele>173</ele>
        <time>2016-09-12T08:08:12Z</time>
      </trkpt>
      <trkpt lat="45.91329" lon="4.73735">
        <ele>173</ele>
        <time>2016-09-12T08:08:13Z</time>
      </trkpt>
      <trkpt lat="45.91322" lon="4.73735">
        <ele>174</ele>
        <time>2016-09-12T08:08:14Z</time>
      </trkpt>
      <trkpt lat="45.91317" lon="4.73735">
        <ele>174</ele>
        <time>2016-09-12T08:08:15Z</time>
      </trkpt>
      <trkpt lat="45.91311" lon="4.73735">
        <ele>174</ele>
        <time>2016-09-12T08:08:16Z</time>
      </trkpt>
      <trkpt lat="45.91306" lon="4.73736">
        <ele>174</ele>
        <time>2016-09-12T08:08:17Z</time>
      </trkpt>
      <trkpt lat="45.913" lon="4.73737">
        <ele>174</ele>
        <time>2016-09-12T08:08:18Z</time>
      </trkpt>
      <trkpt lat="45.91295" lon="4.73737">
        <ele>174</ele>
        <time>2016-09-12T08:08:19Z</time>
      </trkpt>
      <trkpt lat="45.91289" lon="4.73737">
        <ele>174</ele>
        <time>2016-09-12T08:08:20Z</time>
      </trkpt>
      <trkpt lat="45.91283" lon="4.73737">
        <ele>174</ele>
        <time>2016-09-12T08:08:21Z</time>
      </trkpt>
      <trkpt lat="45.91277" lon="4.73738">
        <ele>174</ele>
        <time>2016-09-12T08:08:22Z</time>
      </trkpt>
      <trkpt lat="45.9127" lon="4.73738">
        <ele>174</ele>
        <time>2016-09-12T08:08:23Z</time>
      </trkpt>
      <trkpt lat="45.91264" lon="4.73739">
        <ele>174</ele>
        <time>2016-09-12T08:08:24Z</time>
      </trkpt>
      <trkpt lat="45.91258" lon="4.73739">
        <ele>175</ele>
        <time>2016-09-12T08:08:25Z</time>
      </trkpt>
      <trkpt lat="45.91252" lon="4.73739">
        <ele>175</ele>
        <time>2016-09-12T08:08:26Z</time>
      </trkpt>
      <trkpt lat="45.91246" lon="4.73739">
        <ele>175</ele>
        <time>2016-09-12T08:08:27Z</time>
      </trkpt>
      <trkpt lat="45.9124" lon="4.7374">
        <ele>175</ele>
        <time>2016-09-12T08:08:28Z</time>
      </trkpt>
      <trkpt lat="45.91234" lon="4.73741">
        <ele>175</ele>
        <time>2016-09-12T08:08:29Z</time>
      </trkpt>
      <trkpt lat="45.91227" lon="4.73741">
        <ele>175</ele>
        <time>2016-09-12T08:08:30Z</time>
      </trkpt>
      <trkpt lat="45.91221" lon="4.73741">
        <ele>175</ele>
        <time>2016-09-12T08:08:31Z</time>
      </trkpt>
      <trkpt lat="45.91214" lon="4.73741">
        <ele>175</ele>
        <time>2016-09-12T08:08:32Z</time>
      </trkpt>
      <trkpt lat="45.91208" lon="4.73741">
        <ele>175</ele>
        <time>2016-09-12T08:08:33Z</time>
      </trkpt>
      <trkpt lat="45.91202" lon="4.7374">
        <ele>175</ele>
        <time>2016-09-12T08:08:34Z</time>
      </trkpt>
      <trkpt lat="45.91196" lon="4.7374">
        <ele>175</ele>
        <time>2016-09-12T08:08:35Z</time>
      </trkpt>
      <trkpt lat="45.9119" lon="4.73739">
        <ele>175</ele>
        <time>2016-09-12T08:08:36Z</time>
      </trkpt>
      <trkpt lat="45.91184" lon="4.73738">
        <ele>175</ele>
        <time>2016-09-12T08:08:37Z</time>
      </trkpt>
      <trkpt lat="45.91179" lon="4.73736">
        <ele>175</ele>
        <time>2016-09-12T08:08:38Z</time>
      </trkpt>
      <trkpt lat="45.91173" lon="4.73734">
        <ele>175</ele>
        <time>2016-09-12T08:08:39Z</time>
      </trkpt>
      <trkpt lat="45.91168" lon="4.73733">
        <ele>175</ele>
        <time>2016-09-12T08:08:40Z</time>
      </trkpt>
      <trkpt lat="45.91162" lon="4.73732">
        <ele>175</ele>
        <time>2016-09-12T08:08:41Z</time>
      </trkpt>
      <trkpt lat="45.91157" lon="4.73731">
        <ele>175</ele>
        <time>2016-09-12T08:08:42Z</time>
      </trkpt>
      <trkpt lat="45.91152" lon="4.73729">
        <ele>175</ele>
        <time>2016-09-12T08:08:43Z</time>
      </trkpt>
      <trkpt lat="45.91148" lon="4.73725">
        <ele>174</ele>
        <time>2016-09-12T08:08:44Z</time>
      </trkpt>
      <trkpt lat="45.91143" lon="4.73721">
        <ele>174</ele>
        <time>2016-09-12T08:08:45Z</time>
      </trkpt>
      <trkpt lat="45.9114" lon="4.73715">
        <ele>174</ele>
        <time>2016-09-12T08:08:46Z</time>
      </trkpt>
      <trkpt lat="45.91138" lon="4.73709">
        <ele>174</ele>
        <time>2016-09-12T08:08:47Z</time>
      </trkpt>
      <trkpt lat="45.91135" lon="4.73702">
        <ele>174</ele>
        <time>2016-09-12T08:08:48Z</time>
      </trkpt>
      <trkpt lat="45.91132" lon="4.73695">
        <ele>174</ele>
        <time>2016-09-12T08:08:49Z</time>
      </trkpt>
      <trkpt lat="45.9113" lon="4.73688">
        <ele>174</ele>
        <time>2016-09-12T08:08:50Z</time>
      </trkpt>
      <trkpt lat="45.91127" lon="4.7368">
        <ele>174</ele>
        <time>2016-09-12T08:08:51Z</time>
      </trkpt>
      <trkpt lat="45.91124" lon="4.73673">
        <ele>174</ele>
        <time>2016-09-12T08:08:52Z</time>
      </trkpt>
      <trkpt lat="45.91122" lon="4.73666">
        <ele>174</ele>
        <time>2016-09-12T08:08:53Z</time>
      </trkpt>
      <trkpt lat="45.91119" lon="4.7366">
        <ele>174</ele>
        <time>2016-09-12T08:08:54Z</time>
      </trkpt>
      <trkpt lat="45.91116" lon="4.73653">
        <ele>174</ele>
        <time>2016-09-12T08:08:55Z</time>
      </trkpt>
      <trkpt lat="45.91114" lon="4.73646">
        <ele>174</ele>
        <time>2016-09-12T08:08:56Z</time>
      </trkpt>
      <trkpt lat="45.91111" lon="4.73639">
        <ele>174</ele>
        <time>2016-09-12T08:08:57Z</time>
      </trkpt>
      <trkpt lat="45.91108" lon="4.73632">
        <ele>174</ele>
        <time>2016-09-12T08:08:58Z</time>
      </trkpt>
      <trkpt lat="45.91105" lon="4.73625">
        <ele>174</ele>
        <time>2016-09-12T08:08:59Z</time>
      </trkpt>
      <trkpt lat="45.91102" lon="4.73618">
        <ele>174</ele>
        <time>2016-09-12T08:09:00Z</time>
      </trkpt>
      <trkpt lat="45.91099" lon="4.73611">
        <ele>174</ele>
        <time>2016-09-12T08:09:01Z</time>
      </trkpt>
      <trkpt lat="45.91096" lon="4.73604">
        <ele>174</ele>
        <time>2016-09-12T08:09:02Z</time>
      </trkpt>
      <trkpt lat="45.91093" lon="4.73598">
        <ele>174</ele>
        <time>2016-09-12T08:09:03Z</time>
      </trkpt>
      <trkpt lat="45.9109" lon="4.7359">
        <ele>174</ele>
        <time>2016-09-12T08:09:04Z</time>
      </trkpt>
      <trkpt lat="45.91087" lon="4.73583">
        <ele>174</ele>
        <time>2016-09-12T08:09:05Z</time>
      </trkpt>
      <trkpt lat="45.91084" lon="4.73575">
        <ele>174</ele>
        <time>2016-09-12T08:09:06Z</time>
      </trkpt>
      <trkpt lat="45.91081" lon="4.73568">
        <ele>174</ele>
        <time>2016-09-12T08:09:07Z</time>
      </trkpt>
      <trkpt lat="45.91077" lon="4.73562">
        <ele>174</ele>
        <time>2016-09-12T08:09:08Z</time>
      </trkpt>
      <trkpt lat="45.91074" lon="4.73555">
        <ele>174</ele>
        <time>2016-09-12T08:09:09Z</time>
      </trkpt>
      <trkpt lat="45.91072" lon="4.73549">
        <ele>174</ele>
        <time>2016-09-12T08:09:10Z</time>
      </trkpt>
      <trkpt lat="45.91069" lon="4.73542">
        <ele>174</ele>
        <time>2016-09-12T08:09:11Z</time>
      </trkpt>
      <trkpt lat="45.91066" lon="4.73535">
        <ele>175</ele>
        <time>2016-09-12T08:09:12Z</time>
      </trkpt>
      <trkpt lat="45.91064" lon="4.73529">
        <ele>175</ele>
        <time>2016-09-12T08:09:13Z</time>
      </trkpt>
      <trkpt lat="45.91061" lon="4.73522">
        <ele>175</ele>
        <time>2016-09-12T08:09:14Z</time>
      </trkpt>
      <trkpt lat="45.91058" lon="4.73516">
        <ele>175</ele>
        <time>2016-09-12T08:09:15Z</time>
      </trkpt>
      <trkpt lat="45.91055" lon="4.73509">
        <ele>175</ele>
        <time>2016-09-12T08:09:16Z</time>
      </trkpt>
      <trkpt lat="45.91051" lon="4.73501">
        <ele>175</ele>
        <time>2016-09-12T08:09:17Z</time>
      </trkpt>
      <trkpt lat="45.91047" lon="4.73494">
        <ele>175</ele>
        <time>2016-09-12T08:09:18Z</time>
      </trkpt>
      <trkpt lat="45.91044" lon="4.73487">
        <ele>175</ele>
        <time>2016-09-12T08:09:19Z</time>
      </trkpt>
      <trkpt lat="45.91041" lon="4.7348">
        <ele>175</ele>
        <time>2016-09-12T08:09:20Z</time>
      </trkpt>
      <trkpt lat="45.91038" lon="4.73474">
        <ele>175</ele>
        <time>2016-09-12T08:09:21Z</time>
      </trkpt>
      <trkpt lat="45.91035" lon="4.73467">
        <ele>175</ele>
        <time>2016-09-12T08:09:22Z</time>
      </trkpt>
      <trkpt lat="45.91034" lon="4.7346">
        <ele>175</ele>
        <time>2016-09-12T08:09:23Z</time>
      </trkpt>
      <trkpt lat="45.91032" lon="4.73452">
        <ele>175</ele>
        <time>2016-09-12T08:09:24Z</time>
      </trkpt>
      <trkpt lat="45.91031" lon="4.73446">
        <ele>175</ele>
        <time>2016-09-12T08:09:25Z</time>
      </trkpt>
      <trkpt lat="45.91031" lon="4.73438">
        <ele>175</ele>
        <time>2016-09-12T08:09:26Z</time>
      </trkpt>
      <trkpt lat="45.91031" lon="4.7343">
        <ele>175</ele>
        <time>2016-09-12T08:09:27Z</time>
      </trkpt>
      <trkpt lat="45.91029" lon="4.73423">
        <ele>175</ele>
        <time>2016-09-12T08:09:28Z</time>
      </trkpt>
      <trkpt lat="45.91025" lon="4.73418">
        <ele>175</ele>
        <time>2016-09-12T08:09:29Z</time>
      </trkpt>
      <trkpt lat="45.9102" lon="4.73415">
        <ele>174</ele>
        <time>2016-09-12T08:09:30Z</time>
      </trkpt>
      <trkpt lat="45.91014" lon="4.73415">
        <ele>175</ele>
        <time>2016-09-12T08:09:31Z</time>
      </trkpt>
      <trkpt lat="45.91009" lon="4.73416">
        <ele>175</ele>
        <time>2016-09-12T08:09:32Z</time>
      </trkpt>
      <trkpt lat="45.91004" lon="4.73419">
        <ele>175</ele>
        <time>2016-09-12T08:09:33Z</time>
      </trkpt>
      <trkpt lat="45.91" lon="4.73424">
        <ele>175</ele>
        <time>2016-09-12T08:09:34Z</time>
      </trkpt>
      <trkpt lat="45.90996" lon="4.73429">
        <ele>175</ele>
        <time>2016-09-12T08:09:35Z</time>
      </trkpt>
      <trkpt lat="45.90992" lon="4.73433">
        <ele>175</ele>
        <time>2016-09-12T08:09:36Z</time>
      </trkpt>
      <trkpt lat="45.90986" lon="4.73437">
        <ele>175</ele>
        <time>2016-09-12T08:09:37Z</time>
      </trkpt>
      <trkpt lat="45.90981" lon="4.73441">
        <ele>175</ele>
        <time>2016-09-12T08:09:38Z</time>
      </trkpt>
      <trkpt lat="45.90975" lon="4.73444">
        <ele>175</ele>
        <time>2016-09-12T08:09:39Z</time>
      </trkpt>
      <trkpt lat="45.9097" lon="4.73447">
        <ele>175</ele>
        <time>2016-09-12T08:09:40Z</time>
      </trkpt>
      <trkpt lat="45.90964" lon="4.7345">
        <ele>175</ele>
        <time>2016-09-12T08:09:41Z</time>
      </trkpt>
      <trkpt lat="45.90958" lon="4.73453">
        <ele>175</ele>
        <time>2016-09-12T08:09:42Z</time>
      </trkpt>
      <trkpt lat="45.90952" lon="4.73456">
        <ele>175</ele>
        <time>2016-09-12T08:09:43Z</time>
      </trkpt>
      <trkpt lat="45.90946" lon="4.73458">
        <ele>175</ele>
        <time>2016-09-12T08:09:44Z</time>
      </trkpt>
      <trkpt lat="45.9094" lon="4.73461">
        <ele>175</ele>
        <time>2016-09-12T08:09:45Z</time>
      </trkpt>
      <trkpt lat="45.90934" lon="4.73464">
        <ele>175</ele>
        <time>2016-09-12T08:09:46Z</time>
      </trkpt>
      <trkpt lat="45.90928" lon="4.73466">
        <ele>175</ele>
        <time>2016-09-12T08:09:47Z</time>
      </trkpt>
      <trkpt lat="45.90921" lon="4.73469">
        <ele>175</ele>
        <time>2016-09-12T08:09:48Z</time>
      </trkpt>
      <trkpt lat="45.90915" lon="4.73471">
        <ele>175</ele>
        <time>2016-09-12T08:09:49Z</time>
      </trkpt>
      <trkpt lat="45.90909" lon="4.73474">
        <ele>175</ele>
        <time>2016-09-12T08:09:50Z</time>
      </trkpt>
      <trkpt lat="45.90902" lon="4.73476">
        <ele>175</ele>
        <time>2016-09-12T08:09:51Z</time>
      </trkpt>
      <trkpt lat="45.90896" lon="4.73479">
        <ele>175</ele>
        <time>2016-09-12T08:09:52Z</time>
      </trkpt>
      <trkpt lat="45.90889" lon="4.73481">
        <ele>175</ele>
        <time>2016-09-12T08:09:53Z</time>
      </trkpt>
      <trkpt lat="45.90883" lon="4.73484">
        <ele>175</ele>
        <time>2016-09-12T08:09:54Z</time>
      </trkpt>
      <trkpt lat="45.90877" lon="4.73487">
        <ele>175</ele>
        <time>2016-09-12T08:09:55Z</time>
      </trkpt>
      <trkpt lat="45.90871" lon="4.73489">
        <ele>175</ele>
        <time>2016-09-12T08:09:56Z</time>
      </trkpt>
      <trkpt lat="45.90865" lon="4.73492">
        <ele>175</ele>
        <time>2016-09-12T08:09:57Z</time>
      </trkpt>
      <trkpt lat="45.90858" lon="4.73494">
        <ele>175</ele>
        <time>2016-09-12T08:09:58Z</time>
      </trkpt>
      <trkpt lat="45.90852" lon="4.73497">
        <ele>174</ele>
        <time>2016-09-12T08:09:59Z</time>
      </trkpt>
      <trkpt lat="45.90846" lon="4.735">
        <ele>174</ele>
        <time>2016-09-12T08:10:00Z</time>
      </trkpt>
      <trkpt lat="45.9084" lon="4.73502">
        <ele>174</ele>
        <time>2016-09-12T08:10:01Z</time>
      </trkpt>
      <trkpt lat="45.90834" lon="4.73504">
        <ele>174</ele>
        <time>2016-09-12T08:10:02Z</time>
      </trkpt>
      <trkpt lat="45.90827" lon="4.73506">
        <ele>174</ele>
        <time>2016-09-12T08:10:03Z</time>
      </trkpt>
      <trkpt lat="45.90821" lon="4.73509">
        <ele>175</ele>
        <time>2016-09-12T08:10:04Z</time>
      </trkpt>
      <trkpt lat="45.90815" lon="4.73511">
        <ele>175</ele>
        <time>2016-09-12T08:10:05Z</time>
      </trkpt>
      <trkpt lat="45.90809" lon="4.73513">
        <ele>175</ele>
        <time>2016-09-12T08:10:06Z</time>
      </trkpt>
      <trkpt lat="45.90803" lon="4.73515">
        <ele>175</ele>
        <time>2016-09-12T08:10:07Z</time>
      </trkpt>
      <trkpt lat="45.90796" lon="4.73517">
        <ele>175</ele>
        <time>2016-09-12T08:10:08Z</time>
      </trkpt>
      <trkpt lat="45.9079" lon="4.73519">
        <ele>175</ele>
        <time>2016-09-12T08:10:09Z</time>
      </trkpt>
      <trkpt lat="45.90784" lon="4.73521">
        <ele>176</ele>
        <time>2016-09-12T08:10:10Z</time>
      </trkpt>
      <trkpt lat="45.90778" lon="4.73524">
        <ele>176</ele>
        <time>2016-09-12T08:10:11Z</time>
      </trkpt>
      <trkpt lat="45.90772" lon="4.73526">
        <ele>176</ele>
        <time>2016-09-12T08:10:12Z</time>
      </trkpt>
      <trkpt lat="45.90767" lon="4.73529">
        <ele>176</ele>
        <time>2016-09-12T08:10:13Z</time>
      </trkpt>
      <trkpt lat="45.90761" lon="4.73531">
        <ele>176</ele>
        <time>2016-09-12T08:10:14Z</time>
      </trkpt>
      <trkpt lat="45.90756" lon="4.73534">
        <ele>176</ele>
        <time>2016-09-12T08:10:15Z</time>
      </trkpt>
      <trkpt lat="45.90751" lon="4.73537">
        <ele>176</ele>
        <time>2016-09-12T08:10:16Z</time>
      </trkpt>
      <trkpt lat="45.90746" lon="4.7354">
        <ele>177</ele>
        <time>2016-09-12T08:10:17Z</time>
      </trkpt>
      <trkpt lat="45.90741" lon="4.73543">
        <ele>177</ele>
        <time>2016-09-12T08:10:18Z</time>
      </trkpt>
      <trkpt lat="45.90736" lon="4.73545">
        <ele>177</ele>
        <time>2016-09-12T08:10:19Z</time>
      </trkpt>
      <trkpt lat="45.9073" lon="4.73547">
        <ele>178</ele>
        <time>2016-09-12T08:10:20Z</time>
      </trkpt>
      <trkpt lat="45.90725" lon="4.73549">
        <ele>178</ele>
        <time>2016-09-12T08:10:21Z</time>
      </trkpt>
      <trkpt lat="45.9072" lon="4.73552">
        <ele>178</ele>
        <time>2016-09-12T08:10:22Z</time>
      </trkpt>
      <trkpt lat="45.90715" lon="4.73554">
        <ele>178</ele>
        <time>2016-09-12T08:10:23Z</time>
      </trkpt>
      <trkpt lat="45.9071" lon="4.73556">
        <ele>178</ele>
        <time>2016-09-12T08:10:24Z</time>
      </trkpt>
      <trkpt lat="45.90705" lon="4.73558">
        <ele>178</ele>
        <time>2016-09-12T08:10:25Z</time>
      </trkpt>
      <trkpt lat="45.907" lon="4.7356">
        <ele>178</ele>
        <time>2016-09-12T08:10:26Z</time>
      </trkpt>
      <trkpt lat="45.90695" lon="4.73562">
        <ele>178</ele>
        <time>2016-09-12T08:10:27Z</time>
      </trkpt>
      <trkpt lat="45.9069" lon="4.73564">
        <ele>178</ele>
        <time>2016-09-12T08:10:28Z</time>
      </trkpt>
      <trkpt lat="45.90685" lon="4.73566">
        <ele>178</ele>
        <time>2016-09-12T08:10:29Z</time>
      </trkpt>
      <trkpt lat="45.9068" lon="4.73568">
        <ele>179</ele>
        <time>2016-09-12T08:10:30Z</time>
      </trkpt>
      <trkpt lat="45.90675" lon="4.7357">
        <ele>179</ele>
        <time>2016-09-12T08:10:31Z</time>
      </trkpt>
      <trkpt lat="45.9067" lon="4.73573">
        <ele>179</ele>
        <time>2016-09-12T08:10:32Z</time>
      </trkpt>
      <trkpt lat="45.90666" lon="4.73575">
        <ele>179</ele>
        <time>2016-09-12T08:10:33Z</time>
      </trkpt>
      <trkpt lat="45.90661" lon="4.73577">
        <ele>179</ele>
        <time>2016-09-12T08:10:34Z</time>
      </trkpt>
      <trkpt lat="45.90656" lon="4.73579">
        <ele>179</ele>
        <time>2016-09-12T08:10:35Z</time>
      </trkpt>
      <trkpt lat="45.90651" lon="4.73581">
        <ele>179</ele>
        <time>2016-09-12T08:10:36Z</time>
      </trkpt>
      <trkpt lat="45.90647" lon="4.73582">
        <ele>179</ele>
        <time>2016-09-12T08:10:37Z</time>
      </trkpt>
      <trkpt lat="45.90639" lon="4.73586">
        <ele>181</ele>
        <time>2016-09-12T08:10:39Z</time>
      </trkpt>
      <trkpt lat="45.90634" lon="4.73589">
        <ele>181</ele>
        <time>2016-09-12T08:10:40Z</time>
      </trkpt>
      <trkpt lat="45.9063" lon="4.73591">
        <ele>181</ele>
        <time>2016-09-12T08:10:41Z</time>
      </trkpt>
      <trkpt lat="45.90625" lon="4.73593">
        <ele>180</ele>
        <time>2016-09-12T08:10:42Z</time>
      </trkpt>
      <trkpt lat="45.90616" lon="4.73597">
        <ele>180</ele>
        <time>2016-09-12T08:10:44Z</time>
      </trkpt>
      <trkpt lat="45.90612" lon="4.73599">
        <ele>180</ele>
        <time>2016-09-12T08:10:45Z</time>
      </trkpt>
      <trkpt lat="45.90608" lon="4.73601">
        <ele>180</ele>
        <time>2016-09-12T08:10:46Z</time>
      </trkpt>
      <trkpt lat="45.90603" lon="4.73603">
        <ele>180</ele>
        <time>2016-09-12T08:10:47Z</time>
      </trkpt>
      <trkpt lat="45.90599" lon="4.73605">
        <ele>180</ele>
        <time>2016-09-12T08:10:48Z</time>
      </trkpt>
      <trkpt lat="45.90595" lon="4.73607">
        <ele>180</ele>
        <time>2016-09-12T08:10:49Z</time>
      </trkpt>
      <trkpt lat="45.9059" lon="4.73609">
        <ele>180</ele>
        <time>2016-09-12T08:10:50Z</time>
      </trkpt>
      <trkpt lat="45.90585" lon="4.73611">
        <ele>180</ele>
        <time>2016-09-12T08:10:51Z</time>
      </trkpt>
      <trkpt lat="45.90581" lon="4.73613">
        <ele>178</ele>
        <time>2016-09-12T08:10:52Z</time>
      </trkpt>
      <trkpt lat="45.90576" lon="4.73615">
        <ele>178</ele>
        <time>2016-09-12T08:10:53Z</time>
      </trkpt>
      <trkpt lat="45.90572" lon="4.73617">
        <ele>178</ele>
        <time>2016-09-12T08:10:54Z</time>
      </trkpt>
      <trkpt lat="45.90567" lon="4.73619">
        <ele>178</ele>
        <time>2016-09-12T08:10:55Z</time>
      </trkpt>
      <trkpt lat="45.90562" lon="4.73621">
        <ele>178</ele>
        <time>2016-09-12T08:10:56Z</time>
      </trkpt>
      <trkpt lat="45.90558" lon="4.73623">
        <ele>178</ele>
        <time>2016-09-12T08:10:57Z</time>
      </trkpt>
      <trkpt lat="45.90553" lon="4.73625">
        <ele>178</ele>
        <time>2016-09-12T08:10:58Z</time>
      </trkpt>
      <trkpt lat="45.90548" lon="4.73627">
        <ele>178</ele>
        <time>2016-09-12T08:10:59Z</time>
      </trkpt>
      <trkpt lat="45.90543" lon="4.73629">
        <ele>178</ele>
        <time>2016-09-12T08:11:00Z</time>
      </trkpt>
      <trkpt lat="45.90538" lon="4.73631">
        <ele>178</ele>
        <time>2016-09-12T08:11:01Z</time>
      </trkpt>
      <trkpt lat="45.90534" lon="4.73632">
        <ele>178</ele>
        <time>2016-09-12T08:11:02Z</time>
      </trkpt>
      <trkpt lat="45.90529" lon="4.73634">
        <ele>178</ele>
        <time>2016-09-12T08:11:03Z</time>
      </trkpt>
      <trkpt lat="45.90524" lon="4.73636">
        <ele>178</ele>
        <time>2016-09-12T08:11:04Z</time>
      </trkpt>
      <trkpt lat="45.90519" lon="4.73639">
        <ele>178</ele>
        <time>2016-09-12T08:11:05Z</time>
      </trkpt>
      <trkpt lat="45.90514" lon="4.73641">
        <ele>178</ele>
        <time>2016-09-12T08:11:06Z</time>
      </trkpt>
      <trkpt lat="45.90508" lon="4.73643">
        <ele>178</ele>
        <time>2016-09-12T08:11:07Z</time>
      </trkpt>
      <trkpt lat="45.90503" lon="4.73645">
        <ele>178</ele>
        <time>2016-09-12T08:11:08Z</time>
      </trkpt>
      <trkpt lat="45.90497" lon="4.73647">
        <ele>177</ele>
        <time>2016-09-12T08:11:09Z</time>
      </trkpt>
      <trkpt lat="45.90492" lon="4.73649">
        <ele>177</ele>
        <time>2016-09-12T08:11:10Z</time>
      </trkpt>
      <trkpt lat="45.90487" lon="4.73651">
        <ele>177</ele>
        <time>2016-09-12T08:11:11Z</time>
      </trkpt>
      <trkpt lat="45.90482" lon="4.73654">
        <ele>177</ele>
        <time>2016-09-12T08:11:12Z</time>
      </trkpt>
      <trkpt lat="45.90477" lon="4.73656">
        <ele>177</ele>
        <time>2016-09-12T08:11:13Z</time>
      </trkpt>
      <trkpt lat="45.90472" lon="4.73658">
        <ele>177</ele>
        <time>2016-09-12T08:11:14Z</time>
      </trkpt>
      <trkpt lat="45.90467" lon="4.73661">
        <ele>177</ele>
        <time>2016-09-12T08:11:15Z</time>
      </trkpt>
      <trkpt lat="45.90462" lon="4.73663">
        <ele>177</ele>
        <time>2016-09-12T08:11:16Z</time>
      </trkpt>
      <trkpt lat="45.90457" lon="4.73666">
        <ele>177</ele>
        <time>2016-09-12T08:11:17Z</time>
      </trkpt>
      <trkpt lat="45.90451" lon="4.73669">
        <ele>176</ele>
        <time>2016-09-12T08:11:18Z</time>
      </trkpt>
      <trkpt lat="45.90446" lon="4.73672">
        <ele>176</ele>
        <time>2016-09-12T08:11:19Z</time>
      </trkpt>
      <trkpt lat="45.9044" lon="4.73675">
        <ele>176</ele>
        <time>2016-09-12T08:11:20Z</time>
      </trkpt>
      <trkpt lat="45.90435" lon="4.73677">
        <ele>176</ele>
        <time>2016-09-12T08:11:21Z</time>
      </trkpt>
      <trkpt lat="45.90428" lon="4.7368">
        <ele>177</ele>
        <time>2016-09-12T08:11:22Z</time>
      </trkpt>
      <trkpt lat="45.90422" lon="4.73682">
        <ele>177</ele>
        <time>2016-09-12T08:11:23Z</time>
      </trkpt>
      <trkpt lat="45.90417" lon="4.73685">
        <ele>177</ele>
        <time>2016-09-12T08:11:24Z</time>
      </trkpt>
      <trkpt lat="45.9041" lon="4.73688">
        <ele>177</ele>
        <time>2016-09-12T08:11:25Z</time>
      </trkpt>
      <trkpt lat="45.90404" lon="4.7369">
        <ele>177</ele>
        <time>2016-09-12T08:11:26Z</time>
      </trkpt>
      <trkpt lat="45.90398" lon="4.73693">
        <ele>177</ele>
        <time>2016-09-12T08:11:27Z</time>
      </trkpt>
      <trkpt lat="45.90391" lon="4.73696">
        <ele>177</ele>
        <time>2016-09-12T08:11:28Z</time>
      </trkpt>
      <trkpt lat="45.90385" lon="4.73699">
        <ele>177</ele>
        <time>2016-09-12T08:11:29Z</time>
      </trkpt>
      <trkpt lat="45.90378" lon="4.73701">
        <ele>177</ele>
        <time>2016-09-12T08:11:30Z</time>
      </trkpt>
      <trkpt lat="45.90371" lon="4.73704">
        <ele>177</ele>
        <time>2016-09-12T08:11:31Z</time>
      </trkpt>
      <trkpt lat="45.90364" lon="4.73707">
        <ele>177</ele>
        <time>2016-09-12T08:11:32Z</time>
      </trkpt>
      <trkpt lat="45.90356" lon="4.73709">
        <ele>177</ele>
        <time>2016-09-12T08:11:33Z</time>
      </trkpt>
      <trkpt lat="45.90349" lon="4.73712">
        <ele>177</ele>
        <time>2016-09-12T08:11:34Z</time>
      </trkpt>
      <trkpt lat="45.90341" lon="4.73716">
        <ele>177</ele>
        <time>2016-09-12T08:11:35Z</time>
      </trkpt>
      <trkpt lat="45.90334" lon="4.73719">
        <ele>177</ele>
        <time>2016-09-12T08:11:36Z</time>
      </trkpt>
      <trkpt lat="45.90326" lon="4.73722">
        <ele>177</ele>
        <time>2016-09-12T08:11:37Z</time>
      </trkpt>
      <trkpt lat="45.90318" lon="4.73724">
        <ele>177</ele>
        <time>2016-09-12T08:11:38Z</time>
      </trkpt>
      <trkpt lat="45.90311" lon="4.73728">
        <ele>177</ele>
        <time>2016-09-12T08:11:39Z</time>
      </trkpt>
      <trkpt lat="45.90304" lon="4.73731">
        <ele>177</ele>
        <time>2016-09-12T08:11:40Z</time>
      </trkpt>
      <trkpt lat="45.90297" lon="4.73734">
        <ele>177</ele>
        <time>2016-09-12T08:11:41Z</time>
      </trkpt>
      <trkpt lat="45.90289" lon="4.73737">
        <ele>177</ele>
        <time>2016-09-12T08:11:42Z</time>
      </trkpt>
      <trkpt lat="45.90282" lon="4.7374">
        <ele>177</ele>
        <time>2016-09-12T08:11:43Z</time>
      </trkpt>
      <trkpt lat="45.90274" lon="4.73742">
        <ele>177</ele>
        <time>2016-09-12T08:11:44Z</time>
      </trkpt>
      <trkpt lat="45.90268" lon="4.73745">
        <ele>178</ele>
        <time>2016-09-12T08:11:45Z</time>
      </trkpt>
      <trkpt lat="45.90261" lon="4.73748">
        <ele>178</ele>
        <time>2016-09-12T08:11:46Z</time>
      </trkpt>
      <trkpt lat="45.90254" lon="4.7375">
        <ele>178</ele>
        <time>2016-09-12T08:11:47Z</time>
      </trkpt>
      <trkpt lat="45.90248" lon="4.73753">
        <ele>178</ele>
        <time>2016-09-12T08:11:48Z</time>
      </trkpt>
      <trkpt lat="45.90242" lon="4.73756">
        <ele>178</ele>
        <time>2016-09-12T08:11:49Z</time>
      </trkpt>
      <trkpt lat="45.90235" lon="4.73758">
        <ele>177</ele>
        <time>2016-09-12T08:11:50Z</time>
      </trkpt>
      <trkpt lat="45.90229" lon="4.73761">
        <ele>177</ele>
        <time>2016-09-12T08:11:51Z</time>
      </trkpt>
      <trkpt lat="45.90223" lon="4.73764">
        <ele>177</ele>
        <time>2016-09-12T08:11:52Z</time>
      </trkpt>
      <trkpt lat="45.90217" lon="4.73767">
        <ele>177</ele>
        <time>2016-09-12T08:11:53Z</time>
      </trkpt>
      <trkpt lat="45.90211" lon="4.7377">
        <ele>177</ele>
        <time>2016-09-12T08:11:54Z</time>
      </trkpt>
      <trkpt lat="45.90204" lon="4.73773">
        <ele>177</ele>
        <time>2016-09-12T08:11:55Z</time>
      </trkpt>
      <trkpt lat="45.90198" lon="4.73776">
        <ele>177</ele>
        <time>2016-09-12T08:11:56Z</time>
      </trkpt>
      <trkpt lat="45.90191" lon="4.73779">
        <ele>177</ele>
        <time>2016-09-12T08:11:57Z</time>
      </trkpt>
      <trkpt lat="45.90185" lon="4.73781">
        <ele>177</ele>
        <time>2016-09-12T08:11:58Z</time>
      </trkpt>
      <trkpt lat="45.90179" lon="4.73783">
        <ele>177</ele>
        <time>2016-09-12T08:11:59Z</time>
      </trkpt>
      <trkpt lat="45.90172" lon="4.73785">
        <ele>177</ele>
        <time>2016-09-12T08:12:00Z</time>
      </trkpt>
      <trkpt lat="45.90166" lon="4.73788">
        <ele>176</ele>
        <time>2016-09-12T08:12:01Z</time>
      </trkpt>
      <trkpt lat="45.9016" lon="4.73791">
        <ele>176</ele>
        <time>2016-09-12T08:12:02Z</time>
      </trkpt>
      <trkpt lat="45.90154" lon="4.73793">
        <ele>177</ele>
        <time>2016-09-12T08:12:03Z</time>
      </trkpt>
      <trkpt lat="45.90148" lon="4.73796">
        <ele>177</ele>
        <time>2016-09-12T08:12:04Z</time>
      </trkpt>
      <trkpt lat="45.90142" lon="4.73799">
        <ele>177</ele>
        <time>2016-09-12T08:12:05Z</time>
      </trkpt>
      <trkpt lat="45.90136" lon="4.73802">
        <ele>177</ele>
        <time>2016-09-12T08:12:06Z</time>
      </trkpt>
      <trkpt lat="45.90129" lon="4.73805">
        <ele>177</ele>
        <time>2016-09-12T08:12:07Z</time>
      </trkpt>
      <trkpt lat="45.90123" lon="4.73808">
        <ele>177</ele>
        <time>2016-09-12T08:12:08Z</time>
      </trkpt>
      <trkpt lat="45.90118" lon="4.73811">
        <ele>177</ele>
        <time>2016-09-12T08:12:09Z</time>
      </trkpt>
      <trkpt lat="45.90112" lon="4.73813">
        <ele>177</ele>
        <time>2016-09-12T08:12:10Z</time>
      </trkpt>
      <trkpt lat="45.90106" lon="4.73816">
        <ele>177</ele>
        <time>2016-09-12T08:12:11Z</time>
      </trkpt>
      <trkpt lat="45.90099" lon="4.73819">
        <ele>177</ele>
        <time>2016-09-12T08:12:12Z</time>
      </trkpt>
      <trkpt lat="45.90092" lon="4.73822">
        <ele>177</ele>
        <time>2016-09-12T08:12:13Z</time>
      </trkpt>
      <trkpt lat="45.90086" lon="4.73824">
        <ele>178</ele>
        <time>2016-09-12T08:12:14Z</time>
      </trkpt>
      <trkpt lat="45.90079" lon="4.73826">
        <ele>178</ele>
        <time>2016-09-12T08:12:15Z</time>
      </trkpt>
      <trkpt lat="45.90072" lon="4.73829">
        <ele>178</ele>
        <time>2016-09-12T08:12:16Z</time>
      </trkpt>
      <trkpt lat="45.90066" lon="4.73831">
        <ele>178</ele>
        <time>2016-09-12T08:12:17Z</time>
      </trkpt>
      <trkpt lat="45.90059" lon="4.73834">
        <ele>178</ele>
        <time>2016-09-12T08:12:18Z</time>
      </trkpt>
      <trkpt lat="45.90052" lon="4.73836">
        <ele>178</ele>
        <time>2016-09-12T08:12:19Z</time>
      </trkpt>
      <trkpt lat="45.90046" lon="4.73839">
        <ele>178</ele>
        <time>2016-09-12T08:12:20Z</time>
      </trkpt>
      <trkpt lat="45.9004" lon="4.73842">
        <ele>178</ele>
        <time>2016-09-12T08:12:21Z</time>
      </trkpt>
      <trkpt lat="45.90034" lon="4.73846">
        <ele>178</ele>
        <time>2016-09-12T08:12:22Z</time>
      </trkpt>
      <trkpt lat="45.90029" lon="4.73849">
        <ele>178</ele>
        <time>2016-09-12T08:12:23Z</time>
      </trkpt>
      <trkpt lat="45.90023" lon="4.73851">
        <ele>178</ele>
        <time>2016-09-12T08:12:24Z</time>
      </trkpt>
      <trkpt lat="45.90016" lon="4.73853">
        <ele>178</ele>
        <time>2016-09-12T08:12:25Z</time>
      </trkpt>
      <trkpt lat="45.9001" lon="4.73855">
        <ele>178</ele>
        <time>2016-09-12T08:12:26Z</time>
      </trkpt>
      <trkpt lat="45.90003" lon="4.73858">
        <ele>178</ele>
        <time>2016-09-12T08:12:27Z</time>
      </trkpt>
      <trkpt lat="45.89997" lon="4.73861">
        <ele>178</ele>
        <time>2016-09-12T08:12:28Z</time>
      </trkpt>
      <trkpt lat="45.89991" lon="4.73863">
        <ele>178</ele>
        <time>2016-09-12T08:12:29Z</time>
      </trkpt>
      <trkpt lat="45.89985" lon="4.73865">
        <ele>178</ele>
        <time>2016-09-12T08:12:30Z</time>
      </trkpt>
      <trkpt lat="45.8998" lon="4.73868">
        <ele>178</ele>
        <time>2016-09-12T08:12:31Z</time>
      </trkpt>
      <trkpt lat="45.89974" lon="4.7387">
        <ele>178</ele>
        <time>2016-09-12T08:12:32Z</time>
      </trkpt>
      <trkpt lat="45.89968" lon="4.73872">
        <ele>178</ele>
        <time>2016-09-12T08:12:33Z</time>
      </trkpt>
      <trkpt lat="45.89961" lon="4.73875">
        <ele>178</ele>
        <time>2016-09-12T08:12:34Z</time>
      </trkpt>
      <trkpt lat="45.89955" lon="4.73878">
        <ele>178</ele>
        <time>2016-09-12T08:12:35Z</time>
      </trkpt>
      <trkpt lat="45.89949" lon="4.73881">
        <ele>178</ele>
        <time>2016-09-12T08:12:36Z</time>
      </trkpt>
      <trkpt lat="45.89943" lon="4.73883">
        <ele>178</ele>
        <time>2016-09-12T08:12:37Z</time>
      </trkpt>
      <trkpt lat="45.89936" lon="4.73886">
        <ele>178</ele>
        <time>2016-09-12T08:12:38Z</time>
      </trkpt>
      <trkpt lat="45.8993" lon="4.73889">
        <ele>178</ele>
        <time>2016-09-12T08:12:39Z</time>
      </trkpt>
      <trkpt lat="45.89923" lon="4.73892">
        <ele>178</ele>
        <time>2016-09-12T08:12:40Z</time>
      </trkpt>
      <trkpt lat="45.89917" lon="4.73894">
        <ele>178</ele>
        <time>2016-09-12T08:12:41Z</time>
      </trkpt>
      <trkpt lat="45.89911" lon="4.73898">
        <ele>178</ele>
        <time>2016-09-12T08:12:42Z</time>
      </trkpt>
      <trkpt lat="45.89905" lon="4.739">
        <ele>178</ele>
        <time>2016-09-12T08:12:43Z</time>
      </trkpt>
      <trkpt lat="45.899" lon="4.73903">
        <ele>178</ele>
        <time>2016-09-12T08:12:44Z</time>
      </trkpt>
      <trkpt lat="45.89894" lon="4.73905">
        <ele>179</ele>
        <time>2016-09-12T08:12:45Z</time>
      </trkpt>
      <trkpt lat="45.89889" lon="4.73907">
        <ele>179</ele>
        <time>2016-09-12T08:12:46Z</time>
      </trkpt>
      <trkpt lat="45.89883" lon="4.7391">
        <ele>179</ele>
        <time>2016-09-12T08:12:47Z</time>
      </trkpt>
      <trkpt lat="45.89877" lon="4.73912">
        <ele>179</ele>
        <time>2016-09-12T08:12:48Z</time>
      </trkpt>
      <trkpt lat="45.89871" lon="4.73914">
        <ele>179</ele>
        <time>2016-09-12T08:12:49Z</time>
      </trkpt>
      <trkpt lat="45.89866" lon="4.73917">
        <ele>179</ele>
        <time>2016-09-12T08:12:50Z</time>
      </trkpt>
      <trkpt lat="45.8986" lon="4.7392">
        <ele>179</ele>
        <time>2016-09-12T08:12:51Z</time>
      </trkpt>
      <trkpt lat="45.89854" lon="4.73923">
        <ele>179</ele>
        <time>2016-09-12T08:12:52Z</time>
      </trkpt>
      <trkpt lat="45.89849" lon="4.73925">
        <ele>179</ele>
        <time>2016-09-12T08:12:53Z</time>
      </trkpt>
      <trkpt lat="45.89843" lon="4.73928">
        <ele>179</ele>
        <time>2016-09-12T08:12:54Z</time>
      </trkpt>
      <trkpt lat="45.89837" lon="4.7393">
        <ele>179</ele>
        <time>2016-09-12T08:12:55Z</time>
      </trkpt>
      <trkpt lat="45.89832" lon="4.73932">
        <ele>179</ele>
        <time>2016-09-12T08:12:56Z</time>
      </trkpt>
      <trkpt lat="45.89826" lon="4.73934">
        <ele>179</ele>
        <time>2016-09-12T08:12:57Z</time>
      </trkpt>
      <trkpt lat="45.89821" lon="4.73937">
        <ele>179</ele>
        <time>2016-09-12T08:12:58Z</time>
      </trkpt>
      <trkpt lat="45.89815" lon="4.73939">
        <ele>179</ele>
        <time>2016-09-12T08:12:59Z</time>
      </trkpt>
      <trkpt lat="45.89809" lon="4.73941">
        <ele>179</ele>
        <time>2016-09-12T08:13:00Z</time>
      </trkpt>
      <trkpt lat="45.89803" lon="4.73943">
        <ele>179</ele>
        <time>2016-09-12T08:13:01Z</time>
      </trkpt>
      <trkpt lat="45.89798" lon="4.73945">
        <ele>179</ele>
        <time>2016-09-12T08:13:02Z</time>
      </trkpt>
      <trkpt lat="45.89792" lon="4.73948">
        <ele>179</ele>
        <time>2016-09-12T08:13:03Z</time>
      </trkpt>
      <trkpt lat="45.89786" lon="4.7395">
        <ele>179</ele>
        <time>2016-09-12T08:13:04Z</time>
      </trkpt>
      <trkpt lat="45.8978" lon="4.73952">
        <ele>179</ele>
        <time>2016-09-12T08:13:05Z</time>
      </trkpt>
      <trkpt lat="45.89774" lon="4.73955">
        <ele>179</ele>
        <time>2016-09-12T08:13:06Z</time>
      </trkpt>
      <trkpt lat="45.89768" lon="4.73958">
        <ele>179</ele>
        <time>2016-09-12T08:13:07Z</time>
      </trkpt>
      <trkpt lat="45.89763" lon="4.7396">
        <ele>179</ele>
        <time>2016-09-12T08:13:08Z</time>
      </trkpt>
      <trkpt lat="45.89757" lon="4.73963">
        <ele>178</ele>
        <time>2016-09-12T08:13:09Z</time>
      </trkpt>
      <trkpt lat="45.89751" lon="4.73965">
        <ele>178</ele>
        <time>2016-09-12T08:13:10Z</time>
      </trkpt>
      <trkpt lat="45.89745" lon="4.73968">
        <ele>178</ele>
        <time>2016-09-12T08:13:11Z</time>
      </trkpt>
      <trkpt lat="45.89739" lon="4.73971">
        <ele>178</ele>
        <time>2016-09-12T08:13:12Z</time>
      </trkpt>
      <trkpt lat="45.89732" lon="4.73973">
        <ele>178</ele>
        <time>2016-09-12T08:13:13Z</time>
      </trkpt>
      <trkpt lat="45.89727" lon="4.73977">
        <ele>178</ele>
        <time>2016-09-12T08:13:14Z</time>
      </trkpt>
      <trkpt lat="45.89721" lon="4.7398">
        <ele>178</ele>
        <time>2016-09-12T08:13:15Z</time>
      </trkpt>
      <trkpt lat="45.89715" lon="4.73983">
        <ele>178</ele>
        <time>2016-09-12T08:13:16Z</time>
      </trkpt>
      <trkpt lat="45.89709" lon="4.73985">
        <ele>178</ele>
        <time>2016-09-12T08:13:17Z</time>
      </trkpt>
      <trkpt lat="45.89703" lon="4.73987">
        <ele>178</ele>
        <time>2016-09-12T08:13:18Z</time>
      </trkpt>
      <trkpt lat="45.89696" lon="4.73989">
        <ele>178</ele>
        <time>2016-09-12T08:13:19Z</time>
      </trkpt>
      <trkpt lat="45.8969" lon="4.73991">
        <ele>179</ele>
        <time>2016-09-12T08:13:20Z</time>
      </trkpt>
      <trkpt lat="45.89683" lon="4.73993">
        <ele>179</ele>
        <time>2016-09-12T08:13:21Z</time>
      </trkpt>
      <trkpt lat="45.89677" lon="4.73996">
        <ele>179</ele>
        <time>2016-09-12T08:13:22Z</time>
      </trkpt>
      <trkpt lat="45.8967" lon="4.73999">
        <ele>179</ele>
        <time>2016-09-12T08:13:23Z</time>
      </trkpt>
      <trkpt lat="45.89663" lon="4.74002">
        <ele>179</ele>
        <time>2016-09-12T08:13:24Z</time>
      </trkpt>
      <trkpt lat="45.89657" lon="4.74004">
        <ele>179</ele>
        <time>2016-09-12T08:13:25Z</time>
      </trkpt>
      <trkpt lat="45.8965" lon="4.74007">
        <ele>180</ele>
        <time>2016-09-12T08:13:26Z</time>
      </trkpt>
      <trkpt lat="45.89644" lon="4.74009">
        <ele>180</ele>
        <time>2016-09-12T08:13:27Z</time>
      </trkpt>
      <trkpt lat="45.89637" lon="4.74011">
        <ele>180</ele>
        <time>2016-09-12T08:13:28Z</time>
      </trkpt>
      <trkpt lat="45.89631" lon="4.74014">
        <ele>180</ele>
        <time>2016-09-12T08:13:29Z</time>
      </trkpt>
      <trkpt lat="45.89625" lon="4.74017">
        <ele>180</ele>
        <time>2016-09-12T08:13:30Z</time>
      </trkpt>
      <trkpt lat="45.89619" lon="4.7402">
        <ele>180</ele>
        <time>2016-09-12T08:13:31Z</time>
      </trkpt>
      <trkpt lat="45.89613" lon="4.74023">
        <ele>180</ele>
        <time>2016-09-12T08:13:32Z</time>
      </trkpt>
      <trkpt lat="45.89607" lon="4.74026">
        <ele>180</ele>
        <time>2016-09-12T08:13:33Z</time>
      </trkpt>
      <trkpt lat="45.89601" lon="4.74027">
        <ele>180</ele>
        <time>2016-09-12T08:13:34Z</time>
      </trkpt>
      <trkpt lat="45.89596" lon="4.7403">
        <ele>180</ele>
        <time>2016-09-12T08:13:35Z</time>
      </trkpt>
      <trkpt lat="45.8959" lon="4.74032">
        <ele>180</ele>
        <time>2016-09-12T08:13:36Z</time>
      </trkpt>
      <trkpt lat="45.89584" lon="4.74034">
        <ele>180</ele>
        <time>2016-09-12T08:13:37Z</time>
      </trkpt>
      <trkpt lat="45.89578" lon="4.74037">
        <ele>181</ele>
        <time>2016-09-12T08:13:38Z</time>
      </trkpt>
      <trkpt lat="45.89573" lon="4.74039">
        <ele>181</ele>
        <time>2016-09-12T08:13:39Z</time>
      </trkpt>
      <trkpt lat="45.89567" lon="4.74042">
        <ele>181</ele>
        <time>2016-09-12T08:13:40Z</time>
      </trkpt>
      <trkpt lat="45.89561" lon="4.74045">
        <ele>181</ele>
        <time>2016-09-12T08:13:41Z</time>
      </trkpt>
      <trkpt lat="45.89555" lon="4.74046">
        <ele>181</ele>
        <time>2016-09-12T08:13:42Z</time>
      </trkpt>
      <trkpt lat="45.89549" lon="4.74048">
        <ele>181</ele>
        <time>2016-09-12T08:13:43Z</time>
      </trkpt>
      <trkpt lat="45.89543" lon="4.7405">
        <ele>181</ele>
        <time>2016-09-12T08:13:44Z</time>
      </trkpt>
      <trkpt lat="45.89537" lon="4.74052">
        <ele>181</ele>
        <time>2016-09-12T08:13:45Z</time>
      </trkpt>
      <trkpt lat="45.89532" lon="4.74056">
        <ele>181</ele>
        <time>2016-09-12T08:13:46Z</time>
      </trkpt>
      <trkpt lat="45.89527" lon="4.74059">
        <ele>181</ele>
        <time>2016-09-12T08:13:47Z</time>
      </trkpt>
      <trkpt lat="45.89521" lon="4.74062">
        <ele>181</ele>
        <time>2016-09-12T08:13:48Z</time>
      </trkpt>
      <trkpt lat="45.89515" lon="4.74065">
        <ele>181</ele>
        <time>2016-09-12T08:13:49Z</time>
      </trkpt>
      <trkpt lat="45.89509" lon="4.74068">
        <ele>181</ele>
        <time>2016-09-12T08:13:50Z</time>
      </trkpt>
      <trkpt lat="45.89504" lon="4.7407">
        <ele>181</ele>
        <time>2016-09-12T08:13:51Z</time>
      </trkpt>
      <trkpt lat="45.89498" lon="4.74072">
        <ele>181</ele>
        <time>2016-09-12T08:13:52Z</time>
      </trkpt>
      <trkpt lat="45.89493" lon="4.74074">
        <ele>181</ele>
        <time>2016-09-12T08:13:53Z</time>
      </trkpt>
      <trkpt lat="45.89488" lon="4.74077">
        <ele>181</ele>
        <time>2016-09-12T08:13:54Z</time>
      </trkpt>
      <trkpt lat="45.89482" lon="4.74079">
        <ele>181</ele>
        <time>2016-09-12T08:13:55Z</time>
      </trkpt>
      <trkpt lat="45.89477" lon="4.74082">
        <ele>181</ele>
        <time>2016-09-12T08:13:56Z</time>
      </trkpt>
      <trkpt lat="45.89471" lon="4.74084">
        <ele>182</ele>
        <time>2016-09-12T08:13:57Z</time>
      </trkpt>
      <trkpt lat="45.89466" lon="4.74086">
        <ele>182</ele>
        <time>2016-09-12T08:13:58Z</time>
      </trkpt>
      <trkpt lat="45.8946" lon="4.74088">
        <ele>182</ele>
        <time>2016-09-12T08:13:59Z</time>
      </trkpt>
      <trkpt lat="45.89455" lon="4.74091">
        <ele>182</ele>
        <time>2016-09-12T08:14:00Z</time>
      </trkpt>
      <trkpt lat="45.8945" lon="4.74093">
        <ele>182</ele>
        <time>2016-09-12T08:14:01Z</time>
      </trkpt>
      <trkpt lat="45.89444" lon="4.74095">
        <ele>182</ele>
        <time>2016-09-12T08:14:02Z</time>
      </trkpt>
      <trkpt lat="45.89439" lon="4.74097">
        <ele>182</ele>
        <time>2016-09-12T08:14:03Z</time>
      </trkpt>
      <trkpt lat="45.89433" lon="4.74099">
        <ele>182</ele>
        <time>2016-09-12T08:14:04Z</time>
      </trkpt>
      <trkpt lat="45.89428" lon="4.74101">
        <ele>182</ele>
        <time>2016-09-12T08:14:05Z</time>
      </trkpt>
      <trkpt lat="45.89423" lon="4.74104">
        <ele>182</ele>
        <time>2016-09-12T08:14:06Z</time>
      </trkpt>
      <trkpt lat="45.89417" lon="4.74106">
        <ele>182</ele>
        <time>2016-09-12T08:14:07Z</time>
      </trkpt>
      <trkpt lat="45.89412" lon="4.74108">
        <ele>183</ele>
        <time>2016-09-12T08:14:08Z</time>
      </trkpt>
      <trkpt lat="45.89407" lon="4.74111">
        <ele>183</ele>
        <time>2016-09-12T08:14:09Z</time>
      </trkpt>
      <trkpt lat="45.89401" lon="4.74113">
        <ele>184</ele>
        <time>2016-09-12T08:14:10Z</time>
      </trkpt>
      <trkpt lat="45.89396" lon="4.74117">
        <ele>184</ele>
        <time>2016-09-12T08:14:11Z</time>
      </trkpt>
      <trkpt lat="45.8939" lon="4.74119">
        <ele>184</ele>
        <time>2016-09-12T08:14:12Z</time>
      </trkpt>
      <trkpt lat="45.89384" lon="4.74122">
        <ele>184</ele>
        <time>2016-09-12T08:14:13Z</time>
      </trkpt>
      <trkpt lat="45.89378" lon="4.74125">
        <ele>184</ele>
        <time>2016-09-12T08:14:14Z</time>
      </trkpt>
      <trkpt lat="45.89373" lon="4.74128">
        <ele>184</ele>
        <time>2016-09-12T08:14:15Z</time>
      </trkpt>
      <trkpt lat="45.89367" lon="4.74131">
        <ele>184</ele>
        <time>2016-09-12T08:14:16Z</time>
      </trkpt>
      <trkpt lat="45.8936" lon="4.74133">
        <ele>184</ele>
        <time>2016-09-12T08:14:17Z</time>
      </trkpt>
      <trkpt lat="45.89355" lon="4.74135">
        <ele>184</ele>
        <time>2016-09-12T08:14:18Z</time>
      </trkpt>
      <trkpt lat="45.89349" lon="4.74138">
        <ele>185</ele>
        <time>2016-09-12T08:14:19Z</time>
      </trkpt>
      <trkpt lat="45.89344" lon="4.7414">
        <ele>185</ele>
        <time>2016-09-12T08:14:20Z</time>
      </trkpt>
      <trkpt lat="45.89338" lon="4.74142">
        <ele>185</ele>
        <time>2016-09-12T08:14:21Z</time>
      </trkpt>
      <trkpt lat="45.89333" lon="4.74144">
        <ele>185</ele>
        <time>2016-09-12T08:14:22Z</time>
      </trkpt>
      <trkpt lat="45.89327" lon="4.74146">
        <ele>185</ele>
        <time>2016-09-12T08:14:23Z</time>
      </trkpt>
      <trkpt lat="45.89322" lon="4.74149">
        <ele>185</ele>
        <time>2016-09-12T08:14:24Z</time>
      </trkpt>
      <trkpt lat="45.89316" lon="4.74151">
        <ele>185</ele>
        <time>2016-09-12T08:14:25Z</time>
      </trkpt>
      <trkpt lat="45.89311" lon="4.74154">
        <ele>185</ele>
        <time>2016-09-12T08:14:26Z</time>
      </trkpt>
      <trkpt lat="45.89305" lon="4.74156">
        <ele>185</ele>
        <time>2016-09-12T08:14:27Z</time>
      </trkpt>
      <trkpt lat="45.89299" lon="4.74158">
        <ele>185</ele>
        <time>2016-09-12T08:14:28Z</time>
      </trkpt>
      <trkpt lat="45.89294" lon="4.7416">
        <ele>185</ele>
        <time>2016-09-12T08:14:29Z</time>
      </trkpt>
      <trkpt lat="45.89288" lon="4.74162">
        <ele>185</ele>
        <time>2016-09-12T08:14:30Z</time>
      </trkpt>
      <trkpt lat="45.89282" lon="4.74165">
        <ele>185</ele>
        <time>2016-09-12T08:14:31Z</time>
      </trkpt>
      <trkpt lat="45.89277" lon="4.74168">
        <ele>186</ele>
        <time>2016-09-12T08:14:32Z</time>
      </trkpt>
      <trkpt lat="45.89271" lon="4.7417">
        <ele>186</ele>
        <time>2016-09-12T08:14:33Z</time>
      </trkpt>
      <trkpt lat="45.89266" lon="4.74172">
        <ele>186</ele>
        <time>2016-09-12T08:14:34Z</time>
      </trkpt>
      <trkpt lat="45.8926" lon="4.74174">
        <ele>185</ele>
        <time>2016-09-12T08:14:35Z</time>
      </trkpt>
      <trkpt lat="45.89254" lon="4.74177">
        <ele>185</ele>
        <time>2016-09-12T08:14:36Z</time>
      </trkpt>
      <trkpt lat="45.89249" lon="4.74179">
        <ele>185</ele>
        <time>2016-09-12T08:14:37Z</time>
      </trkpt>
      <trkpt lat="45.89243" lon="4.74181">
        <ele>185</ele>
        <time>2016-09-12T08:14:38Z</time>
      </trkpt>
      <trkpt lat="45.89238" lon="4.74183">
        <ele>186</ele>
        <time>2016-09-12T08:14:39Z</time>
      </trkpt>
      <trkpt lat="45.89232" lon="4.74185">
        <ele>186</ele>
        <time>2016-09-12T08:14:40Z</time>
      </trkpt>
      <trkpt lat="45.89227" lon="4.74187">
        <ele>186</ele>
        <time>2016-09-12T08:14:41Z</time>
      </trkpt>
      <trkpt lat="45.89221" lon="4.74189">
        <ele>186</ele>
        <time>2016-09-12T08:14:42Z</time>
      </trkpt>
      <trkpt lat="45.89216" lon="4.74191">
        <ele>186</ele>
        <time>2016-09-12T08:14:43Z</time>
      </trkpt>
      <trkpt lat="45.8921" lon="4.74194">
        <ele>186</ele>
        <time>2016-09-12T08:14:44Z</time>
      </trkpt>
      <trkpt lat="45.89205" lon="4.74196">
        <ele>186</ele>
        <time>2016-09-12T08:14:45Z</time>
      </trkpt>
      <trkpt lat="45.892" lon="4.742">
        <ele>186</ele>
        <time>2016-09-12T08:14:46Z</time>
      </trkpt>
      <trkpt lat="45.89195" lon="4.74202">
        <ele>186</ele>
        <time>2016-09-12T08:14:47Z</time>
      </trkpt>
      <trkpt lat="45.89189" lon="4.74205">
        <ele>186</ele>
        <time>2016-09-12T08:14:48Z</time>
      </trkpt>
      <trkpt lat="45.89184" lon="4.74208">
        <ele>186</ele>
        <time>2016-09-12T08:14:49Z</time>
      </trkpt>
      <trkpt lat="45.89178" lon="4.7421">
        <ele>186</ele>
        <time>2016-09-12T08:14:50Z</time>
      </trkpt>
      <trkpt lat="45.89173" lon="4.74212">
        <ele>186</ele>
        <time>2016-09-12T08:14:51Z</time>
      </trkpt>
      <trkpt lat="45.89167" lon="4.74215">
        <ele>186</ele>
        <time>2016-09-12T08:14:52Z</time>
      </trkpt>
      <trkpt lat="45.89162" lon="4.74217">
        <ele>186</ele>
        <time>2016-09-12T08:14:53Z</time>
      </trkpt>
      <trkpt lat="45.89157" lon="4.74219">
        <ele>186</ele>
        <time>2016-09-12T08:14:54Z</time>
      </trkpt>
      <trkpt lat="45.89151" lon="4.7422">
        <ele>186</ele>
        <time>2016-09-12T08:14:55Z</time>
      </trkpt>
      <trkpt lat="45.89146" lon="4.74223">
        <ele>186</ele>
        <time>2016-09-12T08:14:56Z</time>
      </trkpt>
      <trkpt lat="45.8914" lon="4.74224">
        <ele>186</ele>
        <time>2016-09-12T08:14:57Z</time>
      </trkpt>
      <trkpt lat="45.89135" lon="4.74225">
        <ele>186</ele>
        <time>2016-09-12T08:14:58Z</time>
      </trkpt>
      <trkpt lat="45.89129" lon="4.74226">
        <ele>186</ele>
        <time>2016-09-12T08:14:59Z</time>
      </trkpt>
      <trkpt lat="45.89123" lon="4.74227">
        <ele>186</ele>
        <time>2016-09-12T08:15:00Z</time>
      </trkpt>
      <trkpt lat="45.89117" lon="4.74229">
        <ele>186</ele>
        <time>2016-09-12T08:15:01Z</time>
      </trkpt>
      <trkpt lat="45.89111" lon="4.74231">
        <ele>186</ele>
        <time>2016-09-12T08:15:02Z</time>
      </trkpt>
      <trkpt lat="45.89105" lon="4.74233">
        <ele>186</ele>
        <time>2016-09-12T08:15:03Z</time>
      </trkpt>
      <trkpt lat="45.89099" lon="4.74234">
        <ele>186</ele>
        <time>2016-09-12T08:15:04Z</time>
      </trkpt>
      <trkpt lat="45.89093" lon="4.74236">
        <ele>186</ele>
        <time>2016-09-12T08:15:05Z</time>
      </trkpt>
      <trkpt lat="45.89087" lon="4.74238">
        <ele>186</ele>
        <time>2016-09-12T08:15:06Z</time>
      </trkpt>
      <trkpt lat="45.8908" lon="4.7424">
        <ele>186</ele>
        <time>2016-09-12T08:15:07Z</time>
      </trkpt>
      <trkpt lat="45.89075" lon="4.74242">
        <ele>186</ele>
        <time>2016-09-12T08:15:08Z</time>
      </trkpt>
      <trkpt lat="45.89068" lon="4.74244">
        <ele>186</ele>
        <time>2016-09-12T08:15:09Z</time>
      </trkpt>
      <trkpt lat="45.89062" lon="4.74246">
        <ele>186</ele>
        <time>2016-09-12T08:15:10Z</time>
      </trkpt>
      <trkpt lat="45.89056" lon="4.74248">
        <ele>186</ele>
        <time>2016-09-12T08:15:11Z</time>
      </trkpt>
      <trkpt lat="45.8905" lon="4.7425">
        <ele>186</ele>
        <time>2016-09-12T08:15:12Z</time>
      </trkpt>
      <trkpt lat="45.89045" lon="4.74252">
        <ele>187</ele>
        <time>2016-09-12T08:15:13Z</time>
      </trkpt>
      <trkpt lat="45.89039" lon="4.74255">
        <ele>187</ele>
        <time>2016-09-12T08:15:14Z</time>
      </trkpt>
      <trkpt lat="45.89032" lon="4.74256">
        <ele>187</ele>
        <time>2016-09-12T08:15:15Z</time>
      </trkpt>
      <trkpt lat="45.89027" lon="4.74259">
        <ele>187</ele>
        <time>2016-09-12T08:15:16Z</time>
      </trkpt>
      <trkpt lat="45.89021" lon="4.74262">
        <ele>187</ele>
        <time>2016-09-12T08:15:17Z</time>
      </trkpt>
      <trkpt lat="45.89014" lon="4.74264">
        <ele>187</ele>
        <time>2016-09-12T08:15:18Z</time>
      </trkpt>
      <trkpt lat="45.89008" lon="4.74267">
        <ele>187</ele>
        <time>2016-09-12T08:15:19Z</time>
      </trkpt>
      <trkpt lat="45.89002" lon="4.74269">
        <ele>187</ele>
        <time>2016-09-12T08:15:20Z</time>
      </trkpt>
      <trkpt lat="45.88996" lon="4.74271">
        <ele>187</ele>
        <time>2016-09-12T08:15:21Z</time>
      </trkpt>
      <trkpt lat="45.8899" lon="4.74273">
        <ele>187</ele>
        <time>2016-09-12T08:15:22Z</time>
      </trkpt>
      <trkpt lat="45.88984" lon="4.74274">
        <ele>187</ele>
        <time>2016-09-12T08:15:23Z</time>
      </trkpt>
      <trkpt lat="45.88978" lon="4.74275">
        <ele>187</ele>
        <time>2016-09-12T08:15:24Z</time>
      </trkpt>
      <trkpt lat="45.88972" lon="4.74275">
        <ele>187</ele>
        <time>2016-09-12T08:15:25Z</time>
      </trkpt>
      <trkpt lat="45.88966" lon="4.74275">
        <ele>187</ele>
        <time>2016-09-12T08:15:26Z</time>
      </trkpt>
      <trkpt lat="45.88961" lon="4.74274">
        <ele>187</ele>
        <time>2016-09-12T08:15:27Z</time>
      </trkpt>
      <trkpt lat="45.88953" lon="4.74272">
        <ele>187</ele>
        <time>2016-09-12T08:15:29Z</time>
      </trkpt>
      <trkpt lat="45.88949" lon="4.74271">
        <ele>187</ele>
        <time>2016-09-12T08:15:30Z</time>
      </trkpt>
      <trkpt lat="45.88942" lon="4.74269">
        <ele>187</ele>
        <time>2016-09-12T08:15:32Z</time>
      </trkpt>
      <trkpt lat="45.88937" lon="4.74268">
        <ele>187</ele>
        <time>2016-09-12T08:15:33Z</time>
      </trkpt>
      <trkpt lat="45.88929" lon="4.74264">
        <ele>187</ele>
        <time>2016-09-12T08:15:35Z</time>
      </trkpt>
      <trkpt lat="45.88925" lon="4.74261">
        <ele>187</ele>
        <time>2016-09-12T08:15:36Z</time>
      </trkpt>
      <trkpt lat="45.88917" lon="4.74256">
        <ele>187</ele>
        <time>2016-09-12T08:15:38Z</time>
      </trkpt>
      <trkpt lat="45.88913" lon="4.74252">
        <ele>187</ele>
        <time>2016-09-12T08:15:39Z</time>
      </trkpt>
      <trkpt lat="45.88907" lon="4.7425">
        <ele>187</ele>
        <time>2016-09-12T08:15:40Z</time>
      </trkpt>
      <trkpt lat="45.88901" lon="4.74246">
        <ele>187</ele>
        <time>2016-09-12T08:15:41Z</time>
      </trkpt>
      <trkpt lat="45.88897" lon="4.74241">
        <ele>187</ele>
        <time>2016-09-12T08:15:42Z</time>
      </trkpt>
      <trkpt lat="45.88892" lon="4.74237">
        <ele>187</ele>
        <time>2016-09-12T08:15:43Z</time>
      </trkpt>
      <trkpt lat="45.88887" lon="4.74233">
        <ele>187</ele>
        <time>2016-09-12T08:15:44Z</time>
      </trkpt>
      <trkpt lat="45.88881" lon="4.74229">
        <ele>187</ele>
        <time>2016-09-12T08:15:45Z</time>
      </trkpt>
      <trkpt lat="45.88875" lon="4.74225">
        <ele>187</ele>
        <time>2016-09-12T08:15:46Z</time>
      </trkpt>
      <trkpt lat="45.8887" lon="4.74221">
        <ele>187</ele>
        <time>2016-09-12T08:15:47Z</time>
      </trkpt>
      <trkpt lat="45.88866" lon="4.74218">
        <ele>187</ele>
        <time>2016-09-12T08:15:48Z</time>
      </trkpt>
      <trkpt lat="45.88861" lon="4.74215">
        <ele>187</ele>
        <time>2016-09-12T08:15:49Z</time>
      </trkpt>
      <trkpt lat="45.88856" lon="4.74213">
        <ele>187</ele>
        <time>2016-09-12T08:15:50Z</time>
      </trkpt>
      <trkpt lat="45.8885" lon="4.7421">
        <ele>187</ele>
        <time>2016-09-12T08:15:51Z</time>
      </trkpt>
      <trkpt lat="45.88845" lon="4.74207">
        <ele>187</ele>
        <time>2016-09-12T08:15:52Z</time>
      </trkpt>
      <trkpt lat="45.8884" lon="4.74204">
        <ele>187</ele>
        <time>2016-09-12T08:15:53Z</time>
      </trkpt>
      <trkpt lat="45.88835" lon="4.74201">
        <ele>187</ele>
        <time>2016-09-12T08:15:54Z</time>
      </trkpt>
      <trkpt lat="45.8883" lon="4.74199">
        <ele>187</ele>
        <time>2016-09-12T08:15:55Z</time>
      </trkpt>
      <trkpt lat="45.88824" lon="4.74196">
        <ele>187</ele>
        <time>2016-09-12T08:15:56Z</time>
      </trkpt>
      <trkpt lat="45.88818" lon="4.74193">
        <ele>187</ele>
        <time>2016-09-12T08:15:57Z</time>
      </trkpt>
      <trkpt lat="45.88812" lon="4.7419">
        <ele>187</ele>
        <time>2016-09-12T08:15:58Z</time>
      </trkpt>
      <trkpt lat="45.88807" lon="4.74187">
        <ele>187</ele>
        <time>2016-09-12T08:15:59Z</time>
      </trkpt>
      <trkpt lat="45.88802" lon="4.74185">
        <ele>187</ele>
        <time>2016-09-12T08:16:00Z</time>
      </trkpt>
      <trkpt lat="45.88797" lon="4.74182">
        <ele>187</ele>
        <time>2016-09-12T08:16:01Z</time>
      </trkpt>
      <trkpt lat="45.88792" lon="4.74179">
        <ele>188</ele>
        <time>2016-09-12T08:16:02Z</time>
      </trkpt>
      <trkpt lat="45.88787" lon="4.74177">
        <ele>188</ele>
        <time>2016-09-12T08:16:03Z</time>
      </trkpt>
      <trkpt lat="45.88782" lon="4.74174">
        <ele>188</ele>
        <time>2016-09-12T08:16:04Z</time>
      </trkpt>
      <trkpt lat="45.88778" lon="4.74172">
        <ele>188</ele>
        <time>2016-09-12T08:16:05Z</time>
      </trkpt>
      <trkpt lat="45.88773" lon="4.7417">
        <ele>188</ele>
        <time>2016-09-12T08:16:06Z</time>
      </trkpt>
      <trkpt lat="45.88768" lon="4.74168">
        <ele>188</ele>
        <time>2016-09-12T08:16:07Z</time>
      </trkpt>
      <trkpt lat="45.8876" lon="4.74163">
        <ele>187</ele>
        <time>2016-09-12T08:16:09Z</time>
      </trkpt>
      <trkpt lat="45.88756" lon="4.74159">
        <ele>188</ele>
        <time>2016-09-12T08:16:10Z</time>
      </trkpt>
      <trkpt lat="45.88751" lon="4.74155">
        <ele>187</ele>
        <time>2016-09-12T08:16:11Z</time>
      </trkpt>
      <trkpt lat="45.88746" lon="4.74151">
        <ele>188</ele>
        <time>2016-09-12T08:16:12Z</time>
      </trkpt>
      <trkpt lat="45.88741" lon="4.74147">
        <ele>188</ele>
        <time>2016-09-12T08:16:13Z</time>
      </trkpt>
      <trkpt lat="45.88736" lon="4.74143">
        <ele>188</ele>
        <time>2016-09-12T08:16:14Z</time>
      </trkpt>
      <trkpt lat="45.88731" lon="4.74139">
        <ele>188</ele>
        <time>2016-09-12T08:16:15Z</time>
      </trkpt>
      <trkpt lat="45.88726" lon="4.74135">
        <ele>188</ele>
        <time>2016-09-12T08:16:16Z</time>
      </trkpt>
      <trkpt lat="45.88721" lon="4.7413">
        <ele>188</ele>
        <time>2016-09-12T08:16:17Z</time>
      </trkpt>
      <trkpt lat="45.88716" lon="4.74125">
        <ele>188</ele>
        <time>2016-09-12T08:16:18Z</time>
      </trkpt>
      <trkpt lat="45.88711" lon="4.7412">
        <ele>188</ele>
        <time>2016-09-12T08:16:19Z</time>
      </trkpt>
      <trkpt lat="45.88706" lon="4.74116">
        <ele>188</ele>
        <time>2016-09-12T08:16:20Z</time>
      </trkpt>
      <trkpt lat="45.88702" lon="4.74112">
        <ele>188</ele>
        <time>2016-09-12T08:16:21Z</time>
      </trkpt>
      <trkpt lat="45.88697" lon="4.74108">
        <ele>188</ele>
        <time>2016-09-12T08:16:22Z</time>
      </trkpt>
      <trkpt lat="45.88691" lon="4.74106">
        <ele>188</ele>
        <time>2016-09-12T08:16:23Z</time>
      </trkpt>
      <trkpt lat="45.88685" lon="4.74104">
        <ele>188</ele>
        <time>2016-09-12T08:16:24Z</time>
      </trkpt>
      <trkpt lat="45.88679" lon="4.74101">
        <ele>188</ele>
        <time>2016-09-12T08:16:25Z</time>
      </trkpt>
      <trkpt lat="45.88675" lon="4.74097">
        <ele>188</ele>
        <time>2016-09-12T08:16:26Z</time>
      </trkpt>
      <trkpt lat="45.88671" lon="4.74092">
        <ele>188</ele>
        <time>2016-09-12T08:16:27Z</time>
      </trkpt>
      <trkpt lat="45.88669" lon="4.74086">
        <ele>188</ele>
        <time>2016-09-12T08:16:28Z</time>
      </trkpt>
      <trkpt lat="45.88667" lon="4.7408">
        <ele>188</ele>
        <time>2016-09-12T08:16:29Z</time>
      </trkpt>
      <trkpt lat="45.88665" lon="4.74073">
        <ele>188</ele>
        <time>2016-09-12T08:16:30Z</time>
      </trkpt>
      <trkpt lat="45.88663" lon="4.74067">
        <ele>188</ele>
        <time>2016-09-12T08:16:31Z</time>
      </trkpt>
      <trkpt lat="45.8866" lon="4.74061">
        <ele>187</ele>
        <time>2016-09-12T08:16:32Z</time>
      </trkpt>
      <trkpt lat="45.88658" lon="4.74054">
        <ele>187</ele>
        <time>2016-09-12T08:16:33Z</time>
      </trkpt>
      <trkpt lat="45.88656" lon="4.74047">
        <ele>187</ele>
        <time>2016-09-12T08:16:34Z</time>
      </trkpt>
      <trkpt lat="45.88654" lon="4.74039">
        <ele>187</ele>
        <time>2016-09-12T08:16:35Z</time>
      </trkpt>
      <trkpt lat="45.88653" lon="4.74031">
        <ele>187</ele>
        <time>2016-09-12T08:16:36Z</time>
      </trkpt>
      <trkpt lat="45.88651" lon="4.74024">
        <ele>187</ele>
        <time>2016-09-12T08:16:37Z</time>
      </trkpt>
      <trkpt lat="45.88651" lon="4.74016">
        <ele>187</ele>
        <time>2016-09-12T08:16:38Z</time>
      </trkpt>
      <trkpt lat="45.8865" lon="4.74009">
        <ele>187</ele>
        <time>2016-09-12T08:16:39Z</time>
      </trkpt>
      <trkpt lat="45.88649" lon="4.74">
        <ele>187</ele>
        <time>2016-09-12T08:16:40Z</time>
      </trkpt>
      <trkpt lat="45.88647" lon="4.73992">
        <ele>186</ele>
        <time>2016-09-12T08:16:41Z</time>
      </trkpt>
      <trkpt lat="45.88646" lon="4.73983">
        <ele>187</ele>
        <time>2016-09-12T08:16:42Z</time>
      </trkpt>
      <trkpt lat="45.88645" lon="4.73975">
        <ele>187</ele>
        <time>2016-09-12T08:16:43Z</time>
      </trkpt>
      <trkpt lat="45.88644" lon="4.73967">
        <ele>187</ele>
        <time>2016-09-12T08:16:44Z</time>
      </trkpt>
      <trkpt lat="45.88643" lon="4.73959">
        <ele>187</ele>
        <time>2016-09-12T08:16:45Z</time>
      </trkpt>
      <trkpt lat="45.88642" lon="4.73951">
        <ele>187</ele>
        <time>2016-09-12T08:16:46Z</time>
      </trkpt>
      <trkpt lat="45.88642" lon="4.73942">
        <ele>187</ele>
        <time>2016-09-12T08:16:47Z</time>
      </trkpt>
      <trkpt lat="45.88643" lon="4.73933">
        <ele>187</ele>
        <time>2016-09-12T08:16:48Z</time>
      </trkpt>
      <trkpt lat="45.88643" lon="4.73925">
        <ele>187</ele>
        <time>2016-09-12T08:16:49Z</time>
      </trkpt>
      <trkpt lat="45.88643" lon="4.73916">
        <ele>187</ele>
        <time>2016-09-12T08:16:50Z</time>
      </trkpt>
      <trkpt lat="45.88643" lon="4.73909">
        <ele>187</ele>
        <time>2016-09-12T08:16:51Z</time>
      </trkpt>
      <trkpt lat="45.88643" lon="4.73901">
        <ele>187</ele>
        <time>2016-09-12T08:16:52Z</time>
      </trkpt>
      <trkpt lat="45.88642" lon="4.73893">
        <ele>187</ele>
        <time>2016-09-12T08:16:53Z</time>
      </trkpt>
      <trkpt lat="45.88642" lon="4.73885">
        <ele>187</ele>
        <time>2016-09-12T08:16:54Z</time>
      </trkpt>
      <trkpt lat="45.88642" lon="4.73877">
        <ele>187</ele>
        <time>2016-09-12T08:16:55Z</time>
      </trkpt>
      <trkpt lat="45.88642" lon="4.73869">
        <ele>187</ele>
        <time>2016-09-12T08:16:56Z</time>
      </trkpt>
      <trkpt lat="45.88643" lon="4.73861">
        <ele>187</ele>
        <time>2016-09-12T08:16:57Z</time>
      </trkpt>
      <trkpt lat="45.88644" lon="4.73854">
        <ele>187</ele>
        <time>2016-09-12T08:16:58Z</time>
      </trkpt>
      <trkpt lat="45.88644" lon="4.73846">
        <ele>187</ele>
        <time>2016-09-12T08:16:59Z</time>
      </trkpt>
      <trkpt lat="45.88645" lon="4.73838">
        <ele>187</ele>
        <time>2016-09-12T08:17:00Z</time>
      </trkpt>
      <trkpt lat="45.88645" lon="4.7383">
        <ele>187</ele>
        <time>2016-09-12T08:17:01Z</time>
      </trkpt>
      <trkpt lat="45.88645" lon="4.73821">
        <ele>187</ele>
        <time>2016-09-12T08:17:02Z</time>
      </trkpt>
      <trkpt lat="45.88646" lon="4.73813">
        <ele>187</ele>
        <time>2016-09-12T08:17:03Z</time>
      </trkpt>
      <trkpt lat="45.88647" lon="4.73805">
        <ele>187</ele>
        <time>2016-09-12T08:17:04Z</time>
      </trkpt>
      <trkpt lat="45.88647" lon="4.73797">
        <ele>187</ele>
        <time>2016-09-12T08:17:05Z</time>
      </trkpt>
      <trkpt lat="45.88647" lon="4.7379">
        <ele>187</ele>
        <time>2016-09-12T08:17:06Z</time>
      </trkpt>
      <trkpt lat="45.88648" lon="4.73782">
        <ele>187</ele>
        <time>2016-09-12T08:17:07Z</time>
      </trkpt>
      <trkpt lat="45.88648" lon="4.73774">
        <ele>187</ele>
        <time>2016-09-12T08:17:08Z</time>
      </trkpt>
      <trkpt lat="45.88648" lon="4.73766">
        <ele>187</ele>
        <time>2016-09-12T08:17:09Z</time>
      </trkpt>
      <trkpt lat="45.88648" lon="4.73759">
        <ele>187</ele>
        <time>2016-09-12T08:17:10Z</time>
      </trkpt>
      <trkpt lat="45.88648" lon="4.73751">
        <ele>187</ele>
        <time>2016-09-12T08:17:11Z</time>
      </trkpt>
      <trkpt lat="45.88649" lon="4.73744">
        <ele>187</ele>
        <time>2016-09-12T08:17:12Z</time>
      </trkpt>
      <trkpt lat="45.88649" lon="4.73737">
        <ele>187</ele>
        <time>2016-09-12T08:17:13Z</time>
      </trkpt>
      <trkpt lat="45.88649" lon="4.7373">
        <ele>186</ele>
        <time>2016-09-12T08:17:14Z</time>
      </trkpt>
      <trkpt lat="45.88649" lon="4.73723">
        <ele>186</ele>
        <time>2016-09-12T08:17:15Z</time>
      </trkpt>
      <trkpt lat="45.88649" lon="4.73716">
        <ele>186</ele>
        <time>2016-09-12T08:17:16Z</time>
      </trkpt>
      <trkpt lat="45.88649" lon="4.73709">
        <ele>186</ele>
        <time>2016-09-12T08:17:17Z</time>
      </trkpt>
      <trkpt lat="45.88649" lon="4.73702">
        <ele>186</ele>
        <time>2016-09-12T08:17:18Z</time>
      </trkpt>
      <trkpt lat="45.88649" lon="4.73695">
        <ele>186</ele>
        <time>2016-09-12T08:17:19Z</time>
      </trkpt>
      <trkpt lat="45.88649" lon="4.73689">
        <ele>186</ele>
        <time>2016-09-12T08:17:20Z</time>
      </trkpt>
      <trkpt lat="45.88649" lon="4.73682">
        <ele>186</ele>
        <time>2016-09-12T08:17:21Z</time>
      </trkpt>
      <trkpt lat="45.88649" lon="4.73676">
        <ele>186</ele>
        <time>2016-09-12T08:17:22Z</time>
      </trkpt>
      <trkpt lat="45.8865" lon="4.73663">
        <ele>186</ele>
        <time>2016-09-12T08:17:24Z</time>
      </trkpt>
      <trkpt lat="45.8865" lon="4.73656">
        <ele>186</ele>
        <time>2016-09-12T08:17:25Z</time>
      </trkpt>
      <trkpt lat="45.8865" lon="4.73649">
        <ele>186</ele>
        <time>2016-09-12T08:17:26Z</time>
      </trkpt>
      <trkpt lat="45.8865" lon="4.73643">
        <ele>186</ele>
        <time>2016-09-12T08:17:27Z</time>
      </trkpt>
      <trkpt lat="45.88649" lon="4.73636">
        <ele>186</ele>
        <time>2016-09-12T08:17:28Z</time>
      </trkpt>
      <trkpt lat="45.88649" lon="4.73629">
        <ele>186</ele>
        <time>2016-09-12T08:17:29Z</time>
      </trkpt>
      <trkpt lat="45.8865" lon="4.73622">
        <ele>186</ele>
        <time>2016-09-12T08:17:30Z</time>
      </trkpt>
      <trkpt lat="45.8865" lon="4.73615">
        <ele>186</ele>
        <time>2016-09-12T08:17:31Z</time>
      </trkpt>
      <trkpt lat="45.8865" lon="4.73607">
        <ele>186</ele>
        <time>2016-09-12T08:17:32Z</time>
      </trkpt>
      <trkpt lat="45.8865" lon="4.736">
        <ele>185</ele>
        <time>2016-09-12T08:17:33Z</time>
      </trkpt>
      <trkpt lat="45.88651" lon="4.73591">
        <ele>185</ele>
        <time>2016-09-12T08:17:34Z</time>
      </trkpt>
      <trkpt lat="45.88651" lon="4.73583">
        <ele>185</ele>
        <time>2016-09-12T08:17:35Z</time>
      </trkpt>
      <trkpt lat="45.88651" lon="4.73573">
        <ele>185</ele>
        <time>2016-09-12T08:17:36Z</time>
      </trkpt>
      <trkpt lat="45.88651" lon="4.73563">
        <ele>185</ele>
        <time>2016-09-12T08:17:37Z</time>
      </trkpt>
      <trkpt lat="45.88651" lon="4.73553">
        <ele>185</ele>
        <time>2016-09-12T08:17:38Z</time>
      </trkpt>
      <trkpt lat="45.88651" lon="4.73542">
        <ele>185</ele>
        <time>2016-09-12T08:17:39Z</time>
      </trkpt>
      <trkpt lat="45.88652" lon="4.73531">
        <ele>185</ele>
        <time>2016-09-12T08:17:40Z</time>
      </trkpt>
      <trkpt lat="45.88654" lon="4.73521">
        <ele>185</ele>
        <time>2016-09-12T08:17:41Z</time>
      </trkpt>
      <trkpt lat="45.88657" lon="4.73511">
        <ele>184</ele>
        <time>2016-09-12T08:17:42Z</time>
      </trkpt>
      <trkpt lat="45.88659" lon="4.735">
        <ele>184</ele>
        <time>2016-09-12T08:17:43Z</time>
      </trkpt>
      <trkpt lat="45.88661" lon="4.7349">
        <ele>184</ele>
        <time>2016-09-12T08:17:44Z</time>
      </trkpt>
      <trkpt lat="45.88663" lon="4.73479">
        <ele>184</ele>
        <time>2016-09-12T08:17:45Z</time>
      </trkpt>
      <trkpt lat="45.88662" lon="4.73467">
        <ele>184</ele>
        <time>2016-09-12T08:17:46Z</time>
      </trkpt>
      <trkpt lat="45.88661" lon="4.73456">
        <ele>184</ele>
        <time>2016-09-12T08:17:47Z</time>
      </trkpt>
      <trkpt lat="45.88659" lon="4.73446">
        <ele>184</ele>
        <time>2016-09-12T08:17:48Z</time>
      </trkpt>
      <trkpt lat="45.88658" lon="4.73435">
        <ele>184</ele>
        <time>2016-09-12T08:17:49Z</time>
      </trkpt>
      <trkpt lat="45.88656" lon="4.73426">
        <ele>184</ele>
        <time>2016-09-12T08:17:50Z</time>
      </trkpt>
      <trkpt lat="45.88654" lon="4.73416">
        <ele>184</ele>
        <time>2016-09-12T08:17:51Z</time>
      </trkpt>
      <trkpt lat="45.88651" lon="4.73407">
        <ele>184</ele>
        <time>2016-09-12T08:17:52Z</time>
      </trkpt>
      <trkpt lat="45.88646" lon="4.73398">
        <ele>184</ele>
        <time>2016-09-12T08:17:53Z</time>
      </trkpt>
      <trkpt lat="45.88641" lon="4.73392">
        <ele>184</ele>
        <time>2016-09-12T08:17:54Z</time>
      </trkpt>
      <trkpt lat="45.88636" lon="4.73385">
        <ele>184</ele>
        <time>2016-09-12T08:17:55Z</time>
      </trkpt>
      <trkpt lat="45.88629" lon="4.73383">
        <ele>183</ele>
        <time>2016-09-12T08:17:56Z</time>
      </trkpt>
      <trkpt lat="45.88622" lon="4.73383">
        <ele>183</ele>
        <time>2016-09-12T08:17:57Z</time>
      </trkpt>
      <trkpt lat="45.88616" lon="4.73384">
        <ele>183</ele>
        <time>2016-09-12T08:17:58Z</time>
      </trkpt>
      <trkpt lat="45.8861" lon="4.73387">
        <ele>183</ele>
        <time>2016-09-12T08:17:59Z</time>
      </trkpt>
      <trkpt lat="45.88604" lon="4.73389">
        <ele>183</ele>
        <time>2016-09-12T08:18:00Z</time>
      </trkpt>
      <trkpt lat="45.88598" lon="4.73391">
        <ele>183</ele>
        <time>2016-09-12T08:18:01Z</time>
      </trkpt>
      <trkpt lat="45.88592" lon="4.73393">
        <ele>183</ele>
        <time>2016-09-12T08:18:02Z</time>
      </trkpt>
      <trkpt lat="45.88586" lon="4.73395">
        <ele>183</ele>
        <time>2016-09-12T08:18:03Z</time>
      </trkpt>
      <trkpt lat="45.8858" lon="4.73396">
        <ele>183</ele>
        <time>2016-09-12T08:18:04Z</time>
      </trkpt>
      <trkpt lat="45.88574" lon="4.73397">
        <ele>183</ele>
        <time>2016-09-12T08:18:05Z</time>
      </trkpt>
      <trkpt lat="45.88568" lon="4.73398">
        <ele>183</ele>
        <time>2016-09-12T08:18:06Z</time>
      </trkpt>
      <trkpt lat="45.88562" lon="4.734">
        <ele>183</ele>
        <time>2016-09-12T08:18:07Z</time>
      </trkpt>
      <trkpt lat="45.88556" lon="4.73401">
        <ele>183</ele>
        <time>2016-09-12T08:18:08Z</time>
      </trkpt>
      <trkpt lat="45.8855" lon="4.73403">
        <ele>183</ele>
        <time>2016-09-12T08:18:09Z</time>
      </trkpt>
      <trkpt lat="45.88544" lon="4.73405">
        <ele>183</ele>
        <time>2016-09-12T08:18:10Z</time>
      </trkpt>
      <trkpt lat="45.88539" lon="4.73407">
        <ele>183</ele>
        <time>2016-09-12T08:18:11Z</time>
      </trkpt>
      <trkpt lat="45.88533" lon="4.73408">
        <ele>183</ele>
        <time>2016-09-12T08:18:12Z</time>
      </trkpt>
      <trkpt lat="45.88528" lon="4.7341">
        <ele>183</ele>
        <time>2016-09-12T08:18:13Z</time>
      </trkpt>
      <trkpt lat="45.88522" lon="4.73412">
        <ele>183</ele>
        <time>2016-09-12T08:18:14Z</time>
      </trkpt>
      <trkpt lat="45.88516" lon="4.73414">
        <ele>184</ele>
        <time>2016-09-12T08:18:15Z</time>
      </trkpt>
      <trkpt lat="45.8851" lon="4.73415">
        <ele>184</ele>
        <time>2016-09-12T08:18:16Z</time>
      </trkpt>
      <trkpt lat="45.88505" lon="4.73417">
        <ele>184</ele>
        <time>2016-09-12T08:18:17Z</time>
      </trkpt>
      <trkpt lat="45.88499" lon="4.73418">
        <ele>184</ele>
        <time>2016-09-12T08:18:18Z</time>
      </trkpt>
      <trkpt lat="45.88494" lon="4.73419">
        <ele>184</ele>
        <time>2016-09-12T08:18:19Z</time>
      </trkpt>
      <trkpt lat="45.88489" lon="4.7342">
        <ele>184</ele>
        <time>2016-09-12T08:18:20Z</time>
      </trkpt>
      <trkpt lat="45.88483" lon="4.7342">
        <ele>184</ele>
        <time>2016-09-12T08:18:21Z</time>
      </trkpt>
      <trkpt lat="45.88478" lon="4.73421">
        <ele>184</ele>
        <time>2016-09-12T08:18:22Z</time>
      </trkpt>
      <trkpt lat="45.88473" lon="4.73422">
        <ele>184</ele>
        <time>2016-09-12T08:18:23Z</time>
      </trkpt>
      <trkpt lat="45.88469" lon="4.73424">
        <ele>184</ele>
        <time>2016-09-12T08:18:24Z</time>
      </trkpt>
      <trkpt lat="45.88465" lon="4.73427">
        <ele>184</ele>
        <time>2016-09-12T08:18:25Z</time>
      </trkpt>
      <trkpt lat="45.88461" lon="4.73429">
        <ele>184</ele>
        <time>2016-09-12T08:18:26Z</time>
      </trkpt>
      <trkpt lat="45.88456" lon="4.73431">
        <ele>184</ele>
        <time>2016-09-12T08:18:27Z</time>
      </trkpt>
      <trkpt lat="45.88451" lon="4.73433">
        <ele>184</ele>
        <time>2016-09-12T08:18:28Z</time>
      </trkpt>
      <trkpt lat="45.88446" lon="4.73435">
        <ele>184</ele>
        <time>2016-09-12T08:18:29Z</time>
      </trkpt>
      <trkpt lat="45.88441" lon="4.73437">
        <ele>184</ele>
        <time>2016-09-12T08:18:30Z</time>
      </trkpt>
      <trkpt lat="45.88436" lon="4.73438">
        <ele>184</ele>
        <time>2016-09-12T08:18:31Z</time>
      </trkpt>
      <trkpt lat="45.88431" lon="4.7344">
        <ele>184</ele>
        <time>2016-09-12T08:18:32Z</time>
      </trkpt>
      <trkpt lat="45.88426" lon="4.73442">
        <ele>184</ele>
        <time>2016-09-12T08:18:33Z</time>
      </trkpt>
      <trkpt lat="45.8842" lon="4.73443">
        <ele>184</ele>
        <time>2016-09-12T08:18:34Z</time>
      </trkpt>
      <trkpt lat="45.88415" lon="4.73444">
        <ele>184</ele>
        <time>2016-09-12T08:18:35Z</time>
      </trkpt>
      <trkpt lat="45.8841" lon="4.73446">
        <ele>184</ele>
        <time>2016-09-12T08:18:36Z</time>
      </trkpt>
      <trkpt lat="45.88405" lon="4.73448">
        <ele>184</ele>
        <time>2016-09-12T08:18:37Z</time>
      </trkpt>
      <trkpt lat="45.884" lon="4.73449">
        <ele>184</ele>
        <time>2016-09-12T08:18:38Z</time>
      </trkpt>
      <trkpt lat="45.88395" lon="4.7345">
        <ele>184</ele>
        <time>2016-09-12T08:18:39Z</time>
      </trkpt>
      <trkpt lat="45.8839" lon="4.73451">
        <ele>184</ele>
        <time>2016-09-12T08:18:40Z</time>
      </trkpt>
      <trkpt lat="45.88384" lon="4.73453">
        <ele>184</ele>
        <time>2016-09-12T08:18:41Z</time>
      </trkpt>
      <trkpt lat="45.88379" lon="4.73454">
        <ele>184</ele>
        <time>2016-09-12T08:18:42Z</time>
      </trkpt>
      <trkpt lat="45.88373" lon="4.73456">
        <ele>184</ele>
        <time>2016-09-12T08:18:43Z</time>
      </trkpt>
      <trkpt lat="45.88368" lon="4.73457">
        <ele>184</ele>
        <time>2016-09-12T08:18:44Z</time>
      </trkpt>
      <trkpt lat="45.88362" lon="4.73459">
        <ele>184</ele>
        <time>2016-09-12T08:18:45Z</time>
      </trkpt>
      <trkpt lat="45.88357" lon="4.7346">
        <ele>184</ele>
        <time>2016-09-12T08:18:46Z</time>
      </trkpt>
      <trkpt lat="45.88351" lon="4.73462">
        <ele>184</ele>
        <time>2016-09-12T08:18:47Z</time>
      </trkpt>
      <trkpt lat="45.88346" lon="4.73464">
        <ele>184</ele>
        <time>2016-09-12T08:18:48Z</time>
      </trkpt>
      <trkpt lat="45.88341" lon="4.73465">
        <ele>184</ele>
        <time>2016-09-12T08:18:49Z</time>
      </trkpt>
      <trkpt lat="45.88335" lon="4.73466">
        <ele>184</ele>
        <time>2016-09-12T08:18:50Z</time>
      </trkpt>
      <trkpt lat="45.8833" lon="4.73468">
        <ele>184</ele>
        <time>2016-09-12T08:18:51Z</time>
      </trkpt>
      <trkpt lat="45.88325" lon="4.73469">
        <ele>184</ele>
        <time>2016-09-12T08:18:52Z</time>
      </trkpt>
      <trkpt lat="45.88319" lon="4.7347">
        <ele>184</ele>
        <time>2016-09-12T08:18:53Z</time>
      </trkpt>
      <trkpt lat="45.88314" lon="4.73472">
        <ele>184</ele>
        <time>2016-09-12T08:18:54Z</time>
      </trkpt>
      <trkpt lat="45.88309" lon="4.73474">
        <ele>184</ele>
        <time>2016-09-12T08:18:55Z</time>
      </trkpt>
      <trkpt lat="45.88303" lon="4.73476">
        <ele>184</ele>
        <time>2016-09-12T08:18:56Z</time>
      </trkpt>
      <trkpt lat="45.88298" lon="4.73478">
        <ele>184</ele>
        <time>2016-09-12T08:18:57Z</time>
      </trkpt>
      <trkpt lat="45.88293" lon="4.73481">
        <ele>184</ele>
        <time>2016-09-12T08:18:58Z</time>
      </trkpt>
      <trkpt lat="45.88288" lon="4.73485">
        <ele>184</ele>
        <time>2016-09-12T08:18:59Z</time>
      </trkpt>
      <trkpt lat="45.88283" lon="4.73488">
        <ele>184</ele>
        <time>2016-09-12T08:19:00Z</time>
      </trkpt>
      <trkpt lat="45.88279" lon="4.73491">
        <ele>184</ele>
        <time>2016-09-12T08:19:01Z</time>
      </trkpt>
      <trkpt lat="45.88274" lon="4.73494">
        <ele>184</ele>
        <time>2016-09-12T08:19:02Z</time>
      </trkpt>
      <trkpt lat="45.88269" lon="4.73497">
        <ele>184</ele>
        <time>2016-09-12T08:19:03Z</time>
      </trkpt>
      <trkpt lat="45.88264" lon="4.73501">
        <ele>185</ele>
        <time>2016-09-12T08:19:04Z</time>
      </trkpt>
      <trkpt lat="45.88258" lon="4.73504">
        <ele>185</ele>
        <time>2016-09-12T08:19:05Z</time>
      </trkpt>
      <trkpt lat="45.88253" lon="4.73507">
        <ele>185</ele>
        <time>2016-09-12T08:19:06Z</time>
      </trkpt>
      <trkpt lat="45.88248" lon="4.7351">
        <ele>185</ele>
        <time>2016-09-12T08:19:07Z</time>
      </trkpt>
      <trkpt lat="45.88243" lon="4.73514">
        <ele>185</ele>
        <time>2016-09-12T08:19:08Z</time>
      </trkpt>
      <trkpt lat="45.88238" lon="4.73517">
        <ele>185</ele>
        <time>2016-09-12T08:19:09Z</time>
      </trkpt>
      <trkpt lat="45.88233" lon="4.73521">
        <ele>185</ele>
        <time>2016-09-12T08:19:10Z</time>
      </trkpt>
      <trkpt lat="45.88228" lon="4.73524">
        <ele>185</ele>
        <time>2016-09-12T08:19:11Z</time>
      </trkpt>
      <trkpt lat="45.88223" lon="4.73527">
        <ele>185</ele>
        <time>2016-09-12T08:19:12Z</time>
      </trkpt>
      <trkpt lat="45.88218" lon="4.7353">
        <ele>185</ele>
        <time>2016-09-12T08:19:13Z</time>
      </trkpt>
      <trkpt lat="45.88213" lon="4.73533">
        <ele>185</ele>
        <time>2016-09-12T08:19:14Z</time>
      </trkpt>
      <trkpt lat="45.88209" lon="4.73535">
        <ele>185</ele>
        <time>2016-09-12T08:19:15Z</time>
      </trkpt>
      <trkpt lat="45.88205" lon="4.73538">
        <ele>186</ele>
        <time>2016-09-12T08:19:16Z</time>
      </trkpt>
      <trkpt lat="45.882" lon="4.73542">
        <ele>186</ele>
        <time>2016-09-12T08:19:17Z</time>
      </trkpt>
      <trkpt lat="45.88195" lon="4.73545">
        <ele>186</ele>
        <time>2016-09-12T08:19:18Z</time>
      </trkpt>
      <trkpt lat="45.8819" lon="4.73549">
        <ele>186</ele>
        <time>2016-09-12T08:19:19Z</time>
      </trkpt>
      <trkpt lat="45.88185" lon="4.73552">
        <ele>186</ele>
        <time>2016-09-12T08:19:20Z</time>
      </trkpt>
      <trkpt lat="45.8818" lon="4.73556">
        <ele>186</ele>
        <time>2016-09-12T08:19:21Z</time>
      </trkpt>
      <trkpt lat="45.88175" lon="4.73559">
        <ele>186</ele>
        <time>2016-09-12T08:19:22Z</time>
      </trkpt>
      <trkpt lat="45.8817" lon="4.73562">
        <ele>186</ele>
        <time>2016-09-12T08:19:23Z</time>
      </trkpt>
      <trkpt lat="45.88166" lon="4.73565">
        <ele>186</ele>
        <time>2016-09-12T08:19:24Z</time>
      </trkpt>
      <trkpt lat="45.88161" lon="4.73568">
        <ele>186</ele>
        <time>2016-09-12T08:19:25Z</time>
      </trkpt>
      <trkpt lat="45.88157" lon="4.73571">
        <ele>186</ele>
        <time>2016-09-12T08:19:26Z</time>
      </trkpt>
      <trkpt lat="45.88152" lon="4.73574">
        <ele>186</ele>
        <time>2016-09-12T08:19:27Z</time>
      </trkpt>
      <trkpt lat="45.88148" lon="4.73576">
        <ele>186</ele>
        <time>2016-09-12T08:19:28Z</time>
      </trkpt>
      <trkpt lat="45.88144" lon="4.7358">
        <ele>186</ele>
        <time>2016-09-12T08:19:29Z</time>
      </trkpt>
      <trkpt lat="45.88139" lon="4.73583">
        <ele>186</ele>
        <time>2016-09-12T08:19:30Z</time>
      </trkpt>
      <trkpt lat="45.88134" lon="4.73586">
        <ele>187</ele>
        <time>2016-09-12T08:19:31Z</time>
      </trkpt>
      <trkpt lat="45.8813" lon="4.73588">
        <ele>187</ele>
        <time>2016-09-12T08:19:32Z</time>
      </trkpt>
      <trkpt lat="45.88125" lon="4.73591">
        <ele>187</ele>
        <time>2016-09-12T08:19:33Z</time>
      </trkpt>
      <trkpt lat="45.8812" lon="4.73595">
        <ele>187</ele>
        <time>2016-09-12T08:19:34Z</time>
      </trkpt>
      <trkpt lat="45.88115" lon="4.73598">
        <ele>187</ele>
        <time>2016-09-12T08:19:35Z</time>
      </trkpt>
      <trkpt lat="45.88111" lon="4.736">
        <ele>187</ele>
        <time>2016-09-12T08:19:36Z</time>
      </trkpt>
      <trkpt lat="45.88106" lon="4.73603">
        <ele>188</ele>
        <time>2016-09-12T08:19:37Z</time>
      </trkpt>
      <trkpt lat="45.88102" lon="4.73606">
        <ele>188</ele>
        <time>2016-09-12T08:19:38Z</time>
      </trkpt>
      <trkpt lat="45.88097" lon="4.73609">
        <ele>188</ele>
        <time>2016-09-12T08:19:39Z</time>
      </trkpt>
      <trkpt lat="45.88092" lon="4.73612">
        <ele>188</ele>
        <time>2016-09-12T08:19:40Z</time>
      </trkpt>
      <trkpt lat="45.88087" lon="4.73615">
        <ele>188</ele>
        <time>2016-09-12T08:19:41Z</time>
      </trkpt>
      <trkpt lat="45.88083" lon="4.73618">
        <ele>188</ele>
        <time>2016-09-12T08:19:42Z</time>
      </trkpt>
      <trkpt lat="45.88078" lon="4.73621">
        <ele>189</ele>
        <time>2016-09-12T08:19:43Z</time>
      </trkpt>
      <trkpt lat="45.88073" lon="4.73624">
        <ele>189</ele>
        <time>2016-09-12T08:19:44Z</time>
      </trkpt>
      <trkpt lat="45.88069" lon="4.73628">
        <ele>189</ele>
        <time>2016-09-12T08:19:45Z</time>
      </trkpt>
      <trkpt lat="45.88064" lon="4.73632">
        <ele>189</ele>
        <time>2016-09-12T08:19:46Z</time>
      </trkpt>
      <trkpt lat="45.88059" lon="4.73635">
        <ele>189</ele>
        <time>2016-09-12T08:19:47Z</time>
      </trkpt>
      <trkpt lat="45.88054" lon="4.73638">
        <ele>189</ele>
        <time>2016-09-12T08:19:48Z</time>
      </trkpt>
      <trkpt lat="45.8805" lon="4.73641">
        <ele>189</ele>
        <time>2016-09-12T08:19:49Z</time>
      </trkpt>
      <trkpt lat="45.88045" lon="4.73644">
        <ele>189</ele>
        <time>2016-09-12T08:19:50Z</time>
      </trkpt>
      <trkpt lat="45.8804" lon="4.73646">
        <ele>189</ele>
        <time>2016-09-12T08:19:51Z</time>
      </trkpt>
      <trkpt lat="45.88035" lon="4.73649">
        <ele>189</ele>
        <time>2016-09-12T08:19:52Z</time>
      </trkpt>
      <trkpt lat="45.88031" lon="4.73652">
        <ele>189</ele>
        <time>2016-09-12T08:19:53Z</time>
      </trkpt>
      <trkpt lat="45.88026" lon="4.73654">
        <ele>189</ele>
        <time>2016-09-12T08:19:54Z</time>
      </trkpt>
      <trkpt lat="45.88021" lon="4.73655">
        <ele>189</ele>
        <time>2016-09-12T08:19:55Z</time>
      </trkpt>
      <trkpt lat="45.88015" lon="4.73656">
        <ele>189</ele>
        <time>2016-09-12T08:19:56Z</time>
      </trkpt>
      <trkpt lat="45.88009" lon="4.73655">
        <ele>189</ele>
        <time>2016-09-12T08:19:57Z</time>
      </trkpt>
      <trkpt lat="45.88003" lon="4.73653">
        <ele>189</ele>
        <time>2016-09-12T08:19:58Z</time>
      </trkpt>
      <trkpt lat="45.87998" lon="4.73652">
        <ele>190</ele>
        <time>2016-09-12T08:19:59Z</time>
      </trkpt>
      <trkpt lat="45.87992" lon="4.7365">
        <ele>190</ele>
        <time>2016-09-12T08:20:00Z</time>
      </trkpt>
      <trkpt lat="45.87987" lon="4.73649">
        <ele>190</ele>
        <time>2016-09-12T08:20:01Z</time>
      </trkpt>
      <trkpt lat="45.87981" lon="4.73647">
        <ele>190</ele>
        <time>2016-09-12T08:20:02Z</time>
      </trkpt>
      <trkpt lat="45.87975" lon="4.73646">
        <ele>189</ele>
        <time>2016-09-12T08:20:03Z</time>
      </trkpt>
      <trkpt lat="45.8797" lon="4.73644">
        <ele>189</ele>
        <time>2016-09-12T08:20:04Z</time>
      </trkpt>
      <trkpt lat="45.87964" lon="4.73642">
        <ele>189</ele>
        <time>2016-09-12T08:20:05Z</time>
      </trkpt>
      <trkpt lat="45.87958" lon="4.7364">
        <ele>189</ele>
        <time>2016-09-12T08:20:06Z</time>
      </trkpt>
      <trkpt lat="45.87953" lon="4.73638">
        <ele>189</ele>
        <time>2016-09-12T08:20:07Z</time>
      </trkpt>
      <trkpt lat="45.87947" lon="4.73637">
        <ele>189</ele>
        <time>2016-09-12T08:20:08Z</time>
      </trkpt>
      <trkpt lat="45.87941" lon="4.73635">
        <ele>189</ele>
        <time>2016-09-12T08:20:09Z</time>
      </trkpt>
      <trkpt lat="45.87936" lon="4.73633">
        <ele>189</ele>
        <time>2016-09-12T08:20:10Z</time>
      </trkpt>
      <trkpt lat="45.8793" lon="4.73632">
        <ele>189</ele>
        <time>2016-09-12T08:20:11Z</time>
      </trkpt>
      <trkpt lat="45.87925" lon="4.7363">
        <ele>189</ele>
        <time>2016-09-12T08:20:12Z</time>
      </trkpt>
      <trkpt lat="45.8792" lon="4.73629">
        <ele>189</ele>
        <time>2016-09-12T08:20:13Z</time>
      </trkpt>
      <trkpt lat="45.87914" lon="4.73627">
        <ele>190</ele>
        <time>2016-09-12T08:20:14Z</time>
      </trkpt>
      <trkpt lat="45.87909" lon="4.73625">
        <ele>190</ele>
        <time>2016-09-12T08:20:15Z</time>
      </trkpt>
      <trkpt lat="45.87904" lon="4.73624">
        <ele>190</ele>
        <time>2016-09-12T08:20:16Z</time>
      </trkpt>
      <trkpt lat="45.87899" lon="4.73622">
        <ele>190</ele>
        <time>2016-09-12T08:20:17Z</time>
      </trkpt>
      <trkpt lat="45.87893" lon="4.73621">
        <ele>190</ele>
        <time>2016-09-12T08:20:18Z</time>
      </trkpt>
      <trkpt lat="45.87888" lon="4.7362">
        <ele>190</ele>
        <time>2016-09-12T08:20:19Z</time>
      </trkpt>
      <trkpt lat="45.87883" lon="4.73619">
        <ele>190</ele>
        <time>2016-09-12T08:20:20Z</time>
      </trkpt>
      <trkpt lat="45.87878" lon="4.73618">
        <ele>190</ele>
        <time>2016-09-12T08:20:21Z</time>
      </trkpt>
      <trkpt lat="45.8787" lon="4.73618">
        <ele>190</ele>
        <time>2016-09-12T08:20:23Z</time>
      </trkpt>
      <trkpt lat="45.87865" lon="4.7362">
        <ele>190</ele>
        <time>2016-09-12T08:20:24Z</time>
      </trkpt>
      <trkpt lat="45.87861" lon="4.73623">
        <ele>190</ele>
        <time>2016-09-12T08:20:25Z</time>
      </trkpt>
      <trkpt lat="45.87857" lon="4.73626">
        <ele>190</ele>
        <time>2016-09-12T08:20:26Z</time>
      </trkpt>
      <trkpt lat="45.87849" lon="4.73631">
        <ele>191</ele>
        <time>2016-09-12T08:20:28Z</time>
      </trkpt>
      <trkpt lat="45.87845" lon="4.73633">
        <ele>191</ele>
        <time>2016-09-12T08:20:29Z</time>
      </trkpt>
      <trkpt lat="45.87837" lon="4.73635">
        <ele>191</ele>
        <time>2016-09-12T08:20:31Z</time>
      </trkpt>
      <trkpt lat="45.87833" lon="4.73631">
        <ele>190</ele>
        <time>2016-09-12T08:20:32Z</time>
      </trkpt>
      <trkpt lat="45.87828" lon="4.73621">
        <ele>190</ele>
        <time>2016-09-12T08:20:34Z</time>
      </trkpt>
      <trkpt lat="45.87825" lon="4.73615">
        <ele>190</ele>
        <time>2016-09-12T08:20:35Z</time>
      </trkpt>
      <trkpt lat="45.87823" lon="4.73608">
        <ele>190</ele>
        <time>2016-09-12T08:20:36Z</time>
      </trkpt>
      <trkpt lat="45.8782" lon="4.73602">
        <ele>190</ele>
        <time>2016-09-12T08:20:37Z</time>
      </trkpt>
      <trkpt lat="45.87818" lon="4.73595">
        <ele>190</ele>
        <time>2016-09-12T08:20:38Z</time>
      </trkpt>
      <trkpt lat="45.87815" lon="4.73589">
        <ele>190</ele>
        <time>2016-09-12T08:20:39Z</time>
      </trkpt>
      <trkpt lat="45.87812" lon="4.73583">
        <ele>189</ele>
        <time>2016-09-12T08:20:40Z</time>
      </trkpt>
      <trkpt lat="45.87809" lon="4.73577">
        <ele>189</ele>
        <time>2016-09-12T08:20:41Z</time>
      </trkpt>
      <trkpt lat="45.87806" lon="4.7357">
        <ele>189</ele>
        <time>2016-09-12T08:20:42Z</time>
      </trkpt>
      <trkpt lat="45.87803" lon="4.73564">
        <ele>189</ele>
        <time>2016-09-12T08:20:43Z</time>
      </trkpt>
      <trkpt lat="45.87799" lon="4.73557">
        <ele>189</ele>
        <time>2016-09-12T08:20:44Z</time>
      </trkpt>
      <trkpt lat="45.87795" lon="4.7355">
        <ele>189</ele>
        <time>2016-09-12T08:20:45Z</time>
      </trkpt>
      <trkpt lat="45.87792" lon="4.73543">
        <ele>189</ele>
        <time>2016-09-12T08:20:46Z</time>
      </trkpt>
      <trkpt lat="45.87789" lon="4.73536">
        <ele>189</ele>
        <time>2016-09-12T08:20:47Z</time>
      </trkpt>
      <trkpt lat="45.87785" lon="4.73529">
        <ele>189</ele>
        <time>2016-09-12T08:20:48Z</time>
      </trkpt>
      <trkpt lat="45.87783" lon="4.73522">
        <ele>189</ele>
        <time>2016-09-12T08:20:49Z</time>
      </trkpt>
      <trkpt lat="45.8778" lon="4.73516">
        <ele>189</ele>
        <time>2016-09-12T08:20:50Z</time>
      </trkpt>
      <trkpt lat="45.87777" lon="4.73509">
        <ele>189</ele>
        <time>2016-09-12T08:20:51Z</time>
      </trkpt>
      <trkpt lat="45.87774" lon="4.73503">
        <ele>189</ele>
        <time>2016-09-12T08:20:52Z</time>
      </trkpt>
      <trkpt lat="45.87771" lon="4.73496">
        <ele>189</ele>
        <time>2016-09-12T08:20:53Z</time>
      </trkpt>
      <trkpt lat="45.87768" lon="4.7349">
        <ele>189</ele>
        <time>2016-09-12T08:20:54Z</time>
      </trkpt>
      <trkpt lat="45.87765" lon="4.73484">
        <ele>189</ele>
        <time>2016-09-12T08:20:55Z</time>
      </trkpt>
      <trkpt lat="45.87762" lon="4.73477">
        <ele>188</ele>
        <time>2016-09-12T08:20:56Z</time>
      </trkpt>
      <trkpt lat="45.87758" lon="4.73471">
        <ele>188</ele>
        <time>2016-09-12T08:20:57Z</time>
      </trkpt>
      <trkpt lat="45.87755" lon="4.73464">
        <ele>188</ele>
        <time>2016-09-12T08:20:58Z</time>
      </trkpt>
      <trkpt lat="45.87752" lon="4.73458">
        <ele>188</ele>
        <time>2016-09-12T08:20:59Z</time>
      </trkpt>
      <trkpt lat="45.87749" lon="4.73451">
        <ele>189</ele>
        <time>2016-09-12T08:21:00Z</time>
      </trkpt>
      <trkpt lat="45.87746" lon="4.73445">
        <ele>189</ele>
        <time>2016-09-12T08:21:01Z</time>
      </trkpt>
      <trkpt lat="45.87742" lon="4.73438">
        <ele>189</ele>
        <time>2016-09-12T08:21:02Z</time>
      </trkpt>
      <trkpt lat="45.87739" lon="4.73432">
        <ele>188</ele>
        <time>2016-09-12T08:21:03Z</time>
      </trkpt>
      <trkpt lat="45.87736" lon="4.73425">
        <ele>188</ele>
        <time>2016-09-12T08:21:04Z</time>
      </trkpt>
      <trkpt lat="45.87733" lon="4.73418">
        <ele>188</ele>
        <time>2016-09-12T08:21:05Z</time>
      </trkpt>
      <trkpt lat="45.87729" lon="4.7341">
        <ele>188</ele>
        <time>2016-09-12T08:21:06Z</time>
      </trkpt>
      <trkpt lat="45.87726" lon="4.73403">
        <ele>188</ele>
        <time>2016-09-12T08:21:07Z</time>
      </trkpt>
      <trkpt lat="45.87723" lon="4.73396">
        <ele>188</ele>
        <time>2016-09-12T08:21:08Z</time>
      </trkpt>
      <trkpt lat="45.8772" lon="4.73389">
        <ele>188</ele>
        <time>2016-09-12T08:21:09Z</time>
      </trkpt>
      <trkpt lat="45.87716" lon="4.73383">
        <ele>188</ele>
        <time>2016-09-12T08:21:10Z</time>
      </trkpt>
      <trkpt lat="45.87714" lon="4.73376">
        <ele>187</ele>
        <time>2016-09-12T08:21:11Z</time>
      </trkpt>
      <trkpt lat="45.87711" lon="4.7337">
        <ele>187</ele>
        <time>2016-09-12T08:21:12Z</time>
      </trkpt>
      <trkpt lat="45.87708" lon="4.73364">
        <ele>187</ele>
        <time>2016-09-12T08:21:13Z</time>
      </trkpt>
      <trkpt lat="45.87705" lon="4.73358">
        <ele>187</ele>
        <time>2016-09-12T08:21:14Z</time>
      </trkpt>
      <trkpt lat="45.87702" lon="4.73351">
        <ele>187</ele>
        <time>2016-09-12T08:21:15Z</time>
      </trkpt>
      <trkpt lat="45.87699" lon="4.73344">
        <ele>187</ele>
        <time>2016-09-12T08:21:16Z</time>
      </trkpt>
      <trkpt lat="45.87696" lon="4.73337">
        <ele>188</ele>
        <time>2016-09-12T08:21:17Z</time>
      </trkpt>
      <trkpt lat="45.87693" lon="4.7333">
        <ele>188</ele>
        <time>2016-09-12T08:21:18Z</time>
      </trkpt>
      <trkpt lat="45.87689" lon="4.73322">
        <ele>188</ele>
        <time>2016-09-12T08:21:19Z</time>
      </trkpt>
      <trkpt lat="45.87686" lon="4.73315">
        <ele>188</ele>
        <time>2016-09-12T08:21:20Z</time>
      </trkpt>
      <trkpt lat="45.87683" lon="4.73308">
        <ele>188</ele>
        <time>2016-09-12T08:21:21Z</time>
      </trkpt>
      <trkpt lat="45.87679" lon="4.73302">
        <ele>188</ele>
        <time>2016-09-12T08:21:22Z</time>
      </trkpt>
      <trkpt lat="45.87676" lon="4.73295">
        <ele>188</ele>
        <time>2016-09-12T08:21:23Z</time>
      </trkpt>
      <trkpt lat="45.87673" lon="4.73288">
        <ele>188</ele>
        <time>2016-09-12T08:21:24Z</time>
      </trkpt>
      <trkpt lat="45.87669" lon="4.73282">
        <ele>188</ele>
        <time>2016-09-12T08:21:25Z</time>
      </trkpt>
      <trkpt lat="45.87666" lon="4.73275">
        <ele>189</ele>
        <time>2016-09-12T08:21:26Z</time>
      </trkpt>
      <trkpt lat="45.87663" lon="4.73268">
        <ele>189</ele>
        <time>2016-09-12T08:21:27Z</time>
      </trkpt>
      <trkpt lat="45.8766" lon="4.73261">
        <ele>189</ele>
        <time>2016-09-12T08:21:28Z</time>
      </trkpt>
      <trkpt lat="45.87657" lon="4.73255">
        <ele>189</ele>
        <time>2016-09-12T08:21:29Z</time>
      </trkpt>
      <trkpt lat="45.87654" lon="4.73249">
        <ele>189</ele>
        <time>2016-09-12T08:21:30Z</time>
      </trkpt>
      <trkpt lat="45.87651" lon="4.73242">
        <ele>188</ele>
        <time>2016-09-12T08:21:31Z</time>
      </trkpt>
      <trkpt lat="45.87648" lon="4.73235">
        <ele>188</ele>
        <time>2016-09-12T08:21:32Z</time>
      </trkpt>
      <trkpt lat="45.87644" lon="4.73228">
        <ele>188</ele>
        <time>2016-09-12T08:21:33Z</time>
      </trkpt>
      <trkpt lat="45.87641" lon="4.73221">
        <ele>188</ele>
        <time>2016-09-12T08:21:34Z</time>
      </trkpt>
      <trkpt lat="45.87637" lon="4.73215">
        <ele>188</ele>
        <time>2016-09-12T08:21:35Z</time>
      </trkpt>
      <trkpt lat="45.87633" lon="4.73208">
        <ele>188</ele>
        <time>2016-09-12T08:21:36Z</time>
      </trkpt>
      <trkpt lat="45.8763" lon="4.73201">
        <ele>188</ele>
        <time>2016-09-12T08:21:37Z</time>
      </trkpt>
      <trkpt lat="45.87627" lon="4.73193">
        <ele>188</ele>
        <time>2016-09-12T08:21:38Z</time>
      </trkpt>
      <trkpt lat="45.87623" lon="4.73186">
        <ele>188</ele>
        <time>2016-09-12T08:21:39Z</time>
      </trkpt>
      <trkpt lat="45.8762" lon="4.73179">
        <ele>188</ele>
        <time>2016-09-12T08:21:40Z</time>
      </trkpt>
      <trkpt lat="45.87616" lon="4.73171">
        <ele>187</ele>
        <time>2016-09-12T08:21:41Z</time>
      </trkpt>
      <trkpt lat="45.87613" lon="4.73164">
        <ele>187</ele>
        <time>2016-09-12T08:21:42Z</time>
      </trkpt>
      <trkpt lat="45.87609" lon="4.73156">
        <ele>187</ele>
        <time>2016-09-12T08:21:43Z</time>
      </trkpt>
      <trkpt lat="45.87605" lon="4.73148">
        <ele>187</ele>
        <time>2016-09-12T08:21:44Z</time>
      </trkpt>
      <trkpt lat="45.876" lon="4.73139">
        <ele>187</ele>
        <time>2016-09-12T08:21:45Z</time>
      </trkpt>
      <trkpt lat="45.87596" lon="4.7313">
        <ele>187</ele>
        <time>2016-09-12T08:21:46Z</time>
      </trkpt>
      <trkpt lat="45.87591" lon="4.73122">
        <ele>188</ele>
        <time>2016-09-12T08:21:47Z</time>
      </trkpt>
      <trkpt lat="45.87586" lon="4.73113">
        <ele>188</ele>
        <time>2016-09-12T08:21:48Z</time>
      </trkpt>
      <trkpt lat="45.87582" lon="4.73104">
        <ele>188</ele>
        <time>2016-09-12T08:21:49Z</time>
      </trkpt>
      <trkpt lat="45.87578" lon="4.73096">
        <ele>188</ele>
        <time>2016-09-12T08:21:50Z</time>
      </trkpt>
      <trkpt lat="45.87574" lon="4.73087">
        <ele>188</ele>
        <time>2016-09-12T08:21:51Z</time>
      </trkpt>
      <trkpt lat="45.8757" lon="4.73078">
        <ele>188</ele>
        <time>2016-09-12T08:21:52Z</time>
      </trkpt>
      <trkpt lat="45.87566" lon="4.7307">
        <ele>188</ele>
        <time>2016-09-12T08:21:53Z</time>
      </trkpt>
      <trkpt lat="45.87563" lon="4.73062">
        <ele>188</ele>
        <time>2016-09-12T08:21:54Z</time>
      </trkpt>
      <trkpt lat="45.87559" lon="4.73055">
        <ele>188</ele>
        <time>2016-09-12T08:21:55Z</time>
      </trkpt>
      <trkpt lat="45.87556" lon="4.73047">
        <ele>188</ele>
        <time>2016-09-12T08:21:56Z</time>
      </trkpt>
      <trkpt lat="45.87552" lon="4.7304">
        <ele>188</ele>
        <time>2016-09-12T08:21:57Z</time>
      </trkpt>
      <trkpt lat="45.87548" lon="4.73032">
        <ele>188</ele>
        <time>2016-09-12T08:21:58Z</time>
      </trkpt>
      <trkpt lat="45.87545" lon="4.73026">
        <ele>188</ele>
        <time>2016-09-12T08:21:59Z</time>
      </trkpt>
      <trkpt lat="45.87541" lon="4.73019">
        <ele>187</ele>
        <time>2016-09-12T08:22:00Z</time>
      </trkpt>
      <trkpt lat="45.87538" lon="4.73012">
        <ele>187</ele>
        <time>2016-09-12T08:22:01Z</time>
      </trkpt>
      <trkpt lat="45.87535" lon="4.73006">
        <ele>187</ele>
        <time>2016-09-12T08:22:02Z</time>
      </trkpt>
      <trkpt lat="45.87532" lon="4.73">
        <ele>187</ele>
        <time>2016-09-12T08:22:03Z</time>
      </trkpt>
      <trkpt lat="45.8753" lon="4.72994">
        <ele>187</ele>
        <time>2016-09-12T08:22:04Z</time>
      </trkpt>
      <trkpt lat="45.87526" lon="4.72987">
        <ele>187</ele>
        <time>2016-09-12T08:22:05Z</time>
      </trkpt>
      <trkpt lat="45.87523" lon="4.7298">
        <ele>187</ele>
        <time>2016-09-12T08:22:06Z</time>
      </trkpt>
      <trkpt lat="45.87519" lon="4.72972">
        <ele>187</ele>
        <time>2016-09-12T08:22:07Z</time>
      </trkpt>
      <trkpt lat="45.87515" lon="4.72965">
        <ele>187</ele>
        <time>2016-09-12T08:22:08Z</time>
      </trkpt>
      <trkpt lat="45.8751" lon="4.72959">
        <ele>187</ele>
        <time>2016-09-12T08:22:09Z</time>
      </trkpt>
      <trkpt lat="45.87506" lon="4.72954">
        <ele>187</ele>
        <time>2016-09-12T08:22:10Z</time>
      </trkpt>
      <trkpt lat="45.87502" lon="4.72949">
        <ele>187</ele>
        <time>2016-09-12T08:22:11Z</time>
      </trkpt>
      <trkpt lat="45.87497" lon="4.72945">
        <ele>188</ele>
        <time>2016-09-12T08:22:12Z</time>
      </trkpt>
      <trkpt lat="45.87493" lon="4.72942">
        <ele>188</ele>
        <time>2016-09-12T08:22:13Z</time>
      </trkpt>
      <trkpt lat="45.87489" lon="4.72939">
        <ele>188</ele>
        <time>2016-09-12T08:22:14Z</time>
      </trkpt>
      <trkpt lat="45.87484" lon="4.72935">
        <ele>188</ele>
        <time>2016-09-12T08:22:15Z</time>
      </trkpt>
      <trkpt lat="45.8748" lon="4.72931">
        <ele>188</ele>
        <time>2016-09-12T08:22:16Z</time>
      </trkpt>
      <trkpt lat="45.87476" lon="4.72928">
        <ele>188</ele>
        <time>2016-09-12T08:22:17Z</time>
      </trkpt>
      <trkpt lat="45.87472" lon="4.72923">
        <ele>188</ele>
        <time>2016-09-12T08:22:18Z</time>
      </trkpt>
      <trkpt lat="45.87469" lon="4.72918">
        <ele>188</ele>
        <time>2016-09-12T08:22:19Z</time>
      </trkpt>
      <trkpt lat="45.87464" lon="4.72909">
        <ele>188</ele>
        <time>2016-09-12T08:22:21Z</time>
      </trkpt>
      <trkpt lat="45.87463" lon="4.72904">
        <ele>188</ele>
        <time>2016-09-12T08:22:22Z</time>
      </trkpt>
      <trkpt lat="45.8746" lon="4.72893">
        <ele>188</ele>
        <time>2016-09-12T08:22:24Z</time>
      </trkpt>
      <trkpt lat="45.87459" lon="4.72888">
        <ele>188</ele>
        <time>2016-09-12T08:22:25Z</time>
      </trkpt>
      <trkpt lat="45.87457" lon="4.72882">
        <ele>188</ele>
        <time>2016-09-12T08:22:26Z</time>
      </trkpt>
      <trkpt lat="45.87455" lon="4.72875">
        <ele>188</ele>
        <time>2016-09-12T08:22:27Z</time>
      </trkpt>
      <trkpt lat="45.87452" lon="4.72867">
        <ele>188</ele>
        <time>2016-09-12T08:22:28Z</time>
      </trkpt>
      <trkpt lat="45.8745" lon="4.72859">
        <ele>188</ele>
        <time>2016-09-12T08:22:29Z</time>
      </trkpt>
      <trkpt lat="45.87447" lon="4.72851">
        <ele>188</ele>
        <time>2016-09-12T08:22:30Z</time>
      </trkpt>
      <trkpt lat="45.87443" lon="4.72843">
        <ele>188</ele>
        <time>2016-09-12T08:22:31Z</time>
      </trkpt>
      <trkpt lat="45.8744" lon="4.72837">
        <ele>188</ele>
        <time>2016-09-12T08:22:32Z</time>
      </trkpt>
      <trkpt lat="45.87437" lon="4.7283">
        <ele>189</ele>
        <time>2016-09-12T08:22:33Z</time>
      </trkpt>
      <trkpt lat="45.87434" lon="4.72824">
        <ele>189</ele>
        <time>2016-09-12T08:22:34Z</time>
      </trkpt>
      <trkpt lat="45.87431" lon="4.72817">
        <ele>189</ele>
        <time>2016-09-12T08:22:35Z</time>
      </trkpt>
      <trkpt lat="45.87429" lon="4.72811">
        <ele>189</ele>
        <time>2016-09-12T08:22:36Z</time>
      </trkpt>
      <trkpt lat="45.87426" lon="4.72804">
        <ele>189</ele>
        <time>2016-09-12T08:22:37Z</time>
      </trkpt>
      <trkpt lat="45.87424" lon="4.72798">
        <ele>189</ele>
        <time>2016-09-12T08:22:38Z</time>
      </trkpt>
      <trkpt lat="45.87421" lon="4.72791">
        <ele>189</ele>
        <time>2016-09-12T08:22:39Z</time>
      </trkpt>
      <trkpt lat="45.87417" lon="4.72785">
        <ele>189</ele>
        <time>2016-09-12T08:22:40Z</time>
      </trkpt>
      <trkpt lat="45.87414" lon="4.72778">
        <ele>189</ele>
        <time>2016-09-12T08:22:41Z</time>
      </trkpt>
      <trkpt lat="45.87411" lon="4.72772">
        <ele>189</ele>
        <time>2016-09-12T08:22:42Z</time>
      </trkpt>
      <trkpt lat="45.87408" lon="4.72766">
        <ele>189</ele>
        <time>2016-09-12T08:22:43Z</time>
      </trkpt>
      <trkpt lat="45.87403" lon="4.72756">
        <ele>189</ele>
        <time>2016-09-12T08:22:45Z</time>
      </trkpt>
      <trkpt lat="45.874" lon="4.72751">
        <ele>189</ele>
        <time>2016-09-12T08:22:46Z</time>
      </trkpt>
      <trkpt lat="45.87397" lon="4.72746">
        <ele>189</ele>
        <time>2016-09-12T08:22:47Z</time>
      </trkpt>
      <trkpt lat="45.87394" lon="4.72742">
        <ele>189</ele>
        <time>2016-09-12T08:22:48Z</time>
      </trkpt>
      <trkpt lat="45.87388" lon="4.72734">
        <ele>190</ele>
        <time>2016-09-12T08:22:50Z</time>
      </trkpt>
      <trkpt lat="45.87386" lon="4.72728">
        <ele>190</ele>
        <time>2016-09-12T08:22:51Z</time>
      </trkpt>
      <trkpt lat="45.87384" lon="4.72722">
        <ele>190</ele>
        <time>2016-09-12T08:22:52Z</time>
      </trkpt>
      <trkpt lat="45.87382" lon="4.72715">
        <ele>190</ele>
        <time>2016-09-12T08:22:53Z</time>
      </trkpt>
      <trkpt lat="45.87379" lon="4.72709">
        <ele>190</ele>
        <time>2016-09-12T08:22:54Z</time>
      </trkpt>
      <trkpt lat="45.87375" lon="4.72703">
        <ele>190</ele>
        <time>2016-09-12T08:22:55Z</time>
      </trkpt>
      <trkpt lat="45.87372" lon="4.72696">
        <ele>190</ele>
        <time>2016-09-12T08:22:56Z</time>
      </trkpt>
      <trkpt lat="45.87368" lon="4.7269">
        <ele>190</ele>
        <time>2016-09-12T08:22:57Z</time>
      </trkpt>
      <trkpt lat="45.87363" lon="4.72685">
        <ele>190</ele>
        <time>2016-09-12T08:22:58Z</time>
      </trkpt>
      <trkpt lat="45.87358" lon="4.72679">
        <ele>190</ele>
        <time>2016-09-12T08:22:59Z</time>
      </trkpt>
      <trkpt lat="45.87352" lon="4.72674">
        <ele>190</ele>
        <time>2016-09-12T08:23:00Z</time>
      </trkpt>
      <trkpt lat="45.87347" lon="4.7267">
        <ele>190</ele>
        <time>2016-09-12T08:23:01Z</time>
      </trkpt>
      <trkpt lat="45.87343" lon="4.72665">
        <ele>190</ele>
        <time>2016-09-12T08:23:02Z</time>
      </trkpt>
      <trkpt lat="45.87338" lon="4.72661">
        <ele>190</ele>
        <time>2016-09-12T08:23:03Z</time>
      </trkpt>
      <trkpt lat="45.87334" lon="4.72656">
        <ele>190</ele>
        <time>2016-09-12T08:23:04Z</time>
      </trkpt>
      <trkpt lat="45.8733" lon="4.72651">
        <ele>192</ele>
        <time>2016-09-12T08:23:05Z</time>
      </trkpt>
      <trkpt lat="45.87325" lon="4.72645">
        <ele>192</ele>
        <time>2016-09-12T08:23:06Z</time>
      </trkpt>
      <trkpt lat="45.87321" lon="4.7264">
        <ele>193</ele>
        <time>2016-09-12T08:23:07Z</time>
      </trkpt>
      <trkpt lat="45.87317" lon="4.72636">
        <ele>193</ele>
        <time>2016-09-12T08:23:08Z</time>
      </trkpt>
      <trkpt lat="45.87314" lon="4.72631">
        <ele>193</ele>
        <time>2016-09-12T08:23:09Z</time>
      </trkpt>
      <trkpt lat="45.87307" lon="4.72623">
        <ele>193</ele>
        <time>2016-09-12T08:23:11Z</time>
      </trkpt>
      <trkpt lat="45.87303" lon="4.72619">
        <ele>193</ele>
        <time>2016-09-12T08:23:12Z</time>
      </trkpt>
      <trkpt lat="45.87296" lon="4.72612">
        <ele>194</ele>
        <time>2016-09-12T08:23:14Z</time>
      </trkpt>
      <trkpt lat="45.87292" lon="4.72608">
        <ele>194</ele>
        <time>2016-09-12T08:23:15Z</time>
      </trkpt>
      <trkpt lat="45.87288" lon="4.72604">
        <ele>194</ele>
        <time>2016-09-12T08:23:16Z</time>
      </trkpt>
      <trkpt lat="45.87284" lon="4.726">
        <ele>194</ele>
        <time>2016-09-12T08:23:17Z</time>
      </trkpt>
      <trkpt lat="45.87279" lon="4.72591">
        <ele>195</ele>
        <time>2016-09-12T08:23:19Z</time>
      </trkpt>
      <trkpt lat="45.87277" lon="4.72587">
        <ele>195</ele>
        <time>2016-09-12T08:23:20Z</time>
      </trkpt>
      <trkpt lat="45.87272" lon="4.72579">
        <ele>195</ele>
        <time>2016-09-12T08:23:22Z</time>
      </trkpt>
      <trkpt lat="45.87268" lon="4.72574">
        <ele>195</ele>
        <time>2016-09-12T08:23:23Z</time>
      </trkpt>
      <trkpt lat="45.87262" lon="4.72565">
        <ele>195</ele>
        <time>2016-09-12T08:23:25Z</time>
      </trkpt>
      <trkpt lat="45.87258" lon="4.7256">
        <ele>194</ele>
        <time>2016-09-12T08:23:26Z</time>
      </trkpt>
      <trkpt lat="45.87254" lon="4.72552">
        <ele>194</ele>
        <time>2016-09-12T08:23:28Z</time>
      </trkpt>
      <trkpt lat="45.87253" lon="4.72548">
        <ele>194</ele>
        <time>2016-09-12T08:23:29Z</time>
      </trkpt>
      <trkpt lat="45.87249" lon="4.72539">
        <ele>197</ele>
        <time>2016-09-12T08:23:32Z</time>
      </trkpt>
      <trkpt lat="45.87248" lon="4.72534">
        <ele>197</ele>
        <time>2016-09-12T08:23:33Z</time>
      </trkpt>
      <trkpt lat="45.87244" lon="4.72526">
        <ele>196</ele>
        <time>2016-09-12T08:23:35Z</time>
      </trkpt>
      <trkpt lat="45.87241" lon="4.72522">
        <ele>196</ele>
        <time>2016-09-12T08:23:36Z</time>
      </trkpt>
      <trkpt lat="45.87237" lon="4.72514">
        <ele>196</ele>
        <time>2016-09-12T08:23:38Z</time>
      </trkpt>
      <trkpt lat="45.87234" lon="4.72509">
        <ele>196</ele>
        <time>2016-09-12T08:23:39Z</time>
      </trkpt>
      <trkpt lat="45.8723" lon="4.72498">
        <ele>194</ele>
        <time>2016-09-12T08:23:41Z</time>
      </trkpt>
      <trkpt lat="45.87227" lon="4.72493">
        <ele>194</ele>
        <time>2016-09-12T08:23:42Z</time>
      </trkpt>
      <trkpt lat="45.87224" lon="4.72488">
        <ele>194</ele>
        <time>2016-09-12T08:23:43Z</time>
      </trkpt>
      <trkpt lat="45.8722" lon="4.72483">
        <ele>194</ele>
        <time>2016-09-12T08:23:44Z</time>
      </trkpt>
      <trkpt lat="45.87217" lon="4.72478">
        <ele>194</ele>
        <time>2016-09-12T08:23:45Z</time>
      </trkpt>
      <trkpt lat="45.87214" lon="4.72473">
        <ele>194</ele>
        <time>2016-09-12T08:23:46Z</time>
      </trkpt>
      <trkpt lat="45.87208" lon="4.72465">
        <ele>194</ele>
        <time>2016-09-12T08:23:48Z</time>
      </trkpt>
      <trkpt lat="45.87204" lon="4.72461">
        <ele>194</ele>
        <time>2016-09-12T08:23:49Z</time>
      </trkpt>
      <trkpt lat="45.87199" lon="4.72453">
        <ele>194</ele>
        <time>2016-09-12T08:23:51Z</time>
      </trkpt>
      <trkpt lat="45.87196" lon="4.72447">
        <ele>194</ele>
        <time>2016-09-12T08:23:52Z</time>
      </trkpt>
      <trkpt lat="45.8719" lon="4.72438">
        <ele>194</ele>
        <time>2016-09-12T08:23:54Z</time>
      </trkpt>
      <trkpt lat="45.87187" lon="4.72434">
        <ele>194</ele>
        <time>2016-09-12T08:23:55Z</time>
      </trkpt>
      <trkpt lat="45.87182" lon="4.72427">
        <ele>194</ele>
        <time>2016-09-12T08:23:57Z</time>
      </trkpt>
      <trkpt lat="45.8718" lon="4.72425">
        <ele>194</ele>
        <time>2016-09-12T08:23:58Z</time>
      </trkpt>
      <trkpt lat="45.87176" lon="4.72419">
        <ele>194</ele>
        <time>2016-09-12T08:24:00Z</time>
      </trkpt>
      <trkpt lat="45.87173" lon="4.72414">
        <ele>193</ele>
        <time>2016-09-12T08:24:01Z</time>
      </trkpt>
      <trkpt lat="45.87171" lon="4.72408">
        <ele>192</ele>
        <time>2016-09-12T08:24:02Z</time>
      </trkpt>
      <trkpt lat="45.87168" lon="4.72402">
        <ele>192</ele>
        <time>2016-09-12T08:24:03Z</time>
      </trkpt>
      <trkpt lat="45.87165" lon="4.72396">
        <ele>196</ele>
        <time>2016-09-12T08:24:04Z</time>
      </trkpt>
      <trkpt lat="45.87163" lon="4.72389">
        <ele>197</ele>
        <time>2016-09-12T08:24:05Z</time>
      </trkpt>
      <trkpt lat="45.8716" lon="4.72383">
        <ele>197</ele>
        <time>2016-09-12T08:24:06Z</time>
      </trkpt>
      <trkpt lat="45.87157" lon="4.72376">
        <ele>197</ele>
        <time>2016-09-12T08:24:07Z</time>
      </trkpt>
      <trkpt lat="45.87154" lon="4.72369">
        <ele>197</ele>
        <time>2016-09-12T08:24:08Z</time>
      </trkpt>
      <trkpt lat="45.87151" lon="4.72362">
        <ele>196</ele>
        <time>2016-09-12T08:24:09Z</time>
      </trkpt>
      <trkpt lat="45.87149" lon="4.72355">
        <ele>196</ele>
        <time>2016-09-12T08:24:10Z</time>
      </trkpt>
      <trkpt lat="45.87146" lon="4.72347">
        <ele>196</ele>
        <time>2016-09-12T08:24:11Z</time>
      </trkpt>
      <trkpt lat="45.87143" lon="4.7234">
        <ele>196</ele>
        <time>2016-09-12T08:24:12Z</time>
      </trkpt>
      <trkpt lat="45.8714" lon="4.72334">
        <ele>196</ele>
        <time>2016-09-12T08:24:13Z</time>
      </trkpt>
      <trkpt lat="45.87137" lon="4.72327">
        <ele>195</ele>
        <time>2016-09-12T08:24:14Z</time>
      </trkpt>
      <trkpt lat="45.87134" lon="4.72321">
        <ele>195</ele>
        <time>2016-09-12T08:24:15Z</time>
      </trkpt>
      <trkpt lat="45.87131" lon="4.72314">
        <ele>196</ele>
        <time>2016-09-12T08:24:16Z</time>
      </trkpt>
      <trkpt lat="45.87127" lon="4.72307">
        <ele>196</ele>
        <time>2016-09-12T08:24:17Z</time>
      </trkpt>
      <trkpt lat="45.87123" lon="4.72301">
        <ele>196</ele>
        <time>2016-09-12T08:24:18Z</time>
      </trkpt>
      <trkpt lat="45.87119" lon="4.72294">
        <ele>197</ele>
        <time>2016-09-12T08:24:19Z</time>
      </trkpt>
      <trkpt lat="45.87115" lon="4.72288">
        <ele>197</ele>
        <time>2016-09-12T08:24:20Z</time>
      </trkpt>
      <trkpt lat="45.8711" lon="4.72281">
        <ele>197</ele>
        <time>2016-09-12T08:24:21Z</time>
      </trkpt>
      <trkpt lat="45.87105" lon="4.72275">
        <ele>197</ele>
        <time>2016-09-12T08:24:22Z</time>
      </trkpt>
      <trkpt lat="45.871" lon="4.7227">
        <ele>197</ele>
        <time>2016-09-12T08:24:23Z</time>
      </trkpt>
      <trkpt lat="45.87096" lon="4.72264">
        <ele>198</ele>
        <time>2016-09-12T08:24:24Z</time>
      </trkpt>
      <trkpt lat="45.87091" lon="4.72258">
        <ele>198</ele>
        <time>2016-09-12T08:24:25Z</time>
      </trkpt>
      <trkpt lat="45.87086" lon="4.72253">
        <ele>199</ele>
        <time>2016-09-12T08:24:26Z</time>
      </trkpt>
      <trkpt lat="45.8708" lon="4.72247">
        <ele>199</ele>
        <time>2016-09-12T08:24:27Z</time>
      </trkpt>
      <trkpt lat="45.87075" lon="4.72242">
        <ele>200</ele>
        <time>2016-09-12T08:24:28Z</time>
      </trkpt>
      <trkpt lat="45.8707" lon="4.72237">
        <ele>200</ele>
        <time>2016-09-12T08:24:29Z</time>
      </trkpt>
      <trkpt lat="45.87065" lon="4.72231">
        <ele>200</ele>
        <time>2016-09-12T08:24:30Z</time>
      </trkpt>
      <trkpt lat="45.8706" lon="4.72226">
        <ele>200</ele>
        <time>2016-09-12T08:24:31Z</time>
      </trkpt>
      <trkpt lat="45.87055" lon="4.72222">
        <ele>201</ele>
        <time>2016-09-12T08:24:32Z</time>
      </trkpt>
      <trkpt lat="45.8705" lon="4.72218">
        <ele>201</ele>
        <time>2016-09-12T08:24:33Z</time>
      </trkpt>
      <trkpt lat="45.87044" lon="4.72214">
        <ele>201</ele>
        <time>2016-09-12T08:24:34Z</time>
      </trkpt>
      <trkpt lat="45.87038" lon="4.7221">
        <ele>201</ele>
        <time>2016-09-12T08:24:35Z</time>
      </trkpt>
      <trkpt lat="45.87032" lon="4.72206">
        <ele>201</ele>
        <time>2016-09-12T08:24:36Z</time>
      </trkpt>
      <trkpt lat="45.87027" lon="4.72201">
        <ele>201</ele>
        <time>2016-09-12T08:24:37Z</time>
      </trkpt>
      <trkpt lat="45.87021" lon="4.72197">
        <ele>201</ele>
        <time>2016-09-12T08:24:38Z</time>
      </trkpt>
      <trkpt lat="45.87015" lon="4.72193">
        <ele>201</ele>
        <time>2016-09-12T08:24:39Z</time>
      </trkpt>
      <trkpt lat="45.87009" lon="4.72189">
        <ele>201</ele>
        <time>2016-09-12T08:24:40Z</time>
      </trkpt>
      <trkpt lat="45.87004" lon="4.72185">
        <ele>201</ele>
        <time>2016-09-12T08:24:41Z</time>
      </trkpt>
      <trkpt lat="45.86998" lon="4.72181">
        <ele>206</ele>
        <time>2016-09-12T08:24:42Z</time>
      </trkpt>
      <trkpt lat="45.86993" lon="4.72177">
        <ele>206</ele>
        <time>2016-09-12T08:24:43Z</time>
      </trkpt>
      <trkpt lat="45.86988" lon="4.72173">
        <ele>206</ele>
        <time>2016-09-12T08:24:44Z</time>
      </trkpt>
      <trkpt lat="45.86983" lon="4.72169">
        <ele>207</ele>
        <time>2016-09-12T08:24:45Z</time>
      </trkpt>
      <trkpt lat="45.86977" lon="4.72166">
        <ele>201</ele>
        <time>2016-09-12T08:24:46Z</time>
      </trkpt>
      <trkpt lat="45.86972" lon="4.72162">
        <ele>201</ele>
        <time>2016-09-12T08:24:47Z</time>
      </trkpt>
      <trkpt lat="45.86966" lon="4.72158">
        <ele>201</ele>
        <time>2016-09-12T08:24:48Z</time>
      </trkpt>
      <trkpt lat="45.86961" lon="4.72154">
        <ele>201</ele>
        <time>2016-09-12T08:24:49Z</time>
      </trkpt>
      <trkpt lat="45.86955" lon="4.72151">
        <ele>201</ele>
        <time>2016-09-12T08:24:50Z</time>
      </trkpt>
      <trkpt lat="45.86949" lon="4.72147">
        <ele>201</ele>
        <time>2016-09-12T08:24:51Z</time>
      </trkpt>
      <trkpt lat="45.86944" lon="4.72144">
        <ele>202</ele>
        <time>2016-09-12T08:24:52Z</time>
      </trkpt>
      <trkpt lat="45.86938" lon="4.7214">
        <ele>202</ele>
        <time>2016-09-12T08:24:53Z</time>
      </trkpt>
      <trkpt lat="45.86933" lon="4.72137">
        <ele>202</ele>
        <time>2016-09-12T08:24:54Z</time>
      </trkpt>
      <trkpt lat="45.86927" lon="4.72134">
        <ele>201</ele>
        <time>2016-09-12T08:24:55Z</time>
      </trkpt>
      <trkpt lat="45.86922" lon="4.72132">
        <ele>201</ele>
        <time>2016-09-12T08:24:56Z</time>
      </trkpt>
      <trkpt lat="45.86916" lon="4.72129">
        <ele>203</ele>
        <time>2016-09-12T08:24:57Z</time>
      </trkpt>
      <trkpt lat="45.86911" lon="4.72126">
        <ele>203</ele>
        <time>2016-09-12T08:24:58Z</time>
      </trkpt>
      <trkpt lat="45.86905" lon="4.72124">
        <ele>202</ele>
        <time>2016-09-12T08:24:59Z</time>
      </trkpt>
      <trkpt lat="45.869" lon="4.72122">
        <ele>202</ele>
        <time>2016-09-12T08:25:00Z</time>
      </trkpt>
      <trkpt lat="45.86894" lon="4.72121">
        <ele>202</ele>
        <time>2016-09-12T08:25:01Z</time>
      </trkpt>
      <trkpt lat="45.86889" lon="4.72118">
        <ele>202</ele>
        <time>2016-09-12T08:25:02Z</time>
      </trkpt>
      <trkpt lat="45.86883" lon="4.72116">
        <ele>201</ele>
        <time>2016-09-12T08:25:03Z</time>
      </trkpt>
      <trkpt lat="45.86878" lon="4.72114">
        <ele>201</ele>
        <time>2016-09-12T08:25:04Z</time>
      </trkpt>
      <trkpt lat="45.86872" lon="4.7211">
        <ele>201</ele>
        <time>2016-09-12T08:25:05Z</time>
      </trkpt>
      <trkpt lat="45.86866" lon="4.72106">
        <ele>200</ele>
        <time>2016-09-12T08:25:06Z</time>
      </trkpt>
      <trkpt lat="45.8686" lon="4.72102">
        <ele>200</ele>
        <time>2016-09-12T08:25:07Z</time>
      </trkpt>
      <trkpt lat="45.86854" lon="4.72099">
        <ele>199</ele>
        <time>2016-09-12T08:25:08Z</time>
      </trkpt>
      <trkpt lat="45.86848" lon="4.72097">
        <ele>198</ele>
        <time>2016-09-12T08:25:09Z</time>
      </trkpt>
      <trkpt lat="45.86842" lon="4.72094">
        <ele>197</ele>
        <time>2016-09-12T08:25:10Z</time>
      </trkpt>
      <trkpt lat="45.86837" lon="4.72092">
        <ele>196</ele>
        <time>2016-09-12T08:25:11Z</time>
      </trkpt>
      <trkpt lat="45.86831" lon="4.72089">
        <ele>196</ele>
        <time>2016-09-12T08:25:12Z</time>
      </trkpt>
      <trkpt lat="45.86826" lon="4.72083">
        <ele>193</ele>
        <time>2016-09-12T08:25:13Z</time>
      </trkpt>
      <trkpt lat="45.86821" lon="4.72081">
        <ele>193</ele>
        <time>2016-09-12T08:25:14Z</time>
      </trkpt>
      <trkpt lat="45.86815" lon="4.72079">
        <ele>194</ele>
        <time>2016-09-12T08:25:15Z</time>
      </trkpt>
      <trkpt lat="45.8681" lon="4.72077">
        <ele>194</ele>
        <time>2016-09-12T08:25:16Z</time>
      </trkpt>
      <trkpt lat="45.86804" lon="4.72074">
        <ele>194</ele>
        <time>2016-09-12T08:25:17Z</time>
      </trkpt>
      <trkpt lat="45.86799" lon="4.72073">
        <ele>194</ele>
        <time>2016-09-12T08:25:18Z</time>
      </trkpt>
      <trkpt lat="45.86794" lon="4.72071">
        <ele>194</ele>
        <time>2016-09-12T08:25:19Z</time>
      </trkpt>
      <trkpt lat="45.86789" lon="4.7207">
        <ele>194</ele>
        <time>2016-09-12T08:25:20Z</time>
      </trkpt>
      <trkpt lat="45.86784" lon="4.72068">
        <ele>194</ele>
        <time>2016-09-12T08:25:21Z</time>
      </trkpt>
      <trkpt lat="45.86779" lon="4.72066">
        <ele>194</ele>
        <time>2016-09-12T08:25:22Z</time>
      </trkpt>
      <trkpt lat="45.86774" lon="4.72064">
        <ele>195</ele>
        <time>2016-09-12T08:25:23Z</time>
      </trkpt>
      <trkpt lat="45.86769" lon="4.72062">
        <ele>195</ele>
        <time>2016-09-12T08:25:24Z</time>
      </trkpt>
      <trkpt lat="45.86763" lon="4.72059">
        <ele>195</ele>
        <time>2016-09-12T08:25:25Z</time>
      </trkpt>
      <trkpt lat="45.86758" lon="4.72056">
        <ele>195</ele>
        <time>2016-09-12T08:25:26Z</time>
      </trkpt>
      <trkpt lat="45.86752" lon="4.72054">
        <ele>195</ele>
        <time>2016-09-12T08:25:27Z</time>
      </trkpt>
      <trkpt lat="45.86747" lon="4.72052">
        <ele>197</ele>
        <time>2016-09-12T08:25:28Z</time>
      </trkpt>
      <trkpt lat="45.86742" lon="4.72049">
        <ele>197</ele>
        <time>2016-09-12T08:25:29Z</time>
      </trkpt>
      <trkpt lat="45.86737" lon="4.72047">
        <ele>197</ele>
        <time>2016-09-12T08:25:30Z</time>
      </trkpt>
      <trkpt lat="45.86732" lon="4.72044">
        <ele>197</ele>
        <time>2016-09-12T08:25:31Z</time>
      </trkpt>
      <trkpt lat="45.86726" lon="4.72042">
        <ele>197</ele>
        <time>2016-09-12T08:25:32Z</time>
      </trkpt>
      <trkpt lat="45.86721" lon="4.72039">
        <ele>197</ele>
        <time>2016-09-12T08:25:33Z</time>
      </trkpt>
      <trkpt lat="45.86716" lon="4.72036">
        <ele>197</ele>
        <time>2016-09-12T08:25:34Z</time>
      </trkpt>
      <trkpt lat="45.86711" lon="4.72032">
        <ele>197</ele>
        <time>2016-09-12T08:25:35Z</time>
      </trkpt>
      <trkpt lat="45.86707" lon="4.72028">
        <ele>197</ele>
        <time>2016-09-12T08:25:36Z</time>
      </trkpt>
      <trkpt lat="45.86702" lon="4.72025">
        <ele>197</ele>
        <time>2016-09-12T08:25:37Z</time>
      </trkpt>
      <trkpt lat="45.86697" lon="4.72021">
        <ele>197</ele>
        <time>2016-09-12T08:25:38Z</time>
      </trkpt>
      <trkpt lat="45.86693" lon="4.72019">
        <ele>197</ele>
        <time>2016-09-12T08:25:39Z</time>
      </trkpt>
      <trkpt lat="45.86686" lon="4.72013">
        <ele>196</ele>
        <time>2016-09-12T08:25:41Z</time>
      </trkpt>
      <trkpt lat="45.86681" lon="4.7201">
        <ele>196</ele>
        <time>2016-09-12T08:25:42Z</time>
      </trkpt>
      <trkpt lat="45.86677" lon="4.72007">
        <ele>196</ele>
        <time>2016-09-12T08:25:43Z</time>
      </trkpt>
      <trkpt lat="45.86672" lon="4.72003">
        <ele>195</ele>
        <time>2016-09-12T08:25:44Z</time>
      </trkpt>
      <trkpt lat="45.86667" lon="4.71999">
        <ele>195</ele>
        <time>2016-09-12T08:25:45Z</time>
      </trkpt>
      <trkpt lat="45.86663" lon="4.71995">
        <ele>195</ele>
        <time>2016-09-12T08:25:46Z</time>
      </trkpt>
      <trkpt lat="45.86658" lon="4.71991">
        <ele>195</ele>
        <time>2016-09-12T08:25:47Z</time>
      </trkpt>
      <trkpt lat="45.86654" lon="4.71987">
        <ele>195</ele>
        <time>2016-09-12T08:25:48Z</time>
      </trkpt>
      <trkpt lat="45.86649" lon="4.71984">
        <ele>195</ele>
        <time>2016-09-12T08:25:49Z</time>
      </trkpt>
      <trkpt lat="45.86644" lon="4.7198">
        <ele>195</ele>
        <time>2016-09-12T08:25:50Z</time>
      </trkpt>
      <trkpt lat="45.86639" lon="4.71977">
        <ele>195</ele>
        <time>2016-09-12T08:25:51Z</time>
      </trkpt>
      <trkpt lat="45.86635" lon="4.71973">
        <ele>195</ele>
        <time>2016-09-12T08:25:52Z</time>
      </trkpt>
      <trkpt lat="45.8663" lon="4.71969">
        <ele>195</ele>
        <time>2016-09-12T08:25:53Z</time>
      </trkpt>
      <trkpt lat="45.86625" lon="4.71964">
        <ele>195</ele>
        <time>2016-09-12T08:25:54Z</time>
      </trkpt>
      <trkpt lat="45.8662" lon="4.7196">
        <ele>195</ele>
        <time>2016-09-12T08:25:55Z</time>
      </trkpt>
      <trkpt lat="45.86616" lon="4.71957">
        <ele>194</ele>
        <time>2016-09-12T08:25:56Z</time>
      </trkpt>
      <trkpt lat="45.86611" lon="4.71953">
        <ele>194</ele>
        <time>2016-09-12T08:25:57Z</time>
      </trkpt>
      <trkpt lat="45.86606" lon="4.71949">
        <ele>194</ele>
        <time>2016-09-12T08:25:58Z</time>
      </trkpt>
      <trkpt lat="45.86602" lon="4.71946">
        <ele>194</ele>
        <time>2016-09-12T08:25:59Z</time>
      </trkpt>
      <trkpt lat="45.86597" lon="4.71943">
        <ele>194</ele>
        <time>2016-09-12T08:26:00Z</time>
      </trkpt>
      <trkpt lat="45.86592" lon="4.7194">
        <ele>194</ele>
        <time>2016-09-12T08:26:01Z</time>
      </trkpt>
      <trkpt lat="45.86587" lon="4.71936">
        <ele>194</ele>
        <time>2016-09-12T08:26:02Z</time>
      </trkpt>
      <trkpt lat="45.86583" lon="4.71932">
        <ele>195</ele>
        <time>2016-09-12T08:26:03Z</time>
      </trkpt>
      <trkpt lat="45.86578" lon="4.71929">
        <ele>195</ele>
        <time>2016-09-12T08:26:04Z</time>
      </trkpt>
      <trkpt lat="45.86573" lon="4.71925">
        <ele>195</ele>
        <time>2016-09-12T08:26:05Z</time>
      </trkpt>
      <trkpt lat="45.86568" lon="4.7192">
        <ele>195</ele>
        <time>2016-09-12T08:26:06Z</time>
      </trkpt>
      <trkpt lat="45.86563" lon="4.71917">
        <ele>195</ele>
        <time>2016-09-12T08:26:07Z</time>
      </trkpt>
      <trkpt lat="45.86558" lon="4.71913">
        <ele>195</ele>
        <time>2016-09-12T08:26:08Z</time>
      </trkpt>
      <trkpt lat="45.86553" lon="4.71909">
        <ele>195</ele>
        <time>2016-09-12T08:26:09Z</time>
      </trkpt>
      <trkpt lat="45.86548" lon="4.71906">
        <ele>195</ele>
        <time>2016-09-12T08:26:10Z</time>
      </trkpt>
      <trkpt lat="45.86544" lon="4.71902">
        <ele>195</ele>
        <time>2016-09-12T08:26:11Z</time>
      </trkpt>
      <trkpt lat="45.86539" lon="4.71898">
        <ele>195</ele>
        <time>2016-09-12T08:26:12Z</time>
      </trkpt>
      <trkpt lat="45.86534" lon="4.71894">
        <ele>195</ele>
        <time>2016-09-12T08:26:13Z</time>
      </trkpt>
      <trkpt lat="45.8653" lon="4.7189">
        <ele>195</ele>
        <time>2016-09-12T08:26:14Z</time>
      </trkpt>
      <trkpt lat="45.86526" lon="4.71885">
        <ele>195</ele>
        <time>2016-09-12T08:26:15Z</time>
      </trkpt>
      <trkpt lat="45.86521" lon="4.71882">
        <ele>195</ele>
        <time>2016-09-12T08:26:16Z</time>
      </trkpt>
      <trkpt lat="45.86516" lon="4.71879">
        <ele>195</ele>
        <time>2016-09-12T08:26:17Z</time>
      </trkpt>
      <trkpt lat="45.86512" lon="4.71875">
        <ele>195</ele>
        <time>2016-09-12T08:26:18Z</time>
      </trkpt>
      <trkpt lat="45.86508" lon="4.71872">
        <ele>195</ele>
        <time>2016-09-12T08:26:19Z</time>
      </trkpt>
      <trkpt lat="45.86503" lon="4.71868">
        <ele>195</ele>
        <time>2016-09-12T08:26:20Z</time>
      </trkpt>
      <trkpt lat="45.86499" lon="4.71865">
        <ele>198</ele>
        <time>2016-09-12T08:26:21Z</time>
      </trkpt>
      <trkpt lat="45.86494" lon="4.71861">
        <ele>198</ele>
        <time>2016-09-12T08:26:22Z</time>
      </trkpt>
      <trkpt lat="45.8649" lon="4.71858">
        <ele>198</ele>
        <time>2016-09-12T08:26:23Z</time>
      </trkpt>
      <trkpt lat="45.86486" lon="4.71853">
        <ele>198</ele>
        <time>2016-09-12T08:26:24Z</time>
      </trkpt>
      <trkpt lat="45.86482" lon="4.7185">
        <ele>198</ele>
        <time>2016-09-12T08:26:25Z</time>
      </trkpt>
      <trkpt lat="45.86477" lon="4.71846">
        <ele>198</ele>
        <time>2016-09-12T08:26:26Z</time>
      </trkpt>
      <trkpt lat="45.86472" lon="4.71841">
        <ele>198</ele>
        <time>2016-09-12T08:26:27Z</time>
      </trkpt>
      <trkpt lat="45.86468" lon="4.71837">
        <ele>199</ele>
        <time>2016-09-12T08:26:28Z</time>
      </trkpt>
      <trkpt lat="45.86463" lon="4.71834">
        <ele>199</ele>
        <time>2016-09-12T08:26:29Z</time>
      </trkpt>
      <trkpt lat="45.86458" lon="4.71829">
        <ele>196</ele>
        <time>2016-09-12T08:26:30Z</time>
      </trkpt>
      <trkpt lat="45.86454" lon="4.71825">
        <ele>197</ele>
        <time>2016-09-12T08:26:31Z</time>
      </trkpt>
      <trkpt lat="45.86449" lon="4.71822">
        <ele>197</ele>
        <time>2016-09-12T08:26:32Z</time>
      </trkpt>
      <trkpt lat="45.86445" lon="4.7182">
        <ele>197</ele>
        <time>2016-09-12T08:26:33Z</time>
      </trkpt>
      <trkpt lat="45.86441" lon="4.71817">
        <ele>197</ele>
        <time>2016-09-12T08:26:34Z</time>
      </trkpt>
      <trkpt lat="45.86436" lon="4.71814">
        <ele>197</ele>
        <time>2016-09-12T08:26:35Z</time>
      </trkpt>
      <trkpt lat="45.86431" lon="4.71811">
        <ele>197</ele>
        <time>2016-09-12T08:26:36Z</time>
      </trkpt>
      <trkpt lat="45.86425" lon="4.71807">
        <ele>197</ele>
        <time>2016-09-12T08:26:37Z</time>
      </trkpt>
      <trkpt lat="45.8642" lon="4.71803">
        <ele>197</ele>
        <time>2016-09-12T08:26:38Z</time>
      </trkpt>
      <trkpt lat="45.86415" lon="4.71799">
        <ele>199</ele>
        <time>2016-09-12T08:26:39Z</time>
      </trkpt>
      <trkpt lat="45.8641" lon="4.71795">
        <ele>199</ele>
        <time>2016-09-12T08:26:40Z</time>
      </trkpt>
      <trkpt lat="45.86405" lon="4.71791">
        <ele>198</ele>
        <time>2016-09-12T08:26:41Z</time>
      </trkpt>
      <trkpt lat="45.864" lon="4.71788">
        <ele>198</ele>
        <time>2016-09-12T08:26:42Z</time>
      </trkpt>
      <trkpt lat="45.86395" lon="4.71785">
        <ele>198</ele>
        <time>2016-09-12T08:26:43Z</time>
      </trkpt>
      <trkpt lat="45.8639" lon="4.71781">
        <ele>198</ele>
        <time>2016-09-12T08:26:44Z</time>
      </trkpt>
      <trkpt lat="45.86386" lon="4.71777">
        <ele>198</ele>
        <time>2016-09-12T08:26:45Z</time>
      </trkpt>
      <trkpt lat="45.86381" lon="4.71774">
        <ele>198</ele>
        <time>2016-09-12T08:26:46Z</time>
      </trkpt>
      <trkpt lat="45.86376" lon="4.7177">
        <ele>198</ele>
        <time>2016-09-12T08:26:47Z</time>
      </trkpt>
      <trkpt lat="45.86372" lon="4.71767">
        <ele>198</ele>
        <time>2016-09-12T08:26:48Z</time>
      </trkpt>
      <trkpt lat="45.86367" lon="4.71763">
        <ele>198</ele>
        <time>2016-09-12T08:26:49Z</time>
      </trkpt>
      <trkpt lat="45.86363" lon="4.7176">
        <ele>198</ele>
        <time>2016-09-12T08:26:50Z</time>
      </trkpt>
      <trkpt lat="45.86359" lon="4.71757">
        <ele>198</ele>
        <time>2016-09-12T08:26:51Z</time>
      </trkpt>
      <trkpt lat="45.86354" lon="4.71753">
        <ele>197</ele>
        <time>2016-09-12T08:26:52Z</time>
      </trkpt>
      <trkpt lat="45.86349" lon="4.7175">
        <ele>195</ele>
        <time>2016-09-12T08:26:53Z</time>
      </trkpt>
      <trkpt lat="45.86345" lon="4.71746">
        <ele>195</ele>
        <time>2016-09-12T08:26:54Z</time>
      </trkpt>
      <trkpt lat="45.8634" lon="4.71742">
        <ele>195</ele>
        <time>2016-09-12T08:26:55Z</time>
      </trkpt>
      <trkpt lat="45.86335" lon="4.71739">
        <ele>195</ele>
        <time>2016-09-12T08:26:56Z</time>
      </trkpt>
      <trkpt lat="45.8633" lon="4.71735">
        <ele>196</ele>
        <time>2016-09-12T08:26:57Z</time>
      </trkpt>
      <trkpt lat="45.86325" lon="4.71731">
        <ele>196</ele>
        <time>2016-09-12T08:26:58Z</time>
      </trkpt>
      <trkpt lat="45.8632" lon="4.71727">
        <ele>196</ele>
        <time>2016-09-12T08:26:59Z</time>
      </trkpt>
      <trkpt lat="45.86316" lon="4.71723">
        <ele>196</ele>
        <time>2016-09-12T08:27:00Z</time>
      </trkpt>
      <trkpt lat="45.86311" lon="4.71719">
        <ele>196</ele>
        <time>2016-09-12T08:27:01Z</time>
      </trkpt>
      <trkpt lat="45.86307" lon="4.71715">
        <ele>196</ele>
        <time>2016-09-12T08:27:02Z</time>
      </trkpt>
      <trkpt lat="45.86302" lon="4.71712">
        <ele>195</ele>
        <time>2016-09-12T08:27:03Z</time>
      </trkpt>
      <trkpt lat="45.86297" lon="4.71708">
        <ele>195</ele>
        <time>2016-09-12T08:27:04Z</time>
      </trkpt>
      <trkpt lat="45.86292" lon="4.71704">
        <ele>195</ele>
        <time>2016-09-12T08:27:05Z</time>
      </trkpt>
      <trkpt lat="45.86287" lon="4.71701">
        <ele>195</ele>
        <time>2016-09-12T08:27:06Z</time>
      </trkpt>
      <trkpt lat="45.86282" lon="4.71697">
        <ele>195</ele>
        <time>2016-09-12T08:27:07Z</time>
      </trkpt>
      <trkpt lat="45.86278" lon="4.71694">
        <ele>195</ele>
        <time>2016-09-12T08:27:08Z</time>
      </trkpt>
      <trkpt lat="45.86273" lon="4.71692">
        <ele>195</ele>
        <time>2016-09-12T08:27:09Z</time>
      </trkpt>
      <trkpt lat="45.86268" lon="4.71688">
        <ele>195</ele>
        <time>2016-09-12T08:27:10Z</time>
      </trkpt>
      <trkpt lat="45.86263" lon="4.71684">
        <ele>195</ele>
        <time>2016-09-12T08:27:11Z</time>
      </trkpt>
      <trkpt lat="45.86259" lon="4.71681">
        <ele>195</ele>
        <time>2016-09-12T08:27:12Z</time>
      </trkpt>
      <trkpt lat="45.86254" lon="4.71677">
        <ele>195</ele>
        <time>2016-09-12T08:27:13Z</time>
      </trkpt>
      <trkpt lat="45.8625" lon="4.71673">
        <ele>195</ele>
        <time>2016-09-12T08:27:14Z</time>
      </trkpt>
      <trkpt lat="45.86246" lon="4.71669">
        <ele>195</ele>
        <time>2016-09-12T08:27:15Z</time>
      </trkpt>
      <trkpt lat="45.86241" lon="4.71666">
        <ele>195</ele>
        <time>2016-09-12T08:27:16Z</time>
      </trkpt>
      <trkpt lat="45.86234" lon="4.71659">
        <ele>195</ele>
        <time>2016-09-12T08:27:18Z</time>
      </trkpt>
      <trkpt lat="45.8623" lon="4.71655">
        <ele>195</ele>
        <time>2016-09-12T08:27:19Z</time>
      </trkpt>
      <trkpt lat="45.86226" lon="4.71651">
        <ele>195</ele>
        <time>2016-09-12T08:27:20Z</time>
      </trkpt>
      <trkpt lat="45.86222" lon="4.71647">
        <ele>195</ele>
        <time>2016-09-12T08:27:21Z</time>
      </trkpt>
      <trkpt lat="45.86218" lon="4.71643">
        <ele>195</ele>
        <time>2016-09-12T08:27:22Z</time>
      </trkpt>
      <trkpt lat="45.86216" lon="4.71637">
        <ele>195</ele>
        <time>2016-09-12T08:27:23Z</time>
      </trkpt>
      <trkpt lat="45.86215" lon="4.71631">
        <ele>195</ele>
        <time>2016-09-12T08:27:24Z</time>
      </trkpt>
      <trkpt lat="45.86213" lon="4.71624">
        <ele>195</ele>
        <time>2016-09-12T08:27:25Z</time>
      </trkpt>
      <trkpt lat="45.86212" lon="4.71617">
        <ele>195</ele>
        <time>2016-09-12T08:27:26Z</time>
      </trkpt>
      <trkpt lat="45.8621" lon="4.71611">
        <ele>195</ele>
        <time>2016-09-12T08:27:27Z</time>
      </trkpt>
      <trkpt lat="45.86207" lon="4.71605">
        <ele>195</ele>
        <time>2016-09-12T08:27:28Z</time>
      </trkpt>
      <trkpt lat="45.86203" lon="4.716">
        <ele>195</ele>
        <time>2016-09-12T08:27:29Z</time>
      </trkpt>
      <trkpt lat="45.86198" lon="4.71596">
        <ele>195</ele>
        <time>2016-09-12T08:27:30Z</time>
      </trkpt>
      <trkpt lat="45.86194" lon="4.71593">
        <ele>195</ele>
        <time>2016-09-12T08:27:31Z</time>
      </trkpt>
      <trkpt lat="45.86189" lon="4.71588">
        <ele>195</ele>
        <time>2016-09-12T08:27:32Z</time>
      </trkpt>
      <trkpt lat="45.86185" lon="4.71583">
        <ele>195</ele>
        <time>2016-09-12T08:27:33Z</time>
      </trkpt>
      <trkpt lat="45.86182" lon="4.71577">
        <ele>195</ele>
        <time>2016-09-12T08:27:34Z</time>
      </trkpt>
      <trkpt lat="45.86179" lon="4.71571">
        <ele>195</ele>
        <time>2016-09-12T08:27:35Z</time>
      </trkpt>
      <trkpt lat="45.86175" lon="4.71565">
        <ele>195</ele>
        <time>2016-09-12T08:27:36Z</time>
      </trkpt>
      <trkpt lat="45.86172" lon="4.71559">
        <ele>195</ele>
        <time>2016-09-12T08:27:37Z</time>
      </trkpt>
      <trkpt lat="45.8617" lon="4.71553">
        <ele>195</ele>
        <time>2016-09-12T08:27:38Z</time>
      </trkpt>
      <trkpt lat="45.86166" lon="4.71548">
        <ele>196</ele>
        <time>2016-09-12T08:27:39Z</time>
      </trkpt>
      <trkpt lat="45.86163" lon="4.71543">
        <ele>196</ele>
        <time>2016-09-12T08:27:40Z</time>
      </trkpt>
      <trkpt lat="45.8616" lon="4.71537">
        <ele>195</ele>
        <time>2016-09-12T08:27:41Z</time>
      </trkpt>
      <trkpt lat="45.86157" lon="4.71531">
        <ele>195</ele>
        <time>2016-09-12T08:27:42Z</time>
      </trkpt>
      <trkpt lat="45.86154" lon="4.71526">
        <ele>195</ele>
        <time>2016-09-12T08:27:43Z</time>
      </trkpt>
      <trkpt lat="45.86151" lon="4.71521">
        <ele>195</ele>
        <time>2016-09-12T08:27:44Z</time>
      </trkpt>
      <trkpt lat="45.86147" lon="4.71516">
        <ele>195</ele>
        <time>2016-09-12T08:27:45Z</time>
      </trkpt>
      <trkpt lat="45.86142" lon="4.71505">
        <ele>195</ele>
        <time>2016-09-12T08:27:47Z</time>
      </trkpt>
      <trkpt lat="45.86139" lon="4.715">
        <ele>195</ele>
        <time>2016-09-12T08:27:48Z</time>
      </trkpt>
      <trkpt lat="45.86137" lon="4.71494">
        <ele>195</ele>
        <time>2016-09-12T08:27:49Z</time>
      </trkpt>
      <trkpt lat="45.86135" lon="4.71488">
        <ele>195</ele>
        <time>2016-09-12T08:27:50Z</time>
      </trkpt>
      <trkpt lat="45.86132" lon="4.71482">
        <ele>195</ele>
        <time>2016-09-12T08:27:51Z</time>
      </trkpt>
      <trkpt lat="45.8613" lon="4.71475">
        <ele>195</ele>
        <time>2016-09-12T08:27:52Z</time>
      </trkpt>
      <trkpt lat="45.86128" lon="4.71469">
        <ele>195</ele>
        <time>2016-09-12T08:27:53Z</time>
      </trkpt>
      <trkpt lat="45.86126" lon="4.71462">
        <ele>195</ele>
        <time>2016-09-12T08:27:54Z</time>
      </trkpt>
      <trkpt lat="45.86124" lon="4.71456">
        <ele>195</ele>
        <time>2016-09-12T08:27:55Z</time>
      </trkpt>
      <trkpt lat="45.86123" lon="4.71449">
        <ele>195</ele>
        <time>2016-09-12T08:27:56Z</time>
      </trkpt>
      <trkpt lat="45.86121" lon="4.71441">
        <ele>195</ele>
        <time>2016-09-12T08:27:57Z</time>
      </trkpt>
      <trkpt lat="45.8612" lon="4.71434">
        <ele>195</ele>
        <time>2016-09-12T08:27:58Z</time>
      </trkpt>
      <trkpt lat="45.86119" lon="4.71427">
        <ele>195</ele>
        <time>2016-09-12T08:27:59Z</time>
      </trkpt>
      <trkpt lat="45.86118" lon="4.71419">
        <ele>195</ele>
        <time>2016-09-12T08:28:00Z</time>
      </trkpt>
      <trkpt lat="45.86117" lon="4.71411">
        <ele>196</ele>
        <time>2016-09-12T08:28:01Z</time>
      </trkpt>
      <trkpt lat="45.86117" lon="4.71403">
        <ele>196</ele>
        <time>2016-09-12T08:28:02Z</time>
      </trkpt>
      <trkpt lat="45.86116" lon="4.71394">
        <ele>196</ele>
        <time>2016-09-12T08:28:03Z</time>
      </trkpt>
      <trkpt lat="45.86115" lon="4.71386">
        <ele>196</ele>
        <time>2016-09-12T08:28:04Z</time>
      </trkpt>
      <trkpt lat="45.86113" lon="4.71378">
        <ele>196</ele>
        <time>2016-09-12T08:28:05Z</time>
      </trkpt>
      <trkpt lat="45.86112" lon="4.71371">
        <ele>196</ele>
        <time>2016-09-12T08:28:06Z</time>
      </trkpt>
      <trkpt lat="45.86111" lon="4.71364">
        <ele>196</ele>
        <time>2016-09-12T08:28:07Z</time>
      </trkpt>
      <trkpt lat="45.8611" lon="4.71357">
        <ele>196</ele>
        <time>2016-09-12T08:28:08Z</time>
      </trkpt>
      <trkpt lat="45.86109" lon="4.7135">
        <ele>196</ele>
        <time>2016-09-12T08:28:09Z</time>
      </trkpt>
      <trkpt lat="45.8611" lon="4.71344">
        <ele>196</ele>
        <time>2016-09-12T08:28:10Z</time>
      </trkpt>
      <trkpt lat="45.86109" lon="4.71336">
        <ele>196</ele>
        <time>2016-09-12T08:28:11Z</time>
      </trkpt>
      <trkpt lat="45.86108" lon="4.71329">
        <ele>196</ele>
        <time>2016-09-12T08:28:12Z</time>
      </trkpt>
      <trkpt lat="45.86106" lon="4.71321">
        <ele>196</ele>
        <time>2016-09-12T08:28:13Z</time>
      </trkpt>
      <trkpt lat="45.86105" lon="4.71314">
        <ele>196</ele>
        <time>2016-09-12T08:28:14Z</time>
      </trkpt>
      <trkpt lat="45.86103" lon="4.71307">
        <ele>197</ele>
        <time>2016-09-12T08:28:15Z</time>
      </trkpt>
      <trkpt lat="45.86102" lon="4.713">
        <ele>197</ele>
        <time>2016-09-12T08:28:16Z</time>
      </trkpt>
      <trkpt lat="45.86101" lon="4.71293">
        <ele>197</ele>
        <time>2016-09-12T08:28:17Z</time>
      </trkpt>
      <trkpt lat="45.861" lon="4.71286">
        <ele>197</ele>
        <time>2016-09-12T08:28:18Z</time>
      </trkpt>
      <trkpt lat="45.86098" lon="4.7128">
        <ele>197</ele>
        <time>2016-09-12T08:28:19Z</time>
      </trkpt>
      <trkpt lat="45.86095" lon="4.71274">
        <ele>197</ele>
        <time>2016-09-12T08:28:20Z</time>
      </trkpt>
      <trkpt lat="45.86092" lon="4.71269">
        <ele>197</ele>
        <time>2016-09-12T08:28:21Z</time>
      </trkpt>
      <trkpt lat="45.86089" lon="4.71264">
        <ele>197</ele>
        <time>2016-09-12T08:28:22Z</time>
      </trkpt>
      <trkpt lat="45.86084" lon="4.71255">
        <ele>198</ele>
        <time>2016-09-12T08:28:24Z</time>
      </trkpt>
      <trkpt lat="45.86082" lon="4.7125">
        <ele>198</ele>
        <time>2016-09-12T08:28:25Z</time>
      </trkpt>
      <trkpt lat="45.86081" lon="4.71243">
        <ele>198</ele>
        <time>2016-09-12T08:28:26Z</time>
      </trkpt>
      <trkpt lat="45.86081" lon="4.71236">
        <ele>198</ele>
        <time>2016-09-12T08:28:27Z</time>
      </trkpt>
      <trkpt lat="45.86082" lon="4.71228">
        <ele>198</ele>
        <time>2016-09-12T08:28:28Z</time>
      </trkpt>
      <trkpt lat="45.86083" lon="4.7122">
        <ele>198</ele>
        <time>2016-09-12T08:28:29Z</time>
      </trkpt>
      <trkpt lat="45.86085" lon="4.71212">
        <ele>197</ele>
        <time>2016-09-12T08:28:30Z</time>
      </trkpt>
      <trkpt lat="45.86087" lon="4.71204">
        <ele>197</ele>
        <time>2016-09-12T08:28:31Z</time>
      </trkpt>
      <trkpt lat="45.86088" lon="4.71197">
        <ele>197</ele>
        <time>2016-09-12T08:28:32Z</time>
      </trkpt>
      <trkpt lat="45.8609" lon="4.71189">
        <ele>197</ele>
        <time>2016-09-12T08:28:33Z</time>
      </trkpt>
      <trkpt lat="45.8609" lon="4.71182">
        <ele>197</ele>
        <time>2016-09-12T08:28:34Z</time>
      </trkpt>
      <trkpt lat="45.8609" lon="4.71173">
        <ele>198</ele>
        <time>2016-09-12T08:28:35Z</time>
      </trkpt>
      <trkpt lat="45.86091" lon="4.71165">
        <ele>197</ele>
        <time>2016-09-12T08:28:36Z</time>
      </trkpt>
      <trkpt lat="45.86092" lon="4.71158">
        <ele>197</ele>
        <time>2016-09-12T08:28:37Z</time>
      </trkpt>
      <trkpt lat="45.86091" lon="4.71149">
        <ele>197</ele>
        <time>2016-09-12T08:28:38Z</time>
      </trkpt>
      <trkpt lat="45.86088" lon="4.71142">
        <ele>197</ele>
        <time>2016-09-12T08:28:39Z</time>
      </trkpt>
      <trkpt lat="45.86085" lon="4.71135">
        <ele>197</ele>
        <time>2016-09-12T08:28:40Z</time>
      </trkpt>
      <trkpt lat="45.86082" lon="4.7113">
        <ele>197</ele>
        <time>2016-09-12T08:28:41Z</time>
      </trkpt>
      <trkpt lat="45.86078" lon="4.71125">
        <ele>197</ele>
        <time>2016-09-12T08:28:42Z</time>
      </trkpt>
      <trkpt lat="45.86074" lon="4.71122">
        <ele>197</ele>
        <time>2016-09-12T08:28:43Z</time>
      </trkpt>
      <trkpt lat="45.86068" lon="4.71119">
        <ele>197</ele>
        <time>2016-09-12T08:28:44Z</time>
      </trkpt>
      <trkpt lat="45.86064" lon="4.71116">
        <ele>197</ele>
        <time>2016-09-12T08:28:45Z</time>
      </trkpt>
      <trkpt lat="45.8606" lon="4.71112">
        <ele>197</ele>
        <time>2016-09-12T08:28:46Z</time>
      </trkpt>
      <trkpt lat="45.86056" lon="4.71108">
        <ele>197</ele>
        <time>2016-09-12T08:28:47Z</time>
      </trkpt>
      <trkpt lat="45.86052" lon="4.71103">
        <ele>197</ele>
        <time>2016-09-12T08:28:48Z</time>
      </trkpt>
      <trkpt lat="45.86048" lon="4.71098">
        <ele>197</ele>
        <time>2016-09-12T08:28:49Z</time>
      </trkpt>
      <trkpt lat="45.86045" lon="4.71092">
        <ele>197</ele>
        <time>2016-09-12T08:28:50Z</time>
      </trkpt>
      <trkpt lat="45.86042" lon="4.71086">
        <ele>197</ele>
        <time>2016-09-12T08:28:51Z</time>
      </trkpt>
      <trkpt lat="45.86039" lon="4.7108">
        <ele>197</ele>
        <time>2016-09-12T08:28:52Z</time>
      </trkpt>
      <trkpt lat="45.86037" lon="4.71073">
        <ele>197</ele>
        <time>2016-09-12T08:28:53Z</time>
      </trkpt>
      <trkpt lat="45.86036" lon="4.71066">
        <ele>197</ele>
        <time>2016-09-12T08:28:54Z</time>
      </trkpt>
      <trkpt lat="45.86034" lon="4.71059">
        <ele>197</ele>
        <time>2016-09-12T08:28:55Z</time>
      </trkpt>
      <trkpt lat="45.86033" lon="4.71052">
        <ele>197</ele>
        <time>2016-09-12T08:28:56Z</time>
      </trkpt>
      <trkpt lat="45.86032" lon="4.71045">
        <ele>197</ele>
        <time>2016-09-12T08:28:57Z</time>
      </trkpt>
      <trkpt lat="45.86031" lon="4.71039">
        <ele>197</ele>
        <time>2016-09-12T08:28:58Z</time>
      </trkpt>
      <trkpt lat="45.86029" lon="4.71033">
        <ele>197</ele>
        <time>2016-09-12T08:28:59Z</time>
      </trkpt>
      <trkpt lat="45.86027" lon="4.71027">
        <ele>197</ele>
        <time>2016-09-12T08:29:00Z</time>
      </trkpt>
      <trkpt lat="45.86023" lon="4.71021">
        <ele>197</ele>
        <time>2016-09-12T08:29:01Z</time>
      </trkpt>
      <trkpt lat="45.8602" lon="4.71016">
        <ele>197</ele>
        <time>2016-09-12T08:29:02Z</time>
      </trkpt>
      <trkpt lat="45.86017" lon="4.71011">
        <ele>197</ele>
        <time>2016-09-12T08:29:03Z</time>
      </trkpt>
      <trkpt lat="45.86014" lon="4.71006">
        <ele>197</ele>
        <time>2016-09-12T08:29:04Z</time>
      </trkpt>
      <trkpt lat="45.8601" lon="4.71002">
        <ele>197</ele>
        <time>2016-09-12T08:29:05Z</time>
      </trkpt>
      <trkpt lat="45.86006" lon="4.70997">
        <ele>197</ele>
        <time>2016-09-12T08:29:06Z</time>
      </trkpt>
      <trkpt lat="45.86002" lon="4.70993">
        <ele>197</ele>
        <time>2016-09-12T08:29:07Z</time>
      </trkpt>
      <trkpt lat="45.85998" lon="4.7099">
        <ele>197</ele>
        <time>2016-09-12T08:29:08Z</time>
      </trkpt>
      <trkpt lat="45.85994" lon="4.70986">
        <ele>197</ele>
        <time>2016-09-12T08:29:09Z</time>
      </trkpt>
      <trkpt lat="45.8599" lon="4.70983">
        <ele>197</ele>
        <time>2016-09-12T08:29:10Z</time>
      </trkpt>
      <trkpt lat="45.85986" lon="4.7098">
        <ele>197</ele>
        <time>2016-09-12T08:29:11Z</time>
      </trkpt>
      <trkpt lat="45.85981" lon="4.70978">
        <ele>197</ele>
        <time>2016-09-12T08:29:12Z</time>
      </trkpt>
      <trkpt lat="45.85976" lon="4.70976">
        <ele>197</ele>
        <time>2016-09-12T08:29:13Z</time>
      </trkpt>
      <trkpt lat="45.85971" lon="4.70974">
        <ele>197</ele>
        <time>2016-09-12T08:29:14Z</time>
      </trkpt>
      <trkpt lat="45.85966" lon="4.70972">
        <ele>197</ele>
        <time>2016-09-12T08:29:15Z</time>
      </trkpt>
      <trkpt lat="45.85961" lon="4.70971">
        <ele>197</ele>
        <time>2016-09-12T08:29:16Z</time>
      </trkpt>
      <trkpt lat="45.85955" lon="4.7097">
        <ele>197</ele>
        <time>2016-09-12T08:29:17Z</time>
      </trkpt>
      <trkpt lat="45.8595" lon="4.70969">
        <ele>197</ele>
        <time>2016-09-12T08:29:18Z</time>
      </trkpt>
      <trkpt lat="45.85945" lon="4.70968">
        <ele>197</ele>
        <time>2016-09-12T08:29:19Z</time>
      </trkpt>
      <trkpt lat="45.85937" lon="4.70963">
        <ele>197</ele>
        <time>2016-09-12T08:29:21Z</time>
      </trkpt>
      <trkpt lat="45.85935" lon="4.70959">
        <ele>197</ele>
        <time>2016-09-12T08:29:22Z</time>
      </trkpt>
      <trkpt lat="45.85936" lon="4.70952">
        <ele>197</ele>
        <time>2016-09-12T08:29:23Z</time>
      </trkpt>
      <trkpt lat="45.85937" lon="4.70946">
        <ele>197</ele>
        <time>2016-09-12T08:29:24Z</time>
      </trkpt>
      <trkpt lat="45.8594" lon="4.70939">
        <ele>197</ele>
        <time>2016-09-12T08:29:25Z</time>
      </trkpt>
      <trkpt lat="45.85943" lon="4.70932">
        <ele>197</ele>
        <time>2016-09-12T08:29:26Z</time>
      </trkpt>
      <trkpt lat="45.85945" lon="4.70925">
        <ele>197</ele>
        <time>2016-09-12T08:29:27Z</time>
      </trkpt>
      <trkpt lat="45.85947" lon="4.70917">
        <ele>197</ele>
        <time>2016-09-12T08:29:28Z</time>
      </trkpt>
      <trkpt lat="45.8595" lon="4.70909">
        <ele>197</ele>
        <time>2016-09-12T08:29:29Z</time>
      </trkpt>
      <trkpt lat="45.85951" lon="4.70902">
        <ele>197</ele>
        <time>2016-09-12T08:29:30Z</time>
      </trkpt>
      <trkpt lat="45.85953" lon="4.70894">
        <ele>197</ele>
        <time>2016-09-12T08:29:31Z</time>
      </trkpt>
      <trkpt lat="45.85955" lon="4.70886">
        <ele>197</ele>
        <time>2016-09-12T08:29:32Z</time>
      </trkpt>
      <trkpt lat="45.85958" lon="4.70879">
        <ele>197</ele>
        <time>2016-09-12T08:29:33Z</time>
      </trkpt>
      <trkpt lat="45.85959" lon="4.70871">
        <ele>196</ele>
        <time>2016-09-12T08:29:34Z</time>
      </trkpt>
      <trkpt lat="45.8596" lon="4.70863">
        <ele>196</ele>
        <time>2016-09-12T08:29:35Z</time>
      </trkpt>
      <trkpt lat="45.85961" lon="4.70856">
        <ele>196</ele>
        <time>2016-09-12T08:29:36Z</time>
      </trkpt>
      <trkpt lat="45.85962" lon="4.70848">
        <ele>196</ele>
        <time>2016-09-12T08:29:37Z</time>
      </trkpt>
      <trkpt lat="45.85963" lon="4.70841">
        <ele>196</ele>
        <time>2016-09-12T08:29:38Z</time>
      </trkpt>
      <trkpt lat="45.85963" lon="4.70834">
        <ele>196</ele>
        <time>2016-09-12T08:29:39Z</time>
      </trkpt>
      <trkpt lat="45.85962" lon="4.70826">
        <ele>196</ele>
        <time>2016-09-12T08:29:40Z</time>
      </trkpt>
      <trkpt lat="45.8596" lon="4.70819">
        <ele>195</ele>
        <time>2016-09-12T08:29:41Z</time>
      </trkpt>
      <trkpt lat="45.85958" lon="4.70812">
        <ele>195</ele>
        <time>2016-09-12T08:29:42Z</time>
      </trkpt>
      <trkpt lat="45.85957" lon="4.70806">
        <ele>195</ele>
        <time>2016-09-12T08:29:43Z</time>
      </trkpt>
      <trkpt lat="45.85957" lon="4.70798">
        <ele>195</ele>
        <time>2016-09-12T08:29:44Z</time>
      </trkpt>
      <trkpt lat="45.85957" lon="4.7079">
        <ele>195</ele>
        <time>2016-09-12T08:29:45Z</time>
      </trkpt>
      <trkpt lat="45.85958" lon="4.70782">
        <ele>195</ele>
        <time>2016-09-12T08:29:46Z</time>
      </trkpt>
      <trkpt lat="45.85958" lon="4.70774">
        <ele>195</ele>
        <time>2016-09-12T08:29:47Z</time>
      </trkpt>
      <trkpt lat="45.85959" lon="4.70766">
        <ele>195</ele>
        <time>2016-09-12T08:29:48Z</time>
      </trkpt>
      <trkpt lat="45.85959" lon="4.70758">
        <ele>195</ele>
        <time>2016-09-12T08:29:49Z</time>
      </trkpt>
      <trkpt lat="45.85959" lon="4.7075">
        <ele>194</ele>
        <time>2016-09-12T08:29:50Z</time>
      </trkpt>
      <trkpt lat="45.8596" lon="4.70741">
        <ele>194</ele>
        <time>2016-09-12T08:29:51Z</time>
      </trkpt>
      <trkpt lat="45.85961" lon="4.70733">
        <ele>194</ele>
        <time>2016-09-12T08:29:52Z</time>
      </trkpt>
      <trkpt lat="45.85963" lon="4.70723">
        <ele>194</ele>
        <time>2016-09-12T08:29:53Z</time>
      </trkpt>
      <trkpt lat="45.85963" lon="4.70715">
        <ele>194</ele>
        <time>2016-09-12T08:29:54Z</time>
      </trkpt>
      <trkpt lat="45.85965" lon="4.70706">
        <ele>194</ele>
        <time>2016-09-12T08:29:55Z</time>
      </trkpt>
      <trkpt lat="45.85966" lon="4.70698">
        <ele>194</ele>
        <time>2016-09-12T08:29:56Z</time>
      </trkpt>
      <trkpt lat="45.85966" lon="4.7069">
        <ele>194</ele>
        <time>2016-09-12T08:29:57Z</time>
      </trkpt>
      <trkpt lat="45.85964" lon="4.70682">
        <ele>194</ele>
        <time>2016-09-12T08:29:58Z</time>
      </trkpt>
      <trkpt lat="45.85961" lon="4.70675">
        <ele>194</ele>
        <time>2016-09-12T08:29:59Z</time>
      </trkpt>
      <trkpt lat="45.85958" lon="4.70668">
        <ele>194</ele>
        <time>2016-09-12T08:30:00Z</time>
      </trkpt>
      <trkpt lat="45.85954" lon="4.70662">
        <ele>194</ele>
        <time>2016-09-12T08:30:01Z</time>
      </trkpt>
      <trkpt lat="45.8595" lon="4.70656">
        <ele>194</ele>
        <time>2016-09-12T08:30:02Z</time>
      </trkpt>
      <trkpt lat="45.85947" lon="4.7065">
        <ele>194</ele>
        <time>2016-09-12T08:30:03Z</time>
      </trkpt>
      <trkpt lat="45.85943" lon="4.70644">
        <ele>194</ele>
        <time>2016-09-12T08:30:04Z</time>
      </trkpt>
      <trkpt lat="45.85939" lon="4.70639">
        <ele>194</ele>
        <time>2016-09-12T08:30:05Z</time>
      </trkpt>
      <trkpt lat="45.85936" lon="4.70633">
        <ele>194</ele>
        <time>2016-09-12T08:30:06Z</time>
      </trkpt>
      <trkpt lat="45.85933" lon="4.70627">
        <ele>194</ele>
        <time>2016-09-12T08:30:07Z</time>
      </trkpt>
      <trkpt lat="45.8593" lon="4.70622">
        <ele>194</ele>
        <time>2016-09-12T08:30:08Z</time>
      </trkpt>
      <trkpt lat="45.85927" lon="4.70617">
        <ele>194</ele>
        <time>2016-09-12T08:30:09Z</time>
      </trkpt>
      <trkpt lat="45.85923" lon="4.70611">
        <ele>194</ele>
        <time>2016-09-12T08:30:10Z</time>
      </trkpt>
      <trkpt lat="45.85919" lon="4.70606">
        <ele>194</ele>
        <time>2016-09-12T08:30:11Z</time>
      </trkpt>
      <trkpt lat="45.85915" lon="4.70601">
        <ele>195</ele>
        <time>2016-09-12T08:30:12Z</time>
      </trkpt>
      <trkpt lat="45.85912" lon="4.70595">
        <ele>195</ele>
        <time>2016-09-12T08:30:13Z</time>
      </trkpt>
      <trkpt lat="45.85907" lon="4.70589">
        <ele>195</ele>
        <time>2016-09-12T08:30:14Z</time>
      </trkpt>
      <trkpt lat="45.85903" lon="4.70584">
        <ele>195</ele>
        <time>2016-09-12T08:30:15Z</time>
      </trkpt>
      <trkpt lat="45.85898" lon="4.7058">
        <ele>195</ele>
        <time>2016-09-12T08:30:16Z</time>
      </trkpt>
      <trkpt lat="45.85893" lon="4.70577">
        <ele>195</ele>
        <time>2016-09-12T08:30:17Z</time>
      </trkpt>
      <trkpt lat="45.85887" lon="4.70576">
        <ele>195</ele>
        <time>2016-09-12T08:30:18Z</time>
      </trkpt>
      <trkpt lat="45.85882" lon="4.70575">
        <ele>195</ele>
        <time>2016-09-12T08:30:19Z</time>
      </trkpt>
      <trkpt lat="45.85877" lon="4.70574">
        <ele>195</ele>
        <time>2016-09-12T08:30:20Z</time>
      </trkpt>
      <trkpt lat="45.85871" lon="4.70573">
        <ele>195</ele>
        <time>2016-09-12T08:30:21Z</time>
      </trkpt>
      <trkpt lat="45.85866" lon="4.70571">
        <ele>195</ele>
        <time>2016-09-12T08:30:22Z</time>
      </trkpt>
      <trkpt lat="45.8586" lon="4.7057">
        <ele>195</ele>
        <time>2016-09-12T08:30:23Z</time>
      </trkpt>
      <trkpt lat="45.85855" lon="4.70568">
        <ele>195</ele>
        <time>2016-09-12T08:30:24Z</time>
      </trkpt>
      <trkpt lat="45.8585" lon="4.70566">
        <ele>195</ele>
        <time>2016-09-12T08:30:25Z</time>
      </trkpt>
      <trkpt lat="45.85846" lon="4.70564">
        <ele>195</ele>
        <time>2016-09-12T08:30:26Z</time>
      </trkpt>
      <trkpt lat="45.85841" lon="4.70562">
        <ele>195</ele>
        <time>2016-09-12T08:30:27Z</time>
      </trkpt>
      <trkpt lat="45.85836" lon="4.7056">
        <ele>195</ele>
        <time>2016-09-12T08:30:28Z</time>
      </trkpt>
      <trkpt lat="45.85831" lon="4.70558">
        <ele>195</ele>
        <time>2016-09-12T08:30:29Z</time>
      </trkpt>
      <trkpt lat="45.85826" lon="4.70556">
        <ele>195</ele>
        <time>2016-09-12T08:30:30Z</time>
      </trkpt>
      <trkpt lat="45.85821" lon="4.70554">
        <ele>195</ele>
        <time>2016-09-12T08:30:31Z</time>
      </trkpt>
      <trkpt lat="45.85816" lon="4.70552">
        <ele>195</ele>
        <time>2016-09-12T08:30:32Z</time>
      </trkpt>
      <trkpt lat="45.85812" lon="4.7055">
        <ele>195</ele>
        <time>2016-09-12T08:30:33Z</time>
      </trkpt>
      <trkpt lat="45.85807" lon="4.70548">
        <ele>195</ele>
        <time>2016-09-12T08:30:34Z</time>
      </trkpt>
      <trkpt lat="45.85803" lon="4.70546">
        <ele>195</ele>
        <time>2016-09-12T08:30:35Z</time>
      </trkpt>
      <trkpt lat="45.85798" lon="4.70544">
        <ele>195</ele>
        <time>2016-09-12T08:30:36Z</time>
      </trkpt>
      <trkpt lat="45.85793" lon="4.70541">
        <ele>195</ele>
        <time>2016-09-12T08:30:37Z</time>
      </trkpt>
      <trkpt lat="45.85788" lon="4.70538">
        <ele>196</ele>
        <time>2016-09-12T08:30:38Z</time>
      </trkpt>
      <trkpt lat="45.85784" lon="4.70535">
        <ele>196</ele>
        <time>2016-09-12T08:30:39Z</time>
      </trkpt>
      <trkpt lat="45.85779" lon="4.70533">
        <ele>196</ele>
        <time>2016-09-12T08:30:40Z</time>
      </trkpt>
      <trkpt lat="45.85774" lon="4.7053">
        <ele>196</ele>
        <time>2016-09-12T08:30:41Z</time>
      </trkpt>
      <trkpt lat="45.85769" lon="4.70528">
        <ele>196</ele>
        <time>2016-09-12T08:30:42Z</time>
      </trkpt>
      <trkpt lat="45.85765" lon="4.70524">
        <ele>196</ele>
        <time>2016-09-12T08:30:43Z</time>
      </trkpt>
      <trkpt lat="45.85761" lon="4.7052">
        <ele>196</ele>
        <time>2016-09-12T08:30:44Z</time>
      </trkpt>
      <trkpt lat="45.85754" lon="4.70515">
        <ele>196</ele>
        <time>2016-09-12T08:30:46Z</time>
      </trkpt>
      <trkpt lat="45.8575" lon="4.70512">
        <ele>196</ele>
        <time>2016-09-12T08:30:47Z</time>
      </trkpt>
      <trkpt lat="45.85743" lon="4.70506">
        <ele>196</ele>
        <time>2016-09-12T08:30:50Z</time>
      </trkpt>
      <trkpt lat="45.85741" lon="4.70504">
        <ele>196</ele>
        <time>2016-09-12T08:30:51Z</time>
      </trkpt>
      <trkpt lat="45.85736" lon="4.70494">
        <ele>196</ele>
        <time>2016-09-12T08:30:54Z</time>
      </trkpt>
      <trkpt lat="45.85734" lon="4.7049">
        <ele>196</ele>
        <time>2016-09-12T08:30:55Z</time>
      </trkpt>
      <trkpt lat="45.85729" lon="4.70482">
        <ele>196</ele>
        <time>2016-09-12T08:30:57Z</time>
      </trkpt>
      <trkpt lat="45.85728" lon="4.70476">
        <ele>196</ele>
        <time>2016-09-12T08:30:58Z</time>
      </trkpt>
      <trkpt lat="45.85727" lon="4.7047">
        <ele>196</ele>
        <time>2016-09-12T08:30:59Z</time>
      </trkpt>
      <trkpt lat="45.85726" lon="4.70463">
        <ele>196</ele>
        <time>2016-09-12T08:31:00Z</time>
      </trkpt>
      <trkpt lat="45.85725" lon="4.70455">
        <ele>196</ele>
        <time>2016-09-12T08:31:01Z</time>
      </trkpt>
      <trkpt lat="45.85724" lon="4.70447">
        <ele>196</ele>
        <time>2016-09-12T08:31:02Z</time>
      </trkpt>
      <trkpt lat="45.85722" lon="4.70439">
        <ele>196</ele>
        <time>2016-09-12T08:31:03Z</time>
      </trkpt>
      <trkpt lat="45.8572" lon="4.7043">
        <ele>196</ele>
        <time>2016-09-12T08:31:04Z</time>
      </trkpt>
      <trkpt lat="45.85719" lon="4.70422">
        <ele>196</ele>
        <time>2016-09-12T08:31:05Z</time>
      </trkpt>
      <trkpt lat="45.85718" lon="4.70413">
        <ele>196</ele>
        <time>2016-09-12T08:31:06Z</time>
      </trkpt>
      <trkpt lat="45.85716" lon="4.70405">
        <ele>196</ele>
        <time>2016-09-12T08:31:07Z</time>
      </trkpt>
      <trkpt lat="45.85715" lon="4.70396">
        <ele>196</ele>
        <time>2016-09-12T08:31:08Z</time>
      </trkpt>
      <trkpt lat="45.85714" lon="4.70387">
        <ele>196</ele>
        <time>2016-09-12T08:31:09Z</time>
      </trkpt>
      <trkpt lat="45.85713" lon="4.70378">
        <ele>196</ele>
        <time>2016-09-12T08:31:10Z</time>
      </trkpt>
      <trkpt lat="45.85713" lon="4.70369">
        <ele>196</ele>
        <time>2016-09-12T08:31:11Z</time>
      </trkpt>
      <trkpt lat="45.85712" lon="4.7036">
        <ele>196</ele>
        <time>2016-09-12T08:31:12Z</time>
      </trkpt>
      <trkpt lat="45.85711" lon="4.70351">
        <ele>196</ele>
        <time>2016-09-12T08:31:13Z</time>
      </trkpt>
      <trkpt lat="45.8571" lon="4.70341">
        <ele>196</ele>
        <time>2016-09-12T08:31:14Z</time>
      </trkpt>
      <trkpt lat="45.85709" lon="4.70332">
        <ele>197</ele>
        <time>2016-09-12T08:31:15Z</time>
      </trkpt>
      <trkpt lat="45.85708" lon="4.70324">
        <ele>197</ele>
        <time>2016-09-12T08:31:16Z</time>
      </trkpt>
      <trkpt lat="45.85707" lon="4.70316">
        <ele>197</ele>
        <time>2016-09-12T08:31:17Z</time>
      </trkpt>
      <trkpt lat="45.85706" lon="4.70307">
        <ele>197</ele>
        <time>2016-09-12T08:31:18Z</time>
      </trkpt>
      <trkpt lat="45.85706" lon="4.70298">
        <ele>197</ele>
        <time>2016-09-12T08:31:19Z</time>
      </trkpt>
      <trkpt lat="45.85705" lon="4.7029">
        <ele>197</ele>
        <time>2016-09-12T08:31:20Z</time>
      </trkpt>
      <trkpt lat="45.85704" lon="4.70282">
        <ele>197</ele>
        <time>2016-09-12T08:31:21Z</time>
      </trkpt>
      <trkpt lat="45.85703" lon="4.70274">
        <ele>197</ele>
        <time>2016-09-12T08:31:22Z</time>
      </trkpt>
      <trkpt lat="45.85703" lon="4.70266">
        <ele>197</ele>
        <time>2016-09-12T08:31:23Z</time>
      </trkpt>
      <trkpt lat="45.85702" lon="4.70259">
        <ele>197</ele>
        <time>2016-09-12T08:31:24Z</time>
      </trkpt>
      <trkpt lat="45.85701" lon="4.70252">
        <ele>197</ele>
        <time>2016-09-12T08:31:25Z</time>
      </trkpt>
      <trkpt lat="45.857" lon="4.70245">
        <ele>197</ele>
        <time>2016-09-12T08:31:26Z</time>
      </trkpt>
      <trkpt lat="45.85699" lon="4.70238">
        <ele>197</ele>
        <time>2016-09-12T08:31:27Z</time>
      </trkpt>
      <trkpt lat="45.85697" lon="4.7023">
        <ele>197</ele>
        <time>2016-09-12T08:31:28Z</time>
      </trkpt>
      <trkpt lat="45.85695" lon="4.70223">
        <ele>197</ele>
        <time>2016-09-12T08:31:29Z</time>
      </trkpt>
      <trkpt lat="45.85694" lon="4.70215">
        <ele>197</ele>
        <time>2016-09-12T08:31:30Z</time>
      </trkpt>
      <trkpt lat="45.85692" lon="4.70208">
        <ele>197</ele>
        <time>2016-09-12T08:31:31Z</time>
      </trkpt>
      <trkpt lat="45.8569" lon="4.70201">
        <ele>197</ele>
        <time>2016-09-12T08:31:32Z</time>
      </trkpt>
      <trkpt lat="45.85688" lon="4.70189">
        <ele>197</ele>
        <time>2016-09-12T08:31:34Z</time>
      </trkpt>
      <trkpt lat="45.85687" lon="4.70183">
        <ele>197</ele>
        <time>2016-09-12T08:31:35Z</time>
      </trkpt>
      <trkpt lat="45.85684" lon="4.70171">
        <ele>197</ele>
        <time>2016-09-12T08:31:37Z</time>
      </trkpt>
      <trkpt lat="45.85683" lon="4.70166">
        <ele>197</ele>
        <time>2016-09-12T08:31:38Z</time>
      </trkpt>
      <trkpt lat="45.8568" lon="4.70155">
        <ele>197</ele>
        <time>2016-09-12T08:31:40Z</time>
      </trkpt>
      <trkpt lat="45.85679" lon="4.70149">
        <ele>197</ele>
        <time>2016-09-12T08:31:41Z</time>
      </trkpt>
      <trkpt lat="45.85678" lon="4.70137">
        <ele>197</ele>
        <time>2016-09-12T08:31:43Z</time>
      </trkpt>
      <trkpt lat="45.85677" lon="4.70132">
        <ele>197</ele>
        <time>2016-09-12T08:31:44Z</time>
      </trkpt>
      <trkpt lat="45.85678" lon="4.70122">
        <ele>197</ele>
        <time>2016-09-12T08:31:46Z</time>
      </trkpt>
      <trkpt lat="45.85677" lon="4.70117">
        <ele>197</ele>
        <time>2016-09-12T08:31:47Z</time>
      </trkpt>
      <trkpt lat="45.85677" lon="4.70105">
        <ele>196</ele>
        <time>2016-09-12T08:31:50Z</time>
      </trkpt>
      <trkpt lat="45.85677" lon="4.70101">
        <ele>196</ele>
        <time>2016-09-12T08:31:51Z</time>
      </trkpt>
      <trkpt lat="45.8568" lon="4.7009">
        <ele>196</ele>
        <time>2016-09-12T08:32:44Z</time>
      </trkpt>
      <trkpt lat="45.85681" lon="4.70087">
        <ele>196</ele>
        <time>2016-09-12T08:32:45Z</time>
      </trkpt>
      <trkpt lat="45.85682" lon="4.70079">
        <ele>196</ele>
        <time>2016-09-12T08:32:46Z</time>
      </trkpt>
      <trkpt lat="45.85684" lon="4.70072">
        <ele>196</ele>
        <time>2016-09-12T08:32:47Z</time>
      </trkpt>
      <trkpt lat="45.85687" lon="4.7006">
        <ele>195</ele>
        <time>2016-09-12T08:32:49Z</time>
      </trkpt>
      <trkpt lat="45.85689" lon="4.70053">
        <ele>195</ele>
        <time>2016-09-12T08:32:50Z</time>
      </trkpt>
      <trkpt lat="45.8569" lon="4.70046">
        <ele>195</ele>
        <time>2016-09-12T08:32:51Z</time>
      </trkpt>
      <trkpt lat="45.85692" lon="4.70038">
        <ele>195</ele>
        <time>2016-09-12T08:32:52Z</time>
      </trkpt>
      <trkpt lat="45.85693" lon="4.7003">
        <ele>195</ele>
        <time>2016-09-12T08:32:53Z</time>
      </trkpt>
      <trkpt lat="45.85695" lon="4.70022">
        <ele>195</ele>
        <time>2016-09-12T08:32:54Z</time>
      </trkpt>
      <trkpt lat="45.85695" lon="4.70014">
        <ele>195</ele>
        <time>2016-09-12T08:32:55Z</time>
      </trkpt>
      <trkpt lat="45.85696" lon="4.70005">
        <ele>195</ele>
        <time>2016-09-12T08:32:56Z</time>
      </trkpt>
      <trkpt lat="45.85695" lon="4.69996">
        <ele>195</ele>
        <time>2016-09-12T08:32:57Z</time>
      </trkpt>
      <trkpt lat="45.85694" lon="4.69988">
        <ele>195</ele>
        <time>2016-09-12T08:32:58Z</time>
      </trkpt>
      <trkpt lat="45.85693" lon="4.69979">
        <ele>195</ele>
        <time>2016-09-12T08:32:59Z</time>
      </trkpt>
      <trkpt lat="45.85692" lon="4.69971">
        <ele>195</ele>
        <time>2016-09-12T08:33:00Z</time>
      </trkpt>
      <trkpt lat="45.85689" lon="4.69962">
        <ele>195</ele>
        <time>2016-09-12T08:33:01Z</time>
      </trkpt>
      <trkpt lat="45.85687" lon="4.69954">
        <ele>195</ele>
        <time>2016-09-12T08:33:02Z</time>
      </trkpt>
      <trkpt lat="45.85685" lon="4.69945">
        <ele>195</ele>
        <time>2016-09-12T08:33:03Z</time>
      </trkpt>
      <trkpt lat="45.85682" lon="4.69936">
        <ele>195</ele>
        <time>2016-09-12T08:33:04Z</time>
      </trkpt>
      <trkpt lat="45.8568" lon="4.69928">
        <ele>195</ele>
        <time>2016-09-12T08:33:05Z</time>
      </trkpt>
      <trkpt lat="45.85677" lon="4.6992">
        <ele>195</ele>
        <time>2016-09-12T08:33:06Z</time>
      </trkpt>
      <trkpt lat="45.85676" lon="4.69912">
        <ele>195</ele>
        <time>2016-09-12T08:33:07Z</time>
      </trkpt>
      <trkpt lat="45.85673" lon="4.69904">
        <ele>195</ele>
        <time>2016-09-12T08:33:08Z</time>
      </trkpt>
      <trkpt lat="45.85671" lon="4.69896">
        <ele>195</ele>
        <time>2016-09-12T08:33:09Z</time>
      </trkpt>
      <trkpt lat="45.85669" lon="4.69887">
        <ele>195</ele>
        <time>2016-09-12T08:33:10Z</time>
      </trkpt>
      <trkpt lat="45.85668" lon="4.69879">
        <ele>195</ele>
        <time>2016-09-12T08:33:11Z</time>
      </trkpt>
      <trkpt lat="45.85666" lon="4.6987">
        <ele>195</ele>
        <time>2016-09-12T08:33:12Z</time>
      </trkpt>
      <trkpt lat="45.85665" lon="4.69861">
        <ele>195</ele>
        <time>2016-09-12T08:33:13Z</time>
      </trkpt>
      <trkpt lat="45.85664" lon="4.69853">
        <ele>195</ele>
        <time>2016-09-12T08:33:14Z</time>
      </trkpt>
      <trkpt lat="45.85664" lon="4.69844">
        <ele>195</ele>
        <time>2016-09-12T08:33:15Z</time>
      </trkpt>
      <trkpt lat="45.85662" lon="4.69834">
        <ele>195</ele>
        <time>2016-09-12T08:33:16Z</time>
      </trkpt>
      <trkpt lat="45.85661" lon="4.69825">
        <ele>195</ele>
        <time>2016-09-12T08:33:17Z</time>
      </trkpt>
      <trkpt lat="45.85661" lon="4.69816">
        <ele>195</ele>
        <time>2016-09-12T08:33:18Z</time>
      </trkpt>
      <trkpt lat="45.85659" lon="4.69807">
        <ele>195</ele>
        <time>2016-09-12T08:33:19Z</time>
      </trkpt>
      <trkpt lat="45.85658" lon="4.69799">
        <ele>195</ele>
        <time>2016-09-12T08:33:20Z</time>
      </trkpt>
      <trkpt lat="45.85658" lon="4.69791">
        <ele>195</ele>
        <time>2016-09-12T08:33:21Z</time>
      </trkpt>
      <trkpt lat="45.85657" lon="4.69783">
        <ele>195</ele>
        <time>2016-09-12T08:33:22Z</time>
      </trkpt>
      <trkpt lat="45.85656" lon="4.69776">
        <ele>195</ele>
        <time>2016-09-12T08:33:23Z</time>
      </trkpt>
      <trkpt lat="45.85656" lon="4.69769">
        <ele>195</ele>
        <time>2016-09-12T08:33:24Z</time>
      </trkpt>
      <trkpt lat="45.85655" lon="4.69761">
        <ele>195</ele>
        <time>2016-09-12T08:33:25Z</time>
      </trkpt>
      <trkpt lat="45.85654" lon="4.69753">
        <ele>195</ele>
        <time>2016-09-12T08:33:26Z</time>
      </trkpt>
      <trkpt lat="45.85653" lon="4.69746">
        <ele>195</ele>
        <time>2016-09-12T08:33:27Z</time>
      </trkpt>
      <trkpt lat="45.85653" lon="4.69738">
        <ele>195</ele>
        <time>2016-09-12T08:33:28Z</time>
      </trkpt>
      <trkpt lat="45.85652" lon="4.6973">
        <ele>195</ele>
        <time>2016-09-12T08:33:29Z</time>
      </trkpt>
      <trkpt lat="45.85652" lon="4.69722">
        <ele>195</ele>
        <time>2016-09-12T08:33:30Z</time>
      </trkpt>
      <trkpt lat="45.85651" lon="4.69715">
        <ele>196</ele>
        <time>2016-09-12T08:33:31Z</time>
      </trkpt>
      <trkpt lat="45.8565" lon="4.69707">
        <ele>196</ele>
        <time>2016-09-12T08:33:32Z</time>
      </trkpt>
      <trkpt lat="45.85649" lon="4.69699">
        <ele>196</ele>
        <time>2016-09-12T08:33:33Z</time>
      </trkpt>
      <trkpt lat="45.85648" lon="4.69691">
        <ele>196</ele>
        <time>2016-09-12T08:33:34Z</time>
      </trkpt>
      <trkpt lat="45.85648" lon="4.69682">
        <ele>196</ele>
        <time>2016-09-12T08:33:35Z</time>
      </trkpt>
      <trkpt lat="45.85647" lon="4.69674">
        <ele>196</ele>
        <time>2016-09-12T08:33:36Z</time>
      </trkpt>
      <trkpt lat="45.85646" lon="4.69666">
        <ele>197</ele>
        <time>2016-09-12T08:33:37Z</time>
      </trkpt>
      <trkpt lat="45.85646" lon="4.69658">
        <ele>197</ele>
        <time>2016-09-12T08:33:38Z</time>
      </trkpt>
      <trkpt lat="45.85645" lon="4.69651">
        <ele>197</ele>
        <time>2016-09-12T08:33:39Z</time>
      </trkpt>
      <trkpt lat="45.85644" lon="4.69643">
        <ele>197</ele>
        <time>2016-09-12T08:33:40Z</time>
      </trkpt>
      <trkpt lat="45.85643" lon="4.69636">
        <ele>197</ele>
        <time>2016-09-12T08:33:41Z</time>
      </trkpt>
      <trkpt lat="45.85643" lon="4.69629">
        <ele>197</ele>
        <time>2016-09-12T08:33:42Z</time>
      </trkpt>
      <trkpt lat="45.85642" lon="4.69621">
        <ele>197</ele>
        <time>2016-09-12T08:33:43Z</time>
      </trkpt>
      <trkpt lat="45.85642" lon="4.69614">
        <ele>197</ele>
        <time>2016-09-12T08:33:44Z</time>
      </trkpt>
      <trkpt lat="45.85641" lon="4.69607">
        <ele>197</ele>
        <time>2016-09-12T08:33:45Z</time>
      </trkpt>
      <trkpt lat="45.8564" lon="4.696">
        <ele>197</ele>
        <time>2016-09-12T08:33:46Z</time>
      </trkpt>
      <trkpt lat="45.85639" lon="4.69592">
        <ele>197</ele>
        <time>2016-09-12T08:33:47Z</time>
      </trkpt>
      <trkpt lat="45.85639" lon="4.69584">
        <ele>197</ele>
        <time>2016-09-12T08:33:48Z</time>
      </trkpt>
      <trkpt lat="45.85638" lon="4.69578">
        <ele>198</ele>
        <time>2016-09-12T08:33:49Z</time>
      </trkpt>
      <trkpt lat="45.85637" lon="4.69571">
        <ele>198</ele>
        <time>2016-09-12T08:33:50Z</time>
      </trkpt>
      <trkpt lat="45.85636" lon="4.69563">
        <ele>198</ele>
        <time>2016-09-12T08:33:51Z</time>
      </trkpt>
      <trkpt lat="45.85636" lon="4.69556">
        <ele>198</ele>
        <time>2016-09-12T08:33:52Z</time>
      </trkpt>
      <trkpt lat="45.85635" lon="4.69548">
        <ele>198</ele>
        <time>2016-09-12T08:33:53Z</time>
      </trkpt>
      <trkpt lat="45.85634" lon="4.69539">
        <ele>198</ele>
        <time>2016-09-12T08:33:54Z</time>
      </trkpt>
      <trkpt lat="45.85633" lon="4.69531">
        <ele>198</ele>
        <time>2016-09-12T08:33:55Z</time>
      </trkpt>
      <trkpt lat="45.85633" lon="4.69522">
        <ele>198</ele>
        <time>2016-09-12T08:33:56Z</time>
      </trkpt>
      <trkpt lat="45.85631" lon="4.69513">
        <ele>198</ele>
        <time>2016-09-12T08:33:57Z</time>
      </trkpt>
      <trkpt lat="45.8563" lon="4.69505">
        <ele>198</ele>
        <time>2016-09-12T08:33:58Z</time>
      </trkpt>
      <trkpt lat="45.8563" lon="4.69496">
        <ele>198</ele>
        <time>2016-09-12T08:33:59Z</time>
      </trkpt>
      <trkpt lat="45.85629" lon="4.69488">
        <ele>198</ele>
        <time>2016-09-12T08:34:00Z</time>
      </trkpt>
      <trkpt lat="45.85628" lon="4.69481">
        <ele>198</ele>
        <time>2016-09-12T08:34:01Z</time>
      </trkpt>
      <trkpt lat="45.85628" lon="4.69474">
        <ele>198</ele>
        <time>2016-09-12T08:34:02Z</time>
      </trkpt>
      <trkpt lat="45.85627" lon="4.69467">
        <ele>198</ele>
        <time>2016-09-12T08:34:03Z</time>
      </trkpt>
      <trkpt lat="45.85627" lon="4.6946">
        <ele>198</ele>
        <time>2016-09-12T08:34:04Z</time>
      </trkpt>
      <trkpt lat="45.85627" lon="4.69453">
        <ele>198</ele>
        <time>2016-09-12T08:34:05Z</time>
      </trkpt>
      <trkpt lat="45.85626" lon="4.69445">
        <ele>198</ele>
        <time>2016-09-12T08:34:06Z</time>
      </trkpt>
      <trkpt lat="45.85626" lon="4.69438">
        <ele>198</ele>
        <time>2016-09-12T08:34:07Z</time>
      </trkpt>
      <trkpt lat="45.85625" lon="4.69429">
        <ele>198</ele>
        <time>2016-09-12T08:34:08Z</time>
      </trkpt>
      <trkpt lat="45.85625" lon="4.69421">
        <ele>198</ele>
        <time>2016-09-12T08:34:09Z</time>
      </trkpt>
      <trkpt lat="45.85624" lon="4.69413">
        <ele>198</ele>
        <time>2016-09-12T08:34:10Z</time>
      </trkpt>
      <trkpt lat="45.85623" lon="4.69405">
        <ele>198</ele>
        <time>2016-09-12T08:34:11Z</time>
      </trkpt>
      <trkpt lat="45.85622" lon="4.69398">
        <ele>198</ele>
        <time>2016-09-12T08:34:12Z</time>
      </trkpt>
      <trkpt lat="45.85621" lon="4.6939">
        <ele>198</ele>
        <time>2016-09-12T08:34:13Z</time>
      </trkpt>
      <trkpt lat="45.85621" lon="4.69383">
        <ele>198</ele>
        <time>2016-09-12T08:34:14Z</time>
      </trkpt>
      <trkpt lat="45.8562" lon="4.69375">
        <ele>198</ele>
        <time>2016-09-12T08:34:15Z</time>
      </trkpt>
      <trkpt lat="45.85619" lon="4.69368">
        <ele>198</ele>
        <time>2016-09-12T08:34:16Z</time>
      </trkpt>
      <trkpt lat="45.85618" lon="4.6936">
        <ele>198</ele>
        <time>2016-09-12T08:34:17Z</time>
      </trkpt>
      <trkpt lat="45.85617" lon="4.69352">
        <ele>198</ele>
        <time>2016-09-12T08:34:18Z</time>
      </trkpt>
      <trkpt lat="45.85617" lon="4.69344">
        <ele>198</ele>
        <time>2016-09-12T08:34:19Z</time>
      </trkpt>
      <trkpt lat="45.85616" lon="4.69337">
        <ele>198</ele>
        <time>2016-09-12T08:34:20Z</time>
      </trkpt>
      <trkpt lat="45.85616" lon="4.69329">
        <ele>198</ele>
        <time>2016-09-12T08:34:21Z</time>
      </trkpt>
      <trkpt lat="45.85615" lon="4.69321">
        <ele>198</ele>
        <time>2016-09-12T08:34:22Z</time>
      </trkpt>
      <trkpt lat="45.85614" lon="4.69313">
        <ele>198</ele>
        <time>2016-09-12T08:34:23Z</time>
      </trkpt>
      <trkpt lat="45.85613" lon="4.69306">
        <ele>198</ele>
        <time>2016-09-12T08:34:24Z</time>
      </trkpt>
      <trkpt lat="45.85612" lon="4.69298">
        <ele>198</ele>
        <time>2016-09-12T08:34:25Z</time>
      </trkpt>
      <trkpt lat="45.85612" lon="4.69291">
        <ele>198</ele>
        <time>2016-09-12T08:34:26Z</time>
      </trkpt>
      <trkpt lat="45.85613" lon="4.69283">
        <ele>198</ele>
        <time>2016-09-12T08:34:27Z</time>
      </trkpt>
      <trkpt lat="45.85613" lon="4.69275">
        <ele>198</ele>
        <time>2016-09-12T08:34:28Z</time>
      </trkpt>
      <trkpt lat="45.85614" lon="4.69267">
        <ele>198</ele>
        <time>2016-09-12T08:34:29Z</time>
      </trkpt>
      <trkpt lat="45.85613" lon="4.69258">
        <ele>198</ele>
        <time>2016-09-12T08:34:30Z</time>
      </trkpt>
      <trkpt lat="45.85612" lon="4.6925">
        <ele>199</ele>
        <time>2016-09-12T08:34:31Z</time>
      </trkpt>
      <trkpt lat="45.8561" lon="4.69242">
        <ele>199</ele>
        <time>2016-09-12T08:34:32Z</time>
      </trkpt>
      <trkpt lat="45.85608" lon="4.69234">
        <ele>199</ele>
        <time>2016-09-12T08:34:33Z</time>
      </trkpt>
      <trkpt lat="45.85606" lon="4.69226">
        <ele>199</ele>
        <time>2016-09-12T08:34:34Z</time>
      </trkpt>
      <trkpt lat="45.85605" lon="4.69218">
        <ele>199</ele>
        <time>2016-09-12T08:34:35Z</time>
      </trkpt>
      <trkpt lat="45.85605" lon="4.6921">
        <ele>199</ele>
        <time>2016-09-12T08:34:36Z</time>
      </trkpt>
      <trkpt lat="45.85604" lon="4.69202">
        <ele>199</ele>
        <time>2016-09-12T08:34:37Z</time>
      </trkpt>
      <trkpt lat="45.85604" lon="4.69194">
        <ele>199</ele>
        <time>2016-09-12T08:34:38Z</time>
      </trkpt>
      <trkpt lat="45.85603" lon="4.69186">
        <ele>199</ele>
        <time>2016-09-12T08:34:39Z</time>
      </trkpt>
      <trkpt lat="45.85603" lon="4.69178">
        <ele>199</ele>
        <time>2016-09-12T08:34:40Z</time>
      </trkpt>
      <trkpt lat="45.85602" lon="4.69171">
        <ele>199</ele>
        <time>2016-09-12T08:34:41Z</time>
      </trkpt>
      <trkpt lat="45.85602" lon="4.69163">
        <ele>199</ele>
        <time>2016-09-12T08:34:42Z</time>
      </trkpt>
      <trkpt lat="45.85602" lon="4.69155">
        <ele>199</ele>
        <time>2016-09-12T08:34:43Z</time>
      </trkpt>
      <trkpt lat="45.85601" lon="4.69147">
        <ele>199</ele>
        <time>2016-09-12T08:34:44Z</time>
      </trkpt>
      <trkpt lat="45.856" lon="4.69139">
        <ele>198</ele>
        <time>2016-09-12T08:34:45Z</time>
      </trkpt>
      <trkpt lat="45.85599" lon="4.69131">
        <ele>198</ele>
        <time>2016-09-12T08:34:46Z</time>
      </trkpt>
      <trkpt lat="45.85599" lon="4.69123">
        <ele>198</ele>
        <time>2016-09-12T08:34:47Z</time>
      </trkpt>
      <trkpt lat="45.85598" lon="4.69114">
        <ele>198</ele>
        <time>2016-09-12T08:34:48Z</time>
      </trkpt>
      <trkpt lat="45.85597" lon="4.69106">
        <ele>199</ele>
        <time>2016-09-12T08:34:49Z</time>
      </trkpt>
      <trkpt lat="45.85595" lon="4.69097">
        <ele>199</ele>
        <time>2016-09-12T08:34:50Z</time>
      </trkpt>
      <trkpt lat="45.85594" lon="4.69089">
        <ele>199</ele>
        <time>2016-09-12T08:34:51Z</time>
      </trkpt>
      <trkpt lat="45.85593" lon="4.69081">
        <ele>199</ele>
        <time>2016-09-12T08:34:52Z</time>
      </trkpt>
      <trkpt lat="45.85593" lon="4.69073">
        <ele>199</ele>
        <time>2016-09-12T08:34:53Z</time>
      </trkpt>
      <trkpt lat="45.85592" lon="4.69064">
        <ele>199</ele>
        <time>2016-09-12T08:34:54Z</time>
      </trkpt>
      <trkpt lat="45.85592" lon="4.69055">
        <ele>199</ele>
        <time>2016-09-12T08:34:55Z</time>
      </trkpt>
      <trkpt lat="45.85591" lon="4.69046">
        <ele>199</ele>
        <time>2016-09-12T08:34:56Z</time>
      </trkpt>
      <trkpt lat="45.8559" lon="4.69037">
        <ele>199</ele>
        <time>2016-09-12T08:34:57Z</time>
      </trkpt>
      <trkpt lat="45.8559" lon="4.69027">
        <ele>199</ele>
        <time>2016-09-12T08:34:58Z</time>
      </trkpt>
      <trkpt lat="45.85589" lon="4.69018">
        <ele>199</ele>
        <time>2016-09-12T08:34:59Z</time>
      </trkpt>
      <trkpt lat="45.85588" lon="4.69009">
        <ele>200</ele>
        <time>2016-09-12T08:35:00Z</time>
      </trkpt>
      <trkpt lat="45.85587" lon="4.69">
        <ele>200</ele>
        <time>2016-09-12T08:35:01Z</time>
      </trkpt>
      <trkpt lat="45.85586" lon="4.68991">
        <ele>200</ele>
        <time>2016-09-12T08:35:02Z</time>
      </trkpt>
      <trkpt lat="45.85584" lon="4.68982">
        <ele>200</ele>
        <time>2016-09-12T08:35:03Z</time>
      </trkpt>
      <trkpt lat="45.85583" lon="4.68973">
        <ele>200</ele>
        <time>2016-09-12T08:35:04Z</time>
      </trkpt>
      <trkpt lat="45.85582" lon="4.68964">
        <ele>200</ele>
        <time>2016-09-12T08:35:05Z</time>
      </trkpt>
      <trkpt lat="45.85582" lon="4.68956">
        <ele>200</ele>
        <time>2016-09-12T08:35:06Z</time>
      </trkpt>
      <trkpt lat="45.85581" lon="4.68947">
        <ele>200</ele>
        <time>2016-09-12T08:35:07Z</time>
      </trkpt>
      <trkpt lat="45.85581" lon="4.68939">
        <ele>200</ele>
        <time>2016-09-12T08:35:08Z</time>
      </trkpt>
      <trkpt lat="45.8558" lon="4.68931">
        <ele>200</ele>
        <time>2016-09-12T08:35:09Z</time>
      </trkpt>
      <trkpt lat="45.8558" lon="4.68923">
        <ele>200</ele>
        <time>2016-09-12T08:35:10Z</time>
      </trkpt>
      <trkpt lat="45.85579" lon="4.68915">
        <ele>200</ele>
        <time>2016-09-12T08:35:11Z</time>
      </trkpt>
      <trkpt lat="45.85578" lon="4.68908">
        <ele>200</ele>
        <time>2016-09-12T08:35:12Z</time>
      </trkpt>
      <trkpt lat="45.85578" lon="4.689">
        <ele>200</ele>
        <time>2016-09-12T08:35:13Z</time>
      </trkpt>
      <trkpt lat="45.85577" lon="4.68893">
        <ele>200</ele>
        <time>2016-09-12T08:35:14Z</time>
      </trkpt>
      <trkpt lat="45.85576" lon="4.68886">
        <ele>200</ele>
        <time>2016-09-12T08:35:15Z</time>
      </trkpt>
      <trkpt lat="45.85576" lon="4.68878">
        <ele>200</ele>
        <time>2016-09-12T08:35:16Z</time>
      </trkpt>
      <trkpt lat="45.85575" lon="4.6887">
        <ele>200</ele>
        <time>2016-09-12T08:35:17Z</time>
      </trkpt>
      <trkpt lat="45.85574" lon="4.68862">
        <ele>200</ele>
        <time>2016-09-12T08:35:18Z</time>
      </trkpt>
      <trkpt lat="45.85574" lon="4.68853">
        <ele>200</ele>
        <time>2016-09-12T08:35:19Z</time>
      </trkpt>
      <trkpt lat="45.85572" lon="4.68845">
        <ele>200</ele>
        <time>2016-09-12T08:35:20Z</time>
      </trkpt>
      <trkpt lat="45.85571" lon="4.68836">
        <ele>200</ele>
        <time>2016-09-12T08:35:21Z</time>
      </trkpt>
      <trkpt lat="45.85571" lon="4.68827">
        <ele>200</ele>
        <time>2016-09-12T08:35:22Z</time>
      </trkpt>
      <trkpt lat="45.85571" lon="4.68818">
        <ele>200</ele>
        <time>2016-09-12T08:35:23Z</time>
      </trkpt>
      <trkpt lat="45.8557" lon="4.68809">
        <ele>200</ele>
        <time>2016-09-12T08:35:24Z</time>
      </trkpt>
      <trkpt lat="45.8557" lon="4.68799">
        <ele>200</ele>
        <time>2016-09-12T08:35:25Z</time>
      </trkpt>
      <trkpt lat="45.85569" lon="4.68789">
        <ele>200</ele>
        <time>2016-09-12T08:35:26Z</time>
      </trkpt>
      <trkpt lat="45.85568" lon="4.68779">
        <ele>200</ele>
        <time>2016-09-12T08:35:27Z</time>
      </trkpt>
      <trkpt lat="45.85567" lon="4.68769">
        <ele>200</ele>
        <time>2016-09-12T08:35:28Z</time>
      </trkpt>
      <trkpt lat="45.85566" lon="4.6876">
        <ele>200</ele>
        <time>2016-09-12T08:35:29Z</time>
      </trkpt>
      <trkpt lat="45.85565" lon="4.68752">
        <ele>200</ele>
        <time>2016-09-12T08:35:30Z</time>
      </trkpt>
      <trkpt lat="45.85564" lon="4.68743">
        <ele>200</ele>
        <time>2016-09-12T08:35:31Z</time>
      </trkpt>
      <trkpt lat="45.85563" lon="4.68734">
        <ele>200</ele>
        <time>2016-09-12T08:35:32Z</time>
      </trkpt>
      <trkpt lat="45.85562" lon="4.68726">
        <ele>200</ele>
        <time>2016-09-12T08:35:33Z</time>
      </trkpt>
      <trkpt lat="45.85561" lon="4.68717">
        <ele>200</ele>
        <time>2016-09-12T08:35:34Z</time>
      </trkpt>
      <trkpt lat="45.85561" lon="4.68709">
        <ele>200</ele>
        <time>2016-09-12T08:35:35Z</time>
      </trkpt>
      <trkpt lat="45.8556" lon="4.68701">
        <ele>200</ele>
        <time>2016-09-12T08:35:36Z</time>
      </trkpt>
      <trkpt lat="45.85559" lon="4.68692">
        <ele>200</ele>
        <time>2016-09-12T08:35:37Z</time>
      </trkpt>
      <trkpt lat="45.85558" lon="4.68684">
        <ele>200</ele>
        <time>2016-09-12T08:35:38Z</time>
      </trkpt>
      <trkpt lat="45.85557" lon="4.68675">
        <ele>200</ele>
        <time>2016-09-12T08:35:39Z</time>
      </trkpt>
      <trkpt lat="45.85556" lon="4.68666">
        <ele>200</ele>
        <time>2016-09-12T08:35:40Z</time>
      </trkpt>
      <trkpt lat="45.85555" lon="4.68658">
        <ele>200</ele>
        <time>2016-09-12T08:35:41Z</time>
      </trkpt>
      <trkpt lat="45.85554" lon="4.6865">
        <ele>201</ele>
        <time>2016-09-12T08:35:42Z</time>
      </trkpt>
      <trkpt lat="45.85554" lon="4.68641">
        <ele>201</ele>
        <time>2016-09-12T08:35:43Z</time>
      </trkpt>
      <trkpt lat="45.85553" lon="4.68632">
        <ele>201</ele>
        <time>2016-09-12T08:35:44Z</time>
      </trkpt>
      <trkpt lat="45.85552" lon="4.68624">
        <ele>201</ele>
        <time>2016-09-12T08:35:45Z</time>
      </trkpt>
      <trkpt lat="45.85551" lon="4.68615">
        <ele>201</ele>
        <time>2016-09-12T08:35:46Z</time>
      </trkpt>
      <trkpt lat="45.8555" lon="4.68607">
        <ele>201</ele>
        <time>2016-09-12T08:35:47Z</time>
      </trkpt>
      <trkpt lat="45.85549" lon="4.68599">
        <ele>201</ele>
        <time>2016-09-12T08:35:48Z</time>
      </trkpt>
      <trkpt lat="45.85548" lon="4.68592">
        <ele>201</ele>
        <time>2016-09-12T08:35:49Z</time>
      </trkpt>
      <trkpt lat="45.85547" lon="4.68584">
        <ele>201</ele>
        <time>2016-09-12T08:35:50Z</time>
      </trkpt>
      <trkpt lat="45.85547" lon="4.68577">
        <ele>201</ele>
        <time>2016-09-12T08:35:51Z</time>
      </trkpt>
      <trkpt lat="45.85545" lon="4.68568">
        <ele>201</ele>
        <time>2016-09-12T08:35:52Z</time>
      </trkpt>
      <trkpt lat="45.85544" lon="4.68559">
        <ele>201</ele>
        <time>2016-09-12T08:35:53Z</time>
      </trkpt>
      <trkpt lat="45.85543" lon="4.68549">
        <ele>201</ele>
        <time>2016-09-12T08:35:54Z</time>
      </trkpt>
      <trkpt lat="45.85544" lon="4.68538">
        <ele>201</ele>
        <time>2016-09-12T08:35:55Z</time>
      </trkpt>
      <trkpt lat="45.85543" lon="4.68528">
        <ele>201</ele>
        <time>2016-09-12T08:35:56Z</time>
      </trkpt>
      <trkpt lat="45.85542" lon="4.6852">
        <ele>201</ele>
        <time>2016-09-12T08:35:57Z</time>
      </trkpt>
      <trkpt lat="45.85541" lon="4.68511">
        <ele>201</ele>
        <time>2016-09-12T08:35:58Z</time>
      </trkpt>
      <trkpt lat="45.85541" lon="4.68502">
        <ele>201</ele>
        <time>2016-09-12T08:35:59Z</time>
      </trkpt>
      <trkpt lat="45.8554" lon="4.68494">
        <ele>200</ele>
        <time>2016-09-12T08:36:00Z</time>
      </trkpt>
      <trkpt lat="45.85539" lon="4.68486">
        <ele>200</ele>
        <time>2016-09-12T08:36:01Z</time>
      </trkpt>
      <trkpt lat="45.85537" lon="4.68478">
        <ele>200</ele>
        <time>2016-09-12T08:36:02Z</time>
      </trkpt>
      <trkpt lat="45.85536" lon="4.6847">
        <ele>200</ele>
        <time>2016-09-12T08:36:03Z</time>
      </trkpt>
      <trkpt lat="45.85535" lon="4.68462">
        <ele>200</ele>
        <time>2016-09-12T08:36:04Z</time>
      </trkpt>
      <trkpt lat="45.85534" lon="4.68454">
        <ele>200</ele>
        <time>2016-09-12T08:36:05Z</time>
      </trkpt>
      <trkpt lat="45.85533" lon="4.68447">
        <ele>200</ele>
        <time>2016-09-12T08:36:06Z</time>
      </trkpt>
      <trkpt lat="45.85533" lon="4.68439">
        <ele>200</ele>
        <time>2016-09-12T08:36:07Z</time>
      </trkpt>
      <trkpt lat="45.85532" lon="4.68432">
        <ele>200</ele>
        <time>2016-09-12T08:36:08Z</time>
      </trkpt>
      <trkpt lat="45.85531" lon="4.68425">
        <ele>200</ele>
        <time>2016-09-12T08:36:09Z</time>
      </trkpt>
      <trkpt lat="45.8553" lon="4.68418">
        <ele>200</ele>
        <time>2016-09-12T08:36:10Z</time>
      </trkpt>
      <trkpt lat="45.85529" lon="4.68411">
        <ele>200</ele>
        <time>2016-09-12T08:36:11Z</time>
      </trkpt>
      <trkpt lat="45.85529" lon="4.68402">
        <ele>200</ele>
        <time>2016-09-12T08:36:12Z</time>
      </trkpt>
      <trkpt lat="45.85528" lon="4.68394">
        <ele>200</ele>
        <time>2016-09-12T08:36:13Z</time>
      </trkpt>
      <trkpt lat="45.85528" lon="4.68387">
        <ele>200</ele>
        <time>2016-09-12T08:36:14Z</time>
      </trkpt>
      <trkpt lat="45.85527" lon="4.68379">
        <ele>201</ele>
        <time>2016-09-12T08:36:15Z</time>
      </trkpt>
      <trkpt lat="45.85526" lon="4.68371">
        <ele>201</ele>
        <time>2016-09-12T08:36:16Z</time>
      </trkpt>
      <trkpt lat="45.85525" lon="4.68362">
        <ele>201</ele>
        <time>2016-09-12T08:36:17Z</time>
      </trkpt>
      <trkpt lat="45.85524" lon="4.68353">
        <ele>201</ele>
        <time>2016-09-12T08:36:18Z</time>
      </trkpt>
      <trkpt lat="45.85523" lon="4.68344">
        <ele>201</ele>
        <time>2016-09-12T08:36:19Z</time>
      </trkpt>
      <trkpt lat="45.85522" lon="4.68336">
        <ele>201</ele>
        <time>2016-09-12T08:36:20Z</time>
      </trkpt>
      <trkpt lat="45.85522" lon="4.68327">
        <ele>202</ele>
        <time>2016-09-12T08:36:21Z</time>
      </trkpt>
      <trkpt lat="45.85521" lon="4.68318">
        <ele>202</ele>
        <time>2016-09-12T08:36:22Z</time>
      </trkpt>
      <trkpt lat="45.85521" lon="4.68309">
        <ele>202</ele>
        <time>2016-09-12T08:36:23Z</time>
      </trkpt>
      <trkpt lat="45.85521" lon="4.683">
        <ele>202</ele>
        <time>2016-09-12T08:36:24Z</time>
      </trkpt>
      <trkpt lat="45.8552" lon="4.6829">
        <ele>202</ele>
        <time>2016-09-12T08:36:25Z</time>
      </trkpt>
      <trkpt lat="45.85518" lon="4.68281">
        <ele>202</ele>
        <time>2016-09-12T08:36:26Z</time>
      </trkpt>
      <trkpt lat="45.85517" lon="4.68271">
        <ele>202</ele>
        <time>2016-09-12T08:36:27Z</time>
      </trkpt>
      <trkpt lat="45.85516" lon="4.68262">
        <ele>202</ele>
        <time>2016-09-12T08:36:28Z</time>
      </trkpt>
      <trkpt lat="45.85515" lon="4.68253">
        <ele>203</ele>
        <time>2016-09-12T08:36:29Z</time>
      </trkpt>
      <trkpt lat="45.85515" lon="4.68244">
        <ele>203</ele>
        <time>2016-09-12T08:36:30Z</time>
      </trkpt>
      <trkpt lat="45.85515" lon="4.68236">
        <ele>203</ele>
        <time>2016-09-12T08:36:31Z</time>
      </trkpt>
      <trkpt lat="45.85514" lon="4.68228">
        <ele>203</ele>
        <time>2016-09-12T08:36:32Z</time>
      </trkpt>
      <trkpt lat="45.85513" lon="4.6822">
        <ele>203</ele>
        <time>2016-09-12T08:36:33Z</time>
      </trkpt>
      <trkpt lat="45.85513" lon="4.68213">
        <ele>203</ele>
        <time>2016-09-12T08:36:34Z</time>
      </trkpt>
      <trkpt lat="45.85512" lon="4.68205">
        <ele>203</ele>
        <time>2016-09-12T08:36:35Z</time>
      </trkpt>
      <trkpt lat="45.85512" lon="4.68198">
        <ele>203</ele>
        <time>2016-09-12T08:36:36Z</time>
      </trkpt>
      <trkpt lat="45.85512" lon="4.6819">
        <ele>203</ele>
        <time>2016-09-12T08:36:37Z</time>
      </trkpt>
      <trkpt lat="45.85512" lon="4.68182">
        <ele>203</ele>
        <time>2016-09-12T08:36:38Z</time>
      </trkpt>
      <trkpt lat="45.85511" lon="4.68174">
        <ele>204</ele>
        <time>2016-09-12T08:36:39Z</time>
      </trkpt>
      <trkpt lat="45.8551" lon="4.68165">
        <ele>204</ele>
        <time>2016-09-12T08:36:40Z</time>
      </trkpt>
      <trkpt lat="45.85509" lon="4.68156">
        <ele>203</ele>
        <time>2016-09-12T08:36:41Z</time>
      </trkpt>
      <trkpt lat="45.85508" lon="4.68148">
        <ele>203</ele>
        <time>2016-09-12T08:36:42Z</time>
      </trkpt>
      <trkpt lat="45.85507" lon="4.6814">
        <ele>203</ele>
        <time>2016-09-12T08:36:43Z</time>
      </trkpt>
      <trkpt lat="45.85506" lon="4.68133">
        <ele>203</ele>
        <time>2016-09-12T08:36:44Z</time>
      </trkpt>
      <trkpt lat="45.85506" lon="4.68126">
        <ele>203</ele>
        <time>2016-09-12T08:36:45Z</time>
      </trkpt>
      <trkpt lat="45.85505" lon="4.68119">
        <ele>203</ele>
        <time>2016-09-12T08:36:46Z</time>
      </trkpt>
      <trkpt lat="45.85504" lon="4.68112">
        <ele>203</ele>
        <time>2016-09-12T08:36:47Z</time>
      </trkpt>
      <trkpt lat="45.85504" lon="4.68105">
        <ele>203</ele>
        <time>2016-09-12T08:36:48Z</time>
      </trkpt>
      <trkpt lat="45.85502" lon="4.68093">
        <ele>203</ele>
        <time>2016-09-12T08:36:50Z</time>
      </trkpt>
      <trkpt lat="45.85502" lon="4.68087">
        <ele>204</ele>
        <time>2016-09-12T08:36:51Z</time>
      </trkpt>
      <trkpt lat="45.85503" lon="4.68076">
        <ele>204</ele>
        <time>2016-09-12T08:36:53Z</time>
      </trkpt>
      <trkpt lat="45.85503" lon="4.6807">
        <ele>203</ele>
        <time>2016-09-12T08:36:54Z</time>
      </trkpt>
      <trkpt lat="45.85503" lon="4.68064">
        <ele>203</ele>
        <time>2016-09-12T08:36:55Z</time>
      </trkpt>
      <trkpt lat="45.85503" lon="4.68056">
        <ele>203</ele>
        <time>2016-09-12T08:36:56Z</time>
      </trkpt>
      <trkpt lat="45.85502" lon="4.6805">
        <ele>203</ele>
        <time>2016-09-12T08:36:57Z</time>
      </trkpt>
      <trkpt lat="45.855" lon="4.68044">
        <ele>203</ele>
        <time>2016-09-12T08:36:58Z</time>
      </trkpt>
      <trkpt lat="45.85499" lon="4.68032">
        <ele>207</ele>
        <time>2016-09-12T08:37:00Z</time>
      </trkpt>
      <trkpt lat="45.85499" lon="4.68025">
        <ele>207</ele>
        <time>2016-09-12T08:37:01Z</time>
      </trkpt>
      <trkpt lat="45.85501" lon="4.68018">
        <ele>204</ele>
        <time>2016-09-12T08:37:02Z</time>
      </trkpt>
      <trkpt lat="45.85502" lon="4.68012">
        <ele>205</ele>
        <time>2016-09-12T08:37:03Z</time>
      </trkpt>
      <trkpt lat="45.85507" lon="4.68001">
        <ele>205</ele>
        <time>2016-09-12T08:37:05Z</time>
      </trkpt>
      <trkpt lat="45.8551" lon="4.67997">
        <ele>206</ele>
        <time>2016-09-12T08:37:06Z</time>
      </trkpt>
      <trkpt lat="45.85513" lon="4.67992">
        <ele>206</ele>
        <time>2016-09-12T08:37:07Z</time>
      </trkpt>
      <trkpt lat="45.85516" lon="4.67987">
        <ele>206</ele>
        <time>2016-09-12T08:37:08Z</time>
      </trkpt>
      <trkpt lat="45.8552" lon="4.67983">
        <ele>205</ele>
        <time>2016-09-12T08:37:09Z</time>
      </trkpt>
      <trkpt lat="45.85523" lon="4.67979">
        <ele>205</ele>
        <time>2016-09-12T08:37:10Z</time>
      </trkpt>
      <trkpt lat="45.85527" lon="4.67974">
        <ele>205</ele>
        <time>2016-09-12T08:37:11Z</time>
      </trkpt>
      <trkpt lat="45.85531" lon="4.6797">
        <ele>205</ele>
        <time>2016-09-12T08:37:12Z</time>
      </trkpt>
      <trkpt lat="45.85537" lon="4.67962">
        <ele>205</ele>
        <time>2016-09-12T08:37:14Z</time>
      </trkpt>
      <trkpt lat="45.85542" lon="4.67957">
        <ele>205</ele>
        <time>2016-09-12T08:37:15Z</time>
      </trkpt>
      <trkpt lat="45.85547" lon="4.67953">
        <ele>205</ele>
        <time>2016-09-12T08:37:16Z</time>
      </trkpt>
      <trkpt lat="45.85551" lon="4.67948">
        <ele>205</ele>
        <time>2016-09-12T08:37:17Z</time>
      </trkpt>
      <trkpt lat="45.85556" lon="4.67944">
        <ele>205</ele>
        <time>2016-09-12T08:37:18Z</time>
      </trkpt>
      <trkpt lat="45.8556" lon="4.6794">
        <ele>205</ele>
        <time>2016-09-12T08:37:19Z</time>
      </trkpt>
      <trkpt lat="45.85564" lon="4.67936">
        <ele>205</ele>
        <time>2016-09-12T08:37:20Z</time>
      </trkpt>
      <trkpt lat="45.85569" lon="4.67934">
        <ele>205</ele>
        <time>2016-09-12T08:37:21Z</time>
      </trkpt>
      <trkpt lat="45.85576" lon="4.67927">
        <ele>204</ele>
        <time>2016-09-12T08:37:23Z</time>
      </trkpt>
      <trkpt lat="45.85577" lon="4.67921">
        <ele>204</ele>
        <time>2016-09-12T08:37:24Z</time>
      </trkpt>
      <trkpt lat="45.85577" lon="4.67914">
        <ele>205</ele>
        <time>2016-09-12T08:37:25Z</time>
      </trkpt>
      <trkpt lat="45.85576" lon="4.67907">
        <ele>205</ele>
        <time>2016-09-12T08:37:26Z</time>
      </trkpt>
      <trkpt lat="45.85576" lon="4.67899">
        <ele>206</ele>
        <time>2016-09-12T08:37:27Z</time>
      </trkpt>
      <trkpt lat="45.85575" lon="4.67892">
        <ele>206</ele>
        <time>2016-09-12T08:37:28Z</time>
      </trkpt>
      <trkpt lat="45.85574" lon="4.67883">
        <ele>206</ele>
        <time>2016-09-12T08:37:29Z</time>
      </trkpt>
      <trkpt lat="45.85574" lon="4.67874">
        <ele>207</ele>
        <time>2016-09-12T08:37:30Z</time>
      </trkpt>
      <trkpt lat="45.85574" lon="4.67867">
        <ele>207</ele>
        <time>2016-09-12T08:37:31Z</time>
      </trkpt>
      <trkpt lat="45.85575" lon="4.67858">
        <ele>206</ele>
        <time>2016-09-12T08:37:32Z</time>
      </trkpt>
      <trkpt lat="45.85576" lon="4.6785">
        <ele>206</ele>
        <time>2016-09-12T08:37:33Z</time>
      </trkpt>
      <trkpt lat="45.85578" lon="4.67842">
        <ele>206</ele>
        <time>2016-09-12T08:37:34Z</time>
      </trkpt>
      <trkpt lat="45.85579" lon="4.67834">
        <ele>205</ele>
        <time>2016-09-12T08:37:35Z</time>
      </trkpt>
      <trkpt lat="45.85581" lon="4.67826">
        <ele>206</ele>
        <time>2016-09-12T08:37:36Z</time>
      </trkpt>
      <trkpt lat="45.85583" lon="4.67818">
        <ele>206</ele>
        <time>2016-09-12T08:37:37Z</time>
      </trkpt>
      <trkpt lat="45.85585" lon="4.6781">
        <ele>209</ele>
        <time>2016-09-12T08:37:38Z</time>
      </trkpt>
      <trkpt lat="45.85587" lon="4.67802">
        <ele>209</ele>
        <time>2016-09-12T08:37:39Z</time>
      </trkpt>
      <trkpt lat="45.8559" lon="4.67795">
        <ele>210</ele>
        <time>2016-09-12T08:37:40Z</time>
      </trkpt>
      <trkpt lat="45.85592" lon="4.67787">
        <ele>210</ele>
        <time>2016-09-12T08:37:41Z</time>
      </trkpt>
      <trkpt lat="45.85595" lon="4.67779">
        <ele>209</ele>
        <time>2016-09-12T08:37:42Z</time>
      </trkpt>
      <trkpt lat="45.85598" lon="4.67772">
        <ele>209</ele>
        <time>2016-09-12T08:37:43Z</time>
      </trkpt>
      <trkpt lat="45.85601" lon="4.67765">
        <ele>209</ele>
        <time>2016-09-12T08:37:44Z</time>
      </trkpt>
      <trkpt lat="45.85605" lon="4.67757">
        <ele>209</ele>
        <time>2016-09-12T08:37:45Z</time>
      </trkpt>
      <trkpt lat="45.85609" lon="4.6775">
        <ele>210</ele>
        <time>2016-09-12T08:37:46Z</time>
      </trkpt>
      <trkpt lat="45.85613" lon="4.67743">
        <ele>208</ele>
        <time>2016-09-12T08:37:47Z</time>
      </trkpt>
      <trkpt lat="45.85617" lon="4.67736">
        <ele>209</ele>
        <time>2016-09-12T08:37:48Z</time>
      </trkpt>
      <trkpt lat="45.85621" lon="4.67729">
        <ele>209</ele>
        <time>2016-09-12T08:37:49Z</time>
      </trkpt>
      <trkpt lat="45.85625" lon="4.67723">
        <ele>209</ele>
        <time>2016-09-12T08:37:50Z</time>
      </trkpt>
      <trkpt lat="45.85629" lon="4.67717">
        <ele>210</ele>
        <time>2016-09-12T08:37:51Z</time>
      </trkpt>
      <trkpt lat="45.85634" lon="4.67711">
        <ele>210</ele>
        <time>2016-09-12T08:37:52Z</time>
      </trkpt>
      <trkpt lat="45.85638" lon="4.67705">
        <ele>210</ele>
        <time>2016-09-12T08:37:53Z</time>
      </trkpt>
      <trkpt lat="45.85643" lon="4.677">
        <ele>210</ele>
        <time>2016-09-12T08:37:54Z</time>
      </trkpt>
      <trkpt lat="45.85648" lon="4.67695">
        <ele>210</ele>
        <time>2016-09-12T08:37:55Z</time>
      </trkpt>
      <trkpt lat="45.85653" lon="4.6769">
        <ele>210</ele>
        <time>2016-09-12T08:37:56Z</time>
      </trkpt>
      <trkpt lat="45.85658" lon="4.67686">
        <ele>210</ele>
        <time>2016-09-12T08:37:57Z</time>
      </trkpt>
      <trkpt lat="45.85663" lon="4.67682">
        <ele>209</ele>
        <time>2016-09-12T08:37:58Z</time>
      </trkpt>
      <trkpt lat="45.85668" lon="4.67678">
        <ele>214</ele>
        <time>2016-09-12T08:37:59Z</time>
      </trkpt>
      <trkpt lat="45.85672" lon="4.67675">
        <ele>213</ele>
        <time>2016-09-12T08:38:00Z</time>
      </trkpt>
      <trkpt lat="45.85677" lon="4.67672">
        <ele>214</ele>
        <time>2016-09-12T08:38:01Z</time>
      </trkpt>
      <trkpt lat="45.85682" lon="4.67668">
        <ele>215</ele>
        <time>2016-09-12T08:38:02Z</time>
      </trkpt>
      <trkpt lat="45.85687" lon="4.67665">
        <ele>210</ele>
        <time>2016-09-12T08:38:03Z</time>
      </trkpt>
      <trkpt lat="45.85692" lon="4.67662">
        <ele>211</ele>
        <time>2016-09-12T08:38:04Z</time>
      </trkpt>
      <trkpt lat="45.85696" lon="4.67658">
        <ele>211</ele>
        <time>2016-09-12T08:38:05Z</time>
      </trkpt>
      <trkpt lat="45.85701" lon="4.67655">
        <ele>211</ele>
        <time>2016-09-12T08:38:06Z</time>
      </trkpt>
      <trkpt lat="45.85706" lon="4.67652">
        <ele>212</ele>
        <time>2016-09-12T08:38:07Z</time>
      </trkpt>
      <trkpt lat="45.85711" lon="4.67648">
        <ele>212</ele>
        <time>2016-09-12T08:38:08Z</time>
      </trkpt>
      <trkpt lat="45.85716" lon="4.67645">
        <ele>212</ele>
        <time>2016-09-12T08:38:09Z</time>
      </trkpt>
      <trkpt lat="45.85722" lon="4.67641">
        <ele>212</ele>
        <time>2016-09-12T08:38:10Z</time>
      </trkpt>
      <trkpt lat="45.85728" lon="4.67638">
        <ele>213</ele>
        <time>2016-09-12T08:38:11Z</time>
      </trkpt>
      <trkpt lat="45.85734" lon="4.67635">
        <ele>213</ele>
        <time>2016-09-12T08:38:12Z</time>
      </trkpt>
      <trkpt lat="45.85739" lon="4.67631">
        <ele>212</ele>
        <time>2016-09-12T08:38:13Z</time>
      </trkpt>
      <trkpt lat="45.85744" lon="4.67627">
        <ele>212</ele>
        <time>2016-09-12T08:38:14Z</time>
      </trkpt>
      <trkpt lat="45.8575" lon="4.67624">
        <ele>212</ele>
        <time>2016-09-12T08:38:15Z</time>
      </trkpt>
      <trkpt lat="45.85756" lon="4.67621">
        <ele>219</ele>
        <time>2016-09-12T08:38:16Z</time>
      </trkpt>
      <trkpt lat="45.85761" lon="4.67618">
        <ele>219</ele>
        <time>2016-09-12T08:38:17Z</time>
      </trkpt>
      <trkpt lat="45.85766" lon="4.67614">
        <ele>219</ele>
        <time>2016-09-12T08:38:18Z</time>
      </trkpt>
      <trkpt lat="45.85771" lon="4.67609">
        <ele>218</ele>
        <time>2016-09-12T08:38:19Z</time>
      </trkpt>
      <trkpt lat="45.85777" lon="4.67604">
        <ele>218</ele>
        <time>2016-09-12T08:38:20Z</time>
      </trkpt>
      <trkpt lat="45.85782" lon="4.67599">
        <ele>219</ele>
        <time>2016-09-12T08:38:21Z</time>
      </trkpt>
      <trkpt lat="45.85788" lon="4.67594">
        <ele>219</ele>
        <time>2016-09-12T08:38:22Z</time>
      </trkpt>
      <trkpt lat="45.85793" lon="4.67588">
        <ele>220</ele>
        <time>2016-09-12T08:38:23Z</time>
      </trkpt>
      <trkpt lat="45.85798" lon="4.67582">
        <ele>212</ele>
        <time>2016-09-12T08:38:24Z</time>
      </trkpt>
      <trkpt lat="45.85803" lon="4.67577">
        <ele>212</ele>
        <time>2016-09-12T08:38:25Z</time>
      </trkpt>
      <trkpt lat="45.85808" lon="4.67571">
        <ele>213</ele>
        <time>2016-09-12T08:38:26Z</time>
      </trkpt>
      <trkpt lat="45.85811" lon="4.67564">
        <ele>213</ele>
        <time>2016-09-12T08:38:27Z</time>
      </trkpt>
      <trkpt lat="45.85815" lon="4.67558">
        <ele>212</ele>
        <time>2016-09-12T08:38:28Z</time>
      </trkpt>
      <trkpt lat="45.8582" lon="4.67551">
        <ele>212</ele>
        <time>2016-09-12T08:38:29Z</time>
      </trkpt>
      <trkpt lat="45.85824" lon="4.67544">
        <ele>211</ele>
        <time>2016-09-12T08:38:30Z</time>
      </trkpt>
      <trkpt lat="45.85828" lon="4.67538">
        <ele>210</ele>
        <time>2016-09-12T08:38:31Z</time>
      </trkpt>
      <trkpt lat="45.85831" lon="4.67532">
        <ele>210</ele>
        <time>2016-09-12T08:38:32Z</time>
      </trkpt>
      <trkpt lat="45.85835" lon="4.67525">
        <ele>218</ele>
        <time>2016-09-12T08:38:33Z</time>
      </trkpt>
      <trkpt lat="45.85839" lon="4.67519">
        <ele>217</ele>
        <time>2016-09-12T08:38:34Z</time>
      </trkpt>
      <trkpt lat="45.85841" lon="4.67513">
        <ele>215</ele>
        <time>2016-09-12T08:38:35Z</time>
      </trkpt>
      <trkpt lat="45.85844" lon="4.67506">
        <ele>214</ele>
        <time>2016-09-12T08:38:36Z</time>
      </trkpt>
      <trkpt lat="45.85847" lon="4.67497">
        <ele>210</ele>
        <time>2016-09-12T08:38:37Z</time>
      </trkpt>
      <trkpt lat="45.8585" lon="4.67489">
        <ele>211</ele>
        <time>2016-09-12T08:38:38Z</time>
      </trkpt>
      <trkpt lat="45.85852" lon="4.67481">
        <ele>212</ele>
        <time>2016-09-12T08:38:39Z</time>
      </trkpt>
      <trkpt lat="45.85854" lon="4.67472">
        <ele>213</ele>
        <time>2016-09-12T08:38:40Z</time>
      </trkpt>
      <trkpt lat="45.85856" lon="4.67463">
        <ele>213</ele>
        <time>2016-09-12T08:38:41Z</time>
      </trkpt>
      <trkpt lat="45.85858" lon="4.67454">
        <ele>213</ele>
        <time>2016-09-12T08:38:42Z</time>
      </trkpt>
      <trkpt lat="45.8586" lon="4.67444">
        <ele>212</ele>
        <time>2016-09-12T08:38:43Z</time>
      </trkpt>
      <trkpt lat="45.85861" lon="4.67435">
        <ele>212</ele>
        <time>2016-09-12T08:38:44Z</time>
      </trkpt>
      <trkpt lat="45.85862" lon="4.67426">
        <ele>212</ele>
        <time>2016-09-12T08:38:45Z</time>
      </trkpt>
      <trkpt lat="45.85864" lon="4.67417">
        <ele>208</ele>
        <time>2016-09-12T08:38:46Z</time>
      </trkpt>
      <trkpt lat="45.85866" lon="4.67407">
        <ele>209</ele>
        <time>2016-09-12T08:38:47Z</time>
      </trkpt>
      <trkpt lat="45.85867" lon="4.67398">
        <ele>209</ele>
        <time>2016-09-12T08:38:48Z</time>
      </trkpt>
      <trkpt lat="45.85869" lon="4.67389">
        <ele>209</ele>
        <time>2016-09-12T08:38:49Z</time>
      </trkpt>
      <trkpt lat="45.8587" lon="4.6738">
        <ele>209</ele>
        <time>2016-09-12T08:38:50Z</time>
      </trkpt>
      <trkpt lat="45.85871" lon="4.6737">
        <ele>209</ele>
        <time>2016-09-12T08:38:51Z</time>
      </trkpt>
      <trkpt lat="45.85872" lon="4.67361">
        <ele>209</ele>
        <time>2016-09-12T08:38:52Z</time>
      </trkpt>
      <trkpt lat="45.85872" lon="4.67352">
        <ele>208</ele>
        <time>2016-09-12T08:38:53Z</time>
      </trkpt>
      <trkpt lat="45.85873" lon="4.67342">
        <ele>208</ele>
        <time>2016-09-12T08:38:54Z</time>
      </trkpt>
      <trkpt lat="45.85875" lon="4.67334">
        <ele>208</ele>
        <time>2016-09-12T08:38:55Z</time>
      </trkpt>
      <trkpt lat="45.85875" lon="4.67325">
        <ele>206</ele>
        <time>2016-09-12T08:38:56Z</time>
      </trkpt>
      <trkpt lat="45.85876" lon="4.67316">
        <ele>206</ele>
        <time>2016-09-12T08:38:57Z</time>
      </trkpt>
      <trkpt lat="45.85878" lon="4.67307">
        <ele>206</ele>
        <time>2016-09-12T08:38:58Z</time>
      </trkpt>
      <trkpt lat="45.85878" lon="4.67298">
        <ele>205</ele>
        <time>2016-09-12T08:38:59Z</time>
      </trkpt>
      <trkpt lat="45.85879" lon="4.6729">
        <ele>205</ele>
        <time>2016-09-12T08:39:00Z</time>
      </trkpt>
      <trkpt lat="45.8588" lon="4.67281">
        <ele>205</ele>
        <time>2016-09-12T08:39:01Z</time>
      </trkpt>
      <trkpt lat="45.85881" lon="4.67272">
        <ele>205</ele>
        <time>2016-09-12T08:39:02Z</time>
      </trkpt>
      <trkpt lat="45.85883" lon="4.67263">
        <ele>205</ele>
        <time>2016-09-12T08:39:03Z</time>
      </trkpt>
      <trkpt lat="45.85883" lon="4.67254">
        <ele>205</ele>
        <time>2016-09-12T08:39:04Z</time>
      </trkpt>
      <trkpt lat="45.85884" lon="4.67246">
        <ele>204</ele>
        <time>2016-09-12T08:39:05Z</time>
      </trkpt>
      <trkpt lat="45.85885" lon="4.67236">
        <ele>204</ele>
        <time>2016-09-12T08:39:06Z</time>
      </trkpt>
      <trkpt lat="45.85886" lon="4.67227">
        <ele>204</ele>
        <time>2016-09-12T08:39:07Z</time>
      </trkpt>
      <trkpt lat="45.85887" lon="4.67219">
        <ele>204</ele>
        <time>2016-09-12T08:39:08Z</time>
      </trkpt>
      <trkpt lat="45.85888" lon="4.6721">
        <ele>204</ele>
        <time>2016-09-12T08:39:09Z</time>
      </trkpt>
      <trkpt lat="45.85888" lon="4.67201">
        <ele>204</ele>
        <time>2016-09-12T08:39:10Z</time>
      </trkpt>
      <trkpt lat="45.85889" lon="4.67192">
        <ele>204</ele>
        <time>2016-09-12T08:39:11Z</time>
      </trkpt>
      <trkpt lat="45.8589" lon="4.67184">
        <ele>204</ele>
        <time>2016-09-12T08:39:12Z</time>
      </trkpt>
      <trkpt lat="45.85891" lon="4.67176">
        <ele>205</ele>
        <time>2016-09-12T08:39:13Z</time>
      </trkpt>
      <trkpt lat="45.85892" lon="4.67168">
        <ele>205</ele>
        <time>2016-09-12T08:39:14Z</time>
      </trkpt>
      <trkpt lat="45.85893" lon="4.6716">
        <ele>205</ele>
        <time>2016-09-12T08:39:15Z</time>
      </trkpt>
      <trkpt lat="45.85894" lon="4.67153">
        <ele>204</ele>
        <time>2016-09-12T08:39:16Z</time>
      </trkpt>
      <trkpt lat="45.85894" lon="4.67145">
        <ele>204</ele>
        <time>2016-09-12T08:39:17Z</time>
      </trkpt>
      <trkpt lat="45.85895" lon="4.67137">
        <ele>204</ele>
        <time>2016-09-12T08:39:18Z</time>
      </trkpt>
      <trkpt lat="45.85896" lon="4.67129">
        <ele>204</ele>
        <time>2016-09-12T08:39:19Z</time>
      </trkpt>
      <trkpt lat="45.85897" lon="4.67121">
        <ele>204</ele>
        <time>2016-09-12T08:39:20Z</time>
      </trkpt>
      <trkpt lat="45.85898" lon="4.67113">
        <ele>204</ele>
        <time>2016-09-12T08:39:21Z</time>
      </trkpt>
      <trkpt lat="45.85899" lon="4.67105">
        <ele>204</ele>
        <time>2016-09-12T08:39:22Z</time>
      </trkpt>
      <trkpt lat="45.85899" lon="4.67096">
        <ele>204</ele>
        <time>2016-09-12T08:39:23Z</time>
      </trkpt>
      <trkpt lat="45.85901" lon="4.67088">
        <ele>204</ele>
        <time>2016-09-12T08:39:24Z</time>
      </trkpt>
      <trkpt lat="45.85902" lon="4.67079">
        <ele>204</ele>
        <time>2016-09-12T08:39:25Z</time>
      </trkpt>
      <trkpt lat="45.85903" lon="4.67071">
        <ele>205</ele>
        <time>2016-09-12T08:39:26Z</time>
      </trkpt>
      <trkpt lat="45.85905" lon="4.67064">
        <ele>205</ele>
        <time>2016-09-12T08:39:27Z</time>
      </trkpt>
      <trkpt lat="45.85906" lon="4.67056">
        <ele>205</ele>
        <time>2016-09-12T08:39:28Z</time>
      </trkpt>
      <trkpt lat="45.85908" lon="4.6705">
        <ele>205</ele>
        <time>2016-09-12T08:39:29Z</time>
      </trkpt>
      <trkpt lat="45.8591" lon="4.67043">
        <ele>205</ele>
        <time>2016-09-12T08:39:30Z</time>
      </trkpt>
      <trkpt lat="45.85911" lon="4.67036">
        <ele>205</ele>
        <time>2016-09-12T08:39:31Z</time>
      </trkpt>
      <trkpt lat="45.85912" lon="4.67029">
        <ele>205</ele>
        <time>2016-09-12T08:39:32Z</time>
      </trkpt>
      <trkpt lat="45.85913" lon="4.67023">
        <ele>205</ele>
        <time>2016-09-12T08:39:33Z</time>
      </trkpt>
      <trkpt lat="45.85915" lon="4.67017">
        <ele>205</ele>
        <time>2016-09-12T08:39:34Z</time>
      </trkpt>
      <trkpt lat="45.85918" lon="4.67005">
        <ele>207</ele>
        <time>2016-09-12T08:39:36Z</time>
      </trkpt>
      <trkpt lat="45.8592" lon="4.67">
        <ele>206</ele>
        <time>2016-09-12T08:39:37Z</time>
      </trkpt>
      <trkpt lat="45.85924" lon="4.66995">
        <ele>207</ele>
        <time>2016-09-12T08:39:38Z</time>
      </trkpt>
      <trkpt lat="45.85927" lon="4.66991">
        <ele>208</ele>
        <time>2016-09-12T08:39:39Z</time>
      </trkpt>
      <trkpt lat="45.85929" lon="4.66985">
        <ele>208</ele>
        <time>2016-09-12T08:39:40Z</time>
      </trkpt>
      <trkpt lat="45.8593" lon="4.66977">
        <ele>208</ele>
        <time>2016-09-12T08:39:41Z</time>
      </trkpt>
      <trkpt lat="45.85929" lon="4.6697">
        <ele>209</ele>
        <time>2016-09-12T08:39:42Z</time>
      </trkpt>
      <trkpt lat="45.85927" lon="4.66963">
        <ele>209</ele>
        <time>2016-09-12T08:39:43Z</time>
      </trkpt>
      <trkpt lat="45.85922" lon="4.66959">
        <ele>209</ele>
        <time>2016-09-12T08:39:44Z</time>
      </trkpt>
      <trkpt lat="45.85917" lon="4.66956">
        <ele>207</ele>
        <time>2016-09-12T08:39:45Z</time>
      </trkpt>
      <trkpt lat="45.85911" lon="4.66956">
        <ele>207</ele>
        <time>2016-09-12T08:39:46Z</time>
      </trkpt>
      <trkpt lat="45.85905" lon="4.66956">
        <ele>207</ele>
        <time>2016-09-12T08:39:47Z</time>
      </trkpt>
      <trkpt lat="45.859" lon="4.66957">
        <ele>207</ele>
        <time>2016-09-12T08:39:48Z</time>
      </trkpt>
      <trkpt lat="45.85895" lon="4.66958">
        <ele>207</ele>
        <time>2016-09-12T08:39:49Z</time>
      </trkpt>
      <trkpt lat="45.85889" lon="4.66956">
        <ele>207</ele>
        <time>2016-09-12T08:39:50Z</time>
      </trkpt>
      <trkpt lat="45.85884" lon="4.66955">
        <ele>207</ele>
        <time>2016-09-12T08:39:51Z</time>
      </trkpt>
      <trkpt lat="45.85879" lon="4.66953">
        <ele>207</ele>
        <time>2016-09-12T08:39:52Z</time>
      </trkpt>
      <trkpt lat="45.85875" lon="4.6695">
        <ele>207</ele>
        <time>2016-09-12T08:39:53Z</time>
      </trkpt>
      <trkpt lat="45.85871" lon="4.66948">
        <ele>207</ele>
        <time>2016-09-12T08:39:54Z</time>
      </trkpt>
      <trkpt lat="45.85866" lon="4.66947">
        <ele>208</ele>
        <time>2016-09-12T08:39:55Z</time>
      </trkpt>
      <trkpt lat="45.85861" lon="4.66945">
        <ele>208</ele>
        <time>2016-09-12T08:39:56Z</time>
      </trkpt>
      <trkpt lat="45.85857" lon="4.66944">
        <ele>208</ele>
        <time>2016-09-12T08:39:57Z</time>
      </trkpt>
      <trkpt lat="45.85852" lon="4.66942">
        <ele>208</ele>
        <time>2016-09-12T08:39:58Z</time>
      </trkpt>
      <trkpt lat="45.85846" lon="4.66941">
        <ele>208</ele>
        <time>2016-09-12T08:39:59Z</time>
      </trkpt>
      <trkpt lat="45.8584" lon="4.66939">
        <ele>208</ele>
        <time>2016-09-12T08:40:00Z</time>
      </trkpt>
      <trkpt lat="45.85834" lon="4.66938">
        <ele>208</ele>
        <time>2016-09-12T08:40:01Z</time>
      </trkpt>
      <trkpt lat="45.85828" lon="4.66936">
        <ele>210</ele>
        <time>2016-09-12T08:40:02Z</time>
      </trkpt>
      <trkpt lat="45.85823" lon="4.66933">
        <ele>210</ele>
        <time>2016-09-12T08:40:03Z</time>
      </trkpt>
      <trkpt lat="45.85818" lon="4.66931">
        <ele>210</ele>
        <time>2016-09-12T08:40:04Z</time>
      </trkpt>
      <trkpt lat="45.85814" lon="4.6693">
        <ele>210</ele>
        <time>2016-09-12T08:40:05Z</time>
      </trkpt>
      <trkpt lat="45.85805" lon="4.66929">
        <ele>210</ele>
        <time>2016-09-12T08:40:07Z</time>
      </trkpt>
      <trkpt lat="45.858" lon="4.66929">
        <ele>210</ele>
        <time>2016-09-12T08:40:08Z</time>
      </trkpt>
      <trkpt lat="45.85796" lon="4.66929">
        <ele>210</ele>
        <time>2016-09-12T08:40:09Z</time>
      </trkpt>
      <trkpt lat="45.85791" lon="4.6693">
        <ele>210</ele>
        <time>2016-09-12T08:40:10Z</time>
      </trkpt>
      <trkpt lat="45.85786" lon="4.66931">
        <ele>210</ele>
        <time>2016-09-12T08:40:11Z</time>
      </trkpt>
      <trkpt lat="45.85781" lon="4.66932">
        <ele>210</ele>
        <time>2016-09-12T08:40:12Z</time>
      </trkpt>
      <trkpt lat="45.85776" lon="4.66932">
        <ele>211</ele>
        <time>2016-09-12T08:40:13Z</time>
      </trkpt>
      <trkpt lat="45.85771" lon="4.66932">
        <ele>211</ele>
        <time>2016-09-12T08:40:14Z</time>
      </trkpt>
      <trkpt lat="45.85766" lon="4.66931">
        <ele>211</ele>
        <time>2016-09-12T08:40:15Z</time>
      </trkpt>
      <trkpt lat="45.85761" lon="4.6693">
        <ele>212</ele>
        <time>2016-09-12T08:40:16Z</time>
      </trkpt>
      <trkpt lat="45.85757" lon="4.66929">
        <ele>212</ele>
        <time>2016-09-12T08:40:17Z</time>
      </trkpt>
      <trkpt lat="45.85752" lon="4.66927">
        <ele>212</ele>
        <time>2016-09-12T08:40:18Z</time>
      </trkpt>
      <trkpt lat="45.85747" lon="4.66926">
        <ele>212</ele>
        <time>2016-09-12T08:40:19Z</time>
      </trkpt>
      <trkpt lat="45.85742" lon="4.66924">
        <ele>212</ele>
        <time>2016-09-12T08:40:20Z</time>
      </trkpt>
      <trkpt lat="45.85736" lon="4.66923">
        <ele>211</ele>
        <time>2016-09-12T08:40:21Z</time>
      </trkpt>
      <trkpt lat="45.85732" lon="4.66922">
        <ele>211</ele>
        <time>2016-09-12T08:40:22Z</time>
      </trkpt>
      <trkpt lat="45.85724" lon="4.66918">
        <ele>210</ele>
        <time>2016-09-12T08:40:24Z</time>
      </trkpt>
      <trkpt lat="45.8572" lon="4.66917">
        <ele>210</ele>
        <time>2016-09-12T08:40:25Z</time>
      </trkpt>
      <trkpt lat="45.85711" lon="4.66914">
        <ele>213</ele>
        <time>2016-09-12T08:40:27Z</time>
      </trkpt>
      <trkpt lat="45.85706" lon="4.66913">
        <ele>213</ele>
        <time>2016-09-12T08:40:28Z</time>
      </trkpt>
      <trkpt lat="45.85702" lon="4.66911">
        <ele>213</ele>
        <time>2016-09-12T08:40:29Z</time>
      </trkpt>
      <trkpt lat="45.85697" lon="4.6691">
        <ele>212</ele>
        <time>2016-09-12T08:40:30Z</time>
      </trkpt>
      <trkpt lat="45.85688" lon="4.6691">
        <ele>212</ele>
        <time>2016-09-12T08:40:32Z</time>
      </trkpt>
      <trkpt lat="45.85683" lon="4.66909">
        <ele>211</ele>
        <time>2016-09-12T08:40:33Z</time>
      </trkpt>
      <trkpt lat="45.85678" lon="4.66907">
        <ele>211</ele>
        <time>2016-09-12T08:40:34Z</time>
      </trkpt>
      <trkpt lat="45.85673" lon="4.66905">
        <ele>211</ele>
        <time>2016-09-12T08:40:35Z</time>
      </trkpt>
      <trkpt lat="45.85669" lon="4.66903">
        <ele>211</ele>
        <time>2016-09-12T08:40:36Z</time>
      </trkpt>
      <trkpt lat="45.85664" lon="4.66901">
        <ele>208</ele>
        <time>2016-09-12T08:40:37Z</time>
      </trkpt>
      <trkpt lat="45.85656" lon="4.66896">
        <ele>208</ele>
        <time>2016-09-12T08:40:39Z</time>
      </trkpt>
      <trkpt lat="45.85652" lon="4.66892">
        <ele>208</ele>
        <time>2016-09-12T08:40:40Z</time>
      </trkpt>
      <trkpt lat="45.85646" lon="4.66884">
        <ele>208</ele>
        <time>2016-09-12T08:40:42Z</time>
      </trkpt>
      <trkpt lat="45.85643" lon="4.66878">
        <ele>208</ele>
        <time>2016-09-12T08:40:43Z</time>
      </trkpt>
      <trkpt lat="45.85639" lon="4.66867">
        <ele>208</ele>
        <time>2016-09-12T08:40:45Z</time>
      </trkpt>
      <trkpt lat="45.85637" lon="4.66861">
        <ele>209</ele>
        <time>2016-09-12T08:40:46Z</time>
      </trkpt>
      <trkpt lat="45.85635" lon="4.66849">
        <ele>209</ele>
        <time>2016-09-12T08:40:48Z</time>
      </trkpt>
      <trkpt lat="45.85635" lon="4.66842">
        <ele>209</ele>
        <time>2016-09-12T08:40:49Z</time>
      </trkpt>
      <trkpt lat="45.85634" lon="4.66836">
        <ele>209</ele>
        <time>2016-09-12T08:40:50Z</time>
      </trkpt>
      <trkpt lat="45.85634" lon="4.66829">
        <ele>210</ele>
        <time>2016-09-12T08:40:51Z</time>
      </trkpt>
      <trkpt lat="45.85633" lon="4.66822">
        <ele>210</ele>
        <time>2016-09-12T08:40:52Z</time>
      </trkpt>
      <trkpt lat="45.85633" lon="4.66816">
        <ele>210</ele>
        <time>2016-09-12T08:40:53Z</time>
      </trkpt>
      <trkpt lat="45.85632" lon="4.66809">
        <ele>210</ele>
        <time>2016-09-12T08:40:54Z</time>
      </trkpt>
      <trkpt lat="45.85632" lon="4.66802">
        <ele>210</ele>
        <time>2016-09-12T08:40:55Z</time>
      </trkpt>
      <trkpt lat="45.85631" lon="4.66795">
        <ele>210</ele>
        <time>2016-09-12T08:40:56Z</time>
      </trkpt>
      <trkpt lat="45.8563" lon="4.66789">
        <ele>210</ele>
        <time>2016-09-12T08:40:57Z</time>
      </trkpt>
      <trkpt lat="45.85629" lon="4.66782">
        <ele>210</ele>
        <time>2016-09-12T08:40:58Z</time>
      </trkpt>
      <trkpt lat="45.85628" lon="4.66775">
        <ele>210</ele>
        <time>2016-09-12T08:40:59Z</time>
      </trkpt>
      <trkpt lat="45.85628" lon="4.66768">
        <ele>211</ele>
        <time>2016-09-12T08:41:00Z</time>
      </trkpt>
      <trkpt lat="45.85628" lon="4.66761">
        <ele>211</ele>
        <time>2016-09-12T08:41:01Z</time>
      </trkpt>
      <trkpt lat="45.85627" lon="4.66754">
        <ele>211</ele>
        <time>2016-09-12T08:41:02Z</time>
      </trkpt>
      <trkpt lat="45.85627" lon="4.66747">
        <ele>212</ele>
        <time>2016-09-12T08:41:03Z</time>
      </trkpt>
      <trkpt lat="45.85626" lon="4.66739">
        <ele>212</ele>
        <time>2016-09-12T08:41:04Z</time>
      </trkpt>
      <trkpt lat="45.85625" lon="4.66732">
        <ele>212</ele>
        <time>2016-09-12T08:41:05Z</time>
      </trkpt>
      <trkpt lat="45.85625" lon="4.66725">
        <ele>212</ele>
        <time>2016-09-12T08:41:06Z</time>
      </trkpt>
      <trkpt lat="45.85625" lon="4.66718">
        <ele>212</ele>
        <time>2016-09-12T08:41:07Z</time>
      </trkpt>
      <trkpt lat="45.85624" lon="4.66712">
        <ele>212</ele>
        <time>2016-09-12T08:41:08Z</time>
      </trkpt>
      <trkpt lat="45.85624" lon="4.66705">
        <ele>212</ele>
        <time>2016-09-12T08:41:09Z</time>
      </trkpt>
      <trkpt lat="45.85623" lon="4.66698">
        <ele>212</ele>
        <time>2016-09-12T08:41:10Z</time>
      </trkpt>
      <trkpt lat="45.85623" lon="4.66691">
        <ele>212</ele>
        <time>2016-09-12T08:41:11Z</time>
      </trkpt>
      <trkpt lat="45.85622" lon="4.66684">
        <ele>212</ele>
        <time>2016-09-12T08:41:12Z</time>
      </trkpt>
      <trkpt lat="45.85622" lon="4.66677">
        <ele>212</ele>
        <time>2016-09-12T08:41:13Z</time>
      </trkpt>
      <trkpt lat="45.85622" lon="4.6667">
        <ele>212</ele>
        <time>2016-09-12T08:41:14Z</time>
      </trkpt>
      <trkpt lat="45.85622" lon="4.66663">
        <ele>213</ele>
        <time>2016-09-12T08:41:15Z</time>
      </trkpt>
      <trkpt lat="45.85622" lon="4.66656">
        <ele>213</ele>
        <time>2016-09-12T08:41:16Z</time>
      </trkpt>
      <trkpt lat="45.85622" lon="4.66649">
        <ele>213</ele>
        <time>2016-09-12T08:41:17Z</time>
      </trkpt>
      <trkpt lat="45.85623" lon="4.66642">
        <ele>213</ele>
        <time>2016-09-12T08:41:18Z</time>
      </trkpt>
      <trkpt lat="45.85623" lon="4.66635">
        <ele>213</ele>
        <time>2016-09-12T08:41:19Z</time>
      </trkpt>
      <trkpt lat="45.85623" lon="4.66627">
        <ele>213</ele>
        <time>2016-09-12T08:41:20Z</time>
      </trkpt>
      <trkpt lat="45.85623" lon="4.6662">
        <ele>213</ele>
        <time>2016-09-12T08:41:21Z</time>
      </trkpt>
      <trkpt lat="45.85623" lon="4.66612">
        <ele>213</ele>
        <time>2016-09-12T08:41:22Z</time>
      </trkpt>
      <trkpt lat="45.85624" lon="4.66605">
        <ele>213</ele>
        <time>2016-09-12T08:41:23Z</time>
      </trkpt>
      <trkpt lat="45.85624" lon="4.66597">
        <ele>213</ele>
        <time>2016-09-12T08:41:24Z</time>
      </trkpt>
      <trkpt lat="45.85625" lon="4.6659">
        <ele>213</ele>
        <time>2016-09-12T08:41:25Z</time>
      </trkpt>
      <trkpt lat="45.85626" lon="4.66584">
        <ele>213</ele>
        <time>2016-09-12T08:41:26Z</time>
      </trkpt>
      <trkpt lat="45.85626" lon="4.66577">
        <ele>214</ele>
        <time>2016-09-12T08:41:27Z</time>
      </trkpt>
      <trkpt lat="45.85627" lon="4.66571">
        <ele>214</ele>
        <time>2016-09-12T08:41:28Z</time>
      </trkpt>
      <trkpt lat="45.85628" lon="4.66563">
        <ele>214</ele>
        <time>2016-09-12T08:41:29Z</time>
      </trkpt>
      <trkpt lat="45.8563" lon="4.66556">
        <ele>214</ele>
        <time>2016-09-12T08:41:30Z</time>
      </trkpt>
      <trkpt lat="45.85631" lon="4.66549">
        <ele>214</ele>
        <time>2016-09-12T08:41:31Z</time>
      </trkpt>
      <trkpt lat="45.85631" lon="4.66542">
        <ele>214</ele>
        <time>2016-09-12T08:41:32Z</time>
      </trkpt>
      <trkpt lat="45.85632" lon="4.66534">
        <ele>214</ele>
        <time>2016-09-12T08:41:33Z</time>
      </trkpt>
      <trkpt lat="45.85633" lon="4.66526">
        <ele>214</ele>
        <time>2016-09-12T08:41:34Z</time>
      </trkpt>
      <trkpt lat="45.85634" lon="4.66518">
        <ele>214</ele>
        <time>2016-09-12T08:41:35Z</time>
      </trkpt>
      <trkpt lat="45.85634" lon="4.66511">
        <ele>214</ele>
        <time>2016-09-12T08:41:36Z</time>
      </trkpt>
      <trkpt lat="45.85634" lon="4.66503">
        <ele>214</ele>
        <time>2016-09-12T08:41:37Z</time>
      </trkpt>
      <trkpt lat="45.85635" lon="4.66495">
        <ele>215</ele>
        <time>2016-09-12T08:41:38Z</time>
      </trkpt>
      <trkpt lat="45.85635" lon="4.66488">
        <ele>215</ele>
        <time>2016-09-12T08:41:39Z</time>
      </trkpt>
      <trkpt lat="45.85636" lon="4.66481">
        <ele>215</ele>
        <time>2016-09-12T08:41:40Z</time>
      </trkpt>
      <trkpt lat="45.85637" lon="4.66474">
        <ele>215</ele>
        <time>2016-09-12T08:41:41Z</time>
      </trkpt>
      <trkpt lat="45.85637" lon="4.66467">
        <ele>215</ele>
        <time>2016-09-12T08:41:42Z</time>
      </trkpt>
      <trkpt lat="45.85638" lon="4.6646">
        <ele>215</ele>
        <time>2016-09-12T08:41:43Z</time>
      </trkpt>
      <trkpt lat="45.85638" lon="4.66453">
        <ele>215</ele>
        <time>2016-09-12T08:41:44Z</time>
      </trkpt>
      <trkpt lat="45.85639" lon="4.66446">
        <ele>215</ele>
        <time>2016-09-12T08:41:45Z</time>
      </trkpt>
      <trkpt lat="45.8564" lon="4.66439">
        <ele>215</ele>
        <time>2016-09-12T08:41:46Z</time>
      </trkpt>
      <trkpt lat="45.85641" lon="4.66432">
        <ele>216</ele>
        <time>2016-09-12T08:41:47Z</time>
      </trkpt>
      <trkpt lat="45.85642" lon="4.66426">
        <ele>216</ele>
        <time>2016-09-12T08:41:48Z</time>
      </trkpt>
      <trkpt lat="45.85643" lon="4.66419">
        <ele>216</ele>
        <time>2016-09-12T08:41:49Z</time>
      </trkpt>
      <trkpt lat="45.85644" lon="4.66412">
        <ele>216</ele>
        <time>2016-09-12T08:41:50Z</time>
      </trkpt>
      <trkpt lat="45.85646" lon="4.66405">
        <ele>216</ele>
        <time>2016-09-12T08:41:51Z</time>
      </trkpt>
      <trkpt lat="45.85648" lon="4.66399">
        <ele>215</ele>
        <time>2016-09-12T08:41:52Z</time>
      </trkpt>
      <trkpt lat="45.8565" lon="4.66393">
        <ele>215</ele>
        <time>2016-09-12T08:41:53Z</time>
      </trkpt>
      <trkpt lat="45.85652" lon="4.66386">
        <ele>215</ele>
        <time>2016-09-12T08:41:54Z</time>
      </trkpt>
      <trkpt lat="45.85654" lon="4.66379">
        <ele>215</ele>
        <time>2016-09-12T08:41:55Z</time>
      </trkpt>
      <trkpt lat="45.85656" lon="4.66372">
        <ele>214</ele>
        <time>2016-09-12T08:41:56Z</time>
      </trkpt>
      <trkpt lat="45.85659" lon="4.66365">
        <ele>214</ele>
        <time>2016-09-12T08:41:57Z</time>
      </trkpt>
      <trkpt lat="45.85662" lon="4.66358">
        <ele>214</ele>
        <time>2016-09-12T08:41:58Z</time>
      </trkpt>
      <trkpt lat="45.85665" lon="4.66351">
        <ele>215</ele>
        <time>2016-09-12T08:41:59Z</time>
      </trkpt>
      <trkpt lat="45.85667" lon="4.66343">
        <ele>219</ele>
        <time>2016-09-12T08:42:00Z</time>
      </trkpt>
      <trkpt lat="45.85669" lon="4.66335">
        <ele>217</ele>
        <time>2016-09-12T08:42:01Z</time>
      </trkpt>
      <trkpt lat="45.85671" lon="4.66327">
        <ele>218</ele>
        <time>2016-09-12T08:42:02Z</time>
      </trkpt>
      <trkpt lat="45.85674" lon="4.66319">
        <ele>220</ele>
        <time>2016-09-12T08:42:03Z</time>
      </trkpt>
      <trkpt lat="45.85677" lon="4.66309">
        <ele>221</ele>
        <time>2016-09-12T08:42:04Z</time>
      </trkpt>
      <trkpt lat="45.85678" lon="4.663">
        <ele>221</ele>
        <time>2016-09-12T08:42:05Z</time>
      </trkpt>
      <trkpt lat="45.85682" lon="4.66291">
        <ele>221</ele>
        <time>2016-09-12T08:42:06Z</time>
      </trkpt>
      <trkpt lat="45.85684" lon="4.66282">
        <ele>221</ele>
        <time>2016-09-12T08:42:07Z</time>
      </trkpt>
      <trkpt lat="45.85687" lon="4.66274">
        <ele>221</ele>
        <time>2016-09-12T08:42:08Z</time>
      </trkpt>
      <trkpt lat="45.85689" lon="4.66265">
        <ele>221</ele>
        <time>2016-09-12T08:42:09Z</time>
      </trkpt>
      <trkpt lat="45.8569" lon="4.66257">
        <ele>220</ele>
        <time>2016-09-12T08:42:10Z</time>
      </trkpt>
      <trkpt lat="45.85692" lon="4.66248">
        <ele>220</ele>
        <time>2016-09-12T08:42:11Z</time>
      </trkpt>
      <trkpt lat="45.85694" lon="4.6624">
        <ele>220</ele>
        <time>2016-09-12T08:42:12Z</time>
      </trkpt>
      <trkpt lat="45.85696" lon="4.66231">
        <ele>220</ele>
        <time>2016-09-12T08:42:13Z</time>
      </trkpt>
      <trkpt lat="45.85698" lon="4.66222">
        <ele>221</ele>
        <time>2016-09-12T08:42:14Z</time>
      </trkpt>
      <trkpt lat="45.857" lon="4.66214">
        <ele>221</ele>
        <time>2016-09-12T08:42:15Z</time>
      </trkpt>
      <trkpt lat="45.85702" lon="4.66205">
        <ele>221</ele>
        <time>2016-09-12T08:42:16Z</time>
      </trkpt>
      <trkpt lat="45.85704" lon="4.66196">
        <ele>221</ele>
        <time>2016-09-12T08:42:17Z</time>
      </trkpt>
      <trkpt lat="45.85706" lon="4.66187">
        <ele>221</ele>
        <time>2016-09-12T08:42:18Z</time>
      </trkpt>
      <trkpt lat="45.85708" lon="4.66178">
        <ele>221</ele>
        <time>2016-09-12T08:42:19Z</time>
      </trkpt>
      <trkpt lat="45.85709" lon="4.66169">
        <ele>221</ele>
        <time>2016-09-12T08:42:20Z</time>
      </trkpt>
      <trkpt lat="45.8571" lon="4.6616">
        <ele>220</ele>
        <time>2016-09-12T08:42:21Z</time>
      </trkpt>
      <trkpt lat="45.85711" lon="4.66151">
        <ele>220</ele>
        <time>2016-09-12T08:42:22Z</time>
      </trkpt>
      <trkpt lat="45.85713" lon="4.66142">
        <ele>220</ele>
        <time>2016-09-12T08:42:23Z</time>
      </trkpt>
      <trkpt lat="45.85714" lon="4.66133">
        <ele>219</ele>
        <time>2016-09-12T08:42:24Z</time>
      </trkpt>
      <trkpt lat="45.85716" lon="4.66124">
        <ele>219</ele>
        <time>2016-09-12T08:42:25Z</time>
      </trkpt>
      <trkpt lat="45.85717" lon="4.66115">
        <ele>219</ele>
        <time>2016-09-12T08:42:26Z</time>
      </trkpt>
      <trkpt lat="45.85719" lon="4.66106">
        <ele>219</ele>
        <time>2016-09-12T08:42:27Z</time>
      </trkpt>
      <trkpt lat="45.85721" lon="4.66098">
        <ele>220</ele>
        <time>2016-09-12T08:42:28Z</time>
      </trkpt>
      <trkpt lat="45.85723" lon="4.6609">
        <ele>220</ele>
        <time>2016-09-12T08:42:29Z</time>
      </trkpt>
      <trkpt lat="45.85725" lon="4.66081">
        <ele>218</ele>
        <time>2016-09-12T08:42:30Z</time>
      </trkpt>
      <trkpt lat="45.85726" lon="4.66073">
        <ele>218</ele>
        <time>2016-09-12T08:42:31Z</time>
      </trkpt>
      <trkpt lat="45.85728" lon="4.66064">
        <ele>217</ele>
        <time>2016-09-12T08:42:32Z</time>
      </trkpt>
      <trkpt lat="45.8573" lon="4.66055">
        <ele>217</ele>
        <time>2016-09-12T08:42:33Z</time>
      </trkpt>
      <trkpt lat="45.85731" lon="4.66046">
        <ele>216</ele>
        <time>2016-09-12T08:42:34Z</time>
      </trkpt>
      <trkpt lat="45.85733" lon="4.66037">
        <ele>216</ele>
        <time>2016-09-12T08:42:35Z</time>
      </trkpt>
      <trkpt lat="45.85735" lon="4.6603">
        <ele>216</ele>
        <time>2016-09-12T08:42:36Z</time>
      </trkpt>
      <trkpt lat="45.85737" lon="4.66022">
        <ele>216</ele>
        <time>2016-09-12T08:42:37Z</time>
      </trkpt>
      <trkpt lat="45.8574" lon="4.66014">
        <ele>216</ele>
        <time>2016-09-12T08:42:38Z</time>
      </trkpt>
      <trkpt lat="45.85743" lon="4.66007">
        <ele>216</ele>
        <time>2016-09-12T08:42:39Z</time>
      </trkpt>
      <trkpt lat="45.85746" lon="4.65999">
        <ele>216</ele>
        <time>2016-09-12T08:42:40Z</time>
      </trkpt>
      <trkpt lat="45.85749" lon="4.65992">
        <ele>215</ele>
        <time>2016-09-12T08:42:41Z</time>
      </trkpt>
      <trkpt lat="45.85753" lon="4.65985">
        <ele>220</ele>
        <time>2016-09-12T08:42:42Z</time>
      </trkpt>
      <trkpt lat="45.85757" lon="4.65978">
        <ele>221</ele>
        <time>2016-09-12T08:42:43Z</time>
      </trkpt>
      <trkpt lat="45.85762" lon="4.65972">
        <ele>222</ele>
        <time>2016-09-12T08:42:44Z</time>
      </trkpt>
      <trkpt lat="45.85766" lon="4.65966">
        <ele>222</ele>
        <time>2016-09-12T08:42:45Z</time>
      </trkpt>
      <trkpt lat="45.8577" lon="4.65961">
        <ele>222</ele>
        <time>2016-09-12T08:42:46Z</time>
      </trkpt>
      <trkpt lat="45.85775" lon="4.65956">
        <ele>222</ele>
        <time>2016-09-12T08:42:47Z</time>
      </trkpt>
      <trkpt lat="45.85779" lon="4.6595">
        <ele>222</ele>
        <time>2016-09-12T08:42:48Z</time>
      </trkpt>
      <trkpt lat="45.85784" lon="4.65945">
        <ele>222</ele>
        <time>2016-09-12T08:42:49Z</time>
      </trkpt>
      <trkpt lat="45.85788" lon="4.65941">
        <ele>223</ele>
        <time>2016-09-12T08:42:50Z</time>
      </trkpt>
      <trkpt lat="45.85793" lon="4.65937">
        <ele>223</ele>
        <time>2016-09-12T08:42:51Z</time>
      </trkpt>
      <trkpt lat="45.85798" lon="4.65933">
        <ele>223</ele>
        <time>2016-09-12T08:42:52Z</time>
      </trkpt>
      <trkpt lat="45.85803" lon="4.65928">
        <ele>223</ele>
        <time>2016-09-12T08:42:53Z</time>
      </trkpt>
      <trkpt lat="45.85807" lon="4.65924">
        <ele>224</ele>
        <time>2016-09-12T08:42:54Z</time>
      </trkpt>
      <trkpt lat="45.85812" lon="4.6592">
        <ele>224</ele>
        <time>2016-09-12T08:42:55Z</time>
      </trkpt>
      <trkpt lat="45.85816" lon="4.65914">
        <ele>219</ele>
        <time>2016-09-12T08:42:56Z</time>
      </trkpt>
      <trkpt lat="45.85821" lon="4.65909">
        <ele>219</ele>
        <time>2016-09-12T08:42:57Z</time>
      </trkpt>
      <trkpt lat="45.85825" lon="4.65904">
        <ele>219</ele>
        <time>2016-09-12T08:42:58Z</time>
      </trkpt>
      <trkpt lat="45.8583" lon="4.65899">
        <ele>218</ele>
        <time>2016-09-12T08:42:59Z</time>
      </trkpt>
      <trkpt lat="45.85835" lon="4.65894">
        <ele>223</ele>
        <time>2016-09-12T08:43:00Z</time>
      </trkpt>
      <trkpt lat="45.8584" lon="4.65889">
        <ele>222</ele>
        <time>2016-09-12T08:43:01Z</time>
      </trkpt>
      <trkpt lat="45.85845" lon="4.65883">
        <ele>222</ele>
        <time>2016-09-12T08:43:02Z</time>
      </trkpt>
      <trkpt lat="45.85848" lon="4.65877">
        <ele>221</ele>
        <time>2016-09-12T08:43:03Z</time>
      </trkpt>
      <trkpt lat="45.85852" lon="4.65871">
        <ele>220</ele>
        <time>2016-09-12T08:43:04Z</time>
      </trkpt>
      <trkpt lat="45.85855" lon="4.65862">
        <ele>219</ele>
        <time>2016-09-12T08:43:05Z</time>
      </trkpt>
      <trkpt lat="45.85859" lon="4.65855">
        <ele>219</ele>
        <time>2016-09-12T08:43:06Z</time>
      </trkpt>
      <trkpt lat="45.85863" lon="4.65847">
        <ele>218</ele>
        <time>2016-09-12T08:43:07Z</time>
      </trkpt>
      <trkpt lat="45.85867" lon="4.6584">
        <ele>218</ele>
        <time>2016-09-12T08:43:08Z</time>
      </trkpt>
      <trkpt lat="45.8587" lon="4.65833">
        <ele>210</ele>
        <time>2016-09-12T08:43:09Z</time>
      </trkpt>
      <trkpt lat="45.85874" lon="4.65824">
        <ele>210</ele>
        <time>2016-09-12T08:43:10Z</time>
      </trkpt>
      <trkpt lat="45.85875" lon="4.65817">
        <ele>210</ele>
        <time>2016-09-12T08:43:11Z</time>
      </trkpt>
      <trkpt lat="45.85877" lon="4.65809">
        <ele>210</ele>
        <time>2016-09-12T08:43:12Z</time>
      </trkpt>
      <trkpt lat="45.85879" lon="4.65802">
        <ele>210</ele>
        <time>2016-09-12T08:43:13Z</time>
      </trkpt>
      <trkpt lat="45.8588" lon="4.65794">
        <ele>209</ele>
        <time>2016-09-12T08:43:14Z</time>
      </trkpt>
      <trkpt lat="45.85881" lon="4.65787">
        <ele>209</ele>
        <time>2016-09-12T08:43:15Z</time>
      </trkpt>
      <trkpt lat="45.85882" lon="4.65779">
        <ele>209</ele>
        <time>2016-09-12T08:43:16Z</time>
      </trkpt>
      <trkpt lat="45.85883" lon="4.65771">
        <ele>209</ele>
        <time>2016-09-12T08:43:17Z</time>
      </trkpt>
      <trkpt lat="45.85884" lon="4.65763">
        <ele>208</ele>
        <time>2016-09-12T08:43:18Z</time>
      </trkpt>
      <trkpt lat="45.85884" lon="4.65754">
        <ele>208</ele>
        <time>2016-09-12T08:43:19Z</time>
      </trkpt>
      <trkpt lat="45.85883" lon="4.65746">
        <ele>207</ele>
        <time>2016-09-12T08:43:20Z</time>
      </trkpt>
      <trkpt lat="45.85882" lon="4.65738">
        <ele>207</ele>
        <time>2016-09-12T08:43:21Z</time>
      </trkpt>
      <trkpt lat="45.8588" lon="4.6573">
        <ele>208</ele>
        <time>2016-09-12T08:43:22Z</time>
      </trkpt>
      <trkpt lat="45.85879" lon="4.65721">
        <ele>208</ele>
        <time>2016-09-12T08:43:23Z</time>
      </trkpt>
      <trkpt lat="45.85877" lon="4.65712">
        <ele>208</ele>
        <time>2016-09-12T08:43:24Z</time>
      </trkpt>
      <trkpt lat="45.85875" lon="4.65704">
        <ele>208</ele>
        <time>2016-09-12T08:43:25Z</time>
      </trkpt>
      <trkpt lat="45.85873" lon="4.65696">
        <ele>208</ele>
        <time>2016-09-12T08:43:26Z</time>
      </trkpt>
      <trkpt lat="45.85869" lon="4.65688">
        <ele>208</ele>
        <time>2016-09-12T08:43:27Z</time>
      </trkpt>
      <trkpt lat="45.85866" lon="4.6568">
        <ele>209</ele>
        <time>2016-09-12T08:43:28Z</time>
      </trkpt>
      <trkpt lat="45.85862" lon="4.65672">
        <ele>209</ele>
        <time>2016-09-12T08:43:29Z</time>
      </trkpt>
      <trkpt lat="45.85858" lon="4.65664">
        <ele>212</ele>
        <time>2016-09-12T08:43:30Z</time>
      </trkpt>
      <trkpt lat="45.85854" lon="4.65657">
        <ele>212</ele>
        <time>2016-09-12T08:43:31Z</time>
      </trkpt>
      <trkpt lat="45.8585" lon="4.6565">
        <ele>212</ele>
        <time>2016-09-12T08:43:32Z</time>
      </trkpt>
      <trkpt lat="45.85846" lon="4.65644">
        <ele>212</ele>
        <time>2016-09-12T08:43:33Z</time>
      </trkpt>
      <trkpt lat="45.85842" lon="4.65637">
        <ele>212</ele>
        <time>2016-09-12T08:43:34Z</time>
      </trkpt>
      <trkpt lat="45.85838" lon="4.65631">
        <ele>212</ele>
        <time>2016-09-12T08:43:35Z</time>
      </trkpt>
      <trkpt lat="45.85835" lon="4.65625">
        <ele>213</ele>
        <time>2016-09-12T08:43:36Z</time>
      </trkpt>
      <trkpt lat="45.8583" lon="4.65618">
        <ele>212</ele>
        <time>2016-09-12T08:43:37Z</time>
      </trkpt>
      <trkpt lat="45.85826" lon="4.65612">
        <ele>212</ele>
        <time>2016-09-12T08:43:38Z</time>
      </trkpt>
      <trkpt lat="45.85822" lon="4.65604">
        <ele>213</ele>
        <time>2016-09-12T08:43:39Z</time>
      </trkpt>
      <trkpt lat="45.85818" lon="4.65597">
        <ele>213</ele>
        <time>2016-09-12T08:43:40Z</time>
      </trkpt>
      <trkpt lat="45.85814" lon="4.65589">
        <ele>213</ele>
        <time>2016-09-12T08:43:41Z</time>
      </trkpt>
      <trkpt lat="45.85811" lon="4.65584">
        <ele>213</ele>
        <time>2016-09-12T08:43:42Z</time>
      </trkpt>
      <trkpt lat="45.85807" lon="4.65578">
        <ele>214</ele>
        <time>2016-09-12T08:43:43Z</time>
      </trkpt>
      <trkpt lat="45.85803" lon="4.65571">
        <ele>214</ele>
        <time>2016-09-12T08:43:44Z</time>
      </trkpt>
      <trkpt lat="45.858" lon="4.65565">
        <ele>214</ele>
        <time>2016-09-12T08:43:45Z</time>
      </trkpt>
      <trkpt lat="45.85796" lon="4.65557">
        <ele>214</ele>
        <time>2016-09-12T08:43:46Z</time>
      </trkpt>
      <trkpt lat="45.85793" lon="4.65551">
        <ele>213</ele>
        <time>2016-09-12T08:43:47Z</time>
      </trkpt>
      <trkpt lat="45.85789" lon="4.65545">
        <ele>213</ele>
        <time>2016-09-12T08:43:48Z</time>
      </trkpt>
      <trkpt lat="45.85786" lon="4.65539">
        <ele>213</ele>
        <time>2016-09-12T08:43:49Z</time>
      </trkpt>
      <trkpt lat="45.85783" lon="4.65533">
        <ele>213</ele>
        <time>2016-09-12T08:43:50Z</time>
      </trkpt>
      <trkpt lat="45.8578" lon="4.65527">
        <ele>213</ele>
        <time>2016-09-12T08:43:51Z</time>
      </trkpt>
      <trkpt lat="45.85777" lon="4.6552">
        <ele>213</ele>
        <time>2016-09-12T08:43:52Z</time>
      </trkpt>
      <trkpt lat="45.85775" lon="4.65513">
        <ele>213</ele>
        <time>2016-09-12T08:43:53Z</time>
      </trkpt>
      <trkpt lat="45.85772" lon="4.65506">
        <ele>212</ele>
        <time>2016-09-12T08:43:54Z</time>
      </trkpt>
      <trkpt lat="45.85769" lon="4.65499">
        <ele>213</ele>
        <time>2016-09-12T08:43:55Z</time>
      </trkpt>
      <trkpt lat="45.85766" lon="4.65492">
        <ele>213</ele>
        <time>2016-09-12T08:43:56Z</time>
      </trkpt>
      <trkpt lat="45.85764" lon="4.65484">
        <ele>214</ele>
        <time>2016-09-12T08:43:57Z</time>
      </trkpt>
      <trkpt lat="45.85761" lon="4.65477">
        <ele>214</ele>
        <time>2016-09-12T08:43:58Z</time>
      </trkpt>
      <trkpt lat="45.85758" lon="4.65469">
        <ele>214</ele>
        <time>2016-09-12T08:43:59Z</time>
      </trkpt>
      <trkpt lat="45.85756" lon="4.65462">
        <ele>215</ele>
        <time>2016-09-12T08:44:00Z</time>
      </trkpt>
      <trkpt lat="45.85754" lon="4.65455">
        <ele>215</ele>
        <time>2016-09-12T08:44:01Z</time>
      </trkpt>
      <trkpt lat="45.85752" lon="4.65448">
        <ele>215</ele>
        <time>2016-09-12T08:44:02Z</time>
      </trkpt>
      <trkpt lat="45.8575" lon="4.65442">
        <ele>215</ele>
        <time>2016-09-12T08:44:03Z</time>
      </trkpt>
      <trkpt lat="45.85748" lon="4.65435">
        <ele>212</ele>
        <time>2016-09-12T08:44:04Z</time>
      </trkpt>
      <trkpt lat="45.85746" lon="4.65429">
        <ele>213</ele>
        <time>2016-09-12T08:44:05Z</time>
      </trkpt>
      <trkpt lat="45.85745" lon="4.65423">
        <ele>213</ele>
        <time>2016-09-12T08:44:06Z</time>
      </trkpt>
      <trkpt lat="45.85743" lon="4.65417">
        <ele>214</ele>
        <time>2016-09-12T08:44:07Z</time>
      </trkpt>
      <trkpt lat="45.85741" lon="4.6541">
        <ele>214</ele>
        <time>2016-09-12T08:44:08Z</time>
      </trkpt>
      <trkpt lat="45.85739" lon="4.65404">
        <ele>214</ele>
        <time>2016-09-12T08:44:09Z</time>
      </trkpt>
      <trkpt lat="45.85737" lon="4.65397">
        <ele>214</ele>
        <time>2016-09-12T08:44:10Z</time>
      </trkpt>
      <trkpt lat="45.85735" lon="4.6539">
        <ele>214</ele>
        <time>2016-09-12T08:44:11Z</time>
      </trkpt>
      <trkpt lat="45.85732" lon="4.65383">
        <ele>214</ele>
        <time>2016-09-12T08:44:12Z</time>
      </trkpt>
      <trkpt lat="45.85729" lon="4.65376">
        <ele>214</ele>
        <time>2016-09-12T08:44:13Z</time>
      </trkpt>
      <trkpt lat="45.85726" lon="4.65369">
        <ele>214</ele>
        <time>2016-09-12T08:44:14Z</time>
      </trkpt>
      <trkpt lat="45.85723" lon="4.65362">
        <ele>215</ele>
        <time>2016-09-12T08:44:15Z</time>
      </trkpt>
      <trkpt lat="45.8572" lon="4.65356">
        <ele>215</ele>
        <time>2016-09-12T08:44:16Z</time>
      </trkpt>
      <trkpt lat="45.85717" lon="4.6535">
        <ele>215</ele>
        <time>2016-09-12T08:44:17Z</time>
      </trkpt>
      <trkpt lat="45.85714" lon="4.65344">
        <ele>214</ele>
        <time>2016-09-12T08:44:18Z</time>
      </trkpt>
      <trkpt lat="45.85711" lon="4.65338">
        <ele>214</ele>
        <time>2016-09-12T08:44:19Z</time>
      </trkpt>
      <trkpt lat="45.85708" lon="4.65333">
        <ele>218</ele>
        <time>2016-09-12T08:44:20Z</time>
      </trkpt>
      <trkpt lat="45.85704" lon="4.65327">
        <ele>217</ele>
        <time>2016-09-12T08:44:21Z</time>
      </trkpt>
      <trkpt lat="45.85701" lon="4.65322">
        <ele>217</ele>
        <time>2016-09-12T08:44:22Z</time>
      </trkpt>
      <trkpt lat="45.85697" lon="4.65316">
        <ele>217</ele>
        <time>2016-09-12T08:44:23Z</time>
      </trkpt>
      <trkpt lat="45.85693" lon="4.65311">
        <ele>217</ele>
        <time>2016-09-12T08:44:24Z</time>
      </trkpt>
      <trkpt lat="45.85689" lon="4.65306">
        <ele>217</ele>
        <time>2016-09-12T08:44:25Z</time>
      </trkpt>
      <trkpt lat="45.85685" lon="4.65301">
        <ele>217</ele>
        <time>2016-09-12T08:44:26Z</time>
      </trkpt>
      <trkpt lat="45.8568" lon="4.65296">
        <ele>217</ele>
        <time>2016-09-12T08:44:27Z</time>
      </trkpt>
      <trkpt lat="45.85675" lon="4.65291">
        <ele>218</ele>
        <time>2016-09-12T08:44:28Z</time>
      </trkpt>
      <trkpt lat="45.8567" lon="4.65286">
        <ele>218</ele>
        <time>2016-09-12T08:44:29Z</time>
      </trkpt>
      <trkpt lat="45.85666" lon="4.65281">
        <ele>214</ele>
        <time>2016-09-12T08:44:30Z</time>
      </trkpt>
      <trkpt lat="45.85661" lon="4.65277">
        <ele>214</ele>
        <time>2016-09-12T08:44:31Z</time>
      </trkpt>
      <trkpt lat="45.85656" lon="4.65273">
        <ele>214</ele>
        <time>2016-09-12T08:44:32Z</time>
      </trkpt>
      <trkpt lat="45.85651" lon="4.65269">
        <ele>214</ele>
        <time>2016-09-12T08:44:33Z</time>
      </trkpt>
      <trkpt lat="45.85645" lon="4.65265">
        <ele>214</ele>
        <time>2016-09-12T08:44:34Z</time>
      </trkpt>
      <trkpt lat="45.8564" lon="4.65261">
        <ele>214</ele>
        <time>2016-09-12T08:44:35Z</time>
      </trkpt>
      <trkpt lat="45.85635" lon="4.65258">
        <ele>214</ele>
        <time>2016-09-12T08:44:36Z</time>
      </trkpt>
      <trkpt lat="45.85629" lon="4.65256">
        <ele>214</ele>
        <time>2016-09-12T08:44:37Z</time>
      </trkpt>
      <trkpt lat="45.85624" lon="4.65254">
        <ele>213</ele>
        <time>2016-09-12T08:44:38Z</time>
      </trkpt>
      <trkpt lat="45.85618" lon="4.65251">
        <ele>213</ele>
        <time>2016-09-12T08:44:39Z</time>
      </trkpt>
      <trkpt lat="45.85612" lon="4.65247">
        <ele>216</ele>
        <time>2016-09-12T08:44:40Z</time>
      </trkpt>
      <trkpt lat="45.85607" lon="4.65244">
        <ele>216</ele>
        <time>2016-09-12T08:44:41Z</time>
      </trkpt>
      <trkpt lat="45.85601" lon="4.65241">
        <ele>215</ele>
        <time>2016-09-12T08:44:42Z</time>
      </trkpt>
      <trkpt lat="45.85595" lon="4.65239">
        <ele>215</ele>
        <time>2016-09-12T08:44:43Z</time>
      </trkpt>
      <trkpt lat="45.85589" lon="4.65236">
        <ele>214</ele>
        <time>2016-09-12T08:44:44Z</time>
      </trkpt>
      <trkpt lat="45.85584" lon="4.65234">
        <ele>215</ele>
        <time>2016-09-12T08:44:45Z</time>
      </trkpt>
      <trkpt lat="45.85578" lon="4.65231">
        <ele>213</ele>
        <time>2016-09-12T08:44:46Z</time>
      </trkpt>
      <trkpt lat="45.85572" lon="4.65229">
        <ele>213</ele>
        <time>2016-09-12T08:44:47Z</time>
      </trkpt>
      <trkpt lat="45.85567" lon="4.65226">
        <ele>213</ele>
        <time>2016-09-12T08:44:48Z</time>
      </trkpt>
      <trkpt lat="45.85561" lon="4.65223">
        <ele>214</ele>
        <time>2016-09-12T08:44:49Z</time>
      </trkpt>
      <trkpt lat="45.85556" lon="4.6522">
        <ele>214</ele>
        <time>2016-09-12T08:44:50Z</time>
      </trkpt>
      <trkpt lat="45.8555" lon="4.65217">
        <ele>214</ele>
        <time>2016-09-12T08:44:51Z</time>
      </trkpt>
      <trkpt lat="45.85545" lon="4.65213">
        <ele>214</ele>
        <time>2016-09-12T08:44:52Z</time>
      </trkpt>
      <trkpt lat="45.85539" lon="4.6521">
        <ele>214</ele>
        <time>2016-09-12T08:44:53Z</time>
      </trkpt>
      <trkpt lat="45.85534" lon="4.65206">
        <ele>214</ele>
        <time>2016-09-12T08:44:54Z</time>
      </trkpt>
      <trkpt lat="45.85529" lon="4.65202">
        <ele>214</ele>
        <time>2016-09-12T08:44:55Z</time>
      </trkpt>
      <trkpt lat="45.85523" lon="4.65197">
        <ele>214</ele>
        <time>2016-09-12T08:44:56Z</time>
      </trkpt>
      <trkpt lat="45.85519" lon="4.65192">
        <ele>214</ele>
        <time>2016-09-12T08:44:57Z</time>
      </trkpt>
      <trkpt lat="45.85514" lon="4.65187">
        <ele>214</ele>
        <time>2016-09-12T08:44:58Z</time>
      </trkpt>
      <trkpt lat="45.85509" lon="4.65181">
        <ele>214</ele>
        <time>2016-09-12T08:44:59Z</time>
      </trkpt>
      <trkpt lat="45.85504" lon="4.65177">
        <ele>214</ele>
        <time>2016-09-12T08:45:00Z</time>
      </trkpt>
      <trkpt lat="45.85499" lon="4.65172">
        <ele>215</ele>
        <time>2016-09-12T08:45:01Z</time>
      </trkpt>
      <trkpt lat="45.85494" lon="4.65167">
        <ele>215</ele>
        <time>2016-09-12T08:45:02Z</time>
      </trkpt>
      <trkpt lat="45.85489" lon="4.65162">
        <ele>216</ele>
        <time>2016-09-12T08:45:03Z</time>
      </trkpt>
      <trkpt lat="45.85485" lon="4.65157">
        <ele>217</ele>
        <time>2016-09-12T08:45:04Z</time>
      </trkpt>
      <trkpt lat="45.8548" lon="4.65153">
        <ele>217</ele>
        <time>2016-09-12T08:45:05Z</time>
      </trkpt>
      <trkpt lat="45.85475" lon="4.65148">
        <ele>218</ele>
        <time>2016-09-12T08:45:06Z</time>
      </trkpt>
      <trkpt lat="45.85471" lon="4.65144">
        <ele>218</ele>
        <time>2016-09-12T08:45:07Z</time>
      </trkpt>
      <trkpt lat="45.85467" lon="4.6514">
        <ele>219</ele>
        <time>2016-09-12T08:45:08Z</time>
      </trkpt>
      <trkpt lat="45.85463" lon="4.65136">
        <ele>219</ele>
        <time>2016-09-12T08:45:09Z</time>
      </trkpt>
      <trkpt lat="45.85458" lon="4.65132">
        <ele>219</ele>
        <time>2016-09-12T08:45:10Z</time>
      </trkpt>
      <trkpt lat="45.85454" lon="4.65128">
        <ele>219</ele>
        <time>2016-09-12T08:45:11Z</time>
      </trkpt>
      <trkpt lat="45.8545" lon="4.65124">
        <ele>219</ele>
        <time>2016-09-12T08:45:12Z</time>
      </trkpt>
      <trkpt lat="45.85446" lon="4.6512">
        <ele>220</ele>
        <time>2016-09-12T08:45:13Z</time>
      </trkpt>
      <trkpt lat="45.85442" lon="4.65116">
        <ele>220</ele>
        <time>2016-09-12T08:45:14Z</time>
      </trkpt>
      <trkpt lat="45.85437" lon="4.65111">
        <ele>220</ele>
        <time>2016-09-12T08:45:15Z</time>
      </trkpt>
      <trkpt lat="45.85432" lon="4.65107">
        <ele>220</ele>
        <time>2016-09-12T08:45:16Z</time>
      </trkpt>
      <trkpt lat="45.85427" lon="4.65102">
        <ele>221</ele>
        <time>2016-09-12T08:45:17Z</time>
      </trkpt>
      <trkpt lat="45.85422" lon="4.65097">
        <ele>221</ele>
        <time>2016-09-12T08:45:18Z</time>
      </trkpt>
      <trkpt lat="45.85417" lon="4.65092">
        <ele>221</ele>
        <time>2016-09-12T08:45:19Z</time>
      </trkpt>
      <trkpt lat="45.85413" lon="4.65088">
        <ele>222</ele>
        <time>2016-09-12T08:45:20Z</time>
      </trkpt>
      <trkpt lat="45.85408" lon="4.65083">
        <ele>222</ele>
        <time>2016-09-12T08:45:21Z</time>
      </trkpt>
      <trkpt lat="45.85403" lon="4.65078">
        <ele>222</ele>
        <time>2016-09-12T08:45:22Z</time>
      </trkpt>
      <trkpt lat="45.85397" lon="4.65074">
        <ele>222</ele>
        <time>2016-09-12T08:45:23Z</time>
      </trkpt>
      <trkpt lat="45.85392" lon="4.6507">
        <ele>222</ele>
        <time>2016-09-12T08:45:24Z</time>
      </trkpt>
      <trkpt lat="45.85386" lon="4.65065">
        <ele>222</ele>
        <time>2016-09-12T08:45:25Z</time>
      </trkpt>
      <trkpt lat="45.85382" lon="4.6506">
        <ele>222</ele>
        <time>2016-09-12T08:45:26Z</time>
      </trkpt>
      <trkpt lat="45.85377" lon="4.65055">
        <ele>222</ele>
        <time>2016-09-12T08:45:27Z</time>
      </trkpt>
      <trkpt lat="45.85372" lon="4.65051">
        <ele>222</ele>
        <time>2016-09-12T08:45:28Z</time>
      </trkpt>
      <trkpt lat="45.85367" lon="4.65046">
        <ele>222</ele>
        <time>2016-09-12T08:45:29Z</time>
      </trkpt>
      <trkpt lat="45.85362" lon="4.65042">
        <ele>222</ele>
        <time>2016-09-12T08:45:30Z</time>
      </trkpt>
      <trkpt lat="45.85358" lon="4.65038">
        <ele>221</ele>
        <time>2016-09-12T08:45:31Z</time>
      </trkpt>
      <trkpt lat="45.85353" lon="4.65034">
        <ele>221</ele>
        <time>2016-09-12T08:45:32Z</time>
      </trkpt>
      <trkpt lat="45.85348" lon="4.6503">
        <ele>221</ele>
        <time>2016-09-12T08:45:33Z</time>
      </trkpt>
      <trkpt lat="45.85344" lon="4.65026">
        <ele>220</ele>
        <time>2016-09-12T08:45:34Z</time>
      </trkpt>
      <trkpt lat="45.85339" lon="4.65022">
        <ele>220</ele>
        <time>2016-09-12T08:45:35Z</time>
      </trkpt>
      <trkpt lat="45.85334" lon="4.65018">
        <ele>220</ele>
        <time>2016-09-12T08:45:36Z</time>
      </trkpt>
      <trkpt lat="45.8533" lon="4.65014">
        <ele>219</ele>
        <time>2016-09-12T08:45:37Z</time>
      </trkpt>
      <trkpt lat="45.85326" lon="4.65008">
        <ele>219</ele>
        <time>2016-09-12T08:45:38Z</time>
      </trkpt>
      <trkpt lat="45.85321" lon="4.65002">
        <ele>219</ele>
        <time>2016-09-12T08:45:39Z</time>
      </trkpt>
      <trkpt lat="45.85317" lon="4.64997">
        <ele>218</ele>
        <time>2016-09-12T08:45:40Z</time>
      </trkpt>
      <trkpt lat="45.85312" lon="4.64992">
        <ele>218</ele>
        <time>2016-09-12T08:45:41Z</time>
      </trkpt>
      <trkpt lat="45.85305" lon="4.64986">
        <ele>218</ele>
        <time>2016-09-12T08:45:42Z</time>
      </trkpt>
      <trkpt lat="45.853" lon="4.6498">
        <ele>218</ele>
        <time>2016-09-12T08:45:43Z</time>
      </trkpt>
      <trkpt lat="45.85295" lon="4.64974">
        <ele>218</ele>
        <time>2016-09-12T08:45:44Z</time>
      </trkpt>
      <trkpt lat="45.85291" lon="4.64968">
        <ele>218</ele>
        <time>2016-09-12T08:45:45Z</time>
      </trkpt>
      <trkpt lat="45.85287" lon="4.64962">
        <ele>218</ele>
        <time>2016-09-12T08:45:46Z</time>
      </trkpt>
      <trkpt lat="45.85282" lon="4.64957">
        <ele>218</ele>
        <time>2016-09-12T08:45:47Z</time>
      </trkpt>
      <trkpt lat="45.85278" lon="4.64951">
        <ele>217</ele>
        <time>2016-09-12T08:45:48Z</time>
      </trkpt>
      <trkpt lat="45.85274" lon="4.64946">
        <ele>217</ele>
        <time>2016-09-12T08:45:49Z</time>
      </trkpt>
      <trkpt lat="45.8527" lon="4.64941">
        <ele>217</ele>
        <time>2016-09-12T08:45:50Z</time>
      </trkpt>
      <trkpt lat="45.85266" lon="4.64936">
        <ele>216</ele>
        <time>2016-09-12T08:45:51Z</time>
      </trkpt>
      <trkpt lat="45.85261" lon="4.6493">
        <ele>216</ele>
        <time>2016-09-12T08:45:52Z</time>
      </trkpt>
      <trkpt lat="45.85257" lon="4.64925">
        <ele>215</ele>
        <time>2016-09-12T08:45:53Z</time>
      </trkpt>
      <trkpt lat="45.85253" lon="4.64919">
        <ele>214</ele>
        <time>2016-09-12T08:45:54Z</time>
      </trkpt>
      <trkpt lat="45.85249" lon="4.64913">
        <ele>214</ele>
        <time>2016-09-12T08:45:55Z</time>
      </trkpt>
      <trkpt lat="45.85245" lon="4.64907">
        <ele>215</ele>
        <time>2016-09-12T08:45:56Z</time>
      </trkpt>
      <trkpt lat="45.85241" lon="4.649">
        <ele>216</ele>
        <time>2016-09-12T08:45:57Z</time>
      </trkpt>
      <trkpt lat="45.85237" lon="4.64894">
        <ele>217</ele>
        <time>2016-09-12T08:45:58Z</time>
      </trkpt>
      <trkpt lat="45.85233" lon="4.64888">
        <ele>217</ele>
        <time>2016-09-12T08:45:59Z</time>
      </trkpt>
      <trkpt lat="45.8523" lon="4.64882">
        <ele>217</ele>
        <time>2016-09-12T08:46:00Z</time>
      </trkpt>
      <trkpt lat="45.85227" lon="4.64875">
        <ele>218</ele>
        <time>2016-09-12T08:46:01Z</time>
      </trkpt>
      <trkpt lat="45.85223" lon="4.64868">
        <ele>218</ele>
        <time>2016-09-12T08:46:02Z</time>
      </trkpt>
      <trkpt lat="45.85219" lon="4.6486">
        <ele>218</ele>
        <time>2016-09-12T08:46:03Z</time>
      </trkpt>
      <trkpt lat="45.85215" lon="4.64853">
        <ele>218</ele>
        <time>2016-09-12T08:46:04Z</time>
      </trkpt>
      <trkpt lat="45.8521" lon="4.64846">
        <ele>218</ele>
        <time>2016-09-12T08:46:05Z</time>
      </trkpt>
      <trkpt lat="45.85207" lon="4.64839">
        <ele>218</ele>
        <time>2016-09-12T08:46:06Z</time>
      </trkpt>
      <trkpt lat="45.85203" lon="4.64832">
        <ele>221</ele>
        <time>2016-09-12T08:46:07Z</time>
      </trkpt>
      <trkpt lat="45.85199" lon="4.64826">
        <ele>221</ele>
        <time>2016-09-12T08:46:08Z</time>
      </trkpt>
      <trkpt lat="45.85195" lon="4.64819">
        <ele>221</ele>
        <time>2016-09-12T08:46:09Z</time>
      </trkpt>
      <trkpt lat="45.85191" lon="4.64811">
        <ele>221</ele>
        <time>2016-09-12T08:46:10Z</time>
      </trkpt>
      <trkpt lat="45.85188" lon="4.64804">
        <ele>221</ele>
        <time>2016-09-12T08:46:11Z</time>
      </trkpt>
      <trkpt lat="45.85184" lon="4.64797">
        <ele>221</ele>
        <time>2016-09-12T08:46:12Z</time>
      </trkpt>
      <trkpt lat="45.85181" lon="4.6479">
        <ele>222</ele>
        <time>2016-09-12T08:46:13Z</time>
      </trkpt>
      <trkpt lat="45.85178" lon="4.64783">
        <ele>222</ele>
        <time>2016-09-12T08:46:14Z</time>
      </trkpt>
      <trkpt lat="45.85175" lon="4.64775">
        <ele>222</ele>
        <time>2016-09-12T08:46:15Z</time>
      </trkpt>
      <trkpt lat="45.85172" lon="4.64767">
        <ele>221</ele>
        <time>2016-09-12T08:46:16Z</time>
      </trkpt>
      <trkpt lat="45.85169" lon="4.64759">
        <ele>220</ele>
        <time>2016-09-12T08:46:17Z</time>
      </trkpt>
      <trkpt lat="45.85166" lon="4.64751">
        <ele>219</ele>
        <time>2016-09-12T08:46:18Z</time>
      </trkpt>
      <trkpt lat="45.85163" lon="4.64742">
        <ele>220</ele>
        <time>2016-09-12T08:46:19Z</time>
      </trkpt>
      <trkpt lat="45.8516" lon="4.64734">
        <ele>221</ele>
        <time>2016-09-12T08:46:20Z</time>
      </trkpt>
      <trkpt lat="45.85158" lon="4.64726">
        <ele>222</ele>
        <time>2016-09-12T08:46:21Z</time>
      </trkpt>
      <trkpt lat="45.85155" lon="4.64718">
        <ele>222</ele>
        <time>2016-09-12T08:46:22Z</time>
      </trkpt>
      <trkpt lat="45.85153" lon="4.64711">
        <ele>223</ele>
        <time>2016-09-12T08:46:23Z</time>
      </trkpt>
      <trkpt lat="45.8515" lon="4.64703">
        <ele>223</ele>
        <time>2016-09-12T08:46:24Z</time>
      </trkpt>
      <trkpt lat="45.85148" lon="4.64695">
        <ele>224</ele>
        <time>2016-09-12T08:46:25Z</time>
      </trkpt>
      <trkpt lat="45.85146" lon="4.64687">
        <ele>224</ele>
        <time>2016-09-12T08:46:26Z</time>
      </trkpt>
      <trkpt lat="45.85143" lon="4.64678">
        <ele>224</ele>
        <time>2016-09-12T08:46:27Z</time>
      </trkpt>
      <trkpt lat="45.85141" lon="4.6467">
        <ele>224</ele>
        <time>2016-09-12T08:46:28Z</time>
      </trkpt>
      <trkpt lat="45.85139" lon="4.64661">
        <ele>226</ele>
        <time>2016-09-12T08:46:29Z</time>
      </trkpt>
      <trkpt lat="45.85137" lon="4.64653">
        <ele>226</ele>
        <time>2016-09-12T08:46:30Z</time>
      </trkpt>
      <trkpt lat="45.85135" lon="4.64645">
        <ele>225</ele>
        <time>2016-09-12T08:46:31Z</time>
      </trkpt>
      <trkpt lat="45.85134" lon="4.64636">
        <ele>225</ele>
        <time>2016-09-12T08:46:32Z</time>
      </trkpt>
      <trkpt lat="45.85133" lon="4.64628">
        <ele>226</ele>
        <time>2016-09-12T08:46:33Z</time>
      </trkpt>
      <trkpt lat="45.85132" lon="4.6462">
        <ele>226</ele>
        <time>2016-09-12T08:46:34Z</time>
      </trkpt>
      <trkpt lat="45.85131" lon="4.64611">
        <ele>226</ele>
        <time>2016-09-12T08:46:35Z</time>
      </trkpt>
      <trkpt lat="45.8513" lon="4.64603">
        <ele>226</ele>
        <time>2016-09-12T08:46:36Z</time>
      </trkpt>
      <trkpt lat="45.85129" lon="4.64595">
        <ele>226</ele>
        <time>2016-09-12T08:46:37Z</time>
      </trkpt>
      <trkpt lat="45.85128" lon="4.64588">
        <ele>226</ele>
        <time>2016-09-12T08:46:38Z</time>
      </trkpt>
      <trkpt lat="45.85128" lon="4.6458">
        <ele>227</ele>
        <time>2016-09-12T08:46:39Z</time>
      </trkpt>
      <trkpt lat="45.85129" lon="4.64572">
        <ele>227</ele>
        <time>2016-09-12T08:46:40Z</time>
      </trkpt>
      <trkpt lat="45.85131" lon="4.64565">
        <ele>227</ele>
        <time>2016-09-12T08:46:41Z</time>
      </trkpt>
      <trkpt lat="45.85133" lon="4.64558">
        <ele>227</ele>
        <time>2016-09-12T08:46:42Z</time>
      </trkpt>
      <trkpt lat="45.85135" lon="4.64553">
        <ele>227</ele>
        <time>2016-09-12T08:46:43Z</time>
      </trkpt>
      <trkpt lat="45.85139" lon="4.64547">
        <ele>228</ele>
        <time>2016-09-12T08:46:44Z</time>
      </trkpt>
      <trkpt lat="45.85143" lon="4.64542">
        <ele>228</ele>
        <time>2016-09-12T08:46:45Z</time>
      </trkpt>
      <trkpt lat="45.85149" lon="4.64534">
        <ele>228</ele>
        <time>2016-09-12T08:46:47Z</time>
      </trkpt>
      <trkpt lat="45.85151" lon="4.6453">
        <ele>228</ele>
        <time>2016-09-12T08:46:48Z</time>
      </trkpt>
      <trkpt lat="45.85157" lon="4.64522">
        <ele>229</ele>
        <time>2016-09-12T08:46:51Z</time>
      </trkpt>
      <trkpt lat="45.85159" lon="4.64519">
        <ele>229</ele>
        <time>2016-09-12T08:46:52Z</time>
      </trkpt>
      <trkpt lat="45.85162" lon="4.6451">
        <ele>230</ele>
        <time>2016-09-12T08:46:55Z</time>
      </trkpt>
      <trkpt lat="45.85162" lon="4.64506">
        <ele>231</ele>
        <time>2016-09-12T08:46:56Z</time>
      </trkpt>
      <trkpt lat="45.85164" lon="4.64495">
        <ele>231</ele>
        <time>2016-09-12T08:46:59Z</time>
      </trkpt>
      <trkpt lat="45.85164" lon="4.64491">
        <ele>231</ele>
        <time>2016-09-12T08:47:00Z</time>
      </trkpt>
      <trkpt lat="45.85163" lon="4.64479">
        <ele>230</ele>
        <time>2016-09-12T08:47:03Z</time>
      </trkpt>
      <trkpt lat="45.85163" lon="4.64475">
        <ele>230</ele>
        <time>2016-09-12T08:47:04Z</time>
      </trkpt>
      <trkpt lat="45.85166" lon="4.64463">
        <ele>230</ele>
        <time>2016-09-12T08:47:07Z</time>
      </trkpt>
      <trkpt lat="45.85167" lon="4.64459">
        <ele>237</ele>
        <time>2016-09-12T08:47:08Z</time>
      </trkpt>
      <trkpt lat="45.85169" lon="4.6445">
        <ele>237</ele>
        <time>2016-09-12T08:47:10Z</time>
      </trkpt>
      <trkpt lat="45.8517" lon="4.64446">
        <ele>237</ele>
        <time>2016-09-12T08:47:11Z</time>
      </trkpt>
      <trkpt lat="45.85173" lon="4.64436">
        <ele>237</ele>
        <time>2016-09-12T08:47:14Z</time>
      </trkpt>
      <trkpt lat="45.8517" lon="4.6443">
        <ele>236</ele>
        <time>2016-09-12T08:47:15Z</time>
      </trkpt>
      <trkpt lat="45.85172" lon="4.64418">
        <ele>234</ele>
        <time>2016-09-12T08:47:18Z</time>
      </trkpt>
      <trkpt lat="45.85173" lon="4.64416">
        <ele>234</ele>
        <time>2016-09-12T08:47:19Z</time>
      </trkpt>
      <trkpt lat="45.85178" lon="4.64405">
        <ele>235</ele>
        <time>2016-09-12T08:47:23Z</time>
      </trkpt>
      <trkpt lat="45.85179" lon="4.64403">
        <ele>235</ele>
        <time>2016-09-12T08:47:24Z</time>
      </trkpt>
      <trkpt lat="45.85185" lon="4.64395">
        <ele>236</ele>
        <time>2016-09-12T08:47:28Z</time>
      </trkpt>
      <trkpt lat="45.85186" lon="4.64392">
        <ele>236</ele>
        <time>2016-09-12T08:47:29Z</time>
      </trkpt>
      <trkpt lat="45.85192" lon="4.64384">
        <ele>236</ele>
        <time>2016-09-12T08:47:32Z</time>
      </trkpt>
      <trkpt lat="45.85193" lon="4.64382">
        <ele>236</ele>
        <time>2016-09-12T08:47:33Z</time>
      </trkpt>
      <trkpt lat="45.85198" lon="4.64372">
        <ele>236</ele>
        <time>2016-09-12T08:47:37Z</time>
      </trkpt>
      <trkpt lat="45.852" lon="4.6437">
        <ele>236</ele>
        <time>2016-09-12T08:47:38Z</time>
      </trkpt>
      <trkpt lat="45.85205" lon="4.64362">
        <ele>236</ele>
        <time>2016-09-12T08:47:41Z</time>
      </trkpt>
      <trkpt lat="45.85207" lon="4.6436">
        <ele>236</ele>
        <time>2016-09-12T08:47:42Z</time>
      </trkpt>
      <trkpt lat="45.85213" lon="4.6435">
        <ele>236</ele>
        <time>2016-09-12T08:47:46Z</time>
      </trkpt>
      <trkpt lat="45.85215" lon="4.64349">
        <ele>236</ele>
        <time>2016-09-12T08:47:47Z</time>
      </trkpt>
      <trkpt lat="45.85221" lon="4.64339">
        <ele>237</ele>
        <time>2016-09-12T08:47:52Z</time>
      </trkpt>
      <trkpt lat="45.85222" lon="4.64336">
        <ele>237</ele>
        <time>2016-09-12T08:47:53Z</time>
      </trkpt>
      <trkpt lat="45.85227" lon="4.64329">
        <ele>235</ele>
        <time>2016-09-12T08:47:56Z</time>
      </trkpt>
      <trkpt lat="45.85229" lon="4.64327">
        <ele>235</ele>
        <time>2016-09-12T08:47:57Z</time>
      </trkpt>
      <trkpt lat="45.85233" lon="4.64317">
        <ele>235</ele>
        <time>2016-09-12T08:48:00Z</time>
      </trkpt>
      <trkpt lat="45.85235" lon="4.64314">
        <ele>235</ele>
        <time>2016-09-12T08:48:01Z</time>
      </trkpt>
      <trkpt lat="45.85241" lon="4.64307">
        <ele>235</ele>
        <time>2016-09-12T08:48:03Z</time>
      </trkpt>
      <trkpt lat="45.85243" lon="4.64304">
        <ele>235</ele>
        <time>2016-09-12T08:48:04Z</time>
      </trkpt>
      <trkpt lat="45.85247" lon="4.64294">
        <ele>235</ele>
        <time>2016-09-12T08:48:07Z</time>
      </trkpt>
      <trkpt lat="45.85248" lon="4.64291">
        <ele>235</ele>
        <time>2016-09-12T08:48:08Z</time>
      </trkpt>
      <trkpt lat="45.85252" lon="4.64282">
        <ele>239</ele>
        <time>2016-09-12T08:48:11Z</time>
      </trkpt>
      <trkpt lat="45.85253" lon="4.64277">
        <ele>239</ele>
        <time>2016-09-12T08:48:12Z</time>
      </trkpt>
      <trkpt lat="45.85256" lon="4.64269">
        <ele>239</ele>
        <time>2016-09-12T08:48:14Z</time>
      </trkpt>
      <trkpt lat="45.85257" lon="4.64265">
        <ele>239</ele>
        <time>2016-09-12T08:48:15Z</time>
      </trkpt>
      <trkpt lat="45.85257" lon="4.64253">
        <ele>238</ele>
        <time>2016-09-12T08:48:18Z</time>
      </trkpt>
      <trkpt lat="45.85257" lon="4.64249">
        <ele>239</ele>
        <time>2016-09-12T08:48:19Z</time>
      </trkpt>
      <trkpt lat="45.85255" lon="4.64239">
        <ele>240</ele>
        <time>2016-09-12T08:48:22Z</time>
      </trkpt>
      <trkpt lat="45.85254" lon="4.64235">
        <ele>240</ele>
        <time>2016-09-12T08:48:23Z</time>
      </trkpt>
      <trkpt lat="45.85252" lon="4.64224">
        <ele>242</ele>
        <time>2016-09-12T08:48:26Z</time>
      </trkpt>
      <trkpt lat="45.85251" lon="4.6422">
        <ele>242</ele>
        <time>2016-09-12T08:48:27Z</time>
      </trkpt>
      <trkpt lat="45.8525" lon="4.64208">
        <ele>238</ele>
        <time>2016-09-12T08:48:30Z</time>
      </trkpt>
      <trkpt lat="45.85249" lon="4.64204">
        <ele>238</ele>
        <time>2016-09-12T08:48:31Z</time>
      </trkpt>
      <trkpt lat="45.85247" lon="4.64193">
        <ele>239</ele>
        <time>2016-09-12T08:48:34Z</time>
      </trkpt>
      <trkpt lat="45.85247" lon="4.6419">
        <ele>239</ele>
        <time>2016-09-12T08:48:35Z</time>
      </trkpt>
      <trkpt lat="45.85248" lon="4.64178">
        <ele>241</ele>
        <time>2016-09-12T08:48:38Z</time>
      </trkpt>
      <trkpt lat="45.85248" lon="4.64175">
        <ele>241</ele>
        <time>2016-09-12T08:48:39Z</time>
      </trkpt>
      <trkpt lat="45.85249" lon="4.64164">
        <ele>243</ele>
        <time>2016-09-12T08:48:42Z</time>
      </trkpt>
      <trkpt lat="45.85249" lon="4.6416">
        <ele>243</ele>
        <time>2016-09-12T08:48:43Z</time>
      </trkpt>
      <trkpt lat="45.85248" lon="4.64148">
        <ele>242</ele>
        <time>2016-09-12T08:48:46Z</time>
      </trkpt>
      <trkpt lat="45.85248" lon="4.64145">
        <ele>242</ele>
        <time>2016-09-12T08:48:47Z</time>
      </trkpt>
      <trkpt lat="45.8525" lon="4.64136">
        <ele>242</ele>
        <time>2016-09-12T08:48:49Z</time>
      </trkpt>
      <trkpt lat="45.85251" lon="4.64132">
        <ele>247</ele>
        <time>2016-09-12T08:48:50Z</time>
      </trkpt>
      <trkpt lat="45.85249" lon="4.6412">
        <ele>242</ele>
        <time>2016-09-12T08:48:53Z</time>
      </trkpt>
      <trkpt lat="45.85248" lon="4.64116">
        <ele>242</ele>
        <time>2016-09-12T08:48:54Z</time>
      </trkpt>
      <trkpt lat="45.85249" lon="4.64104">
        <ele>243</ele>
        <time>2016-09-12T08:48:57Z</time>
      </trkpt>
      <trkpt lat="45.85249" lon="4.641">
        <ele>243</ele>
        <time>2016-09-12T08:48:58Z</time>
      </trkpt>
      <trkpt lat="45.85251" lon="4.64089">
        <ele>245</ele>
        <time>2016-09-12T08:49:01Z</time>
      </trkpt>
      <trkpt lat="45.85252" lon="4.64085">
        <ele>244</ele>
        <time>2016-09-12T08:49:02Z</time>
      </trkpt>
      <trkpt lat="45.85253" lon="4.64075">
        <ele>246</ele>
        <time>2016-09-12T08:49:05Z</time>
      </trkpt>
      <trkpt lat="45.85254" lon="4.64071">
        <ele>247</ele>
        <time>2016-09-12T08:49:06Z</time>
      </trkpt>
      <trkpt lat="45.85254" lon="4.64061">
        <ele>248</ele>
        <time>2016-09-12T08:49:09Z</time>
      </trkpt>
      <trkpt lat="45.85254" lon="4.64057">
        <ele>248</ele>
        <time>2016-09-12T08:49:10Z</time>
      </trkpt>
      <trkpt lat="45.85255" lon="4.64046">
        <ele>249</ele>
        <time>2016-09-12T08:49:13Z</time>
      </trkpt>
      <trkpt lat="45.85255" lon="4.64043">
        <ele>249</ele>
        <time>2016-09-12T08:49:14Z</time>
      </trkpt>
      <trkpt lat="45.85257" lon="4.64031">
        <ele>249</ele>
        <time>2016-09-12T08:49:18Z</time>
      </trkpt>
      <trkpt lat="45.85257" lon="4.64027">
        <ele>249</ele>
        <time>2016-09-12T08:49:19Z</time>
      </trkpt>
      <trkpt lat="45.85259" lon="4.64017">
        <ele>248</ele>
        <time>2016-09-12T08:49:22Z</time>
      </trkpt>
      <trkpt lat="45.85259" lon="4.64015">
        <ele>248</ele>
        <time>2016-09-12T08:49:23Z</time>
      </trkpt>
      <trkpt lat="45.85262" lon="4.64003">
        <ele>248</ele>
        <time>2016-09-12T08:49:27Z</time>
      </trkpt>
      <trkpt lat="45.85264" lon="4.64">
        <ele>248</ele>
        <time>2016-09-12T08:49:28Z</time>
      </trkpt>
      <trkpt lat="45.85266" lon="4.63989">
        <ele>249</ele>
        <time>2016-09-12T08:49:31Z</time>
      </trkpt>
      <trkpt lat="45.85266" lon="4.63985">
        <ele>249</ele>
        <time>2016-09-12T08:49:32Z</time>
      </trkpt>
      <trkpt lat="45.85268" lon="4.63975">
        <ele>249</ele>
        <time>2016-09-12T08:49:35Z</time>
      </trkpt>
      <trkpt lat="45.85269" lon="4.63971">
        <ele>250</ele>
        <time>2016-09-12T08:49:36Z</time>
      </trkpt>
      <trkpt lat="45.85272" lon="4.63961">
        <ele>250</ele>
        <time>2016-09-12T08:49:39Z</time>
      </trkpt>
      <trkpt lat="45.85273" lon="4.63958">
        <ele>250</ele>
        <time>2016-09-12T08:49:40Z</time>
      </trkpt>
      <trkpt lat="45.85277" lon="4.63948">
        <ele>250</ele>
        <time>2016-09-12T08:49:43Z</time>
      </trkpt>
      <trkpt lat="45.85278" lon="4.63946">
        <ele>250</ele>
        <time>2016-09-12T08:49:44Z</time>
      </trkpt>
      <trkpt lat="45.85282" lon="4.63938">
        <ele>250</ele>
        <time>2016-09-12T08:49:47Z</time>
      </trkpt>
      <trkpt lat="45.85284" lon="4.63935">
        <ele>250</ele>
        <time>2016-09-12T08:49:48Z</time>
      </trkpt>
      <trkpt lat="45.8529" lon="4.63927">
        <ele>251</ele>
        <time>2016-09-12T08:49:51Z</time>
      </trkpt>
      <trkpt lat="45.85291" lon="4.63925">
        <ele>251</ele>
        <time>2016-09-12T08:49:52Z</time>
      </trkpt>
      <trkpt lat="45.85296" lon="4.63917">
        <ele>252</ele>
        <time>2016-09-12T08:49:55Z</time>
      </trkpt>
      <trkpt lat="45.85297" lon="4.63914">
        <ele>252</ele>
        <time>2016-09-12T08:49:56Z</time>
      </trkpt>
      <trkpt lat="45.85303" lon="4.63907">
        <ele>252</ele>
        <time>2016-09-12T08:49:59Z</time>
      </trkpt>
      <trkpt lat="45.85305" lon="4.63904">
        <ele>252</ele>
        <time>2016-09-12T08:50:00Z</time>
      </trkpt>
      <trkpt lat="45.85311" lon="4.63897">
        <ele>253</ele>
        <time>2016-09-12T08:50:02Z</time>
      </trkpt>
      <trkpt lat="45.85313" lon="4.63895">
        <ele>253</ele>
        <time>2016-09-12T08:50:03Z</time>
      </trkpt>
      <trkpt lat="45.8532" lon="4.63886">
        <ele>253</ele>
        <time>2016-09-12T08:50:06Z</time>
      </trkpt>
      <trkpt lat="45.85321" lon="4.63883">
        <ele>253</ele>
        <time>2016-09-12T08:50:07Z</time>
      </trkpt>
      <trkpt lat="45.85326" lon="4.63875">
        <ele>253</ele>
        <time>2016-09-12T08:50:10Z</time>
      </trkpt>
      <trkpt lat="45.85327" lon="4.63873">
        <ele>253</ele>
        <time>2016-09-12T08:50:11Z</time>
      </trkpt>
      <trkpt lat="45.85333" lon="4.63863">
        <ele>253</ele>
        <time>2016-09-12T08:50:15Z</time>
      </trkpt>
      <trkpt lat="45.85334" lon="4.63861">
        <ele>255</ele>
        <time>2016-09-12T08:50:16Z</time>
      </trkpt>
      <trkpt lat="45.8534" lon="4.63853">
        <ele>255</ele>
        <time>2016-09-12T08:50:20Z</time>
      </trkpt>
      <trkpt lat="45.85342" lon="4.63851">
        <ele>255</ele>
        <time>2016-09-12T08:50:21Z</time>
      </trkpt>
      <trkpt lat="45.85347" lon="4.63843">
        <ele>255</ele>
        <time>2016-09-12T08:50:24Z</time>
      </trkpt>
      <trkpt lat="45.85349" lon="4.63841">
        <ele>255</ele>
        <time>2016-09-12T08:50:25Z</time>
      </trkpt>
      <trkpt lat="45.85354" lon="4.63833">
        <ele>256</ele>
        <time>2016-09-12T08:50:28Z</time>
      </trkpt>
      <trkpt lat="45.85355" lon="4.6383">
        <ele>256</ele>
        <time>2016-09-12T08:50:29Z</time>
      </trkpt>
      <trkpt lat="45.85361" lon="4.63823">
        <ele>256</ele>
        <time>2016-09-12T08:50:32Z</time>
      </trkpt>
      <trkpt lat="45.85362" lon="4.63821">
        <ele>256</ele>
        <time>2016-09-12T08:50:33Z</time>
      </trkpt>
      <trkpt lat="45.85367" lon="4.63812">
        <ele>256</ele>
        <time>2016-09-12T08:50:37Z</time>
      </trkpt>
      <trkpt lat="45.85369" lon="4.6381">
        <ele>256</ele>
        <time>2016-09-12T08:50:38Z</time>
      </trkpt>
      <trkpt lat="45.85373" lon="4.63802">
        <ele>256</ele>
        <time>2016-09-12T08:50:41Z</time>
      </trkpt>
      <trkpt lat="45.85375" lon="4.63799">
        <ele>256</ele>
        <time>2016-09-12T08:50:42Z</time>
      </trkpt>
      <trkpt lat="45.85381" lon="4.63792">
        <ele>257</ele>
        <time>2016-09-12T08:50:45Z</time>
      </trkpt>
      <trkpt lat="45.85384" lon="4.63789">
        <ele>256</ele>
        <time>2016-09-12T08:50:46Z</time>
      </trkpt>
      <trkpt lat="45.8539" lon="4.63781">
        <ele>256</ele>
        <time>2016-09-12T08:50:49Z</time>
      </trkpt>
      <trkpt lat="45.85391" lon="4.63778">
        <ele>256</ele>
        <time>2016-09-12T08:50:50Z</time>
      </trkpt>
      <trkpt lat="45.85396" lon="4.63769">
        <ele>256</ele>
        <time>2016-09-12T08:50:53Z</time>
      </trkpt>
      <trkpt lat="45.85398" lon="4.63766">
        <ele>256</ele>
        <time>2016-09-12T08:50:54Z</time>
      </trkpt>
      <trkpt lat="45.85405" lon="4.63762">
        <ele>256</ele>
        <time>2016-09-12T08:50:56Z</time>
      </trkpt>
      <trkpt lat="45.85408" lon="4.6376">
        <ele>256</ele>
        <time>2016-09-12T08:50:57Z</time>
      </trkpt>
      <trkpt lat="45.85414" lon="4.63753">
        <ele>255</ele>
        <time>2016-09-12T08:51:00Z</time>
      </trkpt>
      <trkpt lat="45.85416" lon="4.6375">
        <ele>255</ele>
        <time>2016-09-12T08:51:01Z</time>
      </trkpt>
      <trkpt lat="45.8542" lon="4.63741">
        <ele>256</ele>
        <time>2016-09-12T08:51:04Z</time>
      </trkpt>
      <trkpt lat="45.85422" lon="4.63738">
        <ele>256</ele>
        <time>2016-09-12T08:51:05Z</time>
      </trkpt>
      <trkpt lat="45.85426" lon="4.6373">
        <ele>256</ele>
        <time>2016-09-12T08:51:08Z</time>
      </trkpt>
      <trkpt lat="45.85427" lon="4.63726">
        <ele>256</ele>
        <time>2016-09-12T08:51:09Z</time>
      </trkpt>
      <trkpt lat="45.85429" lon="4.63717">
        <ele>257</ele>
        <time>2016-09-12T08:51:12Z</time>
      </trkpt>
      <trkpt lat="45.8543" lon="4.63714">
        <ele>257</ele>
        <time>2016-09-12T08:51:13Z</time>
      </trkpt>
      <trkpt lat="45.85432" lon="4.63704">
        <ele>257</ele>
        <time>2016-09-12T08:51:16Z</time>
      </trkpt>
      <trkpt lat="45.85432" lon="4.63701">
        <ele>257</ele>
        <time>2016-09-12T08:51:17Z</time>
      </trkpt>
      <trkpt lat="45.85433" lon="4.63691">
        <ele>257</ele>
        <time>2016-09-12T08:51:20Z</time>
      </trkpt>
      <trkpt lat="45.85433" lon="4.63687">
        <ele>257</ele>
        <time>2016-09-12T08:51:21Z</time>
      </trkpt>
      <trkpt lat="45.85435" lon="4.63678">
        <ele>257</ele>
        <time>2016-09-12T08:51:24Z</time>
      </trkpt>
      <trkpt lat="45.85436" lon="4.63674">
        <ele>258</ele>
        <time>2016-09-12T08:51:25Z</time>
      </trkpt>
      <trkpt lat="45.85437" lon="4.63664">
        <ele>259</ele>
        <time>2016-09-12T08:51:28Z</time>
      </trkpt>
      <trkpt lat="45.85438" lon="4.63661">
        <ele>259</ele>
        <time>2016-09-12T08:51:29Z</time>
      </trkpt>
      <trkpt lat="45.85438" lon="4.63648">
        <ele>260</ele>
        <time>2016-09-12T08:51:32Z</time>
      </trkpt>
      <trkpt lat="45.85439" lon="4.63645">
        <ele>260</ele>
        <time>2016-09-12T08:51:33Z</time>
      </trkpt>
      <trkpt lat="45.85441" lon="4.63633">
        <ele>260</ele>
        <time>2016-09-12T08:51:36Z</time>
      </trkpt>
      <trkpt lat="45.85442" lon="4.63629">
        <ele>260</ele>
        <time>2016-09-12T08:51:37Z</time>
      </trkpt>
      <trkpt lat="45.85442" lon="4.63618">
        <ele>261</ele>
        <time>2016-09-12T08:51:40Z</time>
      </trkpt>
      <trkpt lat="45.85442" lon="4.63614">
        <ele>261</ele>
        <time>2016-09-12T08:51:41Z</time>
      </trkpt>
      <trkpt lat="45.85443" lon="4.63604">
        <ele>261</ele>
        <time>2016-09-12T08:51:44Z</time>
      </trkpt>
      <trkpt lat="45.85443" lon="4.636">
        <ele>261</ele>
        <time>2016-09-12T08:51:45Z</time>
      </trkpt>
      <trkpt lat="45.85442" lon="4.63589">
        <ele>261</ele>
        <time>2016-09-12T08:51:48Z</time>
      </trkpt>
      <trkpt lat="45.85442" lon="4.63586">
        <ele>261</ele>
        <time>2016-09-12T08:51:49Z</time>
      </trkpt>
      <trkpt lat="45.85444" lon="4.63575">
        <ele>263</ele>
        <time>2016-09-12T08:51:52Z</time>
      </trkpt>
      <trkpt lat="45.85444" lon="4.63571">
        <ele>263</ele>
        <time>2016-09-12T08:51:53Z</time>
      </trkpt>
      <trkpt lat="45.85444" lon="4.63561">
        <ele>263</ele>
        <time>2016-09-12T08:51:55Z</time>
      </trkpt>
      <trkpt lat="45.85444" lon="4.63557">
        <ele>263</ele>
        <time>2016-09-12T08:51:56Z</time>
      </trkpt>
      <trkpt lat="45.85442" lon="4.63546">
        <ele>263</ele>
        <time>2016-09-12T08:51:59Z</time>
      </trkpt>
      <trkpt lat="45.85442" lon="4.63542">
        <ele>263</ele>
        <time>2016-09-12T08:52:00Z</time>
      </trkpt>
      <trkpt lat="45.85441" lon="4.63531">
        <ele>263</ele>
        <time>2016-09-12T08:52:03Z</time>
      </trkpt>
      <trkpt lat="45.85441" lon="4.63527">
        <ele>263</ele>
        <time>2016-09-12T08:52:04Z</time>
      </trkpt>
      <trkpt lat="45.85441" lon="4.63515">
        <ele>263</ele>
        <time>2016-09-12T08:52:07Z</time>
      </trkpt>
      <trkpt lat="45.85441" lon="4.63512">
        <ele>263</ele>
        <time>2016-09-12T08:52:08Z</time>
      </trkpt>
      <trkpt lat="45.85441" lon="4.63501">
        <ele>263</ele>
        <time>2016-09-12T08:52:11Z</time>
      </trkpt>
      <trkpt lat="45.85441" lon="4.63497">
        <ele>264</ele>
        <time>2016-09-12T08:52:12Z</time>
      </trkpt>
      <trkpt lat="45.85442" lon="4.63486">
        <ele>264</ele>
        <time>2016-09-12T08:52:15Z</time>
      </trkpt>
      <trkpt lat="45.85443" lon="4.63483">
        <ele>264</ele>
        <time>2016-09-12T08:52:16Z</time>
      </trkpt>
      <trkpt lat="45.85445" lon="4.63472">
        <ele>265</ele>
        <time>2016-09-12T08:52:19Z</time>
      </trkpt>
      <trkpt lat="45.85445" lon="4.63468">
        <ele>265</ele>
        <time>2016-09-12T08:52:20Z</time>
      </trkpt>
      <trkpt lat="45.85447" lon="4.63457">
        <ele>265</ele>
        <time>2016-09-12T08:52:23Z</time>
      </trkpt>
      <trkpt lat="45.85448" lon="4.63454">
        <ele>265</ele>
        <time>2016-09-12T08:52:24Z</time>
      </trkpt>
      <trkpt lat="45.85452" lon="4.63444">
        <ele>265</ele>
        <time>2016-09-12T08:52:27Z</time>
      </trkpt>
      <trkpt lat="45.85453" lon="4.63441">
        <ele>265</ele>
        <time>2016-09-12T08:52:28Z</time>
      </trkpt>
      <trkpt lat="45.85457" lon="4.63432">
        <ele>265</ele>
        <time>2016-09-12T08:52:31Z</time>
      </trkpt>
      <trkpt lat="45.85459" lon="4.63429">
        <ele>265</ele>
        <time>2016-09-12T08:52:32Z</time>
      </trkpt>
      <trkpt lat="45.85464" lon="4.63419">
        <ele>265</ele>
        <time>2016-09-12T08:52:35Z</time>
      </trkpt>
      <trkpt lat="45.85466" lon="4.63416">
        <ele>269</ele>
        <time>2016-09-12T08:52:36Z</time>
      </trkpt>
      <trkpt lat="45.85472" lon="4.63409">
        <ele>269</ele>
        <time>2016-09-12T08:52:39Z</time>
      </trkpt>
      <trkpt lat="45.85475" lon="4.63406">
        <ele>269</ele>
        <time>2016-09-12T08:52:40Z</time>
      </trkpt>
      <trkpt lat="45.85481" lon="4.63399">
        <ele>269</ele>
        <time>2016-09-12T08:52:43Z</time>
      </trkpt>
      <trkpt lat="45.85483" lon="4.63397">
        <ele>269</ele>
        <time>2016-09-12T08:52:44Z</time>
      </trkpt>
      <trkpt lat="45.85489" lon="4.6339">
        <ele>269</ele>
        <time>2016-09-12T08:52:47Z</time>
      </trkpt>
      <trkpt lat="45.85491" lon="4.63388">
        <ele>270</ele>
        <time>2016-09-12T08:52:48Z</time>
      </trkpt>
      <trkpt lat="45.85499" lon="4.63384">
        <ele>270</ele>
        <time>2016-09-12T08:52:51Z</time>
      </trkpt>
      <trkpt lat="45.85501" lon="4.63382">
        <ele>267</ele>
        <time>2016-09-12T08:52:52Z</time>
      </trkpt>
      <trkpt lat="45.85507" lon="4.63376">
        <ele>267</ele>
        <time>2016-09-12T08:52:55Z</time>
      </trkpt>
      <trkpt lat="45.85509" lon="4.63374">
        <ele>268</ele>
        <time>2016-09-12T08:52:56Z</time>
      </trkpt>
      <trkpt lat="45.85515" lon="4.63368">
        <ele>268</ele>
        <time>2016-09-12T08:52:59Z</time>
      </trkpt>
      <trkpt lat="45.85517" lon="4.63366">
        <ele>268</ele>
        <time>2016-09-12T08:53:00Z</time>
      </trkpt>
      <trkpt lat="45.85522" lon="4.63361">
        <ele>268</ele>
        <time>2016-09-12T08:53:02Z</time>
      </trkpt>
      <trkpt lat="45.85525" lon="4.63359">
        <ele>268</ele>
        <time>2016-09-12T08:53:03Z</time>
      </trkpt>
      <trkpt lat="45.85531" lon="4.6335">
        <ele>268</ele>
        <time>2016-09-12T08:53:06Z</time>
      </trkpt>
      <trkpt lat="45.85533" lon="4.63346">
        <ele>268</ele>
        <time>2016-09-12T08:53:07Z</time>
      </trkpt>
      <trkpt lat="45.85538" lon="4.63337">
        <ele>268</ele>
        <time>2016-09-12T08:53:10Z</time>
      </trkpt>
      <trkpt lat="45.8554" lon="4.63335">
        <ele>268</ele>
        <time>2016-09-12T08:53:11Z</time>
      </trkpt>
      <trkpt lat="45.85544" lon="4.63326">
        <ele>271</ele>
        <time>2016-09-12T08:53:14Z</time>
      </trkpt>
      <trkpt lat="45.85545" lon="4.63323">
        <ele>271</ele>
        <time>2016-09-12T08:53:15Z</time>
      </trkpt>
      <trkpt lat="45.85548" lon="4.63313">
        <ele>271</ele>
        <time>2016-09-12T08:53:18Z</time>
      </trkpt>
      <trkpt lat="45.85548" lon="4.63309">
        <ele>271</ele>
        <time>2016-09-12T08:53:19Z</time>
      </trkpt>
      <trkpt lat="45.8555" lon="4.63299">
        <ele>272</ele>
        <time>2016-09-12T08:53:22Z</time>
      </trkpt>
      <trkpt lat="45.85551" lon="4.63295">
        <ele>272</ele>
        <time>2016-09-12T08:53:23Z</time>
      </trkpt>
      <trkpt lat="45.85553" lon="4.63285">
        <ele>272</ele>
        <time>2016-09-12T08:53:26Z</time>
      </trkpt>
      <trkpt lat="45.85553" lon="4.63283">
        <ele>272</ele>
        <time>2016-09-12T08:53:27Z</time>
      </trkpt>
      <trkpt lat="45.85555" lon="4.63272">
        <ele>272</ele>
        <time>2016-09-12T08:53:30Z</time>
      </trkpt>
      <trkpt lat="45.85555" lon="4.63269">
        <ele>272</ele>
        <time>2016-09-12T08:53:31Z</time>
      </trkpt>
      <trkpt lat="45.85556" lon="4.63259">
        <ele>272</ele>
        <time>2016-09-12T08:53:34Z</time>
      </trkpt>
      <trkpt lat="45.85557" lon="4.63255">
        <ele>272</ele>
        <time>2016-09-12T08:53:35Z</time>
      </trkpt>
      <trkpt lat="45.8556" lon="4.63246">
        <ele>277</ele>
        <time>2016-09-12T08:53:38Z</time>
      </trkpt>
      <trkpt lat="45.8556" lon="4.63242">
        <ele>277</ele>
        <time>2016-09-12T08:53:39Z</time>
      </trkpt>
      <trkpt lat="45.85563" lon="4.63233">
        <ele>277</ele>
        <time>2016-09-12T08:53:42Z</time>
      </trkpt>
      <trkpt lat="45.85565" lon="4.6323">
        <ele>277</ele>
        <time>2016-09-12T08:53:43Z</time>
      </trkpt>
      <trkpt lat="45.8557" lon="4.6322">
        <ele>278</ele>
        <time>2016-09-12T08:53:46Z</time>
      </trkpt>
      <trkpt lat="45.85571" lon="4.63216">
        <ele>278</ele>
        <time>2016-09-12T08:53:47Z</time>
      </trkpt>
      <trkpt lat="45.85575" lon="4.63208">
        <ele>279</ele>
        <time>2016-09-12T08:53:50Z</time>
      </trkpt>
      <trkpt lat="45.85577" lon="4.63206">
        <ele>280</ele>
        <time>2016-09-12T08:53:51Z</time>
      </trkpt>
      <trkpt lat="45.85583" lon="4.63196">
        <ele>281</ele>
        <time>2016-09-12T08:53:55Z</time>
      </trkpt>
      <trkpt lat="45.85584" lon="4.63194">
        <ele>279</ele>
        <time>2016-09-12T08:53:56Z</time>
      </trkpt>
      <trkpt lat="45.85589" lon="4.63185">
        <ele>280</ele>
        <time>2016-09-12T08:54:00Z</time>
      </trkpt>
      <trkpt lat="45.85591" lon="4.63184">
        <ele>281</ele>
        <time>2016-09-12T08:54:01Z</time>
      </trkpt>
      <trkpt lat="45.85596" lon="4.63174">
        <ele>281</ele>
        <time>2016-09-12T08:54:06Z</time>
      </trkpt>
      <trkpt lat="45.85598" lon="4.63171">
        <ele>281</ele>
        <time>2016-09-12T08:54:07Z</time>
      </trkpt>
      <trkpt lat="45.85604" lon="4.63162">
        <ele>286</ele>
        <time>2016-09-12T08:54:11Z</time>
      </trkpt>
      <trkpt lat="45.85605" lon="4.6316">
        <ele>286</ele>
        <time>2016-09-12T08:54:12Z</time>
      </trkpt>
      <trkpt lat="45.8561" lon="4.63152">
        <ele>286</ele>
        <time>2016-09-12T08:54:15Z</time>
      </trkpt>
      <trkpt lat="45.85612" lon="4.63149">
        <ele>286</ele>
        <time>2016-09-12T08:54:16Z</time>
      </trkpt>
      <trkpt lat="45.85617" lon="4.63142">
        <ele>286</ele>
        <time>2016-09-12T08:54:19Z</time>
      </trkpt>
      <trkpt lat="45.85618" lon="4.63139">
        <ele>286</ele>
        <time>2016-09-12T08:54:20Z</time>
      </trkpt>
      <trkpt lat="45.85623" lon="4.63128">
        <ele>286</ele>
        <time>2016-09-12T08:54:24Z</time>
      </trkpt>
      <trkpt lat="45.85624" lon="4.63125">
        <ele>287</ele>
        <time>2016-09-12T08:54:25Z</time>
      </trkpt>
      <trkpt lat="45.85627" lon="4.63118">
        <ele>287</ele>
        <time>2016-09-12T08:54:28Z</time>
      </trkpt>
      <trkpt lat="45.85629" lon="4.63112">
        <ele>287</ele>
        <time>2016-09-12T08:54:29Z</time>
      </trkpt>
      <trkpt lat="45.85631" lon="4.631">
        <ele>288</ele>
        <time>2016-09-12T08:54:32Z</time>
      </trkpt>
      <trkpt lat="45.85631" lon="4.63097">
        <ele>288</ele>
        <time>2016-09-12T08:54:33Z</time>
      </trkpt>
      <trkpt lat="45.85634" lon="4.63085">
        <ele>288</ele>
        <time>2016-09-12T08:54:37Z</time>
      </trkpt>
      <trkpt lat="45.85634" lon="4.63083">
        <ele>291</ele>
        <time>2016-09-12T08:54:38Z</time>
      </trkpt>
      <trkpt lat="45.85638" lon="4.63071">
        <ele>291</ele>
        <time>2016-09-12T08:54:42Z</time>
      </trkpt>
      <trkpt lat="45.85639" lon="4.63069">
        <ele>291</ele>
        <time>2016-09-12T08:54:43Z</time>
      </trkpt>
      <trkpt lat="45.85642" lon="4.63058">
        <ele>291</ele>
        <time>2016-09-12T08:54:46Z</time>
      </trkpt>
      <trkpt lat="45.85643" lon="4.63055">
        <ele>291</ele>
        <time>2016-09-12T08:54:47Z</time>
      </trkpt>
      <trkpt lat="45.85644" lon="4.63043">
        <ele>291</ele>
        <time>2016-09-12T08:54:50Z</time>
      </trkpt>
      <trkpt lat="45.85644" lon="4.63038">
        <ele>291</ele>
        <time>2016-09-12T08:54:51Z</time>
      </trkpt>
      <trkpt lat="45.85644" lon="4.63027">
        <ele>291</ele>
        <time>2016-09-12T08:54:54Z</time>
      </trkpt>
      <trkpt lat="45.85644" lon="4.63024">
        <ele>291</ele>
        <time>2016-09-12T08:54:55Z</time>
      </trkpt>
      <trkpt lat="45.85642" lon="4.63013">
        <ele>291</ele>
        <time>2016-09-12T08:54:58Z</time>
      </trkpt>
      <trkpt lat="45.8564" lon="4.63009">
        <ele>291</ele>
        <time>2016-09-12T08:54:59Z</time>
      </trkpt>
      <trkpt lat="45.85638" lon="4.62997">
        <ele>290</ele>
        <time>2016-09-12T08:55:01Z</time>
      </trkpt>
      <trkpt lat="45.85637" lon="4.62994">
        <ele>290</ele>
        <time>2016-09-12T08:55:02Z</time>
      </trkpt>
      <trkpt lat="45.85633" lon="4.62987">
        <ele>290</ele>
        <time>2016-09-12T08:55:04Z</time>
      </trkpt>
      <trkpt lat="45.85631" lon="4.62983">
        <ele>290</ele>
        <time>2016-09-12T08:55:05Z</time>
      </trkpt>
      <trkpt lat="45.85627" lon="4.62975">
        <ele>290</ele>
        <time>2016-09-12T08:55:07Z</time>
      </trkpt>
      <trkpt lat="45.85626" lon="4.62972">
        <ele>290</ele>
        <time>2016-09-12T08:55:08Z</time>
      </trkpt>
      <trkpt lat="45.85624" lon="4.62959">
        <ele>290</ele>
        <time>2016-09-12T08:55:11Z</time>
      </trkpt>
      <trkpt lat="45.85623" lon="4.62955">
        <ele>289</ele>
        <time>2016-09-12T08:55:12Z</time>
      </trkpt>
      <trkpt lat="45.85621" lon="4.62944">
        <ele>289</ele>
        <time>2016-09-12T08:55:15Z</time>
      </trkpt>
      <trkpt lat="45.85621" lon="4.6294">
        <ele>289</ele>
        <time>2016-09-12T08:55:16Z</time>
      </trkpt>
      <trkpt lat="45.8562" lon="4.62932">
        <ele>289</ele>
        <time>2016-09-12T08:55:18Z</time>
      </trkpt>
      <trkpt lat="45.8562" lon="4.62927">
        <ele>289</ele>
        <time>2016-09-12T08:55:19Z</time>
      </trkpt>
      <trkpt lat="45.85618" lon="4.62915">
        <ele>288</ele>
        <time>2016-09-12T08:55:22Z</time>
      </trkpt>
      <trkpt lat="45.85618" lon="4.6291">
        <ele>288</ele>
        <time>2016-09-12T08:55:23Z</time>
      </trkpt>
      <trkpt lat="45.85616" lon="4.62898">
        <ele>288</ele>
        <time>2016-09-12T08:55:26Z</time>
      </trkpt>
      <trkpt lat="45.85616" lon="4.62893">
        <ele>288</ele>
        <time>2016-09-12T08:55:27Z</time>
      </trkpt>
      <trkpt lat="45.85617" lon="4.62885">
        <ele>288</ele>
        <time>2016-09-12T08:55:29Z</time>
      </trkpt>
      <trkpt lat="45.85617" lon="4.6288">
        <ele>288</ele>
        <time>2016-09-12T08:55:30Z</time>
      </trkpt>
      <trkpt lat="45.85617" lon="4.62872">
        <ele>288</ele>
        <time>2016-09-12T08:55:32Z</time>
      </trkpt>
      <trkpt lat="45.85618" lon="4.62867">
        <ele>288</ele>
        <time>2016-09-12T08:55:33Z</time>
      </trkpt>
      <trkpt lat="45.8562" lon="4.62857">
        <ele>288</ele>
        <time>2016-09-12T08:55:35Z</time>
      </trkpt>
      <trkpt lat="45.85621" lon="4.62852">
        <ele>289</ele>
        <time>2016-09-12T08:55:36Z</time>
      </trkpt>
      <trkpt lat="45.85621" lon="4.6284">
        <ele>289</ele>
        <time>2016-09-12T08:55:39Z</time>
      </trkpt>
      <trkpt lat="45.85621" lon="4.62836">
        <ele>289</ele>
        <time>2016-09-12T08:55:40Z</time>
      </trkpt>
      <trkpt lat="45.85624" lon="4.62823">
        <ele>290</ele>
        <time>2016-09-12T08:55:43Z</time>
      </trkpt>
      <trkpt lat="45.85624" lon="4.62819">
        <ele>290</ele>
        <time>2016-09-12T08:55:44Z</time>
      </trkpt>
      <trkpt lat="45.85624" lon="4.6281">
        <ele>290</ele>
        <time>2016-09-12T08:55:46Z</time>
      </trkpt>
      <trkpt lat="45.85625" lon="4.62805">
        <ele>290</ele>
        <time>2016-09-12T08:55:47Z</time>
      </trkpt>
      <trkpt lat="45.85626" lon="4.62797">
        <ele>290</ele>
        <time>2016-09-12T08:55:49Z</time>
      </trkpt>
      <trkpt lat="45.85626" lon="4.62792">
        <ele>290</ele>
        <time>2016-09-12T08:55:50Z</time>
      </trkpt>
      <trkpt lat="45.85628" lon="4.62783">
        <ele>291</ele>
        <time>2016-09-12T08:55:52Z</time>
      </trkpt>
      <trkpt lat="45.85628" lon="4.62779">
        <ele>291</ele>
        <time>2016-09-12T08:55:53Z</time>
      </trkpt>
      <trkpt lat="45.8563" lon="4.62771">
        <ele>291</ele>
        <time>2016-09-12T08:55:55Z</time>
      </trkpt>
      <trkpt lat="45.85631" lon="4.62766">
        <ele>291</ele>
        <time>2016-09-12T08:55:56Z</time>
      </trkpt>
      <trkpt lat="45.85632" lon="4.62758">
        <ele>291</ele>
        <time>2016-09-12T08:55:58Z</time>
      </trkpt>
      <trkpt lat="45.85633" lon="4.62753">
        <ele>291</ele>
        <time>2016-09-12T08:55:59Z</time>
      </trkpt>
      <trkpt lat="45.85634" lon="4.62745">
        <ele>292</ele>
        <time>2016-09-12T08:56:01Z</time>
      </trkpt>
      <trkpt lat="45.85634" lon="4.6274">
        <ele>292</ele>
        <time>2016-09-12T08:56:02Z</time>
      </trkpt>
      <trkpt lat="45.85636" lon="4.62732">
        <ele>293</ele>
        <time>2016-09-12T08:56:04Z</time>
      </trkpt>
      <trkpt lat="45.85637" lon="4.62727">
        <ele>293</ele>
        <time>2016-09-12T08:56:05Z</time>
      </trkpt>
      <trkpt lat="45.85638" lon="4.62718">
        <ele>293</ele>
        <time>2016-09-12T08:56:07Z</time>
      </trkpt>
      <trkpt lat="45.85639" lon="4.62713">
        <ele>293</ele>
        <time>2016-09-12T08:56:08Z</time>
      </trkpt>
      <trkpt lat="45.85641" lon="4.62704">
        <ele>293</ele>
        <time>2016-09-12T08:56:10Z</time>
      </trkpt>
      <trkpt lat="45.85642" lon="4.62699">
        <ele>293</ele>
        <time>2016-09-12T08:56:11Z</time>
      </trkpt>
      <trkpt lat="45.85644" lon="4.6269">
        <ele>293</ele>
        <time>2016-09-12T08:56:13Z</time>
      </trkpt>
      <trkpt lat="45.85645" lon="4.62686">
        <ele>293</ele>
        <time>2016-09-12T08:56:14Z</time>
      </trkpt>
      <trkpt lat="45.85646" lon="4.62677">
        <ele>293</ele>
        <time>2016-09-12T08:56:16Z</time>
      </trkpt>
      <trkpt lat="45.85647" lon="4.62673">
        <ele>293</ele>
        <time>2016-09-12T08:56:17Z</time>
      </trkpt>
      <trkpt lat="45.8565" lon="4.62664">
        <ele>294</ele>
        <time>2016-09-12T08:56:19Z</time>
      </trkpt>
      <trkpt lat="45.85651" lon="4.62659">
        <ele>294</ele>
        <time>2016-09-12T08:56:20Z</time>
      </trkpt>
      <trkpt lat="45.85654" lon="4.62651">
        <ele>294</ele>
        <time>2016-09-12T08:56:22Z</time>
      </trkpt>
      <trkpt lat="45.85655" lon="4.62646">
        <ele>294</ele>
        <time>2016-09-12T08:56:23Z</time>
      </trkpt>
      <trkpt lat="45.85658" lon="4.62637">
        <ele>294</ele>
        <time>2016-09-12T08:56:25Z</time>
      </trkpt>
      <trkpt lat="45.8566" lon="4.62633">
        <ele>294</ele>
        <time>2016-09-12T08:56:26Z</time>
      </trkpt>
      <trkpt lat="45.85663" lon="4.62624">
        <ele>294</ele>
        <time>2016-09-12T08:56:28Z</time>
      </trkpt>
      <trkpt lat="45.85664" lon="4.62619">
        <ele>294</ele>
        <time>2016-09-12T08:56:29Z</time>
      </trkpt>
      <trkpt lat="45.85666" lon="4.6261">
        <ele>294</ele>
        <time>2016-09-12T08:56:31Z</time>
      </trkpt>
      <trkpt lat="45.85667" lon="4.62606">
        <ele>295</ele>
        <time>2016-09-12T08:56:32Z</time>
      </trkpt>
      <trkpt lat="45.85669" lon="4.62596">
        <ele>295</ele>
        <time>2016-09-12T08:56:34Z</time>
      </trkpt>
      <trkpt lat="45.8567" lon="4.62591">
        <ele>295</ele>
        <time>2016-09-12T08:56:35Z</time>
      </trkpt>
      <trkpt lat="45.85673" lon="4.62581">
        <ele>295</ele>
        <time>2016-09-12T08:56:37Z</time>
      </trkpt>
      <trkpt lat="45.85675" lon="4.62576">
        <ele>295</ele>
        <time>2016-09-12T08:56:38Z</time>
      </trkpt>
      <trkpt lat="45.85677" lon="4.62566">
        <ele>295</ele>
        <time>2016-09-12T08:56:40Z</time>
      </trkpt>
      <trkpt lat="45.85679" lon="4.62561">
        <ele>295</ele>
        <time>2016-09-12T08:56:41Z</time>
      </trkpt>
      <trkpt lat="45.85682" lon="4.62551">
        <ele>295</ele>
        <time>2016-09-12T08:56:43Z</time>
      </trkpt>
      <trkpt lat="45.85683" lon="4.62546">
        <ele>295</ele>
        <time>2016-09-12T08:56:44Z</time>
      </trkpt>
      <trkpt lat="45.85686" lon="4.62537">
        <ele>295</ele>
        <time>2016-09-12T08:56:46Z</time>
      </trkpt>
      <trkpt lat="45.85688" lon="4.62533">
        <ele>295</ele>
        <time>2016-09-12T08:56:47Z</time>
      </trkpt>
      <trkpt lat="45.85691" lon="4.62523">
        <ele>295</ele>
        <time>2016-09-12T08:56:49Z</time>
      </trkpt>
      <trkpt lat="45.85692" lon="4.62519">
        <ele>295</ele>
        <time>2016-09-12T08:56:50Z</time>
      </trkpt>
      <trkpt lat="45.85696" lon="4.62509">
        <ele>295</ele>
        <time>2016-09-12T08:56:52Z</time>
      </trkpt>
      <trkpt lat="45.85698" lon="4.62504">
        <ele>295</ele>
        <time>2016-09-12T08:56:53Z</time>
      </trkpt>
      <trkpt lat="45.85701" lon="4.62494">
        <ele>295</ele>
        <time>2016-09-12T08:56:55Z</time>
      </trkpt>
      <trkpt lat="45.85703" lon="4.62489">
        <ele>295</ele>
        <time>2016-09-12T08:56:56Z</time>
      </trkpt>
      <trkpt lat="45.85706" lon="4.62479">
        <ele>295</ele>
        <time>2016-09-12T08:56:58Z</time>
      </trkpt>
      <trkpt lat="45.85708" lon="4.62475">
        <ele>295</ele>
        <time>2016-09-12T08:56:59Z</time>
      </trkpt>
      <trkpt lat="45.85712" lon="4.62464">
        <ele>295</ele>
        <time>2016-09-12T08:57:01Z</time>
      </trkpt>
      <trkpt lat="45.85714" lon="4.62459">
        <ele>295</ele>
        <time>2016-09-12T08:57:02Z</time>
      </trkpt>
      <trkpt lat="45.85718" lon="4.62448">
        <ele>295</ele>
        <time>2016-09-12T08:57:04Z</time>
      </trkpt>
      <trkpt lat="45.8572" lon="4.62442">
        <ele>295</ele>
        <time>2016-09-12T08:57:05Z</time>
      </trkpt>
      <trkpt lat="45.85722" lon="4.62437">
        <ele>295</ele>
        <time>2016-09-12T08:57:06Z</time>
      </trkpt>
      <trkpt lat="45.85725" lon="4.62431">
        <ele>295</ele>
        <time>2016-09-12T08:57:07Z</time>
      </trkpt>
      <trkpt lat="45.85727" lon="4.62426">
        <ele>295</ele>
        <time>2016-09-12T08:57:08Z</time>
      </trkpt>
      <trkpt lat="45.8573" lon="4.6242">
        <ele>295</ele>
        <time>2016-09-12T08:57:09Z</time>
      </trkpt>
      <trkpt lat="45.85735" lon="4.6241">
        <ele>295</ele>
        <time>2016-09-12T08:57:11Z</time>
      </trkpt>
      <trkpt lat="45.85738" lon="4.62405">
        <ele>295</ele>
        <time>2016-09-12T08:57:12Z</time>
      </trkpt>
      <trkpt lat="45.85741" lon="4.624">
        <ele>295</ele>
        <time>2016-09-12T08:57:13Z</time>
      </trkpt>
      <trkpt lat="45.85744" lon="4.62395">
        <ele>295</ele>
        <time>2016-09-12T08:57:14Z</time>
      </trkpt>
      <trkpt lat="45.85747" lon="4.62389">
        <ele>295</ele>
        <time>2016-09-12T08:57:15Z</time>
      </trkpt>
      <trkpt lat="45.85751" lon="4.62384">
        <ele>296</ele>
        <time>2016-09-12T08:57:16Z</time>
      </trkpt>
      <trkpt lat="45.85754" lon="4.62378">
        <ele>296</ele>
        <time>2016-09-12T08:57:17Z</time>
      </trkpt>
      <trkpt lat="45.85757" lon="4.62373">
        <ele>296</ele>
        <time>2016-09-12T08:57:18Z</time>
      </trkpt>
      <trkpt lat="45.85763" lon="4.62363">
        <ele>296</ele>
        <time>2016-09-12T08:57:20Z</time>
      </trkpt>
      <trkpt lat="45.85766" lon="4.62358">
        <ele>296</ele>
        <time>2016-09-12T08:57:21Z</time>
      </trkpt>
      <trkpt lat="45.85771" lon="4.6235">
        <ele>296</ele>
        <time>2016-09-12T08:57:23Z</time>
      </trkpt>
      <trkpt lat="45.85773" lon="4.62346">
        <ele>296</ele>
        <time>2016-09-12T08:57:24Z</time>
      </trkpt>
      <trkpt lat="45.85779" lon="4.62337">
        <ele>296</ele>
        <time>2016-09-12T08:57:26Z</time>
      </trkpt>
      <trkpt lat="45.85782" lon="4.62333">
        <ele>297</ele>
        <time>2016-09-12T08:57:27Z</time>
      </trkpt>
      <trkpt lat="45.85788" lon="4.62325">
        <ele>297</ele>
        <time>2016-09-12T08:57:29Z</time>
      </trkpt>
      <trkpt lat="45.85791" lon="4.6232">
        <ele>297</ele>
        <time>2016-09-12T08:57:30Z</time>
      </trkpt>
      <trkpt lat="45.85798" lon="4.62312">
        <ele>297</ele>
        <time>2016-09-12T08:57:32Z</time>
      </trkpt>
      <trkpt lat="45.85801" lon="4.62308">
        <ele>297</ele>
        <time>2016-09-12T08:57:33Z</time>
      </trkpt>
      <trkpt lat="45.85807" lon="4.62301">
        <ele>297</ele>
        <time>2016-09-12T08:57:35Z</time>
      </trkpt>
      <trkpt lat="45.8581" lon="4.62297">
        <ele>298</ele>
        <time>2016-09-12T08:57:36Z</time>
      </trkpt>
      <trkpt lat="45.85815" lon="4.6229">
        <ele>298</ele>
        <time>2016-09-12T08:57:38Z</time>
      </trkpt>
      <trkpt lat="45.85818" lon="4.62288">
        <ele>298</ele>
        <time>2016-09-12T08:57:39Z</time>
      </trkpt>
      <trkpt lat="45.85824" lon="4.62281">
        <ele>298</ele>
        <time>2016-09-12T08:57:41Z</time>
      </trkpt>
      <trkpt lat="45.85827" lon="4.62277">
        <ele>298</ele>
        <time>2016-09-12T08:57:42Z</time>
      </trkpt>
      <trkpt lat="45.85834" lon="4.6227">
        <ele>298</ele>
        <time>2016-09-12T08:57:44Z</time>
      </trkpt>
      <trkpt lat="45.85838" lon="4.62266">
        <ele>298</ele>
        <time>2016-09-12T08:57:45Z</time>
      </trkpt>
      <trkpt lat="45.85845" lon="4.62259">
        <ele>299</ele>
        <time>2016-09-12T08:57:47Z</time>
      </trkpt>
      <trkpt lat="45.85848" lon="4.62256">
        <ele>299</ele>
        <time>2016-09-12T08:57:48Z</time>
      </trkpt>
      <trkpt lat="45.85854" lon="4.62248">
        <ele>299</ele>
        <time>2016-09-12T08:57:50Z</time>
      </trkpt>
      <trkpt lat="45.85857" lon="4.62244">
        <ele>299</ele>
        <time>2016-09-12T08:57:51Z</time>
      </trkpt>
      <trkpt lat="45.85863" lon="4.62234">
        <ele>299</ele>
        <time>2016-09-12T08:57:53Z</time>
      </trkpt>
      <trkpt lat="45.85865" lon="4.62229">
        <ele>299</ele>
        <time>2016-09-12T08:57:54Z</time>
      </trkpt>
      <trkpt lat="45.8587" lon="4.62219">
        <ele>299</ele>
        <time>2016-09-12T08:57:56Z</time>
      </trkpt>
      <trkpt lat="45.85872" lon="4.62215">
        <ele>299</ele>
        <time>2016-09-12T08:57:57Z</time>
      </trkpt>
      <trkpt lat="45.85876" lon="4.62205">
        <ele>299</ele>
        <time>2016-09-12T08:57:59Z</time>
      </trkpt>
      <trkpt lat="45.85878" lon="4.622">
        <ele>299</ele>
        <time>2016-09-12T08:58:00Z</time>
      </trkpt>
      <trkpt lat="45.85882" lon="4.62191">
        <ele>299</ele>
        <time>2016-09-12T08:58:02Z</time>
      </trkpt>
      <trkpt lat="45.85884" lon="4.62186">
        <ele>299</ele>
        <time>2016-09-12T08:58:03Z</time>
      </trkpt>
      <trkpt lat="45.85888" lon="4.62177">
        <ele>300</ele>
        <time>2016-09-12T08:58:05Z</time>
      </trkpt>
      <trkpt lat="45.85891" lon="4.62172">
        <ele>300</ele>
        <time>2016-09-12T08:58:06Z</time>
      </trkpt>
      <trkpt lat="45.85893" lon="4.62166">
        <ele>300</ele>
        <time>2016-09-12T08:58:07Z</time>
      </trkpt>
      <trkpt lat="45.85896" lon="4.62161">
        <ele>300</ele>
        <time>2016-09-12T08:58:08Z</time>
      </trkpt>
      <trkpt lat="45.85899" lon="4.62156">
        <ele>301</ele>
        <time>2016-09-12T08:58:09Z</time>
      </trkpt>
      <trkpt lat="45.85901" lon="4.6215">
        <ele>301</ele>
        <time>2016-09-12T08:58:10Z</time>
      </trkpt>
      <trkpt lat="45.85903" lon="4.62144">
        <ele>301</ele>
        <time>2016-09-12T08:58:11Z</time>
      </trkpt>
      <trkpt lat="45.85906" lon="4.62138">
        <ele>301</ele>
        <time>2016-09-12T08:58:12Z</time>
      </trkpt>
      <trkpt lat="45.85908" lon="4.62132">
        <ele>301</ele>
        <time>2016-09-12T08:58:13Z</time>
      </trkpt>
      <trkpt lat="45.8591" lon="4.62126">
        <ele>301</ele>
        <time>2016-09-12T08:58:14Z</time>
      </trkpt>
      <trkpt lat="45.85915" lon="4.62115">
        <ele>301</ele>
        <time>2016-09-12T08:58:16Z</time>
      </trkpt>
      <trkpt lat="45.85917" lon="4.6211">
        <ele>301</ele>
        <time>2016-09-12T08:58:17Z</time>
      </trkpt>
      <trkpt lat="45.85921" lon="4.62099">
        <ele>303</ele>
        <time>2016-09-12T08:58:19Z</time>
      </trkpt>
      <trkpt lat="45.85923" lon="4.62095">
        <ele>303</ele>
        <time>2016-09-12T08:58:20Z</time>
      </trkpt>
      <trkpt lat="45.85927" lon="4.62086">
        <ele>303</ele>
        <time>2016-09-12T08:58:22Z</time>
      </trkpt>
      <trkpt lat="45.85929" lon="4.62081">
        <ele>303</ele>
        <time>2016-09-12T08:58:23Z</time>
      </trkpt>
      <trkpt lat="45.85933" lon="4.62071">
        <ele>304</ele>
        <time>2016-09-12T08:58:25Z</time>
      </trkpt>
      <trkpt lat="45.85935" lon="4.62067">
        <ele>304</ele>
        <time>2016-09-12T08:58:26Z</time>
      </trkpt>
      <trkpt lat="45.8594" lon="4.62057">
        <ele>304</ele>
        <time>2016-09-12T08:58:28Z</time>
      </trkpt>
      <trkpt lat="45.85942" lon="4.62052">
        <ele>304</ele>
        <time>2016-09-12T08:58:29Z</time>
      </trkpt>
      <trkpt lat="45.85946" lon="4.62042">
        <ele>304</ele>
        <time>2016-09-12T08:58:31Z</time>
      </trkpt>
      <trkpt lat="45.85948" lon="4.62037">
        <ele>305</ele>
        <time>2016-09-12T08:58:32Z</time>
      </trkpt>
      <trkpt lat="45.85952" lon="4.62027">
        <ele>305</ele>
        <time>2016-09-12T08:58:34Z</time>
      </trkpt>
      <trkpt lat="45.85954" lon="4.62022">
        <ele>305</ele>
        <time>2016-09-12T08:58:35Z</time>
      </trkpt>
      <trkpt lat="45.85958" lon="4.62011">
        <ele>305</ele>
        <time>2016-09-12T08:58:37Z</time>
      </trkpt>
      <trkpt lat="45.8596" lon="4.62007">
        <ele>305</ele>
        <time>2016-09-12T08:58:38Z</time>
      </trkpt>
      <trkpt lat="45.85963" lon="4.61997">
        <ele>307</ele>
        <time>2016-09-12T08:58:40Z</time>
      </trkpt>
      <trkpt lat="45.85965" lon="4.61993">
        <ele>307</ele>
        <time>2016-09-12T08:58:41Z</time>
      </trkpt>
      <trkpt lat="45.85967" lon="4.61983">
        <ele>307</ele>
        <time>2016-09-12T08:58:43Z</time>
      </trkpt>
      <trkpt lat="45.85968" lon="4.61978">
        <ele>307</ele>
        <time>2016-09-12T08:58:44Z</time>
      </trkpt>
      <trkpt lat="45.8597" lon="4.61967">
        <ele>307</ele>
        <time>2016-09-12T08:58:46Z</time>
      </trkpt>
      <trkpt lat="45.85971" lon="4.61962">
        <ele>307</ele>
        <time>2016-09-12T08:58:47Z</time>
      </trkpt>
      <trkpt lat="45.85971" lon="4.61951">
        <ele>308</ele>
        <time>2016-09-12T08:58:49Z</time>
      </trkpt>
      <trkpt lat="45.85972" lon="4.61946">
        <ele>308</ele>
        <time>2016-09-12T08:58:50Z</time>
      </trkpt>
      <trkpt lat="45.85974" lon="4.61934">
        <ele>308</ele>
        <time>2016-09-12T08:58:52Z</time>
      </trkpt>
      <trkpt lat="45.85975" lon="4.61928">
        <ele>308</ele>
        <time>2016-09-12T08:58:53Z</time>
      </trkpt>
      <trkpt lat="45.85976" lon="4.61915">
        <ele>309</ele>
        <time>2016-09-12T08:58:55Z</time>
      </trkpt>
      <trkpt lat="45.85977" lon="4.61909">
        <ele>309</ele>
        <time>2016-09-12T08:58:56Z</time>
      </trkpt>
      <trkpt lat="45.8598" lon="4.61898">
        <ele>309</ele>
        <time>2016-09-12T08:58:58Z</time>
      </trkpt>
      <trkpt lat="45.85981" lon="4.61892">
        <ele>309</ele>
        <time>2016-09-12T08:58:59Z</time>
      </trkpt>
      <trkpt lat="45.85984" lon="4.61882">
        <ele>309</ele>
        <time>2016-09-12T08:59:01Z</time>
      </trkpt>
      <trkpt lat="45.85987" lon="4.61878">
        <ele>309</ele>
        <time>2016-09-12T08:59:02Z</time>
      </trkpt>
      <trkpt lat="45.85991" lon="4.6187">
        <ele>309</ele>
        <time>2016-09-12T08:59:04Z</time>
      </trkpt>
      <trkpt lat="45.85993" lon="4.61866">
        <ele>309</ele>
        <time>2016-09-12T08:59:05Z</time>
      </trkpt>
      <trkpt lat="45.85996" lon="4.61858">
        <ele>309</ele>
        <time>2016-09-12T08:59:07Z</time>
      </trkpt>
      <trkpt lat="45.85998" lon="4.61854">
        <ele>309</ele>
        <time>2016-09-12T08:59:08Z</time>
      </trkpt>
      <trkpt lat="45.86003" lon="4.61847">
        <ele>311</ele>
        <time>2016-09-12T08:59:10Z</time>
      </trkpt>
      <trkpt lat="45.86005" lon="4.61843">
        <ele>311</ele>
        <time>2016-09-12T08:59:11Z</time>
      </trkpt>
      <trkpt lat="45.8601" lon="4.61835">
        <ele>311</ele>
        <time>2016-09-12T08:59:13Z</time>
      </trkpt>
      <trkpt lat="45.86012" lon="4.61831">
        <ele>312</ele>
        <time>2016-09-12T08:59:14Z</time>
      </trkpt>
      <trkpt lat="45.86017" lon="4.61824">
        <ele>312</ele>
        <time>2016-09-12T08:59:16Z</time>
      </trkpt>
      <trkpt lat="45.86019" lon="4.6182">
        <ele>312</ele>
        <time>2016-09-12T08:59:17Z</time>
      </trkpt>
      <trkpt lat="45.86024" lon="4.61814">
        <ele>313</ele>
        <time>2016-09-12T08:59:19Z</time>
      </trkpt>
      <trkpt lat="45.86026" lon="4.6181">
        <ele>313</ele>
        <time>2016-09-12T08:59:20Z</time>
      </trkpt>
      <trkpt lat="45.86031" lon="4.61802">
        <ele>313</ele>
        <time>2016-09-12T08:59:22Z</time>
      </trkpt>
      <trkpt lat="45.86034" lon="4.61799">
        <ele>313</ele>
        <time>2016-09-12T08:59:23Z</time>
      </trkpt>
      <trkpt lat="45.86039" lon="4.61792">
        <ele>314</ele>
        <time>2016-09-12T08:59:25Z</time>
      </trkpt>
      <trkpt lat="45.86042" lon="4.61789">
        <ele>314</ele>
        <time>2016-09-12T08:59:26Z</time>
      </trkpt>
      <trkpt lat="45.86048" lon="4.61784">
        <ele>314</ele>
        <time>2016-09-12T08:59:28Z</time>
      </trkpt>
      <trkpt lat="45.8605" lon="4.61781">
        <ele>314</ele>
        <time>2016-09-12T08:59:29Z</time>
      </trkpt>
      <trkpt lat="45.86057" lon="4.61776">
        <ele>314</ele>
        <time>2016-09-12T08:59:31Z</time>
      </trkpt>
      <trkpt lat="45.8606" lon="4.61774">
        <ele>314</ele>
        <time>2016-09-12T08:59:32Z</time>
      </trkpt>
      <trkpt lat="45.86065" lon="4.61769">
        <ele>315</ele>
        <time>2016-09-12T08:59:34Z</time>
      </trkpt>
      <trkpt lat="45.86068" lon="4.61767">
        <ele>315</ele>
        <time>2016-09-12T08:59:35Z</time>
      </trkpt>
      <trkpt lat="45.86074" lon="4.61762">
        <ele>315</ele>
        <time>2016-09-12T08:59:37Z</time>
      </trkpt>
      <trkpt lat="45.86077" lon="4.61759">
        <ele>315</ele>
        <time>2016-09-12T08:59:38Z</time>
      </trkpt>
      <trkpt lat="45.86083" lon="4.61753">
        <ele>316</ele>
        <time>2016-09-12T08:59:40Z</time>
      </trkpt>
      <trkpt lat="45.86086" lon="4.6175">
        <ele>316</ele>
        <time>2016-09-12T08:59:41Z</time>
      </trkpt>
      <trkpt lat="45.86091" lon="4.61743">
        <ele>317</ele>
        <time>2016-09-12T08:59:43Z</time>
      </trkpt>
      <trkpt lat="45.86094" lon="4.6174">
        <ele>318</ele>
        <time>2016-09-12T08:59:44Z</time>
      </trkpt>
      <trkpt lat="45.86098" lon="4.61733">
        <ele>318</ele>
        <time>2016-09-12T08:59:46Z</time>
      </trkpt>
      <trkpt lat="45.861" lon="4.61729">
        <ele>318</ele>
        <time>2016-09-12T08:59:47Z</time>
      </trkpt>
      <trkpt lat="45.86103" lon="4.61721">
        <ele>318</ele>
        <time>2016-09-12T08:59:49Z</time>
      </trkpt>
      <trkpt lat="45.86105" lon="4.61716">
        <ele>319</ele>
        <time>2016-09-12T08:59:50Z</time>
      </trkpt>
      <trkpt lat="45.86107" lon="4.61707">
        <ele>319</ele>
        <time>2016-09-12T08:59:52Z</time>
      </trkpt>
      <trkpt lat="45.86108" lon="4.61702">
        <ele>319</ele>
        <time>2016-09-12T08:59:53Z</time>
      </trkpt>
      <trkpt lat="45.86111" lon="4.61693">
        <ele>318</ele>
        <time>2016-09-12T08:59:55Z</time>
      </trkpt>
      <trkpt lat="45.86112" lon="4.61688">
        <ele>318</ele>
        <time>2016-09-12T08:59:56Z</time>
      </trkpt>
      <trkpt lat="45.86115" lon="4.61678">
        <ele>318</ele>
        <time>2016-09-12T08:59:58Z</time>
      </trkpt>
      <trkpt lat="45.86117" lon="4.61673">
        <ele>318</ele>
        <time>2016-09-12T08:59:59Z</time>
      </trkpt>
      <trkpt lat="45.86122" lon="4.61663">
        <ele>318</ele>
        <time>2016-09-12T09:00:01Z</time>
      </trkpt>
      <trkpt lat="45.86124" lon="4.61658">
        <ele>318</ele>
        <time>2016-09-12T09:00:02Z</time>
      </trkpt>
      <trkpt lat="45.86128" lon="4.61648">
        <ele>318</ele>
        <time>2016-09-12T09:00:04Z</time>
      </trkpt>
      <trkpt lat="45.8613" lon="4.61643">
        <ele>318</ele>
        <time>2016-09-12T09:00:05Z</time>
      </trkpt>
      <trkpt lat="45.86134" lon="4.61636">
        <ele>318</ele>
        <time>2016-09-12T09:00:07Z</time>
      </trkpt>
      <trkpt lat="45.86136" lon="4.61632">
        <ele>318</ele>
        <time>2016-09-12T09:00:08Z</time>
      </trkpt>
      <trkpt lat="45.8614" lon="4.61623">
        <ele>318</ele>
        <time>2016-09-12T09:00:10Z</time>
      </trkpt>
      <trkpt lat="45.86141" lon="4.61619">
        <ele>318</ele>
        <time>2016-09-12T09:00:11Z</time>
      </trkpt>
      <trkpt lat="45.86145" lon="4.61612">
        <ele>318</ele>
        <time>2016-09-12T09:00:13Z</time>
      </trkpt>
      <trkpt lat="45.86147" lon="4.61608">
        <ele>318</ele>
        <time>2016-09-12T09:00:14Z</time>
      </trkpt>
      <trkpt lat="45.86152" lon="4.61601">
        <ele>318</ele>
        <time>2016-09-12T09:00:16Z</time>
      </trkpt>
      <trkpt lat="45.86154" lon="4.61598">
        <ele>318</ele>
        <time>2016-09-12T09:00:17Z</time>
      </trkpt>
      <trkpt lat="45.8616" lon="4.61592">
        <ele>319</ele>
        <time>2016-09-12T09:00:19Z</time>
      </trkpt>
      <trkpt lat="45.86162" lon="4.6159">
        <ele>319</ele>
        <time>2016-09-12T09:00:20Z</time>
      </trkpt>
      <trkpt lat="45.86168" lon="4.61585">
        <ele>319</ele>
        <time>2016-09-12T09:00:22Z</time>
      </trkpt>
      <trkpt lat="45.86171" lon="4.61582">
        <ele>319</ele>
        <time>2016-09-12T09:00:23Z</time>
      </trkpt>
      <trkpt lat="45.86177" lon="4.61576">
        <ele>320</ele>
        <time>2016-09-12T09:00:25Z</time>
      </trkpt>
      <trkpt lat="45.86179" lon="4.61574">
        <ele>320</ele>
        <time>2016-09-12T09:00:26Z</time>
      </trkpt>
      <trkpt lat="45.86186" lon="4.6157">
        <ele>321</ele>
        <time>2016-09-12T09:00:28Z</time>
      </trkpt>
      <trkpt lat="45.86189" lon="4.61568">
        <ele>321</ele>
        <time>2016-09-12T09:00:29Z</time>
      </trkpt>
      <trkpt lat="45.86195" lon="4.61565">
        <ele>321</ele>
        <time>2016-09-12T09:00:31Z</time>
      </trkpt>
      <trkpt lat="45.86198" lon="4.61562">
        <ele>321</ele>
        <time>2016-09-12T09:00:32Z</time>
      </trkpt>
      <trkpt lat="45.86203" lon="4.61558">
        <ele>321</ele>
        <time>2016-09-12T09:00:34Z</time>
      </trkpt>
      <trkpt lat="45.86206" lon="4.61555">
        <ele>322</ele>
        <time>2016-09-12T09:00:35Z</time>
      </trkpt>
      <trkpt lat="45.86211" lon="4.61549">
        <ele>322</ele>
        <time>2016-09-12T09:00:37Z</time>
      </trkpt>
      <trkpt lat="45.86213" lon="4.61546">
        <ele>322</ele>
        <time>2016-09-12T09:00:38Z</time>
      </trkpt>
      <trkpt lat="45.86218" lon="4.61539">
        <ele>322</ele>
        <time>2016-09-12T09:00:40Z</time>
      </trkpt>
      <trkpt lat="45.8622" lon="4.61535">
        <ele>322</ele>
        <time>2016-09-12T09:00:41Z</time>
      </trkpt>
      <trkpt lat="45.86223" lon="4.61526">
        <ele>322</ele>
        <time>2016-09-12T09:00:43Z</time>
      </trkpt>
      <trkpt lat="45.86225" lon="4.61522">
        <ele>322</ele>
        <time>2016-09-12T09:00:44Z</time>
      </trkpt>
      <trkpt lat="45.86228" lon="4.61513">
        <ele>323</ele>
        <time>2016-09-12T09:00:46Z</time>
      </trkpt>
      <trkpt lat="45.8623" lon="4.6151">
        <ele>323</ele>
        <time>2016-09-12T09:00:47Z</time>
      </trkpt>
      <trkpt lat="45.86232" lon="4.61503">
        <ele>323</ele>
        <time>2016-09-12T09:00:49Z</time>
      </trkpt>
      <trkpt lat="45.86234" lon="4.61499">
        <ele>324</ele>
        <time>2016-09-12T09:00:50Z</time>
      </trkpt>
      <trkpt lat="45.86238" lon="4.61491">
        <ele>324</ele>
        <time>2016-09-12T09:00:52Z</time>
      </trkpt>
      <trkpt lat="45.8624" lon="4.61487">
        <ele>324</ele>
        <time>2016-09-12T09:00:53Z</time>
      </trkpt>
      <trkpt lat="45.86243" lon="4.61479">
        <ele>324</ele>
        <time>2016-09-12T09:00:55Z</time>
      </trkpt>
      <trkpt lat="45.86245" lon="4.61475">
        <ele>324</ele>
        <time>2016-09-12T09:00:56Z</time>
      </trkpt>
      <trkpt lat="45.86248" lon="4.61466">
        <ele>324</ele>
        <time>2016-09-12T09:00:58Z</time>
      </trkpt>
      <trkpt lat="45.86249" lon="4.61462">
        <ele>324</ele>
        <time>2016-09-12T09:00:59Z</time>
      </trkpt>
      <trkpt lat="45.86252" lon="4.61454">
        <ele>326</ele>
        <time>2016-09-12T09:01:01Z</time>
      </trkpt>
      <trkpt lat="45.86254" lon="4.6145">
        <ele>326</ele>
        <time>2016-09-12T09:01:02Z</time>
      </trkpt>
      <trkpt lat="45.86256" lon="4.61442">
        <ele>326</ele>
        <time>2016-09-12T09:01:04Z</time>
      </trkpt>
      <trkpt lat="45.86258" lon="4.61437">
        <ele>326</ele>
        <time>2016-09-12T09:01:05Z</time>
      </trkpt>
      <trkpt lat="45.86261" lon="4.61428">
        <ele>326</ele>
        <time>2016-09-12T09:01:07Z</time>
      </trkpt>
      <trkpt lat="45.86263" lon="4.61424">
        <ele>326</ele>
        <time>2016-09-12T09:01:08Z</time>
      </trkpt>
      <trkpt lat="45.86266" lon="4.61415">
        <ele>327</ele>
        <time>2016-09-12T09:01:10Z</time>
      </trkpt>
      <trkpt lat="45.86267" lon="4.61411">
        <ele>327</ele>
        <time>2016-09-12T09:01:11Z</time>
      </trkpt>
      <trkpt lat="45.8627" lon="4.61402">
        <ele>327</ele>
        <time>2016-09-12T09:01:13Z</time>
      </trkpt>
      <trkpt lat="45.86271" lon="4.61397">
        <ele>327</ele>
        <time>2016-09-12T09:01:14Z</time>
      </trkpt>
      <trkpt lat="45.86272" lon="4.61387">
        <ele>328</ele>
        <time>2016-09-12T09:01:16Z</time>
      </trkpt>
      <trkpt lat="45.86273" lon="4.61382">
        <ele>328</ele>
        <time>2016-09-12T09:01:17Z</time>
      </trkpt>
      <trkpt lat="45.86274" lon="4.61372">
        <ele>328</ele>
        <time>2016-09-12T09:01:19Z</time>
      </trkpt>
      <trkpt lat="45.86275" lon="4.61367">
        <ele>328</ele>
        <time>2016-09-12T09:01:20Z</time>
      </trkpt>
      <trkpt lat="45.86277" lon="4.61357">
        <ele>328</ele>
        <time>2016-09-12T09:01:22Z</time>
      </trkpt>
      <trkpt lat="45.86278" lon="4.61352">
        <ele>328</ele>
        <time>2016-09-12T09:01:23Z</time>
      </trkpt>
      <trkpt lat="45.86279" lon="4.61342">
        <ele>328</ele>
        <time>2016-09-12T09:01:25Z</time>
      </trkpt>
      <trkpt lat="45.8628" lon="4.61337">
        <ele>328</ele>
        <time>2016-09-12T09:01:26Z</time>
      </trkpt>
      <trkpt lat="45.86281" lon="4.61328">
        <ele>328</ele>
        <time>2016-09-12T09:01:28Z</time>
      </trkpt>
      <trkpt lat="45.86282" lon="4.61323">
        <ele>329</ele>
        <time>2016-09-12T09:01:29Z</time>
      </trkpt>
      <trkpt lat="45.86284" lon="4.61314">
        <ele>329</ele>
        <time>2016-09-12T09:01:31Z</time>
      </trkpt>
      <trkpt lat="45.86285" lon="4.61309">
        <ele>329</ele>
        <time>2016-09-12T09:01:32Z</time>
      </trkpt>
      <trkpt lat="45.86287" lon="4.613">
        <ele>329</ele>
        <time>2016-09-12T09:01:34Z</time>
      </trkpt>
      <trkpt lat="45.86288" lon="4.61294">
        <ele>329</ele>
        <time>2016-09-12T09:01:35Z</time>
      </trkpt>
      <trkpt lat="45.8629" lon="4.61284">
        <ele>329</ele>
        <time>2016-09-12T09:01:37Z</time>
      </trkpt>
      <trkpt lat="45.8629" lon="4.61279">
        <ele>330</ele>
        <time>2016-09-12T09:01:38Z</time>
      </trkpt>
      <trkpt lat="45.86292" lon="4.61269">
        <ele>330</ele>
        <time>2016-09-12T09:01:40Z</time>
      </trkpt>
      <trkpt lat="45.86294" lon="4.61264">
        <ele>330</ele>
        <time>2016-09-12T09:01:41Z</time>
      </trkpt>
      <trkpt lat="45.86296" lon="4.61253">
        <ele>330</ele>
        <time>2016-09-12T09:01:43Z</time>
      </trkpt>
      <trkpt lat="45.86297" lon="4.61248">
        <ele>331</ele>
        <time>2016-09-12T09:01:44Z</time>
      </trkpt>
      <trkpt lat="45.86299" lon="4.61239">
        <ele>331</ele>
        <time>2016-09-12T09:01:46Z</time>
      </trkpt>
      <trkpt lat="45.863" lon="4.61235">
        <ele>331</ele>
        <time>2016-09-12T09:01:47Z</time>
      </trkpt>
      <trkpt lat="45.86303" lon="4.61226">
        <ele>331</ele>
        <time>2016-09-12T09:01:49Z</time>
      </trkpt>
      <trkpt lat="45.86304" lon="4.61222">
        <ele>331</ele>
        <time>2016-09-12T09:01:50Z</time>
      </trkpt>
      <trkpt lat="45.86307" lon="4.61213">
        <ele>331</ele>
        <time>2016-09-12T09:01:52Z</time>
      </trkpt>
      <trkpt lat="45.86309" lon="4.61209">
        <ele>331</ele>
        <time>2016-09-12T09:01:53Z</time>
      </trkpt>
      <trkpt lat="45.86311" lon="4.61199">
        <ele>331</ele>
        <time>2016-09-12T09:01:55Z</time>
      </trkpt>
      <trkpt lat="45.86312" lon="4.61195">
        <ele>331</ele>
        <time>2016-09-12T09:01:56Z</time>
      </trkpt>
      <trkpt lat="45.86315" lon="4.61186">
        <ele>331</ele>
        <time>2016-09-12T09:01:58Z</time>
      </trkpt>
      <trkpt lat="45.86317" lon="4.61182">
        <ele>332</ele>
        <time>2016-09-12T09:01:59Z</time>
      </trkpt>
      <trkpt lat="45.8632" lon="4.61173">
        <ele>332</ele>
        <time>2016-09-12T09:02:01Z</time>
      </trkpt>
      <trkpt lat="45.86321" lon="4.61169">
        <ele>332</ele>
        <time>2016-09-12T09:02:02Z</time>
      </trkpt>
      <trkpt lat="45.86324" lon="4.6116">
        <ele>332</ele>
        <time>2016-09-12T09:02:04Z</time>
      </trkpt>
      <trkpt lat="45.86326" lon="4.61156">
        <ele>332</ele>
        <time>2016-09-12T09:02:05Z</time>
      </trkpt>
      <trkpt lat="45.8633" lon="4.61147">
        <ele>332</ele>
        <time>2016-09-12T09:02:07Z</time>
      </trkpt>
      <trkpt lat="45.86331" lon="4.61142">
        <ele>332</ele>
        <time>2016-09-12T09:02:08Z</time>
      </trkpt>
      <trkpt lat="45.86335" lon="4.61132">
        <ele>337</ele>
        <time>2016-09-12T09:02:10Z</time>
      </trkpt>
      <trkpt lat="45.86336" lon="4.61128">
        <ele>337</ele>
        <time>2016-09-12T09:02:11Z</time>
      </trkpt>
      <trkpt lat="45.86339" lon="4.61118">
        <ele>337</ele>
        <time>2016-09-12T09:02:13Z</time>
      </trkpt>
      <trkpt lat="45.86341" lon="4.61112">
        <ele>337</ele>
        <time>2016-09-12T09:02:14Z</time>
      </trkpt>
      <trkpt lat="45.86345" lon="4.61102">
        <ele>337</ele>
        <time>2016-09-12T09:02:16Z</time>
      </trkpt>
      <trkpt lat="45.86347" lon="4.61096">
        <ele>337</ele>
        <time>2016-09-12T09:02:17Z</time>
      </trkpt>
      <trkpt lat="45.8635" lon="4.61086">
        <ele>337</ele>
        <time>2016-09-12T09:02:19Z</time>
      </trkpt>
      <trkpt lat="45.86351" lon="4.61081">
        <ele>336</ele>
        <time>2016-09-12T09:02:20Z</time>
      </trkpt>
      <trkpt lat="45.86356" lon="4.6107">
        <ele>336</ele>
        <time>2016-09-12T09:02:23Z</time>
      </trkpt>
      <trkpt lat="45.86357" lon="4.61067">
        <ele>336</ele>
        <time>2016-09-12T09:02:24Z</time>
      </trkpt>
      <trkpt lat="45.86361" lon="4.61059">
        <ele>337</ele>
        <time>2016-09-12T09:02:26Z</time>
      </trkpt>
      <trkpt lat="45.86362" lon="4.61054">
        <ele>337</ele>
        <time>2016-09-12T09:02:27Z</time>
      </trkpt>
      <trkpt lat="45.86366" lon="4.61045">
        <ele>337</ele>
        <time>2016-09-12T09:02:29Z</time>
      </trkpt>
      <trkpt lat="45.86368" lon="4.61039">
        <ele>337</ele>
        <time>2016-09-12T09:02:30Z</time>
      </trkpt>
      <trkpt lat="45.86372" lon="4.6103">
        <ele>336</ele>
        <time>2016-09-12T09:02:32Z</time>
      </trkpt>
      <trkpt lat="45.86374" lon="4.61025">
        <ele>336</ele>
        <time>2016-09-12T09:02:33Z</time>
      </trkpt>
      <trkpt lat="45.86377" lon="4.61017">
        <ele>336</ele>
        <time>2016-09-12T09:02:35Z</time>
      </trkpt>
      <trkpt lat="45.86379" lon="4.61013">
        <ele>336</ele>
        <time>2016-09-12T09:02:36Z</time>
      </trkpt>
      <trkpt lat="45.86383" lon="4.61005">
        <ele>337</ele>
        <time>2016-09-12T09:02:38Z</time>
      </trkpt>
      <trkpt lat="45.86385" lon="4.61">
        <ele>336</ele>
        <time>2016-09-12T09:02:39Z</time>
      </trkpt>
      <trkpt lat="45.86387" lon="4.60988">
        <ele>336</ele>
        <time>2016-09-12T09:02:41Z</time>
      </trkpt>
      <trkpt lat="45.86388" lon="4.60983">
        <ele>336</ele>
        <time>2016-09-12T09:02:42Z</time>
      </trkpt>
      <trkpt lat="45.86391" lon="4.60973">
        <ele>336</ele>
        <time>2016-09-12T09:02:44Z</time>
      </trkpt>
      <trkpt lat="45.86392" lon="4.60967">
        <ele>336</ele>
        <time>2016-09-12T09:02:45Z</time>
      </trkpt>
      <trkpt lat="45.86394" lon="4.6096">
        <ele>336</ele>
        <time>2016-09-12T09:02:46Z</time>
      </trkpt>
      <trkpt lat="45.86397" lon="4.60953">
        <ele>336</ele>
        <time>2016-09-12T09:02:47Z</time>
      </trkpt>
      <trkpt lat="45.86398" lon="4.60942">
        <ele>337</ele>
        <time>2016-09-12T09:02:49Z</time>
      </trkpt>
      <trkpt lat="45.86399" lon="4.60936">
        <ele>337</ele>
        <time>2016-09-12T09:02:50Z</time>
      </trkpt>
      <trkpt lat="45.86398" lon="4.60925">
        <ele>337</ele>
        <time>2016-09-12T09:02:52Z</time>
      </trkpt>
      <trkpt lat="45.86398" lon="4.60919">
        <ele>337</ele>
        <time>2016-09-12T09:02:53Z</time>
      </trkpt>
      <trkpt lat="45.86396" lon="4.60908">
        <ele>339</ele>
        <time>2016-09-12T09:02:55Z</time>
      </trkpt>
      <trkpt lat="45.86394" lon="4.60902">
        <ele>340</ele>
        <time>2016-09-12T09:02:56Z</time>
      </trkpt>
      <trkpt lat="45.86391" lon="4.60892">
        <ele>340</ele>
        <time>2016-09-12T09:02:58Z</time>
      </trkpt>
      <trkpt lat="45.86388" lon="4.60887">
        <ele>340</ele>
        <time>2016-09-12T09:02:59Z</time>
      </trkpt>
      <trkpt lat="45.86383" lon="4.60878">
        <ele>340</ele>
        <time>2016-09-12T09:03:01Z</time>
      </trkpt>
      <trkpt lat="45.86379" lon="4.60874">
        <ele>340</ele>
        <time>2016-09-12T09:03:02Z</time>
      </trkpt>
      <trkpt lat="45.86376" lon="4.6087">
        <ele>340</ele>
        <time>2016-09-12T09:03:03Z</time>
      </trkpt>
      <trkpt lat="45.86372" lon="4.60866">
        <ele>340</ele>
        <time>2016-09-12T09:03:04Z</time>
      </trkpt>
      <trkpt lat="45.86365" lon="4.60859">
        <ele>340</ele>
        <time>2016-09-12T09:03:06Z</time>
      </trkpt>
      <trkpt lat="45.86362" lon="4.60857">
        <ele>340</ele>
        <time>2016-09-12T09:03:07Z</time>
      </trkpt>
      <trkpt lat="45.86355" lon="4.60852">
        <ele>340</ele>
        <time>2016-09-12T09:03:09Z</time>
      </trkpt>
      <trkpt lat="45.86352" lon="4.60849">
        <ele>341</ele>
        <time>2016-09-12T09:03:10Z</time>
      </trkpt>
      <trkpt lat="45.86344" lon="4.60843">
        <ele>341</ele>
        <time>2016-09-12T09:03:12Z</time>
      </trkpt>
      <trkpt lat="45.8634" lon="4.60841">
        <ele>341</ele>
        <time>2016-09-12T09:03:13Z</time>
      </trkpt>
      <trkpt lat="45.86335" lon="4.60838">
        <ele>342</ele>
        <time>2016-09-12T09:03:14Z</time>
      </trkpt>
      <trkpt lat="45.8633" lon="4.60837">
        <ele>341</ele>
        <time>2016-09-12T09:03:15Z</time>
      </trkpt>
      <trkpt lat="45.86325" lon="4.60834">
        <ele>340</ele>
        <time>2016-09-12T09:03:16Z</time>
      </trkpt>
      <trkpt lat="45.86321" lon="4.60833">
        <ele>342</ele>
        <time>2016-09-12T09:03:17Z</time>
      </trkpt>
      <trkpt lat="45.86313" lon="4.60829">
        <ele>342</ele>
        <time>2016-09-12T09:03:19Z</time>
      </trkpt>
      <trkpt lat="45.8631" lon="4.60827">
        <ele>342</ele>
        <time>2016-09-12T09:03:20Z</time>
      </trkpt>
      <trkpt lat="45.86302" lon="4.60824">
        <ele>342</ele>
        <time>2016-09-12T09:03:22Z</time>
      </trkpt>
      <trkpt lat="45.86298" lon="4.60822">
        <ele>342</ele>
        <time>2016-09-12T09:03:23Z</time>
      </trkpt>
      <trkpt lat="45.8629" lon="4.60817">
        <ele>342</ele>
        <time>2016-09-12T09:03:25Z</time>
      </trkpt>
      <trkpt lat="45.86286" lon="4.60815">
        <ele>342</ele>
        <time>2016-09-12T09:03:26Z</time>
      </trkpt>
      <trkpt lat="45.86278" lon="4.60811">
        <ele>342</ele>
        <time>2016-09-12T09:03:28Z</time>
      </trkpt>
      <trkpt lat="45.86274" lon="4.60808">
        <ele>342</ele>
        <time>2016-09-12T09:03:29Z</time>
      </trkpt>
      <trkpt lat="45.86267" lon="4.608">
        <ele>342</ele>
        <time>2016-09-12T09:03:31Z</time>
      </trkpt>
      <trkpt lat="45.86264" lon="4.60796">
        <ele>342</ele>
        <time>2016-09-12T09:03:32Z</time>
      </trkpt>
      <trkpt lat="45.86259" lon="4.60787">
        <ele>342</ele>
        <time>2016-09-12T09:03:34Z</time>
      </trkpt>
      <trkpt lat="45.86257" lon="4.60783">
        <ele>342</ele>
        <time>2016-09-12T09:03:35Z</time>
      </trkpt>
      <trkpt lat="45.86253" lon="4.60773">
        <ele>342</ele>
        <time>2016-09-12T09:03:37Z</time>
      </trkpt>
      <trkpt lat="45.86252" lon="4.60769">
        <ele>342</ele>
        <time>2016-09-12T09:03:38Z</time>
      </trkpt>
      <trkpt lat="45.86249" lon="4.60758">
        <ele>341</ele>
        <time>2016-09-12T09:03:40Z</time>
      </trkpt>
      <trkpt lat="45.86248" lon="4.60752">
        <ele>341</ele>
        <time>2016-09-12T09:03:41Z</time>
      </trkpt>
      <trkpt lat="45.86245" lon="4.60742">
        <ele>341</ele>
        <time>2016-09-12T09:03:43Z</time>
      </trkpt>
      <trkpt lat="45.86244" lon="4.60737">
        <ele>341</ele>
        <time>2016-09-12T09:03:44Z</time>
      </trkpt>
      <trkpt lat="45.86242" lon="4.60727">
        <ele>341</ele>
        <time>2016-09-12T09:03:46Z</time>
      </trkpt>
      <trkpt lat="45.86241" lon="4.6072">
        <ele>340</ele>
        <time>2016-09-12T09:03:47Z</time>
      </trkpt>
      <trkpt lat="45.86238" lon="4.60709">
        <ele>340</ele>
        <time>2016-09-12T09:03:49Z</time>
      </trkpt>
      <trkpt lat="45.86237" lon="4.60703">
        <ele>340</ele>
        <time>2016-09-12T09:03:50Z</time>
      </trkpt>
      <trkpt lat="45.86236" lon="4.60692">
        <ele>340</ele>
        <time>2016-09-12T09:03:52Z</time>
      </trkpt>
      <trkpt lat="45.86236" lon="4.60688">
        <ele>340</ele>
        <time>2016-09-12T09:03:53Z</time>
      </trkpt>
      <trkpt lat="45.86235" lon="4.60677">
        <ele>341</ele>
        <time>2016-09-12T09:03:55Z</time>
      </trkpt>
      <trkpt lat="45.86234" lon="4.60671">
        <ele>341</ele>
        <time>2016-09-12T09:03:56Z</time>
      </trkpt>
      <trkpt lat="45.86233" lon="4.60659">
        <ele>341</ele>
        <time>2016-09-12T09:03:58Z</time>
      </trkpt>
      <trkpt lat="45.86234" lon="4.60652">
        <ele>341</ele>
        <time>2016-09-12T09:03:59Z</time>
      </trkpt>
      <trkpt lat="45.86234" lon="4.6064">
        <ele>341</ele>
        <time>2016-09-12T09:04:01Z</time>
      </trkpt>
      <trkpt lat="45.86234" lon="4.60634">
        <ele>341</ele>
        <time>2016-09-12T09:04:02Z</time>
      </trkpt>
      <trkpt lat="45.86234" lon="4.60623">
        <ele>341</ele>
        <time>2016-09-12T09:04:04Z</time>
      </trkpt>
      <trkpt lat="45.86234" lon="4.60618">
        <ele>341</ele>
        <time>2016-09-12T09:04:05Z</time>
      </trkpt>
      <trkpt lat="45.86235" lon="4.60607">
        <ele>341</ele>
        <time>2016-09-12T09:04:07Z</time>
      </trkpt>
      <trkpt lat="45.86234" lon="4.60602">
        <ele>341</ele>
        <time>2016-09-12T09:04:08Z</time>
      </trkpt>
      <trkpt lat="45.86235" lon="4.60593">
        <ele>342</ele>
        <time>2016-09-12T09:04:10Z</time>
      </trkpt>
      <trkpt lat="45.86236" lon="4.60589">
        <ele>342</ele>
        <time>2016-09-12T09:04:11Z</time>
      </trkpt>
      <trkpt lat="45.86237" lon="4.60578">
        <ele>342</ele>
        <time>2016-09-12T09:04:13Z</time>
      </trkpt>
      <trkpt lat="45.86238" lon="4.60573">
        <ele>342</ele>
        <time>2016-09-12T09:04:14Z</time>
      </trkpt>
      <trkpt lat="45.8624" lon="4.60564">
        <ele>342</ele>
        <time>2016-09-12T09:04:16Z</time>
      </trkpt>
      <trkpt lat="45.86241" lon="4.6056">
        <ele>342</ele>
        <time>2016-09-12T09:04:17Z</time>
      </trkpt>
      <trkpt lat="45.86242" lon="4.6055">
        <ele>341</ele>
        <time>2016-09-12T09:04:19Z</time>
      </trkpt>
      <trkpt lat="45.86242" lon="4.60544">
        <ele>341</ele>
        <time>2016-09-12T09:04:20Z</time>
      </trkpt>
      <trkpt lat="45.86244" lon="4.60532">
        <ele>341</ele>
        <time>2016-09-12T09:04:22Z</time>
      </trkpt>
      <trkpt lat="45.86245" lon="4.60526">
        <ele>341</ele>
        <time>2016-09-12T09:04:23Z</time>
      </trkpt>
      <trkpt lat="45.86246" lon="4.6052">
        <ele>341</ele>
        <time>2016-09-12T09:04:24Z</time>
      </trkpt>
      <trkpt lat="45.86247" lon="4.60513">
        <ele>342</ele>
        <time>2016-09-12T09:04:25Z</time>
      </trkpt>
      <trkpt lat="45.86248" lon="4.60507">
        <ele>342</ele>
        <time>2016-09-12T09:04:26Z</time>
      </trkpt>
      <trkpt lat="45.86249" lon="4.605">
        <ele>342</ele>
        <time>2016-09-12T09:04:27Z</time>
      </trkpt>
      <trkpt lat="45.8625" lon="4.60493">
        <ele>342</ele>
        <time>2016-09-12T09:04:28Z</time>
      </trkpt>
      <trkpt lat="45.86251" lon="4.60486">
        <ele>343</ele>
        <time>2016-09-12T09:04:29Z</time>
      </trkpt>
      <trkpt lat="45.86252" lon="4.60479">
        <ele>343</ele>
        <time>2016-09-12T09:04:30Z</time>
      </trkpt>
      <trkpt lat="45.86254" lon="4.60473">
        <ele>343</ele>
        <time>2016-09-12T09:04:31Z</time>
      </trkpt>
      <trkpt lat="45.86255" lon="4.60466">
        <ele>343</ele>
        <time>2016-09-12T09:04:32Z</time>
      </trkpt>
      <trkpt lat="45.86257" lon="4.6046">
        <ele>343</ele>
        <time>2016-09-12T09:04:33Z</time>
      </trkpt>
      <trkpt lat="45.86259" lon="4.60448">
        <ele>343</ele>
        <time>2016-09-12T09:04:35Z</time>
      </trkpt>
      <trkpt lat="45.8626" lon="4.60442">
        <ele>343</ele>
        <time>2016-09-12T09:04:36Z</time>
      </trkpt>
      <trkpt lat="45.86262" lon="4.6043">
        <ele>343</ele>
        <time>2016-09-12T09:04:38Z</time>
      </trkpt>
      <trkpt lat="45.86263" lon="4.60424">
        <ele>343</ele>
        <time>2016-09-12T09:04:39Z</time>
      </trkpt>
      <trkpt lat="45.86265" lon="4.60412">
        <ele>343</ele>
        <time>2016-09-12T09:04:41Z</time>
      </trkpt>
      <trkpt lat="45.86266" lon="4.60405">
        <ele>344</ele>
        <time>2016-09-12T09:04:42Z</time>
      </trkpt>
      <trkpt lat="45.86267" lon="4.60399">
        <ele>344</ele>
        <time>2016-09-12T09:04:43Z</time>
      </trkpt>
      <trkpt lat="45.86268" lon="4.60392">
        <ele>344</ele>
        <time>2016-09-12T09:04:44Z</time>
      </trkpt>
      <trkpt lat="45.8627" lon="4.60386">
        <ele>344</ele>
        <time>2016-09-12T09:04:45Z</time>
      </trkpt>
      <trkpt lat="45.86271" lon="4.60379">
        <ele>344</ele>
        <time>2016-09-12T09:04:46Z</time>
      </trkpt>
      <trkpt lat="45.86273" lon="4.60367">
        <ele>344</ele>
        <time>2016-09-12T09:04:48Z</time>
      </trkpt>
      <trkpt lat="45.86274" lon="4.60361">
        <ele>344</ele>
        <time>2016-09-12T09:04:49Z</time>
      </trkpt>
      <trkpt lat="45.86275" lon="4.60349">
        <ele>344</ele>
        <time>2016-09-12T09:04:51Z</time>
      </trkpt>
      <trkpt lat="45.86276" lon="4.60343">
        <ele>344</ele>
        <time>2016-09-12T09:04:52Z</time>
      </trkpt>
      <trkpt lat="45.86277" lon="4.60332">
        <ele>344</ele>
        <time>2016-09-12T09:04:54Z</time>
      </trkpt>
      <trkpt lat="45.86278" lon="4.60326">
        <ele>344</ele>
        <time>2016-09-12T09:04:55Z</time>
      </trkpt>
      <trkpt lat="45.8628" lon="4.60315">
        <ele>344</ele>
        <time>2016-09-12T09:04:57Z</time>
      </trkpt>
      <trkpt lat="45.86281" lon="4.6031">
        <ele>344</ele>
        <time>2016-09-12T09:04:58Z</time>
      </trkpt>
      <trkpt lat="45.86283" lon="4.60298">
        <ele>344</ele>
        <time>2016-09-12T09:05:00Z</time>
      </trkpt>
      <trkpt lat="45.86283" lon="4.60291">
        <ele>344</ele>
        <time>2016-09-12T09:05:01Z</time>
      </trkpt>
      <trkpt lat="45.86284" lon="4.60285">
        <ele>344</ele>
        <time>2016-09-12T09:05:02Z</time>
      </trkpt>
      <trkpt lat="45.86285" lon="4.60278">
        <ele>344</ele>
        <time>2016-09-12T09:05:03Z</time>
      </trkpt>
      <trkpt lat="45.86285" lon="4.60271">
        <ele>344</ele>
        <time>2016-09-12T09:05:04Z</time>
      </trkpt>
      <trkpt lat="45.86287" lon="4.60264">
        <ele>344</ele>
        <time>2016-09-12T09:05:05Z</time>
      </trkpt>
      <trkpt lat="45.86288" lon="4.60257">
        <ele>344</ele>
        <time>2016-09-12T09:05:06Z</time>
      </trkpt>
      <trkpt lat="45.86289" lon="4.6025">
        <ele>344</ele>
        <time>2016-09-12T09:05:07Z</time>
      </trkpt>
      <trkpt lat="45.8629" lon="4.60243">
        <ele>344</ele>
        <time>2016-09-12T09:05:08Z</time>
      </trkpt>
      <trkpt lat="45.86291" lon="4.60237">
        <ele>344</ele>
        <time>2016-09-12T09:05:09Z</time>
      </trkpt>
      <trkpt lat="45.86294" lon="4.60225">
        <ele>344</ele>
        <time>2016-09-12T09:05:11Z</time>
      </trkpt>
      <trkpt lat="45.86295" lon="4.60219">
        <ele>344</ele>
        <time>2016-09-12T09:05:12Z</time>
      </trkpt>
      <trkpt lat="45.86297" lon="4.60212">
        <ele>344</ele>
        <time>2016-09-12T09:05:13Z</time>
      </trkpt>
      <trkpt lat="45.86299" lon="4.60206">
        <ele>344</ele>
        <time>2016-09-12T09:05:14Z</time>
      </trkpt>
      <trkpt lat="45.86302" lon="4.60195">
        <ele>345</ele>
        <time>2016-09-12T09:05:16Z</time>
      </trkpt>
      <trkpt lat="45.86303" lon="4.6019">
        <ele>345</ele>
        <time>2016-09-12T09:05:17Z</time>
      </trkpt>
      <trkpt lat="45.86307" lon="4.60179">
        <ele>345</ele>
        <time>2016-09-12T09:05:19Z</time>
      </trkpt>
      <trkpt lat="45.86309" lon="4.60173">
        <ele>345</ele>
        <time>2016-09-12T09:05:20Z</time>
      </trkpt>
      <trkpt lat="45.86313" lon="4.60162">
        <ele>345</ele>
        <time>2016-09-12T09:05:22Z</time>
      </trkpt>
      <trkpt lat="45.86315" lon="4.60156">
        <ele>345</ele>
        <time>2016-09-12T09:05:23Z</time>
      </trkpt>
      <trkpt lat="45.86318" lon="4.60144">
        <ele>344</ele>
        <time>2016-09-12T09:05:25Z</time>
      </trkpt>
      <trkpt lat="45.86319" lon="4.60139">
        <ele>344</ele>
        <time>2016-09-12T09:05:26Z</time>
      </trkpt>
      <trkpt lat="45.86321" lon="4.60133">
        <ele>343</ele>
        <time>2016-09-12T09:05:27Z</time>
      </trkpt>
      <trkpt lat="45.86323" lon="4.60127">
        <ele>343</ele>
        <time>2016-09-12T09:05:28Z</time>
      </trkpt>
      <trkpt lat="45.86325" lon="4.60121">
        <ele>343</ele>
        <time>2016-09-12T09:05:29Z</time>
      </trkpt>
      <trkpt lat="45.86326" lon="4.60115">
        <ele>343</ele>
        <time>2016-09-12T09:05:30Z</time>
      </trkpt>
      <trkpt lat="45.86328" lon="4.60108">
        <ele>343</ele>
        <time>2016-09-12T09:05:31Z</time>
      </trkpt>
      <trkpt lat="45.8633" lon="4.60102">
        <ele>342</ele>
        <time>2016-09-12T09:05:32Z</time>
      </trkpt>
      <trkpt lat="45.86334" lon="4.60092">
        <ele>344</ele>
        <time>2016-09-12T09:05:34Z</time>
      </trkpt>
      <trkpt lat="45.86336" lon="4.60086">
        <ele>343</ele>
        <time>2016-09-12T09:05:35Z</time>
      </trkpt>
      <trkpt lat="45.86341" lon="4.60076">
        <ele>343</ele>
        <time>2016-09-12T09:05:37Z</time>
      </trkpt>
      <trkpt lat="45.86343" lon="4.6007">
        <ele>344</ele>
        <time>2016-09-12T09:05:38Z</time>
      </trkpt>
      <trkpt lat="45.86348" lon="4.60061">
        <ele>344</ele>
        <time>2016-09-12T09:05:40Z</time>
      </trkpt>
      <trkpt lat="45.8635" lon="4.60055">
        <ele>344</ele>
        <time>2016-09-12T09:05:41Z</time>
      </trkpt>
      <trkpt lat="45.86354" lon="4.60045">
        <ele>345</ele>
        <time>2016-09-12T09:05:43Z</time>
      </trkpt>
      <trkpt lat="45.86356" lon="4.6004">
        <ele>345</ele>
        <time>2016-09-12T09:05:44Z</time>
      </trkpt>
      <trkpt lat="45.86361" lon="4.6003">
        <ele>345</ele>
        <time>2016-09-12T09:05:46Z</time>
      </trkpt>
      <trkpt lat="45.86363" lon="4.60025">
        <ele>345</ele>
        <time>2016-09-12T09:05:47Z</time>
      </trkpt>
      <trkpt lat="45.86367" lon="4.60016">
        <ele>345</ele>
        <time>2016-09-12T09:05:49Z</time>
      </trkpt>
      <trkpt lat="45.86371" lon="4.60012">
        <ele>345</ele>
        <time>2016-09-12T09:05:50Z</time>
      </trkpt>
      <trkpt lat="45.86377" lon="4.60004">
        <ele>345</ele>
        <time>2016-09-12T09:05:52Z</time>
      </trkpt>
      <trkpt lat="45.8638" lon="4.6">
        <ele>345</ele>
        <time>2016-09-12T09:05:53Z</time>
      </trkpt>
      <trkpt lat="45.86386" lon="4.59991">
        <ele>345</ele>
        <time>2016-09-12T09:05:55Z</time>
      </trkpt>
      <trkpt lat="45.86389" lon="4.59987">
        <ele>345</ele>
        <time>2016-09-12T09:05:56Z</time>
      </trkpt>
      <trkpt lat="45.86394" lon="4.5998">
        <ele>345</ele>
        <time>2016-09-12T09:05:58Z</time>
      </trkpt>
      <trkpt lat="45.86397" lon="4.59976">
        <ele>345</ele>
        <time>2016-09-12T09:05:59Z</time>
      </trkpt>
      <trkpt lat="45.86403" lon="4.59968">
        <ele>345</ele>
        <time>2016-09-12T09:06:01Z</time>
      </trkpt>
      <trkpt lat="45.86407" lon="4.59965">
        <ele>345</ele>
        <time>2016-09-12T09:06:02Z</time>
      </trkpt>
      <trkpt lat="45.86414" lon="4.5996">
        <ele>345</ele>
        <time>2016-09-12T09:06:04Z</time>
      </trkpt>
      <trkpt lat="45.86417" lon="4.59956">
        <ele>350</ele>
        <time>2016-09-12T09:06:05Z</time>
      </trkpt>
      <trkpt lat="45.86424" lon="4.5995">
        <ele>350</ele>
        <time>2016-09-12T09:06:07Z</time>
      </trkpt>
      <trkpt lat="45.86428" lon="4.59947">
        <ele>350</ele>
        <time>2016-09-12T09:06:08Z</time>
      </trkpt>
      <trkpt lat="45.86435" lon="4.59941">
        <ele>350</ele>
        <time>2016-09-12T09:06:10Z</time>
      </trkpt>
      <trkpt lat="45.86439" lon="4.59939">
        <ele>351</ele>
        <time>2016-09-12T09:06:11Z</time>
      </trkpt>
      <trkpt lat="45.86446" lon="4.59935">
        <ele>351</ele>
        <time>2016-09-12T09:06:13Z</time>
      </trkpt>
      <trkpt lat="45.86449" lon="4.59932">
        <ele>351</ele>
        <time>2016-09-12T09:06:14Z</time>
      </trkpt>
      <trkpt lat="45.86456" lon="4.59927">
        <ele>351</ele>
        <time>2016-09-12T09:06:16Z</time>
      </trkpt>
      <trkpt lat="45.8646" lon="4.59924">
        <ele>352</ele>
        <time>2016-09-12T09:06:17Z</time>
      </trkpt>
      <trkpt lat="45.86466" lon="4.59919">
        <ele>352</ele>
        <time>2016-09-12T09:06:19Z</time>
      </trkpt>
      <trkpt lat="45.8647" lon="4.59916">
        <ele>349</ele>
        <time>2016-09-12T09:06:20Z</time>
      </trkpt>
      <trkpt lat="45.86477" lon="4.59912">
        <ele>350</ele>
        <time>2016-09-12T09:06:22Z</time>
      </trkpt>
      <trkpt lat="45.8648" lon="4.59909">
        <ele>350</ele>
        <time>2016-09-12T09:06:23Z</time>
      </trkpt>
      <trkpt lat="45.86487" lon="4.59903">
        <ele>350</ele>
        <time>2016-09-12T09:06:25Z</time>
      </trkpt>
      <trkpt lat="45.8649" lon="4.59901">
        <ele>350</ele>
        <time>2016-09-12T09:06:26Z</time>
      </trkpt>
      <trkpt lat="45.86497" lon="4.59895">
        <ele>350</ele>
        <time>2016-09-12T09:06:28Z</time>
      </trkpt>
      <trkpt lat="45.865" lon="4.59892">
        <ele>350</ele>
        <time>2016-09-12T09:06:29Z</time>
      </trkpt>
      <trkpt lat="45.86506" lon="4.59887">
        <ele>352</ele>
        <time>2016-09-12T09:06:31Z</time>
      </trkpt>
      <trkpt lat="45.86509" lon="4.59884">
        <ele>352</ele>
        <time>2016-09-12T09:06:32Z</time>
      </trkpt>
      <trkpt lat="45.86516" lon="4.59879">
        <ele>352</ele>
        <time>2016-09-12T09:06:34Z</time>
      </trkpt>
      <trkpt lat="45.8652" lon="4.59876">
        <ele>352</ele>
        <time>2016-09-12T09:06:35Z</time>
      </trkpt>
      <trkpt lat="45.86527" lon="4.59871">
        <ele>352</ele>
        <time>2016-09-12T09:06:37Z</time>
      </trkpt>
      <trkpt lat="45.8653" lon="4.59868">
        <ele>352</ele>
        <time>2016-09-12T09:06:38Z</time>
      </trkpt>
      <trkpt lat="45.86538" lon="4.59863">
        <ele>352</ele>
        <time>2016-09-12T09:06:40Z</time>
      </trkpt>
      <trkpt lat="45.86542" lon="4.5986">
        <ele>352</ele>
        <time>2016-09-12T09:06:41Z</time>
      </trkpt>
      <trkpt lat="45.86548" lon="4.59854">
        <ele>352</ele>
        <time>2016-09-12T09:06:43Z</time>
      </trkpt>
      <trkpt lat="45.86552" lon="4.59852">
        <ele>352</ele>
        <time>2016-09-12T09:06:44Z</time>
      </trkpt>
      <trkpt lat="45.86558" lon="4.59846">
        <ele>352</ele>
        <time>2016-09-12T09:06:46Z</time>
      </trkpt>
      <trkpt lat="45.86562" lon="4.59844">
        <ele>352</ele>
        <time>2016-09-12T09:06:47Z</time>
      </trkpt>
      <trkpt lat="45.86569" lon="4.59839">
        <ele>353</ele>
        <time>2016-09-12T09:06:49Z</time>
      </trkpt>
      <trkpt lat="45.86573" lon="4.59836">
        <ele>353</ele>
        <time>2016-09-12T09:06:50Z</time>
      </trkpt>
      <trkpt lat="45.8658" lon="4.59829">
        <ele>352</ele>
        <time>2016-09-12T09:06:52Z</time>
      </trkpt>
      <trkpt lat="45.86583" lon="4.59826">
        <ele>351</ele>
        <time>2016-09-12T09:06:53Z</time>
      </trkpt>
      <trkpt lat="45.86591" lon="4.5982">
        <ele>353</ele>
        <time>2016-09-12T09:06:55Z</time>
      </trkpt>
      <trkpt lat="45.86595" lon="4.59816">
        <ele>353</ele>
        <time>2016-09-12T09:06:56Z</time>
      </trkpt>
      <trkpt lat="45.86599" lon="4.59813">
        <ele>353</ele>
        <time>2016-09-12T09:06:57Z</time>
      </trkpt>
      <trkpt lat="45.86603" lon="4.59811">
        <ele>353</ele>
        <time>2016-09-12T09:06:58Z</time>
      </trkpt>
      <trkpt lat="45.86611" lon="4.59804">
        <ele>353</ele>
        <time>2016-09-12T09:07:00Z</time>
      </trkpt>
      <trkpt lat="45.86615" lon="4.59801">
        <ele>353</ele>
        <time>2016-09-12T09:07:01Z</time>
      </trkpt>
      <trkpt lat="45.86619" lon="4.59798">
        <ele>353</ele>
        <time>2016-09-12T09:07:02Z</time>
      </trkpt>
      <trkpt lat="45.86623" lon="4.59795">
        <ele>353</ele>
        <time>2016-09-12T09:07:03Z</time>
      </trkpt>
      <trkpt lat="45.86627" lon="4.59791">
        <ele>353</ele>
        <time>2016-09-12T09:07:04Z</time>
      </trkpt>
      <trkpt lat="45.86631" lon="4.59788">
        <ele>353</ele>
        <time>2016-09-12T09:07:05Z</time>
      </trkpt>
      <trkpt lat="45.86635" lon="4.59784">
        <ele>353</ele>
        <time>2016-09-12T09:07:06Z</time>
      </trkpt>
      <trkpt lat="45.86639" lon="4.5978">
        <ele>353</ele>
        <time>2016-09-12T09:07:07Z</time>
      </trkpt>
      <trkpt lat="45.86643" lon="4.59776">
        <ele>353</ele>
        <time>2016-09-12T09:07:08Z</time>
      </trkpt>
      <trkpt lat="45.86646" lon="4.59772">
        <ele>353</ele>
        <time>2016-09-12T09:07:09Z</time>
      </trkpt>
      <trkpt lat="45.8665" lon="4.59767">
        <ele>353</ele>
        <time>2016-09-12T09:07:10Z</time>
      </trkpt>
      <trkpt lat="45.86654" lon="4.59763">
        <ele>353</ele>
        <time>2016-09-12T09:07:11Z</time>
      </trkpt>
      <trkpt lat="45.86658" lon="4.59758">
        <ele>354</ele>
        <time>2016-09-12T09:07:12Z</time>
      </trkpt>
      <trkpt lat="45.86661" lon="4.59754">
        <ele>354</ele>
        <time>2016-09-12T09:07:13Z</time>
      </trkpt>
      <trkpt lat="45.86665" lon="4.59749">
        <ele>354</ele>
        <time>2016-09-12T09:07:14Z</time>
      </trkpt>
      <trkpt lat="45.86669" lon="4.59743">
        <ele>354</ele>
        <time>2016-09-12T09:07:15Z</time>
      </trkpt>
      <trkpt lat="45.86672" lon="4.59738">
        <ele>354</ele>
        <time>2016-09-12T09:07:16Z</time>
      </trkpt>
      <trkpt lat="45.86676" lon="4.59732">
        <ele>354</ele>
        <time>2016-09-12T09:07:17Z</time>
      </trkpt>
      <trkpt lat="45.86679" lon="4.59727">
        <ele>354</ele>
        <time>2016-09-12T09:07:18Z</time>
      </trkpt>
      <trkpt lat="45.86682" lon="4.59721">
        <ele>354</ele>
        <time>2016-09-12T09:07:19Z</time>
      </trkpt>
      <trkpt lat="45.86685" lon="4.59716">
        <ele>354</ele>
        <time>2016-09-12T09:07:20Z</time>
      </trkpt>
      <trkpt lat="45.86688" lon="4.5971">
        <ele>354</ele>
        <time>2016-09-12T09:07:21Z</time>
      </trkpt>
      <trkpt lat="45.86691" lon="4.59705">
        <ele>354</ele>
        <time>2016-09-12T09:07:22Z</time>
      </trkpt>
      <trkpt lat="45.86694" lon="4.597">
        <ele>354</ele>
        <time>2016-09-12T09:07:23Z</time>
      </trkpt>
      <trkpt lat="45.86697" lon="4.59695">
        <ele>354</ele>
        <time>2016-09-12T09:07:24Z</time>
      </trkpt>
      <trkpt lat="45.86699" lon="4.59689">
        <ele>354</ele>
        <time>2016-09-12T09:07:25Z</time>
      </trkpt>
      <trkpt lat="45.86701" lon="4.59683">
        <ele>354</ele>
        <time>2016-09-12T09:07:26Z</time>
      </trkpt>
      <trkpt lat="45.86703" lon="4.59678">
        <ele>354</ele>
        <time>2016-09-12T09:07:27Z</time>
      </trkpt>
      <trkpt lat="45.86707" lon="4.59667">
        <ele>354</ele>
        <time>2016-09-12T09:07:29Z</time>
      </trkpt>
      <trkpt lat="45.86709" lon="4.59662">
        <ele>355</ele>
        <time>2016-09-12T09:07:30Z</time>
      </trkpt>
      <trkpt lat="45.86713" lon="4.59651">
        <ele>355</ele>
        <time>2016-09-12T09:07:32Z</time>
      </trkpt>
      <trkpt lat="45.86715" lon="4.59645">
        <ele>355</ele>
        <time>2016-09-12T09:07:33Z</time>
      </trkpt>
      <trkpt lat="45.86716" lon="4.59638">
        <ele>355</ele>
        <time>2016-09-12T09:07:34Z</time>
      </trkpt>
      <trkpt lat="45.86718" lon="4.59632">
        <ele>355</ele>
        <time>2016-09-12T09:07:35Z</time>
      </trkpt>
      <trkpt lat="45.8672" lon="4.59626">
        <ele>355</ele>
        <time>2016-09-12T09:07:36Z</time>
      </trkpt>
      <trkpt lat="45.86722" lon="4.5962">
        <ele>355</ele>
        <time>2016-09-12T09:07:37Z</time>
      </trkpt>
      <trkpt lat="45.86726" lon="4.59609">
        <ele>355</ele>
        <time>2016-09-12T09:07:39Z</time>
      </trkpt>
      <trkpt lat="45.86727" lon="4.59603">
        <ele>355</ele>
        <time>2016-09-12T09:07:40Z</time>
      </trkpt>
      <trkpt lat="45.8673" lon="4.59592">
        <ele>356</ele>
        <time>2016-09-12T09:07:42Z</time>
      </trkpt>
      <trkpt lat="45.86732" lon="4.59587">
        <ele>356</ele>
        <time>2016-09-12T09:07:43Z</time>
      </trkpt>
      <trkpt lat="45.86736" lon="4.59575">
        <ele>356</ele>
        <time>2016-09-12T09:07:45Z</time>
      </trkpt>
      <trkpt lat="45.86737" lon="4.5957">
        <ele>356</ele>
        <time>2016-09-12T09:07:46Z</time>
      </trkpt>
      <trkpt lat="45.86741" lon="4.59558">
        <ele>356</ele>
        <time>2016-09-12T09:07:48Z</time>
      </trkpt>
      <trkpt lat="45.86742" lon="4.59552">
        <ele>356</ele>
        <time>2016-09-12T09:07:49Z</time>
      </trkpt>
      <trkpt lat="45.86745" lon="4.59541">
        <ele>356</ele>
        <time>2016-09-12T09:07:51Z</time>
      </trkpt>
      <trkpt lat="45.86747" lon="4.59535">
        <ele>356</ele>
        <time>2016-09-12T09:07:52Z</time>
      </trkpt>
      <trkpt lat="45.8675" lon="4.59524">
        <ele>357</ele>
        <time>2016-09-12T09:07:54Z</time>
      </trkpt>
      <trkpt lat="45.86752" lon="4.59519">
        <ele>357</ele>
        <time>2016-09-12T09:07:55Z</time>
      </trkpt>
      <trkpt lat="45.86755" lon="4.59508">
        <ele>357</ele>
        <time>2016-09-12T09:07:57Z</time>
      </trkpt>
      <trkpt lat="45.86757" lon="4.59503">
        <ele>357</ele>
        <time>2016-09-12T09:07:58Z</time>
      </trkpt>
      <trkpt lat="45.8676" lon="4.59497">
        <ele>357</ele>
        <time>2016-09-12T09:07:59Z</time>
      </trkpt>
      <trkpt lat="45.86762" lon="4.59491">
        <ele>357</ele>
        <time>2016-09-12T09:08:00Z</time>
      </trkpt>
      <trkpt lat="45.86764" lon="4.59481">
        <ele>357</ele>
        <time>2016-09-12T09:08:02Z</time>
      </trkpt>
      <trkpt lat="45.86766" lon="4.59476">
        <ele>357</ele>
        <time>2016-09-12T09:08:03Z</time>
      </trkpt>
      <trkpt lat="45.86768" lon="4.59467">
        <ele>356</ele>
        <time>2016-09-12T09:08:05Z</time>
      </trkpt>
      <trkpt lat="45.8677" lon="4.59463">
        <ele>356</ele>
        <time>2016-09-12T09:08:06Z</time>
      </trkpt>
      <trkpt lat="45.86773" lon="4.59455">
        <ele>356</ele>
        <time>2016-09-12T09:08:08Z</time>
      </trkpt>
      <trkpt lat="45.86774" lon="4.5945">
        <ele>356</ele>
        <time>2016-09-12T09:08:09Z</time>
      </trkpt>
      <trkpt lat="45.86777" lon="4.59441">
        <ele>356</ele>
        <time>2016-09-12T09:08:11Z</time>
      </trkpt>
      <trkpt lat="45.86778" lon="4.59436">
        <ele>356</ele>
        <time>2016-09-12T09:08:12Z</time>
      </trkpt>
      <trkpt lat="45.8678" lon="4.59428">
        <ele>356</ele>
        <time>2016-09-12T09:08:14Z</time>
      </trkpt>
      <trkpt lat="45.86782" lon="4.59423">
        <ele>356</ele>
        <time>2016-09-12T09:08:15Z</time>
      </trkpt>
      <trkpt lat="45.86785" lon="4.59414">
        <ele>356</ele>
        <time>2016-09-12T09:08:17Z</time>
      </trkpt>
      <trkpt lat="45.86786" lon="4.59409">
        <ele>356</ele>
        <time>2016-09-12T09:08:18Z</time>
      </trkpt>
      <trkpt lat="45.86791" lon="4.59397">
        <ele>356</ele>
        <time>2016-09-12T09:08:20Z</time>
      </trkpt>
      <trkpt lat="45.86792" lon="4.59391">
        <ele>356</ele>
        <time>2016-09-12T09:08:21Z</time>
      </trkpt>
      <trkpt lat="45.86794" lon="4.59384">
        <ele>356</ele>
        <time>2016-09-12T09:08:22Z</time>
      </trkpt>
      <trkpt lat="45.86796" lon="4.59378">
        <ele>356</ele>
        <time>2016-09-12T09:08:23Z</time>
      </trkpt>
      <trkpt lat="45.86798" lon="4.59371">
        <ele>356</ele>
        <time>2016-09-12T09:08:24Z</time>
      </trkpt>
      <trkpt lat="45.86799" lon="4.59365">
        <ele>356</ele>
        <time>2016-09-12T09:08:25Z</time>
      </trkpt>
      <trkpt lat="45.86801" lon="4.59358">
        <ele>356</ele>
        <time>2016-09-12T09:08:26Z</time>
      </trkpt>
      <trkpt lat="45.86803" lon="4.59352">
        <ele>356</ele>
        <time>2016-09-12T09:08:27Z</time>
      </trkpt>
      <trkpt lat="45.86806" lon="4.5934">
        <ele>356</ele>
        <time>2016-09-12T09:08:29Z</time>
      </trkpt>
      <trkpt lat="45.86808" lon="4.59334">
        <ele>356</ele>
        <time>2016-09-12T09:08:30Z</time>
      </trkpt>
      <trkpt lat="45.8681" lon="4.59328">
        <ele>357</ele>
        <time>2016-09-12T09:08:31Z</time>
      </trkpt>
      <trkpt lat="45.86813" lon="4.59322">
        <ele>357</ele>
        <time>2016-09-12T09:08:32Z</time>
      </trkpt>
      <trkpt lat="45.86816" lon="4.59317">
        <ele>357</ele>
        <time>2016-09-12T09:08:33Z</time>
      </trkpt>
      <trkpt lat="45.86819" lon="4.59312">
        <ele>357</ele>
        <time>2016-09-12T09:08:34Z</time>
      </trkpt>
      <trkpt lat="45.86824" lon="4.59303">
        <ele>357</ele>
        <time>2016-09-12T09:08:36Z</time>
      </trkpt>
      <trkpt lat="45.86827" lon="4.59299">
        <ele>358</ele>
        <time>2016-09-12T09:08:37Z</time>
      </trkpt>
      <trkpt lat="45.86833" lon="4.59291">
        <ele>358</ele>
        <time>2016-09-12T09:08:39Z</time>
      </trkpt>
      <trkpt lat="45.86836" lon="4.59287">
        <ele>357</ele>
        <time>2016-09-12T09:08:40Z</time>
      </trkpt>
      <trkpt lat="45.86843" lon="4.59279">
        <ele>357</ele>
        <time>2016-09-12T09:08:42Z</time>
      </trkpt>
      <trkpt lat="45.86845" lon="4.59276">
        <ele>358</ele>
        <time>2016-09-12T09:08:43Z</time>
      </trkpt>
      <trkpt lat="45.86851" lon="4.59268">
        <ele>358</ele>
        <time>2016-09-12T09:08:45Z</time>
      </trkpt>
      <trkpt lat="45.86854" lon="4.59265">
        <ele>358</ele>
        <time>2016-09-12T09:08:46Z</time>
      </trkpt>
      <trkpt lat="45.8686" lon="4.59258">
        <ele>358</ele>
        <time>2016-09-12T09:08:48Z</time>
      </trkpt>
      <trkpt lat="45.86863" lon="4.59255">
        <ele>358</ele>
        <time>2016-09-12T09:08:49Z</time>
      </trkpt>
      <trkpt lat="45.86868" lon="4.59248">
        <ele>360</ele>
        <time>2016-09-12T09:08:51Z</time>
      </trkpt>
      <trkpt lat="45.86871" lon="4.59245">
        <ele>360</ele>
        <time>2016-09-12T09:08:52Z</time>
      </trkpt>
      <trkpt lat="45.86876" lon="4.59238">
        <ele>360</ele>
        <time>2016-09-12T09:08:54Z</time>
      </trkpt>
      <trkpt lat="45.86879" lon="4.59234">
        <ele>360</ele>
        <time>2016-09-12T09:08:55Z</time>
      </trkpt>
      <trkpt lat="45.86886" lon="4.59227">
        <ele>361</ele>
        <time>2016-09-12T09:08:57Z</time>
      </trkpt>
      <trkpt lat="45.86889" lon="4.59223">
        <ele>361</ele>
        <time>2016-09-12T09:08:58Z</time>
      </trkpt>
      <trkpt lat="45.86894" lon="4.59217">
        <ele>361</ele>
        <time>2016-09-12T09:09:00Z</time>
      </trkpt>
      <trkpt lat="45.86897" lon="4.59213">
        <ele>361</ele>
        <time>2016-09-12T09:09:01Z</time>
      </trkpt>
      <trkpt lat="45.86902" lon="4.59206">
        <ele>361</ele>
        <time>2016-09-12T09:09:03Z</time>
      </trkpt>
      <trkpt lat="45.86905" lon="4.59203">
        <ele>362</ele>
        <time>2016-09-12T09:09:04Z</time>
      </trkpt>
      <trkpt lat="45.8691" lon="4.59196">
        <ele>362</ele>
        <time>2016-09-12T09:09:06Z</time>
      </trkpt>
      <trkpt lat="45.86913" lon="4.59192">
        <ele>362</ele>
        <time>2016-09-12T09:09:07Z</time>
      </trkpt>
      <trkpt lat="45.86919" lon="4.59187">
        <ele>363</ele>
        <time>2016-09-12T09:09:09Z</time>
      </trkpt>
      <trkpt lat="45.86921" lon="4.59184">
        <ele>363</ele>
        <time>2016-09-12T09:09:10Z</time>
      </trkpt>
      <trkpt lat="45.86926" lon="4.59177">
        <ele>364</ele>
        <time>2016-09-12T09:09:12Z</time>
      </trkpt>
      <trkpt lat="45.86928" lon="4.59174">
        <ele>364</ele>
        <time>2016-09-12T09:09:13Z</time>
      </trkpt>
      <trkpt lat="45.86935" lon="4.59166">
        <ele>366</ele>
        <time>2016-09-12T09:09:16Z</time>
      </trkpt>
      <trkpt lat="45.86937" lon="4.59163">
        <ele>366</ele>
        <time>2016-09-12T09:09:17Z</time>
      </trkpt>
      <trkpt lat="45.86941" lon="4.59157">
        <ele>366</ele>
        <time>2016-09-12T09:09:19Z</time>
      </trkpt>
      <trkpt lat="45.86943" lon="4.59154">
        <ele>366</ele>
        <time>2016-09-12T09:09:20Z</time>
      </trkpt>
      <trkpt lat="45.86949" lon="4.59145">
        <ele>366</ele>
        <time>2016-09-12T09:09:23Z</time>
      </trkpt>
      <trkpt lat="45.86952" lon="4.59143">
        <ele>366</ele>
        <time>2016-09-12T09:09:24Z</time>
      </trkpt>
      <trkpt lat="45.86958" lon="4.59135">
        <ele>366</ele>
        <time>2016-09-12T09:09:27Z</time>
      </trkpt>
      <trkpt lat="45.8696" lon="4.59132">
        <ele>366</ele>
        <time>2016-09-12T09:09:28Z</time>
      </trkpt>
      <trkpt lat="45.86967" lon="4.59124">
        <ele>367</ele>
        <time>2016-09-12T09:09:31Z</time>
      </trkpt>
      <trkpt lat="45.86969" lon="4.5912">
        <ele>367</ele>
        <time>2016-09-12T09:09:32Z</time>
      </trkpt>
      <trkpt lat="45.86976" lon="4.59113">
        <ele>367</ele>
        <time>2016-09-12T09:09:35Z</time>
      </trkpt>
      <trkpt lat="45.86978" lon="4.59111">
        <ele>367</ele>
        <time>2016-09-12T09:09:36Z</time>
      </trkpt>
      <trkpt lat="45.86983" lon="4.59105">
        <ele>367</ele>
        <time>2016-09-12T09:09:38Z</time>
      </trkpt>
      <trkpt lat="45.86985" lon="4.59102">
        <ele>367</ele>
        <time>2016-09-12T09:09:39Z</time>
      </trkpt>
      <trkpt lat="45.8699" lon="4.59096">
        <ele>368</ele>
        <time>2016-09-12T09:09:41Z</time>
      </trkpt>
      <trkpt lat="45.86992" lon="4.59093">
        <ele>368</ele>
        <time>2016-09-12T09:09:42Z</time>
      </trkpt>
      <trkpt lat="45.86997" lon="4.59087">
        <ele>369</ele>
        <time>2016-09-12T09:09:44Z</time>
      </trkpt>
      <trkpt lat="45.86999" lon="4.59084">
        <ele>369</ele>
        <time>2016-09-12T09:09:45Z</time>
      </trkpt>
      <trkpt lat="45.87003" lon="4.59077">
        <ele>369</ele>
        <time>2016-09-12T09:09:47Z</time>
      </trkpt>
      <trkpt lat="45.87006" lon="4.59074">
        <ele>369</ele>
        <time>2016-09-12T09:09:48Z</time>
      </trkpt>
      <trkpt lat="45.87011" lon="4.59066">
        <ele>369</ele>
        <time>2016-09-12T09:09:51Z</time>
      </trkpt>
      <trkpt lat="45.87013" lon="4.59063">
        <ele>369</ele>
        <time>2016-09-12T09:09:52Z</time>
      </trkpt>
      <trkpt lat="45.8702" lon="4.59055">
        <ele>369</ele>
        <time>2016-09-12T09:09:55Z</time>
      </trkpt>
      <trkpt lat="45.87022" lon="4.59052">
        <ele>369</ele>
        <time>2016-09-12T09:09:56Z</time>
      </trkpt>
      <trkpt lat="45.87029" lon="4.59045">
        <ele>369</ele>
        <time>2016-09-12T09:09:59Z</time>
      </trkpt>
      <trkpt lat="45.8703" lon="4.59041">
        <ele>370</ele>
        <time>2016-09-12T09:10:00Z</time>
      </trkpt>
      <trkpt lat="45.87036" lon="4.59032">
        <ele>370</ele>
        <time>2016-09-12T09:10:03Z</time>
      </trkpt>
      <trkpt lat="45.87038" lon="4.59029">
        <ele>370</ele>
        <time>2016-09-12T09:10:04Z</time>
      </trkpt>
      <trkpt lat="45.87044" lon="4.5902">
        <ele>370</ele>
        <time>2016-09-12T09:10:07Z</time>
      </trkpt>
      <trkpt lat="45.87046" lon="4.59016">
        <ele>370</ele>
        <time>2016-09-12T09:10:08Z</time>
      </trkpt>
      <trkpt lat="45.87051" lon="4.59007">
        <ele>370</ele>
        <time>2016-09-12T09:10:11Z</time>
      </trkpt>
      <trkpt lat="45.87053" lon="4.59004">
        <ele>370</ele>
        <time>2016-09-12T09:10:12Z</time>
      </trkpt>
      <trkpt lat="45.87058" lon="4.58995">
        <ele>372</ele>
        <time>2016-09-12T09:10:15Z</time>
      </trkpt>
      <trkpt lat="45.87059" lon="4.58992">
        <ele>372</ele>
        <time>2016-09-12T09:10:16Z</time>
      </trkpt>
      <trkpt lat="45.87064" lon="4.58982">
        <ele>372</ele>
        <time>2016-09-12T09:10:19Z</time>
      </trkpt>
      <trkpt lat="45.87066" lon="4.58978">
        <ele>372</ele>
        <time>2016-09-12T09:10:20Z</time>
      </trkpt>
      <trkpt lat="45.87072" lon="4.58969">
        <ele>373</ele>
        <time>2016-09-12T09:10:23Z</time>
      </trkpt>
      <trkpt lat="45.87073" lon="4.58966">
        <ele>373</ele>
        <time>2016-09-12T09:10:24Z</time>
      </trkpt>
      <trkpt lat="45.87079" lon="4.58956">
        <ele>373</ele>
        <time>2016-09-12T09:10:27Z</time>
      </trkpt>
      <trkpt lat="45.87081" lon="4.58952">
        <ele>373</ele>
        <time>2016-09-12T09:10:28Z</time>
      </trkpt>
      <trkpt lat="45.87085" lon="4.58945">
        <ele>373</ele>
        <time>2016-09-12T09:10:30Z</time>
      </trkpt>
      <trkpt lat="45.87086" lon="4.58941">
        <ele>373</ele>
        <time>2016-09-12T09:10:31Z</time>
      </trkpt>
      <trkpt lat="45.87091" lon="4.58931">
        <ele>374</ele>
        <time>2016-09-12T09:10:34Z</time>
      </trkpt>
      <trkpt lat="45.87093" lon="4.58927">
        <ele>374</ele>
        <time>2016-09-12T09:10:35Z</time>
      </trkpt>
      <trkpt lat="45.87098" lon="4.58917">
        <ele>376</ele>
        <time>2016-09-12T09:10:38Z</time>
      </trkpt>
      <trkpt lat="45.871" lon="4.58913">
        <ele>376</ele>
        <time>2016-09-12T09:10:39Z</time>
      </trkpt>
      <trkpt lat="45.87103" lon="4.58906">
        <ele>376</ele>
        <time>2016-09-12T09:10:41Z</time>
      </trkpt>
      <trkpt lat="45.87105" lon="4.58903">
        <ele>376</ele>
        <time>2016-09-12T09:10:42Z</time>
      </trkpt>
      <trkpt lat="45.87108" lon="4.58895">
        <ele>376</ele>
        <time>2016-09-12T09:10:44Z</time>
      </trkpt>
      <trkpt lat="45.8711" lon="4.58891">
        <ele>377</ele>
        <time>2016-09-12T09:10:45Z</time>
      </trkpt>
      <trkpt lat="45.87114" lon="4.58882">
        <ele>377</ele>
        <time>2016-09-12T09:10:47Z</time>
      </trkpt>
      <trkpt lat="45.87116" lon="4.58878">
        <ele>377</ele>
        <time>2016-09-12T09:10:48Z</time>
      </trkpt>
      <trkpt lat="45.8712" lon="4.58869">
        <ele>377</ele>
        <time>2016-09-12T09:10:50Z</time>
      </trkpt>
      <trkpt lat="45.87122" lon="4.58865">
        <ele>377</ele>
        <time>2016-09-12T09:10:51Z</time>
      </trkpt>
      <trkpt lat="45.87125" lon="4.58856">
        <ele>377</ele>
        <time>2016-09-12T09:10:53Z</time>
      </trkpt>
      <trkpt lat="45.87126" lon="4.58852">
        <ele>377</ele>
        <time>2016-09-12T09:10:54Z</time>
      </trkpt>
      <trkpt lat="45.8713" lon="4.58844">
        <ele>377</ele>
        <time>2016-09-12T09:10:56Z</time>
      </trkpt>
      <trkpt lat="45.87132" lon="4.5884">
        <ele>377</ele>
        <time>2016-09-12T09:10:57Z</time>
      </trkpt>
      <trkpt lat="45.87136" lon="4.58831">
        <ele>378</ele>
        <time>2016-09-12T09:10:59Z</time>
      </trkpt>
      <trkpt lat="45.87138" lon="4.58826">
        <ele>378</ele>
        <time>2016-09-12T09:11:00Z</time>
      </trkpt>
      <trkpt lat="45.87143" lon="4.58816">
        <ele>378</ele>
        <time>2016-09-12T09:11:02Z</time>
      </trkpt>
      <trkpt lat="45.87145" lon="4.58812">
        <ele>378</ele>
        <time>2016-09-12T09:11:03Z</time>
      </trkpt>
      <trkpt lat="45.8715" lon="4.58802">
        <ele>378</ele>
        <time>2016-09-12T09:11:05Z</time>
      </trkpt>
      <trkpt lat="45.87152" lon="4.58797">
        <ele>378</ele>
        <time>2016-09-12T09:11:06Z</time>
      </trkpt>
      <trkpt lat="45.87155" lon="4.58787">
        <ele>377</ele>
        <time>2016-09-12T09:11:08Z</time>
      </trkpt>
      <trkpt lat="45.87157" lon="4.58782">
        <ele>377</ele>
        <time>2016-09-12T09:11:09Z</time>
      </trkpt>
      <trkpt lat="45.87161" lon="4.58772">
        <ele>377</ele>
        <time>2016-09-12T09:11:11Z</time>
      </trkpt>
      <trkpt lat="45.87163" lon="4.58767">
        <ele>377</ele>
        <time>2016-09-12T09:11:12Z</time>
      </trkpt>
      <trkpt lat="45.87168" lon="4.58758">
        <ele>377</ele>
        <time>2016-09-12T09:11:14Z</time>
      </trkpt>
      <trkpt lat="45.8717" lon="4.58754">
        <ele>377</ele>
        <time>2016-09-12T09:11:15Z</time>
      </trkpt>
      <trkpt lat="45.87175" lon="4.58744">
        <ele>377</ele>
        <time>2016-09-12T09:11:17Z</time>
      </trkpt>
      <trkpt lat="45.87177" lon="4.58739">
        <ele>376</ele>
        <time>2016-09-12T09:11:18Z</time>
      </trkpt>
      <trkpt lat="45.87181" lon="4.58729">
        <ele>376</ele>
        <time>2016-09-12T09:11:20Z</time>
      </trkpt>
      <trkpt lat="45.87184" lon="4.58724">
        <ele>376</ele>
        <time>2016-09-12T09:11:21Z</time>
      </trkpt>
      <trkpt lat="45.87188" lon="4.58713">
        <ele>376</ele>
        <time>2016-09-12T09:11:23Z</time>
      </trkpt>
      <trkpt lat="45.87191" lon="4.58707">
        <ele>376</ele>
        <time>2016-09-12T09:11:24Z</time>
      </trkpt>
      <trkpt lat="45.87193" lon="4.58701">
        <ele>376</ele>
        <time>2016-09-12T09:11:25Z</time>
      </trkpt>
      <trkpt lat="45.87195" lon="4.58695">
        <ele>376</ele>
        <time>2016-09-12T09:11:26Z</time>
      </trkpt>
      <trkpt lat="45.87198" lon="4.58689">
        <ele>376</ele>
        <time>2016-09-12T09:11:27Z</time>
      </trkpt>
      <trkpt lat="45.872" lon="4.58684">
        <ele>375</ele>
        <time>2016-09-12T09:11:28Z</time>
      </trkpt>
      <trkpt lat="45.87205" lon="4.58674">
        <ele>375</ele>
        <time>2016-09-12T09:11:30Z</time>
      </trkpt>
      <trkpt lat="45.87207" lon="4.58669">
        <ele>375</ele>
        <time>2016-09-12T09:11:31Z</time>
      </trkpt>
      <trkpt lat="45.87213" lon="4.58659">
        <ele>376</ele>
        <time>2016-09-12T09:11:33Z</time>
      </trkpt>
      <trkpt lat="45.87215" lon="4.58654">
        <ele>376</ele>
        <time>2016-09-12T09:11:34Z</time>
      </trkpt>
      <trkpt lat="45.87219" lon="4.58643">
        <ele>376</ele>
        <time>2016-09-12T09:11:36Z</time>
      </trkpt>
      <trkpt lat="45.87222" lon="4.58638">
        <ele>376</ele>
        <time>2016-09-12T09:11:37Z</time>
      </trkpt>
      <trkpt lat="45.87226" lon="4.58629">
        <ele>377</ele>
        <time>2016-09-12T09:11:39Z</time>
      </trkpt>
      <trkpt lat="45.87228" lon="4.58624">
        <ele>377</ele>
        <time>2016-09-12T09:11:40Z</time>
      </trkpt>
      <trkpt lat="45.87233" lon="4.58613">
        <ele>377</ele>
        <time>2016-09-12T09:11:42Z</time>
      </trkpt>
      <trkpt lat="45.87236" lon="4.58608">
        <ele>377</ele>
        <time>2016-09-12T09:11:43Z</time>
      </trkpt>
      <trkpt lat="45.87239" lon="4.58603">
        <ele>378</ele>
        <time>2016-09-12T09:11:44Z</time>
      </trkpt>
      <trkpt lat="45.87242" lon="4.58598">
        <ele>378</ele>
        <time>2016-09-12T09:11:45Z</time>
      </trkpt>
      <trkpt lat="45.87246" lon="4.58594">
        <ele>378</ele>
        <time>2016-09-12T09:11:46Z</time>
      </trkpt>
      <trkpt lat="45.87249" lon="4.58589">
        <ele>378</ele>
        <time>2016-09-12T09:11:47Z</time>
      </trkpt>
      <trkpt lat="45.87256" lon="4.58582">
        <ele>380</ele>
        <time>2016-09-12T09:11:49Z</time>
      </trkpt>
      <trkpt lat="45.87259" lon="4.58579">
        <ele>380</ele>
        <time>2016-09-12T09:11:50Z</time>
      </trkpt>
      <trkpt lat="45.87265" lon="4.58573">
        <ele>381</ele>
        <time>2016-09-12T09:11:52Z</time>
      </trkpt>
      <trkpt lat="45.87267" lon="4.58569">
        <ele>381</ele>
        <time>2016-09-12T09:11:53Z</time>
      </trkpt>
      <trkpt lat="45.87273" lon="4.58563">
        <ele>382</ele>
        <time>2016-09-12T09:11:55Z</time>
      </trkpt>
      <trkpt lat="45.87276" lon="4.58561">
        <ele>382</ele>
        <time>2016-09-12T09:11:56Z</time>
      </trkpt>
      <trkpt lat="45.87282" lon="4.58555">
        <ele>382</ele>
        <time>2016-09-12T09:11:58Z</time>
      </trkpt>
      <trkpt lat="45.87286" lon="4.58553">
        <ele>383</ele>
        <time>2016-09-12T09:11:59Z</time>
      </trkpt>
      <trkpt lat="45.87294" lon="4.58548">
        <ele>383</ele>
        <time>2016-09-12T09:12:01Z</time>
      </trkpt>
      <trkpt lat="45.87297" lon="4.58546">
        <ele>383</ele>
        <time>2016-09-12T09:12:02Z</time>
      </trkpt>
      <trkpt lat="45.87304" lon="4.58541">
        <ele>384</ele>
        <time>2016-09-12T09:12:04Z</time>
      </trkpt>
      <trkpt lat="45.87307" lon="4.58538">
        <ele>384</ele>
        <time>2016-09-12T09:12:05Z</time>
      </trkpt>
      <trkpt lat="45.87314" lon="4.58535">
        <ele>384</ele>
        <time>2016-09-12T09:12:07Z</time>
      </trkpt>
      <trkpt lat="45.87317" lon="4.58534">
        <ele>384</ele>
        <time>2016-09-12T09:12:08Z</time>
      </trkpt>
      <trkpt lat="45.87324" lon="4.58531">
        <ele>385</ele>
        <time>2016-09-12T09:12:10Z</time>
      </trkpt>
      <trkpt lat="45.87328" lon="4.5853">
        <ele>385</ele>
        <time>2016-09-12T09:12:11Z</time>
      </trkpt>
      <trkpt lat="45.87334" lon="4.58527">
        <ele>387</ele>
        <time>2016-09-12T09:12:13Z</time>
      </trkpt>
      <trkpt lat="45.87337" lon="4.58527">
        <ele>387</ele>
        <time>2016-09-12T09:12:14Z</time>
      </trkpt>
      <trkpt lat="45.87345" lon="4.58526">
        <ele>387</ele>
        <time>2016-09-12T09:12:16Z</time>
      </trkpt>
      <trkpt lat="45.87348" lon="4.58525">
        <ele>387</ele>
        <time>2016-09-12T09:12:17Z</time>
      </trkpt>
      <trkpt lat="45.87355" lon="4.58525">
        <ele>387</ele>
        <time>2016-09-12T09:12:19Z</time>
      </trkpt>
      <trkpt lat="45.87358" lon="4.58525">
        <ele>387</ele>
        <time>2016-09-12T09:12:20Z</time>
      </trkpt>
      <trkpt lat="45.87366" lon="4.58525">
        <ele>387</ele>
        <time>2016-09-12T09:12:23Z</time>
      </trkpt>
      <trkpt lat="45.87369" lon="4.58524">
        <ele>387</ele>
        <time>2016-09-12T09:12:24Z</time>
      </trkpt>
      <trkpt lat="45.87377" lon="4.58526">
        <ele>387</ele>
        <time>2016-09-12T09:12:27Z</time>
      </trkpt>
      <trkpt lat="45.8738" lon="4.58526">
        <ele>387</ele>
        <time>2016-09-12T09:12:28Z</time>
      </trkpt>
      <trkpt lat="45.87388" lon="4.58525">
        <ele>387</ele>
        <time>2016-09-12T09:12:31Z</time>
      </trkpt>
      <trkpt lat="45.87391" lon="4.58525">
        <ele>387</ele>
        <time>2016-09-12T09:12:32Z</time>
      </trkpt>
      <trkpt lat="45.87399" lon="4.58525">
        <ele>388</ele>
        <time>2016-09-12T09:12:35Z</time>
      </trkpt>
      <trkpt lat="45.87401" lon="4.58524">
        <ele>388</ele>
        <time>2016-09-12T09:12:36Z</time>
      </trkpt>
      <trkpt lat="45.87408" lon="4.58522">
        <ele>389</ele>
        <time>2016-09-12T09:12:38Z</time>
      </trkpt>
      <trkpt lat="45.87411" lon="4.5852">
        <ele>389</ele>
        <time>2016-09-12T09:12:39Z</time>
      </trkpt>
      <trkpt lat="45.87417" lon="4.58517">
        <ele>390</ele>
        <time>2016-09-12T09:12:41Z</time>
      </trkpt>
      <trkpt lat="45.87421" lon="4.58516">
        <ele>390</ele>
        <time>2016-09-12T09:12:42Z</time>
      </trkpt>
      <trkpt lat="45.87428" lon="4.58515">
        <ele>389</ele>
        <time>2016-09-12T09:12:44Z</time>
      </trkpt>
      <trkpt lat="45.87432" lon="4.58514">
        <ele>389</ele>
        <time>2016-09-12T09:12:45Z</time>
      </trkpt>
      <trkpt lat="45.87438" lon="4.58513">
        <ele>389</ele>
        <time>2016-09-12T09:12:47Z</time>
      </trkpt>
      <trkpt lat="45.87441" lon="4.58512">
        <ele>388</ele>
        <time>2016-09-12T09:12:48Z</time>
      </trkpt>
      <trkpt lat="45.87447" lon="4.58507">
        <ele>388</ele>
        <time>2016-09-12T09:12:50Z</time>
      </trkpt>
      <trkpt lat="45.8745" lon="4.58505">
        <ele>388</ele>
        <time>2016-09-12T09:12:51Z</time>
      </trkpt>
      <trkpt lat="45.87457" lon="4.58502">
        <ele>388</ele>
        <time>2016-09-12T09:12:53Z</time>
      </trkpt>
      <trkpt lat="45.8746" lon="4.58501">
        <ele>388</ele>
        <time>2016-09-12T09:12:54Z</time>
      </trkpt>
      <trkpt lat="45.87467" lon="4.58497">
        <ele>395</ele>
        <time>2016-09-12T09:12:56Z</time>
      </trkpt>
      <trkpt lat="45.8747" lon="4.58495">
        <ele>394</ele>
        <time>2016-09-12T09:12:57Z</time>
      </trkpt>
      <trkpt lat="45.87477" lon="4.58489">
        <ele>394</ele>
        <time>2016-09-12T09:12:59Z</time>
      </trkpt>
      <trkpt lat="45.8748" lon="4.58487">
        <ele>394</ele>
        <time>2016-09-12T09:13:00Z</time>
      </trkpt>
      <trkpt lat="45.87487" lon="4.58483">
        <ele>394</ele>
        <time>2016-09-12T09:13:02Z</time>
      </trkpt>
      <trkpt lat="45.8749" lon="4.58481">
        <ele>394</ele>
        <time>2016-09-12T09:13:03Z</time>
      </trkpt>
      <trkpt lat="45.87497" lon="4.58477">
        <ele>394</ele>
        <time>2016-09-12T09:13:05Z</time>
      </trkpt>
      <trkpt lat="45.875" lon="4.58475">
        <ele>394</ele>
        <time>2016-09-12T09:13:06Z</time>
      </trkpt>
      <trkpt lat="45.87506" lon="4.58473">
        <ele>393</ele>
        <time>2016-09-12T09:13:08Z</time>
      </trkpt>
      <trkpt lat="45.87509" lon="4.58472">
        <ele>394</ele>
        <time>2016-09-12T09:13:09Z</time>
      </trkpt>
      <trkpt lat="45.87516" lon="4.58471">
        <ele>394</ele>
        <time>2016-09-12T09:13:11Z</time>
      </trkpt>
      <trkpt lat="45.87519" lon="4.58471">
        <ele>394</ele>
        <time>2016-09-12T09:13:12Z</time>
      </trkpt>
      <trkpt lat="45.87525" lon="4.5847">
        <ele>394</ele>
        <time>2016-09-12T09:13:14Z</time>
      </trkpt>
      <trkpt lat="45.87528" lon="4.5847">
        <ele>394</ele>
        <time>2016-09-12T09:13:15Z</time>
      </trkpt>
      <trkpt lat="45.87537" lon="4.5847">
        <ele>394</ele>
        <time>2016-09-12T09:13:18Z</time>
      </trkpt>
      <trkpt lat="45.8754" lon="4.5847">
        <ele>394</ele>
        <time>2016-09-12T09:13:19Z</time>
      </trkpt>
      <trkpt lat="45.87548" lon="4.5847">
        <ele>395</ele>
        <time>2016-09-12T09:13:22Z</time>
      </trkpt>
      <trkpt lat="45.87551" lon="4.5847">
        <ele>395</ele>
        <time>2016-09-12T09:13:23Z</time>
      </trkpt>
      <trkpt lat="45.87556" lon="4.58467">
        <ele>395</ele>
        <time>2016-09-12T09:13:25Z</time>
      </trkpt>
      <trkpt lat="45.8756" lon="4.58467">
        <ele>395</ele>
        <time>2016-09-12T09:13:26Z</time>
      </trkpt>
      <trkpt lat="45.87566" lon="4.58462">
        <ele>395</ele>
        <time>2016-09-12T09:13:28Z</time>
      </trkpt>
      <trkpt lat="45.87568" lon="4.58458">
        <ele>395</ele>
        <time>2016-09-12T09:13:29Z</time>
      </trkpt>
      <trkpt lat="45.87573" lon="4.58453">
        <ele>395</ele>
        <time>2016-09-12T09:13:31Z</time>
      </trkpt>
      <trkpt lat="45.87576" lon="4.5845">
        <ele>396</ele>
        <time>2016-09-12T09:13:32Z</time>
      </trkpt>
      <trkpt lat="45.8758" lon="4.58442">
        <ele>396</ele>
        <time>2016-09-12T09:13:34Z</time>
      </trkpt>
      <trkpt lat="45.87582" lon="4.58437">
        <ele>396</ele>
        <time>2016-09-12T09:13:35Z</time>
      </trkpt>
      <trkpt lat="45.87587" lon="4.58428">
        <ele>396</ele>
        <time>2016-09-12T09:13:37Z</time>
      </trkpt>
      <trkpt lat="45.87588" lon="4.58424">
        <ele>397</ele>
        <time>2016-09-12T09:13:38Z</time>
      </trkpt>
      <trkpt lat="45.8759" lon="4.58414">
        <ele>397</ele>
        <time>2016-09-12T09:13:40Z</time>
      </trkpt>
      <trkpt lat="45.87591" lon="4.5841">
        <ele>397</ele>
        <time>2016-09-12T09:13:41Z</time>
      </trkpt>
      <trkpt lat="45.87591" lon="4.58399">
        <ele>396</ele>
        <time>2016-09-12T09:13:43Z</time>
      </trkpt>
      <trkpt lat="45.87591" lon="4.58395">
        <ele>396</ele>
        <time>2016-09-12T09:13:44Z</time>
      </trkpt>
      <trkpt lat="45.8759" lon="4.58386">
        <ele>396</ele>
        <time>2016-09-12T09:13:46Z</time>
      </trkpt>
      <trkpt lat="45.87589" lon="4.58382">
        <ele>396</ele>
        <time>2016-09-12T09:13:47Z</time>
      </trkpt>
      <trkpt lat="45.87587" lon="4.58373">
        <ele>396</ele>
        <time>2016-09-12T09:13:49Z</time>
      </trkpt>
      <trkpt lat="45.87586" lon="4.58369">
        <ele>396</ele>
        <time>2016-09-12T09:13:50Z</time>
      </trkpt>
      <trkpt lat="45.87584" lon="4.58361">
        <ele>396</ele>
        <time>2016-09-12T09:13:52Z</time>
      </trkpt>
      <trkpt lat="45.87583" lon="4.58357">
        <ele>399</ele>
        <time>2016-09-12T09:13:53Z</time>
      </trkpt>
      <trkpt lat="45.87579" lon="4.58349">
        <ele>398</ele>
        <time>2016-09-12T09:13:55Z</time>
      </trkpt>
      <trkpt lat="45.87578" lon="4.58346">
        <ele>398</ele>
        <time>2016-09-12T09:13:56Z</time>
      </trkpt>
      <trkpt lat="45.87572" lon="4.58337">
        <ele>398</ele>
        <time>2016-09-12T09:13:59Z</time>
      </trkpt>
      <trkpt lat="45.87569" lon="4.58334">
        <ele>398</ele>
        <time>2016-09-12T09:14:00Z</time>
      </trkpt>
      <trkpt lat="45.87564" lon="4.58328">
        <ele>399</ele>
        <time>2016-09-12T09:14:02Z</time>
      </trkpt>
      <trkpt lat="45.87561" lon="4.58325">
        <ele>400</ele>
        <time>2016-09-12T09:14:03Z</time>
      </trkpt>
      <trkpt lat="45.87556" lon="4.58318">
        <ele>400</ele>
        <time>2016-09-12T09:14:05Z</time>
      </trkpt>
      <trkpt lat="45.87553" lon="4.58314">
        <ele>400</ele>
        <time>2016-09-12T09:14:06Z</time>
      </trkpt>
      <trkpt lat="45.87549" lon="4.58306">
        <ele>401</ele>
        <time>2016-09-12T09:14:08Z</time>
      </trkpt>
      <trkpt lat="45.87548" lon="4.58302">
        <ele>401</ele>
        <time>2016-09-12T09:14:09Z</time>
      </trkpt>
      <trkpt lat="45.87544" lon="4.58292">
        <ele>401</ele>
        <time>2016-09-12T09:14:11Z</time>
      </trkpt>
      <trkpt lat="45.87541" lon="4.58288">
        <ele>401</ele>
        <time>2016-09-12T09:14:12Z</time>
      </trkpt>
      <trkpt lat="45.87539" lon="4.58277">
        <ele>401</ele>
        <time>2016-09-12T09:14:14Z</time>
      </trkpt>
      <trkpt lat="45.87538" lon="4.58271">
        <ele>402</ele>
        <time>2016-09-12T09:14:15Z</time>
      </trkpt>
      <trkpt lat="45.87537" lon="4.58259">
        <ele>402</ele>
        <time>2016-09-12T09:14:17Z</time>
      </trkpt>
      <trkpt lat="45.87536" lon="4.58252">
        <ele>402</ele>
        <time>2016-09-12T09:14:18Z</time>
      </trkpt>
      <trkpt lat="45.87536" lon="4.58239">
        <ele>401</ele>
        <time>2016-09-12T09:14:20Z</time>
      </trkpt>
      <trkpt lat="45.87536" lon="4.58233">
        <ele>401</ele>
        <time>2016-09-12T09:14:21Z</time>
      </trkpt>
      <trkpt lat="45.87536" lon="4.5822">
        <ele>401</ele>
        <time>2016-09-12T09:14:23Z</time>
      </trkpt>
      <trkpt lat="45.87536" lon="4.58213">
        <ele>401</ele>
        <time>2016-09-12T09:14:24Z</time>
      </trkpt>
      <trkpt lat="45.87537" lon="4.58207">
        <ele>401</ele>
        <time>2016-09-12T09:14:25Z</time>
      </trkpt>
      <trkpt lat="45.87537" lon="4.582">
        <ele>401</ele>
        <time>2016-09-12T09:14:26Z</time>
      </trkpt>
      <trkpt lat="45.87537" lon="4.58194">
        <ele>401</ele>
        <time>2016-09-12T09:14:27Z</time>
      </trkpt>
      <trkpt lat="45.87537" lon="4.58187">
        <ele>401</ele>
        <time>2016-09-12T09:14:28Z</time>
      </trkpt>
      <trkpt lat="45.87537" lon="4.58174">
        <ele>400</ele>
        <time>2016-09-12T09:14:30Z</time>
      </trkpt>
      <trkpt lat="45.87537" lon="4.58168">
        <ele>400</ele>
        <time>2016-09-12T09:14:31Z</time>
      </trkpt>
      <trkpt lat="45.87537" lon="4.58155">
        <ele>399</ele>
        <time>2016-09-12T09:14:33Z</time>
      </trkpt>
      <trkpt lat="45.87537" lon="4.58149">
        <ele>399</ele>
        <time>2016-09-12T09:14:34Z</time>
      </trkpt>
      <trkpt lat="45.87538" lon="4.58136">
        <ele>398</ele>
        <time>2016-09-12T09:14:36Z</time>
      </trkpt>
      <trkpt lat="45.87538" lon="4.5813">
        <ele>398</ele>
        <time>2016-09-12T09:14:37Z</time>
      </trkpt>
      <trkpt lat="45.87537" lon="4.58124">
        <ele>398</ele>
        <time>2016-09-12T09:14:38Z</time>
      </trkpt>
      <trkpt lat="45.87538" lon="4.58117">
        <ele>398</ele>
        <time>2016-09-12T09:14:39Z</time>
      </trkpt>
      <trkpt lat="45.87538" lon="4.5811">
        <ele>398</ele>
        <time>2016-09-12T09:14:40Z</time>
      </trkpt>
      <trkpt lat="45.87537" lon="4.58102">
        <ele>398</ele>
        <time>2016-09-12T09:14:41Z</time>
      </trkpt>
      <trkpt lat="45.87537" lon="4.58093">
        <ele>398</ele>
        <time>2016-09-12T09:14:42Z</time>
      </trkpt>
      <trkpt lat="45.87536" lon="4.58085">
        <ele>398</ele>
        <time>2016-09-12T09:14:43Z</time>
      </trkpt>
      <trkpt lat="45.87535" lon="4.58076">
        <ele>397</ele>
        <time>2016-09-12T09:14:44Z</time>
      </trkpt>
      <trkpt lat="45.87534" lon="4.58068">
        <ele>397</ele>
        <time>2016-09-12T09:14:45Z</time>
      </trkpt>
      <trkpt lat="45.87533" lon="4.5806">
        <ele>397</ele>
        <time>2016-09-12T09:14:46Z</time>
      </trkpt>
      <trkpt lat="45.87532" lon="4.58052">
        <ele>396</ele>
        <time>2016-09-12T09:14:47Z</time>
      </trkpt>
      <trkpt lat="45.87531" lon="4.58044">
        <ele>396</ele>
        <time>2016-09-12T09:14:48Z</time>
      </trkpt>
      <trkpt lat="45.87531" lon="4.58036">
        <ele>396</ele>
        <time>2016-09-12T09:14:49Z</time>
      </trkpt>
      <trkpt lat="45.87531" lon="4.58028">
        <ele>396</ele>
        <time>2016-09-12T09:14:50Z</time>
      </trkpt>
      <trkpt lat="45.8753" lon="4.5802">
        <ele>396</ele>
        <time>2016-09-12T09:14:51Z</time>
      </trkpt>
      <trkpt lat="45.8753" lon="4.58012">
        <ele>396</ele>
        <time>2016-09-12T09:14:52Z</time>
      </trkpt>
      <trkpt lat="45.8753" lon="4.58004">
        <ele>396</ele>
        <time>2016-09-12T09:14:53Z</time>
      </trkpt>
      <trkpt lat="45.8753" lon="4.57996">
        <ele>396</ele>
        <time>2016-09-12T09:14:54Z</time>
      </trkpt>
      <trkpt lat="45.8753" lon="4.57988">
        <ele>396</ele>
        <time>2016-09-12T09:14:55Z</time>
      </trkpt>
      <trkpt lat="45.8753" lon="4.5798">
        <ele>396</ele>
        <time>2016-09-12T09:14:56Z</time>
      </trkpt>
      <trkpt lat="45.8753" lon="4.57973">
        <ele>397</ele>
        <time>2016-09-12T09:14:57Z</time>
      </trkpt>
      <trkpt lat="45.87531" lon="4.57966">
        <ele>397</ele>
        <time>2016-09-12T09:14:58Z</time>
      </trkpt>
      <trkpt lat="45.87532" lon="4.57959">
        <ele>397</ele>
        <time>2016-09-12T09:14:59Z</time>
      </trkpt>
      <trkpt lat="45.87533" lon="4.57952">
        <ele>397</ele>
        <time>2016-09-12T09:15:00Z</time>
      </trkpt>
      <trkpt lat="45.87534" lon="4.57946">
        <ele>397</ele>
        <time>2016-09-12T09:15:01Z</time>
      </trkpt>
      <trkpt lat="45.87536" lon="4.57934">
        <ele>397</ele>
        <time>2016-09-12T09:15:03Z</time>
      </trkpt>
      <trkpt lat="45.87538" lon="4.57929">
        <ele>397</ele>
        <time>2016-09-12T09:15:04Z</time>
      </trkpt>
      <trkpt lat="45.87539" lon="4.57923">
        <ele>397</ele>
        <time>2016-09-12T09:15:05Z</time>
      </trkpt>
      <trkpt lat="45.87541" lon="4.57916">
        <ele>399</ele>
        <time>2016-09-12T09:15:06Z</time>
      </trkpt>
      <trkpt lat="45.87543" lon="4.5791">
        <ele>399</ele>
        <time>2016-09-12T09:15:07Z</time>
      </trkpt>
      <trkpt lat="45.87545" lon="4.57905">
        <ele>399</ele>
        <time>2016-09-12T09:15:08Z</time>
      </trkpt>
      <trkpt lat="45.87548" lon="4.57898">
        <ele>399</ele>
        <time>2016-09-12T09:15:09Z</time>
      </trkpt>
      <trkpt lat="45.87551" lon="4.57893">
        <ele>399</ele>
        <time>2016-09-12T09:15:10Z</time>
      </trkpt>
      <trkpt lat="45.87555" lon="4.57882">
        <ele>399</ele>
        <time>2016-09-12T09:15:12Z</time>
      </trkpt>
      <trkpt lat="45.87558" lon="4.57878">
        <ele>399</ele>
        <time>2016-09-12T09:15:13Z</time>
      </trkpt>
      <trkpt lat="45.87563" lon="4.57868">
        <ele>400</ele>
        <time>2016-09-12T09:15:15Z</time>
      </trkpt>
      <trkpt lat="45.87565" lon="4.57863">
        <ele>400</ele>
        <time>2016-09-12T09:15:16Z</time>
      </trkpt>
      <trkpt lat="45.8757" lon="4.57855">
        <ele>400</ele>
        <time>2016-09-12T09:15:18Z</time>
      </trkpt>
      <trkpt lat="45.87572" lon="4.57849">
        <ele>400</ele>
        <time>2016-09-12T09:15:19Z</time>
      </trkpt>
      <trkpt lat="45.87574" lon="4.57843">
        <ele>400</ele>
        <time>2016-09-12T09:15:20Z</time>
      </trkpt>
      <trkpt lat="45.87576" lon="4.57838">
        <ele>401</ele>
        <time>2016-09-12T09:15:21Z</time>
      </trkpt>
      <trkpt lat="45.87579" lon="4.57832">
        <ele>401</ele>
        <time>2016-09-12T09:15:22Z</time>
      </trkpt>
      <trkpt lat="45.87581" lon="4.57827">
        <ele>401</ele>
        <time>2016-09-12T09:15:23Z</time>
      </trkpt>
      <trkpt lat="45.87583" lon="4.57821">
        <ele>402</ele>
        <time>2016-09-12T09:15:24Z</time>
      </trkpt>
      <trkpt lat="45.87585" lon="4.57815">
        <ele>398</ele>
        <time>2016-09-12T09:15:25Z</time>
      </trkpt>
      <trkpt lat="45.87588" lon="4.57803">
        <ele>397</ele>
        <time>2016-09-12T09:15:27Z</time>
      </trkpt>
      <trkpt lat="45.87589" lon="4.57798">
        <ele>397</ele>
        <time>2016-09-12T09:15:28Z</time>
      </trkpt>
      <trkpt lat="45.8759" lon="4.57786">
        <ele>398</ele>
        <time>2016-09-12T09:15:30Z</time>
      </trkpt>
      <trkpt lat="45.87591" lon="4.57781">
        <ele>398</ele>
        <time>2016-09-12T09:15:31Z</time>
      </trkpt>
      <trkpt lat="45.87592" lon="4.57774">
        <ele>399</ele>
        <time>2016-09-12T09:15:32Z</time>
      </trkpt>
      <trkpt lat="45.87593" lon="4.57767">
        <ele>399</ele>
        <time>2016-09-12T09:15:33Z</time>
      </trkpt>
      <trkpt lat="45.87594" lon="4.5776">
        <ele>400</ele>
        <time>2016-09-12T09:15:34Z</time>
      </trkpt>
      <trkpt lat="45.87595" lon="4.57753">
        <ele>401</ele>
        <time>2016-09-12T09:15:35Z</time>
      </trkpt>
      <trkpt lat="45.87596" lon="4.57745">
        <ele>401</ele>
        <time>2016-09-12T09:15:36Z</time>
      </trkpt>
      <trkpt lat="45.87597" lon="4.57736">
        <ele>401</ele>
        <time>2016-09-12T09:15:37Z</time>
      </trkpt>
      <trkpt lat="45.87598" lon="4.57728">
        <ele>400</ele>
        <time>2016-09-12T09:15:38Z</time>
      </trkpt>
      <trkpt lat="45.87599" lon="4.57719">
        <ele>399</ele>
        <time>2016-09-12T09:15:39Z</time>
      </trkpt>
      <trkpt lat="45.876" lon="4.57709">
        <ele>399</ele>
        <time>2016-09-12T09:15:40Z</time>
      </trkpt>
      <trkpt lat="45.87601" lon="4.577">
        <ele>399</ele>
        <time>2016-09-12T09:15:41Z</time>
      </trkpt>
      <trkpt lat="45.87602" lon="4.57692">
        <ele>399</ele>
        <time>2016-09-12T09:15:42Z</time>
      </trkpt>
      <trkpt lat="45.87603" lon="4.57683">
        <ele>399</ele>
        <time>2016-09-12T09:15:43Z</time>
      </trkpt>
      <trkpt lat="45.87603" lon="4.57673">
        <ele>399</ele>
        <time>2016-09-12T09:15:44Z</time>
      </trkpt>
      <trkpt lat="45.87604" lon="4.57664">
        <ele>399</ele>
        <time>2016-09-12T09:15:45Z</time>
      </trkpt>
      <trkpt lat="45.87604" lon="4.57654">
        <ele>398</ele>
        <time>2016-09-12T09:15:46Z</time>
      </trkpt>
      <trkpt lat="45.87604" lon="4.57644">
        <ele>398</ele>
        <time>2016-09-12T09:15:47Z</time>
      </trkpt>
      <trkpt lat="45.87604" lon="4.57634">
        <ele>397</ele>
        <time>2016-09-12T09:15:48Z</time>
      </trkpt>
      <trkpt lat="45.87604" lon="4.57624">
        <ele>397</ele>
        <time>2016-09-12T09:15:49Z</time>
      </trkpt>
      <trkpt lat="45.87604" lon="4.57614">
        <ele>397</ele>
        <time>2016-09-12T09:15:50Z</time>
      </trkpt>
      <trkpt lat="45.87604" lon="4.57604">
        <ele>397</ele>
        <time>2016-09-12T09:15:51Z</time>
      </trkpt>
      <trkpt lat="45.87604" lon="4.57594">
        <ele>397</ele>
        <time>2016-09-12T09:15:52Z</time>
      </trkpt>
      <trkpt lat="45.87603" lon="4.57584">
        <ele>397</ele>
        <time>2016-09-12T09:15:53Z</time>
      </trkpt>
      <trkpt lat="45.87602" lon="4.57574">
        <ele>395</ele>
        <time>2016-09-12T09:15:54Z</time>
      </trkpt>
      <trkpt lat="45.87601" lon="4.57564">
        <ele>395</ele>
        <time>2016-09-12T09:15:55Z</time>
      </trkpt>
      <trkpt lat="45.87601" lon="4.57553">
        <ele>395</ele>
        <time>2016-09-12T09:15:56Z</time>
      </trkpt>
      <trkpt lat="45.876" lon="4.57543">
        <ele>394</ele>
        <time>2016-09-12T09:15:57Z</time>
      </trkpt>
      <trkpt lat="45.87599" lon="4.57534">
        <ele>394</ele>
        <time>2016-09-12T09:15:58Z</time>
      </trkpt>
      <trkpt lat="45.87598" lon="4.57523">
        <ele>394</ele>
        <time>2016-09-12T09:15:59Z</time>
      </trkpt>
      <trkpt lat="45.87598" lon="4.57514">
        <ele>395</ele>
        <time>2016-09-12T09:16:00Z</time>
      </trkpt>
      <trkpt lat="45.87597" lon="4.57504">
        <ele>395</ele>
        <time>2016-09-12T09:16:01Z</time>
      </trkpt>
      <trkpt lat="45.87597" lon="4.57493">
        <ele>394</ele>
        <time>2016-09-12T09:16:02Z</time>
      </trkpt>
      <trkpt lat="45.87596" lon="4.57483">
        <ele>394</ele>
        <time>2016-09-12T09:16:03Z</time>
      </trkpt>
      <trkpt lat="45.87596" lon="4.57474">
        <ele>394</ele>
        <time>2016-09-12T09:16:04Z</time>
      </trkpt>
      <trkpt lat="45.87595" lon="4.57464">
        <ele>393</ele>
        <time>2016-09-12T09:16:05Z</time>
      </trkpt>
      <trkpt lat="45.87594" lon="4.57455">
        <ele>393</ele>
        <time>2016-09-12T09:16:06Z</time>
      </trkpt>
      <trkpt lat="45.87594" lon="4.57446">
        <ele>394</ele>
        <time>2016-09-12T09:16:07Z</time>
      </trkpt>
      <trkpt lat="45.87593" lon="4.57438">
        <ele>394</ele>
        <time>2016-09-12T09:16:08Z</time>
      </trkpt>
      <trkpt lat="45.87593" lon="4.57429">
        <ele>394</ele>
        <time>2016-09-12T09:16:09Z</time>
      </trkpt>
      <trkpt lat="45.87593" lon="4.57421">
        <ele>395</ele>
        <time>2016-09-12T09:16:10Z</time>
      </trkpt>
      <trkpt lat="45.87591" lon="4.57414">
        <ele>396</ele>
        <time>2016-09-12T09:16:11Z</time>
      </trkpt>
      <trkpt lat="45.87591" lon="4.57407">
        <ele>396</ele>
        <time>2016-09-12T09:16:12Z</time>
      </trkpt>
      <trkpt lat="45.8759" lon="4.574">
        <ele>396</ele>
        <time>2016-09-12T09:16:13Z</time>
      </trkpt>
      <trkpt lat="45.8759" lon="4.57393">
        <ele>396</ele>
        <time>2016-09-12T09:16:14Z</time>
      </trkpt>
      <trkpt lat="45.8759" lon="4.57386">
        <ele>396</ele>
        <time>2016-09-12T09:16:15Z</time>
      </trkpt>
      <trkpt lat="45.87589" lon="4.57374">
        <ele>396</ele>
        <time>2016-09-12T09:16:17Z</time>
      </trkpt>
      <trkpt lat="45.87588" lon="4.57368">
        <ele>396</ele>
        <time>2016-09-12T09:16:18Z</time>
      </trkpt>
      <trkpt lat="45.87588" lon="4.57361">
        <ele>397</ele>
        <time>2016-09-12T09:16:19Z</time>
      </trkpt>
      <trkpt lat="45.87588" lon="4.57355">
        <ele>397</ele>
        <time>2016-09-12T09:16:20Z</time>
      </trkpt>
      <trkpt lat="45.87587" lon="4.57348">
        <ele>398</ele>
        <time>2016-09-12T09:16:21Z</time>
      </trkpt>
      <trkpt lat="45.87587" lon="4.57341">
        <ele>399</ele>
        <time>2016-09-12T09:16:22Z</time>
      </trkpt>
      <trkpt lat="45.87587" lon="4.57335">
        <ele>399</ele>
        <time>2016-09-12T09:16:23Z</time>
      </trkpt>
      <trkpt lat="45.87587" lon="4.57328">
        <ele>400</ele>
        <time>2016-09-12T09:16:24Z</time>
      </trkpt>
      <trkpt lat="45.87587" lon="4.57321">
        <ele>400</ele>
        <time>2016-09-12T09:16:25Z</time>
      </trkpt>
      <trkpt lat="45.87587" lon="4.57314">
        <ele>401</ele>
        <time>2016-09-12T09:16:26Z</time>
      </trkpt>
      <trkpt lat="45.87587" lon="4.57308">
        <ele>401</ele>
        <time>2016-09-12T09:16:27Z</time>
      </trkpt>
      <trkpt lat="45.87586" lon="4.57301">
        <ele>401</ele>
        <time>2016-09-12T09:16:28Z</time>
      </trkpt>
      <trkpt lat="45.87585" lon="4.57289">
        <ele>402</ele>
        <time>2016-09-12T09:16:30Z</time>
      </trkpt>
      <trkpt lat="45.87585" lon="4.57283">
        <ele>402</ele>
        <time>2016-09-12T09:16:31Z</time>
      </trkpt>
      <trkpt lat="45.87584" lon="4.57272">
        <ele>403</ele>
        <time>2016-09-12T09:16:33Z</time>
      </trkpt>
      <trkpt lat="45.87583" lon="4.57266">
        <ele>404</ele>
        <time>2016-09-12T09:16:34Z</time>
      </trkpt>
      <trkpt lat="45.87581" lon="4.57255">
        <ele>405</ele>
        <time>2016-09-12T09:16:36Z</time>
      </trkpt>
      <trkpt lat="45.8758" lon="4.57249">
        <ele>406</ele>
        <time>2016-09-12T09:16:37Z</time>
      </trkpt>
      <trkpt lat="45.87579" lon="4.57237">
        <ele>406</ele>
        <time>2016-09-12T09:16:39Z</time>
      </trkpt>
      <trkpt lat="45.87578" lon="4.57232">
        <ele>406</ele>
        <time>2016-09-12T09:16:40Z</time>
      </trkpt>
      <trkpt lat="45.87576" lon="4.57219">
        <ele>406</ele>
        <time>2016-09-12T09:16:42Z</time>
      </trkpt>
      <trkpt lat="45.87575" lon="4.57213">
        <ele>406</ele>
        <time>2016-09-12T09:16:43Z</time>
      </trkpt>
      <trkpt lat="45.87573" lon="4.57201">
        <ele>406</ele>
        <time>2016-09-12T09:16:45Z</time>
      </trkpt>
      <trkpt lat="45.87572" lon="4.57195">
        <ele>407</ele>
        <time>2016-09-12T09:16:46Z</time>
      </trkpt>
      <trkpt lat="45.87569" lon="4.57183">
        <ele>407</ele>
        <time>2016-09-12T09:16:48Z</time>
      </trkpt>
      <trkpt lat="45.87568" lon="4.57177">
        <ele>408</ele>
        <time>2016-09-12T09:16:49Z</time>
      </trkpt>
      <trkpt lat="45.87566" lon="4.57166">
        <ele>410</ele>
        <time>2016-09-12T09:16:51Z</time>
      </trkpt>
      <trkpt lat="45.87565" lon="4.57161">
        <ele>410</ele>
        <time>2016-09-12T09:16:52Z</time>
      </trkpt>
      <trkpt lat="45.87562" lon="4.5715">
        <ele>410</ele>
        <time>2016-09-12T09:16:54Z</time>
      </trkpt>
      <trkpt lat="45.87561" lon="4.57145">
        <ele>410</ele>
        <time>2016-09-12T09:16:55Z</time>
      </trkpt>
      <trkpt lat="45.87557" lon="4.57135">
        <ele>410</ele>
        <time>2016-09-12T09:16:57Z</time>
      </trkpt>
      <trkpt lat="45.87555" lon="4.57131">
        <ele>410</ele>
        <time>2016-09-12T09:16:58Z</time>
      </trkpt>
      <trkpt lat="45.87549" lon="4.57123">
        <ele>410</ele>
        <time>2016-09-12T09:17:00Z</time>
      </trkpt>
      <trkpt lat="45.87546" lon="4.57119">
        <ele>410</ele>
        <time>2016-09-12T09:17:01Z</time>
      </trkpt>
      <trkpt lat="45.87541" lon="4.5711">
        <ele>410</ele>
        <time>2016-09-12T09:17:03Z</time>
      </trkpt>
      <trkpt lat="45.87538" lon="4.57106">
        <ele>409</ele>
        <time>2016-09-12T09:17:04Z</time>
      </trkpt>
      <trkpt lat="45.87532" lon="4.57098">
        <ele>409</ele>
        <time>2016-09-12T09:17:06Z</time>
      </trkpt>
      <trkpt lat="45.87529" lon="4.57093">
        <ele>409</ele>
        <time>2016-09-12T09:17:07Z</time>
      </trkpt>
      <trkpt lat="45.87523" lon="4.57083">
        <ele>410</ele>
        <time>2016-09-12T09:17:09Z</time>
      </trkpt>
      <trkpt lat="45.87521" lon="4.57078">
        <ele>410</ele>
        <time>2016-09-12T09:17:10Z</time>
      </trkpt>
      <trkpt lat="45.87515" lon="4.57068">
        <ele>410</ele>
        <time>2016-09-12T09:17:12Z</time>
      </trkpt>
      <trkpt lat="45.87513" lon="4.57062">
        <ele>410</ele>
        <time>2016-09-12T09:17:13Z</time>
      </trkpt>
      <trkpt lat="45.87508" lon="4.57053">
        <ele>410</ele>
        <time>2016-09-12T09:17:15Z</time>
      </trkpt>
      <trkpt lat="45.87507" lon="4.57048">
        <ele>410</ele>
        <time>2016-09-12T09:17:16Z</time>
      </trkpt>
      <trkpt lat="45.87505" lon="4.57038">
        <ele>410</ele>
        <time>2016-09-12T09:17:18Z</time>
      </trkpt>
      <trkpt lat="45.87505" lon="4.57033">
        <ele>410</ele>
        <time>2016-09-12T09:17:19Z</time>
      </trkpt>
      <trkpt lat="45.87504" lon="4.57022">
        <ele>410</ele>
        <time>2016-09-12T09:17:21Z</time>
      </trkpt>
      <trkpt lat="45.87504" lon="4.57016">
        <ele>409</ele>
        <time>2016-09-12T09:17:22Z</time>
      </trkpt>
      <trkpt lat="45.87506" lon="4.57005">
        <ele>408</ele>
        <time>2016-09-12T09:17:24Z</time>
      </trkpt>
      <trkpt lat="45.87507" lon="4.56999">
        <ele>408</ele>
        <time>2016-09-12T09:17:25Z</time>
      </trkpt>
      <trkpt lat="45.87509" lon="4.56993">
        <ele>409</ele>
        <time>2016-09-12T09:17:26Z</time>
      </trkpt>
      <trkpt lat="45.8751" lon="4.56987">
        <ele>409</ele>
        <time>2016-09-12T09:17:27Z</time>
      </trkpt>
      <trkpt lat="45.87512" lon="4.5698">
        <ele>409</ele>
        <time>2016-09-12T09:17:28Z</time>
      </trkpt>
      <trkpt lat="45.87514" lon="4.56974">
        <ele>410</ele>
        <time>2016-09-12T09:17:29Z</time>
      </trkpt>
      <trkpt lat="45.87517" lon="4.56967">
        <ele>410</ele>
        <time>2016-09-12T09:17:30Z</time>
      </trkpt>
      <trkpt lat="45.8752" lon="4.5696">
        <ele>410</ele>
        <time>2016-09-12T09:17:31Z</time>
      </trkpt>
      <trkpt lat="45.87523" lon="4.56953">
        <ele>410</ele>
        <time>2016-09-12T09:17:32Z</time>
      </trkpt>
      <trkpt lat="45.87526" lon="4.56945">
        <ele>410</ele>
        <time>2016-09-12T09:17:33Z</time>
      </trkpt>
      <trkpt lat="45.8753" lon="4.56937">
        <ele>410</ele>
        <time>2016-09-12T09:17:34Z</time>
      </trkpt>
      <trkpt lat="45.87533" lon="4.56929">
        <ele>410</ele>
        <time>2016-09-12T09:17:35Z</time>
      </trkpt>
      <trkpt lat="45.87536" lon="4.56921">
        <ele>410</ele>
        <time>2016-09-12T09:17:36Z</time>
      </trkpt>
      <trkpt lat="45.8754" lon="4.56912">
        <ele>406</ele>
        <time>2016-09-12T09:17:37Z</time>
      </trkpt>
      <trkpt lat="45.87544" lon="4.56902">
        <ele>406</ele>
        <time>2016-09-12T09:17:38Z</time>
      </trkpt>
      <trkpt lat="45.87547" lon="4.56892">
        <ele>406</ele>
        <time>2016-09-12T09:17:39Z</time>
      </trkpt>
      <trkpt lat="45.87552" lon="4.56882">
        <ele>405</ele>
        <time>2016-09-12T09:17:40Z</time>
      </trkpt>
      <trkpt lat="45.87556" lon="4.56872">
        <ele>405</ele>
        <time>2016-09-12T09:17:41Z</time>
      </trkpt>
      <trkpt lat="45.87561" lon="4.56862">
        <ele>405</ele>
        <time>2016-09-12T09:17:42Z</time>
      </trkpt>
      <trkpt lat="45.87566" lon="4.56852">
        <ele>404</ele>
        <time>2016-09-12T09:17:43Z</time>
      </trkpt>
      <trkpt lat="45.8757" lon="4.56841">
        <ele>404</ele>
        <time>2016-09-12T09:17:44Z</time>
      </trkpt>
      <trkpt lat="45.87575" lon="4.5683">
        <ele>402</ele>
        <time>2016-09-12T09:17:45Z</time>
      </trkpt>
      <trkpt lat="45.87579" lon="4.56819">
        <ele>401</ele>
        <time>2016-09-12T09:17:46Z</time>
      </trkpt>
      <trkpt lat="45.87584" lon="4.56808">
        <ele>402</ele>
        <time>2016-09-12T09:17:47Z</time>
      </trkpt>
      <trkpt lat="45.87589" lon="4.56796">
        <ele>401</ele>
        <time>2016-09-12T09:17:48Z</time>
      </trkpt>
      <trkpt lat="45.87594" lon="4.56785">
        <ele>400</ele>
        <time>2016-09-12T09:17:49Z</time>
      </trkpt>
      <trkpt lat="45.87598" lon="4.56774">
        <ele>399</ele>
        <time>2016-09-12T09:17:50Z</time>
      </trkpt>
      <trkpt lat="45.87603" lon="4.56763">
        <ele>399</ele>
        <time>2016-09-12T09:17:51Z</time>
      </trkpt>
      <trkpt lat="45.87608" lon="4.56752">
        <ele>399</ele>
        <time>2016-09-12T09:17:52Z</time>
      </trkpt>
      <trkpt lat="45.87613" lon="4.56741">
        <ele>396</ele>
        <time>2016-09-12T09:17:53Z</time>
      </trkpt>
      <trkpt lat="45.87617" lon="4.5673">
        <ele>396</ele>
        <time>2016-09-12T09:17:54Z</time>
      </trkpt>
      <trkpt lat="45.87621" lon="4.5672">
        <ele>396</ele>
        <time>2016-09-12T09:17:55Z</time>
      </trkpt>
      <trkpt lat="45.87625" lon="4.5671">
        <ele>396</ele>
        <time>2016-09-12T09:17:56Z</time>
      </trkpt>
      <trkpt lat="45.8763" lon="4.567">
        <ele>396</ele>
        <time>2016-09-12T09:17:57Z</time>
      </trkpt>
      <trkpt lat="45.87634" lon="4.5669">
        <ele>396</ele>
        <time>2016-09-12T09:17:58Z</time>
      </trkpt>
      <trkpt lat="45.87638" lon="4.5668">
        <ele>396</ele>
        <time>2016-09-12T09:17:59Z</time>
      </trkpt>
      <trkpt lat="45.87641" lon="4.56671">
        <ele>396</ele>
        <time>2016-09-12T09:18:00Z</time>
      </trkpt>
      <trkpt lat="45.87645" lon="4.56662">
        <ele>397</ele>
        <time>2016-09-12T09:18:01Z</time>
      </trkpt>
      <trkpt lat="45.87649" lon="4.56653">
        <ele>397</ele>
        <time>2016-09-12T09:18:02Z</time>
      </trkpt>
      <trkpt lat="45.87652" lon="4.56645">
        <ele>397</ele>
        <time>2016-09-12T09:18:03Z</time>
      </trkpt>
      <trkpt lat="45.87656" lon="4.56637">
        <ele>397</ele>
        <time>2016-09-12T09:18:04Z</time>
      </trkpt>
      <trkpt lat="45.87659" lon="4.56629">
        <ele>398</ele>
        <time>2016-09-12T09:18:05Z</time>
      </trkpt>
      <trkpt lat="45.87661" lon="4.56622">
        <ele>398</ele>
        <time>2016-09-12T09:18:06Z</time>
      </trkpt>
      <trkpt lat="45.87664" lon="4.56614">
        <ele>398</ele>
        <time>2016-09-12T09:18:07Z</time>
      </trkpt>
      <trkpt lat="45.87667" lon="4.56607">
        <ele>398</ele>
        <time>2016-09-12T09:18:08Z</time>
      </trkpt>
      <trkpt lat="45.8767" lon="4.566">
        <ele>399</ele>
        <time>2016-09-12T09:18:09Z</time>
      </trkpt>
      <trkpt lat="45.87672" lon="4.56593">
        <ele>399</ele>
        <time>2016-09-12T09:18:10Z</time>
      </trkpt>
      <trkpt lat="45.87674" lon="4.56587">
        <ele>400</ele>
        <time>2016-09-12T09:18:11Z</time>
      </trkpt>
      <trkpt lat="45.87677" lon="4.5658">
        <ele>400</ele>
        <time>2016-09-12T09:18:12Z</time>
      </trkpt>
      <trkpt lat="45.87679" lon="4.56573">
        <ele>400</ele>
        <time>2016-09-12T09:18:13Z</time>
      </trkpt>
      <trkpt lat="45.87681" lon="4.56567">
        <ele>400</ele>
        <time>2016-09-12T09:18:14Z</time>
      </trkpt>
      <trkpt lat="45.87683" lon="4.5656">
        <ele>400</ele>
        <time>2016-09-12T09:18:15Z</time>
      </trkpt>
      <trkpt lat="45.87684" lon="4.56553">
        <ele>400</ele>
        <time>2016-09-12T09:18:16Z</time>
      </trkpt>
      <trkpt lat="45.87686" lon="4.56547">
        <ele>400</ele>
        <time>2016-09-12T09:18:17Z</time>
      </trkpt>
      <trkpt lat="45.87687" lon="4.5654">
        <ele>399</ele>
        <time>2016-09-12T09:18:18Z</time>
      </trkpt>
      <trkpt lat="45.87688" lon="4.56533">
        <ele>399</ele>
        <time>2016-09-12T09:18:19Z</time>
      </trkpt>
      <trkpt lat="45.87689" lon="4.56525">
        <ele>399</ele>
        <time>2016-09-12T09:18:20Z</time>
      </trkpt>
      <trkpt lat="45.8769" lon="4.56516">
        <ele>399</ele>
        <time>2016-09-12T09:18:21Z</time>
      </trkpt>
      <trkpt lat="45.8769" lon="4.56508">
        <ele>399</ele>
        <time>2016-09-12T09:18:22Z</time>
      </trkpt>
      <trkpt lat="45.8769" lon="4.56498">
        <ele>397</ele>
        <time>2016-09-12T09:18:23Z</time>
      </trkpt>
      <trkpt lat="45.87691" lon="4.56488">
        <ele>396</ele>
        <time>2016-09-12T09:18:24Z</time>
      </trkpt>
      <trkpt lat="45.87692" lon="4.56479">
        <ele>396</ele>
        <time>2016-09-12T09:18:25Z</time>
      </trkpt>
      <trkpt lat="45.87695" lon="4.56468">
        <ele>396</ele>
        <time>2016-09-12T09:18:26Z</time>
      </trkpt>
      <trkpt lat="45.87698" lon="4.56458">
        <ele>395</ele>
        <time>2016-09-12T09:18:27Z</time>
      </trkpt>
      <trkpt lat="45.87703" lon="4.56449">
        <ele>395</ele>
        <time>2016-09-12T09:18:28Z</time>
      </trkpt>
      <trkpt lat="45.8771" lon="4.56441">
        <ele>395</ele>
        <time>2016-09-12T09:18:29Z</time>
      </trkpt>
      <trkpt lat="45.87717" lon="4.56435">
        <ele>394</ele>
        <time>2016-09-12T09:18:30Z</time>
      </trkpt>
      <trkpt lat="45.87725" lon="4.5643">
        <ele>394</ele>
        <time>2016-09-12T09:18:31Z</time>
      </trkpt>
      <trkpt lat="45.87734" lon="4.56426">
        <ele>394</ele>
        <time>2016-09-12T09:18:32Z</time>
      </trkpt>
      <trkpt lat="45.87743" lon="4.5642">
        <ele>393</ele>
        <time>2016-09-12T09:18:33Z</time>
      </trkpt>
      <trkpt lat="45.87751" lon="4.56416">
        <ele>392</ele>
        <time>2016-09-12T09:18:34Z</time>
      </trkpt>
      <trkpt lat="45.8776" lon="4.56411">
        <ele>391</ele>
        <time>2016-09-12T09:18:35Z</time>
      </trkpt>
      <trkpt lat="45.87769" lon="4.56406">
        <ele>390</ele>
        <time>2016-09-12T09:18:36Z</time>
      </trkpt>
      <trkpt lat="45.87778" lon="4.564">
        <ele>389</ele>
        <time>2016-09-12T09:18:37Z</time>
      </trkpt>
      <trkpt lat="45.87787" lon="4.56396">
        <ele>389</ele>
        <time>2016-09-12T09:18:38Z</time>
      </trkpt>
      <trkpt lat="45.87796" lon="4.56391">
        <ele>389</ele>
        <time>2016-09-12T09:18:39Z</time>
      </trkpt>
      <trkpt lat="45.87805" lon="4.56386">
        <ele>389</ele>
        <time>2016-09-12T09:18:40Z</time>
      </trkpt>
      <trkpt lat="45.87814" lon="4.56381">
        <ele>389</ele>
        <time>2016-09-12T09:18:41Z</time>
      </trkpt>
      <trkpt lat="45.87823" lon="4.56377">
        <ele>389</ele>
        <time>2016-09-12T09:18:42Z</time>
      </trkpt>
      <trkpt lat="45.87832" lon="4.56373">
        <ele>389</ele>
        <time>2016-09-12T09:18:43Z</time>
      </trkpt>
      <trkpt lat="45.87842" lon="4.5637">
        <ele>388</ele>
        <time>2016-09-12T09:18:44Z</time>
      </trkpt>
      <trkpt lat="45.87852" lon="4.56367">
        <ele>387</ele>
        <time>2016-09-12T09:18:45Z</time>
      </trkpt>
      <trkpt lat="45.87861" lon="4.56365">
        <ele>387</ele>
        <time>2016-09-12T09:18:46Z</time>
      </trkpt>
      <trkpt lat="45.87871" lon="4.56363">
        <ele>387</ele>
        <time>2016-09-12T09:18:47Z</time>
      </trkpt>
      <trkpt lat="45.87881" lon="4.5636">
        <ele>387</ele>
        <time>2016-09-12T09:18:48Z</time>
      </trkpt>
      <trkpt lat="45.8789" lon="4.56358">
        <ele>386</ele>
        <time>2016-09-12T09:18:49Z</time>
      </trkpt>
      <trkpt lat="45.87899" lon="4.56356">
        <ele>386</ele>
        <time>2016-09-12T09:18:50Z</time>
      </trkpt>
      <trkpt lat="45.87908" lon="4.56354">
        <ele>386</ele>
        <time>2016-09-12T09:18:51Z</time>
      </trkpt>
      <trkpt lat="45.87917" lon="4.56352">
        <ele>385</ele>
        <time>2016-09-12T09:18:52Z</time>
      </trkpt>
      <trkpt lat="45.87926" lon="4.5635">
        <ele>383</ele>
        <time>2016-09-12T09:18:53Z</time>
      </trkpt>
      <trkpt lat="45.87936" lon="4.56348">
        <ele>382</ele>
        <time>2016-09-12T09:18:54Z</time>
      </trkpt>
      <trkpt lat="45.87945" lon="4.56346">
        <ele>382</ele>
        <time>2016-09-12T09:18:55Z</time>
      </trkpt>
      <trkpt lat="45.87954" lon="4.56343">
        <ele>381</ele>
        <time>2016-09-12T09:18:56Z</time>
      </trkpt>
      <trkpt lat="45.87963" lon="4.56341">
        <ele>381</ele>
        <time>2016-09-12T09:18:57Z</time>
      </trkpt>
      <trkpt lat="45.87972" lon="4.56338">
        <ele>381</ele>
        <time>2016-09-12T09:18:58Z</time>
      </trkpt>
      <trkpt lat="45.87981" lon="4.56335">
        <ele>380</ele>
        <time>2016-09-12T09:18:59Z</time>
      </trkpt>
      <trkpt lat="45.8799" lon="4.56332">
        <ele>381</ele>
        <time>2016-09-12T09:19:00Z</time>
      </trkpt>
      <trkpt lat="45.87998" lon="4.56327">
        <ele>380</ele>
        <time>2016-09-12T09:19:01Z</time>
      </trkpt>
      <trkpt lat="45.88007" lon="4.56322">
        <ele>379</ele>
        <time>2016-09-12T09:19:02Z</time>
      </trkpt>
      <trkpt lat="45.88014" lon="4.56315">
        <ele>379</ele>
        <time>2016-09-12T09:19:03Z</time>
      </trkpt>
      <trkpt lat="45.88022" lon="4.56309">
        <ele>379</ele>
        <time>2016-09-12T09:19:04Z</time>
      </trkpt>
      <trkpt lat="45.88029" lon="4.56302">
        <ele>379</ele>
        <time>2016-09-12T09:19:05Z</time>
      </trkpt>
      <trkpt lat="45.88036" lon="4.56295">
        <ele>379</ele>
        <time>2016-09-12T09:19:06Z</time>
      </trkpt>
      <trkpt lat="45.88043" lon="4.56288">
        <ele>378</ele>
        <time>2016-09-12T09:19:07Z</time>
      </trkpt>
      <trkpt lat="45.8805" lon="4.56281">
        <ele>378</ele>
        <time>2016-09-12T09:19:08Z</time>
      </trkpt>
      <trkpt lat="45.88057" lon="4.56274">
        <ele>378</ele>
        <time>2016-09-12T09:19:09Z</time>
      </trkpt>
      <trkpt lat="45.88064" lon="4.56266">
        <ele>378</ele>
        <time>2016-09-12T09:19:10Z</time>
      </trkpt>
      <trkpt lat="45.88072" lon="4.56258">
        <ele>378</ele>
        <time>2016-09-12T09:19:11Z</time>
      </trkpt>
      <trkpt lat="45.88079" lon="4.5625">
        <ele>377</ele>
        <time>2016-09-12T09:19:12Z</time>
      </trkpt>
      <trkpt lat="45.88086" lon="4.56242">
        <ele>376</ele>
        <time>2016-09-12T09:19:13Z</time>
      </trkpt>
      <trkpt lat="45.88093" lon="4.56234">
        <ele>376</ele>
        <time>2016-09-12T09:19:14Z</time>
      </trkpt>
      <trkpt lat="45.88101" lon="4.56227">
        <ele>375</ele>
        <time>2016-09-12T09:19:15Z</time>
      </trkpt>
      <trkpt lat="45.88108" lon="4.56219">
        <ele>375</ele>
        <time>2016-09-12T09:19:16Z</time>
      </trkpt>
      <trkpt lat="45.88116" lon="4.56211">
        <ele>375</ele>
        <time>2016-09-12T09:19:17Z</time>
      </trkpt>
      <trkpt lat="45.88124" lon="4.56202">
        <ele>375</ele>
        <time>2016-09-12T09:19:18Z</time>
      </trkpt>
      <trkpt lat="45.88132" lon="4.56193">
        <ele>374</ele>
        <time>2016-09-12T09:19:19Z</time>
      </trkpt>
      <trkpt lat="45.88139" lon="4.56183">
        <ele>374</ele>
        <time>2016-09-12T09:19:20Z</time>
      </trkpt>
      <trkpt lat="45.88145" lon="4.56171">
        <ele>374</ele>
        <time>2016-09-12T09:19:21Z</time>
      </trkpt>
      <trkpt lat="45.88147" lon="4.56157">
        <ele>371</ele>
        <time>2016-09-12T09:19:22Z</time>
      </trkpt>
      <trkpt lat="45.88148" lon="4.56142">
        <ele>370</ele>
        <time>2016-09-12T09:19:23Z</time>
      </trkpt>
      <trkpt lat="45.88148" lon="4.56127">
        <ele>369</ele>
        <time>2016-09-12T09:19:24Z</time>
      </trkpt>
      <trkpt lat="45.88143" lon="4.56114">
        <ele>368</ele>
        <time>2016-09-12T09:19:25Z</time>
      </trkpt>
      <trkpt lat="45.88137" lon="4.56101">
        <ele>368</ele>
        <time>2016-09-12T09:19:26Z</time>
      </trkpt>
      <trkpt lat="45.8813" lon="4.56089">
        <ele>368</ele>
        <time>2016-09-12T09:19:27Z</time>
      </trkpt>
      <trkpt lat="45.88123" lon="4.56077">
        <ele>363</ele>
        <time>2016-09-12T09:19:28Z</time>
      </trkpt>
      <trkpt lat="45.88115" lon="4.56065">
        <ele>363</ele>
        <time>2016-09-12T09:19:29Z</time>
      </trkpt>
      <trkpt lat="45.88107" lon="4.56054">
        <ele>363</ele>
        <time>2016-09-12T09:19:30Z</time>
      </trkpt>
      <trkpt lat="45.88098" lon="4.56044">
        <ele>363</ele>
        <time>2016-09-12T09:19:31Z</time>
      </trkpt>
      <trkpt lat="45.88088" lon="4.56037">
        <ele>362</ele>
        <time>2016-09-12T09:19:32Z</time>
      </trkpt>
      <trkpt lat="45.88077" lon="4.5603">
        <ele>365</ele>
        <time>2016-09-12T09:19:33Z</time>
      </trkpt>
      <trkpt lat="45.88066" lon="4.56024">
        <ele>365</ele>
        <time>2016-09-12T09:19:34Z</time>
      </trkpt>
      <trkpt lat="45.88056" lon="4.56019">
        <ele>365</ele>
        <time>2016-09-12T09:19:35Z</time>
      </trkpt>
      <trkpt lat="45.88046" lon="4.56013">
        <ele>365</ele>
        <time>2016-09-12T09:19:36Z</time>
      </trkpt>
      <trkpt lat="45.88037" lon="4.56006">
        <ele>366</ele>
        <time>2016-09-12T09:19:37Z</time>
      </trkpt>
      <trkpt lat="45.88028" lon="4.56002">
        <ele>366</ele>
        <time>2016-09-12T09:19:38Z</time>
      </trkpt>
      <trkpt lat="45.8802" lon="4.55998">
        <ele>363</ele>
        <time>2016-09-12T09:19:39Z</time>
      </trkpt>
      <trkpt lat="45.88012" lon="4.55997">
        <ele>364</ele>
        <time>2016-09-12T09:19:40Z</time>
      </trkpt>
      <trkpt lat="45.88005" lon="4.55996">
        <ele>365</ele>
        <time>2016-09-12T09:19:41Z</time>
      </trkpt>
      <trkpt lat="45.87999" lon="4.55997">
        <ele>366</ele>
        <time>2016-09-12T09:19:42Z</time>
      </trkpt>
      <trkpt lat="45.87992" lon="4.55997">
        <ele>365</ele>
        <time>2016-09-12T09:19:43Z</time>
      </trkpt>
      <trkpt lat="45.87987" lon="4.55996">
        <ele>365</ele>
        <time>2016-09-12T09:19:44Z</time>
      </trkpt>
      <trkpt lat="45.87979" lon="4.55991">
        <ele>365</ele>
        <time>2016-09-12T09:19:46Z</time>
      </trkpt>
      <trkpt lat="45.87976" lon="4.55988">
        <ele>365</ele>
        <time>2016-09-12T09:19:47Z</time>
      </trkpt>
      <trkpt lat="45.87974" lon="4.55978">
        <ele>365</ele>
        <time>2016-09-12T09:19:49Z</time>
      </trkpt>
      <trkpt lat="45.87975" lon="4.55974">
        <ele>365</ele>
        <time>2016-09-12T09:19:50Z</time>
      </trkpt>
      <trkpt lat="45.87979" lon="4.55972">
        <ele>364</ele>
        <time>2016-09-12T09:19:52Z</time>
      </trkpt>
      <trkpt lat="45.87985" lon="4.5597">
        <ele>364</ele>
        <time>2016-09-12T09:19:53Z</time>
      </trkpt>
      <trkpt lat="45.87992" lon="4.5597">
        <ele>364</ele>
        <time>2016-09-12T09:19:54Z</time>
      </trkpt>
      <trkpt lat="45.87997" lon="4.55969">
        <ele>364</ele>
        <time>2016-09-12T09:19:55Z</time>
      </trkpt>
      <trkpt lat="45.88002" lon="4.55969">
        <ele>362</ele>
        <time>2016-09-12T09:19:56Z</time>
      </trkpt>
      <trkpt lat="45.88008" lon="4.55969">
        <ele>362</ele>
        <time>2016-09-12T09:19:57Z</time>
      </trkpt>
      <trkpt lat="45.88013" lon="4.55969">
        <ele>362</ele>
        <time>2016-09-12T09:19:58Z</time>
      </trkpt>
      <trkpt lat="45.88018" lon="4.5597">
        <ele>362</ele>
        <time>2016-09-12T09:19:59Z</time>
      </trkpt>
      <trkpt lat="45.88024" lon="4.55971">
        <ele>361</ele>
        <time>2016-09-12T09:20:00Z</time>
      </trkpt>
      <trkpt lat="45.88029" lon="4.55971">
        <ele>361</ele>
        <time>2016-09-12T09:20:01Z</time>
      </trkpt>
      <trkpt lat="45.88035" lon="4.55971">
        <ele>361</ele>
        <time>2016-09-12T09:20:02Z</time>
      </trkpt>
      <trkpt lat="45.88042" lon="4.55973">
        <ele>361</ele>
        <time>2016-09-12T09:20:03Z</time>
      </trkpt>
      <trkpt lat="45.88048" lon="4.55973">
        <ele>361</ele>
        <time>2016-09-12T09:20:04Z</time>
      </trkpt>
      <trkpt lat="45.88055" lon="4.55973">
        <ele>360</ele>
        <time>2016-09-12T09:20:05Z</time>
      </trkpt>
      <trkpt lat="45.88062" lon="4.55972">
        <ele>360</ele>
        <time>2016-09-12T09:20:06Z</time>
      </trkpt>
      <trkpt lat="45.88069" lon="4.55971">
        <ele>360</ele>
        <time>2016-09-12T09:20:07Z</time>
      </trkpt>
      <trkpt lat="45.88077" lon="4.55971">
        <ele>360</ele>
        <time>2016-09-12T09:20:08Z</time>
      </trkpt>
      <trkpt lat="45.88084" lon="4.55971">
        <ele>356</ele>
        <time>2016-09-12T09:20:09Z</time>
      </trkpt>
      <trkpt lat="45.88092" lon="4.55971">
        <ele>356</ele>
        <time>2016-09-12T09:20:10Z</time>
      </trkpt>
      <trkpt lat="45.881" lon="4.55971">
        <ele>356</ele>
        <time>2016-09-12T09:20:11Z</time>
      </trkpt>
      <trkpt lat="45.88108" lon="4.55971">
        <ele>356</ele>
        <time>2016-09-12T09:20:12Z</time>
      </trkpt>
      <trkpt lat="45.88117" lon="4.55971">
        <ele>355</ele>
        <time>2016-09-12T09:20:13Z</time>
      </trkpt>
      <trkpt lat="45.88127" lon="4.55972">
        <ele>355</ele>
        <time>2016-09-12T09:20:14Z</time>
      </trkpt>
      <trkpt lat="45.88135" lon="4.55973">
        <ele>355</ele>
        <time>2016-09-12T09:20:15Z</time>
      </trkpt>
      <trkpt lat="45.88144" lon="4.55974">
        <ele>354</ele>
        <time>2016-09-12T09:20:16Z</time>
      </trkpt>
      <trkpt lat="45.88153" lon="4.55976">
        <ele>354</ele>
        <time>2016-09-12T09:20:17Z</time>
      </trkpt>
      <trkpt lat="45.88163" lon="4.55977">
        <ele>354</ele>
        <time>2016-09-12T09:20:18Z</time>
      </trkpt>
      <trkpt lat="45.88174" lon="4.55977">
        <ele>352</ele>
        <time>2016-09-12T09:20:19Z</time>
      </trkpt>
      <trkpt lat="45.88183" lon="4.55978">
        <ele>352</ele>
        <time>2016-09-12T09:20:20Z</time>
      </trkpt>
      <trkpt lat="45.88193" lon="4.55979">
        <ele>351</ele>
        <time>2016-09-12T09:20:21Z</time>
      </trkpt>
      <trkpt lat="45.88203" lon="4.5598">
        <ele>351</ele>
        <time>2016-09-12T09:20:22Z</time>
      </trkpt>
      <trkpt lat="45.88212" lon="4.55981">
        <ele>351</ele>
        <time>2016-09-12T09:20:23Z</time>
      </trkpt>
      <trkpt lat="45.88222" lon="4.5598">
        <ele>351</ele>
        <time>2016-09-12T09:20:24Z</time>
      </trkpt>
      <trkpt lat="45.88232" lon="4.55979">
        <ele>351</ele>
        <time>2016-09-12T09:20:25Z</time>
      </trkpt>
      <trkpt lat="45.88242" lon="4.55978">
        <ele>350</ele>
        <time>2016-09-12T09:20:26Z</time>
      </trkpt>
      <trkpt lat="45.88251" lon="4.55975">
        <ele>350</ele>
        <time>2016-09-12T09:20:27Z</time>
      </trkpt>
      <trkpt lat="45.88261" lon="4.55971">
        <ele>349</ele>
        <time>2016-09-12T09:20:28Z</time>
      </trkpt>
      <trkpt lat="45.8827" lon="4.55966">
        <ele>349</ele>
        <time>2016-09-12T09:20:29Z</time>
      </trkpt>
      <trkpt lat="45.88279" lon="4.55961">
        <ele>349</ele>
        <time>2016-09-12T09:20:30Z</time>
      </trkpt>
      <trkpt lat="45.88288" lon="4.55954">
        <ele>348</ele>
        <time>2016-09-12T09:20:31Z</time>
      </trkpt>
      <trkpt lat="45.88296" lon="4.55946">
        <ele>348</ele>
        <time>2016-09-12T09:20:32Z</time>
      </trkpt>
      <trkpt lat="45.88304" lon="4.55939">
        <ele>348</ele>
        <time>2016-09-12T09:20:33Z</time>
      </trkpt>
      <trkpt lat="45.88313" lon="4.55931">
        <ele>347</ele>
        <time>2016-09-12T09:20:34Z</time>
      </trkpt>
      <trkpt lat="45.88322" lon="4.55923">
        <ele>346</ele>
        <time>2016-09-12T09:20:35Z</time>
      </trkpt>
      <trkpt lat="45.88331" lon="4.55915">
        <ele>344</ele>
        <time>2016-09-12T09:20:36Z</time>
      </trkpt>
      <trkpt lat="45.8834" lon="4.55906">
        <ele>343</ele>
        <time>2016-09-12T09:20:37Z</time>
      </trkpt>
      <trkpt lat="45.88349" lon="4.55898">
        <ele>342</ele>
        <time>2016-09-12T09:20:38Z</time>
      </trkpt>
      <trkpt lat="45.88357" lon="4.55889">
        <ele>341</ele>
        <time>2016-09-12T09:20:39Z</time>
      </trkpt>
      <trkpt lat="45.88366" lon="4.5588">
        <ele>341</ele>
        <time>2016-09-12T09:20:40Z</time>
      </trkpt>
      <trkpt lat="45.88374" lon="4.55872">
        <ele>340</ele>
        <time>2016-09-12T09:20:41Z</time>
      </trkpt>
      <trkpt lat="45.88383" lon="4.55863">
        <ele>340</ele>
        <time>2016-09-12T09:20:42Z</time>
      </trkpt>
      <trkpt lat="45.88392" lon="4.55856">
        <ele>339</ele>
        <time>2016-09-12T09:20:43Z</time>
      </trkpt>
      <trkpt lat="45.88401" lon="4.55848">
        <ele>338</ele>
        <time>2016-09-12T09:20:44Z</time>
      </trkpt>
      <trkpt lat="45.8841" lon="4.55842">
        <ele>337</ele>
        <time>2016-09-12T09:20:45Z</time>
      </trkpt>
      <trkpt lat="45.8842" lon="4.55837">
        <ele>336</ele>
        <time>2016-09-12T09:20:46Z</time>
      </trkpt>
      <trkpt lat="45.8843" lon="4.55834">
        <ele>337</ele>
        <time>2016-09-12T09:20:47Z</time>
      </trkpt>
      <trkpt lat="45.8844" lon="4.55833">
        <ele>333</ele>
        <time>2016-09-12T09:20:48Z</time>
      </trkpt>
      <trkpt lat="45.8845" lon="4.55832">
        <ele>332</ele>
        <time>2016-09-12T09:20:49Z</time>
      </trkpt>
      <trkpt lat="45.8846" lon="4.55832">
        <ele>332</ele>
        <time>2016-09-12T09:20:50Z</time>
      </trkpt>
      <trkpt lat="45.88471" lon="4.55832">
        <ele>332</ele>
        <time>2016-09-12T09:20:51Z</time>
      </trkpt>
      <trkpt lat="45.88481" lon="4.55833">
        <ele>332</ele>
        <time>2016-09-12T09:20:52Z</time>
      </trkpt>
      <trkpt lat="45.88491" lon="4.55835">
        <ele>335</ele>
        <time>2016-09-12T09:20:53Z</time>
      </trkpt>
      <trkpt lat="45.885" lon="4.55838">
        <ele>333</ele>
        <time>2016-09-12T09:20:54Z</time>
      </trkpt>
      <trkpt lat="45.8851" lon="4.55844">
        <ele>332</ele>
        <time>2016-09-12T09:20:55Z</time>
      </trkpt>
      <trkpt lat="45.88519" lon="4.5585">
        <ele>331</ele>
        <time>2016-09-12T09:20:56Z</time>
      </trkpt>
      <trkpt lat="45.88527" lon="4.55857">
        <ele>331</ele>
        <time>2016-09-12T09:20:57Z</time>
      </trkpt>
      <trkpt lat="45.88536" lon="4.55863">
        <ele>331</ele>
        <time>2016-09-12T09:20:58Z</time>
      </trkpt>
      <trkpt lat="45.88546" lon="4.55869">
        <ele>330</ele>
        <time>2016-09-12T09:20:59Z</time>
      </trkpt>
      <trkpt lat="45.88555" lon="4.55876">
        <ele>330</ele>
        <time>2016-09-12T09:21:00Z</time>
      </trkpt>
      <trkpt lat="45.88564" lon="4.55882">
        <ele>330</ele>
        <time>2016-09-12T09:21:01Z</time>
      </trkpt>
      <trkpt lat="45.88573" lon="4.55889">
        <ele>330</ele>
        <time>2016-09-12T09:21:02Z</time>
      </trkpt>
      <trkpt lat="45.88582" lon="4.55896">
        <ele>330</ele>
        <time>2016-09-12T09:21:03Z</time>
      </trkpt>
      <trkpt lat="45.88591" lon="4.55903">
        <ele>326</ele>
        <time>2016-09-12T09:21:04Z</time>
      </trkpt>
      <trkpt lat="45.886" lon="4.5591">
        <ele>326</ele>
        <time>2016-09-12T09:21:05Z</time>
      </trkpt>
      <trkpt lat="45.88609" lon="4.55918">
        <ele>329</ele>
        <time>2016-09-12T09:21:06Z</time>
      </trkpt>
      <trkpt lat="45.88617" lon="4.55926">
        <ele>328</ele>
        <time>2016-09-12T09:21:07Z</time>
      </trkpt>
      <trkpt lat="45.88626" lon="4.55934">
        <ele>328</ele>
        <time>2016-09-12T09:21:08Z</time>
      </trkpt>
      <trkpt lat="45.88634" lon="4.55943">
        <ele>328</ele>
        <time>2016-09-12T09:21:09Z</time>
      </trkpt>
      <trkpt lat="45.88643" lon="4.55951">
        <ele>327</ele>
        <time>2016-09-12T09:21:10Z</time>
      </trkpt>
      <trkpt lat="45.88652" lon="4.5596">
        <ele>327</ele>
        <time>2016-09-12T09:21:11Z</time>
      </trkpt>
      <trkpt lat="45.8866" lon="4.55968">
        <ele>327</ele>
        <time>2016-09-12T09:21:12Z</time>
      </trkpt>
      <trkpt lat="45.88668" lon="4.55977">
        <ele>321</ele>
        <time>2016-09-12T09:21:13Z</time>
      </trkpt>
      <trkpt lat="45.88677" lon="4.55987">
        <ele>322</ele>
        <time>2016-09-12T09:21:14Z</time>
      </trkpt>
      <trkpt lat="45.88685" lon="4.55997">
        <ele>321</ele>
        <time>2016-09-12T09:21:15Z</time>
      </trkpt>
      <trkpt lat="45.88692" lon="4.56007">
        <ele>323</ele>
        <time>2016-09-12T09:21:16Z</time>
      </trkpt>
      <trkpt lat="45.88699" lon="4.56018">
        <ele>322</ele>
        <time>2016-09-12T09:21:17Z</time>
      </trkpt>
      <trkpt lat="45.88706" lon="4.5603">
        <ele>322</ele>
        <time>2016-09-12T09:21:18Z</time>
      </trkpt>
      <trkpt lat="45.88712" lon="4.56041">
        <ele>321</ele>
        <time>2016-09-12T09:21:19Z</time>
      </trkpt>
      <trkpt lat="45.88718" lon="4.56053">
        <ele>321</ele>
        <time>2016-09-12T09:21:20Z</time>
      </trkpt>
      <trkpt lat="45.88724" lon="4.56065">
        <ele>321</ele>
        <time>2016-09-12T09:21:21Z</time>
      </trkpt>
      <trkpt lat="45.8873" lon="4.56078">
        <ele>320</ele>
        <time>2016-09-12T09:21:22Z</time>
      </trkpt>
      <trkpt lat="45.88736" lon="4.5609">
        <ele>321</ele>
        <time>2016-09-12T09:21:23Z</time>
      </trkpt>
      <trkpt lat="45.88742" lon="4.56102">
        <ele>321</ele>
        <time>2016-09-12T09:21:24Z</time>
      </trkpt>
      <trkpt lat="45.88748" lon="4.56114">
        <ele>321</ele>
        <time>2016-09-12T09:21:25Z</time>
      </trkpt>
      <trkpt lat="45.88754" lon="4.56127">
        <ele>313</ele>
        <time>2016-09-12T09:21:26Z</time>
      </trkpt>
      <trkpt lat="45.8876" lon="4.56139">
        <ele>313</ele>
        <time>2016-09-12T09:21:27Z</time>
      </trkpt>
      <trkpt lat="45.88766" lon="4.56151">
        <ele>313</ele>
        <time>2016-09-12T09:21:28Z</time>
      </trkpt>
      <trkpt lat="45.88772" lon="4.56163">
        <ele>313</ele>
        <time>2016-09-12T09:21:29Z</time>
      </trkpt>
      <trkpt lat="45.88779" lon="4.56175">
        <ele>314</ele>
        <time>2016-09-12T09:21:30Z</time>
      </trkpt>
      <trkpt lat="45.88785" lon="4.56186">
        <ele>313</ele>
        <time>2016-09-12T09:21:31Z</time>
      </trkpt>
      <trkpt lat="45.88792" lon="4.56197">
        <ele>313</ele>
        <time>2016-09-12T09:21:32Z</time>
      </trkpt>
      <trkpt lat="45.88799" lon="4.56209">
        <ele>313</ele>
        <time>2016-09-12T09:21:33Z</time>
      </trkpt>
      <trkpt lat="45.88805" lon="4.56221">
        <ele>313</ele>
        <time>2016-09-12T09:21:34Z</time>
      </trkpt>
      <trkpt lat="45.88812" lon="4.56233">
        <ele>312</ele>
        <time>2016-09-12T09:21:35Z</time>
      </trkpt>
      <trkpt lat="45.88818" lon="4.56246">
        <ele>312</ele>
        <time>2016-09-12T09:21:36Z</time>
      </trkpt>
      <trkpt lat="45.88823" lon="4.56259">
        <ele>313</ele>
        <time>2016-09-12T09:21:37Z</time>
      </trkpt>
      <trkpt lat="45.88827" lon="4.56272">
        <ele>314</ele>
        <time>2016-09-12T09:21:38Z</time>
      </trkpt>
      <trkpt lat="45.8883" lon="4.56287">
        <ele>314</ele>
        <time>2016-09-12T09:21:39Z</time>
      </trkpt>
      <trkpt lat="45.88833" lon="4.56302">
        <ele>314</ele>
        <time>2016-09-12T09:21:40Z</time>
      </trkpt>
      <trkpt lat="45.88835" lon="4.56317">
        <ele>310</ele>
        <time>2016-09-12T09:21:41Z</time>
      </trkpt>
      <trkpt lat="45.88838" lon="4.56331">
        <ele>312</ele>
        <time>2016-09-12T09:21:42Z</time>
      </trkpt>
      <trkpt lat="45.8884" lon="4.56346">
        <ele>310</ele>
        <time>2016-09-12T09:21:43Z</time>
      </trkpt>
      <trkpt lat="45.88842" lon="4.5636">
        <ele>309</ele>
        <time>2016-09-12T09:21:44Z</time>
      </trkpt>
      <trkpt lat="45.88845" lon="4.56374">
        <ele>309</ele>
        <time>2016-09-12T09:21:45Z</time>
      </trkpt>
      <trkpt lat="45.88847" lon="4.56387">
        <ele>309</ele>
        <time>2016-09-12T09:21:46Z</time>
      </trkpt>
      <trkpt lat="45.8885" lon="4.56399">
        <ele>309</ele>
        <time>2016-09-12T09:21:47Z</time>
      </trkpt>
      <trkpt lat="45.88854" lon="4.56411">
        <ele>309</ele>
        <time>2016-09-12T09:21:48Z</time>
      </trkpt>
      <trkpt lat="45.88861" lon="4.56421">
        <ele>309</ele>
        <time>2016-09-12T09:21:49Z</time>
      </trkpt>
      <trkpt lat="45.88867" lon="4.56429">
        <ele>309</ele>
        <time>2016-09-12T09:21:50Z</time>
      </trkpt>
      <trkpt lat="45.88874" lon="4.56436">
        <ele>308</ele>
        <time>2016-09-12T09:21:51Z</time>
      </trkpt>
      <trkpt lat="45.88882" lon="4.56441">
        <ele>308</ele>
        <time>2016-09-12T09:21:52Z</time>
      </trkpt>
      <trkpt lat="45.88891" lon="4.56445">
        <ele>308</ele>
        <time>2016-09-12T09:21:53Z</time>
      </trkpt>
      <trkpt lat="45.889" lon="4.56447">
        <ele>307</ele>
        <time>2016-09-12T09:21:54Z</time>
      </trkpt>
      <trkpt lat="45.88909" lon="4.56448">
        <ele>307</ele>
        <time>2016-09-12T09:21:55Z</time>
      </trkpt>
      <trkpt lat="45.88919" lon="4.56445">
        <ele>302</ele>
        <time>2016-09-12T09:21:56Z</time>
      </trkpt>
      <trkpt lat="45.88928" lon="4.5644">
        <ele>302</ele>
        <time>2016-09-12T09:21:57Z</time>
      </trkpt>
      <trkpt lat="45.88937" lon="4.56436">
        <ele>301</ele>
        <time>2016-09-12T09:21:58Z</time>
      </trkpt>
      <trkpt lat="45.88945" lon="4.56432">
        <ele>301</ele>
        <time>2016-09-12T09:21:59Z</time>
      </trkpt>
      <trkpt lat="45.88954" lon="4.5643">
        <ele>300</ele>
        <time>2016-09-12T09:22:00Z</time>
      </trkpt>
      <trkpt lat="45.88963" lon="4.56429">
        <ele>300</ele>
        <time>2016-09-12T09:22:01Z</time>
      </trkpt>
      <trkpt lat="45.88973" lon="4.56433">
        <ele>299</ele>
        <time>2016-09-12T09:22:02Z</time>
      </trkpt>
      <trkpt lat="45.88982" lon="4.56439">
        <ele>299</ele>
        <time>2016-09-12T09:22:03Z</time>
      </trkpt>
      <trkpt lat="45.88994" lon="4.56448">
        <ele>298</ele>
        <time>2016-09-12T09:22:04Z</time>
      </trkpt>
      <trkpt lat="45.89004" lon="4.56457">
        <ele>295</ele>
        <time>2016-09-12T09:22:05Z</time>
      </trkpt>
      <trkpt lat="45.89011" lon="4.56468">
        <ele>295</ele>
        <time>2016-09-12T09:22:06Z</time>
      </trkpt>
      <trkpt lat="45.89018" lon="4.56478">
        <ele>295</ele>
        <time>2016-09-12T09:22:07Z</time>
      </trkpt>
      <trkpt lat="45.89025" lon="4.56489">
        <ele>294</ele>
        <time>2016-09-12T09:22:08Z</time>
      </trkpt>
      <trkpt lat="45.89033" lon="4.56499">
        <ele>294</ele>
        <time>2016-09-12T09:22:09Z</time>
      </trkpt>
      <trkpt lat="45.89041" lon="4.56508">
        <ele>293</ele>
        <time>2016-09-12T09:22:10Z</time>
      </trkpt>
      <trkpt lat="45.89049" lon="4.56516">
        <ele>293</ele>
        <time>2016-09-12T09:22:11Z</time>
      </trkpt>
      <trkpt lat="45.89057" lon="4.56525">
        <ele>293</ele>
        <time>2016-09-12T09:22:12Z</time>
      </trkpt>
      <trkpt lat="45.89065" lon="4.56533">
        <ele>292</ele>
        <time>2016-09-12T09:22:13Z</time>
      </trkpt>
      <trkpt lat="45.89072" lon="4.56543">
        <ele>292</ele>
        <time>2016-09-12T09:22:14Z</time>
      </trkpt>
      <trkpt lat="45.89079" lon="4.56554">
        <ele>292</ele>
        <time>2016-09-12T09:22:15Z</time>
      </trkpt>
      <trkpt lat="45.89085" lon="4.56566">
        <ele>290</ele>
        <time>2016-09-12T09:22:16Z</time>
      </trkpt>
      <trkpt lat="45.8909" lon="4.56578">
        <ele>290</ele>
        <time>2016-09-12T09:22:17Z</time>
      </trkpt>
      <trkpt lat="45.89094" lon="4.56592">
        <ele>290</ele>
        <time>2016-09-12T09:22:18Z</time>
      </trkpt>
      <trkpt lat="45.89097" lon="4.56605">
        <ele>290</ele>
        <time>2016-09-12T09:22:19Z</time>
      </trkpt>
      <trkpt lat="45.891" lon="4.56618">
        <ele>290</ele>
        <time>2016-09-12T09:22:20Z</time>
      </trkpt>
      <trkpt lat="45.89105" lon="4.5663">
        <ele>290</ele>
        <time>2016-09-12T09:22:21Z</time>
      </trkpt>
      <trkpt lat="45.89112" lon="4.56641">
        <ele>290</ele>
        <time>2016-09-12T09:22:22Z</time>
      </trkpt>
      <trkpt lat="45.89122" lon="4.56647">
        <ele>290</ele>
        <time>2016-09-12T09:22:23Z</time>
      </trkpt>
      <trkpt lat="45.89131" lon="4.56652">
        <ele>289</ele>
        <time>2016-09-12T09:22:24Z</time>
      </trkpt>
      <trkpt lat="45.89141" lon="4.56654">
        <ele>289</ele>
        <time>2016-09-12T09:22:25Z</time>
      </trkpt>
      <trkpt lat="45.89151" lon="4.56655">
        <ele>289</ele>
        <time>2016-09-12T09:22:26Z</time>
      </trkpt>
      <trkpt lat="45.8916" lon="4.56656">
        <ele>289</ele>
        <time>2016-09-12T09:22:27Z</time>
      </trkpt>
      <trkpt lat="45.8917" lon="4.56657">
        <ele>289</ele>
        <time>2016-09-12T09:22:28Z</time>
      </trkpt>
      <trkpt lat="45.89178" lon="4.56659">
        <ele>289</ele>
        <time>2016-09-12T09:22:29Z</time>
      </trkpt>
      <trkpt lat="45.89186" lon="4.56661">
        <ele>289</ele>
        <time>2016-09-12T09:22:30Z</time>
      </trkpt>
      <trkpt lat="45.89194" lon="4.56663">
        <ele>289</ele>
        <time>2016-09-12T09:22:31Z</time>
      </trkpt>
      <trkpt lat="45.89202" lon="4.56664">
        <ele>289</ele>
        <time>2016-09-12T09:22:32Z</time>
      </trkpt>
      <trkpt lat="45.8921" lon="4.56665">
        <ele>290</ele>
        <time>2016-09-12T09:22:33Z</time>
      </trkpt>
      <trkpt lat="45.89217" lon="4.56667">
        <ele>289</ele>
        <time>2016-09-12T09:22:34Z</time>
      </trkpt>
      <trkpt lat="45.89224" lon="4.56669">
        <ele>289</ele>
        <time>2016-09-12T09:22:35Z</time>
      </trkpt>
      <trkpt lat="45.8923" lon="4.56669">
        <ele>289</ele>
        <time>2016-09-12T09:22:36Z</time>
      </trkpt>
      <trkpt lat="45.89236" lon="4.56669">
        <ele>289</ele>
        <time>2016-09-12T09:22:37Z</time>
      </trkpt>
      <trkpt lat="45.89242" lon="4.5667">
        <ele>290</ele>
        <time>2016-09-12T09:22:38Z</time>
      </trkpt>
      <trkpt lat="45.89247" lon="4.56671">
        <ele>290</ele>
        <time>2016-09-12T09:22:39Z</time>
      </trkpt>
      <trkpt lat="45.89251" lon="4.56672">
        <ele>290</ele>
        <time>2016-09-12T09:22:40Z</time>
      </trkpt>
      <trkpt lat="45.89256" lon="4.56673">
        <ele>291</ele>
        <time>2016-09-12T09:22:41Z</time>
      </trkpt>
      <trkpt lat="45.89262" lon="4.56674">
        <ele>291</ele>
        <time>2016-09-12T09:22:42Z</time>
      </trkpt>
      <trkpt lat="45.8927" lon="4.56674">
        <ele>291</ele>
        <time>2016-09-12T09:22:44Z</time>
      </trkpt>
      <trkpt lat="45.89274" lon="4.56674">
        <ele>292</ele>
        <time>2016-09-12T09:22:45Z</time>
      </trkpt>
      <trkpt lat="45.89281" lon="4.56676">
        <ele>292</ele>
        <time>2016-09-12T09:22:47Z</time>
      </trkpt>
      <trkpt lat="45.89284" lon="4.56677">
        <ele>292</ele>
        <time>2016-09-12T09:22:48Z</time>
      </trkpt>
      <trkpt lat="45.89291" lon="4.56677">
        <ele>292</ele>
        <time>2016-09-12T09:22:50Z</time>
      </trkpt>
      <trkpt lat="45.89294" lon="4.56677">
        <ele>293</ele>
        <time>2016-09-12T09:22:51Z</time>
      </trkpt>
      <trkpt lat="45.893" lon="4.56676">
        <ele>293</ele>
        <time>2016-09-12T09:22:53Z</time>
      </trkpt>
      <trkpt lat="45.89304" lon="4.56676">
        <ele>293</ele>
        <time>2016-09-12T09:22:54Z</time>
      </trkpt>
      <trkpt lat="45.8931" lon="4.56675">
        <ele>293</ele>
        <time>2016-09-12T09:22:56Z</time>
      </trkpt>
      <trkpt lat="45.89313" lon="4.56674">
        <ele>294</ele>
        <time>2016-09-12T09:22:57Z</time>
      </trkpt>
      <trkpt lat="45.8932" lon="4.56672">
        <ele>294</ele>
        <time>2016-09-12T09:22:59Z</time>
      </trkpt>
      <trkpt lat="45.89323" lon="4.56671">
        <ele>294</ele>
        <time>2016-09-12T09:23:00Z</time>
      </trkpt>
      <trkpt lat="45.89329" lon="4.56666">
        <ele>295</ele>
        <time>2016-09-12T09:23:02Z</time>
      </trkpt>
      <trkpt lat="45.89331" lon="4.56663">
        <ele>295</ele>
        <time>2016-09-12T09:23:03Z</time>
      </trkpt>
      <trkpt lat="45.89336" lon="4.56656">
        <ele>296</ele>
        <time>2016-09-12T09:23:05Z</time>
      </trkpt>
      <trkpt lat="45.89338" lon="4.56653">
        <ele>296</ele>
        <time>2016-09-12T09:23:06Z</time>
      </trkpt>
      <trkpt lat="45.89345" lon="4.56646">
        <ele>296</ele>
        <time>2016-09-12T09:23:09Z</time>
      </trkpt>
      <trkpt lat="45.89347" lon="4.56644">
        <ele>296</ele>
        <time>2016-09-12T09:23:10Z</time>
      </trkpt>
      <trkpt lat="45.89353" lon="4.56638">
        <ele>297</ele>
        <time>2016-09-12T09:23:12Z</time>
      </trkpt>
      <trkpt lat="45.89356" lon="4.56636">
        <ele>297</ele>
        <time>2016-09-12T09:23:13Z</time>
      </trkpt>
      <trkpt lat="45.89362" lon="4.56629">
        <ele>297</ele>
        <time>2016-09-12T09:23:16Z</time>
      </trkpt>
      <trkpt lat="45.89364" lon="4.56627">
        <ele>297</ele>
        <time>2016-09-12T09:23:17Z</time>
      </trkpt>
      <trkpt lat="45.89371" lon="4.56621">
        <ele>297</ele>
        <time>2016-09-12T09:23:20Z</time>
      </trkpt>
      <trkpt lat="45.89373" lon="4.5662">
        <ele>297</ele>
        <time>2016-09-12T09:23:21Z</time>
      </trkpt>
      <trkpt lat="45.8938" lon="4.56614">
        <ele>297</ele>
        <time>2016-09-12T09:23:25Z</time>
      </trkpt>
      <trkpt lat="45.89382" lon="4.56613">
        <ele>297</ele>
        <time>2016-09-12T09:23:26Z</time>
      </trkpt>
      <trkpt lat="45.8939" lon="4.5661">
        <ele>298</ele>
        <time>2016-09-12T09:23:29Z</time>
      </trkpt>
      <trkpt lat="45.89392" lon="4.56609">
        <ele>298</ele>
        <time>2016-09-12T09:23:30Z</time>
      </trkpt>
      <trkpt lat="45.89399" lon="4.56605">
        <ele>298</ele>
        <time>2016-09-12T09:23:33Z</time>
      </trkpt>
      <trkpt lat="45.89401" lon="4.56604">
        <ele>298</ele>
        <time>2016-09-12T09:23:34Z</time>
      </trkpt>
      <trkpt lat="45.89409" lon="4.56603">
        <ele>298</ele>
        <time>2016-09-12T09:23:37Z</time>
      </trkpt>
      <trkpt lat="45.89412" lon="4.56603">
        <ele>298</ele>
        <time>2016-09-12T09:23:38Z</time>
      </trkpt>
      <trkpt lat="45.89418" lon="4.56601">
        <ele>301</ele>
        <time>2016-09-12T09:23:40Z</time>
      </trkpt>
      <trkpt lat="45.89422" lon="4.566">
        <ele>301</ele>
        <time>2016-09-12T09:23:41Z</time>
      </trkpt>
      <trkpt lat="45.89429" lon="4.56599">
        <ele>301</ele>
        <time>2016-09-12T09:23:44Z</time>
      </trkpt>
      <trkpt lat="45.89431" lon="4.56598">
        <ele>301</ele>
        <time>2016-09-12T09:23:45Z</time>
      </trkpt>
      <trkpt lat="45.8944" lon="4.56597">
        <ele>302</ele>
        <time>2016-09-12T09:23:48Z</time>
      </trkpt>
      <trkpt lat="45.89442" lon="4.56597">
        <ele>302</ele>
        <time>2016-09-12T09:23:49Z</time>
      </trkpt>
      <trkpt lat="45.89448" lon="4.56595">
        <ele>303</ele>
        <time>2016-09-12T09:23:51Z</time>
      </trkpt>
      <trkpt lat="45.89451" lon="4.56594">
        <ele>303</ele>
        <time>2016-09-12T09:23:52Z</time>
      </trkpt>
      <trkpt lat="45.89458" lon="4.56593">
        <ele>303</ele>
        <time>2016-09-12T09:23:54Z</time>
      </trkpt>
      <trkpt lat="45.89461" lon="4.56593">
        <ele>303</ele>
        <time>2016-09-12T09:23:55Z</time>
      </trkpt>
      <trkpt lat="45.89467" lon="4.56593">
        <ele>304</ele>
        <time>2016-09-12T09:23:57Z</time>
      </trkpt>
      <trkpt lat="45.8947" lon="4.56593">
        <ele>304</ele>
        <time>2016-09-12T09:23:58Z</time>
      </trkpt>
      <trkpt lat="45.89479" lon="4.56591">
        <ele>305</ele>
        <time>2016-09-12T09:24:01Z</time>
      </trkpt>
      <trkpt lat="45.89482" lon="4.56591">
        <ele>305</ele>
        <time>2016-09-12T09:24:02Z</time>
      </trkpt>
      <trkpt lat="45.8949" lon="4.5659">
        <ele>306</ele>
        <time>2016-09-12T09:24:05Z</time>
      </trkpt>
      <trkpt lat="45.89493" lon="4.5659">
        <ele>306</ele>
        <time>2016-09-12T09:24:06Z</time>
      </trkpt>
      <trkpt lat="45.89501" lon="4.56591">
        <ele>308</ele>
        <time>2016-09-12T09:24:08Z</time>
      </trkpt>
      <trkpt lat="45.89504" lon="4.5659">
        <ele>308</ele>
        <time>2016-09-12T09:24:09Z</time>
      </trkpt>
      <trkpt lat="45.89512" lon="4.56588">
        <ele>308</ele>
        <time>2016-09-12T09:24:12Z</time>
      </trkpt>
      <trkpt lat="45.89515" lon="4.56587">
        <ele>308</ele>
        <time>2016-09-12T09:24:13Z</time>
      </trkpt>
      <trkpt lat="45.89523" lon="4.56583">
        <ele>308</ele>
        <time>2016-09-12T09:24:16Z</time>
      </trkpt>
      <trkpt lat="45.89526" lon="4.56583">
        <ele>308</ele>
        <time>2016-09-12T09:24:17Z</time>
      </trkpt>
      <trkpt lat="45.89535" lon="4.56581">
        <ele>308</ele>
        <time>2016-09-12T09:24:20Z</time>
      </trkpt>
      <trkpt lat="45.89538" lon="4.56581">
        <ele>308</ele>
        <time>2016-09-12T09:24:21Z</time>
      </trkpt>
      <trkpt lat="45.89544" lon="4.5658">
        <ele>308</ele>
        <time>2016-09-12T09:24:23Z</time>
      </trkpt>
      <trkpt lat="45.89547" lon="4.5658">
        <ele>308</ele>
        <time>2016-09-12T09:24:24Z</time>
      </trkpt>
      <trkpt lat="45.89554" lon="4.5658">
        <ele>308</ele>
        <time>2016-09-12T09:24:26Z</time>
      </trkpt>
      <trkpt lat="45.89557" lon="4.5658">
        <ele>308</ele>
        <time>2016-09-12T09:24:27Z</time>
      </trkpt>
      <trkpt lat="45.89563" lon="4.56579">
        <ele>308</ele>
        <time>2016-09-12T09:24:29Z</time>
      </trkpt>
      <trkpt lat="45.89567" lon="4.56579">
        <ele>308</ele>
        <time>2016-09-12T09:24:30Z</time>
      </trkpt>
      <trkpt lat="45.89575" lon="4.56579">
        <ele>308</ele>
        <time>2016-09-12T09:24:32Z</time>
      </trkpt>
      <trkpt lat="45.8958" lon="4.56578">
        <ele>308</ele>
        <time>2016-09-12T09:24:33Z</time>
      </trkpt>
      <trkpt lat="45.89588" lon="4.56578">
        <ele>308</ele>
        <time>2016-09-12T09:24:35Z</time>
      </trkpt>
      <trkpt lat="45.89593" lon="4.56577">
        <ele>307</ele>
        <time>2016-09-12T09:24:36Z</time>
      </trkpt>
      <trkpt lat="45.89599" lon="4.56576">
        <ele>307</ele>
        <time>2016-09-12T09:24:37Z</time>
      </trkpt>
      <trkpt lat="45.89607" lon="4.56574">
        <ele>307</ele>
        <time>2016-09-12T09:24:38Z</time>
      </trkpt>
      <trkpt lat="45.89613" lon="4.56573">
        <ele>307</ele>
        <time>2016-09-12T09:24:39Z</time>
      </trkpt>
      <trkpt lat="45.89619" lon="4.56572">
        <ele>306</ele>
        <time>2016-09-12T09:24:40Z</time>
      </trkpt>
      <trkpt lat="45.89625" lon="4.56571">
        <ele>306</ele>
        <time>2016-09-12T09:24:41Z</time>
      </trkpt>
      <trkpt lat="45.8963" lon="4.5657">
        <ele>306</ele>
        <time>2016-09-12T09:24:42Z</time>
      </trkpt>
      <trkpt lat="45.89636" lon="4.56569">
        <ele>306</ele>
        <time>2016-09-12T09:24:43Z</time>
      </trkpt>
      <trkpt lat="45.8964" lon="4.56568">
        <ele>306</ele>
        <time>2016-09-12T09:24:44Z</time>
      </trkpt>
      <trkpt lat="45.89645" lon="4.56568">
        <ele>305</ele>
        <time>2016-09-12T09:24:45Z</time>
      </trkpt>
      <trkpt lat="45.89649" lon="4.56569">
        <ele>305</ele>
        <time>2016-09-12T09:24:46Z</time>
      </trkpt>
      <trkpt lat="45.89653" lon="4.56571">
        <ele>305</ele>
        <time>2016-09-12T09:24:47Z</time>
      </trkpt>
      <trkpt lat="45.89657" lon="4.56576">
        <ele>304</ele>
        <time>2016-09-12T09:24:48Z</time>
      </trkpt>
      <trkpt lat="45.8966" lon="4.56581">
        <ele>304</ele>
        <time>2016-09-12T09:24:49Z</time>
      </trkpt>
      <trkpt lat="45.89663" lon="4.56587">
        <ele>303</ele>
        <time>2016-09-12T09:24:50Z</time>
      </trkpt>
      <trkpt lat="45.89666" lon="4.56592">
        <ele>304</ele>
        <time>2016-09-12T09:24:51Z</time>
      </trkpt>
      <trkpt lat="45.89669" lon="4.56598">
        <ele>302</ele>
        <time>2016-09-12T09:24:52Z</time>
      </trkpt>
      <trkpt lat="45.89673" lon="4.56604">
        <ele>301</ele>
        <time>2016-09-12T09:24:53Z</time>
      </trkpt>
      <trkpt lat="45.89677" lon="4.5661">
        <ele>301</ele>
        <time>2016-09-12T09:24:54Z</time>
      </trkpt>
      <trkpt lat="45.89683" lon="4.56616">
        <ele>301</ele>
        <time>2016-09-12T09:24:55Z</time>
      </trkpt>
      <trkpt lat="45.89687" lon="4.56622">
        <ele>301</ele>
        <time>2016-09-12T09:24:56Z</time>
      </trkpt>
      <trkpt lat="45.89692" lon="4.56627">
        <ele>300</ele>
        <time>2016-09-12T09:24:57Z</time>
      </trkpt>
      <trkpt lat="45.89697" lon="4.56633">
        <ele>300</ele>
        <time>2016-09-12T09:24:58Z</time>
      </trkpt>
      <trkpt lat="45.89703" lon="4.56638">
        <ele>300</ele>
        <time>2016-09-12T09:24:59Z</time>
      </trkpt>
      <trkpt lat="45.89708" lon="4.56643">
        <ele>300</ele>
        <time>2016-09-12T09:25:00Z</time>
      </trkpt>
      <trkpt lat="45.89714" lon="4.56647">
        <ele>300</ele>
        <time>2016-09-12T09:25:01Z</time>
      </trkpt>
      <trkpt lat="45.8972" lon="4.56652">
        <ele>300</ele>
        <time>2016-09-12T09:25:02Z</time>
      </trkpt>
      <trkpt lat="45.89727" lon="4.56655">
        <ele>300</ele>
        <time>2016-09-12T09:25:03Z</time>
      </trkpt>
      <trkpt lat="45.89734" lon="4.56658">
        <ele>299</ele>
        <time>2016-09-12T09:25:04Z</time>
      </trkpt>
      <trkpt lat="45.8974" lon="4.56659">
        <ele>299</ele>
        <time>2016-09-12T09:25:05Z</time>
      </trkpt>
      <trkpt lat="45.89747" lon="4.56661">
        <ele>299</ele>
        <time>2016-09-12T09:25:06Z</time>
      </trkpt>
      <trkpt lat="45.89753" lon="4.56662">
        <ele>298</ele>
        <time>2016-09-12T09:25:07Z</time>
      </trkpt>
      <trkpt lat="45.89759" lon="4.56662">
        <ele>298</ele>
        <time>2016-09-12T09:25:08Z</time>
      </trkpt>
      <trkpt lat="45.89765" lon="4.56662">
        <ele>297</ele>
        <time>2016-09-12T09:25:09Z</time>
      </trkpt>
      <trkpt lat="45.89771" lon="4.56662">
        <ele>297</ele>
        <time>2016-09-12T09:25:10Z</time>
      </trkpt>
      <trkpt lat="45.89777" lon="4.56662">
        <ele>297</ele>
        <time>2016-09-12T09:25:11Z</time>
      </trkpt>
      <trkpt lat="45.89783" lon="4.56661">
        <ele>297</ele>
        <time>2016-09-12T09:25:12Z</time>
      </trkpt>
      <trkpt lat="45.89789" lon="4.56661">
        <ele>296</ele>
        <time>2016-09-12T09:25:13Z</time>
      </trkpt>
      <trkpt lat="45.89795" lon="4.56661">
        <ele>296</ele>
        <time>2016-09-12T09:25:14Z</time>
      </trkpt>
      <trkpt lat="45.89801" lon="4.5666">
        <ele>296</ele>
        <time>2016-09-12T09:25:15Z</time>
      </trkpt>
      <trkpt lat="45.89807" lon="4.56659">
        <ele>296</ele>
        <time>2016-09-12T09:25:16Z</time>
      </trkpt>
      <trkpt lat="45.89814" lon="4.56658">
        <ele>296</ele>
        <time>2016-09-12T09:25:17Z</time>
      </trkpt>
      <trkpt lat="45.8982" lon="4.56657">
        <ele>295</ele>
        <time>2016-09-12T09:25:18Z</time>
      </trkpt>
      <trkpt lat="45.89826" lon="4.56656">
        <ele>295</ele>
        <time>2016-09-12T09:25:19Z</time>
      </trkpt>
      <trkpt lat="45.89832" lon="4.56655">
        <ele>295</ele>
        <time>2016-09-12T09:25:20Z</time>
      </trkpt>
      <trkpt lat="45.89839" lon="4.56654">
        <ele>295</ele>
        <time>2016-09-12T09:25:21Z</time>
      </trkpt>
      <trkpt lat="45.89845" lon="4.56652">
        <ele>295</ele>
        <time>2016-09-12T09:25:22Z</time>
      </trkpt>
      <trkpt lat="45.89852" lon="4.56651">
        <ele>295</ele>
        <time>2016-09-12T09:25:23Z</time>
      </trkpt>
      <trkpt lat="45.89858" lon="4.56651">
        <ele>295</ele>
        <time>2016-09-12T09:25:24Z</time>
      </trkpt>
      <trkpt lat="45.89865" lon="4.5665">
        <ele>295</ele>
        <time>2016-09-12T09:25:25Z</time>
      </trkpt>
      <trkpt lat="45.89871" lon="4.56649">
        <ele>295</ele>
        <time>2016-09-12T09:25:26Z</time>
      </trkpt>
      <trkpt lat="45.89878" lon="4.56648">
        <ele>295</ele>
        <time>2016-09-12T09:25:27Z</time>
      </trkpt>
      <trkpt lat="45.89884" lon="4.56647">
        <ele>295</ele>
        <time>2016-09-12T09:25:28Z</time>
      </trkpt>
      <trkpt lat="45.89891" lon="4.56646">
        <ele>295</ele>
        <time>2016-09-12T09:25:29Z</time>
      </trkpt>
      <trkpt lat="45.89898" lon="4.56645">
        <ele>295</ele>
        <time>2016-09-12T09:25:30Z</time>
      </trkpt>
      <trkpt lat="45.89904" lon="4.56644">
        <ele>295</ele>
        <time>2016-09-12T09:25:31Z</time>
      </trkpt>
      <trkpt lat="45.8991" lon="4.56642">
        <ele>295</ele>
        <time>2016-09-12T09:25:32Z</time>
      </trkpt>
      <trkpt lat="45.89916" lon="4.5664">
        <ele>295</ele>
        <time>2016-09-12T09:25:33Z</time>
      </trkpt>
      <trkpt lat="45.89922" lon="4.56638">
        <ele>295</ele>
        <time>2016-09-12T09:25:34Z</time>
      </trkpt>
      <trkpt lat="45.89928" lon="4.56637">
        <ele>295</ele>
        <time>2016-09-12T09:25:35Z</time>
      </trkpt>
      <trkpt lat="45.89934" lon="4.56635">
        <ele>295</ele>
        <time>2016-09-12T09:25:36Z</time>
      </trkpt>
      <trkpt lat="45.8994" lon="4.56632">
        <ele>295</ele>
        <time>2016-09-12T09:25:37Z</time>
      </trkpt>
      <trkpt lat="45.89947" lon="4.56629">
        <ele>294</ele>
        <time>2016-09-12T09:25:38Z</time>
      </trkpt>
      <trkpt lat="45.89953" lon="4.56625">
        <ele>294</ele>
        <time>2016-09-12T09:25:39Z</time>
      </trkpt>
      <trkpt lat="45.89959" lon="4.56619">
        <ele>294</ele>
        <time>2016-09-12T09:25:40Z</time>
      </trkpt>
      <trkpt lat="45.89964" lon="4.56613">
        <ele>293</ele>
        <time>2016-09-12T09:25:41Z</time>
      </trkpt>
      <trkpt lat="45.8997" lon="4.56608">
        <ele>293</ele>
        <time>2016-09-12T09:25:42Z</time>
      </trkpt>
      <trkpt lat="45.89976" lon="4.56604">
        <ele>292</ele>
        <time>2016-09-12T09:25:43Z</time>
      </trkpt>
      <trkpt lat="45.89982" lon="4.56602">
        <ele>292</ele>
        <time>2016-09-12T09:25:44Z</time>
      </trkpt>
      <trkpt lat="45.8999" lon="4.566">
        <ele>291</ele>
        <time>2016-09-12T09:25:45Z</time>
      </trkpt>
      <trkpt lat="45.89997" lon="4.566">
        <ele>291</ele>
        <time>2016-09-12T09:25:46Z</time>
      </trkpt>
      <trkpt lat="45.90005" lon="4.566">
        <ele>290</ele>
        <time>2016-09-12T09:25:47Z</time>
      </trkpt>
      <trkpt lat="45.90014" lon="4.566">
        <ele>290</ele>
        <time>2016-09-12T09:25:48Z</time>
      </trkpt>
      <trkpt lat="45.90022" lon="4.56602">
        <ele>290</ele>
        <time>2016-09-12T09:25:49Z</time>
      </trkpt>
      <trkpt lat="45.9003" lon="4.56604">
        <ele>290</ele>
        <time>2016-09-12T09:25:50Z</time>
      </trkpt>
      <trkpt lat="45.90038" lon="4.56607">
        <ele>290</ele>
        <time>2016-09-12T09:25:51Z</time>
      </trkpt>
      <trkpt lat="45.90047" lon="4.56609">
        <ele>290</ele>
        <time>2016-09-12T09:25:52Z</time>
      </trkpt>
      <trkpt lat="45.90056" lon="4.56612">
        <ele>290</ele>
        <time>2016-09-12T09:25:53Z</time>
      </trkpt>
      <trkpt lat="45.90065" lon="4.56614">
        <ele>290</ele>
        <time>2016-09-12T09:25:54Z</time>
      </trkpt>
      <trkpt lat="45.90073" lon="4.56616">
        <ele>290</ele>
        <time>2016-09-12T09:25:55Z</time>
      </trkpt>
      <trkpt lat="45.90082" lon="4.56619">
        <ele>290</ele>
        <time>2016-09-12T09:25:56Z</time>
      </trkpt>
      <trkpt lat="45.9009" lon="4.56622">
        <ele>283</ele>
        <time>2016-09-12T09:25:57Z</time>
      </trkpt>
      <trkpt lat="45.90098" lon="4.56626">
        <ele>283</ele>
        <time>2016-09-12T09:25:58Z</time>
      </trkpt>
      <trkpt lat="45.90106" lon="4.56631">
        <ele>283</ele>
        <time>2016-09-12T09:25:59Z</time>
      </trkpt>
      <trkpt lat="45.90114" lon="4.56637">
        <ele>283</ele>
        <time>2016-09-12T09:26:00Z</time>
      </trkpt>
      <trkpt lat="45.90122" lon="4.56645">
        <ele>283</ele>
        <time>2016-09-12T09:26:01Z</time>
      </trkpt>
      <trkpt lat="45.90128" lon="4.56654">
        <ele>282</ele>
        <time>2016-09-12T09:26:02Z</time>
      </trkpt>
      <trkpt lat="45.90134" lon="4.56663">
        <ele>282</ele>
        <time>2016-09-12T09:26:03Z</time>
      </trkpt>
      <trkpt lat="45.90139" lon="4.56672">
        <ele>289</ele>
        <time>2016-09-12T09:26:04Z</time>
      </trkpt>
      <trkpt lat="45.90143" lon="4.56682">
        <ele>289</ele>
        <time>2016-09-12T09:26:05Z</time>
      </trkpt>
      <trkpt lat="45.90148" lon="4.56692">
        <ele>289</ele>
        <time>2016-09-12T09:26:06Z</time>
      </trkpt>
      <trkpt lat="45.90153" lon="4.56702">
        <ele>290</ele>
        <time>2016-09-12T09:26:07Z</time>
      </trkpt>
      <trkpt lat="45.90159" lon="4.56713">
        <ele>291</ele>
        <time>2016-09-12T09:26:08Z</time>
      </trkpt>
      <trkpt lat="45.90164" lon="4.56723">
        <ele>292</ele>
        <time>2016-09-12T09:26:09Z</time>
      </trkpt>
      <trkpt lat="45.9017" lon="4.56733">
        <ele>282</ele>
        <time>2016-09-12T09:26:10Z</time>
      </trkpt>
      <trkpt lat="45.90176" lon="4.56744">
        <ele>284</ele>
        <time>2016-09-12T09:26:11Z</time>
      </trkpt>
      <trkpt lat="45.9018" lon="4.56754">
        <ele>287</ele>
        <time>2016-09-12T09:26:12Z</time>
      </trkpt>
      <trkpt lat="45.90185" lon="4.56765">
        <ele>286</ele>
        <time>2016-09-12T09:26:13Z</time>
      </trkpt>
      <trkpt lat="45.9019" lon="4.56776">
        <ele>285</ele>
        <time>2016-09-12T09:26:14Z</time>
      </trkpt>
      <trkpt lat="45.90195" lon="4.56788">
        <ele>285</ele>
        <time>2016-09-12T09:26:15Z</time>
      </trkpt>
      <trkpt lat="45.902" lon="4.568">
        <ele>285</ele>
        <time>2016-09-12T09:26:16Z</time>
      </trkpt>
      <trkpt lat="45.90205" lon="4.56812">
        <ele>285</ele>
        <time>2016-09-12T09:26:17Z</time>
      </trkpt>
      <trkpt lat="45.90213" lon="4.56824">
        <ele>284</ele>
        <time>2016-09-12T09:26:18Z</time>
      </trkpt>
      <trkpt lat="45.9022" lon="4.56834">
        <ele>290</ele>
        <time>2016-09-12T09:26:19Z</time>
      </trkpt>
      <trkpt lat="45.90225" lon="4.56844">
        <ele>289</ele>
        <time>2016-09-12T09:26:20Z</time>
      </trkpt>
      <trkpt lat="45.9023" lon="4.56854">
        <ele>289</ele>
        <time>2016-09-12T09:26:21Z</time>
      </trkpt>
      <trkpt lat="45.90236" lon="4.56864">
        <ele>290</ele>
        <time>2016-09-12T09:26:22Z</time>
      </trkpt>
      <trkpt lat="45.90242" lon="4.56872">
        <ele>290</ele>
        <time>2016-09-12T09:26:23Z</time>
      </trkpt>
      <trkpt lat="45.90255" lon="4.56878">
        <ele>278</ele>
        <time>2016-09-12T09:26:24Z</time>
      </trkpt>
      <trkpt lat="45.90267" lon="4.56882">
        <ele>277</ele>
        <time>2016-09-12T09:26:25Z</time>
      </trkpt>
      <trkpt lat="45.90268" lon="4.56886">
        <ele>278</ele>
        <time>2016-09-12T09:26:26Z</time>
      </trkpt>
      <trkpt lat="45.90277" lon="4.56889">
        <ele>277</ele>
        <time>2016-09-12T09:26:27Z</time>
      </trkpt>
      <trkpt lat="45.90287" lon="4.56892">
        <ele>276</ele>
        <time>2016-09-12T09:26:28Z</time>
      </trkpt>
      <trkpt lat="45.90297" lon="4.56895">
        <ele>275</ele>
        <time>2016-09-12T09:26:29Z</time>
      </trkpt>
      <trkpt lat="45.90306" lon="4.56901">
        <ele>275</ele>
        <time>2016-09-12T09:26:30Z</time>
      </trkpt>
      <trkpt lat="45.90315" lon="4.56908">
        <ele>274</ele>
        <time>2016-09-12T09:26:31Z</time>
      </trkpt>
      <trkpt lat="45.90323" lon="4.56918">
        <ele>277</ele>
        <time>2016-09-12T09:26:32Z</time>
      </trkpt>
      <trkpt lat="45.90331" lon="4.56929">
        <ele>277</ele>
        <time>2016-09-12T09:26:33Z</time>
      </trkpt>
      <trkpt lat="45.90338" lon="4.56941">
        <ele>270</ele>
        <time>2016-09-12T09:26:34Z</time>
      </trkpt>
      <trkpt lat="45.90344" lon="4.56954">
        <ele>269</ele>
        <time>2016-09-12T09:26:35Z</time>
      </trkpt>
      <trkpt lat="45.9035" lon="4.56968">
        <ele>269</ele>
        <time>2016-09-12T09:26:36Z</time>
      </trkpt>
      <trkpt lat="45.90355" lon="4.56982">
        <ele>269</ele>
        <time>2016-09-12T09:26:37Z</time>
      </trkpt>
      <trkpt lat="45.90359" lon="4.56996">
        <ele>269</ele>
        <time>2016-09-12T09:26:38Z</time>
      </trkpt>
      <trkpt lat="45.90363" lon="4.5701">
        <ele>268</ele>
        <time>2016-09-12T09:26:39Z</time>
      </trkpt>
      <trkpt lat="45.90368" lon="4.57024">
        <ele>267</ele>
        <time>2016-09-12T09:26:40Z</time>
      </trkpt>
      <trkpt lat="45.90372" lon="4.57038">
        <ele>266</ele>
        <time>2016-09-12T09:26:41Z</time>
      </trkpt>
      <trkpt lat="45.90378" lon="4.57051">
        <ele>265</ele>
        <time>2016-09-12T09:26:42Z</time>
      </trkpt>
      <trkpt lat="45.90384" lon="4.57064">
        <ele>264</ele>
        <time>2016-09-12T09:26:43Z</time>
      </trkpt>
      <trkpt lat="45.90391" lon="4.57078">
        <ele>263</ele>
        <time>2016-09-12T09:26:44Z</time>
      </trkpt>
      <trkpt lat="45.90397" lon="4.57092">
        <ele>262</ele>
        <time>2016-09-12T09:26:45Z</time>
      </trkpt>
      <trkpt lat="45.90401" lon="4.57108">
        <ele>262</ele>
        <time>2016-09-12T09:26:46Z</time>
      </trkpt>
      <trkpt lat="45.90405" lon="4.57123">
        <ele>263</ele>
        <time>2016-09-12T09:26:47Z</time>
      </trkpt>
      <trkpt lat="45.90408" lon="4.57139">
        <ele>263</ele>
        <time>2016-09-12T09:26:48Z</time>
      </trkpt>
      <trkpt lat="45.90412" lon="4.57155">
        <ele>262</ele>
        <time>2016-09-12T09:26:49Z</time>
      </trkpt>
      <trkpt lat="45.90417" lon="4.5717">
        <ele>260</ele>
        <time>2016-09-12T09:26:50Z</time>
      </trkpt>
      <trkpt lat="45.90423" lon="4.57184">
        <ele>259</ele>
        <time>2016-09-12T09:26:51Z</time>
      </trkpt>
      <trkpt lat="45.90429" lon="4.57197">
        <ele>258</ele>
        <time>2016-09-12T09:26:52Z</time>
      </trkpt>
      <trkpt lat="45.90436" lon="4.57208">
        <ele>258</ele>
        <time>2016-09-12T09:26:53Z</time>
      </trkpt>
      <trkpt lat="45.90444" lon="4.57217">
        <ele>258</ele>
        <time>2016-09-12T09:26:54Z</time>
      </trkpt>
      <trkpt lat="45.90451" lon="4.57228">
        <ele>258</ele>
        <time>2016-09-12T09:26:55Z</time>
      </trkpt>
      <trkpt lat="45.9046" lon="4.57237">
        <ele>257</ele>
        <time>2016-09-12T09:26:56Z</time>
      </trkpt>
      <trkpt lat="45.90468" lon="4.57247">
        <ele>255</ele>
        <time>2016-09-12T09:26:57Z</time>
      </trkpt>
      <trkpt lat="45.90477" lon="4.57257">
        <ele>256</ele>
        <time>2016-09-12T09:26:58Z</time>
      </trkpt>
      <trkpt lat="45.90483" lon="4.57268">
        <ele>256</ele>
        <time>2016-09-12T09:26:59Z</time>
      </trkpt>
      <trkpt lat="45.90489" lon="4.57277">
        <ele>256</ele>
        <time>2016-09-12T09:27:00Z</time>
      </trkpt>
      <trkpt lat="45.90496" lon="4.57286">
        <ele>256</ele>
        <time>2016-09-12T09:27:01Z</time>
      </trkpt>
      <trkpt lat="45.90503" lon="4.57293">
        <ele>250</ele>
        <time>2016-09-12T09:27:02Z</time>
      </trkpt>
      <trkpt lat="45.90511" lon="4.573">
        <ele>250</ele>
        <time>2016-09-12T09:27:03Z</time>
      </trkpt>
      <trkpt lat="45.90518" lon="4.57305">
        <ele>250</ele>
        <time>2016-09-12T09:27:04Z</time>
      </trkpt>
      <trkpt lat="45.90526" lon="4.57311">
        <ele>250</ele>
        <time>2016-09-12T09:27:05Z</time>
      </trkpt>
      <trkpt lat="45.90533" lon="4.57316">
        <ele>250</ele>
        <time>2016-09-12T09:27:06Z</time>
      </trkpt>
      <trkpt lat="45.9054" lon="4.57321">
        <ele>249</ele>
        <time>2016-09-12T09:27:07Z</time>
      </trkpt>
      <trkpt lat="45.90546" lon="4.57326">
        <ele>249</ele>
        <time>2016-09-12T09:27:08Z</time>
      </trkpt>
      <trkpt lat="45.90553" lon="4.5733">
        <ele>249</ele>
        <time>2016-09-12T09:27:09Z</time>
      </trkpt>
      <trkpt lat="45.9056" lon="4.57334">
        <ele>248</ele>
        <time>2016-09-12T09:27:10Z</time>
      </trkpt>
      <trkpt lat="45.90566" lon="4.57337">
        <ele>248</ele>
        <time>2016-09-12T09:27:11Z</time>
      </trkpt>
      <trkpt lat="45.90573" lon="4.5734">
        <ele>247</ele>
        <time>2016-09-12T09:27:12Z</time>
      </trkpt>
      <trkpt lat="45.90581" lon="4.57342">
        <ele>246</ele>
        <time>2016-09-12T09:27:13Z</time>
      </trkpt>
      <trkpt lat="45.90588" lon="4.57343">
        <ele>245</ele>
        <time>2016-09-12T09:27:14Z</time>
      </trkpt>
      <trkpt lat="45.90595" lon="4.57344">
        <ele>245</ele>
        <time>2016-09-12T09:27:15Z</time>
      </trkpt>
      <trkpt lat="45.90602" lon="4.57344">
        <ele>245</ele>
        <time>2016-09-12T09:27:16Z</time>
      </trkpt>
      <trkpt lat="45.90609" lon="4.57345">
        <ele>245</ele>
        <time>2016-09-12T09:27:17Z</time>
      </trkpt>
      <trkpt lat="45.90615" lon="4.57345">
        <ele>245</ele>
        <time>2016-09-12T09:27:18Z</time>
      </trkpt>
      <trkpt lat="45.90621" lon="4.57347">
        <ele>245</ele>
        <time>2016-09-12T09:27:19Z</time>
      </trkpt>
      <trkpt lat="45.90626" lon="4.57349">
        <ele>245</ele>
        <time>2016-09-12T09:27:20Z</time>
      </trkpt>
      <trkpt lat="45.90632" lon="4.57351">
        <ele>245</ele>
        <time>2016-09-12T09:27:21Z</time>
      </trkpt>
      <trkpt lat="45.90636" lon="4.57354">
        <ele>245</ele>
        <time>2016-09-12T09:27:22Z</time>
      </trkpt>
      <trkpt lat="45.90641" lon="4.57358">
        <ele>245</ele>
        <time>2016-09-12T09:27:23Z</time>
      </trkpt>
      <trkpt lat="45.90645" lon="4.57362">
        <ele>245</ele>
        <time>2016-09-12T09:27:24Z</time>
      </trkpt>
      <trkpt lat="45.90649" lon="4.57365">
        <ele>245</ele>
        <time>2016-09-12T09:27:25Z</time>
      </trkpt>
      <trkpt lat="45.90653" lon="4.57369">
        <ele>245</ele>
        <time>2016-09-12T09:27:26Z</time>
      </trkpt>
      <trkpt lat="45.90658" lon="4.57372">
        <ele>245</ele>
        <time>2016-09-12T09:27:27Z</time>
      </trkpt>
      <trkpt lat="45.90662" lon="4.57376">
        <ele>245</ele>
        <time>2016-09-12T09:27:28Z</time>
      </trkpt>
      <trkpt lat="45.90667" lon="4.57379">
        <ele>246</ele>
        <time>2016-09-12T09:27:29Z</time>
      </trkpt>
      <trkpt lat="45.90672" lon="4.57383">
        <ele>246</ele>
        <time>2016-09-12T09:27:30Z</time>
      </trkpt>
      <trkpt lat="45.90677" lon="4.57386">
        <ele>246</ele>
        <time>2016-09-12T09:27:31Z</time>
      </trkpt>
      <trkpt lat="45.90682" lon="4.57389">
        <ele>246</ele>
        <time>2016-09-12T09:27:32Z</time>
      </trkpt>
      <trkpt lat="45.90687" lon="4.57394">
        <ele>246</ele>
        <time>2016-09-12T09:27:33Z</time>
      </trkpt>
      <trkpt lat="45.90692" lon="4.57398">
        <ele>247</ele>
        <time>2016-09-12T09:27:34Z</time>
      </trkpt>
      <trkpt lat="45.90696" lon="4.57404">
        <ele>247</ele>
        <time>2016-09-12T09:27:35Z</time>
      </trkpt>
      <trkpt lat="45.907" lon="4.5741">
        <ele>247</ele>
        <time>2016-09-12T09:27:36Z</time>
      </trkpt>
      <trkpt lat="45.90702" lon="4.57418">
        <ele>248</ele>
        <time>2016-09-12T09:27:37Z</time>
      </trkpt>
      <trkpt lat="45.90702" lon="4.57424">
        <ele>248</ele>
        <time>2016-09-12T09:27:38Z</time>
      </trkpt>
      <trkpt lat="45.90701" lon="4.57431">
        <ele>248</ele>
        <time>2016-09-12T09:27:39Z</time>
      </trkpt>
      <trkpt lat="45.907" lon="4.57438">
        <ele>249</ele>
        <time>2016-09-12T09:27:40Z</time>
      </trkpt>
      <trkpt lat="45.90699" lon="4.57445">
        <ele>249</ele>
        <time>2016-09-12T09:27:41Z</time>
      </trkpt>
      <trkpt lat="45.90697" lon="4.57452">
        <ele>249</ele>
        <time>2016-09-12T09:27:42Z</time>
      </trkpt>
      <trkpt lat="45.90696" lon="4.57459">
        <ele>249</ele>
        <time>2016-09-12T09:27:43Z</time>
      </trkpt>
      <trkpt lat="45.90694" lon="4.57466">
        <ele>249</ele>
        <time>2016-09-12T09:27:44Z</time>
      </trkpt>
      <trkpt lat="45.90692" lon="4.57473">
        <ele>248</ele>
        <time>2016-09-12T09:27:45Z</time>
      </trkpt>
      <trkpt lat="45.9069" lon="4.5748">
        <ele>248</ele>
        <time>2016-09-12T09:27:46Z</time>
      </trkpt>
      <trkpt lat="45.90688" lon="4.57488">
        <ele>248</ele>
        <time>2016-09-12T09:27:47Z</time>
      </trkpt>
      <trkpt lat="45.90686" lon="4.57495">
        <ele>248</ele>
        <time>2016-09-12T09:27:48Z</time>
      </trkpt>
      <trkpt lat="45.90684" lon="4.57503">
        <ele>248</ele>
        <time>2016-09-12T09:27:49Z</time>
      </trkpt>
      <trkpt lat="45.90682" lon="4.57511">
        <ele>248</ele>
        <time>2016-09-12T09:27:50Z</time>
      </trkpt>
      <trkpt lat="45.90681" lon="4.57519">
        <ele>248</ele>
        <time>2016-09-12T09:27:51Z</time>
      </trkpt>
      <trkpt lat="45.9068" lon="4.57528">
        <ele>248</ele>
        <time>2016-09-12T09:27:52Z</time>
      </trkpt>
      <trkpt lat="45.90679" lon="4.57536">
        <ele>248</ele>
        <time>2016-09-12T09:27:53Z</time>
      </trkpt>
      <trkpt lat="45.90679" lon="4.57545">
        <ele>248</ele>
        <time>2016-09-12T09:27:54Z</time>
      </trkpt>
      <trkpt lat="45.90678" lon="4.57553">
        <ele>248</ele>
        <time>2016-09-12T09:27:55Z</time>
      </trkpt>
      <trkpt lat="45.90676" lon="4.57561">
        <ele>248</ele>
        <time>2016-09-12T09:27:56Z</time>
      </trkpt>
      <trkpt lat="45.90675" lon="4.57569">
        <ele>247</ele>
        <time>2016-09-12T09:27:57Z</time>
      </trkpt>
      <trkpt lat="45.90674" lon="4.57577">
        <ele>246</ele>
        <time>2016-09-12T09:27:58Z</time>
      </trkpt>
      <trkpt lat="45.90673" lon="4.57585">
        <ele>246</ele>
        <time>2016-09-12T09:27:59Z</time>
      </trkpt>
      <trkpt lat="45.90672" lon="4.57592">
        <ele>246</ele>
        <time>2016-09-12T09:28:00Z</time>
      </trkpt>
      <trkpt lat="45.90672" lon="4.576">
        <ele>246</ele>
        <time>2016-09-12T09:28:01Z</time>
      </trkpt>
      <trkpt lat="45.90671" lon="4.57608">
        <ele>246</ele>
        <time>2016-09-12T09:28:02Z</time>
      </trkpt>
      <trkpt lat="45.9067" lon="4.57615">
        <ele>246</ele>
        <time>2016-09-12T09:28:03Z</time>
      </trkpt>
      <trkpt lat="45.90668" lon="4.57623">
        <ele>246</ele>
        <time>2016-09-12T09:28:04Z</time>
      </trkpt>
      <trkpt lat="45.90667" lon="4.57631">
        <ele>246</ele>
        <time>2016-09-12T09:28:05Z</time>
      </trkpt>
      <trkpt lat="45.90666" lon="4.57638">
        <ele>245</ele>
        <time>2016-09-12T09:28:06Z</time>
      </trkpt>
      <trkpt lat="45.90664" lon="4.57647">
        <ele>244</ele>
        <time>2016-09-12T09:28:07Z</time>
      </trkpt>
      <trkpt lat="45.90662" lon="4.57654">
        <ele>244</ele>
        <time>2016-09-12T09:28:08Z</time>
      </trkpt>
      <trkpt lat="45.90661" lon="4.57663">
        <ele>244</ele>
        <time>2016-09-12T09:28:09Z</time>
      </trkpt>
      <trkpt lat="45.90659" lon="4.57671">
        <ele>243</ele>
        <time>2016-09-12T09:28:10Z</time>
      </trkpt>
      <trkpt lat="45.90658" lon="4.57678">
        <ele>243</ele>
        <time>2016-09-12T09:28:11Z</time>
      </trkpt>
      <trkpt lat="45.90657" lon="4.57687">
        <ele>244</ele>
        <time>2016-09-12T09:28:12Z</time>
      </trkpt>
      <trkpt lat="45.90656" lon="4.57695">
        <ele>244</ele>
        <time>2016-09-12T09:28:13Z</time>
      </trkpt>
      <trkpt lat="45.90655" lon="4.57704">
        <ele>244</ele>
        <time>2016-09-12T09:28:14Z</time>
      </trkpt>
      <trkpt lat="45.90654" lon="4.57712">
        <ele>244</ele>
        <time>2016-09-12T09:28:15Z</time>
      </trkpt>
      <trkpt lat="45.90653" lon="4.5772">
        <ele>244</ele>
        <time>2016-09-12T09:28:16Z</time>
      </trkpt>
      <trkpt lat="45.90651" lon="4.57728">
        <ele>244</ele>
        <time>2016-09-12T09:28:17Z</time>
      </trkpt>
      <trkpt lat="45.90648" lon="4.57735">
        <ele>244</ele>
        <time>2016-09-12T09:28:18Z</time>
      </trkpt>
      <trkpt lat="45.90645" lon="4.57742">
        <ele>244</ele>
        <time>2016-09-12T09:28:19Z</time>
      </trkpt>
      <trkpt lat="45.90642" lon="4.57748">
        <ele>244</ele>
        <time>2016-09-12T09:28:20Z</time>
      </trkpt>
      <trkpt lat="45.90638" lon="4.57754">
        <ele>245</ele>
        <time>2016-09-12T09:28:21Z</time>
      </trkpt>
      <trkpt lat="45.90635" lon="4.57761">
        <ele>245</ele>
        <time>2016-09-12T09:28:22Z</time>
      </trkpt>
      <trkpt lat="45.90634" lon="4.57769">
        <ele>246</ele>
        <time>2016-09-12T09:28:23Z</time>
      </trkpt>
      <trkpt lat="45.90635" lon="4.57777">
        <ele>246</ele>
        <time>2016-09-12T09:28:24Z</time>
      </trkpt>
      <trkpt lat="45.90638" lon="4.57782">
        <ele>246</ele>
        <time>2016-09-12T09:28:25Z</time>
      </trkpt>
      <trkpt lat="45.90643" lon="4.57785">
        <ele>246</ele>
        <time>2016-09-12T09:28:26Z</time>
      </trkpt>
      <trkpt lat="45.90648" lon="4.57786">
        <ele>246</ele>
        <time>2016-09-12T09:28:27Z</time>
      </trkpt>
      <trkpt lat="45.90653" lon="4.57784">
        <ele>246</ele>
        <time>2016-09-12T09:28:28Z</time>
      </trkpt>
      <trkpt lat="45.90658" lon="4.5778">
        <ele>246</ele>
        <time>2016-09-12T09:28:29Z</time>
      </trkpt>
      <trkpt lat="45.90662" lon="4.57775">
        <ele>246</ele>
        <time>2016-09-12T09:28:30Z</time>
      </trkpt>
      <trkpt lat="45.90667" lon="4.57772">
        <ele>249</ele>
        <time>2016-09-12T09:28:31Z</time>
      </trkpt>
      <trkpt lat="45.90672" lon="4.57768">
        <ele>249</ele>
        <time>2016-09-12T09:28:32Z</time>
      </trkpt>
      <trkpt lat="45.90677" lon="4.57764">
        <ele>248</ele>
        <time>2016-09-12T09:28:33Z</time>
      </trkpt>
      <trkpt lat="45.9068" lon="4.57758">
        <ele>248</ele>
        <time>2016-09-12T09:28:34Z</time>
      </trkpt>
      <trkpt lat="45.90684" lon="4.57752">
        <ele>248</ele>
        <time>2016-09-12T09:28:35Z</time>
      </trkpt>
      <trkpt lat="45.90686" lon="4.57744">
        <ele>246</ele>
        <time>2016-09-12T09:28:36Z</time>
      </trkpt>
      <trkpt lat="45.90688" lon="4.57737">
        <ele>246</ele>
        <time>2016-09-12T09:28:37Z</time>
      </trkpt>
      <trkpt lat="45.90691" lon="4.57728">
        <ele>247</ele>
        <time>2016-09-12T09:28:38Z</time>
      </trkpt>
      <trkpt lat="45.90694" lon="4.5772">
        <ele>247</ele>
        <time>2016-09-12T09:28:39Z</time>
      </trkpt>
      <trkpt lat="45.90696" lon="4.57712">
        <ele>247</ele>
        <time>2016-09-12T09:28:40Z</time>
      </trkpt>
      <trkpt lat="45.90699" lon="4.57705">
        <ele>247</ele>
        <time>2016-09-12T09:28:41Z</time>
      </trkpt>
      <trkpt lat="45.90701" lon="4.57697">
        <ele>247</ele>
        <time>2016-09-12T09:28:42Z</time>
      </trkpt>
      <trkpt lat="45.90703" lon="4.5769">
        <ele>247</ele>
        <time>2016-09-12T09:28:43Z</time>
      </trkpt>
      <trkpt lat="45.90705" lon="4.57682">
        <ele>247</ele>
        <time>2016-09-12T09:28:44Z</time>
      </trkpt>
      <trkpt lat="45.90707" lon="4.57675">
        <ele>247</ele>
        <time>2016-09-12T09:28:45Z</time>
      </trkpt>
      <trkpt lat="45.90708" lon="4.57668">
        <ele>247</ele>
        <time>2016-09-12T09:28:46Z</time>
      </trkpt>
      <trkpt lat="45.90709" lon="4.57661">
        <ele>247</ele>
        <time>2016-09-12T09:28:47Z</time>
      </trkpt>
      <trkpt lat="45.9071" lon="4.57655">
        <ele>247</ele>
        <time>2016-09-12T09:28:48Z</time>
      </trkpt>
      <trkpt lat="45.90712" lon="4.57648">
        <ele>248</ele>
        <time>2016-09-12T09:28:49Z</time>
      </trkpt>
      <trkpt lat="45.90713" lon="4.57641">
        <ele>248</ele>
        <time>2016-09-12T09:28:50Z</time>
      </trkpt>
      <trkpt lat="45.90714" lon="4.57634">
        <ele>248</ele>
        <time>2016-09-12T09:28:51Z</time>
      </trkpt>
      <trkpt lat="45.90715" lon="4.57627">
        <ele>248</ele>
        <time>2016-09-12T09:28:52Z</time>
      </trkpt>
      <trkpt lat="45.90716" lon="4.5762">
        <ele>248</ele>
        <time>2016-09-12T09:28:53Z</time>
      </trkpt>
      <trkpt lat="45.90717" lon="4.57613">
        <ele>248</ele>
        <time>2016-09-12T09:28:54Z</time>
      </trkpt>
      <trkpt lat="45.90718" lon="4.57607">
        <ele>249</ele>
        <time>2016-09-12T09:28:55Z</time>
      </trkpt>
      <trkpt lat="45.90719" lon="4.576">
        <ele>249</ele>
        <time>2016-09-12T09:28:56Z</time>
      </trkpt>
      <trkpt lat="45.90721" lon="4.57592">
        <ele>249</ele>
        <time>2016-09-12T09:28:57Z</time>
      </trkpt>
      <trkpt lat="45.90722" lon="4.57585">
        <ele>249</ele>
        <time>2016-09-12T09:28:58Z</time>
      </trkpt>
      <trkpt lat="45.90723" lon="4.57577">
        <ele>250</ele>
        <time>2016-09-12T09:28:59Z</time>
      </trkpt>
      <trkpt lat="45.90724" lon="4.5757">
        <ele>250</ele>
        <time>2016-09-12T09:29:00Z</time>
      </trkpt>
      <trkpt lat="45.90725" lon="4.57563">
        <ele>250</ele>
        <time>2016-09-12T09:29:01Z</time>
      </trkpt>
      <trkpt lat="45.90727" lon="4.57555">
        <ele>250</ele>
        <time>2016-09-12T09:29:02Z</time>
      </trkpt>
      <trkpt lat="45.90728" lon="4.57549">
        <ele>250</ele>
        <time>2016-09-12T09:29:03Z</time>
      </trkpt>
      <trkpt lat="45.90729" lon="4.57542">
        <ele>250</ele>
        <time>2016-09-12T09:29:04Z</time>
      </trkpt>
      <trkpt lat="45.9073" lon="4.57536">
        <ele>251</ele>
        <time>2016-09-12T09:29:05Z</time>
      </trkpt>
      <trkpt lat="45.90732" lon="4.57529">
        <ele>251</ele>
        <time>2016-09-12T09:29:06Z</time>
      </trkpt>
      <trkpt lat="45.90734" lon="4.57523">
        <ele>251</ele>
        <time>2016-09-12T09:29:07Z</time>
      </trkpt>
      <trkpt lat="45.90737" lon="4.57513">
        <ele>252</ele>
        <time>2016-09-12T09:29:09Z</time>
      </trkpt>
      <trkpt lat="45.90738" lon="4.57506">
        <ele>252</ele>
        <time>2016-09-12T09:29:10Z</time>
      </trkpt>
      <trkpt lat="45.90741" lon="4.57501">
        <ele>253</ele>
        <time>2016-09-12T09:29:11Z</time>
      </trkpt>
      <trkpt lat="45.90742" lon="4.57494">
        <ele>252</ele>
        <time>2016-09-12T09:29:12Z</time>
      </trkpt>
      <trkpt lat="45.90744" lon="4.57485">
        <ele>252</ele>
        <time>2016-09-12T09:29:13Z</time>
      </trkpt>
      <trkpt lat="45.90746" lon="4.57477">
        <ele>251</ele>
        <time>2016-09-12T09:29:14Z</time>
      </trkpt>
      <trkpt lat="45.90747" lon="4.57469">
        <ele>251</ele>
        <time>2016-09-12T09:29:15Z</time>
      </trkpt>
      <trkpt lat="45.90749" lon="4.57461">
        <ele>251</ele>
        <time>2016-09-12T09:29:16Z</time>
      </trkpt>
      <trkpt lat="45.9075" lon="4.57453">
        <ele>258</ele>
        <time>2016-09-12T09:29:17Z</time>
      </trkpt>
      <trkpt lat="45.90751" lon="4.57446">
        <ele>257</ele>
        <time>2016-09-12T09:29:18Z</time>
      </trkpt>
      <trkpt lat="45.90752" lon="4.57439">
        <ele>257</ele>
        <time>2016-09-12T09:29:19Z</time>
      </trkpt>
      <trkpt lat="45.90754" lon="4.57433">
        <ele>256</ele>
        <time>2016-09-12T09:29:20Z</time>
      </trkpt>
      <trkpt lat="45.90755" lon="4.57426">
        <ele>255</ele>
        <time>2016-09-12T09:29:21Z</time>
      </trkpt>
      <trkpt lat="45.90756" lon="4.57419">
        <ele>255</ele>
        <time>2016-09-12T09:29:22Z</time>
      </trkpt>
      <trkpt lat="45.90756" lon="4.57412">
        <ele>253</ele>
        <time>2016-09-12T09:29:23Z</time>
      </trkpt>
      <trkpt lat="45.90757" lon="4.57405">
        <ele>253</ele>
        <time>2016-09-12T09:29:24Z</time>
      </trkpt>
      <trkpt lat="45.90759" lon="4.57398">
        <ele>253</ele>
        <time>2016-09-12T09:29:25Z</time>
      </trkpt>
      <trkpt lat="45.90761" lon="4.57392">
        <ele>253</ele>
        <time>2016-09-12T09:29:26Z</time>
      </trkpt>
      <trkpt lat="45.90763" lon="4.57385">
        <ele>252</ele>
        <time>2016-09-12T09:29:27Z</time>
      </trkpt>
      <trkpt lat="45.90765" lon="4.57379">
        <ele>252</ele>
        <time>2016-09-12T09:29:28Z</time>
      </trkpt>
      <trkpt lat="45.90767" lon="4.57373">
        <ele>252</ele>
        <time>2016-09-12T09:29:29Z</time>
      </trkpt>
      <trkpt lat="45.90769" lon="4.57367">
        <ele>251</ele>
        <time>2016-09-12T09:29:30Z</time>
      </trkpt>
      <trkpt lat="45.90774" lon="4.57357">
        <ele>251</ele>
        <time>2016-09-12T09:29:32Z</time>
      </trkpt>
      <trkpt lat="45.90777" lon="4.57352">
        <ele>251</ele>
        <time>2016-09-12T09:29:33Z</time>
      </trkpt>
      <trkpt lat="45.9078" lon="4.57347">
        <ele>251</ele>
        <time>2016-09-12T09:29:34Z</time>
      </trkpt>
      <trkpt lat="45.90784" lon="4.57343">
        <ele>251</ele>
        <time>2016-09-12T09:29:35Z</time>
      </trkpt>
      <trkpt lat="45.90788" lon="4.57339">
        <ele>251</ele>
        <time>2016-09-12T09:29:36Z</time>
      </trkpt>
      <trkpt lat="45.90792" lon="4.57335">
        <ele>251</ele>
        <time>2016-09-12T09:29:37Z</time>
      </trkpt>
      <trkpt lat="45.90799" lon="4.57329">
        <ele>247</ele>
        <time>2016-09-12T09:29:39Z</time>
      </trkpt>
      <trkpt lat="45.90803" lon="4.57326">
        <ele>247</ele>
        <time>2016-09-12T09:29:40Z</time>
      </trkpt>
      <trkpt lat="45.90811" lon="4.57322">
        <ele>247</ele>
        <time>2016-09-12T09:29:42Z</time>
      </trkpt>
      <trkpt lat="45.90815" lon="4.57321">
        <ele>247</ele>
        <time>2016-09-12T09:29:43Z</time>
      </trkpt>
      <trkpt lat="45.9082" lon="4.57321">
        <ele>248</ele>
        <time>2016-09-12T09:29:44Z</time>
      </trkpt>
      <trkpt lat="45.90825" lon="4.57319">
        <ele>248</ele>
        <time>2016-09-12T09:29:45Z</time>
      </trkpt>
      <trkpt lat="45.90829" lon="4.57319">
        <ele>248</ele>
        <time>2016-09-12T09:29:46Z</time>
      </trkpt>
      <trkpt lat="45.90834" lon="4.57319">
        <ele>249</ele>
        <time>2016-09-12T09:29:47Z</time>
      </trkpt>
      <trkpt lat="45.90838" lon="4.5732">
        <ele>249</ele>
        <time>2016-09-12T09:29:48Z</time>
      </trkpt>
      <trkpt lat="45.90843" lon="4.57321">
        <ele>249</ele>
        <time>2016-09-12T09:29:49Z</time>
      </trkpt>
      <trkpt lat="45.90848" lon="4.57322">
        <ele>249</ele>
        <time>2016-09-12T09:29:50Z</time>
      </trkpt>
      <trkpt lat="45.90852" lon="4.57323">
        <ele>248</ele>
        <time>2016-09-12T09:29:51Z</time>
      </trkpt>
      <trkpt lat="45.90857" lon="4.57325">
        <ele>248</ele>
        <time>2016-09-12T09:29:52Z</time>
      </trkpt>
      <trkpt lat="45.90862" lon="4.57326">
        <ele>248</ele>
        <time>2016-09-12T09:29:53Z</time>
      </trkpt>
      <trkpt lat="45.90868" lon="4.57327">
        <ele>248</ele>
        <time>2016-09-12T09:29:54Z</time>
      </trkpt>
      <trkpt lat="45.90873" lon="4.57329">
        <ele>248</ele>
        <time>2016-09-12T09:29:55Z</time>
      </trkpt>
      <trkpt lat="45.90878" lon="4.5733">
        <ele>248</ele>
        <time>2016-09-12T09:29:56Z</time>
      </trkpt>
      <trkpt lat="45.90883" lon="4.57332">
        <ele>249</ele>
        <time>2016-09-12T09:29:57Z</time>
      </trkpt>
      <trkpt lat="45.90888" lon="4.57334">
        <ele>255</ele>
        <time>2016-09-12T09:29:58Z</time>
      </trkpt>
      <trkpt lat="45.90894" lon="4.57336">
        <ele>254</ele>
        <time>2016-09-12T09:29:59Z</time>
      </trkpt>
      <trkpt lat="45.90898" lon="4.57337">
        <ele>254</ele>
        <time>2016-09-12T09:30:00Z</time>
      </trkpt>
      <trkpt lat="45.90903" lon="4.57339">
        <ele>254</ele>
        <time>2016-09-12T09:30:01Z</time>
      </trkpt>
      <trkpt lat="45.90908" lon="4.57341">
        <ele>253</ele>
        <time>2016-09-12T09:30:02Z</time>
      </trkpt>
      <trkpt lat="45.90914" lon="4.57343">
        <ele>253</ele>
        <time>2016-09-12T09:30:03Z</time>
      </trkpt>
      <trkpt lat="45.90919" lon="4.57345">
        <ele>254</ele>
        <time>2016-09-12T09:30:04Z</time>
      </trkpt>
      <trkpt lat="45.90925" lon="4.57347">
        <ele>255</ele>
        <time>2016-09-12T09:30:05Z</time>
      </trkpt>
      <trkpt lat="45.90932" lon="4.57348">
        <ele>255</ele>
        <time>2016-09-12T09:30:06Z</time>
      </trkpt>
      <trkpt lat="45.90937" lon="4.5735">
        <ele>256</ele>
        <time>2016-09-12T09:30:07Z</time>
      </trkpt>
      <trkpt lat="45.90943" lon="4.57352">
        <ele>256</ele>
        <time>2016-09-12T09:30:08Z</time>
      </trkpt>
      <trkpt lat="45.90949" lon="4.57354">
        <ele>257</ele>
        <time>2016-09-12T09:30:09Z</time>
      </trkpt>
      <trkpt lat="45.90954" lon="4.57356">
        <ele>257</ele>
        <time>2016-09-12T09:30:10Z</time>
      </trkpt>
      <trkpt lat="45.90961" lon="4.57357">
        <ele>257</ele>
        <time>2016-09-12T09:30:11Z</time>
      </trkpt>
      <trkpt lat="45.90967" lon="4.57358">
        <ele>257</ele>
        <time>2016-09-12T09:30:12Z</time>
      </trkpt>
      <trkpt lat="45.90973" lon="4.57359">
        <ele>257</ele>
        <time>2016-09-12T09:30:13Z</time>
      </trkpt>
      <trkpt lat="45.90979" lon="4.5736">
        <ele>257</ele>
        <time>2016-09-12T09:30:14Z</time>
      </trkpt>
      <trkpt lat="45.90985" lon="4.57361">
        <ele>257</ele>
        <time>2016-09-12T09:30:15Z</time>
      </trkpt>
      <trkpt lat="45.90991" lon="4.57361">
        <ele>257</ele>
        <time>2016-09-12T09:30:16Z</time>
      </trkpt>
      <trkpt lat="45.90997" lon="4.5736">
        <ele>257</ele>
        <time>2016-09-12T09:30:17Z</time>
      </trkpt>
      <trkpt lat="45.91003" lon="4.57359">
        <ele>259</ele>
        <time>2016-09-12T09:30:18Z</time>
      </trkpt>
      <trkpt lat="45.91009" lon="4.57358">
        <ele>259</ele>
        <time>2016-09-12T09:30:19Z</time>
      </trkpt>
      <trkpt lat="45.91015" lon="4.57357">
        <ele>259</ele>
        <time>2016-09-12T09:30:20Z</time>
      </trkpt>
      <trkpt lat="45.91022" lon="4.57356">
        <ele>259</ele>
        <time>2016-09-12T09:30:21Z</time>
      </trkpt>
      <trkpt lat="45.91028" lon="4.57355">
        <ele>260</ele>
        <time>2016-09-12T09:30:22Z</time>
      </trkpt>
      <trkpt lat="45.91033" lon="4.57353">
        <ele>260</ele>
        <time>2016-09-12T09:30:23Z</time>
      </trkpt>
      <trkpt lat="45.91039" lon="4.57351">
        <ele>260</ele>
        <time>2016-09-12T09:30:24Z</time>
      </trkpt>
      <trkpt lat="45.91046" lon="4.57349">
        <ele>260</ele>
        <time>2016-09-12T09:30:25Z</time>
      </trkpt>
      <trkpt lat="45.91052" lon="4.57347">
        <ele>260</ele>
        <time>2016-09-12T09:30:26Z</time>
      </trkpt>
      <trkpt lat="45.91058" lon="4.57344">
        <ele>260</ele>
        <time>2016-09-12T09:30:27Z</time>
      </trkpt>
      <trkpt lat="45.91064" lon="4.57341">
        <ele>260</ele>
        <time>2016-09-12T09:30:28Z</time>
      </trkpt>
      <trkpt lat="45.91071" lon="4.57337">
        <ele>259</ele>
        <time>2016-09-12T09:30:29Z</time>
      </trkpt>
      <trkpt lat="45.91078" lon="4.57333">
        <ele>257</ele>
        <time>2016-09-12T09:30:30Z</time>
      </trkpt>
      <trkpt lat="45.91084" lon="4.57329">
        <ele>258</ele>
        <time>2016-09-12T09:30:31Z</time>
      </trkpt>
      <trkpt lat="45.91091" lon="4.57324">
        <ele>257</ele>
        <time>2016-09-12T09:30:32Z</time>
      </trkpt>
      <trkpt lat="45.91097" lon="4.57319">
        <ele>257</ele>
        <time>2016-09-12T09:30:33Z</time>
      </trkpt>
      <trkpt lat="45.91103" lon="4.57314">
        <ele>256</ele>
        <time>2016-09-12T09:30:34Z</time>
      </trkpt>
      <trkpt lat="45.91108" lon="4.5731">
        <ele>256</ele>
        <time>2016-09-12T09:30:35Z</time>
      </trkpt>
      <trkpt lat="45.91113" lon="4.57305">
        <ele>256</ele>
        <time>2016-09-12T09:30:36Z</time>
      </trkpt>
      <trkpt lat="45.91119" lon="4.57301">
        <ele>256</ele>
        <time>2016-09-12T09:30:37Z</time>
      </trkpt>
      <trkpt lat="45.91124" lon="4.57296">
        <ele>256</ele>
        <time>2016-09-12T09:30:38Z</time>
      </trkpt>
      <trkpt lat="45.91129" lon="4.57291">
        <ele>256</ele>
        <time>2016-09-12T09:30:39Z</time>
      </trkpt>
      <trkpt lat="45.91133" lon="4.57286">
        <ele>255</ele>
        <time>2016-09-12T09:30:40Z</time>
      </trkpt>
      <trkpt lat="45.91138" lon="4.57282">
        <ele>255</ele>
        <time>2016-09-12T09:30:41Z</time>
      </trkpt>
      <trkpt lat="45.91143" lon="4.57279">
        <ele>255</ele>
        <time>2016-09-12T09:30:42Z</time>
      </trkpt>
      <trkpt lat="45.91149" lon="4.57274">
        <ele>255</ele>
        <time>2016-09-12T09:30:43Z</time>
      </trkpt>
      <trkpt lat="45.91154" lon="4.57269">
        <ele>254</ele>
        <time>2016-09-12T09:30:44Z</time>
      </trkpt>
      <trkpt lat="45.91159" lon="4.57264">
        <ele>254</ele>
        <time>2016-09-12T09:30:45Z</time>
      </trkpt>
      <trkpt lat="45.91165" lon="4.57259">
        <ele>253</ele>
        <time>2016-09-12T09:30:46Z</time>
      </trkpt>
      <trkpt lat="45.9117" lon="4.57256">
        <ele>254</ele>
        <time>2016-09-12T09:30:47Z</time>
      </trkpt>
      <trkpt lat="45.91175" lon="4.57251">
        <ele>255</ele>
        <time>2016-09-12T09:30:48Z</time>
      </trkpt>
      <trkpt lat="45.91181" lon="4.57246">
        <ele>252</ele>
        <time>2016-09-12T09:30:49Z</time>
      </trkpt>
      <trkpt lat="45.91186" lon="4.57242">
        <ele>252</ele>
        <time>2016-09-12T09:30:50Z</time>
      </trkpt>
      <trkpt lat="45.91192" lon="4.57238">
        <ele>252</ele>
        <time>2016-09-12T09:30:51Z</time>
      </trkpt>
      <trkpt lat="45.91198" lon="4.57235">
        <ele>252</ele>
        <time>2016-09-12T09:30:52Z</time>
      </trkpt>
      <trkpt lat="45.91205" lon="4.57231">
        <ele>252</ele>
        <time>2016-09-12T09:30:53Z</time>
      </trkpt>
      <trkpt lat="45.91211" lon="4.57228">
        <ele>252</ele>
        <time>2016-09-12T09:30:54Z</time>
      </trkpt>
      <trkpt lat="45.91217" lon="4.57225">
        <ele>253</ele>
        <time>2016-09-12T09:30:55Z</time>
      </trkpt>
      <trkpt lat="45.91224" lon="4.57222">
        <ele>253</ele>
        <time>2016-09-12T09:30:56Z</time>
      </trkpt>
      <trkpt lat="45.91231" lon="4.57218">
        <ele>253</ele>
        <time>2016-09-12T09:30:57Z</time>
      </trkpt>
      <trkpt lat="45.91237" lon="4.57215">
        <ele>253</ele>
        <time>2016-09-12T09:30:58Z</time>
      </trkpt>
      <trkpt lat="45.91244" lon="4.57212">
        <ele>252</ele>
        <time>2016-09-12T09:30:59Z</time>
      </trkpt>
      <trkpt lat="45.9125" lon="4.57209">
        <ele>252</ele>
        <time>2016-09-12T09:31:00Z</time>
      </trkpt>
      <trkpt lat="45.91256" lon="4.57206">
        <ele>256</ele>
        <time>2016-09-12T09:31:01Z</time>
      </trkpt>
      <trkpt lat="45.91262" lon="4.57203">
        <ele>256</ele>
        <time>2016-09-12T09:31:02Z</time>
      </trkpt>
      <trkpt lat="45.91268" lon="4.57199">
        <ele>256</ele>
        <time>2016-09-12T09:31:03Z</time>
      </trkpt>
      <trkpt lat="45.91275" lon="4.57196">
        <ele>256</ele>
        <time>2016-09-12T09:31:04Z</time>
      </trkpt>
      <trkpt lat="45.91281" lon="4.57193">
        <ele>256</ele>
        <time>2016-09-12T09:31:05Z</time>
      </trkpt>
      <trkpt lat="45.91288" lon="4.57191">
        <ele>256</ele>
        <time>2016-09-12T09:31:06Z</time>
      </trkpt>
      <trkpt lat="45.91294" lon="4.57188">
        <ele>256</ele>
        <time>2016-09-12T09:31:07Z</time>
      </trkpt>
      <trkpt lat="45.913" lon="4.57185">
        <ele>256</ele>
        <time>2016-09-12T09:31:08Z</time>
      </trkpt>
      <trkpt lat="45.91307" lon="4.57182">
        <ele>256</ele>
        <time>2016-09-12T09:31:09Z</time>
      </trkpt>
      <trkpt lat="45.91313" lon="4.57179">
        <ele>256</ele>
        <time>2016-09-12T09:31:10Z</time>
      </trkpt>
      <trkpt lat="45.9132" lon="4.57176">
        <ele>256</ele>
        <time>2016-09-12T09:31:11Z</time>
      </trkpt>
      <trkpt lat="45.91326" lon="4.57173">
        <ele>255</ele>
        <time>2016-09-12T09:31:12Z</time>
      </trkpt>
      <trkpt lat="45.91333" lon="4.57169">
        <ele>254</ele>
        <time>2016-09-12T09:31:13Z</time>
      </trkpt>
      <trkpt lat="45.9134" lon="4.57167">
        <ele>256</ele>
        <time>2016-09-12T09:31:14Z</time>
      </trkpt>
      <trkpt lat="45.91347" lon="4.57164">
        <ele>253</ele>
        <time>2016-09-12T09:31:15Z</time>
      </trkpt>
      <trkpt lat="45.91354" lon="4.57161">
        <ele>253</ele>
        <time>2016-09-12T09:31:16Z</time>
      </trkpt>
      <trkpt lat="45.91361" lon="4.5716">
        <ele>253</ele>
        <time>2016-09-12T09:31:17Z</time>
      </trkpt>
      <trkpt lat="45.91367" lon="4.57157">
        <ele>253</ele>
        <time>2016-09-12T09:31:18Z</time>
      </trkpt>
      <trkpt lat="45.91374" lon="4.57155">
        <ele>253</ele>
        <time>2016-09-12T09:31:19Z</time>
      </trkpt>
      <trkpt lat="45.91381" lon="4.57154">
        <ele>253</ele>
        <time>2016-09-12T09:31:20Z</time>
      </trkpt>
      <trkpt lat="45.91387" lon="4.57152">
        <ele>253</ele>
        <time>2016-09-12T09:31:21Z</time>
      </trkpt>
      <trkpt lat="45.91393" lon="4.5715">
        <ele>253</ele>
        <time>2016-09-12T09:31:22Z</time>
      </trkpt>
      <trkpt lat="45.914" lon="4.57148">
        <ele>253</ele>
        <time>2016-09-12T09:31:23Z</time>
      </trkpt>
      <trkpt lat="45.91407" lon="4.57146">
        <ele>253</ele>
        <time>2016-09-12T09:31:24Z</time>
      </trkpt>
      <trkpt lat="45.91413" lon="4.57143">
        <ele>253</ele>
        <time>2016-09-12T09:31:25Z</time>
      </trkpt>
      <trkpt lat="45.91419" lon="4.57142">
        <ele>255</ele>
        <time>2016-09-12T09:31:26Z</time>
      </trkpt>
      <trkpt lat="45.91426" lon="4.57139">
        <ele>255</ele>
        <time>2016-09-12T09:31:27Z</time>
      </trkpt>
      <trkpt lat="45.91432" lon="4.57138">
        <ele>255</ele>
        <time>2016-09-12T09:31:28Z</time>
      </trkpt>
      <trkpt lat="45.91439" lon="4.57137">
        <ele>255</ele>
        <time>2016-09-12T09:31:29Z</time>
      </trkpt>
      <trkpt lat="45.91446" lon="4.57135">
        <ele>255</ele>
        <time>2016-09-12T09:31:30Z</time>
      </trkpt>
      <trkpt lat="45.91452" lon="4.57132">
        <ele>255</ele>
        <time>2016-09-12T09:31:31Z</time>
      </trkpt>
      <trkpt lat="45.91458" lon="4.5713">
        <ele>255</ele>
        <time>2016-09-12T09:31:32Z</time>
      </trkpt>
      <trkpt lat="45.91464" lon="4.57128">
        <ele>255</ele>
        <time>2016-09-12T09:31:33Z</time>
      </trkpt>
      <trkpt lat="45.91471" lon="4.57126">
        <ele>256</ele>
        <time>2016-09-12T09:31:34Z</time>
      </trkpt>
      <trkpt lat="45.91477" lon="4.57124">
        <ele>256</ele>
        <time>2016-09-12T09:31:35Z</time>
      </trkpt>
      <trkpt lat="45.91483" lon="4.57123">
        <ele>256</ele>
        <time>2016-09-12T09:31:36Z</time>
      </trkpt>
      <trkpt lat="45.9149" lon="4.57123">
        <ele>256</ele>
        <time>2016-09-12T09:31:37Z</time>
      </trkpt>
      <trkpt lat="45.91497" lon="4.57122">
        <ele>256</ele>
        <time>2016-09-12T09:31:38Z</time>
      </trkpt>
      <trkpt lat="45.91504" lon="4.57121">
        <ele>259</ele>
        <time>2016-09-12T09:31:39Z</time>
      </trkpt>
      <trkpt lat="45.91511" lon="4.5712">
        <ele>259</ele>
        <time>2016-09-12T09:31:40Z</time>
      </trkpt>
      <trkpt lat="45.91518" lon="4.57119">
        <ele>259</ele>
        <time>2016-09-12T09:31:41Z</time>
      </trkpt>
      <trkpt lat="45.91525" lon="4.57118">
        <ele>259</ele>
        <time>2016-09-12T09:31:42Z</time>
      </trkpt>
      <trkpt lat="45.91532" lon="4.57116">
        <ele>259</ele>
        <time>2016-09-12T09:31:43Z</time>
      </trkpt>
      <trkpt lat="45.91539" lon="4.57116">
        <ele>259</ele>
        <time>2016-09-12T09:31:44Z</time>
      </trkpt>
      <trkpt lat="45.91545" lon="4.57114">
        <ele>259</ele>
        <time>2016-09-12T09:31:45Z</time>
      </trkpt>
      <trkpt lat="45.91551" lon="4.57112">
        <ele>259</ele>
        <time>2016-09-12T09:31:46Z</time>
      </trkpt>
      <trkpt lat="45.91558" lon="4.57109">
        <ele>259</ele>
        <time>2016-09-12T09:31:47Z</time>
      </trkpt>
      <trkpt lat="45.91565" lon="4.57107">
        <ele>258</ele>
        <time>2016-09-12T09:31:48Z</time>
      </trkpt>
      <trkpt lat="45.91571" lon="4.57104">
        <ele>258</ele>
        <time>2016-09-12T09:31:49Z</time>
      </trkpt>
      <trkpt lat="45.91578" lon="4.57103">
        <ele>257</ele>
        <time>2016-09-12T09:31:50Z</time>
      </trkpt>
      <trkpt lat="45.91584" lon="4.57101">
        <ele>260</ele>
        <time>2016-09-12T09:31:51Z</time>
      </trkpt>
      <trkpt lat="45.91591" lon="4.57098">
        <ele>260</ele>
        <time>2016-09-12T09:31:52Z</time>
      </trkpt>
      <trkpt lat="45.91597" lon="4.57096">
        <ele>261</ele>
        <time>2016-09-12T09:31:53Z</time>
      </trkpt>
      <trkpt lat="45.91603" lon="4.57093">
        <ele>262</ele>
        <time>2016-09-12T09:31:54Z</time>
      </trkpt>
      <trkpt lat="45.9161" lon="4.57091">
        <ele>263</ele>
        <time>2016-09-12T09:31:55Z</time>
      </trkpt>
      <trkpt lat="45.91617" lon="4.57088">
        <ele>264</ele>
        <time>2016-09-12T09:31:56Z</time>
      </trkpt>
      <trkpt lat="45.91623" lon="4.57085">
        <ele>264</ele>
        <time>2016-09-12T09:31:57Z</time>
      </trkpt>
      <trkpt lat="45.91629" lon="4.57081">
        <ele>255</ele>
        <time>2016-09-12T09:31:58Z</time>
      </trkpt>
      <trkpt lat="45.91636" lon="4.57078">
        <ele>256</ele>
        <time>2016-09-12T09:31:59Z</time>
      </trkpt>
      <trkpt lat="45.91642" lon="4.57075">
        <ele>256</ele>
        <time>2016-09-12T09:32:00Z</time>
      </trkpt>
      <trkpt lat="45.91648" lon="4.57071">
        <ele>257</ele>
        <time>2016-09-12T09:32:01Z</time>
      </trkpt>
      <trkpt lat="45.91655" lon="4.57067">
        <ele>257</ele>
        <time>2016-09-12T09:32:02Z</time>
      </trkpt>
      <trkpt lat="45.91661" lon="4.57064">
        <ele>257</ele>
        <time>2016-09-12T09:32:03Z</time>
      </trkpt>
      <trkpt lat="45.91667" lon="4.5706">
        <ele>260</ele>
        <time>2016-09-12T09:32:04Z</time>
      </trkpt>
      <trkpt lat="45.91674" lon="4.57058">
        <ele>259</ele>
        <time>2016-09-12T09:32:05Z</time>
      </trkpt>
      <trkpt lat="45.91681" lon="4.57055">
        <ele>259</ele>
        <time>2016-09-12T09:32:06Z</time>
      </trkpt>
      <trkpt lat="45.91687" lon="4.57052">
        <ele>259</ele>
        <time>2016-09-12T09:32:07Z</time>
      </trkpt>
      <trkpt lat="45.91693" lon="4.57049">
        <ele>258</ele>
        <time>2016-09-12T09:32:08Z</time>
      </trkpt>
      <trkpt lat="45.91699" lon="4.57046">
        <ele>258</ele>
        <time>2016-09-12T09:32:09Z</time>
      </trkpt>
      <trkpt lat="45.91705" lon="4.57043">
        <ele>258</ele>
        <time>2016-09-12T09:32:10Z</time>
      </trkpt>
      <trkpt lat="45.91711" lon="4.57039">
        <ele>258</ele>
        <time>2016-09-12T09:32:11Z</time>
      </trkpt>
      <trkpt lat="45.91717" lon="4.57036">
        <ele>258</ele>
        <time>2016-09-12T09:32:12Z</time>
      </trkpt>
      <trkpt lat="45.91723" lon="4.57033">
        <ele>257</ele>
        <time>2016-09-12T09:32:13Z</time>
      </trkpt>
      <trkpt lat="45.9173" lon="4.57032">
        <ele>257</ele>
        <time>2016-09-12T09:32:14Z</time>
      </trkpt>
      <trkpt lat="45.91737" lon="4.57029">
        <ele>257</ele>
        <time>2016-09-12T09:32:15Z</time>
      </trkpt>
      <trkpt lat="45.91742" lon="4.57027">
        <ele>257</ele>
        <time>2016-09-12T09:32:16Z</time>
      </trkpt>
      <trkpt lat="45.91747" lon="4.57025">
        <ele>256</ele>
        <time>2016-09-12T09:32:17Z</time>
      </trkpt>
      <trkpt lat="45.91754" lon="4.57022">
        <ele>259</ele>
        <time>2016-09-12T09:32:18Z</time>
      </trkpt>
      <trkpt lat="45.91759" lon="4.57019">
        <ele>259</ele>
        <time>2016-09-12T09:32:19Z</time>
      </trkpt>
      <trkpt lat="45.91765" lon="4.57016">
        <ele>259</ele>
        <time>2016-09-12T09:32:20Z</time>
      </trkpt>
      <trkpt lat="45.91772" lon="4.57012">
        <ele>260</ele>
        <time>2016-09-12T09:32:21Z</time>
      </trkpt>
      <trkpt lat="45.91777" lon="4.5701">
        <ele>260</ele>
        <time>2016-09-12T09:32:22Z</time>
      </trkpt>
      <trkpt lat="45.91783" lon="4.57007">
        <ele>261</ele>
        <time>2016-09-12T09:32:23Z</time>
      </trkpt>
      <trkpt lat="45.91789" lon="4.57004">
        <ele>261</ele>
        <time>2016-09-12T09:32:24Z</time>
      </trkpt>
      <trkpt lat="45.91795" lon="4.57">
        <ele>262</ele>
        <time>2016-09-12T09:32:25Z</time>
      </trkpt>
      <trkpt lat="45.918" lon="4.56996">
        <ele>256</ele>
        <time>2016-09-12T09:32:26Z</time>
      </trkpt>
      <trkpt lat="45.91806" lon="4.56992">
        <ele>256</ele>
        <time>2016-09-12T09:32:27Z</time>
      </trkpt>
      <trkpt lat="45.91811" lon="4.56988">
        <ele>257</ele>
        <time>2016-09-12T09:32:28Z</time>
      </trkpt>
      <trkpt lat="45.91816" lon="4.56984">
        <ele>257</ele>
        <time>2016-09-12T09:32:29Z</time>
      </trkpt>
      <trkpt lat="45.91822" lon="4.56979">
        <ele>257</ele>
        <time>2016-09-12T09:32:30Z</time>
      </trkpt>
      <trkpt lat="45.91827" lon="4.56975">
        <ele>257</ele>
        <time>2016-09-12T09:32:31Z</time>
      </trkpt>
      <trkpt lat="45.91833" lon="4.56971">
        <ele>256</ele>
        <time>2016-09-12T09:32:32Z</time>
      </trkpt>
      <trkpt lat="45.91838" lon="4.56966">
        <ele>261</ele>
        <time>2016-09-12T09:32:33Z</time>
      </trkpt>
      <trkpt lat="45.91844" lon="4.56961">
        <ele>261</ele>
        <time>2016-09-12T09:32:34Z</time>
      </trkpt>
      <trkpt lat="45.91849" lon="4.56956">
        <ele>261</ele>
        <time>2016-09-12T09:32:35Z</time>
      </trkpt>
      <trkpt lat="45.91854" lon="4.56951">
        <ele>260</ele>
        <time>2016-09-12T09:32:36Z</time>
      </trkpt>
      <trkpt lat="45.91859" lon="4.56946">
        <ele>260</ele>
        <time>2016-09-12T09:32:37Z</time>
      </trkpt>
      <trkpt lat="45.91863" lon="4.56942">
        <ele>260</ele>
        <time>2016-09-12T09:32:38Z</time>
      </trkpt>
      <trkpt lat="45.91868" lon="4.56937">
        <ele>261</ele>
        <time>2016-09-12T09:32:39Z</time>
      </trkpt>
      <trkpt lat="45.91873" lon="4.56932">
        <ele>261</ele>
        <time>2016-09-12T09:32:40Z</time>
      </trkpt>
      <trkpt lat="45.91877" lon="4.56927">
        <ele>261</ele>
        <time>2016-09-12T09:32:41Z</time>
      </trkpt>
      <trkpt lat="45.91882" lon="4.56922">
        <ele>261</ele>
        <time>2016-09-12T09:32:42Z</time>
      </trkpt>
      <trkpt lat="45.91887" lon="4.56917">
        <ele>261</ele>
        <time>2016-09-12T09:32:43Z</time>
      </trkpt>
      <trkpt lat="45.91891" lon="4.56913">
        <ele>257</ele>
        <time>2016-09-12T09:32:44Z</time>
      </trkpt>
      <trkpt lat="45.91896" lon="4.56908">
        <ele>257</ele>
        <time>2016-09-12T09:32:45Z</time>
      </trkpt>
      <trkpt lat="45.91901" lon="4.56903">
        <ele>258</ele>
        <time>2016-09-12T09:32:46Z</time>
      </trkpt>
      <trkpt lat="45.91906" lon="4.56897">
        <ele>257</ele>
        <time>2016-09-12T09:32:47Z</time>
      </trkpt>
      <trkpt lat="45.91911" lon="4.56891">
        <ele>257</ele>
        <time>2016-09-12T09:32:48Z</time>
      </trkpt>
      <trkpt lat="45.91916" lon="4.56885">
        <ele>256</ele>
        <time>2016-09-12T09:32:49Z</time>
      </trkpt>
      <trkpt lat="45.91921" lon="4.56879">
        <ele>262</ele>
        <time>2016-09-12T09:32:50Z</time>
      </trkpt>
      <trkpt lat="45.91926" lon="4.56873">
        <ele>262</ele>
        <time>2016-09-12T09:32:51Z</time>
      </trkpt>
      <trkpt lat="45.91931" lon="4.56868">
        <ele>261</ele>
        <time>2016-09-12T09:32:52Z</time>
      </trkpt>
      <trkpt lat="45.91935" lon="4.56863">
        <ele>261</ele>
        <time>2016-09-12T09:32:53Z</time>
      </trkpt>
      <trkpt lat="45.9194" lon="4.56857">
        <ele>261</ele>
        <time>2016-09-12T09:32:54Z</time>
      </trkpt>
      <trkpt lat="45.91945" lon="4.56852">
        <ele>261</ele>
        <time>2016-09-12T09:32:55Z</time>
      </trkpt>
      <trkpt lat="45.9195" lon="4.56847">
        <ele>261</ele>
        <time>2016-09-12T09:32:56Z</time>
      </trkpt>
      <trkpt lat="45.91955" lon="4.56842">
        <ele>262</ele>
        <time>2016-09-12T09:32:57Z</time>
      </trkpt>
      <trkpt lat="45.9196" lon="4.56836">
        <ele>262</ele>
        <time>2016-09-12T09:32:58Z</time>
      </trkpt>
      <trkpt lat="45.91964" lon="4.5683">
        <ele>257</ele>
        <time>2016-09-12T09:32:59Z</time>
      </trkpt>
      <trkpt lat="45.91969" lon="4.56825">
        <ele>257</ele>
        <time>2016-09-12T09:33:00Z</time>
      </trkpt>
      <trkpt lat="45.91974" lon="4.56819">
        <ele>258</ele>
        <time>2016-09-12T09:33:01Z</time>
      </trkpt>
      <trkpt lat="45.91979" lon="4.56814">
        <ele>258</ele>
        <time>2016-09-12T09:33:02Z</time>
      </trkpt>
      <trkpt lat="45.91984" lon="4.56808">
        <ele>258</ele>
        <time>2016-09-12T09:33:03Z</time>
      </trkpt>
      <trkpt lat="45.9199" lon="4.56802">
        <ele>257</ele>
        <time>2016-09-12T09:33:04Z</time>
      </trkpt>
      <trkpt lat="45.91995" lon="4.56796">
        <ele>257</ele>
        <time>2016-09-12T09:33:05Z</time>
      </trkpt>
      <trkpt lat="45.92" lon="4.5679">
        <ele>261</ele>
        <time>2016-09-12T09:33:06Z</time>
      </trkpt>
      <trkpt lat="45.92005" lon="4.56784">
        <ele>261</ele>
        <time>2016-09-12T09:33:07Z</time>
      </trkpt>
      <trkpt lat="45.9201" lon="4.56779">
        <ele>260</ele>
        <time>2016-09-12T09:33:08Z</time>
      </trkpt>
      <trkpt lat="45.92015" lon="4.56773">
        <ele>260</ele>
        <time>2016-09-12T09:33:09Z</time>
      </trkpt>
      <trkpt lat="45.92021" lon="4.56766">
        <ele>260</ele>
        <time>2016-09-12T09:33:10Z</time>
      </trkpt>
      <trkpt lat="45.92026" lon="4.5676">
        <ele>260</ele>
        <time>2016-09-12T09:33:11Z</time>
      </trkpt>
      <trkpt lat="45.92031" lon="4.56754">
        <ele>260</ele>
        <time>2016-09-12T09:33:12Z</time>
      </trkpt>
      <trkpt lat="45.92037" lon="4.56747">
        <ele>256</ele>
        <time>2016-09-12T09:33:13Z</time>
      </trkpt>
      <trkpt lat="45.92042" lon="4.5674">
        <ele>256</ele>
        <time>2016-09-12T09:33:14Z</time>
      </trkpt>
      <trkpt lat="45.92048" lon="4.56733">
        <ele>256</ele>
        <time>2016-09-12T09:33:15Z</time>
      </trkpt>
      <trkpt lat="45.92053" lon="4.56725">
        <ele>256</ele>
        <time>2016-09-12T09:33:16Z</time>
      </trkpt>
      <trkpt lat="45.92058" lon="4.56718">
        <ele>256</ele>
        <time>2016-09-12T09:33:17Z</time>
      </trkpt>
      <trkpt lat="45.92063" lon="4.5671">
        <ele>256</ele>
        <time>2016-09-12T09:33:18Z</time>
      </trkpt>
      <trkpt lat="45.92068" lon="4.56703">
        <ele>256</ele>
        <time>2016-09-12T09:33:19Z</time>
      </trkpt>
      <trkpt lat="45.92073" lon="4.56696">
        <ele>256</ele>
        <time>2016-09-12T09:33:20Z</time>
      </trkpt>
      <trkpt lat="45.92078" lon="4.5669">
        <ele>256</ele>
        <time>2016-09-12T09:33:21Z</time>
      </trkpt>
      <trkpt lat="45.92084" lon="4.56684">
        <ele>260</ele>
        <time>2016-09-12T09:33:22Z</time>
      </trkpt>
      <trkpt lat="45.92089" lon="4.56677">
        <ele>259</ele>
        <time>2016-09-12T09:33:23Z</time>
      </trkpt>
      <trkpt lat="45.92093" lon="4.56671">
        <ele>259</ele>
        <time>2016-09-12T09:33:24Z</time>
      </trkpt>
      <trkpt lat="45.92098" lon="4.56665">
        <ele>257</ele>
        <time>2016-09-12T09:33:25Z</time>
      </trkpt>
      <trkpt lat="45.92103" lon="4.5666">
        <ele>257</ele>
        <time>2016-09-12T09:33:26Z</time>
      </trkpt>
      <trkpt lat="45.92109" lon="4.56655">
        <ele>257</ele>
        <time>2016-09-12T09:33:27Z</time>
      </trkpt>
      <trkpt lat="45.92114" lon="4.56651">
        <ele>257</ele>
        <time>2016-09-12T09:33:28Z</time>
      </trkpt>
      <trkpt lat="45.92119" lon="4.56648">
        <ele>258</ele>
        <time>2016-09-12T09:33:29Z</time>
      </trkpt>
      <trkpt lat="45.92126" lon="4.56645">
        <ele>258</ele>
        <time>2016-09-12T09:33:30Z</time>
      </trkpt>
      <trkpt lat="45.92132" lon="4.56642">
        <ele>258</ele>
        <time>2016-09-12T09:33:31Z</time>
      </trkpt>
      <trkpt lat="45.92137" lon="4.56638">
        <ele>258</ele>
        <time>2016-09-12T09:33:32Z</time>
      </trkpt>
      <trkpt lat="45.92143" lon="4.56634">
        <ele>258</ele>
        <time>2016-09-12T09:33:33Z</time>
      </trkpt>
      <trkpt lat="45.92148" lon="4.56631">
        <ele>258</ele>
        <time>2016-09-12T09:33:34Z</time>
      </trkpt>
      <trkpt lat="45.92154" lon="4.56627">
        <ele>258</ele>
        <time>2016-09-12T09:33:35Z</time>
      </trkpt>
      <trkpt lat="45.92159" lon="4.56622">
        <ele>258</ele>
        <time>2016-09-12T09:33:36Z</time>
      </trkpt>
      <trkpt lat="45.92164" lon="4.56618">
        <ele>257</ele>
        <time>2016-09-12T09:33:37Z</time>
      </trkpt>
      <trkpt lat="45.92169" lon="4.56614">
        <ele>262</ele>
        <time>2016-09-12T09:33:38Z</time>
      </trkpt>
      <trkpt lat="45.92174" lon="4.56609">
        <ele>262</ele>
        <time>2016-09-12T09:33:39Z</time>
      </trkpt>
      <trkpt lat="45.9218" lon="4.56605">
        <ele>262</ele>
        <time>2016-09-12T09:33:40Z</time>
      </trkpt>
      <trkpt lat="45.92185" lon="4.566">
        <ele>261</ele>
        <time>2016-09-12T09:33:41Z</time>
      </trkpt>
      <trkpt lat="45.9219" lon="4.56594">
        <ele>262</ele>
        <time>2016-09-12T09:33:42Z</time>
      </trkpt>
      <trkpt lat="45.92194" lon="4.56589">
        <ele>262</ele>
        <time>2016-09-12T09:33:43Z</time>
      </trkpt>
      <trkpt lat="45.92199" lon="4.56583">
        <ele>258</ele>
        <time>2016-09-12T09:33:44Z</time>
      </trkpt>
      <trkpt lat="45.92203" lon="4.56576">
        <ele>258</ele>
        <time>2016-09-12T09:33:45Z</time>
      </trkpt>
      <trkpt lat="45.92208" lon="4.56571">
        <ele>258</ele>
        <time>2016-09-12T09:33:46Z</time>
      </trkpt>
      <trkpt lat="45.92212" lon="4.56565">
        <ele>259</ele>
        <time>2016-09-12T09:33:47Z</time>
      </trkpt>
      <trkpt lat="45.92217" lon="4.56558">
        <ele>259</ele>
        <time>2016-09-12T09:33:48Z</time>
      </trkpt>
      <trkpt lat="45.92221" lon="4.56551">
        <ele>259</ele>
        <time>2016-09-12T09:33:49Z</time>
      </trkpt>
      <trkpt lat="45.92225" lon="4.56544">
        <ele>259</ele>
        <time>2016-09-12T09:33:50Z</time>
      </trkpt>
      <trkpt lat="45.92229" lon="4.56536">
        <ele>259</ele>
        <time>2016-09-12T09:33:51Z</time>
      </trkpt>
      <trkpt lat="45.92233" lon="4.56529">
        <ele>258</ele>
        <time>2016-09-12T09:33:52Z</time>
      </trkpt>
      <trkpt lat="45.92236" lon="4.56521">
        <ele>258</ele>
        <time>2016-09-12T09:33:53Z</time>
      </trkpt>
      <trkpt lat="45.92238" lon="4.56514">
        <ele>258</ele>
        <time>2016-09-12T09:33:54Z</time>
      </trkpt>
      <trkpt lat="45.92241" lon="4.56506">
        <ele>259</ele>
        <time>2016-09-12T09:33:55Z</time>
      </trkpt>
      <trkpt lat="45.92244" lon="4.56498">
        <ele>258</ele>
        <time>2016-09-12T09:33:56Z</time>
      </trkpt>
      <trkpt lat="45.92246" lon="4.5649">
        <ele>257</ele>
        <time>2016-09-12T09:33:57Z</time>
      </trkpt>
      <trkpt lat="45.92249" lon="4.56482">
        <ele>256</ele>
        <time>2016-09-12T09:33:58Z</time>
      </trkpt>
      <trkpt lat="45.92252" lon="4.56474">
        <ele>261</ele>
        <time>2016-09-12T09:33:59Z</time>
      </trkpt>
      <trkpt lat="45.92255" lon="4.56466">
        <ele>261</ele>
        <time>2016-09-12T09:34:00Z</time>
      </trkpt>
      <trkpt lat="45.92257" lon="4.56458">
        <ele>260</ele>
        <time>2016-09-12T09:34:01Z</time>
      </trkpt>
      <trkpt lat="45.9226" lon="4.5645">
        <ele>260</ele>
        <time>2016-09-12T09:34:02Z</time>
      </trkpt>
      <trkpt lat="45.92262" lon="4.56442">
        <ele>260</ele>
        <time>2016-09-12T09:34:03Z</time>
      </trkpt>
      <trkpt lat="45.92264" lon="4.56434">
        <ele>259</ele>
        <time>2016-09-12T09:34:04Z</time>
      </trkpt>
      <trkpt lat="45.92266" lon="4.56426">
        <ele>259</ele>
        <time>2016-09-12T09:34:05Z</time>
      </trkpt>
      <trkpt lat="45.92268" lon="4.56418">
        <ele>259</ele>
        <time>2016-09-12T09:34:06Z</time>
      </trkpt>
      <trkpt lat="45.9227" lon="4.5641">
        <ele>257</ele>
        <time>2016-09-12T09:34:07Z</time>
      </trkpt>
      <trkpt lat="45.92272" lon="4.56403">
        <ele>257</ele>
        <time>2016-09-12T09:34:08Z</time>
      </trkpt>
      <trkpt lat="45.92273" lon="4.56395">
        <ele>257</ele>
        <time>2016-09-12T09:34:09Z</time>
      </trkpt>
      <trkpt lat="45.92274" lon="4.56387">
        <ele>257</ele>
        <time>2016-09-12T09:34:10Z</time>
      </trkpt>
      <trkpt lat="45.92276" lon="4.56378">
        <ele>257</ele>
        <time>2016-09-12T09:34:11Z</time>
      </trkpt>
      <trkpt lat="45.92277" lon="4.56369">
        <ele>257</ele>
        <time>2016-09-12T09:34:12Z</time>
      </trkpt>
      <trkpt lat="45.92278" lon="4.5636">
        <ele>257</ele>
        <time>2016-09-12T09:34:13Z</time>
      </trkpt>
      <trkpt lat="45.92278" lon="4.56351">
        <ele>257</ele>
        <time>2016-09-12T09:34:14Z</time>
      </trkpt>
      <trkpt lat="45.92279" lon="4.56341">
        <ele>256</ele>
        <time>2016-09-12T09:34:15Z</time>
      </trkpt>
      <trkpt lat="45.92281" lon="4.56331">
        <ele>256</ele>
        <time>2016-09-12T09:34:16Z</time>
      </trkpt>
      <trkpt lat="45.92282" lon="4.56322">
        <ele>256</ele>
        <time>2016-09-12T09:34:17Z</time>
      </trkpt>
      <trkpt lat="45.92285" lon="4.56313">
        <ele>256</ele>
        <time>2016-09-12T09:34:18Z</time>
      </trkpt>
      <trkpt lat="45.92287" lon="4.56306">
        <ele>256</ele>
        <time>2016-09-12T09:34:19Z</time>
      </trkpt>
      <trkpt lat="45.92291" lon="4.56298">
        <ele>256</ele>
        <time>2016-09-12T09:34:20Z</time>
      </trkpt>
      <trkpt lat="45.92295" lon="4.5629">
        <ele>256</ele>
        <time>2016-09-12T09:34:21Z</time>
      </trkpt>
      <trkpt lat="45.923" lon="4.56281">
        <ele>256</ele>
        <time>2016-09-12T09:34:22Z</time>
      </trkpt>
      <trkpt lat="45.92305" lon="4.56273">
        <ele>257</ele>
        <time>2016-09-12T09:34:23Z</time>
      </trkpt>
      <trkpt lat="45.9231" lon="4.56266">
        <ele>257</ele>
        <time>2016-09-12T09:34:24Z</time>
      </trkpt>
      <trkpt lat="45.92315" lon="4.56258">
        <ele>257</ele>
        <time>2016-09-12T09:34:25Z</time>
      </trkpt>
      <trkpt lat="45.9232" lon="4.5625">
        <ele>257</ele>
        <time>2016-09-12T09:34:26Z</time>
      </trkpt>
      <trkpt lat="45.92325" lon="4.56242">
        <ele>257</ele>
        <time>2016-09-12T09:34:27Z</time>
      </trkpt>
      <trkpt lat="45.92329" lon="4.56234">
        <ele>257</ele>
        <time>2016-09-12T09:34:28Z</time>
      </trkpt>
      <trkpt lat="45.92334" lon="4.56227">
        <ele>259</ele>
        <time>2016-09-12T09:34:29Z</time>
      </trkpt>
      <trkpt lat="45.92339" lon="4.56219">
        <ele>260</ele>
        <time>2016-09-12T09:34:30Z</time>
      </trkpt>
      <trkpt lat="45.92343" lon="4.56212">
        <ele>260</ele>
        <time>2016-09-12T09:34:31Z</time>
      </trkpt>
      <trkpt lat="45.92348" lon="4.56205">
        <ele>260</ele>
        <time>2016-09-12T09:34:32Z</time>
      </trkpt>
      <trkpt lat="45.92352" lon="4.56199">
        <ele>260</ele>
        <time>2016-09-12T09:34:33Z</time>
      </trkpt>
      <trkpt lat="45.92357" lon="4.56193">
        <ele>260</ele>
        <time>2016-09-12T09:34:34Z</time>
      </trkpt>
      <trkpt lat="45.92362" lon="4.56186">
        <ele>260</ele>
        <time>2016-09-12T09:34:35Z</time>
      </trkpt>
      <trkpt lat="45.92367" lon="4.5618">
        <ele>260</ele>
        <time>2016-09-12T09:34:36Z</time>
      </trkpt>
      <trkpt lat="45.92372" lon="4.56173">
        <ele>260</ele>
        <time>2016-09-12T09:34:37Z</time>
      </trkpt>
      <trkpt lat="45.92377" lon="4.56167">
        <ele>259</ele>
        <time>2016-09-12T09:34:38Z</time>
      </trkpt>
      <trkpt lat="45.92382" lon="4.5616">
        <ele>259</ele>
        <time>2016-09-12T09:34:39Z</time>
      </trkpt>
      <trkpt lat="45.92387" lon="4.56153">
        <ele>259</ele>
        <time>2016-09-12T09:34:40Z</time>
      </trkpt>
      <trkpt lat="45.92392" lon="4.56147">
        <ele>259</ele>
        <time>2016-09-12T09:34:41Z</time>
      </trkpt>
      <trkpt lat="45.92397" lon="4.56141">
        <ele>259</ele>
        <time>2016-09-12T09:34:42Z</time>
      </trkpt>
      <trkpt lat="45.92402" lon="4.56135">
        <ele>259</ele>
        <time>2016-09-12T09:34:43Z</time>
      </trkpt>
      <trkpt lat="45.92406" lon="4.56129">
        <ele>259</ele>
        <time>2016-09-12T09:34:44Z</time>
      </trkpt>
      <trkpt lat="45.9241" lon="4.56124">
        <ele>259</ele>
        <time>2016-09-12T09:34:45Z</time>
      </trkpt>
      <trkpt lat="45.92414" lon="4.56118">
        <ele>258</ele>
        <time>2016-09-12T09:34:46Z</time>
      </trkpt>
      <trkpt lat="45.92418" lon="4.56112">
        <ele>262</ele>
        <time>2016-09-12T09:34:47Z</time>
      </trkpt>
      <trkpt lat="45.92422" lon="4.56106">
        <ele>261</ele>
        <time>2016-09-12T09:34:48Z</time>
      </trkpt>
      <trkpt lat="45.92426" lon="4.561">
        <ele>261</ele>
        <time>2016-09-12T09:34:49Z</time>
      </trkpt>
      <trkpt lat="45.9243" lon="4.56092">
        <ele>260</ele>
        <time>2016-09-12T09:34:50Z</time>
      </trkpt>
      <trkpt lat="45.92434" lon="4.56085">
        <ele>261</ele>
        <time>2016-09-12T09:34:51Z</time>
      </trkpt>
      <trkpt lat="45.92439" lon="4.56078">
        <ele>258</ele>
        <time>2016-09-12T09:34:52Z</time>
      </trkpt>
      <trkpt lat="45.92444" lon="4.56072">
        <ele>258</ele>
        <time>2016-09-12T09:34:53Z</time>
      </trkpt>
      <trkpt lat="45.92448" lon="4.56067">
        <ele>259</ele>
        <time>2016-09-12T09:34:54Z</time>
      </trkpt>
      <trkpt lat="45.92453" lon="4.56062">
        <ele>259</ele>
        <time>2016-09-12T09:34:55Z</time>
      </trkpt>
      <trkpt lat="45.92457" lon="4.56057">
        <ele>259</ele>
        <time>2016-09-12T09:34:56Z</time>
      </trkpt>
      <trkpt lat="45.92461" lon="4.56053">
        <ele>259</ele>
        <time>2016-09-12T09:34:57Z</time>
      </trkpt>
      <trkpt lat="45.92466" lon="4.56049">
        <ele>259</ele>
        <time>2016-09-12T09:34:58Z</time>
      </trkpt>
      <trkpt lat="45.92471" lon="4.56044">
        <ele>259</ele>
        <time>2016-09-12T09:34:59Z</time>
      </trkpt>
      <trkpt lat="45.92475" lon="4.5604">
        <ele>259</ele>
        <time>2016-09-12T09:35:00Z</time>
      </trkpt>
      <trkpt lat="45.9248" lon="4.56035">
        <ele>259</ele>
        <time>2016-09-12T09:35:01Z</time>
      </trkpt>
      <trkpt lat="45.92484" lon="4.5603">
        <ele>259</ele>
        <time>2016-09-12T09:35:02Z</time>
      </trkpt>
      <trkpt lat="45.92489" lon="4.56026">
        <ele>259</ele>
        <time>2016-09-12T09:35:03Z</time>
      </trkpt>
      <trkpt lat="45.92495" lon="4.56022">
        <ele>259</ele>
        <time>2016-09-12T09:35:04Z</time>
      </trkpt>
      <trkpt lat="45.925" lon="4.56018">
        <ele>258</ele>
        <time>2016-09-12T09:35:05Z</time>
      </trkpt>
      <trkpt lat="45.92505" lon="4.56014">
        <ele>261</ele>
        <time>2016-09-12T09:35:06Z</time>
      </trkpt>
      <trkpt lat="45.9251" lon="4.56009">
        <ele>261</ele>
        <time>2016-09-12T09:35:07Z</time>
      </trkpt>
      <trkpt lat="45.92515" lon="4.56005">
        <ele>261</ele>
        <time>2016-09-12T09:35:08Z</time>
      </trkpt>
      <trkpt lat="45.9252" lon="4.56">
        <ele>262</ele>
        <time>2016-09-12T09:35:09Z</time>
      </trkpt>
      <trkpt lat="45.92525" lon="4.55996">
        <ele>259</ele>
        <time>2016-09-12T09:35:10Z</time>
      </trkpt>
      <trkpt lat="45.92531" lon="4.55992">
        <ele>259</ele>
        <time>2016-09-12T09:35:11Z</time>
      </trkpt>
      <trkpt lat="45.92536" lon="4.55987">
        <ele>260</ele>
        <time>2016-09-12T09:35:12Z</time>
      </trkpt>
      <trkpt lat="45.92542" lon="4.55983">
        <ele>260</ele>
        <time>2016-09-12T09:35:13Z</time>
      </trkpt>
      <trkpt lat="45.92547" lon="4.55978">
        <ele>260</ele>
        <time>2016-09-12T09:35:14Z</time>
      </trkpt>
      <trkpt lat="45.92553" lon="4.55973">
        <ele>260</ele>
        <time>2016-09-12T09:35:15Z</time>
      </trkpt>
      <trkpt lat="45.92558" lon="4.55968">
        <ele>260</ele>
        <time>2016-09-12T09:35:16Z</time>
      </trkpt>
      <trkpt lat="45.92563" lon="4.55964">
        <ele>260</ele>
        <time>2016-09-12T09:35:17Z</time>
      </trkpt>
      <trkpt lat="45.92569" lon="4.55959">
        <ele>260</ele>
        <time>2016-09-12T09:35:18Z</time>
      </trkpt>
      <trkpt lat="45.92574" lon="4.55955">
        <ele>260</ele>
        <time>2016-09-12T09:35:19Z</time>
      </trkpt>
      <trkpt lat="45.92579" lon="4.5595">
        <ele>260</ele>
        <time>2016-09-12T09:35:20Z</time>
      </trkpt>
      <trkpt lat="45.92584" lon="4.55944">
        <ele>262</ele>
        <time>2016-09-12T09:35:21Z</time>
      </trkpt>
      <trkpt lat="45.92589" lon="4.55939">
        <ele>261</ele>
        <time>2016-09-12T09:35:22Z</time>
      </trkpt>
      <trkpt lat="45.92593" lon="4.55934">
        <ele>261</ele>
        <time>2016-09-12T09:35:23Z</time>
      </trkpt>
      <trkpt lat="45.92598" lon="4.55931">
        <ele>261</ele>
        <time>2016-09-12T09:35:24Z</time>
      </trkpt>
      <trkpt lat="45.92603" lon="4.55926">
        <ele>261</ele>
        <time>2016-09-12T09:35:25Z</time>
      </trkpt>
      <trkpt lat="45.92608" lon="4.55921">
        <ele>261</ele>
        <time>2016-09-12T09:35:26Z</time>
      </trkpt>
      <trkpt lat="45.92613" lon="4.55917">
        <ele>259</ele>
        <time>2016-09-12T09:35:27Z</time>
      </trkpt>
      <trkpt lat="45.92617" lon="4.55912">
        <ele>259</ele>
        <time>2016-09-12T09:35:28Z</time>
      </trkpt>
      <trkpt lat="45.92622" lon="4.55907">
        <ele>259</ele>
        <time>2016-09-12T09:35:29Z</time>
      </trkpt>
      <trkpt lat="45.92626" lon="4.55903">
        <ele>259</ele>
        <time>2016-09-12T09:35:30Z</time>
      </trkpt>
      <trkpt lat="45.92631" lon="4.55899">
        <ele>259</ele>
        <time>2016-09-12T09:35:31Z</time>
      </trkpt>
      <trkpt lat="45.92635" lon="4.55894">
        <ele>259</ele>
        <time>2016-09-12T09:35:32Z</time>
      </trkpt>
      <trkpt lat="45.9264" lon="4.5589">
        <ele>259</ele>
        <time>2016-09-12T09:35:33Z</time>
      </trkpt>
      <trkpt lat="45.92645" lon="4.55885">
        <ele>259</ele>
        <time>2016-09-12T09:35:34Z</time>
      </trkpt>
      <trkpt lat="45.92649" lon="4.5588">
        <ele>259</ele>
        <time>2016-09-12T09:35:35Z</time>
      </trkpt>
      <trkpt lat="45.92654" lon="4.55875">
        <ele>259</ele>
        <time>2016-09-12T09:35:36Z</time>
      </trkpt>
      <trkpt lat="45.92659" lon="4.5587">
        <ele>259</ele>
        <time>2016-09-12T09:35:37Z</time>
      </trkpt>
      <trkpt lat="45.92664" lon="4.55865">
        <ele>259</ele>
        <time>2016-09-12T09:35:38Z</time>
      </trkpt>
      <trkpt lat="45.92669" lon="4.5586">
        <ele>262</ele>
        <time>2016-09-12T09:35:39Z</time>
      </trkpt>
      <trkpt lat="45.92674" lon="4.55855">
        <ele>261</ele>
        <time>2016-09-12T09:35:40Z</time>
      </trkpt>
      <trkpt lat="45.92679" lon="4.55851">
        <ele>261</ele>
        <time>2016-09-12T09:35:41Z</time>
      </trkpt>
      <trkpt lat="45.92685" lon="4.55845">
        <ele>262</ele>
        <time>2016-09-12T09:35:42Z</time>
      </trkpt>
      <trkpt lat="45.9269" lon="4.5584">
        <ele>262</ele>
        <time>2016-09-12T09:35:43Z</time>
      </trkpt>
      <trkpt lat="45.92695" lon="4.55834">
        <ele>262</ele>
        <time>2016-09-12T09:35:44Z</time>
      </trkpt>
      <trkpt lat="45.927" lon="4.55829">
        <ele>261</ele>
        <time>2016-09-12T09:35:45Z</time>
      </trkpt>
      <trkpt lat="45.92704" lon="4.55824">
        <ele>261</ele>
        <time>2016-09-12T09:35:46Z</time>
      </trkpt>
      <trkpt lat="45.92709" lon="4.5582">
        <ele>261</ele>
        <time>2016-09-12T09:35:47Z</time>
      </trkpt>
      <trkpt lat="45.92714" lon="4.55816">
        <ele>262</ele>
        <time>2016-09-12T09:35:48Z</time>
      </trkpt>
      <trkpt lat="45.92718" lon="4.55812">
        <ele>262</ele>
        <time>2016-09-12T09:35:49Z</time>
      </trkpt>
      <trkpt lat="45.92722" lon="4.55808">
        <ele>262</ele>
        <time>2016-09-12T09:35:50Z</time>
      </trkpt>
      <trkpt lat="45.92727" lon="4.55804">
        <ele>262</ele>
        <time>2016-09-12T09:35:51Z</time>
      </trkpt>
      <trkpt lat="45.92732" lon="4.55803">
        <ele>262</ele>
        <time>2016-09-12T09:35:52Z</time>
      </trkpt>
      <trkpt lat="45.92736" lon="4.55799">
        <ele>262</ele>
        <time>2016-09-12T09:35:53Z</time>
      </trkpt>
      <trkpt lat="45.9274" lon="4.55795">
        <ele>262</ele>
        <time>2016-09-12T09:35:54Z</time>
      </trkpt>
      <trkpt lat="45.92745" lon="4.5579">
        <ele>262</ele>
        <time>2016-09-12T09:35:55Z</time>
      </trkpt>
      <trkpt lat="45.9275" lon="4.55785">
        <ele>269</ele>
        <time>2016-09-12T09:35:56Z</time>
      </trkpt>
      <trkpt lat="45.92755" lon="4.5578">
        <ele>269</ele>
        <time>2016-09-12T09:35:57Z</time>
      </trkpt>
      <trkpt lat="45.9276" lon="4.55775">
        <ele>269</ele>
        <time>2016-09-12T09:35:58Z</time>
      </trkpt>
      <trkpt lat="45.92766" lon="4.5577">
        <ele>268</ele>
        <time>2016-09-12T09:35:59Z</time>
      </trkpt>
      <trkpt lat="45.92771" lon="4.55765">
        <ele>269</ele>
        <time>2016-09-12T09:36:00Z</time>
      </trkpt>
      <trkpt lat="45.92776" lon="4.5576">
        <ele>269</ele>
        <time>2016-09-12T09:36:01Z</time>
      </trkpt>
      <trkpt lat="45.9278" lon="4.55756">
        <ele>270</ele>
        <time>2016-09-12T09:36:02Z</time>
      </trkpt>
      <trkpt lat="45.92785" lon="4.55751">
        <ele>271</ele>
        <time>2016-09-12T09:36:03Z</time>
      </trkpt>
      <trkpt lat="45.9279" lon="4.55746">
        <ele>266</ele>
        <time>2016-09-12T09:36:04Z</time>
      </trkpt>
      <trkpt lat="45.92794" lon="4.5574">
        <ele>266</ele>
        <time>2016-09-12T09:36:05Z</time>
      </trkpt>
      <trkpt lat="45.92799" lon="4.55735">
        <ele>267</ele>
        <time>2016-09-12T09:36:06Z</time>
      </trkpt>
      <trkpt lat="45.92803" lon="4.55729">
        <ele>267</ele>
        <time>2016-09-12T09:36:07Z</time>
      </trkpt>
      <trkpt lat="45.92807" lon="4.55724">
        <ele>267</ele>
        <time>2016-09-12T09:36:08Z</time>
      </trkpt>
      <trkpt lat="45.92812" lon="4.55718">
        <ele>267</ele>
        <time>2016-09-12T09:36:09Z</time>
      </trkpt>
      <trkpt lat="45.92816" lon="4.55712">
        <ele>267</ele>
        <time>2016-09-12T09:36:10Z</time>
      </trkpt>
      <trkpt lat="45.9282" lon="4.55706">
        <ele>267</ele>
        <time>2016-09-12T09:36:11Z</time>
      </trkpt>
      <trkpt lat="45.92824" lon="4.557">
        <ele>266</ele>
        <time>2016-09-12T09:36:12Z</time>
      </trkpt>
      <trkpt lat="45.92828" lon="4.55694">
        <ele>266</ele>
        <time>2016-09-12T09:36:13Z</time>
      </trkpt>
      <trkpt lat="45.92831" lon="4.55689">
        <ele>266</ele>
        <time>2016-09-12T09:36:14Z</time>
      </trkpt>
      <trkpt lat="45.92836" lon="4.55683">
        <ele>272</ele>
        <time>2016-09-12T09:36:15Z</time>
      </trkpt>
      <trkpt lat="45.9284" lon="4.55677">
        <ele>271</ele>
        <time>2016-09-12T09:36:16Z</time>
      </trkpt>
      <trkpt lat="45.92844" lon="4.55671">
        <ele>271</ele>
        <time>2016-09-12T09:36:17Z</time>
      </trkpt>
      <trkpt lat="45.92848" lon="4.55665">
        <ele>267</ele>
        <time>2016-09-12T09:36:18Z</time>
      </trkpt>
      <trkpt lat="45.92852" lon="4.55659">
        <ele>267</ele>
        <time>2016-09-12T09:36:19Z</time>
      </trkpt>
      <trkpt lat="45.92856" lon="4.55653">
        <ele>268</ele>
        <time>2016-09-12T09:36:20Z</time>
      </trkpt>
      <trkpt lat="45.9286" lon="4.55647">
        <ele>268</ele>
        <time>2016-09-12T09:36:21Z</time>
      </trkpt>
      <trkpt lat="45.92864" lon="4.55641">
        <ele>268</ele>
        <time>2016-09-12T09:36:22Z</time>
      </trkpt>
      <trkpt lat="45.92869" lon="4.55634">
        <ele>268</ele>
        <time>2016-09-12T09:36:23Z</time>
      </trkpt>
      <trkpt lat="45.92872" lon="4.55628">
        <ele>268</ele>
        <time>2016-09-12T09:36:24Z</time>
      </trkpt>
      <trkpt lat="45.92877" lon="4.5562">
        <ele>268</ele>
        <time>2016-09-12T09:36:25Z</time>
      </trkpt>
      <trkpt lat="45.92881" lon="4.55614">
        <ele>268</ele>
        <time>2016-09-12T09:36:26Z</time>
      </trkpt>
      <trkpt lat="45.92885" lon="4.55608">
        <ele>268</ele>
        <time>2016-09-12T09:36:27Z</time>
      </trkpt>
      <trkpt lat="45.92889" lon="4.55602">
        <ele>268</ele>
        <time>2016-09-12T09:36:28Z</time>
      </trkpt>
      <trkpt lat="45.92893" lon="4.55596">
        <ele>268</ele>
        <time>2016-09-12T09:36:29Z</time>
      </trkpt>
      <trkpt lat="45.92897" lon="4.5559">
        <ele>267</ele>
        <time>2016-09-12T09:36:30Z</time>
      </trkpt>
      <trkpt lat="45.92901" lon="4.55584">
        <ele>267</ele>
        <time>2016-09-12T09:36:31Z</time>
      </trkpt>
      <trkpt lat="45.92905" lon="4.55578">
        <ele>264</ele>
        <time>2016-09-12T09:36:32Z</time>
      </trkpt>
      <trkpt lat="45.92908" lon="4.55573">
        <ele>264</ele>
        <time>2016-09-12T09:36:33Z</time>
      </trkpt>
      <trkpt lat="45.92913" lon="4.55567">
        <ele>264</ele>
        <time>2016-09-12T09:36:34Z</time>
      </trkpt>
      <trkpt lat="45.92917" lon="4.55561">
        <ele>263</ele>
        <time>2016-09-12T09:36:35Z</time>
      </trkpt>
      <trkpt lat="45.92921" lon="4.55556">
        <ele>269</ele>
        <time>2016-09-12T09:36:36Z</time>
      </trkpt>
      <trkpt lat="45.92925" lon="4.5555">
        <ele>269</ele>
        <time>2016-09-12T09:36:37Z</time>
      </trkpt>
      <trkpt lat="45.92929" lon="4.55544">
        <ele>269</ele>
        <time>2016-09-12T09:36:38Z</time>
      </trkpt>
      <trkpt lat="45.92933" lon="4.55539">
        <ele>269</ele>
        <time>2016-09-12T09:36:39Z</time>
      </trkpt>
      <trkpt lat="45.92937" lon="4.55532">
        <ele>269</ele>
        <time>2016-09-12T09:36:40Z</time>
      </trkpt>
      <trkpt lat="45.92941" lon="4.55527">
        <ele>269</ele>
        <time>2016-09-12T09:36:41Z</time>
      </trkpt>
      <trkpt lat="45.92945" lon="4.55522">
        <ele>269</ele>
        <time>2016-09-12T09:36:42Z</time>
      </trkpt>
      <trkpt lat="45.92949" lon="4.55517">
        <ele>269</ele>
        <time>2016-09-12T09:36:43Z</time>
      </trkpt>
      <trkpt lat="45.92954" lon="4.55511">
        <ele>269</ele>
        <time>2016-09-12T09:36:44Z</time>
      </trkpt>
      <trkpt lat="45.92958" lon="4.55506">
        <ele>270</ele>
        <time>2016-09-12T09:36:45Z</time>
      </trkpt>
      <trkpt lat="45.92962" lon="4.555">
        <ele>265</ele>
        <time>2016-09-12T09:36:46Z</time>
      </trkpt>
      <trkpt lat="45.92967" lon="4.55495">
        <ele>266</ele>
        <time>2016-09-12T09:36:47Z</time>
      </trkpt>
      <trkpt lat="45.92971" lon="4.55489">
        <ele>266</ele>
        <time>2016-09-12T09:36:48Z</time>
      </trkpt>
      <trkpt lat="45.92976" lon="4.55482">
        <ele>266</ele>
        <time>2016-09-12T09:36:49Z</time>
      </trkpt>
      <trkpt lat="45.92981" lon="4.55476">
        <ele>266</ele>
        <time>2016-09-12T09:36:50Z</time>
      </trkpt>
      <trkpt lat="45.92985" lon="4.5547">
        <ele>266</ele>
        <time>2016-09-12T09:36:51Z</time>
      </trkpt>
      <trkpt lat="45.92989" lon="4.55463">
        <ele>266</ele>
        <time>2016-09-12T09:36:52Z</time>
      </trkpt>
      <trkpt lat="45.92994" lon="4.55457">
        <ele>265</ele>
        <time>2016-09-12T09:36:53Z</time>
      </trkpt>
      <trkpt lat="45.92999" lon="4.5545">
        <ele>265</ele>
        <time>2016-09-12T09:36:54Z</time>
      </trkpt>
      <trkpt lat="45.93004" lon="4.55444">
        <ele>271</ele>
        <time>2016-09-12T09:36:55Z</time>
      </trkpt>
      <trkpt lat="45.93009" lon="4.55438">
        <ele>271</ele>
        <time>2016-09-12T09:36:56Z</time>
      </trkpt>
      <trkpt lat="45.93014" lon="4.55431">
        <ele>270</ele>
        <time>2016-09-12T09:36:57Z</time>
      </trkpt>
      <trkpt lat="45.93018" lon="4.55424">
        <ele>270</ele>
        <time>2016-09-12T09:36:58Z</time>
      </trkpt>
      <trkpt lat="45.93022" lon="4.55419">
        <ele>270</ele>
        <time>2016-09-12T09:36:59Z</time>
      </trkpt>
      <trkpt lat="45.93026" lon="4.55413">
        <ele>266</ele>
        <time>2016-09-12T09:37:00Z</time>
      </trkpt>
      <trkpt lat="45.9303" lon="4.55407">
        <ele>266</ele>
        <time>2016-09-12T09:37:01Z</time>
      </trkpt>
      <trkpt lat="45.93034" lon="4.55401">
        <ele>266</ele>
        <time>2016-09-12T09:37:02Z</time>
      </trkpt>
      <trkpt lat="45.93037" lon="4.55395">
        <ele>267</ele>
        <time>2016-09-12T09:37:03Z</time>
      </trkpt>
      <trkpt lat="45.93041" lon="4.55389">
        <ele>267</ele>
        <time>2016-09-12T09:37:04Z</time>
      </trkpt>
      <trkpt lat="45.93045" lon="4.55383">
        <ele>267</ele>
        <time>2016-09-12T09:37:05Z</time>
      </trkpt>
      <trkpt lat="45.93049" lon="4.55378">
        <ele>267</ele>
        <time>2016-09-12T09:37:06Z</time>
      </trkpt>
      <trkpt lat="45.93053" lon="4.55372">
        <ele>267</ele>
        <time>2016-09-12T09:37:07Z</time>
      </trkpt>
      <trkpt lat="45.93057" lon="4.55366">
        <ele>267</ele>
        <time>2016-09-12T09:37:08Z</time>
      </trkpt>
      <trkpt lat="45.93061" lon="4.55361">
        <ele>267</ele>
        <time>2016-09-12T09:37:09Z</time>
      </trkpt>
      <trkpt lat="45.93065" lon="4.55355">
        <ele>267</ele>
        <time>2016-09-12T09:37:10Z</time>
      </trkpt>
      <trkpt lat="45.93068" lon="4.5535">
        <ele>267</ele>
        <time>2016-09-12T09:37:11Z</time>
      </trkpt>
      <trkpt lat="45.93072" lon="4.55345">
        <ele>267</ele>
        <time>2016-09-12T09:37:12Z</time>
      </trkpt>
      <trkpt lat="45.93076" lon="4.5534">
        <ele>267</ele>
        <time>2016-09-12T09:37:13Z</time>
      </trkpt>
      <trkpt lat="45.9308" lon="4.55335">
        <ele>268</ele>
        <time>2016-09-12T09:37:14Z</time>
      </trkpt>
      <trkpt lat="45.93084" lon="4.55329">
        <ele>268</ele>
        <time>2016-09-12T09:37:15Z</time>
      </trkpt>
      <trkpt lat="45.93088" lon="4.55324">
        <ele>268</ele>
        <time>2016-09-12T09:37:16Z</time>
      </trkpt>
      <trkpt lat="45.93092" lon="4.55319">
        <ele>268</ele>
        <time>2016-09-12T09:37:17Z</time>
      </trkpt>
      <trkpt lat="45.93096" lon="4.55314">
        <ele>268</ele>
        <time>2016-09-12T09:37:18Z</time>
      </trkpt>
      <trkpt lat="45.931" lon="4.55309">
        <ele>268</ele>
        <time>2016-09-12T09:37:19Z</time>
      </trkpt>
      <trkpt lat="45.93104" lon="4.55304">
        <ele>268</ele>
        <time>2016-09-12T09:37:20Z</time>
      </trkpt>
      <trkpt lat="45.93108" lon="4.55299">
        <ele>268</ele>
        <time>2016-09-12T09:37:21Z</time>
      </trkpt>
      <trkpt lat="45.93112" lon="4.55294">
        <ele>268</ele>
        <time>2016-09-12T09:37:22Z</time>
      </trkpt>
      <trkpt lat="45.93116" lon="4.55289">
        <ele>268</ele>
        <time>2016-09-12T09:37:23Z</time>
      </trkpt>
      <trkpt lat="45.93119" lon="4.55285">
        <ele>268</ele>
        <time>2016-09-12T09:37:24Z</time>
      </trkpt>
      <trkpt lat="45.93123" lon="4.5528">
        <ele>268</ele>
        <time>2016-09-12T09:37:25Z</time>
      </trkpt>
      <trkpt lat="45.93128" lon="4.55274">
        <ele>268</ele>
        <time>2016-09-12T09:37:26Z</time>
      </trkpt>
      <trkpt lat="45.93134" lon="4.55269">
        <ele>268</ele>
        <time>2016-09-12T09:37:27Z</time>
      </trkpt>
      <trkpt lat="45.93139" lon="4.55264">
        <ele>268</ele>
        <time>2016-09-12T09:37:28Z</time>
      </trkpt>
      <trkpt lat="45.93143" lon="4.5526">
        <ele>268</ele>
        <time>2016-09-12T09:37:29Z</time>
      </trkpt>
      <trkpt lat="45.93147" lon="4.55255">
        <ele>268</ele>
        <time>2016-09-12T09:37:30Z</time>
      </trkpt>
      <trkpt lat="45.93152" lon="4.5525">
        <ele>268</ele>
        <time>2016-09-12T09:37:31Z</time>
      </trkpt>
      <trkpt lat="45.93156" lon="4.55246">
        <ele>266</ele>
        <time>2016-09-12T09:37:32Z</time>
      </trkpt>
      <trkpt lat="45.9316" lon="4.5524">
        <ele>266</ele>
        <time>2016-09-12T09:37:33Z</time>
      </trkpt>
      <trkpt lat="45.93164" lon="4.55235">
        <ele>266</ele>
        <time>2016-09-12T09:37:34Z</time>
      </trkpt>
      <trkpt lat="45.93168" lon="4.55231">
        <ele>268</ele>
        <time>2016-09-12T09:37:35Z</time>
      </trkpt>
      <trkpt lat="45.93172" lon="4.55226">
        <ele>268</ele>
        <time>2016-09-12T09:37:36Z</time>
      </trkpt>
      <trkpt lat="45.93176" lon="4.55222">
        <ele>268</ele>
        <time>2016-09-12T09:37:37Z</time>
      </trkpt>
      <trkpt lat="45.9318" lon="4.55217">
        <ele>268</ele>
        <time>2016-09-12T09:37:38Z</time>
      </trkpt>
      <trkpt lat="45.93184" lon="4.55213">
        <ele>268</ele>
        <time>2016-09-12T09:37:39Z</time>
      </trkpt>
      <trkpt lat="45.93188" lon="4.55208">
        <ele>268</ele>
        <time>2016-09-12T09:37:40Z</time>
      </trkpt>
      <trkpt lat="45.93191" lon="4.55204">
        <ele>268</ele>
        <time>2016-09-12T09:37:41Z</time>
      </trkpt>
      <trkpt lat="45.93195" lon="4.55199">
        <ele>268</ele>
        <time>2016-09-12T09:37:42Z</time>
      </trkpt>
      <trkpt lat="45.93198" lon="4.55195">
        <ele>269</ele>
        <time>2016-09-12T09:37:43Z</time>
      </trkpt>
      <trkpt lat="45.93202" lon="4.5519">
        <ele>269</ele>
        <time>2016-09-12T09:37:44Z</time>
      </trkpt>
      <trkpt lat="45.93205" lon="4.55186">
        <ele>269</ele>
        <time>2016-09-12T09:37:45Z</time>
      </trkpt>
      <trkpt lat="45.93212" lon="4.55177">
        <ele>269</ele>
        <time>2016-09-12T09:37:47Z</time>
      </trkpt>
      <trkpt lat="45.93215" lon="4.55173">
        <ele>269</ele>
        <time>2016-09-12T09:37:48Z</time>
      </trkpt>
      <trkpt lat="45.93219" lon="4.55168">
        <ele>269</ele>
        <time>2016-09-12T09:37:49Z</time>
      </trkpt>
      <trkpt lat="45.93223" lon="4.55164">
        <ele>268</ele>
        <time>2016-09-12T09:37:50Z</time>
      </trkpt>
      <trkpt lat="45.93226" lon="4.5516">
        <ele>268</ele>
        <time>2016-09-12T09:37:51Z</time>
      </trkpt>
      <trkpt lat="45.9323" lon="4.55155">
        <ele>268</ele>
        <time>2016-09-12T09:37:52Z</time>
      </trkpt>
      <trkpt lat="45.93234" lon="4.55151">
        <ele>268</ele>
        <time>2016-09-12T09:37:53Z</time>
      </trkpt>
      <trkpt lat="45.93238" lon="4.55147">
        <ele>268</ele>
        <time>2016-09-12T09:37:54Z</time>
      </trkpt>
      <trkpt lat="45.93242" lon="4.55142">
        <ele>268</ele>
        <time>2016-09-12T09:37:55Z</time>
      </trkpt>
      <trkpt lat="45.93246" lon="4.55137">
        <ele>268</ele>
        <time>2016-09-12T09:37:56Z</time>
      </trkpt>
      <trkpt lat="45.9325" lon="4.55134">
        <ele>272</ele>
        <time>2016-09-12T09:37:57Z</time>
      </trkpt>
      <trkpt lat="45.93254" lon="4.55129">
        <ele>272</ele>
        <time>2016-09-12T09:37:58Z</time>
      </trkpt>
      <trkpt lat="45.93258" lon="4.55125">
        <ele>272</ele>
        <time>2016-09-12T09:37:59Z</time>
      </trkpt>
      <trkpt lat="45.93262" lon="4.55121">
        <ele>272</ele>
        <time>2016-09-12T09:38:00Z</time>
      </trkpt>
      <trkpt lat="45.93265" lon="4.55117">
        <ele>272</ele>
        <time>2016-09-12T09:38:01Z</time>
      </trkpt>
      <trkpt lat="45.93269" lon="4.55112">
        <ele>272</ele>
        <time>2016-09-12T09:38:02Z</time>
      </trkpt>
      <trkpt lat="45.93272" lon="4.55109">
        <ele>272</ele>
        <time>2016-09-12T09:38:03Z</time>
      </trkpt>
      <trkpt lat="45.93277" lon="4.55105">
        <ele>272</ele>
        <time>2016-09-12T09:38:04Z</time>
      </trkpt>
      <trkpt lat="45.93281" lon="4.55101">
        <ele>272</ele>
        <time>2016-09-12T09:38:05Z</time>
      </trkpt>
      <trkpt lat="45.93285" lon="4.55097">
        <ele>272</ele>
        <time>2016-09-12T09:38:06Z</time>
      </trkpt>
      <trkpt lat="45.93288" lon="4.55093">
        <ele>272</ele>
        <time>2016-09-12T09:38:07Z</time>
      </trkpt>
      <trkpt lat="45.93293" lon="4.55089">
        <ele>272</ele>
        <time>2016-09-12T09:38:08Z</time>
      </trkpt>
      <trkpt lat="45.93297" lon="4.55085">
        <ele>273</ele>
        <time>2016-09-12T09:38:09Z</time>
      </trkpt>
      <trkpt lat="45.93301" lon="4.55081">
        <ele>270</ele>
        <time>2016-09-12T09:38:10Z</time>
      </trkpt>
      <trkpt lat="45.93305" lon="4.55077">
        <ele>270</ele>
        <time>2016-09-12T09:38:11Z</time>
      </trkpt>
      <trkpt lat="45.93308" lon="4.55073">
        <ele>270</ele>
        <time>2016-09-12T09:38:12Z</time>
      </trkpt>
      <trkpt lat="45.93316" lon="4.55065">
        <ele>271</ele>
        <time>2016-09-12T09:38:14Z</time>
      </trkpt>
      <trkpt lat="45.93319" lon="4.55062">
        <ele>271</ele>
        <time>2016-09-12T09:38:15Z</time>
      </trkpt>
      <trkpt lat="45.93323" lon="4.55058">
        <ele>270</ele>
        <time>2016-09-12T09:38:16Z</time>
      </trkpt>
      <trkpt lat="45.93326" lon="4.55053">
        <ele>270</ele>
        <time>2016-09-12T09:38:17Z</time>
      </trkpt>
      <trkpt lat="45.93333" lon="4.55045">
        <ele>270</ele>
        <time>2016-09-12T09:38:19Z</time>
      </trkpt>
      <trkpt lat="45.93337" lon="4.55041">
        <ele>275</ele>
        <time>2016-09-12T09:38:20Z</time>
      </trkpt>
      <trkpt lat="45.9334" lon="4.55037">
        <ele>275</ele>
        <time>2016-09-12T09:38:21Z</time>
      </trkpt>
      <trkpt lat="45.93344" lon="4.55033">
        <ele>275</ele>
        <time>2016-09-12T09:38:22Z</time>
      </trkpt>
      <trkpt lat="45.93348" lon="4.55029">
        <ele>275</ele>
        <time>2016-09-12T09:38:23Z</time>
      </trkpt>
      <trkpt lat="45.93352" lon="4.55025">
        <ele>275</ele>
        <time>2016-09-12T09:38:24Z</time>
      </trkpt>
      <trkpt lat="45.93356" lon="4.5502">
        <ele>275</ele>
        <time>2016-09-12T09:38:25Z</time>
      </trkpt>
      <trkpt lat="45.93361" lon="4.55015">
        <ele>275</ele>
        <time>2016-09-12T09:38:26Z</time>
      </trkpt>
      <trkpt lat="45.93365" lon="4.55011">
        <ele>275</ele>
        <time>2016-09-12T09:38:27Z</time>
      </trkpt>
      <trkpt lat="45.9337" lon="4.55006">
        <ele>275</ele>
        <time>2016-09-12T09:38:28Z</time>
      </trkpt>
      <trkpt lat="45.93374" lon="4.55001">
        <ele>276</ele>
        <time>2016-09-12T09:38:29Z</time>
      </trkpt>
      <trkpt lat="45.9338" lon="4.54996">
        <ele>272</ele>
        <time>2016-09-12T09:38:30Z</time>
      </trkpt>
      <trkpt lat="45.93384" lon="4.54992">
        <ele>272</ele>
        <time>2016-09-12T09:38:31Z</time>
      </trkpt>
      <trkpt lat="45.93389" lon="4.54987">
        <ele>272</ele>
        <time>2016-09-12T09:38:32Z</time>
      </trkpt>
      <trkpt lat="45.93393" lon="4.54981">
        <ele>272</ele>
        <time>2016-09-12T09:38:33Z</time>
      </trkpt>
      <trkpt lat="45.93397" lon="4.54977">
        <ele>272</ele>
        <time>2016-09-12T09:38:34Z</time>
      </trkpt>
      <trkpt lat="45.93401" lon="4.54973">
        <ele>272</ele>
        <time>2016-09-12T09:38:35Z</time>
      </trkpt>
      <trkpt lat="45.93405" lon="4.54968">
        <ele>272</ele>
        <time>2016-09-12T09:38:36Z</time>
      </trkpt>
      <trkpt lat="45.93408" lon="4.54963">
        <ele>272</ele>
        <time>2016-09-12T09:38:37Z</time>
      </trkpt>
      <trkpt lat="45.93412" lon="4.54958">
        <ele>271</ele>
        <time>2016-09-12T09:38:38Z</time>
      </trkpt>
      <trkpt lat="45.93417" lon="4.54952">
        <ele>271</ele>
        <time>2016-09-12T09:38:39Z</time>
      </trkpt>
      <trkpt lat="45.93421" lon="4.54946">
        <ele>278</ele>
        <time>2016-09-12T09:38:40Z</time>
      </trkpt>
      <trkpt lat="45.93425" lon="4.5494">
        <ele>277</ele>
        <time>2016-09-12T09:38:41Z</time>
      </trkpt>
      <trkpt lat="45.93429" lon="4.54934">
        <ele>276</ele>
        <time>2016-09-12T09:38:42Z</time>
      </trkpt>
      <trkpt lat="45.93434" lon="4.54927">
        <ele>276</ele>
        <time>2016-09-12T09:38:43Z</time>
      </trkpt>
      <trkpt lat="45.93438" lon="4.5492">
        <ele>277</ele>
        <time>2016-09-12T09:38:44Z</time>
      </trkpt>
      <trkpt lat="45.93442" lon="4.54913">
        <ele>272</ele>
        <time>2016-09-12T09:38:45Z</time>
      </trkpt>
      <trkpt lat="45.93447" lon="4.54905">
        <ele>273</ele>
        <time>2016-09-12T09:38:46Z</time>
      </trkpt>
      <trkpt lat="45.93452" lon="4.54897">
        <ele>273</ele>
        <time>2016-09-12T09:38:47Z</time>
      </trkpt>
      <trkpt lat="45.93458" lon="4.54889">
        <ele>274</ele>
        <time>2016-09-12T09:38:48Z</time>
      </trkpt>
      <trkpt lat="45.93463" lon="4.54881">
        <ele>274</ele>
        <time>2016-09-12T09:38:49Z</time>
      </trkpt>
      <trkpt lat="45.93469" lon="4.54873">
        <ele>274</ele>
        <time>2016-09-12T09:38:50Z</time>
      </trkpt>
      <trkpt lat="45.93475" lon="4.54865">
        <ele>274</ele>
        <time>2016-09-12T09:38:51Z</time>
      </trkpt>
      <trkpt lat="45.9348" lon="4.54857">
        <ele>274</ele>
        <time>2016-09-12T09:38:52Z</time>
      </trkpt>
      <trkpt lat="45.93486" lon="4.54849">
        <ele>274</ele>
        <time>2016-09-12T09:38:53Z</time>
      </trkpt>
      <trkpt lat="45.93492" lon="4.54841">
        <ele>274</ele>
        <time>2016-09-12T09:38:54Z</time>
      </trkpt>
      <trkpt lat="45.93497" lon="4.54832">
        <ele>273</ele>
        <time>2016-09-12T09:38:55Z</time>
      </trkpt>
      <trkpt lat="45.93502" lon="4.54823">
        <ele>275</ele>
        <time>2016-09-12T09:38:56Z</time>
      </trkpt>
      <trkpt lat="45.93507" lon="4.54814">
        <ele>275</ele>
        <time>2016-09-12T09:38:57Z</time>
      </trkpt>
      <trkpt lat="45.93512" lon="4.54806">
        <ele>275</ele>
        <time>2016-09-12T09:38:58Z</time>
      </trkpt>
      <trkpt lat="45.93518" lon="4.54796">
        <ele>275</ele>
        <time>2016-09-12T09:38:59Z</time>
      </trkpt>
      <trkpt lat="45.93524" lon="4.54787">
        <ele>275</ele>
        <time>2016-09-12T09:39:00Z</time>
      </trkpt>
      <trkpt lat="45.93529" lon="4.54778">
        <ele>275</ele>
        <time>2016-09-12T09:39:01Z</time>
      </trkpt>
      <trkpt lat="45.93534" lon="4.5477">
        <ele>275</ele>
        <time>2016-09-12T09:39:02Z</time>
      </trkpt>
      <trkpt lat="45.93539" lon="4.54763">
        <ele>275</ele>
        <time>2016-09-12T09:39:03Z</time>
      </trkpt>
      <trkpt lat="45.93545" lon="4.54756">
        <ele>275</ele>
        <time>2016-09-12T09:39:04Z</time>
      </trkpt>
      <trkpt lat="45.93551" lon="4.5475">
        <ele>271</ele>
        <time>2016-09-12T09:39:05Z</time>
      </trkpt>
      <trkpt lat="45.93557" lon="4.54744">
        <ele>271</ele>
        <time>2016-09-12T09:39:06Z</time>
      </trkpt>
      <trkpt lat="45.93562" lon="4.54739">
        <ele>272</ele>
        <time>2016-09-12T09:39:07Z</time>
      </trkpt>
      <trkpt lat="45.93568" lon="4.54734">
        <ele>272</ele>
        <time>2016-09-12T09:39:08Z</time>
      </trkpt>
      <trkpt lat="45.93573" lon="4.54729">
        <ele>272</ele>
        <time>2016-09-12T09:39:09Z</time>
      </trkpt>
      <trkpt lat="45.93578" lon="4.54725">
        <ele>272</ele>
        <time>2016-09-12T09:39:10Z</time>
      </trkpt>
      <trkpt lat="45.93583" lon="4.5472">
        <ele>271</ele>
        <time>2016-09-12T09:39:11Z</time>
      </trkpt>
      <trkpt lat="45.93588" lon="4.54715">
        <ele>275</ele>
        <time>2016-09-12T09:39:12Z</time>
      </trkpt>
      <trkpt lat="45.93593" lon="4.5471">
        <ele>275</ele>
        <time>2016-09-12T09:39:13Z</time>
      </trkpt>
      <trkpt lat="45.93598" lon="4.54706">
        <ele>275</ele>
        <time>2016-09-12T09:39:14Z</time>
      </trkpt>
      <trkpt lat="45.93603" lon="4.54701">
        <ele>275</ele>
        <time>2016-09-12T09:39:15Z</time>
      </trkpt>
      <trkpt lat="45.93608" lon="4.54697">
        <ele>275</ele>
        <time>2016-09-12T09:39:16Z</time>
      </trkpt>
      <trkpt lat="45.93613" lon="4.54692">
        <ele>275</ele>
        <time>2016-09-12T09:39:17Z</time>
      </trkpt>
      <trkpt lat="45.93617" lon="4.54688">
        <ele>275</ele>
        <time>2016-09-12T09:39:18Z</time>
      </trkpt>
      <trkpt lat="45.93622" lon="4.54684">
        <ele>275</ele>
        <time>2016-09-12T09:39:19Z</time>
      </trkpt>
      <trkpt lat="45.93626" lon="4.54679">
        <ele>275</ele>
        <time>2016-09-12T09:39:20Z</time>
      </trkpt>
      <trkpt lat="45.93631" lon="4.54675">
        <ele>275</ele>
        <time>2016-09-12T09:39:21Z</time>
      </trkpt>
      <trkpt lat="45.93635" lon="4.5467">
        <ele>275</ele>
        <time>2016-09-12T09:39:22Z</time>
      </trkpt>
      <trkpt lat="45.9364" lon="4.54666">
        <ele>271</ele>
        <time>2016-09-12T09:39:23Z</time>
      </trkpt>
      <trkpt lat="45.93646" lon="4.5466">
        <ele>272</ele>
        <time>2016-09-12T09:39:24Z</time>
      </trkpt>
      <trkpt lat="45.93652" lon="4.54656">
        <ele>272</ele>
        <time>2016-09-12T09:39:25Z</time>
      </trkpt>
      <trkpt lat="45.93658" lon="4.54651">
        <ele>272</ele>
        <time>2016-09-12T09:39:26Z</time>
      </trkpt>
      <trkpt lat="45.93664" lon="4.54646">
        <ele>272</ele>
        <time>2016-09-12T09:39:27Z</time>
      </trkpt>
      <trkpt lat="45.9367" lon="4.54641">
        <ele>275</ele>
        <time>2016-09-12T09:39:28Z</time>
      </trkpt>
      <trkpt lat="45.93676" lon="4.54636">
        <ele>275</ele>
        <time>2016-09-12T09:39:29Z</time>
      </trkpt>
      <trkpt lat="45.93682" lon="4.54632">
        <ele>275</ele>
        <time>2016-09-12T09:39:30Z</time>
      </trkpt>
      <trkpt lat="45.93688" lon="4.54627">
        <ele>275</ele>
        <time>2016-09-12T09:39:31Z</time>
      </trkpt>
      <trkpt lat="45.93694" lon="4.54622">
        <ele>275</ele>
        <time>2016-09-12T09:39:32Z</time>
      </trkpt>
      <trkpt lat="45.93699" lon="4.54617">
        <ele>275</ele>
        <time>2016-09-12T09:39:33Z</time>
      </trkpt>
      <trkpt lat="45.93705" lon="4.54611">
        <ele>275</ele>
        <time>2016-09-12T09:39:34Z</time>
      </trkpt>
      <trkpt lat="45.93711" lon="4.54605">
        <ele>275</ele>
        <time>2016-09-12T09:39:35Z</time>
      </trkpt>
      <trkpt lat="45.93716" lon="4.54598">
        <ele>275</ele>
        <time>2016-09-12T09:39:36Z</time>
      </trkpt>
      <trkpt lat="45.93722" lon="4.54592">
        <ele>275</ele>
        <time>2016-09-12T09:39:37Z</time>
      </trkpt>
      <trkpt lat="45.93727" lon="4.54586">
        <ele>275</ele>
        <time>2016-09-12T09:39:38Z</time>
      </trkpt>
      <trkpt lat="45.93733" lon="4.5458">
        <ele>271</ele>
        <time>2016-09-12T09:39:39Z</time>
      </trkpt>
      <trkpt lat="45.93739" lon="4.54576">
        <ele>271</ele>
        <time>2016-09-12T09:39:40Z</time>
      </trkpt>
      <trkpt lat="45.93744" lon="4.5457">
        <ele>271</ele>
        <time>2016-09-12T09:39:41Z</time>
      </trkpt>
      <trkpt lat="45.93749" lon="4.54566">
        <ele>270</ele>
        <time>2016-09-12T09:39:42Z</time>
      </trkpt>
      <trkpt lat="45.93755" lon="4.54562">
        <ele>273</ele>
        <time>2016-09-12T09:39:43Z</time>
      </trkpt>
      <trkpt lat="45.93759" lon="4.54557">
        <ele>273</ele>
        <time>2016-09-12T09:39:44Z</time>
      </trkpt>
      <trkpt lat="45.93764" lon="4.54553">
        <ele>273</ele>
        <time>2016-09-12T09:39:45Z</time>
      </trkpt>
      <trkpt lat="45.93769" lon="4.5455">
        <ele>273</ele>
        <time>2016-09-12T09:39:46Z</time>
      </trkpt>
      <trkpt lat="45.93774" lon="4.54546">
        <ele>273</ele>
        <time>2016-09-12T09:39:47Z</time>
      </trkpt>
      <trkpt lat="45.9378" lon="4.54542">
        <ele>273</ele>
        <time>2016-09-12T09:39:48Z</time>
      </trkpt>
      <trkpt lat="45.93785" lon="4.54539">
        <ele>273</ele>
        <time>2016-09-12T09:39:49Z</time>
      </trkpt>
      <trkpt lat="45.93792" lon="4.54533">
        <ele>273</ele>
        <time>2016-09-12T09:39:50Z</time>
      </trkpt>
      <trkpt lat="45.93797" lon="4.54528">
        <ele>273</ele>
        <time>2016-09-12T09:39:51Z</time>
      </trkpt>
      <trkpt lat="45.93803" lon="4.54523">
        <ele>273</ele>
        <time>2016-09-12T09:39:52Z</time>
      </trkpt>
      <trkpt lat="45.93808" lon="4.54518">
        <ele>272</ele>
        <time>2016-09-12T09:39:53Z</time>
      </trkpt>
      <trkpt lat="45.93814" lon="4.54513">
        <ele>272</ele>
        <time>2016-09-12T09:39:54Z</time>
      </trkpt>
      <trkpt lat="45.9382" lon="4.54508">
        <ele>272</ele>
        <time>2016-09-12T09:39:55Z</time>
      </trkpt>
      <trkpt lat="45.93825" lon="4.54502">
        <ele>271</ele>
        <time>2016-09-12T09:39:56Z</time>
      </trkpt>
      <trkpt lat="45.93831" lon="4.54498">
        <ele>269</ele>
        <time>2016-09-12T09:39:57Z</time>
      </trkpt>
      <trkpt lat="45.93836" lon="4.54493">
        <ele>271</ele>
        <time>2016-09-12T09:39:58Z</time>
      </trkpt>
      <trkpt lat="45.9384" lon="4.54487">
        <ele>271</ele>
        <time>2016-09-12T09:39:59Z</time>
      </trkpt>
      <trkpt lat="45.93845" lon="4.54482">
        <ele>271</ele>
        <time>2016-09-12T09:40:00Z</time>
      </trkpt>
      <trkpt lat="45.9385" lon="4.54476">
        <ele>271</ele>
        <time>2016-09-12T09:40:01Z</time>
      </trkpt>
      <trkpt lat="45.93854" lon="4.54471">
        <ele>271</ele>
        <time>2016-09-12T09:40:02Z</time>
      </trkpt>
      <trkpt lat="45.9386" lon="4.54465">
        <ele>271</ele>
        <time>2016-09-12T09:40:03Z</time>
      </trkpt>
      <trkpt lat="45.93864" lon="4.5446">
        <ele>271</ele>
        <time>2016-09-12T09:40:04Z</time>
      </trkpt>
      <trkpt lat="45.93869" lon="4.54455">
        <ele>271</ele>
        <time>2016-09-12T09:40:05Z</time>
      </trkpt>
      <trkpt lat="45.93874" lon="4.54449">
        <ele>271</ele>
        <time>2016-09-12T09:40:06Z</time>
      </trkpt>
      <trkpt lat="45.93879" lon="4.54444">
        <ele>271</ele>
        <time>2016-09-12T09:40:07Z</time>
      </trkpt>
      <trkpt lat="45.93885" lon="4.54439">
        <ele>271</ele>
        <time>2016-09-12T09:40:08Z</time>
      </trkpt>
      <trkpt lat="45.9389" lon="4.54433">
        <ele>271</ele>
        <time>2016-09-12T09:40:09Z</time>
      </trkpt>
      <trkpt lat="45.93895" lon="4.54427">
        <ele>270</ele>
        <time>2016-09-12T09:40:10Z</time>
      </trkpt>
      <trkpt lat="45.939" lon="4.54422">
        <ele>270</ele>
        <time>2016-09-12T09:40:11Z</time>
      </trkpt>
      <trkpt lat="45.93906" lon="4.54417">
        <ele>269</ele>
        <time>2016-09-12T09:40:12Z</time>
      </trkpt>
      <trkpt lat="45.93911" lon="4.54412">
        <ele>268</ele>
        <time>2016-09-12T09:40:13Z</time>
      </trkpt>
      <trkpt lat="45.93916" lon="4.54407">
        <ele>268</ele>
        <time>2016-09-12T09:40:14Z</time>
      </trkpt>
      <trkpt lat="45.93921" lon="4.54403">
        <ele>268</ele>
        <time>2016-09-12T09:40:15Z</time>
      </trkpt>
      <trkpt lat="45.93927" lon="4.544">
        <ele>268</ele>
        <time>2016-09-12T09:40:16Z</time>
      </trkpt>
      <trkpt lat="45.93932" lon="4.54398">
        <ele>269</ele>
        <time>2016-09-12T09:40:17Z</time>
      </trkpt>
      <trkpt lat="45.93938" lon="4.54396">
        <ele>269</ele>
        <time>2016-09-12T09:40:18Z</time>
      </trkpt>
      <trkpt lat="45.93943" lon="4.54393">
        <ele>269</ele>
        <time>2016-09-12T09:40:19Z</time>
      </trkpt>
      <trkpt lat="45.93948" lon="4.54392">
        <ele>269</ele>
        <time>2016-09-12T09:40:20Z</time>
      </trkpt>
      <trkpt lat="45.93954" lon="4.54391">
        <ele>269</ele>
        <time>2016-09-12T09:40:21Z</time>
      </trkpt>
      <trkpt lat="45.9396" lon="4.5439">
        <ele>269</ele>
        <time>2016-09-12T09:40:22Z</time>
      </trkpt>
      <trkpt lat="45.93967" lon="4.54393">
        <ele>269</ele>
        <time>2016-09-12T09:40:23Z</time>
      </trkpt>
      <trkpt lat="45.93977" lon="4.54399">
        <ele>269</ele>
        <time>2016-09-12T09:40:24Z</time>
      </trkpt>
      <trkpt lat="45.93986" lon="4.544">
        <ele>269</ele>
        <time>2016-09-12T09:40:25Z</time>
      </trkpt>
      <trkpt lat="45.93994" lon="4.54399">
        <ele>269</ele>
        <time>2016-09-12T09:40:26Z</time>
      </trkpt>
      <trkpt lat="45.94001" lon="4.54399">
        <ele>271</ele>
        <time>2016-09-12T09:40:27Z</time>
      </trkpt>
      <trkpt lat="45.94007" lon="4.54398">
        <ele>271</ele>
        <time>2016-09-12T09:40:28Z</time>
      </trkpt>
      <trkpt lat="45.94012" lon="4.54397">
        <ele>271</ele>
        <time>2016-09-12T09:40:29Z</time>
      </trkpt>
      <trkpt lat="45.94016" lon="4.54395">
        <ele>271</ele>
        <time>2016-09-12T09:40:30Z</time>
      </trkpt>
      <trkpt lat="45.94021" lon="4.54392">
        <ele>271</ele>
        <time>2016-09-12T09:40:31Z</time>
      </trkpt>
      <trkpt lat="45.94026" lon="4.54389">
        <ele>272</ele>
        <time>2016-09-12T09:40:32Z</time>
      </trkpt>
      <trkpt lat="45.94031" lon="4.54385">
        <ele>272</ele>
        <time>2016-09-12T09:40:33Z</time>
      </trkpt>
      <trkpt lat="45.94035" lon="4.54381">
        <ele>272</ele>
        <time>2016-09-12T09:40:34Z</time>
      </trkpt>
      <trkpt lat="45.9404" lon="4.54377">
        <ele>272</ele>
        <time>2016-09-12T09:40:35Z</time>
      </trkpt>
      <trkpt lat="45.94044" lon="4.54373">
        <ele>272</ele>
        <time>2016-09-12T09:40:36Z</time>
      </trkpt>
      <trkpt lat="45.94048" lon="4.54367">
        <ele>273</ele>
        <time>2016-09-12T09:40:37Z</time>
      </trkpt>
      <trkpt lat="45.94052" lon="4.54362">
        <ele>273</ele>
        <time>2016-09-12T09:40:38Z</time>
      </trkpt>
      <trkpt lat="45.94055" lon="4.54356">
        <ele>273</ele>
        <time>2016-09-12T09:40:39Z</time>
      </trkpt>
      <trkpt lat="45.94058" lon="4.54351">
        <ele>274</ele>
        <time>2016-09-12T09:40:40Z</time>
      </trkpt>
      <trkpt lat="45.94061" lon="4.54345">
        <ele>274</ele>
        <time>2016-09-12T09:40:41Z</time>
      </trkpt>
      <trkpt lat="45.94064" lon="4.54339">
        <ele>274</ele>
        <time>2016-09-12T09:40:42Z</time>
      </trkpt>
      <trkpt lat="45.94066" lon="4.54334">
        <ele>275</ele>
        <time>2016-09-12T09:40:43Z</time>
      </trkpt>
      <trkpt lat="45.94067" lon="4.54327">
        <ele>276</ele>
        <time>2016-09-12T09:40:44Z</time>
      </trkpt>
      <trkpt lat="45.94069" lon="4.54321">
        <ele>276</ele>
        <time>2016-09-12T09:40:45Z</time>
      </trkpt>
      <trkpt lat="45.94071" lon="4.54309">
        <ele>275</ele>
        <time>2016-09-12T09:40:47Z</time>
      </trkpt>
      <trkpt lat="45.94073" lon="4.54303">
        <ele>275</ele>
        <time>2016-09-12T09:40:48Z</time>
      </trkpt>
      <trkpt lat="45.94075" lon="4.54292">
        <ele>275</ele>
        <time>2016-09-12T09:40:50Z</time>
      </trkpt>
      <trkpt lat="45.94076" lon="4.54286">
        <ele>275</ele>
        <time>2016-09-12T09:40:51Z</time>
      </trkpt>
      <trkpt lat="45.94079" lon="4.54274">
        <ele>275</ele>
        <time>2016-09-12T09:40:53Z</time>
      </trkpt>
      <trkpt lat="45.94081" lon="4.54268">
        <ele>275</ele>
        <time>2016-09-12T09:40:54Z</time>
      </trkpt>
      <trkpt lat="45.94084" lon="4.54257">
        <ele>277</ele>
        <time>2016-09-12T09:40:56Z</time>
      </trkpt>
      <trkpt lat="45.94085" lon="4.54252">
        <ele>276</ele>
        <time>2016-09-12T09:40:57Z</time>
      </trkpt>
      <trkpt lat="45.94088" lon="4.5424">
        <ele>278</ele>
        <time>2016-09-12T09:40:59Z</time>
      </trkpt>
      <trkpt lat="45.94091" lon="4.54234">
        <ele>279</ele>
        <time>2016-09-12T09:41:00Z</time>
      </trkpt>
      <trkpt lat="45.94092" lon="4.54228">
        <ele>279</ele>
        <time>2016-09-12T09:41:01Z</time>
      </trkpt>
      <trkpt lat="45.94093" lon="4.54221">
        <ele>279</ele>
        <time>2016-09-12T09:41:02Z</time>
      </trkpt>
      <trkpt lat="45.94094" lon="4.54209">
        <ele>280</ele>
        <time>2016-09-12T09:41:04Z</time>
      </trkpt>
      <trkpt lat="45.94095" lon="4.54204">
        <ele>280</ele>
        <time>2016-09-12T09:41:05Z</time>
      </trkpt>
      <trkpt lat="45.94099" lon="4.54193">
        <ele>279</ele>
        <time>2016-09-12T09:41:07Z</time>
      </trkpt>
      <trkpt lat="45.941" lon="4.54187">
        <ele>279</ele>
        <time>2016-09-12T09:41:08Z</time>
      </trkpt>
      <trkpt lat="45.94104" lon="4.54176">
        <ele>279</ele>
        <time>2016-09-12T09:41:10Z</time>
      </trkpt>
      <trkpt lat="45.94106" lon="4.54171">
        <ele>279</ele>
        <time>2016-09-12T09:41:11Z</time>
      </trkpt>
      <trkpt lat="45.94109" lon="4.54162">
        <ele>278</ele>
        <time>2016-09-12T09:41:13Z</time>
      </trkpt>
      <trkpt lat="45.94111" lon="4.54157">
        <ele>278</ele>
        <time>2016-09-12T09:41:14Z</time>
      </trkpt>
      <trkpt lat="45.94115" lon="4.54148">
        <ele>279</ele>
        <time>2016-09-12T09:41:16Z</time>
      </trkpt>
      <trkpt lat="45.94117" lon="4.54143">
        <ele>279</ele>
        <time>2016-09-12T09:41:17Z</time>
      </trkpt>
      <trkpt lat="45.94121" lon="4.54134">
        <ele>280</ele>
        <time>2016-09-12T09:41:19Z</time>
      </trkpt>
      <trkpt lat="45.94123" lon="4.54129">
        <ele>280</ele>
        <time>2016-09-12T09:41:20Z</time>
      </trkpt>
      <trkpt lat="45.94127" lon="4.54119">
        <ele>280</ele>
        <time>2016-09-12T09:41:22Z</time>
      </trkpt>
      <trkpt lat="45.9413" lon="4.54113">
        <ele>280</ele>
        <time>2016-09-12T09:41:23Z</time>
      </trkpt>
      <trkpt lat="45.94135" lon="4.54104">
        <ele>281</ele>
        <time>2016-09-12T09:41:25Z</time>
      </trkpt>
      <trkpt lat="45.94138" lon="4.541">
        <ele>281</ele>
        <time>2016-09-12T09:41:26Z</time>
      </trkpt>
      <trkpt lat="45.94142" lon="4.54091">
        <ele>282</ele>
        <time>2016-09-12T09:41:28Z</time>
      </trkpt>
      <trkpt lat="45.94144" lon="4.54086">
        <ele>283</ele>
        <time>2016-09-12T09:41:29Z</time>
      </trkpt>
      <trkpt lat="45.94148" lon="4.54077">
        <ele>282</ele>
        <time>2016-09-12T09:41:31Z</time>
      </trkpt>
      <trkpt lat="45.94151" lon="4.54073">
        <ele>282</ele>
        <time>2016-09-12T09:41:32Z</time>
      </trkpt>
      <trkpt lat="45.94155" lon="4.54065">
        <ele>281</ele>
        <time>2016-09-12T09:41:34Z</time>
      </trkpt>
      <trkpt lat="45.94157" lon="4.5406">
        <ele>281</ele>
        <time>2016-09-12T09:41:35Z</time>
      </trkpt>
      <trkpt lat="45.94161" lon="4.54051">
        <ele>280</ele>
        <time>2016-09-12T09:41:37Z</time>
      </trkpt>
      <trkpt lat="45.94163" lon="4.54047">
        <ele>280</ele>
        <time>2016-09-12T09:41:38Z</time>
      </trkpt>
      <trkpt lat="45.94166" lon="4.54038">
        <ele>279</ele>
        <time>2016-09-12T09:41:40Z</time>
      </trkpt>
      <trkpt lat="45.94168" lon="4.54033">
        <ele>288</ele>
        <time>2016-09-12T09:41:41Z</time>
      </trkpt>
      <trkpt lat="45.94172" lon="4.54023">
        <ele>287</ele>
        <time>2016-09-12T09:41:43Z</time>
      </trkpt>
      <trkpt lat="45.94174" lon="4.54019">
        <ele>286</ele>
        <time>2016-09-12T09:41:44Z</time>
      </trkpt>
      <trkpt lat="45.94178" lon="4.5401">
        <ele>285</ele>
        <time>2016-09-12T09:41:46Z</time>
      </trkpt>
      <trkpt lat="45.9418" lon="4.54006">
        <ele>285</ele>
        <time>2016-09-12T09:41:47Z</time>
      </trkpt>
      <trkpt lat="45.94185" lon="4.53999">
        <ele>281</ele>
        <time>2016-09-12T09:41:49Z</time>
      </trkpt>
      <trkpt lat="45.94187" lon="4.53995">
        <ele>281</ele>
        <time>2016-09-12T09:41:50Z</time>
      </trkpt>
      <trkpt lat="45.94193" lon="4.53989">
        <ele>281</ele>
        <time>2016-09-12T09:41:52Z</time>
      </trkpt>
      <trkpt lat="45.94196" lon="4.53986">
        <ele>281</ele>
        <time>2016-09-12T09:41:53Z</time>
      </trkpt>
      <trkpt lat="45.94201" lon="4.53979">
        <ele>281</ele>
        <time>2016-09-12T09:41:55Z</time>
      </trkpt>
      <trkpt lat="45.94204" lon="4.53976">
        <ele>281</ele>
        <time>2016-09-12T09:41:56Z</time>
      </trkpt>
      <trkpt lat="45.94211" lon="4.53972">
        <ele>281</ele>
        <time>2016-09-12T09:41:58Z</time>
      </trkpt>
      <trkpt lat="45.94215" lon="4.53971">
        <ele>282</ele>
        <time>2016-09-12T09:41:59Z</time>
      </trkpt>
      <trkpt lat="45.94222" lon="4.5397">
        <ele>282</ele>
        <time>2016-09-12T09:42:01Z</time>
      </trkpt>
      <trkpt lat="45.94225" lon="4.53969">
        <ele>282</ele>
        <time>2016-09-12T09:42:02Z</time>
      </trkpt>
      <trkpt lat="45.94233" lon="4.53968">
        <ele>282</ele>
        <time>2016-09-12T09:42:05Z</time>
      </trkpt>
      <trkpt lat="45.94237" lon="4.53968">
        <ele>283</ele>
        <time>2016-09-12T09:42:06Z</time>
      </trkpt>
      <trkpt lat="45.94243" lon="4.53969">
        <ele>283</ele>
        <time>2016-09-12T09:42:08Z</time>
      </trkpt>
      <trkpt lat="45.94247" lon="4.5397">
        <ele>283</ele>
        <time>2016-09-12T09:42:09Z</time>
      </trkpt>
      <trkpt lat="45.94254" lon="4.53972">
        <ele>286</ele>
        <time>2016-09-12T09:42:11Z</time>
      </trkpt>
      <trkpt lat="45.94257" lon="4.53973">
        <ele>286</ele>
        <time>2016-09-12T09:42:12Z</time>
      </trkpt>
      <trkpt lat="45.94265" lon="4.53973">
        <ele>286</ele>
        <time>2016-09-12T09:42:14Z</time>
      </trkpt>
      <trkpt lat="45.94268" lon="4.53975">
        <ele>286</ele>
        <time>2016-09-12T09:42:15Z</time>
      </trkpt>
      <trkpt lat="45.94275" lon="4.53976">
        <ele>286</ele>
        <time>2016-09-12T09:42:17Z</time>
      </trkpt>
      <trkpt lat="45.94278" lon="4.53976">
        <ele>286</ele>
        <time>2016-09-12T09:42:18Z</time>
      </trkpt>
      <trkpt lat="45.94286" lon="4.53977">
        <ele>286</ele>
        <time>2016-09-12T09:42:20Z</time>
      </trkpt>
      <trkpt lat="45.9429" lon="4.53977">
        <ele>286</ele>
        <time>2016-09-12T09:42:21Z</time>
      </trkpt>
      <trkpt lat="45.94298" lon="4.53975">
        <ele>286</ele>
        <time>2016-09-12T09:42:23Z</time>
      </trkpt>
      <trkpt lat="45.94301" lon="4.53974">
        <ele>286</ele>
        <time>2016-09-12T09:42:24Z</time>
      </trkpt>
      <trkpt lat="45.94307" lon="4.53971">
        <ele>286</ele>
        <time>2016-09-12T09:42:26Z</time>
      </trkpt>
      <trkpt lat="45.9431" lon="4.53969">
        <ele>286</ele>
        <time>2016-09-12T09:42:27Z</time>
      </trkpt>
      <trkpt lat="45.94317" lon="4.53965">
        <ele>285</ele>
        <time>2016-09-12T09:42:29Z</time>
      </trkpt>
      <trkpt lat="45.94321" lon="4.53963">
        <ele>285</ele>
        <time>2016-09-12T09:42:30Z</time>
      </trkpt>
      <trkpt lat="45.9433" lon="4.5396">
        <ele>285</ele>
        <time>2016-09-12T09:42:32Z</time>
      </trkpt>
      <trkpt lat="45.94335" lon="4.53958">
        <ele>289</ele>
        <time>2016-09-12T09:42:33Z</time>
      </trkpt>
      <trkpt lat="45.94339" lon="4.53956">
        <ele>289</ele>
        <time>2016-09-12T09:42:34Z</time>
      </trkpt>
      <trkpt lat="45.94344" lon="4.53953">
        <ele>288</ele>
        <time>2016-09-12T09:42:35Z</time>
      </trkpt>
      <trkpt lat="45.94348" lon="4.5395">
        <ele>288</ele>
        <time>2016-09-12T09:42:36Z</time>
      </trkpt>
      <trkpt lat="45.94356" lon="4.53946">
        <ele>288</ele>
        <time>2016-09-12T09:42:37Z</time>
      </trkpt>
      <trkpt lat="45.94361" lon="4.53944">
        <ele>289</ele>
        <time>2016-09-12T09:42:38Z</time>
      </trkpt>
      <trkpt lat="45.94366" lon="4.53943">
        <ele>289</ele>
        <time>2016-09-12T09:42:39Z</time>
      </trkpt>
      <trkpt lat="45.94373" lon="4.53938">
        <ele>289</ele>
        <time>2016-09-12T09:42:41Z</time>
      </trkpt>
      <trkpt lat="45.94377" lon="4.53935">
        <ele>290</ele>
        <time>2016-09-12T09:42:42Z</time>
      </trkpt>
      <trkpt lat="45.94384" lon="4.53929">
        <ele>290</ele>
        <time>2016-09-12T09:42:44Z</time>
      </trkpt>
      <trkpt lat="45.94387" lon="4.53926">
        <ele>290</ele>
        <time>2016-09-12T09:42:45Z</time>
      </trkpt>
      <trkpt lat="45.94393" lon="4.53919">
        <ele>290</ele>
        <time>2016-09-12T09:42:47Z</time>
      </trkpt>
      <trkpt lat="45.94395" lon="4.53916">
        <ele>284</ele>
        <time>2016-09-12T09:42:48Z</time>
      </trkpt>
      <trkpt lat="45.94401" lon="4.53908">
        <ele>285</ele>
        <time>2016-09-12T09:42:50Z</time>
      </trkpt>
      <trkpt lat="45.94403" lon="4.53904">
        <ele>285</ele>
        <time>2016-09-12T09:42:51Z</time>
      </trkpt>
      <trkpt lat="45.94411" lon="4.53901">
        <ele>285</ele>
        <time>2016-09-12T09:42:54Z</time>
      </trkpt>
      <trkpt lat="45.94413" lon="4.53902">
        <ele>285</ele>
        <time>2016-09-12T09:42:55Z</time>
      </trkpt>
      <trkpt lat="45.94407" lon="4.53911">
        <ele>286</ele>
        <time>2016-09-12T09:43:00Z</time>
      </trkpt>
      <trkpt lat="45.94405" lon="4.53912">
        <ele>286</ele>
        <time>2016-09-12T09:43:01Z</time>
      </trkpt>
      <trkpt lat="45.94399" lon="4.53916">
        <ele>285</ele>
        <time>2016-09-12T09:43:04Z</time>
      </trkpt>
      <trkpt lat="45.94397" lon="4.53919">
        <ele>290</ele>
        <time>2016-09-12T09:43:05Z</time>
      </trkpt>
      <trkpt lat="45.94389" lon="4.53924">
        <ele>290</ele>
        <time>2016-09-12T09:43:08Z</time>
      </trkpt>
      <trkpt lat="45.94386" lon="4.53926">
        <ele>290</ele>
        <time>2016-09-12T09:43:09Z</time>
      </trkpt>
      <trkpt lat="45.94379" lon="4.53933">
        <ele>290</ele>
        <time>2016-09-12T09:43:12Z</time>
      </trkpt>
      <trkpt lat="45.94377" lon="4.53935">
        <ele>290</ele>
        <time>2016-09-12T09:43:13Z</time>
      </trkpt>
      <trkpt lat="45.94369" lon="4.53942">
        <ele>289</ele>
        <time>2016-09-12T09:43:18Z</time>
      </trkpt>
      <trkpt lat="45.9437" lon="4.53943">
        <ele>289</ele>
        <time>2016-09-12T09:43:19Z</time>
      </trkpt>
      <trkpt lat="45.94371" lon="4.53943">
        <ele>290</ele>
        <time>2016-09-12T09:47:24Z</time>
      </trkpt>
      <trkpt lat="45.94373" lon="4.53945">
        <ele>290</ele>
        <time>2016-09-12T09:47:25Z</time>
      </trkpt>
      <trkpt lat="45.94365" lon="4.5395">
        <ele>290</ele>
        <time>2016-09-12T09:47:37Z</time>
      </trkpt>
      <trkpt lat="45.94363" lon="4.5395">
        <ele>289</ele>
        <time>2016-09-12T09:47:38Z</time>
      </trkpt>
      <trkpt lat="45.94356" lon="4.53954">
        <ele>289</ele>
        <time>2016-09-12T09:47:41Z</time>
      </trkpt>
      <trkpt lat="45.94354" lon="4.53956">
        <ele>290</ele>
        <time>2016-09-12T09:47:42Z</time>
      </trkpt>
      <trkpt lat="45.94347" lon="4.53962">
        <ele>290</ele>
        <time>2016-09-12T09:47:45Z</time>
      </trkpt>
      <trkpt lat="45.94345" lon="4.53964">
        <ele>290</ele>
        <time>2016-09-12T09:47:46Z</time>
      </trkpt>
      <trkpt lat="45.94338" lon="4.53969">
        <ele>290</ele>
        <time>2016-09-12T09:47:49Z</time>
      </trkpt>
      <trkpt lat="45.94336" lon="4.5397">
        <ele>290</ele>
        <time>2016-09-12T09:47:50Z</time>
      </trkpt>
      <trkpt lat="45.9433" lon="4.53974">
        <ele>287</ele>
        <time>2016-09-12T09:47:53Z</time>
      </trkpt>
      <trkpt lat="45.94327" lon="4.53975">
        <ele>287</ele>
        <time>2016-09-12T09:47:54Z</time>
      </trkpt>
      <trkpt lat="45.9432" lon="4.53981">
        <ele>288</ele>
        <time>2016-09-12T09:47:58Z</time>
      </trkpt>
      <trkpt lat="45.94318" lon="4.53982">
        <ele>288</ele>
        <time>2016-09-12T09:47:59Z</time>
      </trkpt>
      <trkpt lat="45.94309" lon="4.53987">
        <ele>288</ele>
        <time>2016-09-12T09:48:04Z</time>
      </trkpt>
      <trkpt lat="45.94308" lon="4.53989">
        <ele>288</ele>
        <time>2016-09-12T09:48:05Z</time>
      </trkpt>
      <trkpt lat="45.94301" lon="4.53991">
        <ele>287</ele>
        <time>2016-09-12T09:48:09Z</time>
      </trkpt>
      <trkpt lat="45.94297" lon="4.53994">
        <ele>287</ele>
        <time>2016-09-12T09:48:10Z</time>
      </trkpt>
      <trkpt lat="45.9429" lon="4.54">
        <ele>296</ele>
        <time>2016-09-12T09:48:15Z</time>
      </trkpt>
      <trkpt lat="45.94288" lon="4.54001">
        <ele>296</ele>
        <time>2016-09-12T09:48:16Z</time>
      </trkpt>
      <trkpt lat="45.94281" lon="4.54007">
        <ele>296</ele>
        <time>2016-09-12T09:48:21Z</time>
      </trkpt>
      <trkpt lat="45.94279" lon="4.54008">
        <ele>296</ele>
        <time>2016-09-12T09:48:22Z</time>
      </trkpt>
      <trkpt lat="45.94272" lon="4.54011">
        <ele>296</ele>
        <time>2016-09-12T09:48:25Z</time>
      </trkpt>
      <trkpt lat="45.9427" lon="4.54012">
        <ele>295</ele>
        <time>2016-09-12T09:48:26Z</time>
      </trkpt>
      <trkpt lat="45.94262" lon="4.54016">
        <ele>295</ele>
        <time>2016-09-12T09:48:30Z</time>
      </trkpt>
      <trkpt lat="45.9426" lon="4.54017">
        <ele>295</ele>
        <time>2016-09-12T09:48:31Z</time>
      </trkpt>
      <trkpt lat="45.94253" lon="4.5402">
        <ele>295</ele>
        <time>2016-09-12T09:48:34Z</time>
      </trkpt>
      <trkpt lat="45.94251" lon="4.54021">
        <ele>296</ele>
        <time>2016-09-12T09:48:35Z</time>
      </trkpt>
      <trkpt lat="45.94243" lon="4.54027">
        <ele>292</ele>
        <time>2016-09-12T09:48:39Z</time>
      </trkpt>
      <trkpt lat="45.94242" lon="4.54028">
        <ele>292</ele>
        <time>2016-09-12T09:48:40Z</time>
      </trkpt>
      <trkpt lat="45.94235" lon="4.54034">
        <ele>292</ele>
        <time>2016-09-12T09:48:43Z</time>
      </trkpt>
      <trkpt lat="45.94232" lon="4.54035">
        <ele>292</ele>
        <time>2016-09-12T09:48:44Z</time>
      </trkpt>
      <trkpt lat="45.94225" lon="4.54043">
        <ele>292</ele>
        <time>2016-09-12T09:48:48Z</time>
      </trkpt>
      <trkpt lat="45.94224" lon="4.54045">
        <ele>292</ele>
        <time>2016-09-12T09:48:49Z</time>
      </trkpt>
      <trkpt lat="45.94221" lon="4.54057">
        <ele>293</ele>
        <time>2016-09-12T09:48:54Z</time>
      </trkpt>
      <trkpt lat="45.94221" lon="4.5406">
        <ele>293</ele>
        <time>2016-09-12T09:48:55Z</time>
      </trkpt>
      <trkpt lat="45.94222" lon="4.54071">
        <ele>294</ele>
        <time>2016-09-12T09:48:58Z</time>
      </trkpt>
      <trkpt lat="45.94222" lon="4.54074">
        <ele>294</ele>
        <time>2016-09-12T09:48:59Z</time>
      </trkpt>
      <trkpt lat="45.94225" lon="4.54085">
        <ele>298</ele>
        <time>2016-09-12T09:49:03Z</time>
      </trkpt>
      <trkpt lat="45.94226" lon="4.54088">
        <ele>298</ele>
        <time>2016-09-12T09:49:04Z</time>
      </trkpt>
      <trkpt lat="45.94232" lon="4.54096">
        <ele>299</ele>
        <time>2016-09-12T09:49:08Z</time>
      </trkpt>
      <trkpt lat="45.94235" lon="4.54098">
        <ele>299</ele>
        <time>2016-09-12T09:49:09Z</time>
      </trkpt>
      <trkpt lat="45.94242" lon="4.54103">
        <ele>299</ele>
        <time>2016-09-12T09:49:12Z</time>
      </trkpt>
      <trkpt lat="45.94244" lon="4.54104">
        <ele>299</ele>
        <time>2016-09-12T09:49:13Z</time>
      </trkpt>
      <trkpt lat="45.94252" lon="4.54105">
        <ele>304</ele>
        <time>2016-09-12T09:49:16Z</time>
      </trkpt>
      <trkpt lat="45.94255" lon="4.54105">
        <ele>304</ele>
        <time>2016-09-12T09:49:17Z</time>
      </trkpt>
      <trkpt lat="45.94262" lon="4.54105">
        <ele>304</ele>
        <time>2016-09-12T09:49:20Z</time>
      </trkpt>
      <trkpt lat="45.94264" lon="4.54105">
        <ele>304</ele>
        <time>2016-09-12T09:49:21Z</time>
      </trkpt>
      <trkpt lat="45.94271" lon="4.54103">
        <ele>305</ele>
        <time>2016-09-12T09:49:24Z</time>
      </trkpt>
      <trkpt lat="45.94273" lon="4.54103">
        <ele>305</ele>
        <time>2016-09-12T09:49:25Z</time>
      </trkpt>
      <trkpt lat="45.9428" lon="4.54102">
        <ele>305</ele>
        <time>2016-09-12T09:49:28Z</time>
      </trkpt>
      <trkpt lat="45.94282" lon="4.54102">
        <ele>305</ele>
        <time>2016-09-12T09:49:29Z</time>
      </trkpt>
      <trkpt lat="45.94291" lon="4.54101">
        <ele>305</ele>
        <time>2016-09-12T09:49:33Z</time>
      </trkpt>
      <trkpt lat="45.94293" lon="4.541">
        <ele>305</ele>
        <time>2016-09-12T09:49:34Z</time>
      </trkpt>
      <trkpt lat="45.94301" lon="4.54098">
        <ele>305</ele>
        <time>2016-09-12T09:49:38Z</time>
      </trkpt>
      <trkpt lat="45.94304" lon="4.54097">
        <ele>305</ele>
        <time>2016-09-12T09:49:39Z</time>
      </trkpt>
      <trkpt lat="45.94312" lon="4.54095">
        <ele>305</ele>
        <time>2016-09-12T09:49:43Z</time>
      </trkpt>
      <trkpt lat="45.94314" lon="4.54095">
        <ele>305</ele>
        <time>2016-09-12T09:49:44Z</time>
      </trkpt>
      <trkpt lat="45.94323" lon="4.54096">
        <ele>305</ele>
        <time>2016-09-12T09:49:48Z</time>
      </trkpt>
      <trkpt lat="45.94325" lon="4.54095">
        <ele>305</ele>
        <time>2016-09-12T09:49:49Z</time>
      </trkpt>
      <trkpt lat="45.94333" lon="4.54092">
        <ele>305</ele>
        <time>2016-09-12T09:49:53Z</time>
      </trkpt>
      <trkpt lat="45.94335" lon="4.54092">
        <ele>307</ele>
        <time>2016-09-12T09:49:54Z</time>
      </trkpt>
      <trkpt lat="45.94343" lon="4.54091">
        <ele>308</ele>
        <time>2016-09-12T09:49:58Z</time>
      </trkpt>
      <trkpt lat="45.94345" lon="4.54091">
        <ele>308</ele>
        <time>2016-09-12T09:49:59Z</time>
      </trkpt>
      <trkpt lat="45.94353" lon="4.54088">
        <ele>309</ele>
        <time>2016-09-12T09:50:03Z</time>
      </trkpt>
      <trkpt lat="45.94355" lon="4.54087">
        <ele>309</ele>
        <time>2016-09-12T09:50:04Z</time>
      </trkpt>
      <trkpt lat="45.94362" lon="4.54085">
        <ele>310</ele>
        <time>2016-09-12T09:50:08Z</time>
      </trkpt>
      <trkpt lat="45.94364" lon="4.54083">
        <ele>305</ele>
        <time>2016-09-12T09:50:09Z</time>
      </trkpt>
      <trkpt lat="45.94372" lon="4.5408">
        <ele>306</ele>
        <time>2016-09-12T09:50:13Z</time>
      </trkpt>
      <trkpt lat="45.94374" lon="4.54079">
        <ele>306</ele>
        <time>2016-09-12T09:50:14Z</time>
      </trkpt>
      <trkpt lat="45.94381" lon="4.54077">
        <ele>306</ele>
        <time>2016-09-12T09:50:18Z</time>
      </trkpt>
      <trkpt lat="45.94383" lon="4.54076">
        <ele>307</ele>
        <time>2016-09-12T09:50:19Z</time>
      </trkpt>
      <trkpt lat="45.94391" lon="4.54073">
        <ele>307</ele>
        <time>2016-09-12T09:50:23Z</time>
      </trkpt>
      <trkpt lat="45.94393" lon="4.54073">
        <ele>308</ele>
        <time>2016-09-12T09:50:24Z</time>
      </trkpt>
      <trkpt lat="45.944" lon="4.54069">
        <ele>308</ele>
        <time>2016-09-12T09:50:28Z</time>
      </trkpt>
      <trkpt lat="45.94402" lon="4.54068">
        <ele>308</ele>
        <time>2016-09-12T09:50:29Z</time>
      </trkpt>
      <trkpt lat="45.94411" lon="4.54067">
        <ele>309</ele>
        <time>2016-09-12T09:50:33Z</time>
      </trkpt>
      <trkpt lat="45.94413" lon="4.54066">
        <ele>309</ele>
        <time>2016-09-12T09:50:34Z</time>
      </trkpt>
      <trkpt lat="45.94421" lon="4.54062">
        <ele>312</ele>
        <time>2016-09-12T09:50:38Z</time>
      </trkpt>
      <trkpt lat="45.94423" lon="4.54061">
        <ele>312</ele>
        <time>2016-09-12T09:50:39Z</time>
      </trkpt>
      <trkpt lat="45.94431" lon="4.54061">
        <ele>312</ele>
        <time>2016-09-12T09:50:43Z</time>
      </trkpt>
      <trkpt lat="45.94433" lon="4.54061">
        <ele>312</ele>
        <time>2016-09-12T09:50:44Z</time>
      </trkpt>
      <trkpt lat="45.94441" lon="4.54061">
        <ele>312</ele>
        <time>2016-09-12T09:50:48Z</time>
      </trkpt>
      <trkpt lat="45.94443" lon="4.5406">
        <ele>312</ele>
        <time>2016-09-12T09:50:49Z</time>
      </trkpt>
      <trkpt lat="45.94449" lon="4.54058">
        <ele>312</ele>
        <time>2016-09-12T09:50:52Z</time>
      </trkpt>
      <trkpt lat="45.94451" lon="4.54057">
        <ele>312</ele>
        <time>2016-09-12T09:50:53Z</time>
      </trkpt>
      <trkpt lat="45.9446" lon="4.54056">
        <ele>313</ele>
        <time>2016-09-12T09:50:57Z</time>
      </trkpt>
      <trkpt lat="45.94462" lon="4.54056">
        <ele>313</ele>
        <time>2016-09-12T09:50:58Z</time>
      </trkpt>
      <trkpt lat="45.94469" lon="4.54055">
        <ele>313</ele>
        <time>2016-09-12T09:51:01Z</time>
      </trkpt>
      <trkpt lat="45.94471" lon="4.54055">
        <ele>313</ele>
        <time>2016-09-12T09:51:02Z</time>
      </trkpt>
      <trkpt lat="45.94478" lon="4.54057">
        <ele>313</ele>
        <time>2016-09-12T09:51:05Z</time>
      </trkpt>
      <trkpt lat="45.9448" lon="4.54056">
        <ele>313</ele>
        <time>2016-09-12T09:51:06Z</time>
      </trkpt>
      <trkpt lat="45.94488" lon="4.54056">
        <ele>314</ele>
        <time>2016-09-12T09:51:10Z</time>
      </trkpt>
      <trkpt lat="45.9449" lon="4.54057">
        <ele>314</ele>
        <time>2016-09-12T09:51:11Z</time>
      </trkpt>
      <trkpt lat="45.94499" lon="4.54058">
        <ele>314</ele>
        <time>2016-09-12T09:51:15Z</time>
      </trkpt>
      <trkpt lat="45.94501" lon="4.5406">
        <ele>316</ele>
        <time>2016-09-12T09:51:16Z</time>
      </trkpt>
      <trkpt lat="45.94507" lon="4.54063">
        <ele>317</ele>
        <time>2016-09-12T09:51:19Z</time>
      </trkpt>
      <trkpt lat="45.9451" lon="4.54064">
        <ele>317</ele>
        <time>2016-09-12T09:51:20Z</time>
      </trkpt>
      <trkpt lat="45.94518" lon="4.54066">
        <ele>317</ele>
        <time>2016-09-12T09:51:24Z</time>
      </trkpt>
      <trkpt lat="45.94521" lon="4.54067">
        <ele>316</ele>
        <time>2016-09-12T09:51:25Z</time>
      </trkpt>
      <trkpt lat="45.94529" lon="4.5407">
        <ele>316</ele>
        <time>2016-09-12T09:51:29Z</time>
      </trkpt>
      <trkpt lat="45.94531" lon="4.5407">
        <ele>316</ele>
        <time>2016-09-12T09:51:30Z</time>
      </trkpt>
      <trkpt lat="45.94539" lon="4.54073">
        <ele>317</ele>
        <time>2016-09-12T09:51:34Z</time>
      </trkpt>
      <trkpt lat="45.94541" lon="4.54074">
        <ele>317</ele>
        <time>2016-09-12T09:51:35Z</time>
      </trkpt>
      <trkpt lat="45.94549" lon="4.54079">
        <ele>317</ele>
        <time>2016-09-12T09:51:39Z</time>
      </trkpt>
      <trkpt lat="45.94551" lon="4.5408">
        <ele>317</ele>
        <time>2016-09-12T09:51:40Z</time>
      </trkpt>
      <trkpt lat="45.94559" lon="4.54084">
        <ele>323</ele>
        <time>2016-09-12T09:51:44Z</time>
      </trkpt>
      <trkpt lat="45.94561" lon="4.54085">
        <ele>323</ele>
        <time>2016-09-12T09:51:45Z</time>
      </trkpt>
      <trkpt lat="45.94569" lon="4.54088">
        <ele>323</ele>
        <time>2016-09-12T09:51:49Z</time>
      </trkpt>
      <trkpt lat="45.94571" lon="4.54089">
        <ele>323</ele>
        <time>2016-09-12T09:51:50Z</time>
      </trkpt>
      <trkpt lat="45.94579" lon="4.54095">
        <ele>323</ele>
        <time>2016-09-12T09:51:54Z</time>
      </trkpt>
      <trkpt lat="45.94581" lon="4.54096">
        <ele>323</ele>
        <time>2016-09-12T09:51:55Z</time>
      </trkpt>
      <trkpt lat="45.94589" lon="4.54103">
        <ele>323</ele>
        <time>2016-09-12T09:51:59Z</time>
      </trkpt>
      <trkpt lat="45.9459" lon="4.54104">
        <ele>323</ele>
        <time>2016-09-12T09:52:00Z</time>
      </trkpt>
      <trkpt lat="45.94596" lon="4.5411">
        <ele>324</ele>
        <time>2016-09-12T09:52:03Z</time>
      </trkpt>
      <trkpt lat="45.94598" lon="4.54113">
        <ele>324</ele>
        <time>2016-09-12T09:52:04Z</time>
      </trkpt>
      <trkpt lat="45.94604" lon="4.54121">
        <ele>325</ele>
        <time>2016-09-12T09:52:08Z</time>
      </trkpt>
      <trkpt lat="45.94605" lon="4.54123">
        <ele>325</ele>
        <time>2016-09-12T09:52:09Z</time>
      </trkpt>
      <trkpt lat="45.9461" lon="4.54133">
        <ele>326</ele>
        <time>2016-09-12T09:52:13Z</time>
      </trkpt>
      <trkpt lat="45.94611" lon="4.54136">
        <ele>326</ele>
        <time>2016-09-12T09:52:14Z</time>
      </trkpt>
      <trkpt lat="45.94615" lon="4.54145">
        <ele>326</ele>
        <time>2016-09-12T09:52:18Z</time>
      </trkpt>
      <trkpt lat="45.94616" lon="4.54148">
        <ele>326</ele>
        <time>2016-09-12T09:52:19Z</time>
      </trkpt>
      <trkpt lat="45.94622" lon="4.54158">
        <ele>327</ele>
        <time>2016-09-12T09:52:23Z</time>
      </trkpt>
      <trkpt lat="45.94623" lon="4.54161">
        <ele>327</ele>
        <time>2016-09-12T09:52:24Z</time>
      </trkpt>
      <trkpt lat="45.94627" lon="4.54172">
        <ele>333</ele>
        <time>2016-09-12T09:52:28Z</time>
      </trkpt>
      <trkpt lat="45.94628" lon="4.54175">
        <ele>333</ele>
        <time>2016-09-12T09:52:29Z</time>
      </trkpt>
      <trkpt lat="45.94632" lon="4.54182">
        <ele>333</ele>
        <time>2016-09-12T09:52:32Z</time>
      </trkpt>
      <trkpt lat="45.94633" lon="4.54185">
        <ele>333</ele>
        <time>2016-09-12T09:52:33Z</time>
      </trkpt>
      <trkpt lat="45.94639" lon="4.54194">
        <ele>333</ele>
        <time>2016-09-12T09:52:37Z</time>
      </trkpt>
      <trkpt lat="45.9464" lon="4.54196">
        <ele>333</ele>
        <time>2016-09-12T09:52:38Z</time>
      </trkpt>
      <trkpt lat="45.94645" lon="4.54207">
        <ele>334</ele>
        <time>2016-09-12T09:52:42Z</time>
      </trkpt>
      <trkpt lat="45.94647" lon="4.54208">
        <ele>334</ele>
        <time>2016-09-12T09:52:43Z</time>
      </trkpt>
      <trkpt lat="45.94653" lon="4.54217">
        <ele>334</ele>
        <time>2016-09-12T09:52:48Z</time>
      </trkpt>
      <trkpt lat="45.94654" lon="4.54219">
        <ele>335</ele>
        <time>2016-09-12T09:52:49Z</time>
      </trkpt>
      <trkpt lat="45.9466" lon="4.54227">
        <ele>335</ele>
        <time>2016-09-12T09:52:53Z</time>
      </trkpt>
      <trkpt lat="45.94662" lon="4.54229">
        <ele>335</ele>
        <time>2016-09-12T09:52:54Z</time>
      </trkpt>
      <trkpt lat="45.94669" lon="4.54236">
        <ele>335</ele>
        <time>2016-09-12T09:52:58Z</time>
      </trkpt>
      <trkpt lat="45.94671" lon="4.54238">
        <ele>336</ele>
        <time>2016-09-12T09:52:59Z</time>
      </trkpt>
      <trkpt lat="45.94678" lon="4.54244">
        <ele>336</ele>
        <time>2016-09-12T09:53:03Z</time>
      </trkpt>
      <trkpt lat="45.94679" lon="4.54246">
        <ele>336</ele>
        <time>2016-09-12T09:53:04Z</time>
      </trkpt>
      <trkpt lat="45.94685" lon="4.54252">
        <ele>339</ele>
        <time>2016-09-12T09:53:08Z</time>
      </trkpt>
      <trkpt lat="45.94686" lon="4.54253">
        <ele>339</ele>
        <time>2016-09-12T09:53:09Z</time>
      </trkpt>
      <trkpt lat="45.94694" lon="4.5426">
        <ele>340</ele>
        <time>2016-09-12T09:53:14Z</time>
      </trkpt>
      <trkpt lat="45.94695" lon="4.54261">
        <ele>340</ele>
        <time>2016-09-12T09:53:15Z</time>
      </trkpt>
      <trkpt lat="45.94701" lon="4.54268">
        <ele>340</ele>
        <time>2016-09-12T09:53:19Z</time>
      </trkpt>
      <trkpt lat="45.94702" lon="4.54269">
        <ele>340</ele>
        <time>2016-09-12T09:53:20Z</time>
      </trkpt>
      <trkpt lat="45.94709" lon="4.54273">
        <ele>340</ele>
        <time>2016-09-12T09:53:23Z</time>
      </trkpt>
      <trkpt lat="45.94711" lon="4.54274">
        <ele>340</ele>
        <time>2016-09-12T09:53:24Z</time>
      </trkpt>
      <trkpt lat="45.94717" lon="4.54281">
        <ele>341</ele>
        <time>2016-09-12T09:53:28Z</time>
      </trkpt>
      <trkpt lat="45.94719" lon="4.54283">
        <ele>341</ele>
        <time>2016-09-12T09:53:29Z</time>
      </trkpt>
      <trkpt lat="45.94725" lon="4.5429">
        <ele>341</ele>
        <time>2016-09-12T09:53:33Z</time>
      </trkpt>
      <trkpt lat="45.94727" lon="4.54292">
        <ele>341</ele>
        <time>2016-09-12T09:53:34Z</time>
      </trkpt>
      <trkpt lat="45.94734" lon="4.54299">
        <ele>342</ele>
        <time>2016-09-12T09:53:37Z</time>
      </trkpt>
      <trkpt lat="45.94736" lon="4.54301">
        <ele>342</ele>
        <time>2016-09-12T09:53:38Z</time>
      </trkpt>
      <trkpt lat="45.9474" lon="4.54309">
        <ele>343</ele>
        <time>2016-09-12T09:53:41Z</time>
      </trkpt>
      <trkpt lat="45.94742" lon="4.54311">
        <ele>343</ele>
        <time>2016-09-12T09:53:42Z</time>
      </trkpt>
      <trkpt lat="45.94748" lon="4.54318">
        <ele>344</ele>
        <time>2016-09-12T09:53:46Z</time>
      </trkpt>
      <trkpt lat="45.9475" lon="4.54319">
        <ele>344</ele>
        <time>2016-09-12T09:53:47Z</time>
      </trkpt>
      <trkpt lat="45.94756" lon="4.54326">
        <ele>345</ele>
        <time>2016-09-12T09:53:50Z</time>
      </trkpt>
      <trkpt lat="45.94757" lon="4.54329">
        <ele>345</ele>
        <time>2016-09-12T09:53:51Z</time>
      </trkpt>
      <trkpt lat="45.94762" lon="4.54338">
        <ele>347</ele>
        <time>2016-09-12T09:53:55Z</time>
      </trkpt>
      <trkpt lat="45.94763" lon="4.5434">
        <ele>347</ele>
        <time>2016-09-12T09:53:56Z</time>
      </trkpt>
      <trkpt lat="45.94769" lon="4.54348">
        <ele>347</ele>
        <time>2016-09-12T09:54:00Z</time>
      </trkpt>
      <trkpt lat="45.94771" lon="4.5435">
        <ele>347</ele>
        <time>2016-09-12T09:54:01Z</time>
      </trkpt>
      <trkpt lat="45.94776" lon="4.54358">
        <ele>347</ele>
        <time>2016-09-12T09:54:05Z</time>
      </trkpt>
      <trkpt lat="45.94777" lon="4.5436">
        <ele>347</ele>
        <time>2016-09-12T09:54:06Z</time>
      </trkpt>
      <trkpt lat="45.94782" lon="4.54369">
        <ele>348</ele>
        <time>2016-09-12T09:54:10Z</time>
      </trkpt>
      <trkpt lat="45.94783" lon="4.54371">
        <ele>348</ele>
        <time>2016-09-12T09:54:11Z</time>
      </trkpt>
      <trkpt lat="45.94787" lon="4.54381">
        <ele>348</ele>
        <time>2016-09-12T09:54:15Z</time>
      </trkpt>
      <trkpt lat="45.94788" lon="4.54383">
        <ele>348</ele>
        <time>2016-09-12T09:54:16Z</time>
      </trkpt>
      <trkpt lat="45.94794" lon="4.54392">
        <ele>348</ele>
        <time>2016-09-12T09:54:20Z</time>
      </trkpt>
      <trkpt lat="45.94797" lon="4.54394">
        <ele>348</ele>
        <time>2016-09-12T09:54:21Z</time>
      </trkpt>
      <trkpt lat="45.94802" lon="4.54402">
        <ele>348</ele>
        <time>2016-09-12T09:54:25Z</time>
      </trkpt>
      <trkpt lat="45.94802" lon="4.54405">
        <ele>348</ele>
        <time>2016-09-12T09:54:26Z</time>
      </trkpt>
      <trkpt lat="45.94806" lon="4.54414">
        <ele>348</ele>
        <time>2016-09-12T09:54:30Z</time>
      </trkpt>
      <trkpt lat="45.94807" lon="4.54416">
        <ele>348</ele>
        <time>2016-09-12T09:54:31Z</time>
      </trkpt>
      <trkpt lat="45.94813" lon="4.54425">
        <ele>351</ele>
        <time>2016-09-12T09:54:35Z</time>
      </trkpt>
      <trkpt lat="45.94814" lon="4.54427">
        <ele>350</ele>
        <time>2016-09-12T09:54:36Z</time>
      </trkpt>
      <trkpt lat="45.94819" lon="4.54432">
        <ele>350</ele>
        <time>2016-09-12T09:54:39Z</time>
      </trkpt>
      <trkpt lat="45.94822" lon="4.54434">
        <ele>350</ele>
        <time>2016-09-12T09:54:40Z</time>
      </trkpt>
      <trkpt lat="45.94828" lon="4.54443">
        <ele>351</ele>
        <time>2016-09-12T09:54:44Z</time>
      </trkpt>
      <trkpt lat="45.94829" lon="4.54445">
        <ele>351</ele>
        <time>2016-09-12T09:54:45Z</time>
      </trkpt>
      <trkpt lat="45.94836" lon="4.54451">
        <ele>352</ele>
        <time>2016-09-12T09:54:49Z</time>
      </trkpt>
      <trkpt lat="45.94838" lon="4.54452">
        <ele>352</ele>
        <time>2016-09-12T09:54:50Z</time>
      </trkpt>
      <trkpt lat="45.94845" lon="4.54455">
        <ele>352</ele>
        <time>2016-09-12T09:54:53Z</time>
      </trkpt>
      <trkpt lat="45.94847" lon="4.54456">
        <ele>352</ele>
        <time>2016-09-12T09:54:54Z</time>
      </trkpt>
      <trkpt lat="45.94855" lon="4.54457">
        <ele>352</ele>
        <time>2016-09-12T09:54:58Z</time>
      </trkpt>
      <trkpt lat="45.94856" lon="4.54458">
        <ele>353</ele>
        <time>2016-09-12T09:54:59Z</time>
      </trkpt>
      <trkpt lat="45.94864" lon="4.54459">
        <ele>353</ele>
        <time>2016-09-12T09:55:03Z</time>
      </trkpt>
      <trkpt lat="45.94866" lon="4.5446">
        <ele>353</ele>
        <time>2016-09-12T09:55:04Z</time>
      </trkpt>
      <trkpt lat="45.94875" lon="4.54462">
        <ele>353</ele>
        <time>2016-09-12T09:55:08Z</time>
      </trkpt>
      <trkpt lat="45.94877" lon="4.54462">
        <ele>353</ele>
        <time>2016-09-12T09:55:09Z</time>
      </trkpt>
      <trkpt lat="45.94885" lon="4.54463">
        <ele>354</ele>
        <time>2016-09-12T09:55:13Z</time>
      </trkpt>
      <trkpt lat="45.94887" lon="4.54463">
        <ele>354</ele>
        <time>2016-09-12T09:55:14Z</time>
      </trkpt>
      <trkpt lat="45.94894" lon="4.54463">
        <ele>354</ele>
        <time>2016-09-12T09:55:18Z</time>
      </trkpt>
      <trkpt lat="45.94896" lon="4.54463">
        <ele>354</ele>
        <time>2016-09-12T09:55:19Z</time>
      </trkpt>
      <trkpt lat="45.94904" lon="4.54463">
        <ele>355</ele>
        <time>2016-09-12T09:55:24Z</time>
      </trkpt>
      <trkpt lat="45.94906" lon="4.54463">
        <ele>355</ele>
        <time>2016-09-12T09:55:25Z</time>
      </trkpt>
      <trkpt lat="45.94914" lon="4.54466">
        <ele>355</ele>
        <time>2016-09-12T09:55:29Z</time>
      </trkpt>
      <trkpt lat="45.94916" lon="4.54465">
        <ele>355</ele>
        <time>2016-09-12T09:55:30Z</time>
      </trkpt>
      <trkpt lat="45.94924" lon="4.54463">
        <ele>360</ele>
        <time>2016-09-12T09:55:35Z</time>
      </trkpt>
      <trkpt lat="45.94926" lon="4.54464">
        <ele>360</ele>
        <time>2016-09-12T09:55:36Z</time>
      </trkpt>
      <trkpt lat="45.94933" lon="4.54464">
        <ele>360</ele>
        <time>2016-09-12T09:55:40Z</time>
      </trkpt>
      <trkpt lat="45.94935" lon="4.54464">
        <ele>360</ele>
        <time>2016-09-12T09:55:41Z</time>
      </trkpt>
      <trkpt lat="45.94943" lon="4.54464">
        <ele>361</ele>
        <time>2016-09-12T09:55:45Z</time>
      </trkpt>
      <trkpt lat="45.94945" lon="4.54464">
        <ele>361</ele>
        <time>2016-09-12T09:55:46Z</time>
      </trkpt>
      <trkpt lat="45.94952" lon="4.54464">
        <ele>361</ele>
        <time>2016-09-12T09:55:50Z</time>
      </trkpt>
      <trkpt lat="45.94954" lon="4.54464">
        <ele>361</ele>
        <time>2016-09-12T09:55:51Z</time>
      </trkpt>
      <trkpt lat="45.94962" lon="4.54468">
        <ele>362</ele>
        <time>2016-09-12T09:55:56Z</time>
      </trkpt>
      <trkpt lat="45.94963" lon="4.54468">
        <ele>362</ele>
        <time>2016-09-12T09:55:57Z</time>
      </trkpt>
      <trkpt lat="45.94971" lon="4.54469">
        <ele>362</ele>
        <time>2016-09-12T09:56:02Z</time>
      </trkpt>
      <trkpt lat="45.94973" lon="4.54468">
        <ele>362</ele>
        <time>2016-09-12T09:56:03Z</time>
      </trkpt>
      <trkpt lat="45.94982" lon="4.54469">
        <ele>363</ele>
        <time>2016-09-12T09:56:08Z</time>
      </trkpt>
      <trkpt lat="45.94983" lon="4.54469">
        <ele>363</ele>
        <time>2016-09-12T09:56:09Z</time>
      </trkpt>
      <trkpt lat="45.94991" lon="4.54471">
        <ele>363</ele>
        <time>2016-09-12T09:56:13Z</time>
      </trkpt>
      <trkpt lat="45.94993" lon="4.54472">
        <ele>363</ele>
        <time>2016-09-12T09:56:14Z</time>
      </trkpt>
      <trkpt lat="45.95" lon="4.54474">
        <ele>368</ele>
        <time>2016-09-12T09:56:18Z</time>
      </trkpt>
      <trkpt lat="45.95002" lon="4.54475">
        <ele>368</ele>
        <time>2016-09-12T09:56:19Z</time>
      </trkpt>
      <trkpt lat="45.9501" lon="4.54478">
        <ele>368</ele>
        <time>2016-09-12T09:56:23Z</time>
      </trkpt>
      <trkpt lat="45.95012" lon="4.54478">
        <ele>368</ele>
        <time>2016-09-12T09:56:24Z</time>
      </trkpt>
      <trkpt lat="45.9502" lon="4.54482">
        <ele>368</ele>
        <time>2016-09-12T09:56:29Z</time>
      </trkpt>
      <trkpt lat="45.95022" lon="4.54484">
        <ele>368</ele>
        <time>2016-09-12T09:56:30Z</time>
      </trkpt>
      <trkpt lat="45.95028" lon="4.54493">
        <ele>368</ele>
        <time>2016-09-12T09:56:35Z</time>
      </trkpt>
      <trkpt lat="45.95029" lon="4.54495">
        <ele>368</ele>
        <time>2016-09-12T09:56:36Z</time>
      </trkpt>
      <trkpt lat="45.95034" lon="4.54504">
        <ele>370</ele>
        <time>2016-09-12T09:56:40Z</time>
      </trkpt>
      <trkpt lat="45.95035" lon="4.54506">
        <ele>370</ele>
        <time>2016-09-12T09:56:41Z</time>
      </trkpt>
      <trkpt lat="45.9504" lon="4.54515">
        <ele>370</ele>
        <time>2016-09-12T09:56:44Z</time>
      </trkpt>
      <trkpt lat="45.95041" lon="4.54517">
        <ele>370</ele>
        <time>2016-09-12T09:56:45Z</time>
      </trkpt>
      <trkpt lat="45.95046" lon="4.54525">
        <ele>370</ele>
        <time>2016-09-12T09:56:49Z</time>
      </trkpt>
      <trkpt lat="45.95048" lon="4.54527">
        <ele>370</ele>
        <time>2016-09-12T09:56:50Z</time>
      </trkpt>
      <trkpt lat="45.95052" lon="4.54536">
        <ele>371</ele>
        <time>2016-09-12T09:56:54Z</time>
      </trkpt>
      <trkpt lat="45.95053" lon="4.54538">
        <ele>371</ele>
        <time>2016-09-12T09:56:55Z</time>
      </trkpt>
      <trkpt lat="45.95057" lon="4.54547">
        <ele>371</ele>
        <time>2016-09-12T09:56:59Z</time>
      </trkpt>
      <trkpt lat="45.95058" lon="4.54549">
        <ele>371</ele>
        <time>2016-09-12T09:57:00Z</time>
      </trkpt>
      <trkpt lat="45.95064" lon="4.54557">
        <ele>372</ele>
        <time>2016-09-12T09:57:05Z</time>
      </trkpt>
      <trkpt lat="45.95065" lon="4.5456">
        <ele>372</ele>
        <time>2016-09-12T09:57:06Z</time>
      </trkpt>
      <trkpt lat="45.95071" lon="4.54569">
        <ele>373</ele>
        <time>2016-09-12T09:57:11Z</time>
      </trkpt>
      <trkpt lat="45.95072" lon="4.54572">
        <ele>373</ele>
        <time>2016-09-12T09:57:12Z</time>
      </trkpt>
      <trkpt lat="45.95075" lon="4.54582">
        <ele>374</ele>
        <time>2016-09-12T09:57:16Z</time>
      </trkpt>
      <trkpt lat="45.95077" lon="4.54584">
        <ele>375</ele>
        <time>2016-09-12T09:57:17Z</time>
      </trkpt>
      <trkpt lat="45.95081" lon="4.54592">
        <ele>375</ele>
        <time>2016-09-12T09:57:21Z</time>
      </trkpt>
      <trkpt lat="45.95082" lon="4.54595">
        <ele>375</ele>
        <time>2016-09-12T09:57:22Z</time>
      </trkpt>
      <trkpt lat="45.95085" lon="4.54604">
        <ele>378</ele>
        <time>2016-09-12T09:57:26Z</time>
      </trkpt>
      <trkpt lat="45.95087" lon="4.54607">
        <ele>378</ele>
        <time>2016-09-12T09:57:27Z</time>
      </trkpt>
      <trkpt lat="45.95091" lon="4.54618">
        <ele>379</ele>
        <time>2016-09-12T09:57:31Z</time>
      </trkpt>
      <trkpt lat="45.95092" lon="4.5462">
        <ele>379</ele>
        <time>2016-09-12T09:57:32Z</time>
      </trkpt>
      <trkpt lat="45.95096" lon="4.5463">
        <ele>379</ele>
        <time>2016-09-12T09:57:36Z</time>
      </trkpt>
      <trkpt lat="45.95097" lon="4.54632">
        <ele>379</ele>
        <time>2016-09-12T09:57:37Z</time>
      </trkpt>
      <trkpt lat="45.951" lon="4.54642">
        <ele>379</ele>
        <time>2016-09-12T09:57:41Z</time>
      </trkpt>
      <trkpt lat="45.95101" lon="4.54645">
        <ele>379</ele>
        <time>2016-09-12T09:57:42Z</time>
      </trkpt>
      <trkpt lat="45.95105" lon="4.54653">
        <ele>379</ele>
        <time>2016-09-12T09:57:45Z</time>
      </trkpt>
      <trkpt lat="45.95106" lon="4.54656">
        <ele>379</ele>
        <time>2016-09-12T09:57:46Z</time>
      </trkpt>
      <trkpt lat="45.9511" lon="4.54667">
        <ele>379</ele>
        <time>2016-09-12T09:57:50Z</time>
      </trkpt>
      <trkpt lat="45.95111" lon="4.54669">
        <ele>379</ele>
        <time>2016-09-12T09:57:51Z</time>
      </trkpt>
      <trkpt lat="45.95116" lon="4.54679">
        <ele>380</ele>
        <time>2016-09-12T09:57:55Z</time>
      </trkpt>
      <trkpt lat="45.95118" lon="4.54682">
        <ele>380</ele>
        <time>2016-09-12T09:57:56Z</time>
      </trkpt>
      <trkpt lat="45.95122" lon="4.54693">
        <ele>380</ele>
        <time>2016-09-12T09:58:00Z</time>
      </trkpt>
      <trkpt lat="45.95123" lon="4.54696">
        <ele>380</ele>
        <time>2016-09-12T09:58:01Z</time>
      </trkpt>
      <trkpt lat="45.95128" lon="4.54707">
        <ele>380</ele>
        <time>2016-09-12T09:58:05Z</time>
      </trkpt>
      <trkpt lat="45.95129" lon="4.5471">
        <ele>380</ele>
        <time>2016-09-12T09:58:06Z</time>
      </trkpt>
      <trkpt lat="45.95133" lon="4.5472">
        <ele>380</ele>
        <time>2016-09-12T09:58:09Z</time>
      </trkpt>
      <trkpt lat="45.95134" lon="4.54723">
        <ele>380</ele>
        <time>2016-09-12T09:58:10Z</time>
      </trkpt>
      <trkpt lat="45.95139" lon="4.54731">
        <ele>381</ele>
        <time>2016-09-12T09:58:13Z</time>
      </trkpt>
      <trkpt lat="45.9514" lon="4.54734">
        <ele>381</ele>
        <time>2016-09-12T09:58:14Z</time>
      </trkpt>
      <trkpt lat="45.95144" lon="4.54743">
        <ele>382</ele>
        <time>2016-09-12T09:58:17Z</time>
      </trkpt>
      <trkpt lat="45.95145" lon="4.54746">
        <ele>382</ele>
        <time>2016-09-12T09:58:18Z</time>
      </trkpt>
      <trkpt lat="45.95149" lon="4.54754">
        <ele>380</ele>
        <time>2016-09-12T09:58:21Z</time>
      </trkpt>
      <trkpt lat="45.95151" lon="4.54757">
        <ele>381</ele>
        <time>2016-09-12T09:58:22Z</time>
      </trkpt>
      <trkpt lat="45.95155" lon="4.54766">
        <ele>380</ele>
        <time>2016-09-12T09:58:25Z</time>
      </trkpt>
      <trkpt lat="45.95157" lon="4.54769">
        <ele>380</ele>
        <time>2016-09-12T09:58:26Z</time>
      </trkpt>
      <trkpt lat="45.9516" lon="4.5478">
        <ele>379</ele>
        <time>2016-09-12T09:58:29Z</time>
      </trkpt>
      <trkpt lat="45.95162" lon="4.54784">
        <ele>379</ele>
        <time>2016-09-12T09:58:30Z</time>
      </trkpt>
      <trkpt lat="45.95164" lon="4.54794">
        <ele>378</ele>
        <time>2016-09-12T09:58:32Z</time>
      </trkpt>
      <trkpt lat="45.95166" lon="4.54797">
        <ele>378</ele>
        <time>2016-09-12T09:58:33Z</time>
      </trkpt>
      <trkpt lat="45.95169" lon="4.54804">
        <ele>385</ele>
        <time>2016-09-12T09:58:35Z</time>
      </trkpt>
      <trkpt lat="45.95172" lon="4.54808">
        <ele>384</ele>
        <time>2016-09-12T09:58:36Z</time>
      </trkpt>
      <trkpt lat="45.95178" lon="4.54815">
        <ele>384</ele>
        <time>2016-09-12T09:58:39Z</time>
      </trkpt>
      <trkpt lat="45.9518" lon="4.54817">
        <ele>384</ele>
        <time>2016-09-12T09:58:40Z</time>
      </trkpt>
      <trkpt lat="45.95185" lon="4.54823">
        <ele>384</ele>
        <time>2016-09-12T09:58:43Z</time>
      </trkpt>
      <trkpt lat="45.95187" lon="4.54826">
        <ele>384</ele>
        <time>2016-09-12T09:58:44Z</time>
      </trkpt>
      <trkpt lat="45.95192" lon="4.54832">
        <ele>385</ele>
        <time>2016-09-12T09:58:46Z</time>
      </trkpt>
      <trkpt lat="45.95195" lon="4.54834">
        <ele>382</ele>
        <time>2016-09-12T09:58:47Z</time>
      </trkpt>
      <trkpt lat="45.95202" lon="4.54841">
        <ele>382</ele>
        <time>2016-09-12T09:58:50Z</time>
      </trkpt>
      <trkpt lat="45.95204" lon="4.54843">
        <ele>382</ele>
        <time>2016-09-12T09:58:51Z</time>
      </trkpt>
      <trkpt lat="45.95212" lon="4.54848">
        <ele>383</ele>
        <time>2016-09-12T09:58:54Z</time>
      </trkpt>
      <trkpt lat="45.95214" lon="4.54851">
        <ele>383</ele>
        <time>2016-09-12T09:58:55Z</time>
      </trkpt>
      <trkpt lat="45.95222" lon="4.54857">
        <ele>383</ele>
        <time>2016-09-12T09:58:58Z</time>
      </trkpt>
      <trkpt lat="45.95224" lon="4.54859">
        <ele>383</ele>
        <time>2016-09-12T09:58:59Z</time>
      </trkpt>
      <trkpt lat="45.95231" lon="4.54864">
        <ele>383</ele>
        <time>2016-09-12T09:59:02Z</time>
      </trkpt>
      <trkpt lat="45.95233" lon="4.54865">
        <ele>383</ele>
        <time>2016-09-12T09:59:03Z</time>
      </trkpt>
      <trkpt lat="45.95239" lon="4.54868">
        <ele>383</ele>
        <time>2016-09-12T09:59:05Z</time>
      </trkpt>
      <trkpt lat="45.95242" lon="4.54871">
        <ele>383</ele>
        <time>2016-09-12T09:59:06Z</time>
      </trkpt>
      <trkpt lat="45.95247" lon="4.54875">
        <ele>383</ele>
        <time>2016-09-12T09:59:08Z</time>
      </trkpt>
      <trkpt lat="45.95249" lon="4.54878">
        <ele>383</ele>
        <time>2016-09-12T09:59:09Z</time>
      </trkpt>
      <trkpt lat="45.95254" lon="4.54883">
        <ele>390</ele>
        <time>2016-09-12T09:59:11Z</time>
      </trkpt>
      <trkpt lat="45.95257" lon="4.54886">
        <ele>390</ele>
        <time>2016-09-12T09:59:12Z</time>
      </trkpt>
      <trkpt lat="45.95262" lon="4.54891">
        <ele>390</ele>
        <time>2016-09-12T09:59:14Z</time>
      </trkpt>
      <trkpt lat="45.95264" lon="4.54894">
        <ele>390</ele>
        <time>2016-09-12T09:59:15Z</time>
      </trkpt>
      <trkpt lat="45.9527" lon="4.54902">
        <ele>389</ele>
        <time>2016-09-12T09:59:18Z</time>
      </trkpt>
      <trkpt lat="45.95272" lon="4.54904">
        <ele>390</ele>
        <time>2016-09-12T09:59:19Z</time>
      </trkpt>
      <trkpt lat="45.95277" lon="4.5491">
        <ele>390</ele>
        <time>2016-09-12T09:59:22Z</time>
      </trkpt>
      <trkpt lat="45.95278" lon="4.54913">
        <ele>390</ele>
        <time>2016-09-12T09:59:23Z</time>
      </trkpt>
      <trkpt lat="45.95282" lon="4.54923">
        <ele>388</ele>
        <time>2016-09-12T09:59:26Z</time>
      </trkpt>
      <trkpt lat="45.95284" lon="4.54926">
        <ele>388</ele>
        <time>2016-09-12T09:59:27Z</time>
      </trkpt>
      <trkpt lat="45.95288" lon="4.54936">
        <ele>389</ele>
        <time>2016-09-12T09:59:30Z</time>
      </trkpt>
      <trkpt lat="45.95289" lon="4.54939">
        <ele>389</ele>
        <time>2016-09-12T09:59:31Z</time>
      </trkpt>
      <trkpt lat="45.95294" lon="4.54948">
        <ele>389</ele>
        <time>2016-09-12T09:59:34Z</time>
      </trkpt>
      <trkpt lat="45.95296" lon="4.54952">
        <ele>389</ele>
        <time>2016-09-12T09:59:35Z</time>
      </trkpt>
      <trkpt lat="45.95299" lon="4.54963">
        <ele>389</ele>
        <time>2016-09-12T09:59:38Z</time>
      </trkpt>
      <trkpt lat="45.953" lon="4.54967">
        <ele>389</ele>
        <time>2016-09-12T09:59:39Z</time>
      </trkpt>
      <trkpt lat="45.95301" lon="4.54977">
        <ele>389</ele>
        <time>2016-09-12T09:59:42Z</time>
      </trkpt>
      <trkpt lat="45.95302" lon="4.54981">
        <ele>389</ele>
        <time>2016-09-12T09:59:43Z</time>
      </trkpt>
      <trkpt lat="45.95303" lon="4.54992">
        <ele>390</ele>
        <time>2016-09-12T09:59:46Z</time>
      </trkpt>
      <trkpt lat="45.95304" lon="4.54995">
        <ele>390</ele>
        <time>2016-09-12T09:59:47Z</time>
      </trkpt>
      <trkpt lat="45.95306" lon="4.55007">
        <ele>388</ele>
        <time>2016-09-12T09:59:50Z</time>
      </trkpt>
      <trkpt lat="45.95306" lon="4.55011">
        <ele>388</ele>
        <time>2016-09-12T09:59:51Z</time>
      </trkpt>
      <trkpt lat="45.95307" lon="4.5502">
        <ele>387</ele>
        <time>2016-09-12T09:59:53Z</time>
      </trkpt>
      <trkpt lat="45.95308" lon="4.55024">
        <ele>387</ele>
        <time>2016-09-12T09:59:54Z</time>
      </trkpt>
      <trkpt lat="45.95309" lon="4.55036">
        <ele>387</ele>
        <time>2016-09-12T09:59:57Z</time>
      </trkpt>
      <trkpt lat="45.95309" lon="4.5504">
        <ele>387</ele>
        <time>2016-09-12T09:59:58Z</time>
      </trkpt>
      <trkpt lat="45.95311" lon="4.55049">
        <ele>387</ele>
        <time>2016-09-12T10:00:00Z</time>
      </trkpt>
      <trkpt lat="45.95313" lon="4.55053">
        <ele>387</ele>
        <time>2016-09-12T10:00:01Z</time>
      </trkpt>
      <trkpt lat="45.95316" lon="4.55062">
        <ele>387</ele>
        <time>2016-09-12T10:00:03Z</time>
      </trkpt>
      <trkpt lat="45.95317" lon="4.55066">
        <ele>387</ele>
        <time>2016-09-12T10:00:04Z</time>
      </trkpt>
      <trkpt lat="45.95321" lon="4.55077">
        <ele>388</ele>
        <time>2016-09-12T10:00:07Z</time>
      </trkpt>
      <trkpt lat="45.95323" lon="4.5508">
        <ele>389</ele>
        <time>2016-09-12T10:00:08Z</time>
      </trkpt>
      <trkpt lat="45.95327" lon="4.55086">
        <ele>388</ele>
        <time>2016-09-12T10:00:10Z</time>
      </trkpt>
      <trkpt lat="45.9533" lon="4.55089">
        <ele>388</ele>
        <time>2016-09-12T10:00:11Z</time>
      </trkpt>
      <trkpt lat="45.95335" lon="4.55095">
        <ele>392</ele>
        <time>2016-09-12T10:00:13Z</time>
      </trkpt>
      <trkpt lat="45.95338" lon="4.55098">
        <ele>392</ele>
        <time>2016-09-12T10:00:14Z</time>
      </trkpt>
      <trkpt lat="45.95343" lon="4.55103">
        <ele>392</ele>
        <time>2016-09-12T10:00:16Z</time>
      </trkpt>
      <trkpt lat="45.95346" lon="4.55106">
        <ele>392</ele>
        <time>2016-09-12T10:00:17Z</time>
      </trkpt>
      <trkpt lat="45.95352" lon="4.55112">
        <ele>392</ele>
        <time>2016-09-12T10:00:19Z</time>
      </trkpt>
      <trkpt lat="45.95354" lon="4.55115">
        <ele>392</ele>
        <time>2016-09-12T10:00:20Z</time>
      </trkpt>
      <trkpt lat="45.9536" lon="4.55119">
        <ele>392</ele>
        <time>2016-09-12T10:00:22Z</time>
      </trkpt>
      <trkpt lat="45.95363" lon="4.55121">
        <ele>392</ele>
        <time>2016-09-12T10:00:23Z</time>
      </trkpt>
      <trkpt lat="45.95368" lon="4.55126">
        <ele>393</ele>
        <time>2016-09-12T10:00:25Z</time>
      </trkpt>
      <trkpt lat="45.9537" lon="4.55128">
        <ele>393</ele>
        <time>2016-09-12T10:00:26Z</time>
      </trkpt>
      <trkpt lat="45.95378" lon="4.55134">
        <ele>393</ele>
        <time>2016-09-12T10:00:29Z</time>
      </trkpt>
      <trkpt lat="45.9538" lon="4.55136">
        <ele>393</ele>
        <time>2016-09-12T10:00:30Z</time>
      </trkpt>
      <trkpt lat="45.95388" lon="4.5514">
        <ele>393</ele>
        <time>2016-09-12T10:00:33Z</time>
      </trkpt>
      <trkpt lat="45.9539" lon="4.55141">
        <ele>393</ele>
        <time>2016-09-12T10:00:34Z</time>
      </trkpt>
      <trkpt lat="45.95399" lon="4.55147">
        <ele>394</ele>
        <time>2016-09-12T10:00:37Z</time>
      </trkpt>
      <trkpt lat="45.95401" lon="4.55149">
        <ele>394</ele>
        <time>2016-09-12T10:00:38Z</time>
      </trkpt>
      <trkpt lat="45.95407" lon="4.55151">
        <ele>394</ele>
        <time>2016-09-12T10:00:40Z</time>
      </trkpt>
      <trkpt lat="45.9541" lon="4.55152">
        <ele>394</ele>
        <time>2016-09-12T10:00:41Z</time>
      </trkpt>
      <trkpt lat="45.95418" lon="4.55156">
        <ele>398</ele>
        <time>2016-09-12T10:00:44Z</time>
      </trkpt>
      <trkpt lat="45.95421" lon="4.55156">
        <ele>398</ele>
        <time>2016-09-12T10:00:45Z</time>
      </trkpt>
      <trkpt lat="45.95429" lon="4.5516">
        <ele>398</ele>
        <time>2016-09-12T10:00:48Z</time>
      </trkpt>
      <trkpt lat="45.95431" lon="4.55161">
        <ele>399</ele>
        <time>2016-09-12T10:00:49Z</time>
      </trkpt>
      <trkpt lat="45.95437" lon="4.55163">
        <ele>399</ele>
        <time>2016-09-12T10:00:51Z</time>
      </trkpt>
      <trkpt lat="45.95441" lon="4.55163">
        <ele>400</ele>
        <time>2016-09-12T10:00:52Z</time>
      </trkpt>
      <trkpt lat="45.95449" lon="4.55164">
        <ele>401</ele>
        <time>2016-09-12T10:00:55Z</time>
      </trkpt>
      <trkpt lat="45.95453" lon="4.55165">
        <ele>401</ele>
        <time>2016-09-12T10:00:56Z</time>
      </trkpt>
      <trkpt lat="45.95459" lon="4.55165">
        <ele>401</ele>
        <time>2016-09-12T10:00:58Z</time>
      </trkpt>
      <trkpt lat="45.95462" lon="4.55166">
        <ele>401</ele>
        <time>2016-09-12T10:00:59Z</time>
      </trkpt>
      <trkpt lat="45.95471" lon="4.55167">
        <ele>402</ele>
        <time>2016-09-12T10:01:02Z</time>
      </trkpt>
      <trkpt lat="45.95473" lon="4.55167">
        <ele>398</ele>
        <time>2016-09-12T10:01:03Z</time>
      </trkpt>
      <trkpt lat="45.95479" lon="4.55169">
        <ele>398</ele>
        <time>2016-09-12T10:01:05Z</time>
      </trkpt>
      <trkpt lat="45.95482" lon="4.5517">
        <ele>398</ele>
        <time>2016-09-12T10:01:06Z</time>
      </trkpt>
      <trkpt lat="45.95489" lon="4.55172">
        <ele>399</ele>
        <time>2016-09-12T10:01:08Z</time>
      </trkpt>
      <trkpt lat="45.95492" lon="4.55173">
        <ele>399</ele>
        <time>2016-09-12T10:01:09Z</time>
      </trkpt>
      <trkpt lat="45.955" lon="4.55176">
        <ele>403</ele>
        <time>2016-09-12T10:01:12Z</time>
      </trkpt>
      <trkpt lat="45.95503" lon="4.55177">
        <ele>403</ele>
        <time>2016-09-12T10:01:13Z</time>
      </trkpt>
      <trkpt lat="45.95509" lon="4.55182">
        <ele>404</ele>
        <time>2016-09-12T10:01:15Z</time>
      </trkpt>
      <trkpt lat="45.95511" lon="4.55187">
        <ele>404</ele>
        <time>2016-09-12T10:01:16Z</time>
      </trkpt>
      <trkpt lat="45.95515" lon="4.55193">
        <ele>405</ele>
        <time>2016-09-12T10:01:18Z</time>
      </trkpt>
      <trkpt lat="45.95516" lon="4.55197">
        <ele>405</ele>
        <time>2016-09-12T10:01:19Z</time>
      </trkpt>
      <trkpt lat="45.95516" lon="4.5521">
        <ele>405</ele>
        <time>2016-09-12T10:01:22Z</time>
      </trkpt>
      <trkpt lat="45.95516" lon="4.55213">
        <ele>405</ele>
        <time>2016-09-12T10:01:23Z</time>
      </trkpt>
      <trkpt lat="45.95513" lon="4.55225">
        <ele>404</ele>
        <time>2016-09-12T10:01:26Z</time>
      </trkpt>
      <trkpt lat="45.95512" lon="4.55228">
        <ele>404</ele>
        <time>2016-09-12T10:01:27Z</time>
      </trkpt>
      <trkpt lat="45.95507" lon="4.55238">
        <ele>402</ele>
        <time>2016-09-12T10:01:30Z</time>
      </trkpt>
      <trkpt lat="45.95505" lon="4.55241">
        <ele>402</ele>
        <time>2016-09-12T10:01:31Z</time>
      </trkpt>
      <trkpt lat="45.95502" lon="4.55251">
        <ele>400</ele>
        <time>2016-09-12T10:01:34Z</time>
      </trkpt>
      <trkpt lat="45.955" lon="4.55255">
        <ele>400</ele>
        <time>2016-09-12T10:01:35Z</time>
      </trkpt>
      <trkpt lat="45.95497" lon="4.55263">
        <ele>397</ele>
        <time>2016-09-12T10:01:38Z</time>
      </trkpt>
      <trkpt lat="45.95496" lon="4.55266">
        <ele>396</ele>
        <time>2016-09-12T10:01:39Z</time>
      </trkpt>
      <trkpt lat="45.95493" lon="4.55276">
        <ele>396</ele>
        <time>2016-09-12T10:01:42Z</time>
      </trkpt>
      <trkpt lat="45.95492" lon="4.55279">
        <ele>395</ele>
        <time>2016-09-12T10:01:43Z</time>
      </trkpt>
      <trkpt lat="45.95491" lon="4.55289">
        <ele>395</ele>
        <time>2016-09-12T10:01:46Z</time>
      </trkpt>
      <trkpt lat="45.9549" lon="4.55293">
        <ele>395</ele>
        <time>2016-09-12T10:01:47Z</time>
      </trkpt>
      <trkpt lat="45.9549" lon="4.55303">
        <ele>395</ele>
        <time>2016-09-12T10:01:50Z</time>
      </trkpt>
      <trkpt lat="45.9549" lon="4.55306">
        <ele>395</ele>
        <time>2016-09-12T10:01:51Z</time>
      </trkpt>
      <trkpt lat="45.95491" lon="4.55315">
        <ele>396</ele>
        <time>2016-09-12T10:01:54Z</time>
      </trkpt>
      <trkpt lat="45.95492" lon="4.55319">
        <ele>396</ele>
        <time>2016-09-12T10:01:55Z</time>
      </trkpt>
      <trkpt lat="45.95493" lon="4.55329">
        <ele>397</ele>
        <time>2016-09-12T10:01:58Z</time>
      </trkpt>
      <trkpt lat="45.95494" lon="4.55333">
        <ele>398</ele>
        <time>2016-09-12T10:01:59Z</time>
      </trkpt>
      <trkpt lat="45.95497" lon="4.55343">
        <ele>397</ele>
        <time>2016-09-12T10:02:02Z</time>
      </trkpt>
      <trkpt lat="45.95499" lon="4.55346">
        <ele>397</ele>
        <time>2016-09-12T10:02:03Z</time>
      </trkpt>
      <trkpt lat="45.95504" lon="4.55354">
        <ele>403</ele>
        <time>2016-09-12T10:02:06Z</time>
      </trkpt>
      <trkpt lat="45.95505" lon="4.55357">
        <ele>403</ele>
        <time>2016-09-12T10:02:07Z</time>
      </trkpt>
      <trkpt lat="45.95509" lon="4.55365">
        <ele>404</ele>
        <time>2016-09-12T10:02:10Z</time>
      </trkpt>
      <trkpt lat="45.9551" lon="4.55368">
        <ele>404</ele>
        <time>2016-09-12T10:02:11Z</time>
      </trkpt>
      <trkpt lat="45.95515" lon="4.55375">
        <ele>404</ele>
        <time>2016-09-12T10:02:14Z</time>
      </trkpt>
      <trkpt lat="45.95517" lon="4.55377">
        <ele>404</ele>
        <time>2016-09-12T10:02:15Z</time>
      </trkpt>
      <trkpt lat="45.95522" lon="4.55386">
        <ele>404</ele>
        <time>2016-09-12T10:02:18Z</time>
      </trkpt>
      <trkpt lat="45.95523" lon="4.55388">
        <ele>404</ele>
        <time>2016-09-12T10:02:19Z</time>
      </trkpt>
      <trkpt lat="45.95528" lon="4.55395">
        <ele>404</ele>
        <time>2016-09-12T10:02:22Z</time>
      </trkpt>
      <trkpt lat="45.9553" lon="4.55397">
        <ele>404</ele>
        <time>2016-09-12T10:02:23Z</time>
      </trkpt>
      <trkpt lat="45.95536" lon="4.55404">
        <ele>405</ele>
        <time>2016-09-12T10:02:26Z</time>
      </trkpt>
      <trkpt lat="45.95538" lon="4.55407">
        <ele>405</ele>
        <time>2016-09-12T10:02:27Z</time>
      </trkpt>
      <trkpt lat="45.95544" lon="4.55415">
        <ele>406</ele>
        <time>2016-09-12T10:02:30Z</time>
      </trkpt>
      <trkpt lat="45.95546" lon="4.55417">
        <ele>404</ele>
        <time>2016-09-12T10:02:31Z</time>
      </trkpt>
      <trkpt lat="45.95551" lon="4.55424">
        <ele>404</ele>
        <time>2016-09-12T10:02:34Z</time>
      </trkpt>
      <trkpt lat="45.95553" lon="4.55426">
        <ele>404</ele>
        <time>2016-09-12T10:02:35Z</time>
      </trkpt>
      <trkpt lat="45.95559" lon="4.55432">
        <ele>405</ele>
        <time>2016-09-12T10:02:38Z</time>
      </trkpt>
      <trkpt lat="45.95561" lon="4.55435">
        <ele>405</ele>
        <time>2016-09-12T10:02:39Z</time>
      </trkpt>
      <trkpt lat="45.95567" lon="4.55441">
        <ele>405</ele>
        <time>2016-09-12T10:02:42Z</time>
      </trkpt>
      <trkpt lat="45.95569" lon="4.55443">
        <ele>405</ele>
        <time>2016-09-12T10:02:43Z</time>
      </trkpt>
      <trkpt lat="45.95576" lon="4.55449">
        <ele>405</ele>
        <time>2016-09-12T10:02:46Z</time>
      </trkpt>
      <trkpt lat="45.95578" lon="4.55452">
        <ele>405</ele>
        <time>2016-09-12T10:02:47Z</time>
      </trkpt>
      <trkpt lat="45.95585" lon="4.55459">
        <ele>412</ele>
        <time>2016-09-12T10:02:50Z</time>
      </trkpt>
      <trkpt lat="45.95587" lon="4.55461">
        <ele>412</ele>
        <time>2016-09-12T10:02:51Z</time>
      </trkpt>
      <trkpt lat="45.95592" lon="4.55468">
        <ele>411</ele>
        <time>2016-09-12T10:02:54Z</time>
      </trkpt>
      <trkpt lat="45.95594" lon="4.5547">
        <ele>411</ele>
        <time>2016-09-12T10:02:55Z</time>
      </trkpt>
      <trkpt lat="45.956" lon="4.55476">
        <ele>411</ele>
        <time>2016-09-12T10:02:58Z</time>
      </trkpt>
      <trkpt lat="45.95602" lon="4.55478">
        <ele>411</ele>
        <time>2016-09-12T10:02:59Z</time>
      </trkpt>
      <trkpt lat="45.9561" lon="4.55483">
        <ele>411</ele>
        <time>2016-09-12T10:03:02Z</time>
      </trkpt>
      <trkpt lat="45.95612" lon="4.55485">
        <ele>411</ele>
        <time>2016-09-12T10:03:03Z</time>
      </trkpt>
      <trkpt lat="45.9562" lon="4.5549">
        <ele>412</ele>
        <time>2016-09-12T10:03:06Z</time>
      </trkpt>
      <trkpt lat="45.95624" lon="4.55491">
        <ele>412</ele>
        <time>2016-09-12T10:03:07Z</time>
      </trkpt>
      <trkpt lat="45.9563" lon="4.55495">
        <ele>413</ele>
        <time>2016-09-12T10:03:09Z</time>
      </trkpt>
      <trkpt lat="45.95633" lon="4.55495">
        <ele>413</ele>
        <time>2016-09-12T10:03:10Z</time>
      </trkpt>
      <trkpt lat="45.95641" lon="4.55497">
        <ele>413</ele>
        <time>2016-09-12T10:03:13Z</time>
      </trkpt>
      <trkpt lat="45.95643" lon="4.55497">
        <ele>413</ele>
        <time>2016-09-12T10:03:14Z</time>
      </trkpt>
      <trkpt lat="45.95651" lon="4.55499">
        <ele>413</ele>
        <time>2016-09-12T10:03:17Z</time>
      </trkpt>
      <trkpt lat="45.95654" lon="4.55499">
        <ele>413</ele>
        <time>2016-09-12T10:03:18Z</time>
      </trkpt>
      <trkpt lat="45.95661" lon="4.55498">
        <ele>413</ele>
        <time>2016-09-12T10:03:21Z</time>
      </trkpt>
      <trkpt lat="45.95664" lon="4.55497">
        <ele>413</ele>
        <time>2016-09-12T10:03:22Z</time>
      </trkpt>
      <trkpt lat="45.9567" lon="4.55496">
        <ele>415</ele>
        <time>2016-09-12T10:03:25Z</time>
      </trkpt>
      <trkpt lat="45.95673" lon="4.55496">
        <ele>415</ele>
        <time>2016-09-12T10:03:26Z</time>
      </trkpt>
      <trkpt lat="45.95681" lon="4.55495">
        <ele>417</ele>
        <time>2016-09-12T10:03:29Z</time>
      </trkpt>
      <trkpt lat="45.95683" lon="4.55495">
        <ele>417</ele>
        <time>2016-09-12T10:03:30Z</time>
      </trkpt>
      <trkpt lat="45.95691" lon="4.55493">
        <ele>418</ele>
        <time>2016-09-12T10:03:33Z</time>
      </trkpt>
      <trkpt lat="45.95694" lon="4.55493">
        <ele>418</ele>
        <time>2016-09-12T10:03:34Z</time>
      </trkpt>
      <trkpt lat="45.95702" lon="4.55492">
        <ele>419</ele>
        <time>2016-09-12T10:03:37Z</time>
      </trkpt>
      <trkpt lat="45.95705" lon="4.55493">
        <ele>419</ele>
        <time>2016-09-12T10:03:38Z</time>
      </trkpt>
      <trkpt lat="45.95712" lon="4.55495">
        <ele>419</ele>
        <time>2016-09-12T10:03:41Z</time>
      </trkpt>
      <trkpt lat="45.95715" lon="4.55495">
        <ele>419</ele>
        <time>2016-09-12T10:03:42Z</time>
      </trkpt>
      <trkpt lat="45.95722" lon="4.55498">
        <ele>419</ele>
        <time>2016-09-12T10:03:45Z</time>
      </trkpt>
      <trkpt lat="45.95724" lon="4.555">
        <ele>419</ele>
        <time>2016-09-12T10:03:46Z</time>
      </trkpt>
      <trkpt lat="45.95731" lon="4.55502">
        <ele>414</ele>
        <time>2016-09-12T10:03:49Z</time>
      </trkpt>
      <trkpt lat="45.95733" lon="4.55503">
        <ele>414</ele>
        <time>2016-09-12T10:03:50Z</time>
      </trkpt>
      <trkpt lat="45.9574" lon="4.55505">
        <ele>415</ele>
        <time>2016-09-12T10:03:53Z</time>
      </trkpt>
      <trkpt lat="45.95743" lon="4.55505">
        <ele>415</ele>
        <time>2016-09-12T10:03:54Z</time>
      </trkpt>
      <trkpt lat="45.9575" lon="4.55506">
        <ele>417</ele>
        <time>2016-09-12T10:03:57Z</time>
      </trkpt>
      <trkpt lat="45.95753" lon="4.55506">
        <ele>417</ele>
        <time>2016-09-12T10:03:58Z</time>
      </trkpt>
      <trkpt lat="45.95761" lon="4.55505">
        <ele>417</ele>
        <time>2016-09-12T10:04:01Z</time>
      </trkpt>
      <trkpt lat="45.95764" lon="4.55505">
        <ele>417</ele>
        <time>2016-09-12T10:04:02Z</time>
      </trkpt>
      <trkpt lat="45.95772" lon="4.55504">
        <ele>418</ele>
        <time>2016-09-12T10:04:05Z</time>
      </trkpt>
      <trkpt lat="45.95775" lon="4.55504">
        <ele>418</ele>
        <time>2016-09-12T10:04:06Z</time>
      </trkpt>
      <trkpt lat="45.95783" lon="4.55501">
        <ele>419</ele>
        <time>2016-09-12T10:04:09Z</time>
      </trkpt>
      <trkpt lat="45.95785" lon="4.555">
        <ele>419</ele>
        <time>2016-09-12T10:04:10Z</time>
      </trkpt>
      <trkpt lat="45.95793" lon="4.55498">
        <ele>424</ele>
        <time>2016-09-12T10:04:13Z</time>
      </trkpt>
      <trkpt lat="45.95796" lon="4.55498">
        <ele>424</ele>
        <time>2016-09-12T10:04:14Z</time>
      </trkpt>
      <trkpt lat="45.95804" lon="4.55495">
        <ele>424</ele>
        <time>2016-09-12T10:04:17Z</time>
      </trkpt>
      <trkpt lat="45.95806" lon="4.55495">
        <ele>424</ele>
        <time>2016-09-12T10:04:18Z</time>
      </trkpt>
      <trkpt lat="45.95814" lon="4.55495">
        <ele>424</ele>
        <time>2016-09-12T10:04:21Z</time>
      </trkpt>
      <trkpt lat="45.95817" lon="4.55495">
        <ele>424</ele>
        <time>2016-09-12T10:04:22Z</time>
      </trkpt>
      <trkpt lat="45.95825" lon="4.55497">
        <ele>424</ele>
        <time>2016-09-12T10:04:25Z</time>
      </trkpt>
      <trkpt lat="45.95828" lon="4.55498">
        <ele>424</ele>
        <time>2016-09-12T10:04:26Z</time>
      </trkpt>
      <trkpt lat="45.95836" lon="4.55503">
        <ele>424</ele>
        <time>2016-09-12T10:04:29Z</time>
      </trkpt>
      <trkpt lat="45.95838" lon="4.55505">
        <ele>424</ele>
        <time>2016-09-12T10:04:30Z</time>
      </trkpt>
      <trkpt lat="45.95843" lon="4.55515">
        <ele>425</ele>
        <time>2016-09-12T10:04:33Z</time>
      </trkpt>
      <trkpt lat="45.95844" lon="4.55519">
        <ele>426</ele>
        <time>2016-09-12T10:04:34Z</time>
      </trkpt>
      <trkpt lat="45.95844" lon="4.55532">
        <ele>426</ele>
        <time>2016-09-12T10:04:37Z</time>
      </trkpt>
      <trkpt lat="45.95844" lon="4.55536">
        <ele>426</ele>
        <time>2016-09-12T10:04:38Z</time>
      </trkpt>
      <trkpt lat="45.95842" lon="4.55545">
        <ele>427</ele>
        <time>2016-09-12T10:04:40Z</time>
      </trkpt>
      <trkpt lat="45.95841" lon="4.55549">
        <ele>426</ele>
        <time>2016-09-12T10:04:41Z</time>
      </trkpt>
      <trkpt lat="45.95837" lon="4.55557">
        <ele>426</ele>
        <time>2016-09-12T10:04:43Z</time>
      </trkpt>
      <trkpt lat="45.95835" lon="4.5556">
        <ele>426</ele>
        <time>2016-09-12T10:04:44Z</time>
      </trkpt>
      <trkpt lat="45.95831" lon="4.5557">
        <ele>422</ele>
        <time>2016-09-12T10:04:47Z</time>
      </trkpt>
      <trkpt lat="45.95829" lon="4.55572">
        <ele>422</ele>
        <time>2016-09-12T10:04:48Z</time>
      </trkpt>
      <trkpt lat="45.95824" lon="4.5558">
        <ele>422</ele>
        <time>2016-09-12T10:04:51Z</time>
      </trkpt>
      <trkpt lat="45.95822" lon="4.55583">
        <ele>422</ele>
        <time>2016-09-12T10:04:52Z</time>
      </trkpt>
      <trkpt lat="45.95816" lon="4.55591">
        <ele>423</ele>
        <time>2016-09-12T10:04:55Z</time>
      </trkpt>
      <trkpt lat="45.95813" lon="4.55593">
        <ele>423</ele>
        <time>2016-09-12T10:04:56Z</time>
      </trkpt>
      <trkpt lat="45.95807" lon="4.55601">
        <ele>423</ele>
        <time>2016-09-12T10:04:59Z</time>
      </trkpt>
      <trkpt lat="45.95806" lon="4.55603">
        <ele>423</ele>
        <time>2016-09-12T10:05:00Z</time>
      </trkpt>
      <trkpt lat="45.95801" lon="4.5561">
        <ele>423</ele>
        <time>2016-09-12T10:05:03Z</time>
      </trkpt>
      <trkpt lat="45.95799" lon="4.55613">
        <ele>423</ele>
        <time>2016-09-12T10:05:04Z</time>
      </trkpt>
      <trkpt lat="45.95793" lon="4.55622">
        <ele>423</ele>
        <time>2016-09-12T10:05:07Z</time>
      </trkpt>
      <trkpt lat="45.9579" lon="4.55624">
        <ele>423</ele>
        <time>2016-09-12T10:05:08Z</time>
      </trkpt>
      <trkpt lat="45.95784" lon="4.55632">
        <ele>423</ele>
        <time>2016-09-12T10:05:11Z</time>
      </trkpt>
      <trkpt lat="45.95782" lon="4.55634">
        <ele>423</ele>
        <time>2016-09-12T10:05:12Z</time>
      </trkpt>
      <trkpt lat="45.95777" lon="4.55642">
        <ele>423</ele>
        <time>2016-09-12T10:05:15Z</time>
      </trkpt>
      <trkpt lat="45.95775" lon="4.55645">
        <ele>423</ele>
        <time>2016-09-12T10:05:16Z</time>
      </trkpt>
      <trkpt lat="45.95769" lon="4.55653">
        <ele>423</ele>
        <time>2016-09-12T10:05:19Z</time>
      </trkpt>
      <trkpt lat="45.95768" lon="4.55656">
        <ele>423</ele>
        <time>2016-09-12T10:05:20Z</time>
      </trkpt>
      <trkpt lat="45.95763" lon="4.55664">
        <ele>423</ele>
        <time>2016-09-12T10:05:23Z</time>
      </trkpt>
      <trkpt lat="45.95762" lon="4.55666">
        <ele>423</ele>
        <time>2016-09-12T10:05:24Z</time>
      </trkpt>
      <trkpt lat="45.95757" lon="4.55673">
        <ele>426</ele>
        <time>2016-09-12T10:05:27Z</time>
      </trkpt>
      <trkpt lat="45.95755" lon="4.55676">
        <ele>426</ele>
        <time>2016-09-12T10:05:28Z</time>
      </trkpt>
      <trkpt lat="45.9575" lon="4.55682">
        <ele>424</ele>
        <time>2016-09-12T10:05:31Z</time>
      </trkpt>
      <trkpt lat="45.95747" lon="4.55685">
        <ele>424</ele>
        <time>2016-09-12T10:05:32Z</time>
      </trkpt>
      <trkpt lat="45.95741" lon="4.55694">
        <ele>425</ele>
        <time>2016-09-12T10:05:35Z</time>
      </trkpt>
      <trkpt lat="45.95739" lon="4.55697">
        <ele>425</ele>
        <time>2016-09-12T10:05:36Z</time>
      </trkpt>
      <trkpt lat="45.95734" lon="4.55704">
        <ele>425</ele>
        <time>2016-09-12T10:05:39Z</time>
      </trkpt>
      <trkpt lat="45.95732" lon="4.55707">
        <ele>426</ele>
        <time>2016-09-12T10:05:40Z</time>
      </trkpt>
      <trkpt lat="45.95726" lon="4.55716">
        <ele>426</ele>
        <time>2016-09-12T10:05:44Z</time>
      </trkpt>
      <trkpt lat="45.95724" lon="4.55718">
        <ele>426</ele>
        <time>2016-09-12T10:05:45Z</time>
      </trkpt>
      <trkpt lat="45.95719" lon="4.55725">
        <ele>426</ele>
        <time>2016-09-12T10:05:48Z</time>
      </trkpt>
      <trkpt lat="45.95717" lon="4.55727">
        <ele>426</ele>
        <time>2016-09-12T10:05:49Z</time>
      </trkpt>
      <trkpt lat="45.95711" lon="4.55733">
        <ele>426</ele>
        <time>2016-09-12T10:05:52Z</time>
      </trkpt>
      <trkpt lat="45.9571" lon="4.55735">
        <ele>426</ele>
        <time>2016-09-12T10:05:53Z</time>
      </trkpt>
      <trkpt lat="45.95705" lon="4.55742">
        <ele>426</ele>
        <time>2016-09-12T10:05:56Z</time>
      </trkpt>
      <trkpt lat="45.95703" lon="4.55745">
        <ele>426</ele>
        <time>2016-09-12T10:05:57Z</time>
      </trkpt>
      <trkpt lat="45.95698" lon="4.55754">
        <ele>430</ele>
        <time>2016-09-12T10:06:01Z</time>
      </trkpt>
      <trkpt lat="45.95696" lon="4.55756">
        <ele>430</ele>
        <time>2016-09-12T10:06:02Z</time>
      </trkpt>
      <trkpt lat="45.95692" lon="4.55764">
        <ele>430</ele>
        <time>2016-09-12T10:06:05Z</time>
      </trkpt>
      <trkpt lat="45.95691" lon="4.55767">
        <ele>430</ele>
        <time>2016-09-12T10:06:06Z</time>
      </trkpt>
      <trkpt lat="45.95688" lon="4.55777">
        <ele>430</ele>
        <time>2016-09-12T10:06:09Z</time>
      </trkpt>
      <trkpt lat="45.95687" lon="4.5578">
        <ele>430</ele>
        <time>2016-09-12T10:06:10Z</time>
      </trkpt>
      <trkpt lat="45.95686" lon="4.55789">
        <ele>430</ele>
        <time>2016-09-12T10:06:13Z</time>
      </trkpt>
      <trkpt lat="45.95686" lon="4.55793">
        <ele>430</ele>
        <time>2016-09-12T10:06:14Z</time>
      </trkpt>
      <trkpt lat="45.95685" lon="4.55803">
        <ele>430</ele>
        <time>2016-09-12T10:06:17Z</time>
      </trkpt>
      <trkpt lat="45.95685" lon="4.55806">
        <ele>431</ele>
        <time>2016-09-12T10:06:18Z</time>
      </trkpt>
      <trkpt lat="45.95688" lon="4.55816">
        <ele>431</ele>
        <time>2016-09-12T10:06:21Z</time>
      </trkpt>
      <trkpt lat="45.95689" lon="4.5582">
        <ele>431</ele>
        <time>2016-09-12T10:06:22Z</time>
      </trkpt>
      <trkpt lat="45.95693" lon="4.55831">
        <ele>431</ele>
        <time>2016-09-12T10:06:25Z</time>
      </trkpt>
      <trkpt lat="45.95695" lon="4.55834">
        <ele>432</ele>
        <time>2016-09-12T10:06:26Z</time>
      </trkpt>
      <trkpt lat="45.957" lon="4.55843">
        <ele>432</ele>
        <time>2016-09-12T10:06:29Z</time>
      </trkpt>
      <trkpt lat="45.95702" lon="4.55846">
        <ele>432</ele>
        <time>2016-09-12T10:06:30Z</time>
      </trkpt>
      <trkpt lat="45.95706" lon="4.55854">
        <ele>433</ele>
        <time>2016-09-12T10:06:33Z</time>
      </trkpt>
      <trkpt lat="45.95708" lon="4.55857">
        <ele>433</ele>
        <time>2016-09-12T10:06:34Z</time>
      </trkpt>
      <trkpt lat="45.95714" lon="4.55863">
        <ele>433</ele>
        <time>2016-09-12T10:06:37Z</time>
      </trkpt>
      <trkpt lat="45.95716" lon="4.55865">
        <ele>433</ele>
        <time>2016-09-12T10:06:38Z</time>
      </trkpt>
      <trkpt lat="45.95721" lon="4.55871">
        <ele>434</ele>
        <time>2016-09-12T10:06:41Z</time>
      </trkpt>
      <trkpt lat="45.95723" lon="4.55873">
        <ele>434</ele>
        <time>2016-09-12T10:06:42Z</time>
      </trkpt>
      <trkpt lat="45.95729" lon="4.55881">
        <ele>434</ele>
        <time>2016-09-12T10:06:45Z</time>
      </trkpt>
      <trkpt lat="45.9573" lon="4.55883">
        <ele>434</ele>
        <time>2016-09-12T10:06:46Z</time>
      </trkpt>
      <trkpt lat="45.95736" lon="4.55889">
        <ele>435</ele>
        <time>2016-09-12T10:06:49Z</time>
      </trkpt>
      <trkpt lat="45.95738" lon="4.55891">
        <ele>435</ele>
        <time>2016-09-12T10:06:50Z</time>
      </trkpt>
      <trkpt lat="45.95743" lon="4.55898">
        <ele>436</ele>
        <time>2016-09-12T10:06:53Z</time>
      </trkpt>
      <trkpt lat="45.95745" lon="4.55901">
        <ele>436</ele>
        <time>2016-09-12T10:06:54Z</time>
      </trkpt>
      <trkpt lat="45.95748" lon="4.55909">
        <ele>438</ele>
        <time>2016-09-12T10:06:57Z</time>
      </trkpt>
      <trkpt lat="45.95749" lon="4.55912">
        <ele>439</ele>
        <time>2016-09-12T10:06:58Z</time>
      </trkpt>
      <trkpt lat="45.9575" lon="4.55922">
        <ele>439</ele>
        <time>2016-09-12T10:07:01Z</time>
      </trkpt>
      <trkpt lat="45.9575" lon="4.55926">
        <ele>444</ele>
        <time>2016-09-12T10:07:02Z</time>
      </trkpt>
      <trkpt lat="45.9575" lon="4.55936">
        <ele>437</ele>
        <time>2016-09-12T10:07:05Z</time>
      </trkpt>
      <trkpt lat="45.95749" lon="4.5594">
        <ele>437</ele>
        <time>2016-09-12T10:07:06Z</time>
      </trkpt>
      <trkpt lat="45.95748" lon="4.55953">
        <ele>437</ele>
        <time>2016-09-12T10:07:10Z</time>
      </trkpt>
      <trkpt lat="45.95747" lon="4.55956">
        <ele>437</ele>
        <time>2016-09-12T10:07:11Z</time>
      </trkpt>
      <trkpt lat="45.95746" lon="4.55965">
        <ele>438</ele>
        <time>2016-09-12T10:07:14Z</time>
      </trkpt>
      <trkpt lat="45.95746" lon="4.55969">
        <ele>438</ele>
        <time>2016-09-12T10:07:15Z</time>
      </trkpt>
      <trkpt lat="45.95743" lon="4.5598">
        <ele>439</ele>
        <time>2016-09-12T10:07:19Z</time>
      </trkpt>
      <trkpt lat="45.95742" lon="4.55983">
        <ele>440</ele>
        <time>2016-09-12T10:07:20Z</time>
      </trkpt>
      <trkpt lat="45.95739" lon="4.55995">
        <ele>441</ele>
        <time>2016-09-12T10:07:24Z</time>
      </trkpt>
      <trkpt lat="45.95738" lon="4.55998">
        <ele>441</ele>
        <time>2016-09-12T10:07:25Z</time>
      </trkpt>
      <trkpt lat="45.95735" lon="4.56008">
        <ele>443</ele>
        <time>2016-09-12T10:07:28Z</time>
      </trkpt>
      <trkpt lat="45.95734" lon="4.56011">
        <ele>443</ele>
        <time>2016-09-12T10:07:29Z</time>
      </trkpt>
      <trkpt lat="45.9573" lon="4.5602">
        <ele>443</ele>
        <time>2016-09-12T10:07:32Z</time>
      </trkpt>
      <trkpt lat="45.95729" lon="4.56022">
        <ele>443</ele>
        <time>2016-09-12T10:07:33Z</time>
      </trkpt>
      <trkpt lat="45.95725" lon="4.56033">
        <ele>443</ele>
        <time>2016-09-12T10:07:37Z</time>
      </trkpt>
      <trkpt lat="45.95723" lon="4.56036">
        <ele>443</ele>
        <time>2016-09-12T10:07:38Z</time>
      </trkpt>
      <trkpt lat="45.95718" lon="4.56045">
        <ele>443</ele>
        <time>2016-09-12T10:07:42Z</time>
      </trkpt>
      <trkpt lat="45.95717" lon="4.56048">
        <ele>443</ele>
        <time>2016-09-12T10:07:43Z</time>
      </trkpt>
      <trkpt lat="45.95712" lon="4.56058">
        <ele>443</ele>
        <time>2016-09-12T10:07:47Z</time>
      </trkpt>
      <trkpt lat="45.95711" lon="4.56061">
        <ele>443</ele>
        <time>2016-09-12T10:07:48Z</time>
      </trkpt>
      <trkpt lat="45.95706" lon="4.56071">
        <ele>442</ele>
        <time>2016-09-12T10:07:52Z</time>
      </trkpt>
      <trkpt lat="45.95705" lon="4.56074">
        <ele>442</ele>
        <time>2016-09-12T10:07:53Z</time>
      </trkpt>
      <trkpt lat="45.95701" lon="4.56085">
        <ele>446</ele>
        <time>2016-09-12T10:07:57Z</time>
      </trkpt>
      <trkpt lat="45.957" lon="4.56088">
        <ele>446</ele>
        <time>2016-09-12T10:07:58Z</time>
      </trkpt>
      <trkpt lat="45.95697" lon="4.56099">
        <ele>446</ele>
        <time>2016-09-12T10:08:02Z</time>
      </trkpt>
      <trkpt lat="45.95696" lon="4.56102">
        <ele>446</ele>
        <time>2016-09-12T10:08:03Z</time>
      </trkpt>
      <trkpt lat="45.95691" lon="4.56111">
        <ele>446</ele>
        <time>2016-09-12T10:08:07Z</time>
      </trkpt>
      <trkpt lat="45.9569" lon="4.56114">
        <ele>446</ele>
        <time>2016-09-12T10:08:08Z</time>
      </trkpt>
      <trkpt lat="45.95688" lon="4.56126">
        <ele>446</ele>
        <time>2016-09-12T10:08:12Z</time>
      </trkpt>
      <trkpt lat="45.95687" lon="4.56129">
        <ele>446</ele>
        <time>2016-09-12T10:08:13Z</time>
      </trkpt>
      <trkpt lat="45.95686" lon="4.5614">
        <ele>446</ele>
        <time>2016-09-12T10:08:17Z</time>
      </trkpt>
      <trkpt lat="45.95686" lon="4.56143">
        <ele>446</ele>
        <time>2016-09-12T10:08:18Z</time>
      </trkpt>
      <trkpt lat="45.95686" lon="4.56153">
        <ele>446</ele>
        <time>2016-09-12T10:08:22Z</time>
      </trkpt>
      <trkpt lat="45.95686" lon="4.56156">
        <ele>446</ele>
        <time>2016-09-12T10:08:23Z</time>
      </trkpt>
      <trkpt lat="45.95688" lon="4.56169">
        <ele>446</ele>
        <time>2016-09-12T10:08:27Z</time>
      </trkpt>
      <trkpt lat="45.95689" lon="4.56172">
        <ele>446</ele>
        <time>2016-09-12T10:08:28Z</time>
      </trkpt>
      <trkpt lat="45.95694" lon="4.56181">
        <ele>446</ele>
        <time>2016-09-12T10:08:31Z</time>
      </trkpt>
      <trkpt lat="45.95696" lon="4.56184">
        <ele>446</ele>
        <time>2016-09-12T10:08:32Z</time>
      </trkpt>
      <trkpt lat="45.95701" lon="4.5619">
        <ele>446</ele>
        <time>2016-09-12T10:08:35Z</time>
      </trkpt>
      <trkpt lat="45.95703" lon="4.56192">
        <ele>446</ele>
        <time>2016-09-12T10:08:36Z</time>
      </trkpt>
      <trkpt lat="45.95708" lon="4.56198">
        <ele>446</ele>
        <time>2016-09-12T10:08:39Z</time>
      </trkpt>
      <trkpt lat="45.9571" lon="4.56199">
        <ele>446</ele>
        <time>2016-09-12T10:08:40Z</time>
      </trkpt>
      <trkpt lat="45.95717" lon="4.56203">
        <ele>446</ele>
        <time>2016-09-12T10:08:43Z</time>
      </trkpt>
      <trkpt lat="45.95719" lon="4.56204">
        <ele>446</ele>
        <time>2016-09-12T10:08:44Z</time>
      </trkpt>
      <trkpt lat="45.95726" lon="4.56206">
        <ele>446</ele>
        <time>2016-09-12T10:08:47Z</time>
      </trkpt>
      <trkpt lat="45.95728" lon="4.56207">
        <ele>446</ele>
        <time>2016-09-12T10:08:48Z</time>
      </trkpt>
      <trkpt lat="45.95735" lon="4.56208">
        <ele>446</ele>
        <time>2016-09-12T10:08:51Z</time>
      </trkpt>
      <trkpt lat="45.95738" lon="4.56207">
        <ele>447</ele>
        <time>2016-09-12T10:08:52Z</time>
      </trkpt>
      <trkpt lat="45.95747" lon="4.56207">
        <ele>447</ele>
        <time>2016-09-12T10:08:56Z</time>
      </trkpt>
      <trkpt lat="45.95749" lon="4.56207">
        <ele>447</ele>
        <time>2016-09-12T10:08:57Z</time>
      </trkpt>
      <trkpt lat="45.95757" lon="4.56205">
        <ele>448</ele>
        <time>2016-09-12T10:09:01Z</time>
      </trkpt>
      <trkpt lat="45.95759" lon="4.56205">
        <ele>448</ele>
        <time>2016-09-12T10:09:02Z</time>
      </trkpt>
      <trkpt lat="45.95766" lon="4.56205">
        <ele>448</ele>
        <time>2016-09-12T10:09:06Z</time>
      </trkpt>
      <trkpt lat="45.95768" lon="4.56205">
        <ele>448</ele>
        <time>2016-09-12T10:09:07Z</time>
      </trkpt>
      <trkpt lat="45.95776" lon="4.56202">
        <ele>448</ele>
        <time>2016-09-12T10:09:11Z</time>
      </trkpt>
      <trkpt lat="45.95778" lon="4.56201">
        <ele>448</ele>
        <time>2016-09-12T10:09:12Z</time>
      </trkpt>
      <trkpt lat="45.95785" lon="4.56198">
        <ele>449</ele>
        <time>2016-09-12T10:09:15Z</time>
      </trkpt>
      <trkpt lat="45.95787" lon="4.56197">
        <ele>449</ele>
        <time>2016-09-12T10:09:16Z</time>
      </trkpt>
      <trkpt lat="45.95796" lon="4.56197">
        <ele>449</ele>
        <time>2016-09-12T10:09:20Z</time>
      </trkpt>
      <trkpt lat="45.95798" lon="4.56196">
        <ele>449</ele>
        <time>2016-09-12T10:09:21Z</time>
      </trkpt>
      <trkpt lat="45.95805" lon="4.56193">
        <ele>450</ele>
        <time>2016-09-12T10:09:25Z</time>
      </trkpt>
      <trkpt lat="45.95807" lon="4.56192">
        <ele>450</ele>
        <time>2016-09-12T10:09:26Z</time>
      </trkpt>
      <trkpt lat="45.95816" lon="4.56188">
        <ele>451</ele>
        <time>2016-09-12T10:09:31Z</time>
      </trkpt>
      <trkpt lat="45.95818" lon="4.56187">
        <ele>451</ele>
        <time>2016-09-12T10:09:32Z</time>
      </trkpt>
      <trkpt lat="45.95826" lon="4.56186">
        <ele>452</ele>
        <time>2016-09-12T10:09:36Z</time>
      </trkpt>
      <trkpt lat="45.95828" lon="4.56185">
        <ele>452</ele>
        <time>2016-09-12T10:09:37Z</time>
      </trkpt>
      <trkpt lat="45.95836" lon="4.56182">
        <ele>453</ele>
        <time>2016-09-12T10:09:41Z</time>
      </trkpt>
      <trkpt lat="45.95838" lon="4.56181">
        <ele>453</ele>
        <time>2016-09-12T10:09:42Z</time>
      </trkpt>
      <trkpt lat="45.95846" lon="4.56176">
        <ele>454</ele>
        <time>2016-09-12T10:09:46Z</time>
      </trkpt>
      <trkpt lat="45.95848" lon="4.56176">
        <ele>453</ele>
        <time>2016-09-12T10:09:47Z</time>
      </trkpt>
      <trkpt lat="45.95856" lon="4.56172">
        <ele>452</ele>
        <time>2016-09-12T10:09:51Z</time>
      </trkpt>
      <trkpt lat="45.95858" lon="4.56171">
        <ele>452</ele>
        <time>2016-09-12T10:09:52Z</time>
      </trkpt>
      <trkpt lat="45.95865" lon="4.56169">
        <ele>452</ele>
        <time>2016-09-12T10:09:55Z</time>
      </trkpt>
      <trkpt lat="45.95868" lon="4.56169">
        <ele>452</ele>
        <time>2016-09-12T10:09:56Z</time>
      </trkpt>
      <trkpt lat="45.95875" lon="4.56166">
        <ele>461</ele>
        <time>2016-09-12T10:09:59Z</time>
      </trkpt>
      <trkpt lat="45.95877" lon="4.56164">
        <ele>461</ele>
        <time>2016-09-12T10:10:00Z</time>
      </trkpt>
      <trkpt lat="45.95884" lon="4.56161">
        <ele>461</ele>
        <time>2016-09-12T10:10:03Z</time>
      </trkpt>
      <trkpt lat="45.95886" lon="4.5616">
        <ele>461</ele>
        <time>2016-09-12T10:10:04Z</time>
      </trkpt>
      <trkpt lat="45.95894" lon="4.56156">
        <ele>461</ele>
        <time>2016-09-12T10:10:08Z</time>
      </trkpt>
      <trkpt lat="45.95896" lon="4.56156">
        <ele>461</ele>
        <time>2016-09-12T10:10:09Z</time>
      </trkpt>
      <trkpt lat="45.95903" lon="4.56151">
        <ele>461</ele>
        <time>2016-09-12T10:10:13Z</time>
      </trkpt>
      <trkpt lat="45.95905" lon="4.5615">
        <ele>461</ele>
        <time>2016-09-12T10:10:14Z</time>
      </trkpt>
      <trkpt lat="45.95912" lon="4.56146">
        <ele>461</ele>
        <time>2016-09-12T10:10:18Z</time>
      </trkpt>
      <trkpt lat="45.95914" lon="4.56145">
        <ele>461</ele>
        <time>2016-09-12T10:10:19Z</time>
      </trkpt>
      <trkpt lat="45.9592" lon="4.56139">
        <ele>465</ele>
        <time>2016-09-12T10:10:22Z</time>
      </trkpt>
      <trkpt lat="45.95922" lon="4.56138">
        <ele>466</ele>
        <time>2016-09-12T10:10:23Z</time>
      </trkpt>
      <trkpt lat="45.95929" lon="4.56133">
        <ele>467</ele>
        <time>2016-09-12T10:10:28Z</time>
      </trkpt>
      <trkpt lat="45.95931" lon="4.56132">
        <ele>467</ele>
        <time>2016-09-12T10:10:29Z</time>
      </trkpt>
      <trkpt lat="45.95938" lon="4.5613">
        <ele>468</ele>
        <time>2016-09-12T10:10:33Z</time>
      </trkpt>
      <trkpt lat="45.9594" lon="4.5613">
        <ele>468</ele>
        <time>2016-09-12T10:10:34Z</time>
      </trkpt>
      <trkpt lat="45.95947" lon="4.56131">
        <ele>468</ele>
        <time>2016-09-12T10:10:37Z</time>
      </trkpt>
      <trkpt lat="45.9595" lon="4.56131">
        <ele>468</ele>
        <time>2016-09-12T10:10:38Z</time>
      </trkpt>
      <trkpt lat="45.95957" lon="4.56133">
        <ele>469</ele>
        <time>2016-09-12T10:10:42Z</time>
      </trkpt>
      <trkpt lat="45.95959" lon="4.56134">
        <ele>469</ele>
        <time>2016-09-12T10:10:43Z</time>
      </trkpt>
      <trkpt lat="45.95967" lon="4.56137">
        <ele>469</ele>
        <time>2016-09-12T10:10:47Z</time>
      </trkpt>
      <trkpt lat="45.95969" lon="4.56139">
        <ele>469</ele>
        <time>2016-09-12T10:10:48Z</time>
      </trkpt>
      <trkpt lat="45.95977" lon="4.56141">
        <ele>469</ele>
        <time>2016-09-12T10:10:52Z</time>
      </trkpt>
      <trkpt lat="45.95979" lon="4.56141">
        <ele>469</ele>
        <time>2016-09-12T10:10:53Z</time>
      </trkpt>
      <trkpt lat="45.95986" lon="4.56145">
        <ele>469</ele>
        <time>2016-09-12T10:10:57Z</time>
      </trkpt>
      <trkpt lat="45.95987" lon="4.56146">
        <ele>469</ele>
        <time>2016-09-12T10:10:58Z</time>
      </trkpt>
      <trkpt lat="45.95994" lon="4.56149">
        <ele>469</ele>
        <time>2016-09-12T10:11:02Z</time>
      </trkpt>
      <trkpt lat="45.95996" lon="4.56149">
        <ele>469</ele>
        <time>2016-09-12T10:11:03Z</time>
      </trkpt>
      <trkpt lat="45.96004" lon="4.5615">
        <ele>475</ele>
        <time>2016-09-12T10:11:07Z</time>
      </trkpt>
      <trkpt lat="45.96006" lon="4.56151">
        <ele>475</ele>
        <time>2016-09-12T10:11:08Z</time>
      </trkpt>
      <trkpt lat="45.96013" lon="4.56152">
        <ele>476</ele>
        <time>2016-09-12T10:11:11Z</time>
      </trkpt>
      <trkpt lat="45.96015" lon="4.56153">
        <ele>476</ele>
        <time>2016-09-12T10:11:12Z</time>
      </trkpt>
      <trkpt lat="45.96022" lon="4.56155">
        <ele>477</ele>
        <time>2016-09-12T10:11:15Z</time>
      </trkpt>
      <trkpt lat="45.96024" lon="4.56155">
        <ele>478</ele>
        <time>2016-09-12T10:11:16Z</time>
      </trkpt>
      <trkpt lat="45.96033" lon="4.56159">
        <ele>479</ele>
        <time>2016-09-12T10:11:20Z</time>
      </trkpt>
      <trkpt lat="45.96035" lon="4.5616">
        <ele>479</ele>
        <time>2016-09-12T10:11:21Z</time>
      </trkpt>
      <trkpt lat="45.96042" lon="4.56161">
        <ele>480</ele>
        <time>2016-09-12T10:11:24Z</time>
      </trkpt>
      <trkpt lat="45.96044" lon="4.56161">
        <ele>481</ele>
        <time>2016-09-12T10:11:25Z</time>
      </trkpt>
      <trkpt lat="45.96053" lon="4.56162">
        <ele>482</ele>
        <time>2016-09-12T10:11:29Z</time>
      </trkpt>
      <trkpt lat="45.96055" lon="4.56163">
        <ele>482</ele>
        <time>2016-09-12T10:11:30Z</time>
      </trkpt>
      <trkpt lat="45.96063" lon="4.56167">
        <ele>475</ele>
        <time>2016-09-12T10:11:34Z</time>
      </trkpt>
      <trkpt lat="45.96065" lon="4.56168">
        <ele>476</ele>
        <time>2016-09-12T10:11:35Z</time>
      </trkpt>
      <trkpt lat="45.96074" lon="4.56171">
        <ele>479</ele>
        <time>2016-09-12T10:11:39Z</time>
      </trkpt>
      <trkpt lat="45.96076" lon="4.56173">
        <ele>479</ele>
        <time>2016-09-12T10:11:40Z</time>
      </trkpt>
      <trkpt lat="45.96084" lon="4.56176">
        <ele>485</ele>
        <time>2016-09-12T10:11:44Z</time>
      </trkpt>
      <trkpt lat="45.96086" lon="4.56178">
        <ele>485</ele>
        <time>2016-09-12T10:11:45Z</time>
      </trkpt>
      <trkpt lat="45.96092" lon="4.56182">
        <ele>486</ele>
        <time>2016-09-12T10:11:48Z</time>
      </trkpt>
      <trkpt lat="45.96094" lon="4.56184">
        <ele>486</ele>
        <time>2016-09-12T10:11:49Z</time>
      </trkpt>
      <trkpt lat="45.96103" lon="4.56189">
        <ele>486</ele>
        <time>2016-09-12T10:11:53Z</time>
      </trkpt>
      <trkpt lat="45.96104" lon="4.5619">
        <ele>486</ele>
        <time>2016-09-12T10:11:54Z</time>
      </trkpt>
      <trkpt lat="45.9611" lon="4.56195">
        <ele>487</ele>
        <time>2016-09-12T10:11:57Z</time>
      </trkpt>
      <trkpt lat="45.96112" lon="4.56197">
        <ele>487</ele>
        <time>2016-09-12T10:11:58Z</time>
      </trkpt>
      <trkpt lat="45.96118" lon="4.56202">
        <ele>487</ele>
        <time>2016-09-12T10:12:01Z</time>
      </trkpt>
      <trkpt lat="45.9612" lon="4.56204">
        <ele>487</ele>
        <time>2016-09-12T10:12:02Z</time>
      </trkpt>
      <trkpt lat="45.96127" lon="4.56212">
        <ele>487</ele>
        <time>2016-09-12T10:12:06Z</time>
      </trkpt>
      <trkpt lat="45.96129" lon="4.56214">
        <ele>487</ele>
        <time>2016-09-12T10:12:07Z</time>
      </trkpt>
      <trkpt lat="45.96135" lon="4.56223">
        <ele>487</ele>
        <time>2016-09-12T10:12:11Z</time>
      </trkpt>
      <trkpt lat="45.96136" lon="4.56226">
        <ele>487</ele>
        <time>2016-09-12T10:12:12Z</time>
      </trkpt>
      <trkpt lat="45.96139" lon="4.56234">
        <ele>488</ele>
        <time>2016-09-12T10:12:15Z</time>
      </trkpt>
      <trkpt lat="45.9614" lon="4.56238">
        <ele>488</ele>
        <time>2016-09-12T10:12:16Z</time>
      </trkpt>
      <trkpt lat="45.96141" lon="4.56249">
        <ele>488</ele>
        <time>2016-09-12T10:12:20Z</time>
      </trkpt>
      <trkpt lat="45.96142" lon="4.56252">
        <ele>484</ele>
        <time>2016-09-12T10:12:21Z</time>
      </trkpt>
      <trkpt lat="45.96145" lon="4.56264">
        <ele>484</ele>
        <time>2016-09-12T10:12:25Z</time>
      </trkpt>
      <trkpt lat="45.96145" lon="4.56266">
        <ele>484</ele>
        <time>2016-09-12T10:12:26Z</time>
      </trkpt>
      <trkpt lat="45.96147" lon="4.56275">
        <ele>484</ele>
        <time>2016-09-12T10:12:29Z</time>
      </trkpt>
      <trkpt lat="45.96148" lon="4.56278">
        <ele>484</ele>
        <time>2016-09-12T10:12:30Z</time>
      </trkpt>
      <trkpt lat="45.96151" lon="4.56289">
        <ele>484</ele>
        <time>2016-09-12T10:12:33Z</time>
      </trkpt>
      <trkpt lat="45.96153" lon="4.56291">
        <ele>484</ele>
        <time>2016-09-12T10:12:34Z</time>
      </trkpt>
      <trkpt lat="45.96155" lon="4.56302">
        <ele>485</ele>
        <time>2016-09-12T10:12:37Z</time>
      </trkpt>
      <trkpt lat="45.96156" lon="4.56305">
        <ele>485</ele>
        <time>2016-09-12T10:12:38Z</time>
      </trkpt>
      <trkpt lat="45.96159" lon="4.56316">
        <ele>487</ele>
        <time>2016-09-12T10:12:42Z</time>
      </trkpt>
      <trkpt lat="45.9616" lon="4.56319">
        <ele>487</ele>
        <time>2016-09-12T10:12:43Z</time>
      </trkpt>
      <trkpt lat="45.96162" lon="4.56331">
        <ele>490</ele>
        <time>2016-09-12T10:12:47Z</time>
      </trkpt>
      <trkpt lat="45.96162" lon="4.56334">
        <ele>492</ele>
        <time>2016-09-12T10:12:48Z</time>
      </trkpt>
      <trkpt lat="45.96163" lon="4.56347">
        <ele>490</ele>
        <time>2016-09-12T10:12:52Z</time>
      </trkpt>
      <trkpt lat="45.96163" lon="4.5635">
        <ele>490</ele>
        <time>2016-09-12T10:12:53Z</time>
      </trkpt>
      <trkpt lat="45.96161" lon="4.56363">
        <ele>489</ele>
        <time>2016-09-12T10:12:57Z</time>
      </trkpt>
      <trkpt lat="45.96159" lon="4.56366">
        <ele>489</ele>
        <time>2016-09-12T10:12:58Z</time>
      </trkpt>
      <trkpt lat="45.96154" lon="4.56374">
        <ele>489</ele>
        <time>2016-09-12T10:13:01Z</time>
      </trkpt>
      <trkpt lat="45.96153" lon="4.56376">
        <ele>489</ele>
        <time>2016-09-12T10:13:02Z</time>
      </trkpt>
      <trkpt lat="45.96147" lon="4.56383">
        <ele>489</ele>
        <time>2016-09-12T10:13:06Z</time>
      </trkpt>
      <trkpt lat="45.96146" lon="4.56385">
        <ele>489</ele>
        <time>2016-09-12T10:13:07Z</time>
      </trkpt>
      <trkpt lat="45.96139" lon="4.56391">
        <ele>489</ele>
        <time>2016-09-12T10:13:11Z</time>
      </trkpt>
      <trkpt lat="45.96137" lon="4.56392">
        <ele>489</ele>
        <time>2016-09-12T10:13:12Z</time>
      </trkpt>
      <trkpt lat="45.9613" lon="4.56398">
        <ele>489</ele>
        <time>2016-09-12T10:13:16Z</time>
      </trkpt>
      <trkpt lat="45.96128" lon="4.56399">
        <ele>489</ele>
        <time>2016-09-12T10:13:17Z</time>
      </trkpt>
      <trkpt lat="45.96122" lon="4.56404">
        <ele>488</ele>
        <time>2016-09-12T10:13:20Z</time>
      </trkpt>
      <trkpt lat="45.9612" lon="4.56405">
        <ele>488</ele>
        <time>2016-09-12T10:13:21Z</time>
      </trkpt>
      <trkpt lat="45.96112" lon="4.5641">
        <ele>488</ele>
        <time>2016-09-12T10:13:25Z</time>
      </trkpt>
      <trkpt lat="45.96111" lon="4.56411">
        <ele>488</ele>
        <time>2016-09-12T10:13:26Z</time>
      </trkpt>
      <trkpt lat="45.96105" lon="4.5642">
        <ele>494</ele>
        <time>2016-09-12T10:13:30Z</time>
      </trkpt>
      <trkpt lat="45.96103" lon="4.56422">
        <ele>494</ele>
        <time>2016-09-12T10:13:31Z</time>
      </trkpt>
      <trkpt lat="45.96096" lon="4.56429">
        <ele>494</ele>
        <time>2016-09-12T10:13:35Z</time>
      </trkpt>
      <trkpt lat="45.96094" lon="4.5643">
        <ele>493</ele>
        <time>2016-09-12T10:13:36Z</time>
      </trkpt>
      <trkpt lat="45.96086" lon="4.56433">
        <ele>493</ele>
        <time>2016-09-12T10:13:39Z</time>
      </trkpt>
      <trkpt lat="45.96084" lon="4.56434">
        <ele>494</ele>
        <time>2016-09-12T10:13:40Z</time>
      </trkpt>
      <trkpt lat="45.96078" lon="4.56438">
        <ele>488</ele>
        <time>2016-09-12T10:13:43Z</time>
      </trkpt>
      <trkpt lat="45.96076" lon="4.56439">
        <ele>488</ele>
        <time>2016-09-12T10:13:44Z</time>
      </trkpt>
      <trkpt lat="45.96068" lon="4.56444">
        <ele>489</ele>
        <time>2016-09-12T10:13:48Z</time>
      </trkpt>
      <trkpt lat="45.96066" lon="4.56445">
        <ele>489</ele>
        <time>2016-09-12T10:13:49Z</time>
      </trkpt>
      <trkpt lat="45.96059" lon="4.56451">
        <ele>489</ele>
        <time>2016-09-12T10:13:53Z</time>
      </trkpt>
      <trkpt lat="45.96057" lon="4.56452">
        <ele>489</ele>
        <time>2016-09-12T10:13:54Z</time>
      </trkpt>
      <trkpt lat="45.96051" lon="4.56458">
        <ele>489</ele>
        <time>2016-09-12T10:13:57Z</time>
      </trkpt>
      <trkpt lat="45.96049" lon="4.5646">
        <ele>489</ele>
        <time>2016-09-12T10:13:58Z</time>
      </trkpt>
      <trkpt lat="45.96043" lon="4.56469">
        <ele>489</ele>
        <time>2016-09-12T10:14:02Z</time>
      </trkpt>
      <trkpt lat="45.96041" lon="4.56472">
        <ele>489</ele>
        <time>2016-09-12T10:14:03Z</time>
      </trkpt>
      <trkpt lat="45.96037" lon="4.56479">
        <ele>489</ele>
        <time>2016-09-12T10:14:06Z</time>
      </trkpt>
      <trkpt lat="45.96035" lon="4.56481">
        <ele>489</ele>
        <time>2016-09-12T10:14:07Z</time>
      </trkpt>
      <trkpt lat="45.9603" lon="4.56488">
        <ele>489</ele>
        <time>2016-09-12T10:14:10Z</time>
      </trkpt>
      <trkpt lat="45.96029" lon="4.56491">
        <ele>489</ele>
        <time>2016-09-12T10:14:11Z</time>
      </trkpt>
      <trkpt lat="45.96023" lon="4.56501">
        <ele>495</ele>
        <time>2016-09-12T10:14:15Z</time>
      </trkpt>
      <trkpt lat="45.96022" lon="4.56503">
        <ele>494</ele>
        <time>2016-09-12T10:14:16Z</time>
      </trkpt>
      <trkpt lat="45.96018" lon="4.56512">
        <ele>494</ele>
        <time>2016-09-12T10:14:19Z</time>
      </trkpt>
      <trkpt lat="45.96017" lon="4.56516">
        <ele>495</ele>
        <time>2016-09-12T10:14:20Z</time>
      </trkpt>
      <trkpt lat="45.96014" lon="4.56525">
        <ele>495</ele>
        <time>2016-09-12T10:14:23Z</time>
      </trkpt>
      <trkpt lat="45.96013" lon="4.56527">
        <ele>496</ele>
        <time>2016-09-12T10:14:24Z</time>
      </trkpt>
      <trkpt lat="45.96008" lon="4.56538">
        <ele>497</ele>
        <time>2016-09-12T10:14:28Z</time>
      </trkpt>
      <trkpt lat="45.96007" lon="4.56542">
        <ele>497</ele>
        <time>2016-09-12T10:14:29Z</time>
      </trkpt>
      <trkpt lat="45.96006" lon="4.56552">
        <ele>498</ele>
        <time>2016-09-12T10:14:32Z</time>
      </trkpt>
      <trkpt lat="45.96005" lon="4.56555">
        <ele>498</ele>
        <time>2016-09-12T10:14:33Z</time>
      </trkpt>
      <trkpt lat="45.96001" lon="4.56564">
        <ele>498</ele>
        <time>2016-09-12T10:14:36Z</time>
      </trkpt>
      <trkpt lat="45.96" lon="4.56567">
        <ele>499</ele>
        <time>2016-09-12T10:14:37Z</time>
      </trkpt>
      <trkpt lat="45.95996" lon="4.56578">
        <ele>495</ele>
        <time>2016-09-12T10:14:41Z</time>
      </trkpt>
      <trkpt lat="45.95995" lon="4.56581">
        <ele>496</ele>
        <time>2016-09-12T10:14:42Z</time>
      </trkpt>
      <trkpt lat="45.95992" lon="4.5659">
        <ele>496</ele>
        <time>2016-09-12T10:14:45Z</time>
      </trkpt>
      <trkpt lat="45.95991" lon="4.56593">
        <ele>496</ele>
        <time>2016-09-12T10:14:46Z</time>
      </trkpt>
      <trkpt lat="45.95986" lon="4.56601">
        <ele>495</ele>
        <time>2016-09-12T10:14:49Z</time>
      </trkpt>
      <trkpt lat="45.95984" lon="4.56604">
        <ele>494</ele>
        <time>2016-09-12T10:14:50Z</time>
      </trkpt>
      <trkpt lat="45.9598" lon="4.56614">
        <ele>494</ele>
        <time>2016-09-12T10:14:53Z</time>
      </trkpt>
      <trkpt lat="45.95979" lon="4.56617">
        <ele>494</ele>
        <time>2016-09-12T10:14:54Z</time>
      </trkpt>
      <trkpt lat="45.95974" lon="4.56627">
        <ele>493</ele>
        <time>2016-09-12T10:14:58Z</time>
      </trkpt>
      <trkpt lat="45.95973" lon="4.5663">
        <ele>494</ele>
        <time>2016-09-12T10:14:59Z</time>
      </trkpt>
      <trkpt lat="45.9597" lon="4.56642">
        <ele>494</ele>
        <time>2016-09-12T10:15:04Z</time>
      </trkpt>
      <trkpt lat="45.9597" lon="4.56645">
        <ele>494</ele>
        <time>2016-09-12T10:15:05Z</time>
      </trkpt>
      <trkpt lat="45.95972" lon="4.56657">
        <ele>495</ele>
        <time>2016-09-12T10:15:09Z</time>
      </trkpt>
      <trkpt lat="45.95974" lon="4.5666">
        <ele>495</ele>
        <time>2016-09-12T10:15:10Z</time>
      </trkpt>
      <trkpt lat="45.95979" lon="4.56668">
        <ele>495</ele>
        <time>2016-09-12T10:15:13Z</time>
      </trkpt>
      <trkpt lat="45.95982" lon="4.5667">
        <ele>496</ele>
        <time>2016-09-12T10:15:14Z</time>
      </trkpt>
      <trkpt lat="45.95989" lon="4.56677">
        <ele>496</ele>
        <time>2016-09-12T10:15:17Z</time>
      </trkpt>
      <trkpt lat="45.95991" lon="4.56678">
        <ele>497</ele>
        <time>2016-09-12T10:15:18Z</time>
      </trkpt>
      <trkpt lat="45.95999" lon="4.5668">
        <ele>497</ele>
        <time>2016-09-12T10:15:21Z</time>
      </trkpt>
      <trkpt lat="45.96002" lon="4.5668">
        <ele>496</ele>
        <time>2016-09-12T10:15:22Z</time>
      </trkpt>
      <trkpt lat="45.96009" lon="4.56678">
        <ele>496</ele>
        <time>2016-09-12T10:15:25Z</time>
      </trkpt>
      <trkpt lat="45.96012" lon="4.56677">
        <ele>496</ele>
        <time>2016-09-12T10:15:26Z</time>
      </trkpt>
      <trkpt lat="45.9602" lon="4.56674">
        <ele>495</ele>
        <time>2016-09-12T10:15:29Z</time>
      </trkpt>
      <trkpt lat="45.96023" lon="4.56674">
        <ele>494</ele>
        <time>2016-09-12T10:15:30Z</time>
      </trkpt>
      <trkpt lat="45.9603" lon="4.56671">
        <ele>493</ele>
        <time>2016-09-12T10:15:33Z</time>
      </trkpt>
      <trkpt lat="45.96033" lon="4.5667">
        <ele>493</ele>
        <time>2016-09-12T10:15:34Z</time>
      </trkpt>
      <trkpt lat="45.96039" lon="4.56668">
        <ele>492</ele>
        <time>2016-09-12T10:15:36Z</time>
      </trkpt>
      <trkpt lat="45.96043" lon="4.56666">
        <ele>499</ele>
        <time>2016-09-12T10:15:37Z</time>
      </trkpt>
      <trkpt lat="45.9605" lon="4.56663">
        <ele>498</ele>
        <time>2016-09-12T10:15:39Z</time>
      </trkpt>
      <trkpt lat="45.96053" lon="4.56662">
        <ele>498</ele>
        <time>2016-09-12T10:15:40Z</time>
      </trkpt>
      <trkpt lat="45.96059" lon="4.56659">
        <ele>498</ele>
        <time>2016-09-12T10:15:42Z</time>
      </trkpt>
      <trkpt lat="45.96062" lon="4.56658">
        <ele>498</ele>
        <time>2016-09-12T10:15:43Z</time>
      </trkpt>
      <trkpt lat="45.96068" lon="4.56654">
        <ele>497</ele>
        <time>2016-09-12T10:15:45Z</time>
      </trkpt>
      <trkpt lat="45.96071" lon="4.56652">
        <ele>497</ele>
        <time>2016-09-12T10:15:46Z</time>
      </trkpt>
      <trkpt lat="45.96078" lon="4.56649">
        <ele>497</ele>
        <time>2016-09-12T10:15:48Z</time>
      </trkpt>
      <trkpt lat="45.96081" lon="4.56647">
        <ele>497</ele>
        <time>2016-09-12T10:15:49Z</time>
      </trkpt>
      <trkpt lat="45.96088" lon="4.56644">
        <ele>498</ele>
        <time>2016-09-12T10:15:51Z</time>
      </trkpt>
      <trkpt lat="45.9609" lon="4.56643">
        <ele>499</ele>
        <time>2016-09-12T10:15:52Z</time>
      </trkpt>
      <trkpt lat="45.96099" lon="4.56639">
        <ele>500</ele>
        <time>2016-09-12T10:15:55Z</time>
      </trkpt>
      <trkpt lat="45.96102" lon="4.56637">
        <ele>500</ele>
        <time>2016-09-12T10:15:56Z</time>
      </trkpt>
      <trkpt lat="45.96108" lon="4.56633">
        <ele>501</ele>
        <time>2016-09-12T10:15:58Z</time>
      </trkpt>
      <trkpt lat="45.96112" lon="4.56632">
        <ele>501</ele>
        <time>2016-09-12T10:15:59Z</time>
      </trkpt>
      <trkpt lat="45.96118" lon="4.56629">
        <ele>501</ele>
        <time>2016-09-12T10:16:01Z</time>
      </trkpt>
      <trkpt lat="45.96121" lon="4.56628">
        <ele>501</ele>
        <time>2016-09-12T10:16:02Z</time>
      </trkpt>
      <trkpt lat="45.96127" lon="4.56625">
        <ele>502</ele>
        <time>2016-09-12T10:16:04Z</time>
      </trkpt>
      <trkpt lat="45.9613" lon="4.56624">
        <ele>502</ele>
        <time>2016-09-12T10:16:05Z</time>
      </trkpt>
      <trkpt lat="45.96137" lon="4.56621">
        <ele>502</ele>
        <time>2016-09-12T10:16:07Z</time>
      </trkpt>
      <trkpt lat="45.96141" lon="4.56619">
        <ele>503</ele>
        <time>2016-09-12T10:16:08Z</time>
      </trkpt>
      <trkpt lat="45.96148" lon="4.56618">
        <ele>503</ele>
        <time>2016-09-12T10:16:10Z</time>
      </trkpt>
      <trkpt lat="45.96151" lon="4.56618">
        <ele>503</ele>
        <time>2016-09-12T10:16:11Z</time>
      </trkpt>
      <trkpt lat="45.96159" lon="4.56619">
        <ele>503</ele>
        <time>2016-09-12T10:16:13Z</time>
      </trkpt>
      <trkpt lat="45.96162" lon="4.5662">
        <ele>503</ele>
        <time>2016-09-12T10:16:14Z</time>
      </trkpt>
      <trkpt lat="45.9617" lon="4.56622">
        <ele>508</ele>
        <time>2016-09-12T10:16:16Z</time>
      </trkpt>
      <trkpt lat="45.96174" lon="4.56624">
        <ele>508</ele>
        <time>2016-09-12T10:16:17Z</time>
      </trkpt>
      <trkpt lat="45.96181" lon="4.56629">
        <ele>507</ele>
        <time>2016-09-12T10:16:19Z</time>
      </trkpt>
      <trkpt lat="45.96184" lon="4.56633">
        <ele>507</ele>
        <time>2016-09-12T10:16:20Z</time>
      </trkpt>
      <trkpt lat="45.9619" lon="4.56641">
        <ele>507</ele>
        <time>2016-09-12T10:16:22Z</time>
      </trkpt>
      <trkpt lat="45.96192" lon="4.56647">
        <ele>506</ele>
        <time>2016-09-12T10:16:23Z</time>
      </trkpt>
      <trkpt lat="45.96196" lon="4.56656">
        <ele>506</ele>
        <time>2016-09-12T10:16:25Z</time>
      </trkpt>
      <trkpt lat="45.96198" lon="4.56661">
        <ele>506</ele>
        <time>2016-09-12T10:16:26Z</time>
      </trkpt>
      <trkpt lat="45.96201" lon="4.5667">
        <ele>501</ele>
        <time>2016-09-12T10:16:28Z</time>
      </trkpt>
      <trkpt lat="45.96202" lon="4.56674">
        <ele>502</ele>
        <time>2016-09-12T10:16:29Z</time>
      </trkpt>
      <trkpt lat="45.96206" lon="4.56684">
        <ele>502</ele>
        <time>2016-09-12T10:16:32Z</time>
      </trkpt>
      <trkpt lat="45.96207" lon="4.56688">
        <ele>502</ele>
        <time>2016-09-12T10:16:33Z</time>
      </trkpt>
      <trkpt lat="45.96209" lon="4.56698">
        <ele>502</ele>
        <time>2016-09-12T10:16:35Z</time>
      </trkpt>
      <trkpt lat="45.9621" lon="4.56703">
        <ele>502</ele>
        <time>2016-09-12T10:16:36Z</time>
      </trkpt>
      <trkpt lat="45.96211" lon="4.56715">
        <ele>501</ele>
        <time>2016-09-12T10:16:39Z</time>
      </trkpt>
      <trkpt lat="45.96212" lon="4.56719">
        <ele>501</ele>
        <time>2016-09-12T10:16:40Z</time>
      </trkpt>
      <trkpt lat="45.96213" lon="4.56728">
        <ele>501</ele>
        <time>2016-09-12T10:16:42Z</time>
      </trkpt>
      <trkpt lat="45.96214" lon="4.56733">
        <ele>501</ele>
        <time>2016-09-12T10:16:43Z</time>
      </trkpt>
      <trkpt lat="45.96215" lon="4.56744">
        <ele>501</ele>
        <time>2016-09-12T10:16:45Z</time>
      </trkpt>
      <trkpt lat="45.96215" lon="4.56748">
        <ele>501</ele>
        <time>2016-09-12T10:16:46Z</time>
      </trkpt>
      <trkpt lat="45.96217" lon="4.56761">
        <ele>498</ele>
        <time>2016-09-12T10:16:49Z</time>
      </trkpt>
      <trkpt lat="45.96217" lon="4.56765">
        <ele>498</ele>
        <time>2016-09-12T10:16:50Z</time>
      </trkpt>
      <trkpt lat="45.9622" lon="4.56777">
        <ele>498</ele>
        <time>2016-09-12T10:16:53Z</time>
      </trkpt>
      <trkpt lat="45.96221" lon="4.56781">
        <ele>498</ele>
        <time>2016-09-12T10:16:54Z</time>
      </trkpt>
      <trkpt lat="45.96225" lon="4.56789">
        <ele>498</ele>
        <time>2016-09-12T10:16:56Z</time>
      </trkpt>
      <trkpt lat="45.96226" lon="4.56793">
        <ele>498</ele>
        <time>2016-09-12T10:16:57Z</time>
      </trkpt>
      <trkpt lat="45.96231" lon="4.56801">
        <ele>498</ele>
        <time>2016-09-12T10:16:59Z</time>
      </trkpt>
      <trkpt lat="45.96234" lon="4.56804">
        <ele>498</ele>
        <time>2016-09-12T10:17:00Z</time>
      </trkpt>
      <trkpt lat="45.96241" lon="4.56808">
        <ele>499</ele>
        <time>2016-09-12T10:17:02Z</time>
      </trkpt>
      <trkpt lat="45.96244" lon="4.56809">
        <ele>499</ele>
        <time>2016-09-12T10:17:03Z</time>
      </trkpt>
      <trkpt lat="45.96251" lon="4.56811">
        <ele>500</ele>
        <time>2016-09-12T10:17:05Z</time>
      </trkpt>
      <trkpt lat="45.96255" lon="4.56811">
        <ele>500</ele>
        <time>2016-09-12T10:17:06Z</time>
      </trkpt>
      <trkpt lat="45.96262" lon="4.56809">
        <ele>500</ele>
        <time>2016-09-12T10:17:08Z</time>
      </trkpt>
      <trkpt lat="45.96265" lon="4.56807">
        <ele>500</ele>
        <time>2016-09-12T10:17:09Z</time>
      </trkpt>
      <trkpt lat="45.96272" lon="4.56804">
        <ele>499</ele>
        <time>2016-09-12T10:17:11Z</time>
      </trkpt>
      <trkpt lat="45.96275" lon="4.56801">
        <ele>499</ele>
        <time>2016-09-12T10:17:12Z</time>
      </trkpt>
      <trkpt lat="45.96282" lon="4.56796">
        <ele>499</ele>
        <time>2016-09-12T10:17:14Z</time>
      </trkpt>
      <trkpt lat="45.96284" lon="4.56794">
        <ele>499</ele>
        <time>2016-09-12T10:17:15Z</time>
      </trkpt>
      <trkpt lat="45.96291" lon="4.56787">
        <ele>499</ele>
        <time>2016-09-12T10:17:18Z</time>
      </trkpt>
      <trkpt lat="45.96294" lon="4.56786">
        <ele>499</ele>
        <time>2016-09-12T10:17:19Z</time>
      </trkpt>
      <trkpt lat="45.96301" lon="4.56779">
        <ele>499</ele>
        <time>2016-09-12T10:17:22Z</time>
      </trkpt>
      <trkpt lat="45.96304" lon="4.56777">
        <ele>499</ele>
        <time>2016-09-12T10:17:23Z</time>
      </trkpt>
      <trkpt lat="45.9631" lon="4.5677">
        <ele>499</ele>
        <time>2016-09-12T10:17:26Z</time>
      </trkpt>
      <trkpt lat="45.96313" lon="4.56767">
        <ele>499</ele>
        <time>2016-09-12T10:17:27Z</time>
      </trkpt>
      <trkpt lat="45.9632" lon="4.56759">
        <ele>500</ele>
        <time>2016-09-12T10:17:30Z</time>
      </trkpt>
      <trkpt lat="45.96322" lon="4.56757">
        <ele>500</ele>
        <time>2016-09-12T10:17:31Z</time>
      </trkpt>
      <trkpt lat="45.96327" lon="4.56751">
        <ele>500</ele>
        <time>2016-09-12T10:17:33Z</time>
      </trkpt>
      <trkpt lat="45.96329" lon="4.56749">
        <ele>502</ele>
        <time>2016-09-12T10:17:34Z</time>
      </trkpt>
      <trkpt lat="45.96334" lon="4.56742">
        <ele>501</ele>
        <time>2016-09-12T10:17:36Z</time>
      </trkpt>
      <trkpt lat="45.96336" lon="4.56739">
        <ele>501</ele>
        <time>2016-09-12T10:17:37Z</time>
      </trkpt>
      <trkpt lat="45.96341" lon="4.56732">
        <ele>502</ele>
        <time>2016-09-12T10:17:39Z</time>
      </trkpt>
      <trkpt lat="45.96344" lon="4.56729">
        <ele>502</ele>
        <time>2016-09-12T10:17:40Z</time>
      </trkpt>
      <trkpt lat="45.96349" lon="4.56722">
        <ele>502</ele>
        <time>2016-09-12T10:17:42Z</time>
      </trkpt>
      <trkpt lat="45.96351" lon="4.56719">
        <ele>502</ele>
        <time>2016-09-12T10:17:43Z</time>
      </trkpt>
      <trkpt lat="45.96356" lon="4.56709">
        <ele>503</ele>
        <time>2016-09-12T10:17:46Z</time>
      </trkpt>
      <trkpt lat="45.96359" lon="4.56706">
        <ele>503</ele>
        <time>2016-09-12T10:17:47Z</time>
      </trkpt>
      <trkpt lat="45.96363" lon="4.56699">
        <ele>504</ele>
        <time>2016-09-12T10:17:49Z</time>
      </trkpt>
      <trkpt lat="45.96366" lon="4.56696">
        <ele>504</ele>
        <time>2016-09-12T10:17:50Z</time>
      </trkpt>
      <trkpt lat="45.9637" lon="4.56689">
        <ele>504</ele>
        <time>2016-09-12T10:17:52Z</time>
      </trkpt>
      <trkpt lat="45.96372" lon="4.56685">
        <ele>504</ele>
        <time>2016-09-12T10:17:53Z</time>
      </trkpt>
      <trkpt lat="45.96377" lon="4.56678">
        <ele>504</ele>
        <time>2016-09-12T10:17:55Z</time>
      </trkpt>
      <trkpt lat="45.96379" lon="4.56675">
        <ele>504</ele>
        <time>2016-09-12T10:17:56Z</time>
      </trkpt>
      <trkpt lat="45.96385" lon="4.56669">
        <ele>504</ele>
        <time>2016-09-12T10:17:58Z</time>
      </trkpt>
      <trkpt lat="45.96387" lon="4.56667">
        <ele>511</ele>
        <time>2016-09-12T10:17:59Z</time>
      </trkpt>
      <trkpt lat="45.96392" lon="4.56661">
        <ele>511</ele>
        <time>2016-09-12T10:18:01Z</time>
      </trkpt>
      <trkpt lat="45.96395" lon="4.56657">
        <ele>511</ele>
        <time>2016-09-12T10:18:02Z</time>
      </trkpt>
      <trkpt lat="45.96401" lon="4.56649">
        <ele>511</ele>
        <time>2016-09-12T10:18:05Z</time>
      </trkpt>
      <trkpt lat="45.96403" lon="4.56647">
        <ele>511</ele>
        <time>2016-09-12T10:18:06Z</time>
      </trkpt>
      <trkpt lat="45.9641" lon="4.5664">
        <ele>511</ele>
        <time>2016-09-12T10:18:09Z</time>
      </trkpt>
      <trkpt lat="45.96413" lon="4.56637">
        <ele>512</ele>
        <time>2016-09-12T10:18:10Z</time>
      </trkpt>
      <trkpt lat="45.9642" lon="4.5663">
        <ele>507</ele>
        <time>2016-09-12T10:18:12Z</time>
      </trkpt>
      <trkpt lat="45.96423" lon="4.56627">
        <ele>507</ele>
        <time>2016-09-12T10:18:13Z</time>
      </trkpt>
      <trkpt lat="45.96428" lon="4.56621">
        <ele>508</ele>
        <time>2016-09-12T10:18:15Z</time>
      </trkpt>
      <trkpt lat="45.96431" lon="4.56619">
        <ele>508</ele>
        <time>2016-09-12T10:18:16Z</time>
      </trkpt>
      <trkpt lat="45.96437" lon="4.56613">
        <ele>508</ele>
        <time>2016-09-12T10:18:18Z</time>
      </trkpt>
      <trkpt lat="45.96439" lon="4.56611">
        <ele>508</ele>
        <time>2016-09-12T10:18:19Z</time>
      </trkpt>
      <trkpt lat="45.96444" lon="4.56606">
        <ele>509</ele>
        <time>2016-09-12T10:18:21Z</time>
      </trkpt>
      <trkpt lat="45.96447" lon="4.56604">
        <ele>508</ele>
        <time>2016-09-12T10:18:22Z</time>
      </trkpt>
      <trkpt lat="45.96452" lon="4.56599">
        <ele>508</ele>
        <time>2016-09-12T10:18:24Z</time>
      </trkpt>
      <trkpt lat="45.96454" lon="4.56597">
        <ele>508</ele>
        <time>2016-09-12T10:18:25Z</time>
      </trkpt>
      <trkpt lat="45.9646" lon="4.56591">
        <ele>508</ele>
        <time>2016-09-12T10:18:27Z</time>
      </trkpt>
      <trkpt lat="45.96462" lon="4.56589">
        <ele>508</ele>
        <time>2016-09-12T10:18:28Z</time>
      </trkpt>
      <trkpt lat="45.96467" lon="4.56583">
        <ele>517</ele>
        <time>2016-09-12T10:18:30Z</time>
      </trkpt>
      <trkpt lat="45.9647" lon="4.5658">
        <ele>517</ele>
        <time>2016-09-12T10:18:31Z</time>
      </trkpt>
      <trkpt lat="45.96475" lon="4.56574">
        <ele>517</ele>
        <time>2016-09-12T10:18:33Z</time>
      </trkpt>
      <trkpt lat="45.96477" lon="4.56572">
        <ele>516</ele>
        <time>2016-09-12T10:18:34Z</time>
      </trkpt>
      <trkpt lat="45.96483" lon="4.56567">
        <ele>516</ele>
        <time>2016-09-12T10:18:36Z</time>
      </trkpt>
      <trkpt lat="45.96485" lon="4.56564">
        <ele>517</ele>
        <time>2016-09-12T10:18:37Z</time>
      </trkpt>
      <trkpt lat="45.96491" lon="4.56559">
        <ele>517</ele>
        <time>2016-09-12T10:18:39Z</time>
      </trkpt>
      <trkpt lat="45.96494" lon="4.56556">
        <ele>517</ele>
        <time>2016-09-12T10:18:40Z</time>
      </trkpt>
      <trkpt lat="45.965" lon="4.56551">
        <ele>517</ele>
        <time>2016-09-12T10:18:42Z</time>
      </trkpt>
      <trkpt lat="45.96504" lon="4.56549">
        <ele>517</ele>
        <time>2016-09-12T10:18:43Z</time>
      </trkpt>
      <trkpt lat="45.96511" lon="4.56544">
        <ele>518</ele>
        <time>2016-09-12T10:18:45Z</time>
      </trkpt>
      <trkpt lat="45.96514" lon="4.56543">
        <ele>518</ele>
        <time>2016-09-12T10:18:46Z</time>
      </trkpt>
      <trkpt lat="45.96522" lon="4.56539">
        <ele>519</ele>
        <time>2016-09-12T10:18:49Z</time>
      </trkpt>
      <trkpt lat="45.96525" lon="4.56539">
        <ele>519</ele>
        <time>2016-09-12T10:18:50Z</time>
      </trkpt>
      <trkpt lat="45.96531" lon="4.56538">
        <ele>519</ele>
        <time>2016-09-12T10:18:52Z</time>
      </trkpt>
      <trkpt lat="45.96534" lon="4.56539">
        <ele>519</ele>
        <time>2016-09-12T10:18:53Z</time>
      </trkpt>
      <trkpt lat="45.9654" lon="4.56538">
        <ele>519</ele>
        <time>2016-09-12T10:18:55Z</time>
      </trkpt>
      <trkpt lat="45.96543" lon="4.56538">
        <ele>519</ele>
        <time>2016-09-12T10:18:56Z</time>
      </trkpt>
      <trkpt lat="45.96551" lon="4.56537">
        <ele>519</ele>
        <time>2016-09-12T10:18:58Z</time>
      </trkpt>
      <trkpt lat="45.96554" lon="4.56537">
        <ele>519</ele>
        <time>2016-09-12T10:18:59Z</time>
      </trkpt>
      <trkpt lat="45.96561" lon="4.56539">
        <ele>519</ele>
        <time>2016-09-12T10:19:01Z</time>
      </trkpt>
      <trkpt lat="45.96564" lon="4.5654">
        <ele>519</ele>
        <time>2016-09-12T10:19:02Z</time>
      </trkpt>
      <trkpt lat="45.96572" lon="4.56541">
        <ele>519</ele>
        <time>2016-09-12T10:19:05Z</time>
      </trkpt>
      <trkpt lat="45.96574" lon="4.56541">
        <ele>519</ele>
        <time>2016-09-12T10:19:06Z</time>
      </trkpt>
      <trkpt lat="45.96582" lon="4.56543">
        <ele>519</ele>
        <time>2016-09-12T10:19:09Z</time>
      </trkpt>
      <trkpt lat="45.96584" lon="4.56543">
        <ele>522</ele>
        <time>2016-09-12T10:19:10Z</time>
      </trkpt>
      <trkpt lat="45.96593" lon="4.56544">
        <ele>522</ele>
        <time>2016-09-12T10:19:13Z</time>
      </trkpt>
      <trkpt lat="45.96596" lon="4.56545">
        <ele>522</ele>
        <time>2016-09-12T10:19:14Z</time>
      </trkpt>
      <trkpt lat="45.96602" lon="4.56546">
        <ele>522</ele>
        <time>2016-09-12T10:19:16Z</time>
      </trkpt>
      <trkpt lat="45.96605" lon="4.56546">
        <ele>522</ele>
        <time>2016-09-12T10:19:17Z</time>
      </trkpt>
      <trkpt lat="45.96613" lon="4.56548">
        <ele>523</ele>
        <time>2016-09-12T10:19:20Z</time>
      </trkpt>
      <trkpt lat="45.96616" lon="4.56549">
        <ele>523</ele>
        <time>2016-09-12T10:19:21Z</time>
      </trkpt>
      <trkpt lat="45.96624" lon="4.56552">
        <ele>523</ele>
        <time>2016-09-12T10:19:24Z</time>
      </trkpt>
      <trkpt lat="45.96627" lon="4.56553">
        <ele>524</ele>
        <time>2016-09-12T10:19:25Z</time>
      </trkpt>
      <trkpt lat="45.96635" lon="4.56556">
        <ele>524</ele>
        <time>2016-09-12T10:19:28Z</time>
      </trkpt>
      <trkpt lat="45.96637" lon="4.56558">
        <ele>524</ele>
        <time>2016-09-12T10:19:29Z</time>
      </trkpt>
      <trkpt lat="45.96643" lon="4.56563">
        <ele>524</ele>
        <time>2016-09-12T10:19:31Z</time>
      </trkpt>
      <trkpt lat="45.96645" lon="4.56566">
        <ele>524</ele>
        <time>2016-09-12T10:19:32Z</time>
      </trkpt>
      <trkpt lat="45.96651" lon="4.56574">
        <ele>524</ele>
        <time>2016-09-12T10:19:35Z</time>
      </trkpt>
      <trkpt lat="45.96653" lon="4.56578">
        <ele>524</ele>
        <time>2016-09-12T10:19:36Z</time>
      </trkpt>
      <trkpt lat="45.96657" lon="4.56585">
        <ele>521</ele>
        <time>2016-09-12T10:19:38Z</time>
      </trkpt>
      <trkpt lat="45.96659" lon="4.56588">
        <ele>521</ele>
        <time>2016-09-12T10:19:39Z</time>
      </trkpt>
      <trkpt lat="45.96663" lon="4.56596">
        <ele>520</ele>
        <time>2016-09-12T10:19:41Z</time>
      </trkpt>
      <trkpt lat="45.96665" lon="4.56601">
        <ele>519</ele>
        <time>2016-09-12T10:19:42Z</time>
      </trkpt>
      <trkpt lat="45.9667" lon="4.56611">
        <ele>527</ele>
        <time>2016-09-12T10:19:45Z</time>
      </trkpt>
      <trkpt lat="45.96671" lon="4.56614">
        <ele>527</ele>
        <time>2016-09-12T10:19:46Z</time>
      </trkpt>
      <trkpt lat="45.96676" lon="4.56623">
        <ele>527</ele>
        <time>2016-09-12T10:19:49Z</time>
      </trkpt>
      <trkpt lat="45.96677" lon="4.56626">
        <ele>527</ele>
        <time>2016-09-12T10:19:50Z</time>
      </trkpt>
      <trkpt lat="45.96682" lon="4.56636">
        <ele>527</ele>
        <time>2016-09-12T10:19:53Z</time>
      </trkpt>
      <trkpt lat="45.96684" lon="4.56638">
        <ele>527</ele>
        <time>2016-09-12T10:19:54Z</time>
      </trkpt>
      <trkpt lat="45.9669" lon="4.56648">
        <ele>526</ele>
        <time>2016-09-12T10:19:57Z</time>
      </trkpt>
      <trkpt lat="45.96692" lon="4.56651">
        <ele>526</ele>
        <time>2016-09-12T10:19:58Z</time>
      </trkpt>
      <trkpt lat="45.96695" lon="4.56658">
        <ele>527</ele>
        <time>2016-09-12T10:20:00Z</time>
      </trkpt>
      <trkpt lat="45.96697" lon="4.56662">
        <ele>527</ele>
        <time>2016-09-12T10:20:01Z</time>
      </trkpt>
      <trkpt lat="45.96703" lon="4.5667">
        <ele>525</ele>
        <time>2016-09-12T10:20:04Z</time>
      </trkpt>
      <trkpt lat="45.96705" lon="4.56673">
        <ele>525</ele>
        <time>2016-09-12T10:20:05Z</time>
      </trkpt>
      <trkpt lat="45.9671" lon="4.56682">
        <ele>526</ele>
        <time>2016-09-12T10:20:08Z</time>
      </trkpt>
      <trkpt lat="45.96711" lon="4.56685">
        <ele>526</ele>
        <time>2016-09-12T10:20:09Z</time>
      </trkpt>
      <trkpt lat="45.96715" lon="4.56696">
        <ele>527</ele>
        <time>2016-09-12T10:20:12Z</time>
      </trkpt>
      <trkpt lat="45.96716" lon="4.567">
        <ele>527</ele>
        <time>2016-09-12T10:20:13Z</time>
      </trkpt>
      <trkpt lat="45.96718" lon="4.56709">
        <ele>527</ele>
        <time>2016-09-12T10:20:16Z</time>
      </trkpt>
      <trkpt lat="45.96719" lon="4.56713">
        <ele>527</ele>
        <time>2016-09-12T10:20:17Z</time>
      </trkpt>
      <trkpt lat="45.9672" lon="4.56726">
        <ele>527</ele>
        <time>2016-09-12T10:20:20Z</time>
      </trkpt>
      <trkpt lat="45.9672" lon="4.56731">
        <ele>527</ele>
        <time>2016-09-12T10:20:21Z</time>
      </trkpt>
      <trkpt lat="45.9672" lon="4.56739">
        <ele>527</ele>
        <time>2016-09-12T10:20:23Z</time>
      </trkpt>
      <trkpt lat="45.9672" lon="4.56744">
        <ele>527</ele>
        <time>2016-09-12T10:20:24Z</time>
      </trkpt>
      <trkpt lat="45.96719" lon="4.56755">
        <ele>527</ele>
        <time>2016-09-12T10:20:27Z</time>
      </trkpt>
      <trkpt lat="45.96719" lon="4.56759">
        <ele>527</ele>
        <time>2016-09-12T10:20:28Z</time>
      </trkpt>
      <trkpt lat="45.96718" lon="4.56772">
        <ele>526</ele>
        <time>2016-09-12T10:20:31Z</time>
      </trkpt>
      <trkpt lat="45.96718" lon="4.56777">
        <ele>526</ele>
        <time>2016-09-12T10:20:32Z</time>
      </trkpt>
      <trkpt lat="45.96718" lon="4.56786">
        <ele>526</ele>
        <time>2016-09-12T10:20:34Z</time>
      </trkpt>
      <trkpt lat="45.96717" lon="4.5679">
        <ele>526</ele>
        <time>2016-09-12T10:20:35Z</time>
      </trkpt>
      <trkpt lat="45.96715" lon="4.56803">
        <ele>526</ele>
        <time>2016-09-12T10:20:38Z</time>
      </trkpt>
      <trkpt lat="45.96715" lon="4.56807">
        <ele>526</ele>
        <time>2016-09-12T10:20:39Z</time>
      </trkpt>
      <trkpt lat="45.96715" lon="4.56819">
        <ele>527</ele>
        <time>2016-09-12T10:20:42Z</time>
      </trkpt>
      <trkpt lat="45.96715" lon="4.56823">
        <ele>527</ele>
        <time>2016-09-12T10:20:43Z</time>
      </trkpt>
      <trkpt lat="45.96715" lon="4.56834">
        <ele>529</ele>
        <time>2016-09-12T10:20:46Z</time>
      </trkpt>
      <trkpt lat="45.96714" lon="4.56838">
        <ele>528</ele>
        <time>2016-09-12T10:20:47Z</time>
      </trkpt>
      <trkpt lat="45.96713" lon="4.5685">
        <ele>528</ele>
        <time>2016-09-12T10:20:50Z</time>
      </trkpt>
      <trkpt lat="45.96712" lon="4.56853">
        <ele>528</ele>
        <time>2016-09-12T10:20:51Z</time>
      </trkpt>
      <trkpt lat="45.96709" lon="4.56865">
        <ele>528</ele>
        <time>2016-09-12T10:20:54Z</time>
      </trkpt>
      <trkpt lat="45.96709" lon="4.56869">
        <ele>527</ele>
        <time>2016-09-12T10:20:55Z</time>
      </trkpt>
      <trkpt lat="45.96708" lon="4.56878">
        <ele>528</ele>
        <time>2016-09-12T10:20:57Z</time>
      </trkpt>
      <trkpt lat="45.96708" lon="4.56882">
        <ele>528</ele>
        <time>2016-09-12T10:20:58Z</time>
      </trkpt>
      <trkpt lat="45.96708" lon="4.56894">
        <ele>528</ele>
        <time>2016-09-12T10:21:01Z</time>
      </trkpt>
      <trkpt lat="45.96708" lon="4.56899">
        <ele>528</ele>
        <time>2016-09-12T10:21:02Z</time>
      </trkpt>
      <trkpt lat="45.96708" lon="4.5691">
        <ele>528</ele>
        <time>2016-09-12T10:21:05Z</time>
      </trkpt>
      <trkpt lat="45.96707" lon="4.56914">
        <ele>528</ele>
        <time>2016-09-12T10:21:06Z</time>
      </trkpt>
      <trkpt lat="45.96708" lon="4.56926">
        <ele>528</ele>
        <time>2016-09-12T10:21:09Z</time>
      </trkpt>
      <trkpt lat="45.96708" lon="4.5693">
        <ele>528</ele>
        <time>2016-09-12T10:21:10Z</time>
      </trkpt>
      <trkpt lat="45.96707" lon="4.56939">
        <ele>528</ele>
        <time>2016-09-12T10:21:12Z</time>
      </trkpt>
      <trkpt lat="45.96707" lon="4.56943">
        <ele>528</ele>
        <time>2016-09-12T10:21:13Z</time>
      </trkpt>
      <trkpt lat="45.96708" lon="4.56956">
        <ele>528</ele>
        <time>2016-09-12T10:21:16Z</time>
      </trkpt>
      <trkpt lat="45.96708" lon="4.5696">
        <ele>528</ele>
        <time>2016-09-12T10:21:17Z</time>
      </trkpt>
      <trkpt lat="45.9671" lon="4.56972">
        <ele>528</ele>
        <time>2016-09-12T10:21:20Z</time>
      </trkpt>
      <trkpt lat="45.9671" lon="4.56976">
        <ele>528</ele>
        <time>2016-09-12T10:21:21Z</time>
      </trkpt>
      <trkpt lat="45.96711" lon="4.56988">
        <ele>528</ele>
        <time>2016-09-12T10:21:24Z</time>
      </trkpt>
      <trkpt lat="45.96713" lon="4.56993">
        <ele>528</ele>
        <time>2016-09-12T10:21:25Z</time>
      </trkpt>
      <trkpt lat="45.96715" lon="4.57001">
        <ele>526</ele>
        <time>2016-09-12T10:21:27Z</time>
      </trkpt>
      <trkpt lat="45.96717" lon="4.57004">
        <ele>526</ele>
        <time>2016-09-12T10:21:28Z</time>
      </trkpt>
      <trkpt lat="45.96724" lon="4.57013">
        <ele>527</ele>
        <time>2016-09-12T10:21:31Z</time>
      </trkpt>
      <trkpt lat="45.96726" lon="4.57015">
        <ele>527</ele>
        <time>2016-09-12T10:21:32Z</time>
      </trkpt>
      <trkpt lat="45.96734" lon="4.57021">
        <ele>528</ele>
        <time>2016-09-12T10:21:35Z</time>
      </trkpt>
      <trkpt lat="45.96737" lon="4.57022">
        <ele>528</ele>
        <time>2016-09-12T10:21:36Z</time>
      </trkpt>
      <trkpt lat="45.96745" lon="4.57028">
        <ele>528</ele>
        <time>2016-09-12T10:21:39Z</time>
      </trkpt>
      <trkpt lat="45.96747" lon="4.57029">
        <ele>527</ele>
        <time>2016-09-12T10:21:40Z</time>
      </trkpt>
      <trkpt lat="45.96753" lon="4.57032">
        <ele>532</ele>
        <time>2016-09-12T10:21:42Z</time>
      </trkpt>
      <trkpt lat="45.96756" lon="4.57032">
        <ele>532</ele>
        <time>2016-09-12T10:21:43Z</time>
      </trkpt>
      <trkpt lat="45.96762" lon="4.57033">
        <ele>532</ele>
        <time>2016-09-12T10:21:45Z</time>
      </trkpt>
      <trkpt lat="45.96765" lon="4.57034">
        <ele>532</ele>
        <time>2016-09-12T10:21:46Z</time>
      </trkpt>
      <trkpt lat="45.96774" lon="4.57037">
        <ele>532</ele>
        <time>2016-09-12T10:21:49Z</time>
      </trkpt>
      <trkpt lat="45.96777" lon="4.57038">
        <ele>532</ele>
        <time>2016-09-12T10:21:50Z</time>
      </trkpt>
      <trkpt lat="45.96785" lon="4.57039">
        <ele>533</ele>
        <time>2016-09-12T10:21:53Z</time>
      </trkpt>
      <trkpt lat="45.96788" lon="4.57039">
        <ele>533</ele>
        <time>2016-09-12T10:21:54Z</time>
      </trkpt>
      <trkpt lat="45.96795" lon="4.5704">
        <ele>533</ele>
        <time>2016-09-12T10:21:56Z</time>
      </trkpt>
      <trkpt lat="45.96798" lon="4.5704">
        <ele>533</ele>
        <time>2016-09-12T10:21:57Z</time>
      </trkpt>
      <trkpt lat="45.96807" lon="4.57038">
        <ele>533</ele>
        <time>2016-09-12T10:22:00Z</time>
      </trkpt>
      <trkpt lat="45.96809" lon="4.57037">
        <ele>534</ele>
        <time>2016-09-12T10:22:01Z</time>
      </trkpt>
      <trkpt lat="45.96815" lon="4.57033">
        <ele>534</ele>
        <time>2016-09-12T10:22:03Z</time>
      </trkpt>
      <trkpt lat="45.96818" lon="4.57031">
        <ele>534</ele>
        <time>2016-09-12T10:22:04Z</time>
      </trkpt>
      <trkpt lat="45.96825" lon="4.57025">
        <ele>535</ele>
        <time>2016-09-12T10:22:07Z</time>
      </trkpt>
      <trkpt lat="45.96828" lon="4.57022">
        <ele>535</ele>
        <time>2016-09-12T10:22:08Z</time>
      </trkpt>
      <trkpt lat="45.96835" lon="4.57014">
        <ele>536</ele>
        <time>2016-09-12T10:22:11Z</time>
      </trkpt>
      <trkpt lat="45.96837" lon="4.57011">
        <ele>536</ele>
        <time>2016-09-12T10:22:12Z</time>
      </trkpt>
      <trkpt lat="45.96842" lon="4.57006">
        <ele>536</ele>
        <time>2016-09-12T10:22:14Z</time>
      </trkpt>
      <trkpt lat="45.96844" lon="4.57002">
        <ele>536</ele>
        <time>2016-09-12T10:22:15Z</time>
      </trkpt>
      <trkpt lat="45.96849" lon="4.56993">
        <ele>537</ele>
        <time>2016-09-12T10:22:18Z</time>
      </trkpt>
      <trkpt lat="45.96851" lon="4.56989">
        <ele>536</ele>
        <time>2016-09-12T10:22:19Z</time>
      </trkpt>
      <trkpt lat="45.96855" lon="4.56982">
        <ele>536</ele>
        <time>2016-09-12T10:22:21Z</time>
      </trkpt>
      <trkpt lat="45.96857" lon="4.56978">
        <ele>536</ele>
        <time>2016-09-12T10:22:22Z</time>
      </trkpt>
      <trkpt lat="45.96861" lon="4.56971">
        <ele>536</ele>
        <time>2016-09-12T10:22:24Z</time>
      </trkpt>
      <trkpt lat="45.96863" lon="4.56967">
        <ele>536</ele>
        <time>2016-09-12T10:22:25Z</time>
      </trkpt>
      <trkpt lat="45.96867" lon="4.5696">
        <ele>536</ele>
        <time>2016-09-12T10:22:27Z</time>
      </trkpt>
      <trkpt lat="45.96869" lon="4.56956">
        <ele>536</ele>
        <time>2016-09-12T10:22:28Z</time>
      </trkpt>
      <trkpt lat="45.96873" lon="4.56949">
        <ele>536</ele>
        <time>2016-09-12T10:22:30Z</time>
      </trkpt>
      <trkpt lat="45.96875" lon="4.56946">
        <ele>535</ele>
        <time>2016-09-12T10:22:31Z</time>
      </trkpt>
      <trkpt lat="45.9688" lon="4.56936">
        <ele>535</ele>
        <time>2016-09-12T10:22:34Z</time>
      </trkpt>
      <trkpt lat="45.96882" lon="4.56933">
        <ele>535</ele>
        <time>2016-09-12T10:22:35Z</time>
      </trkpt>
      <trkpt lat="45.96887" lon="4.56924">
        <ele>535</ele>
        <time>2016-09-12T10:22:38Z</time>
      </trkpt>
      <trkpt lat="45.96889" lon="4.5692">
        <ele>535</ele>
        <time>2016-09-12T10:22:39Z</time>
      </trkpt>
      <trkpt lat="45.96892" lon="4.56913">
        <ele>537</ele>
        <time>2016-09-12T10:22:41Z</time>
      </trkpt>
      <trkpt lat="45.96894" lon="4.56909">
        <ele>537</ele>
        <time>2016-09-12T10:22:42Z</time>
      </trkpt>
      <trkpt lat="45.96899" lon="4.56902">
        <ele>537</ele>
        <time>2016-09-12T10:22:44Z</time>
      </trkpt>
      <trkpt lat="45.96901" lon="4.56899">
        <ele>537</ele>
        <time>2016-09-12T10:22:45Z</time>
      </trkpt>
      <trkpt lat="45.96905" lon="4.56891">
        <ele>538</ele>
        <time>2016-09-12T10:22:47Z</time>
      </trkpt>
      <trkpt lat="45.96908" lon="4.56887">
        <ele>538</ele>
        <time>2016-09-12T10:22:48Z</time>
      </trkpt>
      <trkpt lat="45.96912" lon="4.56878">
        <ele>539</ele>
        <time>2016-09-12T10:22:50Z</time>
      </trkpt>
      <trkpt lat="45.96915" lon="4.56875">
        <ele>539</ele>
        <time>2016-09-12T10:22:51Z</time>
      </trkpt>
      <trkpt lat="45.96919" lon="4.56867">
        <ele>536</ele>
        <time>2016-09-12T10:22:53Z</time>
      </trkpt>
      <trkpt lat="45.96922" lon="4.56862">
        <ele>536</ele>
        <time>2016-09-12T10:22:54Z</time>
      </trkpt>
      <trkpt lat="45.96927" lon="4.56855">
        <ele>537</ele>
        <time>2016-09-12T10:22:56Z</time>
      </trkpt>
      <trkpt lat="45.96929" lon="4.56851">
        <ele>537</ele>
        <time>2016-09-12T10:22:57Z</time>
      </trkpt>
      <trkpt lat="45.96934" lon="4.56844">
        <ele>538</ele>
        <time>2016-09-12T10:22:59Z</time>
      </trkpt>
      <trkpt lat="45.96936" lon="4.5684">
        <ele>538</ele>
        <time>2016-09-12T10:23:00Z</time>
      </trkpt>
      <trkpt lat="45.96941" lon="4.56833">
        <ele>542</ele>
        <time>2016-09-12T10:23:02Z</time>
      </trkpt>
      <trkpt lat="45.96944" lon="4.5683">
        <ele>542</ele>
        <time>2016-09-12T10:23:03Z</time>
      </trkpt>
      <trkpt lat="45.96949" lon="4.56823">
        <ele>542</ele>
        <time>2016-09-12T10:23:05Z</time>
      </trkpt>
      <trkpt lat="45.96951" lon="4.56819">
        <ele>542</ele>
        <time>2016-09-12T10:23:06Z</time>
      </trkpt>
      <trkpt lat="45.96957" lon="4.56812">
        <ele>542</ele>
        <time>2016-09-12T10:23:08Z</time>
      </trkpt>
      <trkpt lat="45.9696" lon="4.56809">
        <ele>542</ele>
        <time>2016-09-12T10:23:09Z</time>
      </trkpt>
      <trkpt lat="45.96966" lon="4.56802">
        <ele>542</ele>
        <time>2016-09-12T10:23:11Z</time>
      </trkpt>
      <trkpt lat="45.96969" lon="4.56799">
        <ele>542</ele>
        <time>2016-09-12T10:23:12Z</time>
      </trkpt>
      <trkpt lat="45.96976" lon="4.56793">
        <ele>542</ele>
        <time>2016-09-12T10:23:14Z</time>
      </trkpt>
      <trkpt lat="45.96979" lon="4.56791">
        <ele>542</ele>
        <time>2016-09-12T10:23:15Z</time>
      </trkpt>
      <trkpt lat="45.96985" lon="4.56785">
        <ele>542</ele>
        <time>2016-09-12T10:23:17Z</time>
      </trkpt>
      <trkpt lat="45.96987" lon="4.56783">
        <ele>542</ele>
        <time>2016-09-12T10:23:18Z</time>
      </trkpt>
      <trkpt lat="45.96993" lon="4.56779">
        <ele>542</ele>
        <time>2016-09-12T10:23:20Z</time>
      </trkpt>
      <trkpt lat="45.96996" lon="4.56777">
        <ele>543</ele>
        <time>2016-09-12T10:23:21Z</time>
      </trkpt>
      <trkpt lat="45.97001" lon="4.56771">
        <ele>543</ele>
        <time>2016-09-12T10:23:23Z</time>
      </trkpt>
      <trkpt lat="45.97004" lon="4.56769">
        <ele>543</ele>
        <time>2016-09-12T10:23:24Z</time>
      </trkpt>
      <trkpt lat="45.9701" lon="4.56764">
        <ele>543</ele>
        <time>2016-09-12T10:23:26Z</time>
      </trkpt>
      <trkpt lat="45.97013" lon="4.56762">
        <ele>543</ele>
        <time>2016-09-12T10:23:27Z</time>
      </trkpt>
      <trkpt lat="45.9702" lon="4.56758">
        <ele>544</ele>
        <time>2016-09-12T10:23:29Z</time>
      </trkpt>
      <trkpt lat="45.97024" lon="4.56756">
        <ele>544</ele>
        <time>2016-09-12T10:23:30Z</time>
      </trkpt>
      <trkpt lat="45.97032" lon="4.56752">
        <ele>544</ele>
        <time>2016-09-12T10:23:32Z</time>
      </trkpt>
      <trkpt lat="45.97036" lon="4.56751">
        <ele>544</ele>
        <time>2016-09-12T10:23:33Z</time>
      </trkpt>
      <trkpt lat="45.97044" lon="4.56749">
        <ele>547</ele>
        <time>2016-09-12T10:23:35Z</time>
      </trkpt>
      <trkpt lat="45.97047" lon="4.56751">
        <ele>544</ele>
        <time>2016-09-12T10:23:36Z</time>
      </trkpt>
      <trkpt lat="45.97053" lon="4.56755">
        <ele>544</ele>
        <time>2016-09-12T10:23:38Z</time>
      </trkpt>
      <trkpt lat="45.97056" lon="4.56758">
        <ele>544</ele>
        <time>2016-09-12T10:23:39Z</time>
      </trkpt>
      <trkpt lat="45.97061" lon="4.56767">
        <ele>544</ele>
        <time>2016-09-12T10:23:41Z</time>
      </trkpt>
      <trkpt lat="45.97063" lon="4.56771">
        <ele>544</ele>
        <time>2016-09-12T10:23:42Z</time>
      </trkpt>
      <trkpt lat="45.97066" lon="4.56782">
        <ele>544</ele>
        <time>2016-09-12T10:23:44Z</time>
      </trkpt>
      <trkpt lat="45.97067" lon="4.56787">
        <ele>544</ele>
        <time>2016-09-12T10:23:45Z</time>
      </trkpt>
      <trkpt lat="45.97069" lon="4.56797">
        <ele>544</ele>
        <time>2016-09-12T10:23:47Z</time>
      </trkpt>
      <trkpt lat="45.9707" lon="4.56802">
        <ele>544</ele>
        <time>2016-09-12T10:23:48Z</time>
      </trkpt>
      <trkpt lat="45.97072" lon="4.56815">
        <ele>544</ele>
        <time>2016-09-12T10:23:51Z</time>
      </trkpt>
      <trkpt lat="45.97073" lon="4.56819">
        <ele>544</ele>
        <time>2016-09-12T10:23:52Z</time>
      </trkpt>
      <trkpt lat="45.97075" lon="4.56828">
        <ele>545</ele>
        <time>2016-09-12T10:23:54Z</time>
      </trkpt>
      <trkpt lat="45.97077" lon="4.56833">
        <ele>545</ele>
        <time>2016-09-12T10:23:55Z</time>
      </trkpt>
      <trkpt lat="45.97082" lon="4.56844">
        <ele>543</ele>
        <time>2016-09-12T10:23:57Z</time>
      </trkpt>
      <trkpt lat="45.97084" lon="4.56849">
        <ele>547</ele>
        <time>2016-09-12T10:23:58Z</time>
      </trkpt>
      <trkpt lat="45.97088" lon="4.56859">
        <ele>547</ele>
        <time>2016-09-12T10:24:00Z</time>
      </trkpt>
      <trkpt lat="45.9709" lon="4.56864">
        <ele>548</ele>
        <time>2016-09-12T10:24:01Z</time>
      </trkpt>
      <trkpt lat="45.97093" lon="4.56875">
        <ele>547</ele>
        <time>2016-09-12T10:24:03Z</time>
      </trkpt>
      <trkpt lat="45.97094" lon="4.5688">
        <ele>547</ele>
        <time>2016-09-12T10:24:04Z</time>
      </trkpt>
      <trkpt lat="45.97096" lon="4.56893">
        <ele>546</ele>
        <time>2016-09-12T10:24:06Z</time>
      </trkpt>
      <trkpt lat="45.97093" lon="4.569">
        <ele>545</ele>
        <time>2016-09-12T10:24:07Z</time>
      </trkpt>
      <trkpt lat="45.97097" lon="4.56911">
        <ele>545</ele>
        <time>2016-09-12T10:24:09Z</time>
      </trkpt>
      <trkpt lat="45.97099" lon="4.56917">
        <ele>545</ele>
        <time>2016-09-12T10:24:10Z</time>
      </trkpt>
      <trkpt lat="45.97102" lon="4.56928">
        <ele>542</ele>
        <time>2016-09-12T10:24:12Z</time>
      </trkpt>
      <trkpt lat="45.97104" lon="4.56935">
        <ele>542</ele>
        <time>2016-09-12T10:24:13Z</time>
      </trkpt>
      <trkpt lat="45.97106" lon="4.56942">
        <ele>542</ele>
        <time>2016-09-12T10:24:14Z</time>
      </trkpt>
      <trkpt lat="45.97108" lon="4.56949">
        <ele>542</ele>
        <time>2016-09-12T10:24:15Z</time>
      </trkpt>
      <trkpt lat="45.9711" lon="4.56956">
        <ele>542</ele>
        <time>2016-09-12T10:24:16Z</time>
      </trkpt>
      <trkpt lat="45.97112" lon="4.56964">
        <ele>541</ele>
        <time>2016-09-12T10:24:17Z</time>
      </trkpt>
      <trkpt lat="45.97114" lon="4.56971">
        <ele>541</ele>
        <time>2016-09-12T10:24:18Z</time>
      </trkpt>
      <trkpt lat="45.97116" lon="4.56978">
        <ele>541</ele>
        <time>2016-09-12T10:24:19Z</time>
      </trkpt>
      <trkpt lat="45.97118" lon="4.56985">
        <ele>540</ele>
        <time>2016-09-12T10:24:20Z</time>
      </trkpt>
      <trkpt lat="45.97121" lon="4.56991">
        <ele>540</ele>
        <time>2016-09-12T10:24:21Z</time>
      </trkpt>
      <trkpt lat="45.97126" lon="4.57">
        <ele>534</ele>
        <time>2016-09-12T10:24:23Z</time>
      </trkpt>
      <trkpt lat="45.9713" lon="4.57004">
        <ele>534</ele>
        <time>2016-09-12T10:24:24Z</time>
      </trkpt>
      <trkpt lat="45.97133" lon="4.57008">
        <ele>534</ele>
        <time>2016-09-12T10:24:25Z</time>
      </trkpt>
      <trkpt lat="45.97137" lon="4.57011">
        <ele>535</ele>
        <time>2016-09-12T10:24:26Z</time>
      </trkpt>
      <trkpt lat="45.97141" lon="4.57014">
        <ele>535</ele>
        <time>2016-09-12T10:24:27Z</time>
      </trkpt>
      <trkpt lat="45.97146" lon="4.57016">
        <ele>535</ele>
        <time>2016-09-12T10:24:28Z</time>
      </trkpt>
      <trkpt lat="45.97154" lon="4.57018">
        <ele>536</ele>
        <time>2016-09-12T10:24:30Z</time>
      </trkpt>
      <trkpt lat="45.97158" lon="4.5702">
        <ele>536</ele>
        <time>2016-09-12T10:24:31Z</time>
      </trkpt>
      <trkpt lat="45.97167" lon="4.57021">
        <ele>537</ele>
        <time>2016-09-12T10:24:33Z</time>
      </trkpt>
      <trkpt lat="45.97171" lon="4.57021">
        <ele>537</ele>
        <time>2016-09-12T10:24:34Z</time>
      </trkpt>
      <trkpt lat="45.9718" lon="4.57021">
        <ele>536</ele>
        <time>2016-09-12T10:24:36Z</time>
      </trkpt>
      <trkpt lat="45.97184" lon="4.57021">
        <ele>535</ele>
        <time>2016-09-12T10:24:37Z</time>
      </trkpt>
      <trkpt lat="45.97193" lon="4.5702">
        <ele>535</ele>
        <time>2016-09-12T10:24:39Z</time>
      </trkpt>
      <trkpt lat="45.97197" lon="4.57019">
        <ele>534</ele>
        <time>2016-09-12T10:24:40Z</time>
      </trkpt>
      <trkpt lat="45.97206" lon="4.57016">
        <ele>534</ele>
        <time>2016-09-12T10:24:42Z</time>
      </trkpt>
      <trkpt lat="45.9721" lon="4.57014">
        <ele>534</ele>
        <time>2016-09-12T10:24:43Z</time>
      </trkpt>
      <trkpt lat="45.97215" lon="4.57012">
        <ele>534</ele>
        <time>2016-09-12T10:24:44Z</time>
      </trkpt>
      <trkpt lat="45.9722" lon="4.57009">
        <ele>534</ele>
        <time>2016-09-12T10:24:45Z</time>
      </trkpt>
      <trkpt lat="45.97225" lon="4.57006">
        <ele>534</ele>
        <time>2016-09-12T10:24:46Z</time>
      </trkpt>
      <trkpt lat="45.9723" lon="4.57002">
        <ele>535</ele>
        <time>2016-09-12T10:24:47Z</time>
      </trkpt>
      <trkpt lat="45.97235" lon="4.56998">
        <ele>543</ele>
        <time>2016-09-12T10:24:48Z</time>
      </trkpt>
      <trkpt lat="45.9724" lon="4.56993">
        <ele>543</ele>
        <time>2016-09-12T10:24:49Z</time>
      </trkpt>
      <trkpt lat="45.97245" lon="4.56989">
        <ele>543</ele>
        <time>2016-09-12T10:24:50Z</time>
      </trkpt>
      <trkpt lat="45.9725" lon="4.56985">
        <ele>541</ele>
        <time>2016-09-12T10:24:51Z</time>
      </trkpt>
      <trkpt lat="45.97255" lon="4.5698">
        <ele>541</ele>
        <time>2016-09-12T10:24:52Z</time>
      </trkpt>
      <trkpt lat="45.97261" lon="4.56976">
        <ele>542</ele>
        <time>2016-09-12T10:24:53Z</time>
      </trkpt>
      <trkpt lat="45.97266" lon="4.56972">
        <ele>542</ele>
        <time>2016-09-12T10:24:54Z</time>
      </trkpt>
      <trkpt lat="45.97271" lon="4.56968">
        <ele>542</ele>
        <time>2016-09-12T10:24:55Z</time>
      </trkpt>
      <trkpt lat="45.97276" lon="4.56963">
        <ele>542</ele>
        <time>2016-09-12T10:24:56Z</time>
      </trkpt>
      <trkpt lat="45.97281" lon="4.56959">
        <ele>543</ele>
        <time>2016-09-12T10:24:57Z</time>
      </trkpt>
      <trkpt lat="45.97286" lon="4.56955">
        <ele>543</ele>
        <time>2016-09-12T10:24:58Z</time>
      </trkpt>
      <trkpt lat="45.97291" lon="4.56952">
        <ele>543</ele>
        <time>2016-09-12T10:24:59Z</time>
      </trkpt>
      <trkpt lat="45.97296" lon="4.56949">
        <ele>543</ele>
        <time>2016-09-12T10:25:00Z</time>
      </trkpt>
      <trkpt lat="45.97301" lon="4.56946">
        <ele>543</ele>
        <time>2016-09-12T10:25:01Z</time>
      </trkpt>
      <trkpt lat="45.97306" lon="4.56944">
        <ele>543</ele>
        <time>2016-09-12T10:25:02Z</time>
      </trkpt>
      <trkpt lat="45.97311" lon="4.56942">
        <ele>543</ele>
        <time>2016-09-12T10:25:03Z</time>
      </trkpt>
      <trkpt lat="45.97316" lon="4.56939">
        <ele>544</ele>
        <time>2016-09-12T10:25:04Z</time>
      </trkpt>
      <trkpt lat="45.97321" lon="4.56938">
        <ele>544</ele>
        <time>2016-09-12T10:25:05Z</time>
      </trkpt>
      <trkpt lat="45.97326" lon="4.56937">
        <ele>544</ele>
        <time>2016-09-12T10:25:06Z</time>
      </trkpt>
      <trkpt lat="45.97331" lon="4.56936">
        <ele>545</ele>
        <time>2016-09-12T10:25:07Z</time>
      </trkpt>
      <trkpt lat="45.97337" lon="4.56934">
        <ele>541</ele>
        <time>2016-09-12T10:25:08Z</time>
      </trkpt>
      <trkpt lat="45.97342" lon="4.56933">
        <ele>541</ele>
        <time>2016-09-12T10:25:09Z</time>
      </trkpt>
      <trkpt lat="45.97347" lon="4.56932">
        <ele>541</ele>
        <time>2016-09-12T10:25:10Z</time>
      </trkpt>
      <trkpt lat="45.97353" lon="4.56931">
        <ele>540</ele>
        <time>2016-09-12T10:25:11Z</time>
      </trkpt>
      <trkpt lat="45.97358" lon="4.5693">
        <ele>540</ele>
        <time>2016-09-12T10:25:12Z</time>
      </trkpt>
      <trkpt lat="45.97363" lon="4.5693">
        <ele>539</ele>
        <time>2016-09-12T10:25:13Z</time>
      </trkpt>
      <trkpt lat="45.97368" lon="4.56929">
        <ele>539</ele>
        <time>2016-09-12T10:25:14Z</time>
      </trkpt>
      <trkpt lat="45.97372" lon="4.56927">
        <ele>538</ele>
        <time>2016-09-12T10:25:15Z</time>
      </trkpt>
      <trkpt lat="45.97377" lon="4.56926">
        <ele>538</ele>
        <time>2016-09-12T10:25:16Z</time>
      </trkpt>
      <trkpt lat="45.97383" lon="4.56926">
        <ele>538</ele>
        <time>2016-09-12T10:25:17Z</time>
      </trkpt>
      <trkpt lat="45.97388" lon="4.56925">
        <ele>539</ele>
        <time>2016-09-12T10:25:18Z</time>
      </trkpt>
      <trkpt lat="45.97394" lon="4.56924">
        <ele>539</ele>
        <time>2016-09-12T10:25:19Z</time>
      </trkpt>
      <trkpt lat="45.97399" lon="4.56923">
        <ele>539</ele>
        <time>2016-09-12T10:25:20Z</time>
      </trkpt>
      <trkpt lat="45.97406" lon="4.56923">
        <ele>540</ele>
        <time>2016-09-12T10:25:21Z</time>
      </trkpt>
      <trkpt lat="45.97412" lon="4.56922">
        <ele>542</ele>
        <time>2016-09-12T10:25:22Z</time>
      </trkpt>
      <trkpt lat="45.97418" lon="4.56922">
        <ele>542</ele>
        <time>2016-09-12T10:25:23Z</time>
      </trkpt>
      <trkpt lat="45.97424" lon="4.56922">
        <ele>541</ele>
        <time>2016-09-12T10:25:24Z</time>
      </trkpt>
      <trkpt lat="45.9743" lon="4.56922">
        <ele>539</ele>
        <time>2016-09-12T10:25:25Z</time>
      </trkpt>
      <trkpt lat="45.97436" lon="4.56923">
        <ele>538</ele>
        <time>2016-09-12T10:25:26Z</time>
      </trkpt>
      <trkpt lat="45.97441" lon="4.56925">
        <ele>538</ele>
        <time>2016-09-12T10:25:27Z</time>
      </trkpt>
      <trkpt lat="45.97446" lon="4.56925">
        <ele>537</ele>
        <time>2016-09-12T10:25:28Z</time>
      </trkpt>
      <trkpt lat="45.97451" lon="4.56924">
        <ele>537</ele>
        <time>2016-09-12T10:25:29Z</time>
      </trkpt>
      <trkpt lat="45.97456" lon="4.56924">
        <ele>537</ele>
        <time>2016-09-12T10:25:30Z</time>
      </trkpt>
      <trkpt lat="45.97461" lon="4.56923">
        <ele>537</ele>
        <time>2016-09-12T10:25:31Z</time>
      </trkpt>
      <trkpt lat="45.97466" lon="4.56923">
        <ele>537</ele>
        <time>2016-09-12T10:25:32Z</time>
      </trkpt>
      <trkpt lat="45.9747" lon="4.56921">
        <ele>537</ele>
        <time>2016-09-12T10:25:33Z</time>
      </trkpt>
      <trkpt lat="45.97475" lon="4.5692">
        <ele>537</ele>
        <time>2016-09-12T10:25:34Z</time>
      </trkpt>
      <trkpt lat="45.9748" lon="4.56919">
        <ele>538</ele>
        <time>2016-09-12T10:25:35Z</time>
      </trkpt>
      <trkpt lat="45.97486" lon="4.56918">
        <ele>538</ele>
        <time>2016-09-12T10:25:36Z</time>
      </trkpt>
      <trkpt lat="45.97492" lon="4.56918">
        <ele>539</ele>
        <time>2016-09-12T10:25:37Z</time>
      </trkpt>
      <trkpt lat="45.97498" lon="4.56919">
        <ele>540</ele>
        <time>2016-09-12T10:25:38Z</time>
      </trkpt>
      <trkpt lat="45.97504" lon="4.5692">
        <ele>540</ele>
        <time>2016-09-12T10:25:39Z</time>
      </trkpt>
      <trkpt lat="45.9751" lon="4.56922">
        <ele>540</ele>
        <time>2016-09-12T10:25:40Z</time>
      </trkpt>
      <trkpt lat="45.97515" lon="4.56925">
        <ele>540</ele>
        <time>2016-09-12T10:25:41Z</time>
      </trkpt>
      <trkpt lat="45.97521" lon="4.56927">
        <ele>539</ele>
        <time>2016-09-12T10:25:42Z</time>
      </trkpt>
      <trkpt lat="45.97526" lon="4.5693">
        <ele>539</ele>
        <time>2016-09-12T10:25:43Z</time>
      </trkpt>
      <trkpt lat="45.97531" lon="4.56933">
        <ele>539</ele>
        <time>2016-09-12T10:25:44Z</time>
      </trkpt>
      <trkpt lat="45.97537" lon="4.56936">
        <ele>539</ele>
        <time>2016-09-12T10:25:45Z</time>
      </trkpt>
      <trkpt lat="45.97542" lon="4.56939">
        <ele>539</ele>
        <time>2016-09-12T10:25:46Z</time>
      </trkpt>
      <trkpt lat="45.97547" lon="4.56942">
        <ele>539</ele>
        <time>2016-09-12T10:25:47Z</time>
      </trkpt>
      <trkpt lat="45.97553" lon="4.56945">
        <ele>539</ele>
        <time>2016-09-12T10:25:48Z</time>
      </trkpt>
      <trkpt lat="45.97558" lon="4.56947">
        <ele>539</ele>
        <time>2016-09-12T10:25:49Z</time>
      </trkpt>
      <trkpt lat="45.97563" lon="4.5695">
        <ele>539</ele>
        <time>2016-09-12T10:25:50Z</time>
      </trkpt>
      <trkpt lat="45.97569" lon="4.56952">
        <ele>539</ele>
        <time>2016-09-12T10:25:51Z</time>
      </trkpt>
      <trkpt lat="45.97574" lon="4.56952">
        <ele>540</ele>
        <time>2016-09-12T10:25:52Z</time>
      </trkpt>
      <trkpt lat="45.9758" lon="4.56954">
        <ele>539</ele>
        <time>2016-09-12T10:25:53Z</time>
      </trkpt>
      <trkpt lat="45.97585" lon="4.56955">
        <ele>546</ele>
        <time>2016-09-12T10:25:54Z</time>
      </trkpt>
      <trkpt lat="45.9759" lon="4.56956">
        <ele>546</ele>
        <time>2016-09-12T10:25:55Z</time>
      </trkpt>
      <trkpt lat="45.97596" lon="4.56957">
        <ele>546</ele>
        <time>2016-09-12T10:25:56Z</time>
      </trkpt>
      <trkpt lat="45.97603" lon="4.56959">
        <ele>546</ele>
        <time>2016-09-12T10:25:57Z</time>
      </trkpt>
      <trkpt lat="45.97609" lon="4.5696">
        <ele>547</ele>
        <time>2016-09-12T10:25:58Z</time>
      </trkpt>
      <trkpt lat="45.97616" lon="4.56962">
        <ele>547</ele>
        <time>2016-09-12T10:25:59Z</time>
      </trkpt>
      <trkpt lat="45.97622" lon="4.56965">
        <ele>547</ele>
        <time>2016-09-12T10:26:00Z</time>
      </trkpt>
      <trkpt lat="45.97627" lon="4.5697">
        <ele>548</ele>
        <time>2016-09-12T10:26:01Z</time>
      </trkpt>
      <trkpt lat="45.97631" lon="4.56978">
        <ele>548</ele>
        <time>2016-09-12T10:26:02Z</time>
      </trkpt>
      <trkpt lat="45.97633" lon="4.56987">
        <ele>547</ele>
        <time>2016-09-12T10:26:03Z</time>
      </trkpt>
      <trkpt lat="45.97633" lon="4.56995">
        <ele>547</ele>
        <time>2016-09-12T10:26:04Z</time>
      </trkpt>
      <trkpt lat="45.97631" lon="4.57001">
        <ele>549</ele>
        <time>2016-09-12T10:26:05Z</time>
      </trkpt>
      <trkpt lat="45.97629" lon="4.57007">
        <ele>549</ele>
        <time>2016-09-12T10:26:06Z</time>
      </trkpt>
      <trkpt lat="45.97626" lon="4.57013">
        <ele>549</ele>
        <time>2016-09-12T10:26:07Z</time>
      </trkpt>
      <trkpt lat="45.97623" lon="4.57017">
        <ele>549</ele>
        <time>2016-09-12T10:26:08Z</time>
      </trkpt>
      <trkpt lat="45.97619" lon="4.57021">
        <ele>548</ele>
        <time>2016-09-12T10:26:09Z</time>
      </trkpt>
      <trkpt lat="45.97615" lon="4.57026">
        <ele>548</ele>
        <time>2016-09-12T10:26:10Z</time>
      </trkpt>
      <trkpt lat="45.97611" lon="4.5703">
        <ele>548</ele>
        <time>2016-09-12T10:26:11Z</time>
      </trkpt>
      <trkpt lat="45.97607" lon="4.57034">
        <ele>548</ele>
        <time>2016-09-12T10:26:12Z</time>
      </trkpt>
      <trkpt lat="45.97602" lon="4.57038">
        <ele>548</ele>
        <time>2016-09-12T10:26:13Z</time>
      </trkpt>
      <trkpt lat="45.97597" lon="4.57041">
        <ele>548</ele>
        <time>2016-09-12T10:26:14Z</time>
      </trkpt>
      <trkpt lat="45.97591" lon="4.57045">
        <ele>548</ele>
        <time>2016-09-12T10:26:15Z</time>
      </trkpt>
      <trkpt lat="45.97586" lon="4.5705">
        <ele>549</ele>
        <time>2016-09-12T10:26:16Z</time>
      </trkpt>
      <trkpt lat="45.9758" lon="4.57054">
        <ele>540</ele>
        <time>2016-09-12T10:26:17Z</time>
      </trkpt>
      <trkpt lat="45.97575" lon="4.57058">
        <ele>540</ele>
        <time>2016-09-12T10:26:18Z</time>
      </trkpt>
      <trkpt lat="45.97571" lon="4.5706">
        <ele>540</ele>
        <time>2016-09-12T10:26:19Z</time>
      </trkpt>
      <trkpt lat="45.97566" lon="4.57063">
        <ele>540</ele>
        <time>2016-09-12T10:26:20Z</time>
      </trkpt>
      <trkpt lat="45.97562" lon="4.57066">
        <ele>540</ele>
        <time>2016-09-12T10:26:21Z</time>
      </trkpt>
      <trkpt lat="45.97558" lon="4.5707">
        <ele>540</ele>
        <time>2016-09-12T10:26:22Z</time>
      </trkpt>
      <trkpt lat="45.97553" lon="4.57074">
        <ele>539</ele>
        <time>2016-09-12T10:26:23Z</time>
      </trkpt>
      <trkpt lat="45.97549" lon="4.57077">
        <ele>539</ele>
        <time>2016-09-12T10:26:24Z</time>
      </trkpt>
      <trkpt lat="45.97545" lon="4.5708">
        <ele>538</ele>
        <time>2016-09-12T10:26:25Z</time>
      </trkpt>
      <trkpt lat="45.97537" lon="4.57086">
        <ele>545</ele>
        <time>2016-09-12T10:26:27Z</time>
      </trkpt>
      <trkpt lat="45.97533" lon="4.5709">
        <ele>544</ele>
        <time>2016-09-12T10:26:28Z</time>
      </trkpt>
      <trkpt lat="45.9753" lon="4.57094">
        <ele>544</ele>
        <time>2016-09-12T10:26:29Z</time>
      </trkpt>
      <trkpt lat="45.97526" lon="4.57099">
        <ele>544</ele>
        <time>2016-09-12T10:26:30Z</time>
      </trkpt>
      <trkpt lat="45.97523" lon="4.57103">
        <ele>543</ele>
        <time>2016-09-12T10:26:31Z</time>
      </trkpt>
      <trkpt lat="45.97519" lon="4.57108">
        <ele>543</ele>
        <time>2016-09-12T10:26:32Z</time>
      </trkpt>
      <trkpt lat="45.97512" lon="4.57116">
        <ele>544</ele>
        <time>2016-09-12T10:26:34Z</time>
      </trkpt>
      <trkpt lat="45.97509" lon="4.5712">
        <ele>545</ele>
        <time>2016-09-12T10:26:35Z</time>
      </trkpt>
      <trkpt lat="45.97504" lon="4.57128">
        <ele>545</ele>
        <time>2016-09-12T10:26:37Z</time>
      </trkpt>
      <trkpt lat="45.97501" lon="4.57131">
        <ele>545</ele>
        <time>2016-09-12T10:26:38Z</time>
      </trkpt>
      <trkpt lat="45.97497" lon="4.57139">
        <ele>535</ele>
        <time>2016-09-12T10:26:40Z</time>
      </trkpt>
      <trkpt lat="45.97494" lon="4.57143">
        <ele>536</ele>
        <time>2016-09-12T10:26:41Z</time>
      </trkpt>
      <trkpt lat="45.97489" lon="4.57151">
        <ele>537</ele>
        <time>2016-09-12T10:26:43Z</time>
      </trkpt>
      <trkpt lat="45.97487" lon="4.57155">
        <ele>538</ele>
        <time>2016-09-12T10:26:44Z</time>
      </trkpt>
      <trkpt lat="45.97482" lon="4.57163">
        <ele>537</ele>
        <time>2016-09-12T10:26:46Z</time>
      </trkpt>
      <trkpt lat="45.9748" lon="4.57168">
        <ele>543</ele>
        <time>2016-09-12T10:26:47Z</time>
      </trkpt>
      <trkpt lat="45.97475" lon="4.57177">
        <ele>542</ele>
        <time>2016-09-12T10:26:49Z</time>
      </trkpt>
      <trkpt lat="45.97473" lon="4.57181">
        <ele>542</ele>
        <time>2016-09-12T10:26:50Z</time>
      </trkpt>
      <trkpt lat="45.97469" lon="4.57191">
        <ele>541</ele>
        <time>2016-09-12T10:26:52Z</time>
      </trkpt>
      <trkpt lat="45.97467" lon="4.57195">
        <ele>541</ele>
        <time>2016-09-12T10:26:53Z</time>
      </trkpt>
      <trkpt lat="45.97462" lon="4.57203">
        <ele>541</ele>
        <time>2016-09-12T10:26:55Z</time>
      </trkpt>
      <trkpt lat="45.9746" lon="4.57208">
        <ele>541</ele>
        <time>2016-09-12T10:26:56Z</time>
      </trkpt>
      <trkpt lat="45.97455" lon="4.57216">
        <ele>541</ele>
        <time>2016-09-12T10:26:58Z</time>
      </trkpt>
      <trkpt lat="45.97453" lon="4.57221">
        <ele>541</ele>
        <time>2016-09-12T10:26:59Z</time>
      </trkpt>
      <trkpt lat="45.9745" lon="4.57229">
        <ele>542</ele>
        <time>2016-09-12T10:27:01Z</time>
      </trkpt>
      <trkpt lat="45.97448" lon="4.57234">
        <ele>541</ele>
        <time>2016-09-12T10:27:02Z</time>
      </trkpt>
      <trkpt lat="45.97444" lon="4.57243">
        <ele>541</ele>
        <time>2016-09-12T10:27:04Z</time>
      </trkpt>
      <trkpt lat="45.97442" lon="4.57247">
        <ele>541</ele>
        <time>2016-09-12T10:27:05Z</time>
      </trkpt>
      <trkpt lat="45.97438" lon="4.57255">
        <ele>545</ele>
        <time>2016-09-12T10:27:07Z</time>
      </trkpt>
      <trkpt lat="45.97436" lon="4.57259">
        <ele>545</ele>
        <time>2016-09-12T10:27:08Z</time>
      </trkpt>
      <trkpt lat="45.97433" lon="4.57269">
        <ele>545</ele>
        <time>2016-09-12T10:27:10Z</time>
      </trkpt>
      <trkpt lat="45.97431" lon="4.57274">
        <ele>546</ele>
        <time>2016-09-12T10:27:11Z</time>
      </trkpt>
      <trkpt lat="45.97428" lon="4.57284">
        <ele>547</ele>
        <time>2016-09-12T10:27:13Z</time>
      </trkpt>
      <trkpt lat="45.97427" lon="4.57289">
        <ele>547</ele>
        <time>2016-09-12T10:27:14Z</time>
      </trkpt>
      <trkpt lat="45.97424" lon="4.57299">
        <ele>547</ele>
        <time>2016-09-12T10:27:16Z</time>
      </trkpt>
      <trkpt lat="45.97422" lon="4.57304">
        <ele>547</ele>
        <time>2016-09-12T10:27:17Z</time>
      </trkpt>
      <trkpt lat="45.9742" lon="4.57316">
        <ele>547</ele>
        <time>2016-09-12T10:27:19Z</time>
      </trkpt>
      <trkpt lat="45.97419" lon="4.57322">
        <ele>546</ele>
        <time>2016-09-12T10:27:20Z</time>
      </trkpt>
      <trkpt lat="45.97417" lon="4.57333">
        <ele>544</ele>
        <time>2016-09-12T10:27:22Z</time>
      </trkpt>
      <trkpt lat="45.97417" lon="4.57339">
        <ele>542</ele>
        <time>2016-09-12T10:27:23Z</time>
      </trkpt>
      <trkpt lat="45.97417" lon="4.57351">
        <ele>538</ele>
        <time>2016-09-12T10:27:25Z</time>
      </trkpt>
      <trkpt lat="45.97416" lon="4.57356">
        <ele>537</ele>
        <time>2016-09-12T10:27:26Z</time>
      </trkpt>
      <trkpt lat="45.97417" lon="4.57367">
        <ele>547</ele>
        <time>2016-09-12T10:27:28Z</time>
      </trkpt>
      <trkpt lat="45.97418" lon="4.57372">
        <ele>547</ele>
        <time>2016-09-12T10:27:29Z</time>
      </trkpt>
      <trkpt lat="45.97421" lon="4.57383">
        <ele>547</ele>
        <time>2016-09-12T10:27:31Z</time>
      </trkpt>
      <trkpt lat="45.97422" lon="4.57389">
        <ele>546</ele>
        <time>2016-09-12T10:27:32Z</time>
      </trkpt>
      <trkpt lat="45.97426" lon="4.57399">
        <ele>545</ele>
        <time>2016-09-12T10:27:34Z</time>
      </trkpt>
      <trkpt lat="45.97429" lon="4.57403">
        <ele>545</ele>
        <time>2016-09-12T10:27:35Z</time>
      </trkpt>
      <trkpt lat="45.97435" lon="4.57412">
        <ele>545</ele>
        <time>2016-09-12T10:27:37Z</time>
      </trkpt>
      <trkpt lat="45.97438" lon="4.57416">
        <ele>546</ele>
        <time>2016-09-12T10:27:38Z</time>
      </trkpt>
      <trkpt lat="45.97445" lon="4.57422">
        <ele>541</ele>
        <time>2016-09-12T10:27:40Z</time>
      </trkpt>
      <trkpt lat="45.97448" lon="4.57425">
        <ele>542</ele>
        <time>2016-09-12T10:27:41Z</time>
      </trkpt>
      <trkpt lat="45.97455" lon="4.57432">
        <ele>542</ele>
        <time>2016-09-12T10:27:43Z</time>
      </trkpt>
      <trkpt lat="45.97458" lon="4.57435">
        <ele>542</ele>
        <time>2016-09-12T10:27:44Z</time>
      </trkpt>
      <trkpt lat="45.97466" lon="4.57441">
        <ele>543</ele>
        <time>2016-09-12T10:27:46Z</time>
      </trkpt>
      <trkpt lat="45.97469" lon="4.57444">
        <ele>543</ele>
        <time>2016-09-12T10:27:47Z</time>
      </trkpt>
      <trkpt lat="45.97477" lon="4.57449">
        <ele>543</ele>
        <time>2016-09-12T10:27:49Z</time>
      </trkpt>
      <trkpt lat="45.9748" lon="4.57452">
        <ele>543</ele>
        <time>2016-09-12T10:27:50Z</time>
      </trkpt>
      <trkpt lat="45.97487" lon="4.57457">
        <ele>543</ele>
        <time>2016-09-12T10:27:52Z</time>
      </trkpt>
      <trkpt lat="45.97491" lon="4.57458">
        <ele>543</ele>
        <time>2016-09-12T10:27:53Z</time>
      </trkpt>
      <trkpt lat="45.97498" lon="4.57462">
        <ele>543</ele>
        <time>2016-09-12T10:27:55Z</time>
      </trkpt>
      <trkpt lat="45.97501" lon="4.57463">
        <ele>552</ele>
        <time>2016-09-12T10:27:56Z</time>
      </trkpt>
      <trkpt lat="45.97509" lon="4.57466">
        <ele>552</ele>
        <time>2016-09-12T10:27:58Z</time>
      </trkpt>
      <trkpt lat="45.97513" lon="4.57468">
        <ele>552</ele>
        <time>2016-09-12T10:27:59Z</time>
      </trkpt>
      <trkpt lat="45.97521" lon="4.5747">
        <ele>552</ele>
        <time>2016-09-12T10:28:01Z</time>
      </trkpt>
      <trkpt lat="45.97525" lon="4.57471">
        <ele>552</ele>
        <time>2016-09-12T10:28:02Z</time>
      </trkpt>
      <trkpt lat="45.97533" lon="4.57472">
        <ele>553</ele>
        <time>2016-09-12T10:28:04Z</time>
      </trkpt>
      <trkpt lat="45.97538" lon="4.57473">
        <ele>553</ele>
        <time>2016-09-12T10:28:05Z</time>
      </trkpt>
      <trkpt lat="45.97542" lon="4.57475">
        <ele>554</ele>
        <time>2016-09-12T10:28:06Z</time>
      </trkpt>
      <trkpt lat="45.97547" lon="4.57477">
        <ele>554</ele>
        <time>2016-09-12T10:28:07Z</time>
      </trkpt>
      <trkpt lat="45.97555" lon="4.5748">
        <ele>554</ele>
        <time>2016-09-12T10:28:09Z</time>
      </trkpt>
      <trkpt lat="45.97559" lon="4.57481">
        <ele>554</ele>
        <time>2016-09-12T10:28:10Z</time>
      </trkpt>
      <trkpt lat="45.97566" lon="4.57485">
        <ele>554</ele>
        <time>2016-09-12T10:28:12Z</time>
      </trkpt>
      <trkpt lat="45.97569" lon="4.57489">
        <ele>554</ele>
        <time>2016-09-12T10:28:13Z</time>
      </trkpt>
      <trkpt lat="45.97573" lon="4.57491">
        <ele>554</ele>
        <time>2016-09-12T10:28:14Z</time>
      </trkpt>
      <trkpt lat="45.97577" lon="4.57495">
        <ele>554</ele>
        <time>2016-09-12T10:28:15Z</time>
      </trkpt>
      <trkpt lat="45.97582" lon="4.57499">
        <ele>553</ele>
        <time>2016-09-12T10:28:16Z</time>
      </trkpt>
      <trkpt lat="45.97586" lon="4.57502">
        <ele>552</ele>
        <time>2016-09-12T10:28:17Z</time>
      </trkpt>
      <trkpt lat="45.97594" lon="4.57508">
        <ele>551</ele>
        <time>2016-09-12T10:28:19Z</time>
      </trkpt>
      <trkpt lat="45.97598" lon="4.57512">
        <ele>551</ele>
        <time>2016-09-12T10:28:20Z</time>
      </trkpt>
      <trkpt lat="45.97604" lon="4.5752">
        <ele>550</ele>
        <time>2016-09-12T10:28:22Z</time>
      </trkpt>
      <trkpt lat="45.97608" lon="4.57523">
        <ele>550</ele>
        <time>2016-09-12T10:28:23Z</time>
      </trkpt>
      <trkpt lat="45.97616" lon="4.57528">
        <ele>550</ele>
        <time>2016-09-12T10:28:25Z</time>
      </trkpt>
      <trkpt lat="45.9762" lon="4.57531">
        <ele>550</ele>
        <time>2016-09-12T10:28:26Z</time>
      </trkpt>
      <trkpt lat="45.97624" lon="4.57534">
        <ele>550</ele>
        <time>2016-09-12T10:28:27Z</time>
      </trkpt>
      <trkpt lat="45.97629" lon="4.57538">
        <ele>550</ele>
        <time>2016-09-12T10:28:28Z</time>
      </trkpt>
      <trkpt lat="45.97634" lon="4.57541">
        <ele>549</ele>
        <time>2016-09-12T10:28:29Z</time>
      </trkpt>
      <trkpt lat="45.97639" lon="4.57544">
        <ele>549</ele>
        <time>2016-09-12T10:28:30Z</time>
      </trkpt>
      <trkpt lat="45.97644" lon="4.57546">
        <ele>549</ele>
        <time>2016-09-12T10:28:31Z</time>
      </trkpt>
      <trkpt lat="45.97649" lon="4.57548">
        <ele>549</ele>
        <time>2016-09-12T10:28:32Z</time>
      </trkpt>
      <trkpt lat="45.97654" lon="4.5755">
        <ele>549</ele>
        <time>2016-09-12T10:28:33Z</time>
      </trkpt>
      <trkpt lat="45.97659" lon="4.57552">
        <ele>549</ele>
        <time>2016-09-12T10:28:34Z</time>
      </trkpt>
      <trkpt lat="45.97664" lon="4.57554">
        <ele>549</ele>
        <time>2016-09-12T10:28:35Z</time>
      </trkpt>
      <trkpt lat="45.97669" lon="4.57557">
        <ele>555</ele>
        <time>2016-09-12T10:28:36Z</time>
      </trkpt>
      <trkpt lat="45.97673" lon="4.57559">
        <ele>555</ele>
        <time>2016-09-12T10:28:37Z</time>
      </trkpt>
      <trkpt lat="45.97678" lon="4.57562">
        <ele>555</ele>
        <time>2016-09-12T10:28:38Z</time>
      </trkpt>
      <trkpt lat="45.97682" lon="4.57565">
        <ele>555</ele>
        <time>2016-09-12T10:28:39Z</time>
      </trkpt>
      <trkpt lat="45.97686" lon="4.57567">
        <ele>555</ele>
        <time>2016-09-12T10:28:40Z</time>
      </trkpt>
      <trkpt lat="45.97691" lon="4.57569">
        <ele>555</ele>
        <time>2016-09-12T10:28:41Z</time>
      </trkpt>
      <trkpt lat="45.97695" lon="4.57572">
        <ele>556</ele>
        <time>2016-09-12T10:28:42Z</time>
      </trkpt>
      <trkpt lat="45.97702" lon="4.57576">
        <ele>556</ele>
        <time>2016-09-12T10:28:44Z</time>
      </trkpt>
      <trkpt lat="45.97707" lon="4.57578">
        <ele>557</ele>
        <time>2016-09-12T10:28:45Z</time>
      </trkpt>
      <trkpt lat="45.97711" lon="4.5758">
        <ele>557</ele>
        <time>2016-09-12T10:28:46Z</time>
      </trkpt>
      <trkpt lat="45.97715" lon="4.57583">
        <ele>557</ele>
        <time>2016-09-12T10:28:47Z</time>
      </trkpt>
      <trkpt lat="45.97719" lon="4.57587">
        <ele>547</ele>
        <time>2016-09-12T10:28:48Z</time>
      </trkpt>
      <trkpt lat="45.97724" lon="4.57592">
        <ele>547</ele>
        <time>2016-09-12T10:28:49Z</time>
      </trkpt>
      <trkpt lat="45.97728" lon="4.57596">
        <ele>547</ele>
        <time>2016-09-12T10:28:50Z</time>
      </trkpt>
      <trkpt lat="45.97732" lon="4.57603">
        <ele>547</ele>
        <time>2016-09-12T10:28:51Z</time>
      </trkpt>
      <trkpt lat="45.97736" lon="4.57609">
        <ele>547</ele>
        <time>2016-09-12T10:28:52Z</time>
      </trkpt>
      <trkpt lat="45.97739" lon="4.57616">
        <ele>546</ele>
        <time>2016-09-12T10:28:53Z</time>
      </trkpt>
      <trkpt lat="45.97742" lon="4.57624">
        <ele>545</ele>
        <time>2016-09-12T10:28:54Z</time>
      </trkpt>
      <trkpt lat="45.97745" lon="4.57633">
        <ele>545</ele>
        <time>2016-09-12T10:28:55Z</time>
      </trkpt>
      <trkpt lat="45.97747" lon="4.57641">
        <ele>544</ele>
        <time>2016-09-12T10:28:56Z</time>
      </trkpt>
      <trkpt lat="45.97749" lon="4.57647">
        <ele>544</ele>
        <time>2016-09-12T10:28:57Z</time>
      </trkpt>
      <trkpt lat="45.97752" lon="4.57658">
        <ele>550</ele>
        <time>2016-09-12T10:28:59Z</time>
      </trkpt>
      <trkpt lat="45.97754" lon="4.57666">
        <ele>548</ele>
        <time>2016-09-12T10:29:00Z</time>
      </trkpt>
      <trkpt lat="45.97757" lon="4.57672">
        <ele>547</ele>
        <time>2016-09-12T10:29:01Z</time>
      </trkpt>
      <trkpt lat="45.9776" lon="4.57678">
        <ele>548</ele>
        <time>2016-09-12T10:29:02Z</time>
      </trkpt>
      <trkpt lat="45.97763" lon="4.57683">
        <ele>549</ele>
        <time>2016-09-12T10:29:03Z</time>
      </trkpt>
      <trkpt lat="45.97766" lon="4.5769">
        <ele>549</ele>
        <time>2016-09-12T10:29:04Z</time>
      </trkpt>
      <trkpt lat="45.97769" lon="4.57696">
        <ele>549</ele>
        <time>2016-09-12T10:29:05Z</time>
      </trkpt>
      <trkpt lat="45.97773" lon="4.57701">
        <ele>550</ele>
        <time>2016-09-12T10:29:06Z</time>
      </trkpt>
      <trkpt lat="45.97777" lon="4.57706">
        <ele>550</ele>
        <time>2016-09-12T10:29:07Z</time>
      </trkpt>
      <trkpt lat="45.97781" lon="4.57712">
        <ele>550</ele>
        <time>2016-09-12T10:29:08Z</time>
      </trkpt>
      <trkpt lat="45.97784" lon="4.57717">
        <ele>550</ele>
        <time>2016-09-12T10:29:09Z</time>
      </trkpt>
      <trkpt lat="45.97788" lon="4.57723">
        <ele>550</ele>
        <time>2016-09-12T10:29:10Z</time>
      </trkpt>
      <trkpt lat="45.97792" lon="4.5773">
        <ele>550</ele>
        <time>2016-09-12T10:29:11Z</time>
      </trkpt>
      <trkpt lat="45.97797" lon="4.57734">
        <ele>550</ele>
        <time>2016-09-12T10:29:12Z</time>
      </trkpt>
      <trkpt lat="45.97801" lon="4.5774">
        <ele>551</ele>
        <time>2016-09-12T10:29:13Z</time>
      </trkpt>
      <trkpt lat="45.97806" lon="4.57745">
        <ele>551</ele>
        <time>2016-09-12T10:29:14Z</time>
      </trkpt>
      <trkpt lat="45.97811" lon="4.5775">
        <ele>552</ele>
        <time>2016-09-12T10:29:15Z</time>
      </trkpt>
      <trkpt lat="45.97816" lon="4.57754">
        <ele>547</ele>
        <time>2016-09-12T10:29:16Z</time>
      </trkpt>
      <trkpt lat="45.9782" lon="4.57759">
        <ele>547</ele>
        <time>2016-09-12T10:29:17Z</time>
      </trkpt>
      <trkpt lat="45.97825" lon="4.57764">
        <ele>547</ele>
        <time>2016-09-12T10:29:18Z</time>
      </trkpt>
      <trkpt lat="45.9783" lon="4.57769">
        <ele>547</ele>
        <time>2016-09-12T10:29:19Z</time>
      </trkpt>
      <trkpt lat="45.97835" lon="4.57772">
        <ele>554</ele>
        <time>2016-09-12T10:29:20Z</time>
      </trkpt>
      <trkpt lat="45.97839" lon="4.57777">
        <ele>553</ele>
        <time>2016-09-12T10:29:21Z</time>
      </trkpt>
      <trkpt lat="45.97844" lon="4.57782">
        <ele>553</ele>
        <time>2016-09-12T10:29:22Z</time>
      </trkpt>
      <trkpt lat="45.97848" lon="4.57786">
        <ele>553</ele>
        <time>2016-09-12T10:29:23Z</time>
      </trkpt>
      <trkpt lat="45.97853" lon="4.5779">
        <ele>553</ele>
        <time>2016-09-12T10:29:24Z</time>
      </trkpt>
      <trkpt lat="45.97858" lon="4.57793">
        <ele>553</ele>
        <time>2016-09-12T10:29:25Z</time>
      </trkpt>
      <trkpt lat="45.97862" lon="4.57796">
        <ele>553</ele>
        <time>2016-09-12T10:29:26Z</time>
      </trkpt>
      <trkpt lat="45.97868" lon="4.57799">
        <ele>553</ele>
        <time>2016-09-12T10:29:27Z</time>
      </trkpt>
      <trkpt lat="45.97872" lon="4.57803">
        <ele>553</ele>
        <time>2016-09-12T10:29:28Z</time>
      </trkpt>
      <trkpt lat="45.97877" lon="4.57807">
        <ele>553</ele>
        <time>2016-09-12T10:29:29Z</time>
      </trkpt>
      <trkpt lat="45.97882" lon="4.57809">
        <ele>553</ele>
        <time>2016-09-12T10:29:30Z</time>
      </trkpt>
      <trkpt lat="45.97886" lon="4.57813">
        <ele>553</ele>
        <time>2016-09-12T10:29:31Z</time>
      </trkpt>
      <trkpt lat="45.97891" lon="4.57815">
        <ele>553</ele>
        <time>2016-09-12T10:29:32Z</time>
      </trkpt>
      <trkpt lat="45.97895" lon="4.57819">
        <ele>553</ele>
        <time>2016-09-12T10:29:33Z</time>
      </trkpt>
      <trkpt lat="45.97901" lon="4.57823">
        <ele>553</ele>
        <time>2016-09-12T10:29:34Z</time>
      </trkpt>
      <trkpt lat="45.97905" lon="4.57825">
        <ele>552</ele>
        <time>2016-09-12T10:29:35Z</time>
      </trkpt>
      <trkpt lat="45.9791" lon="4.57828">
        <ele>552</ele>
        <time>2016-09-12T10:29:36Z</time>
      </trkpt>
      <trkpt lat="45.97915" lon="4.5783">
        <ele>551</ele>
        <time>2016-09-12T10:29:37Z</time>
      </trkpt>
      <trkpt lat="45.97919" lon="4.57832">
        <ele>553</ele>
        <time>2016-09-12T10:29:38Z</time>
      </trkpt>
      <trkpt lat="45.97924" lon="4.57834">
        <ele>552</ele>
        <time>2016-09-12T10:29:39Z</time>
      </trkpt>
      <trkpt lat="45.97929" lon="4.57836">
        <ele>553</ele>
        <time>2016-09-12T10:29:40Z</time>
      </trkpt>
      <trkpt lat="45.97933" lon="4.57839">
        <ele>553</ele>
        <time>2016-09-12T10:29:41Z</time>
      </trkpt>
      <trkpt lat="45.97939" lon="4.57841">
        <ele>554</ele>
        <time>2016-09-12T10:29:42Z</time>
      </trkpt>
      <trkpt lat="45.97943" lon="4.57844">
        <ele>554</ele>
        <time>2016-09-12T10:29:43Z</time>
      </trkpt>
      <trkpt lat="45.97948" lon="4.57849">
        <ele>555</ele>
        <time>2016-09-12T10:29:44Z</time>
      </trkpt>
      <trkpt lat="45.9795" lon="4.57855">
        <ele>555</ele>
        <time>2016-09-12T10:29:45Z</time>
      </trkpt>
      <trkpt lat="45.97953" lon="4.57861">
        <ele>555</ele>
        <time>2016-09-12T10:29:46Z</time>
      </trkpt>
      <trkpt lat="45.97955" lon="4.57873">
        <ele>555</ele>
        <time>2016-09-12T10:29:48Z</time>
      </trkpt>
      <trkpt lat="45.97956" lon="4.5788">
        <ele>555</ele>
        <time>2016-09-12T10:29:49Z</time>
      </trkpt>
      <trkpt lat="45.97957" lon="4.57887">
        <ele>554</ele>
        <time>2016-09-12T10:29:50Z</time>
      </trkpt>
      <trkpt lat="45.97957" lon="4.57895">
        <ele>554</ele>
        <time>2016-09-12T10:29:51Z</time>
      </trkpt>
      <trkpt lat="45.97957" lon="4.57902">
        <ele>554</ele>
        <time>2016-09-12T10:29:52Z</time>
      </trkpt>
      <trkpt lat="45.97958" lon="4.57909">
        <ele>554</ele>
        <time>2016-09-12T10:29:53Z</time>
      </trkpt>
      <trkpt lat="45.97958" lon="4.57915">
        <ele>554</ele>
        <time>2016-09-12T10:29:54Z</time>
      </trkpt>
      <trkpt lat="45.97958" lon="4.57922">
        <ele>553</ele>
        <time>2016-09-12T10:29:55Z</time>
      </trkpt>
      <trkpt lat="45.97957" lon="4.57929">
        <ele>553</ele>
        <time>2016-09-12T10:29:56Z</time>
      </trkpt>
      <trkpt lat="45.97957" lon="4.57935">
        <ele>553</ele>
        <time>2016-09-12T10:29:57Z</time>
      </trkpt>
      <trkpt lat="45.97955" lon="4.57941">
        <ele>552</ele>
        <time>2016-09-12T10:29:58Z</time>
      </trkpt>
      <trkpt lat="45.97952" lon="4.57948">
        <ele>552</ele>
        <time>2016-09-12T10:29:59Z</time>
      </trkpt>
      <trkpt lat="45.97947" lon="4.57957">
        <ele>552</ele>
        <time>2016-09-12T10:30:01Z</time>
      </trkpt>
      <trkpt lat="45.97943" lon="4.5796">
        <ele>552</ele>
        <time>2016-09-12T10:30:02Z</time>
      </trkpt>
      <trkpt lat="45.97938" lon="4.57964">
        <ele>551</ele>
        <time>2016-09-12T10:30:03Z</time>
      </trkpt>
      <trkpt lat="45.97934" lon="4.57966">
        <ele>551</ele>
        <time>2016-09-12T10:30:04Z</time>
      </trkpt>
      <trkpt lat="45.9793" lon="4.5797">
        <ele>551</ele>
        <time>2016-09-12T10:30:05Z</time>
      </trkpt>
      <trkpt lat="45.97926" lon="4.57974">
        <ele>550</ele>
        <time>2016-09-12T10:30:06Z</time>
      </trkpt>
      <trkpt lat="45.97922" lon="4.57978">
        <ele>550</ele>
        <time>2016-09-12T10:30:07Z</time>
      </trkpt>
      <trkpt lat="45.97918" lon="4.57982">
        <ele>549</ele>
        <time>2016-09-12T10:30:08Z</time>
      </trkpt>
      <trkpt lat="45.97911" lon="4.5799">
        <ele>543</ele>
        <time>2016-09-12T10:30:10Z</time>
      </trkpt>
      <trkpt lat="45.97908" lon="4.57994">
        <ele>543</ele>
        <time>2016-09-12T10:30:11Z</time>
      </trkpt>
      <trkpt lat="45.97905" lon="4.57999">
        <ele>543</ele>
        <time>2016-09-12T10:30:12Z</time>
      </trkpt>
      <trkpt lat="45.97903" lon="4.58005">
        <ele>544</ele>
        <time>2016-09-12T10:30:13Z</time>
      </trkpt>
      <trkpt lat="45.97901" lon="4.58012">
        <ele>544</ele>
        <time>2016-09-12T10:30:14Z</time>
      </trkpt>
      <trkpt lat="45.979" lon="4.5802">
        <ele>544</ele>
        <time>2016-09-12T10:30:15Z</time>
      </trkpt>
      <trkpt lat="45.979" lon="4.58027">
        <ele>544</ele>
        <time>2016-09-12T10:30:16Z</time>
      </trkpt>
      <trkpt lat="45.97899" lon="4.58034">
        <ele>544</ele>
        <time>2016-09-12T10:30:17Z</time>
      </trkpt>
      <trkpt lat="45.97897" lon="4.58046">
        <ele>545</ele>
        <time>2016-09-12T10:30:19Z</time>
      </trkpt>
      <trkpt lat="45.97896" lon="4.58052">
        <ele>545</ele>
        <time>2016-09-12T10:30:20Z</time>
      </trkpt>
      <trkpt lat="45.97894" lon="4.58064">
        <ele>546</ele>
        <time>2016-09-12T10:30:22Z</time>
      </trkpt>
      <trkpt lat="45.97893" lon="4.58069">
        <ele>546</ele>
        <time>2016-09-12T10:30:23Z</time>
      </trkpt>
      <trkpt lat="45.97891" lon="4.58081">
        <ele>547</ele>
        <time>2016-09-12T10:30:25Z</time>
      </trkpt>
      <trkpt lat="45.97889" lon="4.58087">
        <ele>550</ele>
        <time>2016-09-12T10:30:26Z</time>
      </trkpt>
      <trkpt lat="45.97886" lon="4.58099">
        <ele>550</ele>
        <time>2016-09-12T10:30:28Z</time>
      </trkpt>
      <trkpt lat="45.97885" lon="4.58104">
        <ele>550</ele>
        <time>2016-09-12T10:30:29Z</time>
      </trkpt>
      <trkpt lat="45.97882" lon="4.58116">
        <ele>550</ele>
        <time>2016-09-12T10:30:31Z</time>
      </trkpt>
      <trkpt lat="45.9788" lon="4.58122">
        <ele>550</ele>
        <time>2016-09-12T10:30:32Z</time>
      </trkpt>
      <trkpt lat="45.97876" lon="4.58132">
        <ele>550</ele>
        <time>2016-09-12T10:30:34Z</time>
      </trkpt>
      <trkpt lat="45.97874" lon="4.58137">
        <ele>550</ele>
        <time>2016-09-12T10:30:35Z</time>
      </trkpt>
      <trkpt lat="45.97871" lon="4.58148">
        <ele>549</ele>
        <time>2016-09-12T10:30:37Z</time>
      </trkpt>
      <trkpt lat="45.97869" lon="4.58152">
        <ele>549</ele>
        <time>2016-09-12T10:30:38Z</time>
      </trkpt>
      <trkpt lat="45.97866" lon="4.58163">
        <ele>549</ele>
        <time>2016-09-12T10:30:40Z</time>
      </trkpt>
      <trkpt lat="45.97864" lon="4.58168">
        <ele>551</ele>
        <time>2016-09-12T10:30:41Z</time>
      </trkpt>
      <trkpt lat="45.97861" lon="4.58177">
        <ele>551</ele>
        <time>2016-09-12T10:30:43Z</time>
      </trkpt>
      <trkpt lat="45.97859" lon="4.58182">
        <ele>551</ele>
        <time>2016-09-12T10:30:44Z</time>
      </trkpt>
      <trkpt lat="45.97856" lon="4.58192">
        <ele>551</ele>
        <time>2016-09-12T10:30:46Z</time>
      </trkpt>
      <trkpt lat="45.97855" lon="4.58198">
        <ele>551</ele>
        <time>2016-09-12T10:30:47Z</time>
      </trkpt>
      <trkpt lat="45.97852" lon="4.58208">
        <ele>551</ele>
        <time>2016-09-12T10:30:49Z</time>
      </trkpt>
      <trkpt lat="45.97851" lon="4.58212">
        <ele>552</ele>
        <time>2016-09-12T10:30:50Z</time>
      </trkpt>
      <trkpt lat="45.97848" lon="4.58222">
        <ele>552</ele>
        <time>2016-09-12T10:30:52Z</time>
      </trkpt>
      <trkpt lat="45.97846" lon="4.58227">
        <ele>552</ele>
        <time>2016-09-12T10:30:53Z</time>
      </trkpt>
      <trkpt lat="45.97844" lon="4.58237">
        <ele>552</ele>
        <time>2016-09-12T10:30:55Z</time>
      </trkpt>
      <trkpt lat="45.97842" lon="4.58242">
        <ele>551</ele>
        <time>2016-09-12T10:30:56Z</time>
      </trkpt>
      <trkpt lat="45.97839" lon="4.58252">
        <ele>551</ele>
        <time>2016-09-12T10:30:58Z</time>
      </trkpt>
      <trkpt lat="45.97837" lon="4.58258">
        <ele>552</ele>
        <time>2016-09-12T10:30:59Z</time>
      </trkpt>
      <trkpt lat="45.97834" lon="4.58269">
        <ele>552</ele>
        <time>2016-09-12T10:31:01Z</time>
      </trkpt>
      <trkpt lat="45.97832" lon="4.58274">
        <ele>551</ele>
        <time>2016-09-12T10:31:02Z</time>
      </trkpt>
      <trkpt lat="45.97831" lon="4.5828">
        <ele>551</ele>
        <time>2016-09-12T10:31:03Z</time>
      </trkpt>
      <trkpt lat="45.9783" lon="4.58286">
        <ele>551</ele>
        <time>2016-09-12T10:31:04Z</time>
      </trkpt>
      <trkpt lat="45.97827" lon="4.58297">
        <ele>551</ele>
        <time>2016-09-12T10:31:06Z</time>
      </trkpt>
      <trkpt lat="45.97826" lon="4.58302">
        <ele>551</ele>
        <time>2016-09-12T10:31:07Z</time>
      </trkpt>
      <trkpt lat="45.97824" lon="4.58311">
        <ele>551</ele>
        <time>2016-09-12T10:31:09Z</time>
      </trkpt>
      <trkpt lat="45.97824" lon="4.58316">
        <ele>551</ele>
        <time>2016-09-12T10:31:10Z</time>
      </trkpt>
      <trkpt lat="45.97823" lon="4.58328">
        <ele>551</ele>
        <time>2016-09-12T10:31:13Z</time>
      </trkpt>
      <trkpt lat="45.97823" lon="4.58331">
        <ele>551</ele>
        <time>2016-09-12T10:31:14Z</time>
      </trkpt>
      <trkpt lat="45.97823" lon="4.58334">
        <ele>551</ele>
        <time>2016-09-12T10:31:15Z</time>
      </trkpt>
      <trkpt lat="45.97823" lon="4.58334">
        <ele>551</ele>
        <time>2016-09-12T10:31:16Z</time>
      </trkpt>
      <trkpt lat="45.97824" lon="4.58335">
        <ele>551</ele>
        <time>2016-09-12T10:31:35Z</time>
      </trkpt>
      <trkpt lat="45.97822" lon="4.58337">
        <ele>551</ele>
        <time>2016-09-12T10:31:36Z</time>
      </trkpt>
      <trkpt lat="45.97821" lon="4.58347">
        <ele>551</ele>
        <time>2016-09-12T10:35:08Z</time>
      </trkpt>
      <trkpt lat="45.97822" lon="4.58352">
        <ele>551</ele>
        <time>2016-09-12T10:35:09Z</time>
      </trkpt>
      <trkpt lat="45.97822" lon="4.58361">
        <ele>551</ele>
        <time>2016-09-12T10:35:11Z</time>
      </trkpt>
      <trkpt lat="45.97822" lon="4.58366">
        <ele>551</ele>
        <time>2016-09-12T10:35:12Z</time>
      </trkpt>
      <trkpt lat="45.97823" lon="4.58376">
        <ele>551</ele>
        <time>2016-09-12T10:35:14Z</time>
      </trkpt>
      <trkpt lat="45.97824" lon="4.58382">
        <ele>551</ele>
        <time>2016-09-12T10:35:15Z</time>
      </trkpt>
      <trkpt lat="45.97824" lon="4.58393">
        <ele>551</ele>
        <time>2016-09-12T10:35:17Z</time>
      </trkpt>
      <trkpt lat="45.97824" lon="4.584">
        <ele>551</ele>
        <time>2016-09-12T10:35:18Z</time>
      </trkpt>
      <trkpt lat="45.97822" lon="4.58412">
        <ele>551</ele>
        <time>2016-09-12T10:35:20Z</time>
      </trkpt>
      <trkpt lat="45.97822" lon="4.58419">
        <ele>550</ele>
        <time>2016-09-12T10:35:21Z</time>
      </trkpt>
      <trkpt lat="45.97823" lon="4.58427">
        <ele>550</ele>
        <time>2016-09-12T10:35:22Z</time>
      </trkpt>
      <trkpt lat="45.97823" lon="4.58435">
        <ele>550</ele>
        <time>2016-09-12T10:35:23Z</time>
      </trkpt>
      <trkpt lat="45.97823" lon="4.58443">
        <ele>549</ele>
        <time>2016-09-12T10:35:24Z</time>
      </trkpt>
      <trkpt lat="45.97823" lon="4.58452">
        <ele>549</ele>
        <time>2016-09-12T10:35:25Z</time>
      </trkpt>
      <trkpt lat="45.97822" lon="4.58462">
        <ele>548</ele>
        <time>2016-09-12T10:35:26Z</time>
      </trkpt>
      <trkpt lat="45.97822" lon="4.58472">
        <ele>548</ele>
        <time>2016-09-12T10:35:27Z</time>
      </trkpt>
      <trkpt lat="45.97823" lon="4.58482">
        <ele>547</ele>
        <time>2016-09-12T10:35:28Z</time>
      </trkpt>
      <trkpt lat="45.97823" lon="4.58493">
        <ele>547</ele>
        <time>2016-09-12T10:35:29Z</time>
      </trkpt>
      <trkpt lat="45.97824" lon="4.58504">
        <ele>545</ele>
        <time>2016-09-12T10:35:30Z</time>
      </trkpt>
      <trkpt lat="45.97825" lon="4.58515">
        <ele>545</ele>
        <time>2016-09-12T10:35:31Z</time>
      </trkpt>
      <trkpt lat="45.97827" lon="4.58526">
        <ele>544</ele>
        <time>2016-09-12T10:35:32Z</time>
      </trkpt>
      <trkpt lat="45.9783" lon="4.58536">
        <ele>544</ele>
        <time>2016-09-12T10:35:33Z</time>
      </trkpt>
      <trkpt lat="45.97836" lon="4.58545">
        <ele>541</ele>
        <time>2016-09-12T10:35:34Z</time>
      </trkpt>
      <trkpt lat="45.97843" lon="4.58552">
        <ele>540</ele>
        <time>2016-09-12T10:35:35Z</time>
      </trkpt>
      <trkpt lat="45.97851" lon="4.58556">
        <ele>540</ele>
        <time>2016-09-12T10:35:36Z</time>
      </trkpt>
      <trkpt lat="45.97861" lon="4.58557">
        <ele>540</ele>
        <time>2016-09-12T10:35:37Z</time>
      </trkpt>
      <trkpt lat="45.9787" lon="4.58557">
        <ele>540</ele>
        <time>2016-09-12T10:35:38Z</time>
      </trkpt>
      <trkpt lat="45.97879" lon="4.58557">
        <ele>540</ele>
        <time>2016-09-12T10:35:39Z</time>
      </trkpt>
      <trkpt lat="45.97889" lon="4.58557">
        <ele>539</ele>
        <time>2016-09-12T10:35:40Z</time>
      </trkpt>
      <trkpt lat="45.97899" lon="4.58556">
        <ele>539</ele>
        <time>2016-09-12T10:35:41Z</time>
      </trkpt>
      <trkpt lat="45.97909" lon="4.58555">
        <ele>539</ele>
        <time>2016-09-12T10:35:42Z</time>
      </trkpt>
      <trkpt lat="45.97919" lon="4.58555">
        <ele>536</ele>
        <time>2016-09-12T10:35:43Z</time>
      </trkpt>
      <trkpt lat="45.97929" lon="4.58555">
        <ele>536</ele>
        <time>2016-09-12T10:35:44Z</time>
      </trkpt>
      <trkpt lat="45.9794" lon="4.58554">
        <ele>536</ele>
        <time>2016-09-12T10:35:45Z</time>
      </trkpt>
      <trkpt lat="45.9795" lon="4.58554">
        <ele>535</ele>
        <time>2016-09-12T10:35:46Z</time>
      </trkpt>
      <trkpt lat="45.9796" lon="4.58554">
        <ele>535</ele>
        <time>2016-09-12T10:35:47Z</time>
      </trkpt>
      <trkpt lat="45.97971" lon="4.58553">
        <ele>534</ele>
        <time>2016-09-12T10:35:48Z</time>
      </trkpt>
      <trkpt lat="45.97981" lon="4.58553">
        <ele>534</ele>
        <time>2016-09-12T10:35:49Z</time>
      </trkpt>
      <trkpt lat="45.97992" lon="4.58552">
        <ele>533</ele>
        <time>2016-09-12T10:35:50Z</time>
      </trkpt>
      <trkpt lat="45.98003" lon="4.58552">
        <ele>530</ele>
        <time>2016-09-12T10:35:51Z</time>
      </trkpt>
      <trkpt lat="45.98014" lon="4.58552">
        <ele>530</ele>
        <time>2016-09-12T10:35:52Z</time>
      </trkpt>
      <trkpt lat="45.98025" lon="4.58552">
        <ele>530</ele>
        <time>2016-09-12T10:35:53Z</time>
      </trkpt>
      <trkpt lat="45.98036" lon="4.58553">
        <ele>529</ele>
        <time>2016-09-12T10:35:54Z</time>
      </trkpt>
      <trkpt lat="45.98047" lon="4.58554">
        <ele>529</ele>
        <time>2016-09-12T10:35:55Z</time>
      </trkpt>
      <trkpt lat="45.98059" lon="4.58555">
        <ele>528</ele>
        <time>2016-09-12T10:35:56Z</time>
      </trkpt>
      <trkpt lat="45.9807" lon="4.58557">
        <ele>528</ele>
        <time>2016-09-12T10:35:57Z</time>
      </trkpt>
      <trkpt lat="45.98082" lon="4.58558">
        <ele>527</ele>
        <time>2016-09-12T10:35:58Z</time>
      </trkpt>
      <trkpt lat="45.98093" lon="4.5856">
        <ele>525</ele>
        <time>2016-09-12T10:35:59Z</time>
      </trkpt>
      <trkpt lat="45.98105" lon="4.58562">
        <ele>525</ele>
        <time>2016-09-12T10:36:00Z</time>
      </trkpt>
      <trkpt lat="45.98116" lon="4.58564">
        <ele>524</ele>
        <time>2016-09-12T10:36:01Z</time>
      </trkpt>
      <trkpt lat="45.98128" lon="4.58566">
        <ele>524</ele>
        <time>2016-09-12T10:36:02Z</time>
      </trkpt>
      <trkpt lat="45.9814" lon="4.58567">
        <ele>523</ele>
        <time>2016-09-12T10:36:03Z</time>
      </trkpt>
      <trkpt lat="45.98152" lon="4.58569">
        <ele>522</ele>
        <time>2016-09-12T10:36:04Z</time>
      </trkpt>
      <trkpt lat="45.98164" lon="4.58571">
        <ele>521</ele>
        <time>2016-09-12T10:36:05Z</time>
      </trkpt>
      <trkpt lat="45.98175" lon="4.58574">
        <ele>520</ele>
        <time>2016-09-12T10:36:06Z</time>
      </trkpt>
      <trkpt lat="45.98187" lon="4.58576">
        <ele>521</ele>
        <time>2016-09-12T10:36:07Z</time>
      </trkpt>
      <trkpt lat="45.98199" lon="4.58579">
        <ele>522</ele>
        <time>2016-09-12T10:36:08Z</time>
      </trkpt>
      <trkpt lat="45.98211" lon="4.58581">
        <ele>522</ele>
        <time>2016-09-12T10:36:09Z</time>
      </trkpt>
      <trkpt lat="45.98222" lon="4.58583">
        <ele>521</ele>
        <time>2016-09-12T10:36:10Z</time>
      </trkpt>
      <trkpt lat="45.98234" lon="4.58585">
        <ele>516</ele>
        <time>2016-09-12T10:36:11Z</time>
      </trkpt>
      <trkpt lat="45.98246" lon="4.58586">
        <ele>517</ele>
        <time>2016-09-12T10:36:12Z</time>
      </trkpt>
      <trkpt lat="45.98258" lon="4.58587">
        <ele>515</ele>
        <time>2016-09-12T10:36:13Z</time>
      </trkpt>
      <trkpt lat="45.9827" lon="4.58589">
        <ele>513</ele>
        <time>2016-09-12T10:36:14Z</time>
      </trkpt>
      <trkpt lat="45.98282" lon="4.58589">
        <ele>511</ele>
        <time>2016-09-12T10:36:15Z</time>
      </trkpt>
      <trkpt lat="45.98293" lon="4.58587">
        <ele>511</ele>
        <time>2016-09-12T10:36:16Z</time>
      </trkpt>
      <trkpt lat="45.98304" lon="4.58586">
        <ele>510</ele>
        <time>2016-09-12T10:36:17Z</time>
      </trkpt>
      <trkpt lat="45.98315" lon="4.58585">
        <ele>510</ele>
        <time>2016-09-12T10:36:18Z</time>
      </trkpt>
      <trkpt lat="45.98324" lon="4.58584">
        <ele>510</ele>
        <time>2016-09-12T10:36:19Z</time>
      </trkpt>
      <trkpt lat="45.98334" lon="4.58583">
        <ele>510</ele>
        <time>2016-09-12T10:36:20Z</time>
      </trkpt>
      <trkpt lat="45.98342" lon="4.58582">
        <ele>510</ele>
        <time>2016-09-12T10:36:21Z</time>
      </trkpt>
      <trkpt lat="45.98351" lon="4.5858">
        <ele>510</ele>
        <time>2016-09-12T10:36:22Z</time>
      </trkpt>
      <trkpt lat="45.98358" lon="4.5858">
        <ele>510</ele>
        <time>2016-09-12T10:36:23Z</time>
      </trkpt>
      <trkpt lat="45.98364" lon="4.5858">
        <ele>510</ele>
        <time>2016-09-12T10:36:24Z</time>
      </trkpt>
      <trkpt lat="45.98371" lon="4.5858">
        <ele>510</ele>
        <time>2016-09-12T10:36:25Z</time>
      </trkpt>
      <trkpt lat="45.98377" lon="4.58583">
        <ele>509</ele>
        <time>2016-09-12T10:36:26Z</time>
      </trkpt>
      <trkpt lat="45.98381" lon="4.58588">
        <ele>504</ele>
        <time>2016-09-12T10:36:27Z</time>
      </trkpt>
      <trkpt lat="45.98384" lon="4.58597">
        <ele>503</ele>
        <time>2016-09-12T10:36:28Z</time>
      </trkpt>
      <trkpt lat="45.98384" lon="4.58608">
        <ele>503</ele>
        <time>2016-09-12T10:36:29Z</time>
      </trkpt>
      <trkpt lat="45.98381" lon="4.58617">
        <ele>503</ele>
        <time>2016-09-12T10:36:30Z</time>
      </trkpt>
      <trkpt lat="45.98378" lon="4.58625">
        <ele>503</ele>
        <time>2016-09-12T10:36:31Z</time>
      </trkpt>
      <trkpt lat="45.98374" lon="4.58632">
        <ele>503</ele>
        <time>2016-09-12T10:36:32Z</time>
      </trkpt>
      <trkpt lat="45.98368" lon="4.58637">
        <ele>502</ele>
        <time>2016-09-12T10:36:33Z</time>
      </trkpt>
      <trkpt lat="45.98362" lon="4.58642">
        <ele>503</ele>
        <time>2016-09-12T10:36:34Z</time>
      </trkpt>
      <trkpt lat="45.98356" lon="4.58646">
        <ele>502</ele>
        <time>2016-09-12T10:36:35Z</time>
      </trkpt>
      <trkpt lat="45.9835" lon="4.58652">
        <ele>502</ele>
        <time>2016-09-12T10:36:36Z</time>
      </trkpt>
      <trkpt lat="45.98343" lon="4.58657">
        <ele>502</ele>
        <time>2016-09-12T10:36:37Z</time>
      </trkpt>
      <trkpt lat="45.98337" lon="4.58663">
        <ele>502</ele>
        <time>2016-09-12T10:36:38Z</time>
      </trkpt>
      <trkpt lat="45.98331" lon="4.5867">
        <ele>502</ele>
        <time>2016-09-12T10:36:39Z</time>
      </trkpt>
      <trkpt lat="45.98324" lon="4.58676">
        <ele>501</ele>
        <time>2016-09-12T10:36:40Z</time>
      </trkpt>
      <trkpt lat="45.98318" lon="4.58682">
        <ele>500</ele>
        <time>2016-09-12T10:36:41Z</time>
      </trkpt>
      <trkpt lat="45.98311" lon="4.58688">
        <ele>500</ele>
        <time>2016-09-12T10:36:42Z</time>
      </trkpt>
      <trkpt lat="45.98303" lon="4.58694">
        <ele>499</ele>
        <time>2016-09-12T10:36:43Z</time>
      </trkpt>
      <trkpt lat="45.98296" lon="4.58699">
        <ele>499</ele>
        <time>2016-09-12T10:36:44Z</time>
      </trkpt>
      <trkpt lat="45.98288" lon="4.58706">
        <ele>499</ele>
        <time>2016-09-12T10:36:45Z</time>
      </trkpt>
      <trkpt lat="45.98281" lon="4.58713">
        <ele>498</ele>
        <time>2016-09-12T10:36:46Z</time>
      </trkpt>
      <trkpt lat="45.98273" lon="4.5872">
        <ele>498</ele>
        <time>2016-09-12T10:36:47Z</time>
      </trkpt>
      <trkpt lat="45.98265" lon="4.58727">
        <ele>497</ele>
        <time>2016-09-12T10:36:48Z</time>
      </trkpt>
      <trkpt lat="45.98257" lon="4.58733">
        <ele>496</ele>
        <time>2016-09-12T10:36:49Z</time>
      </trkpt>
      <trkpt lat="45.98249" lon="4.5874">
        <ele>497</ele>
        <time>2016-09-12T10:36:50Z</time>
      </trkpt>
      <trkpt lat="45.98241" lon="4.58747">
        <ele>497</ele>
        <time>2016-09-12T10:36:51Z</time>
      </trkpt>
      <trkpt lat="45.98232" lon="4.58754">
        <ele>493</ele>
        <time>2016-09-12T10:36:52Z</time>
      </trkpt>
      <trkpt lat="45.98223" lon="4.58761">
        <ele>493</ele>
        <time>2016-09-12T10:36:53Z</time>
      </trkpt>
      <trkpt lat="45.98215" lon="4.58768">
        <ele>493</ele>
        <time>2016-09-12T10:36:54Z</time>
      </trkpt>
      <trkpt lat="45.98207" lon="4.58776">
        <ele>493</ele>
        <time>2016-09-12T10:36:55Z</time>
      </trkpt>
      <trkpt lat="45.98199" lon="4.58784">
        <ele>493</ele>
        <time>2016-09-12T10:36:56Z</time>
      </trkpt>
      <trkpt lat="45.9819" lon="4.58791">
        <ele>492</ele>
        <time>2016-09-12T10:36:57Z</time>
      </trkpt>
      <trkpt lat="45.98182" lon="4.58798">
        <ele>492</ele>
        <time>2016-09-12T10:36:58Z</time>
      </trkpt>
      <trkpt lat="45.98173" lon="4.58805">
        <ele>492</ele>
        <time>2016-09-12T10:36:59Z</time>
      </trkpt>
      <trkpt lat="45.98165" lon="4.58812">
        <ele>493</ele>
        <time>2016-09-12T10:37:00Z</time>
      </trkpt>
      <trkpt lat="45.98156" lon="4.58819">
        <ele>492</ele>
        <time>2016-09-12T10:37:01Z</time>
      </trkpt>
      <trkpt lat="45.98147" lon="4.58826">
        <ele>492</ele>
        <time>2016-09-12T10:37:02Z</time>
      </trkpt>
      <trkpt lat="45.98138" lon="4.58834">
        <ele>486</ele>
        <time>2016-09-12T10:37:03Z</time>
      </trkpt>
      <trkpt lat="45.98129" lon="4.58841">
        <ele>486</ele>
        <time>2016-09-12T10:37:04Z</time>
      </trkpt>
      <trkpt lat="45.9812" lon="4.58849">
        <ele>486</ele>
        <time>2016-09-12T10:37:05Z</time>
      </trkpt>
      <trkpt lat="45.98112" lon="4.58859">
        <ele>486</ele>
        <time>2016-09-12T10:37:06Z</time>
      </trkpt>
      <trkpt lat="45.98106" lon="4.5887">
        <ele>485</ele>
        <time>2016-09-12T10:37:07Z</time>
      </trkpt>
      <trkpt lat="45.98101" lon="4.58884">
        <ele>485</ele>
        <time>2016-09-12T10:37:08Z</time>
      </trkpt>
      <trkpt lat="45.98098" lon="4.58897">
        <ele>484</ele>
        <time>2016-09-12T10:37:09Z</time>
      </trkpt>
      <trkpt lat="45.98096" lon="4.58912">
        <ele>484</ele>
        <time>2016-09-12T10:37:10Z</time>
      </trkpt>
      <trkpt lat="45.98098" lon="4.58926">
        <ele>480</ele>
        <time>2016-09-12T10:37:11Z</time>
      </trkpt>
      <trkpt lat="45.981" lon="4.58941">
        <ele>478</ele>
        <time>2016-09-12T10:37:12Z</time>
      </trkpt>
      <trkpt lat="45.98101" lon="4.58956">
        <ele>477</ele>
        <time>2016-09-12T10:37:13Z</time>
      </trkpt>
      <trkpt lat="45.98102" lon="4.58971">
        <ele>476</ele>
        <time>2016-09-12T10:37:14Z</time>
      </trkpt>
      <trkpt lat="45.98102" lon="4.58985">
        <ele>476</ele>
        <time>2016-09-12T10:37:15Z</time>
      </trkpt>
      <trkpt lat="45.981" lon="4.59">
        <ele>477</ele>
        <time>2016-09-12T10:37:16Z</time>
      </trkpt>
      <trkpt lat="45.98097" lon="4.59015">
        <ele>472</ele>
        <time>2016-09-12T10:37:17Z</time>
      </trkpt>
      <trkpt lat="45.98093" lon="4.5903">
        <ele>471</ele>
        <time>2016-09-12T10:37:18Z</time>
      </trkpt>
      <trkpt lat="45.98089" lon="4.59044">
        <ele>470</ele>
        <time>2016-09-12T10:37:19Z</time>
      </trkpt>
      <trkpt lat="45.98083" lon="4.59058">
        <ele>479</ele>
        <time>2016-09-12T10:37:20Z</time>
      </trkpt>
      <trkpt lat="45.98078" lon="4.59071">
        <ele>477</ele>
        <time>2016-09-12T10:37:21Z</time>
      </trkpt>
      <trkpt lat="45.98072" lon="4.59084">
        <ele>473</ele>
        <time>2016-09-12T10:37:22Z</time>
      </trkpt>
      <trkpt lat="45.98065" lon="4.59097">
        <ele>473</ele>
        <time>2016-09-12T10:37:23Z</time>
      </trkpt>
      <trkpt lat="45.98059" lon="4.59109">
        <ele>472</ele>
        <time>2016-09-12T10:37:24Z</time>
      </trkpt>
      <trkpt lat="45.98051" lon="4.59121">
        <ele>472</ele>
        <time>2016-09-12T10:37:25Z</time>
      </trkpt>
      <trkpt lat="45.98044" lon="4.59133">
        <ele>471</ele>
        <time>2016-09-12T10:37:26Z</time>
      </trkpt>
      <trkpt lat="45.98036" lon="4.59145">
        <ele>471</ele>
        <time>2016-09-12T10:37:27Z</time>
      </trkpt>
      <trkpt lat="45.98028" lon="4.59155">
        <ele>470</ele>
        <time>2016-09-12T10:37:28Z</time>
      </trkpt>
      <trkpt lat="45.98019" lon="4.59164">
        <ele>470</ele>
        <time>2016-09-12T10:37:29Z</time>
      </trkpt>
      <trkpt lat="45.98009" lon="4.59172">
        <ele>466</ele>
        <time>2016-09-12T10:37:30Z</time>
      </trkpt>
      <trkpt lat="45.98" lon="4.59179">
        <ele>470</ele>
        <time>2016-09-12T10:37:31Z</time>
      </trkpt>
      <trkpt lat="45.9799" lon="4.59187">
        <ele>471</ele>
        <time>2016-09-12T10:37:32Z</time>
      </trkpt>
      <trkpt lat="45.97981" lon="4.59196">
        <ele>471</ele>
        <time>2016-09-12T10:37:33Z</time>
      </trkpt>
      <trkpt lat="45.97973" lon="4.59206">
        <ele>472</ele>
        <time>2016-09-12T10:37:34Z</time>
      </trkpt>
      <trkpt lat="45.97968" lon="4.5922">
        <ele>471</ele>
        <time>2016-09-12T10:37:35Z</time>
      </trkpt>
      <trkpt lat="45.97965" lon="4.59234">
        <ele>471</ele>
        <time>2016-09-12T10:37:36Z</time>
      </trkpt>
      <trkpt lat="45.97964" lon="4.59249">
        <ele>471</ele>
        <time>2016-09-12T10:37:37Z</time>
      </trkpt>
      <trkpt lat="45.97965" lon="4.59265">
        <ele>468</ele>
        <time>2016-09-12T10:37:38Z</time>
      </trkpt>
      <trkpt lat="45.97967" lon="4.59279">
        <ele>468</ele>
        <time>2016-09-12T10:37:39Z</time>
      </trkpt>
      <trkpt lat="45.97969" lon="4.59293">
        <ele>468</ele>
        <time>2016-09-12T10:37:40Z</time>
      </trkpt>
      <trkpt lat="45.97973" lon="4.59308">
        <ele>467</ele>
        <time>2016-09-12T10:37:41Z</time>
      </trkpt>
      <trkpt lat="45.97976" lon="4.59322">
        <ele>465</ele>
        <time>2016-09-12T10:37:42Z</time>
      </trkpt>
      <trkpt lat="45.9798" lon="4.59336">
        <ele>462</ele>
        <time>2016-09-12T10:37:43Z</time>
      </trkpt>
      <trkpt lat="45.97983" lon="4.59351">
        <ele>463</ele>
        <time>2016-09-12T10:37:44Z</time>
      </trkpt>
      <trkpt lat="45.97986" lon="4.59365">
        <ele>463</ele>
        <time>2016-09-12T10:37:45Z</time>
      </trkpt>
      <trkpt lat="45.97988" lon="4.59379">
        <ele>463</ele>
        <time>2016-09-12T10:37:46Z</time>
      </trkpt>
      <trkpt lat="45.97989" lon="4.59392">
        <ele>462</ele>
        <time>2016-09-12T10:37:47Z</time>
      </trkpt>
      <trkpt lat="45.97988" lon="4.59405">
        <ele>460</ele>
        <time>2016-09-12T10:37:48Z</time>
      </trkpt>
      <trkpt lat="45.97984" lon="4.59418">
        <ele>457</ele>
        <time>2016-09-12T10:37:49Z</time>
      </trkpt>
      <trkpt lat="45.9798" lon="4.5943">
        <ele>458</ele>
        <time>2016-09-12T10:37:50Z</time>
      </trkpt>
      <trkpt lat="45.97975" lon="4.59441">
        <ele>458</ele>
        <time>2016-09-12T10:37:51Z</time>
      </trkpt>
      <trkpt lat="45.97969" lon="4.59452">
        <ele>458</ele>
        <time>2016-09-12T10:37:52Z</time>
      </trkpt>
      <trkpt lat="45.97963" lon="4.59464">
        <ele>458</ele>
        <time>2016-09-12T10:37:53Z</time>
      </trkpt>
      <trkpt lat="45.97958" lon="4.59476">
        <ele>458</ele>
        <time>2016-09-12T10:37:54Z</time>
      </trkpt>
      <trkpt lat="45.97954" lon="4.59488">
        <ele>458</ele>
        <time>2016-09-12T10:37:55Z</time>
      </trkpt>
      <trkpt lat="45.9795" lon="4.59502">
        <ele>451</ele>
        <time>2016-09-12T10:37:56Z</time>
      </trkpt>
      <trkpt lat="45.97948" lon="4.59516">
        <ele>450</ele>
        <time>2016-09-12T10:37:57Z</time>
      </trkpt>
      <trkpt lat="45.97947" lon="4.5953">
        <ele>449</ele>
        <time>2016-09-12T10:37:58Z</time>
      </trkpt>
      <trkpt lat="45.97944" lon="4.59544">
        <ele>448</ele>
        <time>2016-09-12T10:37:59Z</time>
      </trkpt>
      <trkpt lat="45.97942" lon="4.59558">
        <ele>447</ele>
        <time>2016-09-12T10:38:00Z</time>
      </trkpt>
      <trkpt lat="45.97938" lon="4.59571">
        <ele>447</ele>
        <time>2016-09-12T10:38:01Z</time>
      </trkpt>
      <trkpt lat="45.97933" lon="4.59583">
        <ele>447</ele>
        <time>2016-09-12T10:38:02Z</time>
      </trkpt>
      <trkpt lat="45.97926" lon="4.59592">
        <ele>443</ele>
        <time>2016-09-12T10:38:03Z</time>
      </trkpt>
      <trkpt lat="45.97917" lon="4.596">
        <ele>447</ele>
        <time>2016-09-12T10:38:04Z</time>
      </trkpt>
      <trkpt lat="45.97907" lon="4.59606">
        <ele>446</ele>
        <time>2016-09-12T10:38:05Z</time>
      </trkpt>
      <trkpt lat="45.97898" lon="4.59612">
        <ele>446</ele>
        <time>2016-09-12T10:38:06Z</time>
      </trkpt>
      <trkpt lat="45.97888" lon="4.59616">
        <ele>446</ele>
        <time>2016-09-12T10:38:07Z</time>
      </trkpt>
      <trkpt lat="45.97877" lon="4.59619">
        <ele>446</ele>
        <time>2016-09-12T10:38:08Z</time>
      </trkpt>
      <trkpt lat="45.97867" lon="4.59622">
        <ele>446</ele>
        <time>2016-09-12T10:38:09Z</time>
      </trkpt>
      <trkpt lat="45.97857" lon="4.59628">
        <ele>446</ele>
        <time>2016-09-12T10:38:10Z</time>
      </trkpt>
      <trkpt lat="45.97848" lon="4.59634">
        <ele>446</ele>
        <time>2016-09-12T10:38:11Z</time>
      </trkpt>
      <trkpt lat="45.97839" lon="4.59641">
        <ele>444</ele>
        <time>2016-09-12T10:38:12Z</time>
      </trkpt>
      <trkpt lat="45.97829" lon="4.5965">
        <ele>446</ele>
        <time>2016-09-12T10:38:13Z</time>
      </trkpt>
      <trkpt lat="45.97821" lon="4.59659">
        <ele>445</ele>
        <time>2016-09-12T10:38:14Z</time>
      </trkpt>
      <trkpt lat="45.97813" lon="4.5967">
        <ele>440</ele>
        <time>2016-09-12T10:38:15Z</time>
      </trkpt>
      <trkpt lat="45.97806" lon="4.59682">
        <ele>441</ele>
        <time>2016-09-12T10:38:16Z</time>
      </trkpt>
      <trkpt lat="45.97801" lon="4.59695">
        <ele>440</ele>
        <time>2016-09-12T10:38:17Z</time>
      </trkpt>
      <trkpt lat="45.97796" lon="4.59709">
        <ele>440</ele>
        <time>2016-09-12T10:38:18Z</time>
      </trkpt>
      <trkpt lat="45.97792" lon="4.59724">
        <ele>440</ele>
        <time>2016-09-12T10:38:19Z</time>
      </trkpt>
      <trkpt lat="45.9779" lon="4.59739">
        <ele>439</ele>
        <time>2016-09-12T10:38:20Z</time>
      </trkpt>
      <trkpt lat="45.97788" lon="4.59754">
        <ele>435</ele>
        <time>2016-09-12T10:38:21Z</time>
      </trkpt>
      <trkpt lat="45.97786" lon="4.5977">
        <ele>435</ele>
        <time>2016-09-12T10:38:22Z</time>
      </trkpt>
      <trkpt lat="45.97784" lon="4.59785">
        <ele>435</ele>
        <time>2016-09-12T10:38:23Z</time>
      </trkpt>
      <trkpt lat="45.97782" lon="4.59801">
        <ele>434</ele>
        <time>2016-09-12T10:38:24Z</time>
      </trkpt>
      <trkpt lat="45.9778" lon="4.59816">
        <ele>434</ele>
        <time>2016-09-12T10:38:25Z</time>
      </trkpt>
      <trkpt lat="45.97778" lon="4.59832">
        <ele>434</ele>
        <time>2016-09-12T10:38:26Z</time>
      </trkpt>
      <trkpt lat="45.97775" lon="4.59849">
        <ele>431</ele>
        <time>2016-09-12T10:38:27Z</time>
      </trkpt>
      <trkpt lat="45.97773" lon="4.59865">
        <ele>431</ele>
        <time>2016-09-12T10:38:28Z</time>
      </trkpt>
      <trkpt lat="45.97771" lon="4.59881">
        <ele>430</ele>
        <time>2016-09-12T10:38:29Z</time>
      </trkpt>
      <trkpt lat="45.97769" lon="4.59898">
        <ele>430</ele>
        <time>2016-09-12T10:38:30Z</time>
      </trkpt>
      <trkpt lat="45.97767" lon="4.59914">
        <ele>430</ele>
        <time>2016-09-12T10:38:31Z</time>
      </trkpt>
      <trkpt lat="45.97766" lon="4.59931">
        <ele>426</ele>
        <time>2016-09-12T10:38:32Z</time>
      </trkpt>
      <trkpt lat="45.97764" lon="4.59948">
        <ele>425</ele>
        <time>2016-09-12T10:38:33Z</time>
      </trkpt>
      <trkpt lat="45.97761" lon="4.59964">
        <ele>425</ele>
        <time>2016-09-12T10:38:34Z</time>
      </trkpt>
      <trkpt lat="45.97759" lon="4.5998">
        <ele>424</ele>
        <time>2016-09-12T10:38:35Z</time>
      </trkpt>
      <trkpt lat="45.97757" lon="4.59996">
        <ele>425</ele>
        <time>2016-09-12T10:38:36Z</time>
      </trkpt>
      <trkpt lat="45.97755" lon="4.60012">
        <ele>422</ele>
        <time>2016-09-12T10:38:37Z</time>
      </trkpt>
      <trkpt lat="45.97752" lon="4.60028">
        <ele>420</ele>
        <time>2016-09-12T10:38:38Z</time>
      </trkpt>
      <trkpt lat="45.9775" lon="4.60044">
        <ele>424</ele>
        <time>2016-09-12T10:38:39Z</time>
      </trkpt>
      <trkpt lat="45.97748" lon="4.60059">
        <ele>423</ele>
        <time>2016-09-12T10:38:40Z</time>
      </trkpt>
      <trkpt lat="45.97745" lon="4.60075">
        <ele>421</ele>
        <time>2016-09-12T10:38:41Z</time>
      </trkpt>
      <trkpt lat="45.97742" lon="4.6009">
        <ele>420</ele>
        <time>2016-09-12T10:38:42Z</time>
      </trkpt>
      <trkpt lat="45.97739" lon="4.60105">
        <ele>420</ele>
        <time>2016-09-12T10:38:43Z</time>
      </trkpt>
      <trkpt lat="45.97735" lon="4.60119">
        <ele>420</ele>
        <time>2016-09-12T10:38:44Z</time>
      </trkpt>
      <trkpt lat="45.97731" lon="4.60133">
        <ele>419</ele>
        <time>2016-09-12T10:38:45Z</time>
      </trkpt>
      <trkpt lat="45.97727" lon="4.60147">
        <ele>419</ele>
        <time>2016-09-12T10:38:46Z</time>
      </trkpt>
      <trkpt lat="45.97723" lon="4.6016">
        <ele>419</ele>
        <time>2016-09-12T10:38:47Z</time>
      </trkpt>
      <trkpt lat="45.97719" lon="4.60174">
        <ele>417</ele>
        <time>2016-09-12T10:38:48Z</time>
      </trkpt>
      <trkpt lat="45.97715" lon="4.60187">
        <ele>417</ele>
        <time>2016-09-12T10:38:49Z</time>
      </trkpt>
      <trkpt lat="45.97711" lon="4.60199">
        <ele>417</ele>
        <time>2016-09-12T10:38:50Z</time>
      </trkpt>
      <trkpt lat="45.97707" lon="4.60212">
        <ele>417</ele>
        <time>2016-09-12T10:38:51Z</time>
      </trkpt>
      <trkpt lat="45.97703" lon="4.60224">
        <ele>417</ele>
        <time>2016-09-12T10:38:52Z</time>
      </trkpt>
      <trkpt lat="45.977" lon="4.60236">
        <ele>417</ele>
        <time>2016-09-12T10:38:53Z</time>
      </trkpt>
      <trkpt lat="45.97696" lon="4.60247">
        <ele>417</ele>
        <time>2016-09-12T10:38:54Z</time>
      </trkpt>
      <trkpt lat="45.97692" lon="4.60259">
        <ele>415</ele>
        <time>2016-09-12T10:38:55Z</time>
      </trkpt>
      <trkpt lat="45.97688" lon="4.6027">
        <ele>415</ele>
        <time>2016-09-12T10:38:56Z</time>
      </trkpt>
      <trkpt lat="45.97684" lon="4.60281">
        <ele>414</ele>
        <time>2016-09-12T10:38:57Z</time>
      </trkpt>
      <trkpt lat="45.97681" lon="4.60293">
        <ele>414</ele>
        <time>2016-09-12T10:38:58Z</time>
      </trkpt>
      <trkpt lat="45.97678" lon="4.60304">
        <ele>413</ele>
        <time>2016-09-12T10:38:59Z</time>
      </trkpt>
      <trkpt lat="45.97674" lon="4.60316">
        <ele>413</ele>
        <time>2016-09-12T10:39:00Z</time>
      </trkpt>
      <trkpt lat="45.97671" lon="4.60327">
        <ele>413</ele>
        <time>2016-09-12T10:39:01Z</time>
      </trkpt>
      <trkpt lat="45.97668" lon="4.60338">
        <ele>412</ele>
        <time>2016-09-12T10:39:02Z</time>
      </trkpt>
      <trkpt lat="45.97664" lon="4.60348">
        <ele>414</ele>
        <time>2016-09-12T10:39:03Z</time>
      </trkpt>
      <trkpt lat="45.97661" lon="4.60358">
        <ele>414</ele>
        <time>2016-09-12T10:39:04Z</time>
      </trkpt>
      <trkpt lat="45.97657" lon="4.60369">
        <ele>414</ele>
        <time>2016-09-12T10:39:05Z</time>
      </trkpt>
      <trkpt lat="45.97654" lon="4.6038">
        <ele>413</ele>
        <time>2016-09-12T10:39:06Z</time>
      </trkpt>
      <trkpt lat="45.97651" lon="4.6039">
        <ele>413</ele>
        <time>2016-09-12T10:39:07Z</time>
      </trkpt>
      <trkpt lat="45.97648" lon="4.604">
        <ele>412</ele>
        <time>2016-09-12T10:39:08Z</time>
      </trkpt>
      <trkpt lat="45.97644" lon="4.6041">
        <ele>412</ele>
        <time>2016-09-12T10:39:09Z</time>
      </trkpt>
      <trkpt lat="45.97641" lon="4.60421">
        <ele>409</ele>
        <time>2016-09-12T10:39:10Z</time>
      </trkpt>
      <trkpt lat="45.97638" lon="4.60431">
        <ele>409</ele>
        <time>2016-09-12T10:39:11Z</time>
      </trkpt>
      <trkpt lat="45.97634" lon="4.60441">
        <ele>410</ele>
        <time>2016-09-12T10:39:12Z</time>
      </trkpt>
      <trkpt lat="45.9763" lon="4.60451">
        <ele>409</ele>
        <time>2016-09-12T10:39:13Z</time>
      </trkpt>
      <trkpt lat="45.97626" lon="4.6046">
        <ele>409</ele>
        <time>2016-09-12T10:39:14Z</time>
      </trkpt>
      <trkpt lat="45.97622" lon="4.6047">
        <ele>409</ele>
        <time>2016-09-12T10:39:15Z</time>
      </trkpt>
      <trkpt lat="45.97617" lon="4.6048">
        <ele>409</ele>
        <time>2016-09-12T10:39:16Z</time>
      </trkpt>
      <trkpt lat="45.97612" lon="4.6049">
        <ele>409</ele>
        <time>2016-09-12T10:39:17Z</time>
      </trkpt>
      <trkpt lat="45.97607" lon="4.605">
        <ele>409</ele>
        <time>2016-09-12T10:39:18Z</time>
      </trkpt>
      <trkpt lat="45.97602" lon="4.60509">
        <ele>406</ele>
        <time>2016-09-12T10:39:19Z</time>
      </trkpt>
      <trkpt lat="45.97597" lon="4.60519">
        <ele>406</ele>
        <time>2016-09-12T10:39:20Z</time>
      </trkpt>
      <trkpt lat="45.97592" lon="4.60529">
        <ele>406</ele>
        <time>2016-09-12T10:39:21Z</time>
      </trkpt>
      <trkpt lat="45.97587" lon="4.60539">
        <ele>405</ele>
        <time>2016-09-12T10:39:22Z</time>
      </trkpt>
      <trkpt lat="45.97582" lon="4.6055">
        <ele>405</ele>
        <time>2016-09-12T10:39:23Z</time>
      </trkpt>
      <trkpt lat="45.97577" lon="4.60561">
        <ele>405</ele>
        <time>2016-09-12T10:39:24Z</time>
      </trkpt>
      <trkpt lat="45.97571" lon="4.60571">
        <ele>404</ele>
        <time>2016-09-12T10:39:25Z</time>
      </trkpt>
      <trkpt lat="45.97565" lon="4.60582">
        <ele>404</ele>
        <time>2016-09-12T10:39:26Z</time>
      </trkpt>
      <trkpt lat="45.9756" lon="4.60593">
        <ele>402</ele>
        <time>2016-09-12T10:39:27Z</time>
      </trkpt>
      <trkpt lat="45.97555" lon="4.60604">
        <ele>402</ele>
        <time>2016-09-12T10:39:28Z</time>
      </trkpt>
      <trkpt lat="45.97549" lon="4.60614">
        <ele>402</ele>
        <time>2016-09-12T10:39:29Z</time>
      </trkpt>
      <trkpt lat="45.97544" lon="4.60625">
        <ele>402</ele>
        <time>2016-09-12T10:39:30Z</time>
      </trkpt>
      <trkpt lat="45.97539" lon="4.60636">
        <ele>402</ele>
        <time>2016-09-12T10:39:31Z</time>
      </trkpt>
      <trkpt lat="45.97533" lon="4.60646">
        <ele>402</ele>
        <time>2016-09-12T10:39:32Z</time>
      </trkpt>
      <trkpt lat="45.97528" lon="4.60656">
        <ele>402</ele>
        <time>2016-09-12T10:39:33Z</time>
      </trkpt>
      <trkpt lat="45.97523" lon="4.60667">
        <ele>399</ele>
        <time>2016-09-12T10:39:34Z</time>
      </trkpt>
      <trkpt lat="45.97518" lon="4.60677">
        <ele>399</ele>
        <time>2016-09-12T10:39:35Z</time>
      </trkpt>
      <trkpt lat="45.97513" lon="4.60687">
        <ele>399</ele>
        <time>2016-09-12T10:39:36Z</time>
      </trkpt>
      <trkpt lat="45.97509" lon="4.60696">
        <ele>398</ele>
        <time>2016-09-12T10:39:37Z</time>
      </trkpt>
      <trkpt lat="45.97504" lon="4.60706">
        <ele>398</ele>
        <time>2016-09-12T10:39:38Z</time>
      </trkpt>
      <trkpt lat="45.975" lon="4.60715">
        <ele>397</ele>
        <time>2016-09-12T10:39:39Z</time>
      </trkpt>
      <trkpt lat="45.97497" lon="4.60725">
        <ele>402</ele>
        <time>2016-09-12T10:39:40Z</time>
      </trkpt>
      <trkpt lat="45.97494" lon="4.60735">
        <ele>401</ele>
        <time>2016-09-12T10:39:41Z</time>
      </trkpt>
      <trkpt lat="45.9749" lon="4.60744">
        <ele>401</ele>
        <time>2016-09-12T10:39:42Z</time>
      </trkpt>
      <trkpt lat="45.97487" lon="4.60754">
        <ele>401</ele>
        <time>2016-09-12T10:39:43Z</time>
      </trkpt>
      <trkpt lat="45.97484" lon="4.60763">
        <ele>402</ele>
        <time>2016-09-12T10:39:44Z</time>
      </trkpt>
      <trkpt lat="45.97481" lon="4.60773">
        <ele>403</ele>
        <time>2016-09-12T10:39:45Z</time>
      </trkpt>
      <trkpt lat="45.97479" lon="4.60782">
        <ele>403</ele>
        <time>2016-09-12T10:39:46Z</time>
      </trkpt>
      <trkpt lat="45.97477" lon="4.60792">
        <ele>403</ele>
        <time>2016-09-12T10:39:47Z</time>
      </trkpt>
      <trkpt lat="45.97475" lon="4.60802">
        <ele>403</ele>
        <time>2016-09-12T10:39:48Z</time>
      </trkpt>
      <trkpt lat="45.97473" lon="4.60812">
        <ele>403</ele>
        <time>2016-09-12T10:39:49Z</time>
      </trkpt>
      <trkpt lat="45.97471" lon="4.60821">
        <ele>403</ele>
        <time>2016-09-12T10:39:50Z</time>
      </trkpt>
      <trkpt lat="45.97469" lon="4.60831">
        <ele>403</ele>
        <time>2016-09-12T10:39:51Z</time>
      </trkpt>
      <trkpt lat="45.97468" lon="4.60841">
        <ele>401</ele>
        <time>2016-09-12T10:39:52Z</time>
      </trkpt>
      <trkpt lat="45.97466" lon="4.60849">
        <ele>402</ele>
        <time>2016-09-12T10:39:53Z</time>
      </trkpt>
      <trkpt lat="45.97465" lon="4.60859">
        <ele>402</ele>
        <time>2016-09-12T10:39:54Z</time>
      </trkpt>
      <trkpt lat="45.97464" lon="4.60867">
        <ele>402</ele>
        <time>2016-09-12T10:39:55Z</time>
      </trkpt>
      <trkpt lat="45.97462" lon="4.60875">
        <ele>402</ele>
        <time>2016-09-12T10:39:56Z</time>
      </trkpt>
      <trkpt lat="45.9746" lon="4.60883">
        <ele>402</ele>
        <time>2016-09-12T10:39:57Z</time>
      </trkpt>
      <trkpt lat="45.97459" lon="4.60892">
        <ele>402</ele>
        <time>2016-09-12T10:39:58Z</time>
      </trkpt>
      <trkpt lat="45.97457" lon="4.60901">
        <ele>402</ele>
        <time>2016-09-12T10:39:59Z</time>
      </trkpt>
      <trkpt lat="45.97455" lon="4.6091">
        <ele>402</ele>
        <time>2016-09-12T10:40:00Z</time>
      </trkpt>
      <trkpt lat="45.97453" lon="4.60919">
        <ele>399</ele>
        <time>2016-09-12T10:40:01Z</time>
      </trkpt>
      <trkpt lat="45.97452" lon="4.60929">
        <ele>399</ele>
        <time>2016-09-12T10:40:02Z</time>
      </trkpt>
      <trkpt lat="45.9745" lon="4.60938">
        <ele>399</ele>
        <time>2016-09-12T10:40:03Z</time>
      </trkpt>
      <trkpt lat="45.97447" lon="4.60947">
        <ele>399</ele>
        <time>2016-09-12T10:40:04Z</time>
      </trkpt>
      <trkpt lat="45.97445" lon="4.60957">
        <ele>399</ele>
        <time>2016-09-12T10:40:05Z</time>
      </trkpt>
      <trkpt lat="45.97443" lon="4.60967">
        <ele>399</ele>
        <time>2016-09-12T10:40:06Z</time>
      </trkpt>
      <trkpt lat="45.97441" lon="4.60978">
        <ele>399</ele>
        <time>2016-09-12T10:40:07Z</time>
      </trkpt>
      <trkpt lat="45.97439" lon="4.60988">
        <ele>400</ele>
        <time>2016-09-12T10:40:08Z</time>
      </trkpt>
      <trkpt lat="45.97436" lon="4.60998">
        <ele>401</ele>
        <time>2016-09-12T10:40:09Z</time>
      </trkpt>
      <trkpt lat="45.97435" lon="4.61008">
        <ele>397</ele>
        <time>2016-09-12T10:40:10Z</time>
      </trkpt>
      <trkpt lat="45.97433" lon="4.61018">
        <ele>396</ele>
        <time>2016-09-12T10:40:11Z</time>
      </trkpt>
      <trkpt lat="45.9743" lon="4.61027">
        <ele>395</ele>
        <time>2016-09-12T10:40:12Z</time>
      </trkpt>
      <trkpt lat="45.97428" lon="4.61037">
        <ele>393</ele>
        <time>2016-09-12T10:40:13Z</time>
      </trkpt>
      <trkpt lat="45.97425" lon="4.61047">
        <ele>393</ele>
        <time>2016-09-12T10:40:14Z</time>
      </trkpt>
      <trkpt lat="45.97422" lon="4.61057">
        <ele>392</ele>
        <time>2016-09-12T10:40:15Z</time>
      </trkpt>
      <trkpt lat="45.97419" lon="4.61067">
        <ele>392</ele>
        <time>2016-09-12T10:40:16Z</time>
      </trkpt>
      <trkpt lat="45.97417" lon="4.61077">
        <ele>397</ele>
        <time>2016-09-12T10:40:17Z</time>
      </trkpt>
      <trkpt lat="45.97414" lon="4.61087">
        <ele>394</ele>
        <time>2016-09-12T10:40:18Z</time>
      </trkpt>
      <trkpt lat="45.97412" lon="4.61097">
        <ele>396</ele>
        <time>2016-09-12T10:40:19Z</time>
      </trkpt>
      <trkpt lat="45.97409" lon="4.61107">
        <ele>397</ele>
        <time>2016-09-12T10:40:20Z</time>
      </trkpt>
      <trkpt lat="45.97406" lon="4.61117">
        <ele>397</ele>
        <time>2016-09-12T10:40:21Z</time>
      </trkpt>
      <trkpt lat="45.97404" lon="4.61127">
        <ele>397</ele>
        <time>2016-09-12T10:40:22Z</time>
      </trkpt>
      <trkpt lat="45.97401" lon="4.61137">
        <ele>396</ele>
        <time>2016-09-12T10:40:23Z</time>
      </trkpt>
      <trkpt lat="45.97399" lon="4.61147">
        <ele>395</ele>
        <time>2016-09-12T10:40:24Z</time>
      </trkpt>
      <trkpt lat="45.97398" lon="4.61158">
        <ele>394</ele>
        <time>2016-09-12T10:40:25Z</time>
      </trkpt>
      <trkpt lat="45.97396" lon="4.61168">
        <ele>393</ele>
        <time>2016-09-12T10:40:26Z</time>
      </trkpt>
      <trkpt lat="45.97395" lon="4.61179">
        <ele>393</ele>
        <time>2016-09-12T10:40:27Z</time>
      </trkpt>
      <trkpt lat="45.97394" lon="4.61189">
        <ele>394</ele>
        <time>2016-09-12T10:40:28Z</time>
      </trkpt>
      <trkpt lat="45.97394" lon="4.61201">
        <ele>395</ele>
        <time>2016-09-12T10:40:29Z</time>
      </trkpt>
      <trkpt lat="45.97395" lon="4.61212">
        <ele>395</ele>
        <time>2016-09-12T10:40:30Z</time>
      </trkpt>
      <trkpt lat="45.97395" lon="4.61223">
        <ele>395</ele>
        <time>2016-09-12T10:40:31Z</time>
      </trkpt>
      <trkpt lat="45.97396" lon="4.61234">
        <ele>395</ele>
        <time>2016-09-12T10:40:32Z</time>
      </trkpt>
      <trkpt lat="45.97398" lon="4.61245">
        <ele>394</ele>
        <time>2016-09-12T10:40:33Z</time>
      </trkpt>
      <trkpt lat="45.974" lon="4.61256">
        <ele>395</ele>
        <time>2016-09-12T10:40:34Z</time>
      </trkpt>
      <trkpt lat="45.97403" lon="4.61267">
        <ele>396</ele>
        <time>2016-09-12T10:40:35Z</time>
      </trkpt>
      <trkpt lat="45.97405" lon="4.61278">
        <ele>397</ele>
        <time>2016-09-12T10:40:36Z</time>
      </trkpt>
      <trkpt lat="45.97408" lon="4.61287">
        <ele>397</ele>
        <time>2016-09-12T10:40:37Z</time>
      </trkpt>
      <trkpt lat="45.9741" lon="4.61297">
        <ele>397</ele>
        <time>2016-09-12T10:40:38Z</time>
      </trkpt>
      <trkpt lat="45.97412" lon="4.61305">
        <ele>398</ele>
        <time>2016-09-12T10:40:39Z</time>
      </trkpt>
      <trkpt lat="45.97414" lon="4.61313">
        <ele>397</ele>
        <time>2016-09-12T10:40:40Z</time>
      </trkpt>
      <trkpt lat="45.97417" lon="4.61321">
        <ele>397</ele>
        <time>2016-09-12T10:40:41Z</time>
      </trkpt>
      <trkpt lat="45.97419" lon="4.61329">
        <ele>394</ele>
        <time>2016-09-12T10:40:42Z</time>
      </trkpt>
      <trkpt lat="45.97421" lon="4.61336">
        <ele>395</ele>
        <time>2016-09-12T10:40:43Z</time>
      </trkpt>
      <trkpt lat="45.97423" lon="4.61345">
        <ele>394</ele>
        <time>2016-09-12T10:40:44Z</time>
      </trkpt>
      <trkpt lat="45.97425" lon="4.61353">
        <ele>394</ele>
        <time>2016-09-12T10:40:45Z</time>
      </trkpt>
      <trkpt lat="45.97427" lon="4.6136">
        <ele>394</ele>
        <time>2016-09-12T10:40:46Z</time>
      </trkpt>
      <trkpt lat="45.97429" lon="4.61368">
        <ele>394</ele>
        <time>2016-09-12T10:40:47Z</time>
      </trkpt>
      <trkpt lat="45.97431" lon="4.61376">
        <ele>394</ele>
        <time>2016-09-12T10:40:48Z</time>
      </trkpt>
      <trkpt lat="45.97434" lon="4.61383">
        <ele>394</ele>
        <time>2016-09-12T10:40:49Z</time>
      </trkpt>
      <trkpt lat="45.97435" lon="4.61391">
        <ele>394</ele>
        <time>2016-09-12T10:40:50Z</time>
      </trkpt>
      <trkpt lat="45.97436" lon="4.61399">
        <ele>394</ele>
        <time>2016-09-12T10:40:51Z</time>
      </trkpt>
      <trkpt lat="45.97437" lon="4.61407">
        <ele>395</ele>
        <time>2016-09-12T10:40:52Z</time>
      </trkpt>
      <trkpt lat="45.97439" lon="4.61415">
        <ele>395</ele>
        <time>2016-09-12T10:40:53Z</time>
      </trkpt>
      <trkpt lat="45.97441" lon="4.61423">
        <ele>396</ele>
        <time>2016-09-12T10:40:54Z</time>
      </trkpt>
      <trkpt lat="45.97442" lon="4.6143">
        <ele>396</ele>
        <time>2016-09-12T10:40:55Z</time>
      </trkpt>
      <trkpt lat="45.97444" lon="4.61438">
        <ele>395</ele>
        <time>2016-09-12T10:40:56Z</time>
      </trkpt>
      <trkpt lat="45.97445" lon="4.61445">
        <ele>395</ele>
        <time>2016-09-12T10:40:57Z</time>
      </trkpt>
      <trkpt lat="45.97447" lon="4.61453">
        <ele>395</ele>
        <time>2016-09-12T10:40:58Z</time>
      </trkpt>
      <trkpt lat="45.97448" lon="4.6146">
        <ele>395</ele>
        <time>2016-09-12T10:40:59Z</time>
      </trkpt>
      <trkpt lat="45.97449" lon="4.61467">
        <ele>395</ele>
        <time>2016-09-12T10:41:00Z</time>
      </trkpt>
      <trkpt lat="45.97451" lon="4.61474">
        <ele>395</ele>
        <time>2016-09-12T10:41:01Z</time>
      </trkpt>
      <trkpt lat="45.97452" lon="4.6148">
        <ele>395</ele>
        <time>2016-09-12T10:41:02Z</time>
      </trkpt>
      <trkpt lat="45.97453" lon="4.61487">
        <ele>395</ele>
        <time>2016-09-12T10:41:03Z</time>
      </trkpt>
      <trkpt lat="45.97454" lon="4.61495">
        <ele>395</ele>
        <time>2016-09-12T10:41:04Z</time>
      </trkpt>
      <trkpt lat="45.97455" lon="4.61503">
        <ele>396</ele>
        <time>2016-09-12T10:41:05Z</time>
      </trkpt>
      <trkpt lat="45.97457" lon="4.61512">
        <ele>396</ele>
        <time>2016-09-12T10:41:06Z</time>
      </trkpt>
      <trkpt lat="45.97459" lon="4.6152">
        <ele>395</ele>
        <time>2016-09-12T10:41:07Z</time>
      </trkpt>
      <trkpt lat="45.9746" lon="4.61528">
        <ele>395</ele>
        <time>2016-09-12T10:41:08Z</time>
      </trkpt>
      <trkpt lat="45.97461" lon="4.61537">
        <ele>395</ele>
        <time>2016-09-12T10:41:09Z</time>
      </trkpt>
      <trkpt lat="45.97463" lon="4.61546">
        <ele>395</ele>
        <time>2016-09-12T10:41:10Z</time>
      </trkpt>
      <trkpt lat="45.97463" lon="4.61555">
        <ele>395</ele>
        <time>2016-09-12T10:41:11Z</time>
      </trkpt>
      <trkpt lat="45.97465" lon="4.61563">
        <ele>395</ele>
        <time>2016-09-12T10:41:12Z</time>
      </trkpt>
      <trkpt lat="45.97466" lon="4.61572">
        <ele>395</ele>
        <time>2016-09-12T10:41:13Z</time>
      </trkpt>
      <trkpt lat="45.97467" lon="4.6158">
        <ele>395</ele>
        <time>2016-09-12T10:41:14Z</time>
      </trkpt>
      <trkpt lat="45.97468" lon="4.61587">
        <ele>394</ele>
        <time>2016-09-12T10:41:15Z</time>
      </trkpt>
      <trkpt lat="45.97468" lon="4.61596">
        <ele>394</ele>
        <time>2016-09-12T10:41:16Z</time>
      </trkpt>
      <trkpt lat="45.97469" lon="4.61603">
        <ele>394</ele>
        <time>2016-09-12T10:41:17Z</time>
      </trkpt>
      <trkpt lat="45.97469" lon="4.61612">
        <ele>393</ele>
        <time>2016-09-12T10:41:18Z</time>
      </trkpt>
      <trkpt lat="45.97469" lon="4.6162">
        <ele>393</ele>
        <time>2016-09-12T10:41:19Z</time>
      </trkpt>
      <trkpt lat="45.97468" lon="4.61629">
        <ele>393</ele>
        <time>2016-09-12T10:41:20Z</time>
      </trkpt>
      <trkpt lat="45.97467" lon="4.61637">
        <ele>393</ele>
        <time>2016-09-12T10:41:21Z</time>
      </trkpt>
      <trkpt lat="45.97467" lon="4.61646">
        <ele>393</ele>
        <time>2016-09-12T10:41:22Z</time>
      </trkpt>
      <trkpt lat="45.97467" lon="4.61656">
        <ele>392</ele>
        <time>2016-09-12T10:41:23Z</time>
      </trkpt>
      <trkpt lat="45.97467" lon="4.61666">
        <ele>392</ele>
        <time>2016-09-12T10:41:24Z</time>
      </trkpt>
      <trkpt lat="45.97466" lon="4.61676">
        <ele>390</ele>
        <time>2016-09-12T10:41:25Z</time>
      </trkpt>
      <trkpt lat="45.97465" lon="4.61686">
        <ele>390</ele>
        <time>2016-09-12T10:41:26Z</time>
      </trkpt>
      <trkpt lat="45.97464" lon="4.61697">
        <ele>390</ele>
        <time>2016-09-12T10:41:27Z</time>
      </trkpt>
      <trkpt lat="45.97463" lon="4.61708">
        <ele>390</ele>
        <time>2016-09-12T10:41:28Z</time>
      </trkpt>
      <trkpt lat="45.97461" lon="4.61719">
        <ele>390</ele>
        <time>2016-09-12T10:41:29Z</time>
      </trkpt>
      <trkpt lat="45.9746" lon="4.6173">
        <ele>389</ele>
        <time>2016-09-12T10:41:30Z</time>
      </trkpt>
      <trkpt lat="45.97458" lon="4.6174">
        <ele>389</ele>
        <time>2016-09-12T10:41:31Z</time>
      </trkpt>
      <trkpt lat="45.97455" lon="4.61751">
        <ele>387</ele>
        <time>2016-09-12T10:41:32Z</time>
      </trkpt>
      <trkpt lat="45.97453" lon="4.61762">
        <ele>387</ele>
        <time>2016-09-12T10:41:33Z</time>
      </trkpt>
      <trkpt lat="45.97451" lon="4.61774">
        <ele>387</ele>
        <time>2016-09-12T10:41:34Z</time>
      </trkpt>
      <trkpt lat="45.97448" lon="4.61785">
        <ele>387</ele>
        <time>2016-09-12T10:41:35Z</time>
      </trkpt>
      <trkpt lat="45.97445" lon="4.61796">
        <ele>386</ele>
        <time>2016-09-12T10:41:36Z</time>
      </trkpt>
      <trkpt lat="45.97442" lon="4.61807">
        <ele>386</ele>
        <time>2016-09-12T10:41:37Z</time>
      </trkpt>
      <trkpt lat="45.97439" lon="4.61819">
        <ele>386</ele>
        <time>2016-09-12T10:41:38Z</time>
      </trkpt>
      <trkpt lat="45.97437" lon="4.61831">
        <ele>386</ele>
        <time>2016-09-12T10:41:39Z</time>
      </trkpt>
      <trkpt lat="45.97436" lon="4.61844">
        <ele>384</ele>
        <time>2016-09-12T10:41:40Z</time>
      </trkpt>
      <trkpt lat="45.97436" lon="4.61857">
        <ele>384</ele>
        <time>2016-09-12T10:41:41Z</time>
      </trkpt>
      <trkpt lat="45.97437" lon="4.61869">
        <ele>384</ele>
        <time>2016-09-12T10:41:42Z</time>
      </trkpt>
      <trkpt lat="45.97437" lon="4.61883">
        <ele>383</ele>
        <time>2016-09-12T10:41:43Z</time>
      </trkpt>
      <trkpt lat="45.97438" lon="4.61896">
        <ele>383</ele>
        <time>2016-09-12T10:41:44Z</time>
      </trkpt>
      <trkpt lat="45.97439" lon="4.61909">
        <ele>383</ele>
        <time>2016-09-12T10:41:45Z</time>
      </trkpt>
      <trkpt lat="45.9744" lon="4.61922">
        <ele>381</ele>
        <time>2016-09-12T10:41:46Z</time>
      </trkpt>
      <trkpt lat="45.97441" lon="4.61936">
        <ele>381</ele>
        <time>2016-09-12T10:41:47Z</time>
      </trkpt>
      <trkpt lat="45.97441" lon="4.6195">
        <ele>381</ele>
        <time>2016-09-12T10:41:48Z</time>
      </trkpt>
      <trkpt lat="45.97442" lon="4.61963">
        <ele>380</ele>
        <time>2016-09-12T10:41:49Z</time>
      </trkpt>
      <trkpt lat="45.97443" lon="4.61977">
        <ele>380</ele>
        <time>2016-09-12T10:41:50Z</time>
      </trkpt>
      <trkpt lat="45.97443" lon="4.61991">
        <ele>380</ele>
        <time>2016-09-12T10:41:51Z</time>
      </trkpt>
      <trkpt lat="45.97444" lon="4.62005">
        <ele>379</ele>
        <time>2016-09-12T10:41:52Z</time>
      </trkpt>
      <trkpt lat="45.97444" lon="4.62019">
        <ele>379</ele>
        <time>2016-09-12T10:41:53Z</time>
      </trkpt>
      <trkpt lat="45.97445" lon="4.62033">
        <ele>379</ele>
        <time>2016-09-12T10:41:54Z</time>
      </trkpt>
      <trkpt lat="45.97445" lon="4.62048">
        <ele>379</ele>
        <time>2016-09-12T10:41:55Z</time>
      </trkpt>
      <trkpt lat="45.97446" lon="4.62062">
        <ele>379</ele>
        <time>2016-09-12T10:41:56Z</time>
      </trkpt>
      <trkpt lat="45.97446" lon="4.62077">
        <ele>379</ele>
        <time>2016-09-12T10:41:57Z</time>
      </trkpt>
      <trkpt lat="45.97445" lon="4.62091">
        <ele>377</ele>
        <time>2016-09-12T10:41:58Z</time>
      </trkpt>
      <trkpt lat="45.97444" lon="4.62106">
        <ele>377</ele>
        <time>2016-09-12T10:41:59Z</time>
      </trkpt>
      <trkpt lat="45.97443" lon="4.62121">
        <ele>376</ele>
        <time>2016-09-12T10:42:00Z</time>
      </trkpt>
      <trkpt lat="45.97443" lon="4.62135">
        <ele>375</ele>
        <time>2016-09-12T10:42:01Z</time>
      </trkpt>
      <trkpt lat="45.97441" lon="4.6215">
        <ele>375</ele>
        <time>2016-09-12T10:42:02Z</time>
      </trkpt>
      <trkpt lat="45.9744" lon="4.62165">
        <ele>375</ele>
        <time>2016-09-12T10:42:03Z</time>
      </trkpt>
      <trkpt lat="45.97438" lon="4.6218">
        <ele>372</ele>
        <time>2016-09-12T10:42:04Z</time>
      </trkpt>
      <trkpt lat="45.97437" lon="4.62195">
        <ele>371</ele>
        <time>2016-09-12T10:42:05Z</time>
      </trkpt>
      <trkpt lat="45.97436" lon="4.6221">
        <ele>371</ele>
        <time>2016-09-12T10:42:06Z</time>
      </trkpt>
      <trkpt lat="45.97435" lon="4.62225">
        <ele>370</ele>
        <time>2016-09-12T10:42:07Z</time>
      </trkpt>
      <trkpt lat="45.97434" lon="4.62239">
        <ele>370</ele>
        <time>2016-09-12T10:42:08Z</time>
      </trkpt>
      <trkpt lat="45.97432" lon="4.62254">
        <ele>368</ele>
        <time>2016-09-12T10:42:09Z</time>
      </trkpt>
      <trkpt lat="45.97431" lon="4.62269">
        <ele>368</ele>
        <time>2016-09-12T10:42:10Z</time>
      </trkpt>
      <trkpt lat="45.97431" lon="4.62283">
        <ele>367</ele>
        <time>2016-09-12T10:42:11Z</time>
      </trkpt>
      <trkpt lat="45.9743" lon="4.62298">
        <ele>367</ele>
        <time>2016-09-12T10:42:12Z</time>
      </trkpt>
      <trkpt lat="45.97429" lon="4.62312">
        <ele>367</ele>
        <time>2016-09-12T10:42:13Z</time>
      </trkpt>
      <trkpt lat="45.97428" lon="4.62327">
        <ele>367</ele>
        <time>2016-09-12T10:42:14Z</time>
      </trkpt>
      <trkpt lat="45.97427" lon="4.62341">
        <ele>365</ele>
        <time>2016-09-12T10:42:15Z</time>
      </trkpt>
      <trkpt lat="45.97425" lon="4.62356">
        <ele>364</ele>
        <time>2016-09-12T10:42:16Z</time>
      </trkpt>
      <trkpt lat="45.97424" lon="4.6237">
        <ele>363</ele>
        <time>2016-09-12T10:42:17Z</time>
      </trkpt>
      <trkpt lat="45.97422" lon="4.62384">
        <ele>362</ele>
        <time>2016-09-12T10:42:18Z</time>
      </trkpt>
      <trkpt lat="45.9742" lon="4.62399">
        <ele>362</ele>
        <time>2016-09-12T10:42:19Z</time>
      </trkpt>
      <trkpt lat="45.97418" lon="4.62413">
        <ele>363</ele>
        <time>2016-09-12T10:42:20Z</time>
      </trkpt>
      <trkpt lat="45.97416" lon="4.62427">
        <ele>364</ele>
        <time>2016-09-12T10:42:21Z</time>
      </trkpt>
      <trkpt lat="45.97413" lon="4.62442">
        <ele>364</ele>
        <time>2016-09-12T10:42:22Z</time>
      </trkpt>
      <trkpt lat="45.9741" lon="4.62456">
        <ele>364</ele>
        <time>2016-09-12T10:42:23Z</time>
      </trkpt>
      <trkpt lat="45.97407" lon="4.6247">
        <ele>364</ele>
        <time>2016-09-12T10:42:24Z</time>
      </trkpt>
      <trkpt lat="45.97404" lon="4.62484">
        <ele>363</ele>
        <time>2016-09-12T10:42:25Z</time>
      </trkpt>
      <trkpt lat="45.97402" lon="4.62499">
        <ele>362</ele>
        <time>2016-09-12T10:42:26Z</time>
      </trkpt>
      <trkpt lat="45.97399" lon="4.62514">
        <ele>360</ele>
        <time>2016-09-12T10:42:27Z</time>
      </trkpt>
      <trkpt lat="45.97398" lon="4.62529">
        <ele>361</ele>
        <time>2016-09-12T10:42:28Z</time>
      </trkpt>
      <trkpt lat="45.97397" lon="4.62544">
        <ele>360</ele>
        <time>2016-09-12T10:42:29Z</time>
      </trkpt>
      <trkpt lat="45.97397" lon="4.62559">
        <ele>360</ele>
        <time>2016-09-12T10:42:30Z</time>
      </trkpt>
      <trkpt lat="45.97397" lon="4.62574">
        <ele>359</ele>
        <time>2016-09-12T10:42:31Z</time>
      </trkpt>
      <trkpt lat="45.97398" lon="4.62589">
        <ele>357</ele>
        <time>2016-09-12T10:42:32Z</time>
      </trkpt>
      <trkpt lat="45.974" lon="4.62604">
        <ele>357</ele>
        <time>2016-09-12T10:42:33Z</time>
      </trkpt>
      <trkpt lat="45.97402" lon="4.62619">
        <ele>357</ele>
        <time>2016-09-12T10:42:34Z</time>
      </trkpt>
      <trkpt lat="45.97405" lon="4.62634">
        <ele>356</ele>
        <time>2016-09-12T10:42:35Z</time>
      </trkpt>
      <trkpt lat="45.97407" lon="4.62649">
        <ele>355</ele>
        <time>2016-09-12T10:42:36Z</time>
      </trkpt>
      <trkpt lat="45.9741" lon="4.62663">
        <ele>354</ele>
        <time>2016-09-12T10:42:37Z</time>
      </trkpt>
      <trkpt lat="45.97413" lon="4.62678">
        <ele>354</ele>
        <time>2016-09-12T10:42:38Z</time>
      </trkpt>
      <trkpt lat="45.97416" lon="4.62692">
        <ele>354</ele>
        <time>2016-09-12T10:42:39Z</time>
      </trkpt>
      <trkpt lat="45.97419" lon="4.62707">
        <ele>350</ele>
        <time>2016-09-12T10:42:40Z</time>
      </trkpt>
      <trkpt lat="45.97422" lon="4.62721">
        <ele>350</ele>
        <time>2016-09-12T10:42:41Z</time>
      </trkpt>
      <trkpt lat="45.97425" lon="4.62735">
        <ele>350</ele>
        <time>2016-09-12T10:42:42Z</time>
      </trkpt>
      <trkpt lat="45.97428" lon="4.62749">
        <ele>350</ele>
        <time>2016-09-12T10:42:43Z</time>
      </trkpt>
      <trkpt lat="45.97431" lon="4.62764">
        <ele>349</ele>
        <time>2016-09-12T10:42:44Z</time>
      </trkpt>
      <trkpt lat="45.97434" lon="4.62778">
        <ele>348</ele>
        <time>2016-09-12T10:42:45Z</time>
      </trkpt>
      <trkpt lat="45.97437" lon="4.62792">
        <ele>348</ele>
        <time>2016-09-12T10:42:46Z</time>
      </trkpt>
      <trkpt lat="45.9744" lon="4.62806">
        <ele>347</ele>
        <time>2016-09-12T10:42:47Z</time>
      </trkpt>
      <trkpt lat="45.97442" lon="4.6282">
        <ele>347</ele>
        <time>2016-09-12T10:42:48Z</time>
      </trkpt>
      <trkpt lat="45.97445" lon="4.62834">
        <ele>346</ele>
        <time>2016-09-12T10:42:49Z</time>
      </trkpt>
      <trkpt lat="45.97448" lon="4.62847">
        <ele>346</ele>
        <time>2016-09-12T10:42:50Z</time>
      </trkpt>
      <trkpt lat="45.97451" lon="4.62861">
        <ele>346</ele>
        <time>2016-09-12T10:42:51Z</time>
      </trkpt>
      <trkpt lat="45.97453" lon="4.62875">
        <ele>346</ele>
        <time>2016-09-12T10:42:52Z</time>
      </trkpt>
      <trkpt lat="45.97456" lon="4.62889">
        <ele>345</ele>
        <time>2016-09-12T10:42:53Z</time>
      </trkpt>
      <trkpt lat="45.97458" lon="4.62903">
        <ele>345</ele>
        <time>2016-09-12T10:42:54Z</time>
      </trkpt>
      <trkpt lat="45.9746" lon="4.62917">
        <ele>345</ele>
        <time>2016-09-12T10:42:55Z</time>
      </trkpt>
      <trkpt lat="45.97464" lon="4.6293">
        <ele>345</ele>
        <time>2016-09-12T10:42:56Z</time>
      </trkpt>
      <trkpt lat="45.97466" lon="4.62943">
        <ele>345</ele>
        <time>2016-09-12T10:42:57Z</time>
      </trkpt>
      <trkpt lat="45.97469" lon="4.62957">
        <ele>345</ele>
        <time>2016-09-12T10:42:58Z</time>
      </trkpt>
      <trkpt lat="45.97472" lon="4.6297">
        <ele>345</ele>
        <time>2016-09-12T10:42:59Z</time>
      </trkpt>
      <trkpt lat="45.97475" lon="4.62982">
        <ele>345</ele>
        <time>2016-09-12T10:43:00Z</time>
      </trkpt>
      <trkpt lat="45.97477" lon="4.62995">
        <ele>345</ele>
        <time>2016-09-12T10:43:01Z</time>
      </trkpt>
      <trkpt lat="45.9748" lon="4.63007">
        <ele>344</ele>
        <time>2016-09-12T10:43:02Z</time>
      </trkpt>
      <trkpt lat="45.97483" lon="4.63018">
        <ele>344</ele>
        <time>2016-09-12T10:43:03Z</time>
      </trkpt>
      <trkpt lat="45.97486" lon="4.6303">
        <ele>344</ele>
        <time>2016-09-12T10:43:04Z</time>
      </trkpt>
      <trkpt lat="45.97489" lon="4.63041">
        <ele>344</ele>
        <time>2016-09-12T10:43:05Z</time>
      </trkpt>
      <trkpt lat="45.97491" lon="4.63053">
        <ele>344</ele>
        <time>2016-09-12T10:43:06Z</time>
      </trkpt>
      <trkpt lat="45.97493" lon="4.63065">
        <ele>343</ele>
        <time>2016-09-12T10:43:07Z</time>
      </trkpt>
      <trkpt lat="45.97495" lon="4.63077">
        <ele>342</ele>
        <time>2016-09-12T10:43:08Z</time>
      </trkpt>
      <trkpt lat="45.97497" lon="4.63088">
        <ele>341</ele>
        <time>2016-09-12T10:43:09Z</time>
      </trkpt>
      <trkpt lat="45.97498" lon="4.631">
        <ele>342</ele>
        <time>2016-09-12T10:43:10Z</time>
      </trkpt>
      <trkpt lat="45.97499" lon="4.63111">
        <ele>342</ele>
        <time>2016-09-12T10:43:11Z</time>
      </trkpt>
      <trkpt lat="45.975" lon="4.63122">
        <ele>337</ele>
        <time>2016-09-12T10:43:12Z</time>
      </trkpt>
      <trkpt lat="45.97501" lon="4.63133">
        <ele>337</ele>
        <time>2016-09-12T10:43:13Z</time>
      </trkpt>
      <trkpt lat="45.97502" lon="4.63144">
        <ele>337</ele>
        <time>2016-09-12T10:43:14Z</time>
      </trkpt>
      <trkpt lat="45.97503" lon="4.63155">
        <ele>338</ele>
        <time>2016-09-12T10:43:15Z</time>
      </trkpt>
      <trkpt lat="45.97504" lon="4.63166">
        <ele>339</ele>
        <time>2016-09-12T10:43:16Z</time>
      </trkpt>
      <trkpt lat="45.97505" lon="4.63178">
        <ele>337</ele>
        <time>2016-09-12T10:43:17Z</time>
      </trkpt>
      <trkpt lat="45.97507" lon="4.63189">
        <ele>337</ele>
        <time>2016-09-12T10:43:18Z</time>
      </trkpt>
      <trkpt lat="45.97508" lon="4.632">
        <ele>336</ele>
        <time>2016-09-12T10:43:19Z</time>
      </trkpt>
      <trkpt lat="45.9751" lon="4.63212">
        <ele>336</ele>
        <time>2016-09-12T10:43:20Z</time>
      </trkpt>
      <trkpt lat="45.97511" lon="4.63223">
        <ele>336</ele>
        <time>2016-09-12T10:43:21Z</time>
      </trkpt>
      <trkpt lat="45.97513" lon="4.63235">
        <ele>337</ele>
        <time>2016-09-12T10:43:22Z</time>
      </trkpt>
      <trkpt lat="45.97514" lon="4.63247">
        <ele>337</ele>
        <time>2016-09-12T10:43:23Z</time>
      </trkpt>
      <trkpt lat="45.97515" lon="4.63259">
        <ele>336</ele>
        <time>2016-09-12T10:43:24Z</time>
      </trkpt>
      <trkpt lat="45.97517" lon="4.63272">
        <ele>336</ele>
        <time>2016-09-12T10:43:25Z</time>
      </trkpt>
      <trkpt lat="45.97518" lon="4.63284">
        <ele>335</ele>
        <time>2016-09-12T10:43:26Z</time>
      </trkpt>
      <trkpt lat="45.97519" lon="4.63297">
        <ele>335</ele>
        <time>2016-09-12T10:43:27Z</time>
      </trkpt>
      <trkpt lat="45.9752" lon="4.63309">
        <ele>335</ele>
        <time>2016-09-12T10:43:28Z</time>
      </trkpt>
      <trkpt lat="45.97521" lon="4.63322">
        <ele>335</ele>
        <time>2016-09-12T10:43:29Z</time>
      </trkpt>
      <trkpt lat="45.97523" lon="4.63335">
        <ele>334</ele>
        <time>2016-09-12T10:43:30Z</time>
      </trkpt>
      <trkpt lat="45.97524" lon="4.63347">
        <ele>334</ele>
        <time>2016-09-12T10:43:31Z</time>
      </trkpt>
      <trkpt lat="45.97525" lon="4.63359">
        <ele>334</ele>
        <time>2016-09-12T10:43:32Z</time>
      </trkpt>
      <trkpt lat="45.97526" lon="4.63371">
        <ele>333</ele>
        <time>2016-09-12T10:43:33Z</time>
      </trkpt>
      <trkpt lat="45.97527" lon="4.63384">
        <ele>333</ele>
        <time>2016-09-12T10:43:34Z</time>
      </trkpt>
      <trkpt lat="45.97528" lon="4.63396">
        <ele>333</ele>
        <time>2016-09-12T10:43:35Z</time>
      </trkpt>
      <trkpt lat="45.97529" lon="4.63408">
        <ele>333</ele>
        <time>2016-09-12T10:43:36Z</time>
      </trkpt>
      <trkpt lat="45.97531" lon="4.63421">
        <ele>332</ele>
        <time>2016-09-12T10:43:37Z</time>
      </trkpt>
      <trkpt lat="45.97532" lon="4.63433">
        <ele>332</ele>
        <time>2016-09-12T10:43:38Z</time>
      </trkpt>
      <trkpt lat="45.97534" lon="4.63447">
        <ele>331</ele>
        <time>2016-09-12T10:43:39Z</time>
      </trkpt>
      <trkpt lat="45.97535" lon="4.6346">
        <ele>331</ele>
        <time>2016-09-12T10:43:40Z</time>
      </trkpt>
      <trkpt lat="45.97537" lon="4.63473">
        <ele>331</ele>
        <time>2016-09-12T10:43:41Z</time>
      </trkpt>
      <trkpt lat="45.97538" lon="4.63486">
        <ele>331</ele>
        <time>2016-09-12T10:43:42Z</time>
      </trkpt>
      <trkpt lat="45.9754" lon="4.635">
        <ele>331</ele>
        <time>2016-09-12T10:43:43Z</time>
      </trkpt>
      <trkpt lat="45.97542" lon="4.63513">
        <ele>329</ele>
        <time>2016-09-12T10:43:44Z</time>
      </trkpt>
      <trkpt lat="45.97543" lon="4.63527">
        <ele>329</ele>
        <time>2016-09-12T10:43:45Z</time>
      </trkpt>
      <trkpt lat="45.97545" lon="4.6354">
        <ele>329</ele>
        <time>2016-09-12T10:43:46Z</time>
      </trkpt>
      <trkpt lat="45.97546" lon="4.63554">
        <ele>329</ele>
        <time>2016-09-12T10:43:47Z</time>
      </trkpt>
      <trkpt lat="45.97548" lon="4.63568">
        <ele>329</ele>
        <time>2016-09-12T10:43:48Z</time>
      </trkpt>
      <trkpt lat="45.97549" lon="4.63582">
        <ele>328</ele>
        <time>2016-09-12T10:43:49Z</time>
      </trkpt>
      <trkpt lat="45.97551" lon="4.63596">
        <ele>327</ele>
        <time>2016-09-12T10:43:50Z</time>
      </trkpt>
      <trkpt lat="45.97552" lon="4.6361">
        <ele>327</ele>
        <time>2016-09-12T10:43:51Z</time>
      </trkpt>
      <trkpt lat="45.97554" lon="4.63623">
        <ele>327</ele>
        <time>2016-09-12T10:43:52Z</time>
      </trkpt>
      <trkpt lat="45.97555" lon="4.63636">
        <ele>327</ele>
        <time>2016-09-12T10:43:53Z</time>
      </trkpt>
      <trkpt lat="45.97556" lon="4.63649">
        <ele>326</ele>
        <time>2016-09-12T10:43:54Z</time>
      </trkpt>
      <trkpt lat="45.97558" lon="4.63661">
        <ele>326</ele>
        <time>2016-09-12T10:43:55Z</time>
      </trkpt>
      <trkpt lat="45.9756" lon="4.63674">
        <ele>325</ele>
        <time>2016-09-12T10:43:56Z</time>
      </trkpt>
      <trkpt lat="45.97561" lon="4.63687">
        <ele>325</ele>
        <time>2016-09-12T10:43:57Z</time>
      </trkpt>
      <trkpt lat="45.97563" lon="4.63699">
        <ele>325</ele>
        <time>2016-09-12T10:43:58Z</time>
      </trkpt>
      <trkpt lat="45.97564" lon="4.63712">
        <ele>325</ele>
        <time>2016-09-12T10:43:59Z</time>
      </trkpt>
      <trkpt lat="45.97565" lon="4.63725">
        <ele>324</ele>
        <time>2016-09-12T10:44:00Z</time>
      </trkpt>
      <trkpt lat="45.97567" lon="4.63738">
        <ele>324</ele>
        <time>2016-09-12T10:44:01Z</time>
      </trkpt>
      <trkpt lat="45.97568" lon="4.63751">
        <ele>322</ele>
        <time>2016-09-12T10:44:02Z</time>
      </trkpt>
      <trkpt lat="45.97569" lon="4.63763">
        <ele>322</ele>
        <time>2016-09-12T10:44:03Z</time>
      </trkpt>
      <trkpt lat="45.9757" lon="4.63776">
        <ele>322</ele>
        <time>2016-09-12T10:44:04Z</time>
      </trkpt>
      <trkpt lat="45.97572" lon="4.63789">
        <ele>322</ele>
        <time>2016-09-12T10:44:05Z</time>
      </trkpt>
      <trkpt lat="45.97573" lon="4.63802">
        <ele>321</ele>
        <time>2016-09-12T10:44:06Z</time>
      </trkpt>
      <trkpt lat="45.97575" lon="4.63815">
        <ele>320</ele>
        <time>2016-09-12T10:44:07Z</time>
      </trkpt>
      <trkpt lat="45.97576" lon="4.63827">
        <ele>319</ele>
        <time>2016-09-12T10:44:08Z</time>
      </trkpt>
      <trkpt lat="45.97577" lon="4.63839">
        <ele>318</ele>
        <time>2016-09-12T10:44:09Z</time>
      </trkpt>
      <trkpt lat="45.97579" lon="4.63853">
        <ele>318</ele>
        <time>2016-09-12T10:44:10Z</time>
      </trkpt>
      <trkpt lat="45.9758" lon="4.63865">
        <ele>318</ele>
        <time>2016-09-12T10:44:11Z</time>
      </trkpt>
      <trkpt lat="45.97582" lon="4.63878">
        <ele>318</ele>
        <time>2016-09-12T10:44:12Z</time>
      </trkpt>
      <trkpt lat="45.97583" lon="4.63891">
        <ele>318</ele>
        <time>2016-09-12T10:44:13Z</time>
      </trkpt>
      <trkpt lat="45.97585" lon="4.63904">
        <ele>315</ele>
        <time>2016-09-12T10:44:14Z</time>
      </trkpt>
      <trkpt lat="45.97586" lon="4.63917">
        <ele>316</ele>
        <time>2016-09-12T10:44:15Z</time>
      </trkpt>
      <trkpt lat="45.97587" lon="4.6393">
        <ele>314</ele>
        <time>2016-09-12T10:44:16Z</time>
      </trkpt>
      <trkpt lat="45.97589" lon="4.63942">
        <ele>313</ele>
        <time>2016-09-12T10:44:17Z</time>
      </trkpt>
      <trkpt lat="45.9759" lon="4.63955">
        <ele>312</ele>
        <time>2016-09-12T10:44:18Z</time>
      </trkpt>
      <trkpt lat="45.97592" lon="4.63968">
        <ele>312</ele>
        <time>2016-09-12T10:44:19Z</time>
      </trkpt>
      <trkpt lat="45.97593" lon="4.6398">
        <ele>312</ele>
        <time>2016-09-12T10:44:20Z</time>
      </trkpt>
      <trkpt lat="45.97595" lon="4.63993">
        <ele>312</ele>
        <time>2016-09-12T10:44:21Z</time>
      </trkpt>
      <trkpt lat="45.97596" lon="4.64006">
        <ele>311</ele>
        <time>2016-09-12T10:44:22Z</time>
      </trkpt>
      <trkpt lat="45.97598" lon="4.64019">
        <ele>311</ele>
        <time>2016-09-12T10:44:23Z</time>
      </trkpt>
      <trkpt lat="45.976" lon="4.64032">
        <ele>310</ele>
        <time>2016-09-12T10:44:24Z</time>
      </trkpt>
      <trkpt lat="45.97601" lon="4.64045">
        <ele>310</ele>
        <time>2016-09-12T10:44:25Z</time>
      </trkpt>
      <trkpt lat="45.97603" lon="4.64058">
        <ele>310</ele>
        <time>2016-09-12T10:44:26Z</time>
      </trkpt>
      <trkpt lat="45.97604" lon="4.64071">
        <ele>310</ele>
        <time>2016-09-12T10:44:27Z</time>
      </trkpt>
      <trkpt lat="45.97606" lon="4.64084">
        <ele>308</ele>
        <time>2016-09-12T10:44:28Z</time>
      </trkpt>
      <trkpt lat="45.97607" lon="4.64097">
        <ele>308</ele>
        <time>2016-09-12T10:44:29Z</time>
      </trkpt>
      <trkpt lat="45.97609" lon="4.6411">
        <ele>308</ele>
        <time>2016-09-12T10:44:30Z</time>
      </trkpt>
      <trkpt lat="45.97611" lon="4.64123">
        <ele>307</ele>
        <time>2016-09-12T10:44:31Z</time>
      </trkpt>
      <trkpt lat="45.97612" lon="4.64135">
        <ele>307</ele>
        <time>2016-09-12T10:44:32Z</time>
      </trkpt>
      <trkpt lat="45.97614" lon="4.64148">
        <ele>307</ele>
        <time>2016-09-12T10:44:33Z</time>
      </trkpt>
      <trkpt lat="45.97615" lon="4.6416">
        <ele>307</ele>
        <time>2016-09-12T10:44:34Z</time>
      </trkpt>
      <trkpt lat="45.97616" lon="4.64173">
        <ele>306</ele>
        <time>2016-09-12T10:44:35Z</time>
      </trkpt>
      <trkpt lat="45.97618" lon="4.64185">
        <ele>306</ele>
        <time>2016-09-12T10:44:36Z</time>
      </trkpt>
      <trkpt lat="45.97619" lon="4.64198">
        <ele>306</ele>
        <time>2016-09-12T10:44:37Z</time>
      </trkpt>
      <trkpt lat="45.9762" lon="4.64211">
        <ele>306</ele>
        <time>2016-09-12T10:44:38Z</time>
      </trkpt>
      <trkpt lat="45.97622" lon="4.64223">
        <ele>306</ele>
        <time>2016-09-12T10:44:39Z</time>
      </trkpt>
      <trkpt lat="45.97623" lon="4.64236">
        <ele>306</ele>
        <time>2016-09-12T10:44:40Z</time>
      </trkpt>
      <trkpt lat="45.97624" lon="4.64248">
        <ele>306</ele>
        <time>2016-09-12T10:44:41Z</time>
      </trkpt>
      <trkpt lat="45.97626" lon="4.64261">
        <ele>305</ele>
        <time>2016-09-12T10:44:42Z</time>
      </trkpt>
      <trkpt lat="45.97627" lon="4.64274">
        <ele>305</ele>
        <time>2016-09-12T10:44:43Z</time>
      </trkpt>
      <trkpt lat="45.97629" lon="4.64287">
        <ele>304</ele>
        <time>2016-09-12T10:44:44Z</time>
      </trkpt>
      <trkpt lat="45.97631" lon="4.643">
        <ele>304</ele>
        <time>2016-09-12T10:44:45Z</time>
      </trkpt>
      <trkpt lat="45.97632" lon="4.64313">
        <ele>304</ele>
        <time>2016-09-12T10:44:46Z</time>
      </trkpt>
      <trkpt lat="45.97634" lon="4.64326">
        <ele>304</ele>
        <time>2016-09-12T10:44:47Z</time>
      </trkpt>
      <trkpt lat="45.97636" lon="4.64339">
        <ele>303</ele>
        <time>2016-09-12T10:44:48Z</time>
      </trkpt>
      <trkpt lat="45.97637" lon="4.64351">
        <ele>303</ele>
        <time>2016-09-12T10:44:49Z</time>
      </trkpt>
      <trkpt lat="45.97639" lon="4.64364">
        <ele>303</ele>
        <time>2016-09-12T10:44:50Z</time>
      </trkpt>
      <trkpt lat="45.97641" lon="4.64377">
        <ele>303</ele>
        <time>2016-09-12T10:44:51Z</time>
      </trkpt>
      <trkpt lat="45.97642" lon="4.6439">
        <ele>303</ele>
        <time>2016-09-12T10:44:52Z</time>
      </trkpt>
      <trkpt lat="45.97644" lon="4.64403">
        <ele>302</ele>
        <time>2016-09-12T10:44:53Z</time>
      </trkpt>
      <trkpt lat="45.97645" lon="4.64415">
        <ele>302</ele>
        <time>2016-09-12T10:44:54Z</time>
      </trkpt>
      <trkpt lat="45.97647" lon="4.64428">
        <ele>302</ele>
        <time>2016-09-12T10:44:55Z</time>
      </trkpt>
      <trkpt lat="45.97648" lon="4.6444">
        <ele>302</ele>
        <time>2016-09-12T10:44:56Z</time>
      </trkpt>
      <trkpt lat="45.97649" lon="4.64453">
        <ele>302</ele>
        <time>2016-09-12T10:44:57Z</time>
      </trkpt>
      <trkpt lat="45.97651" lon="4.64465">
        <ele>302</ele>
        <time>2016-09-12T10:44:58Z</time>
      </trkpt>
      <trkpt lat="45.97652" lon="4.64477">
        <ele>302</ele>
        <time>2016-09-12T10:44:59Z</time>
      </trkpt>
      <trkpt lat="45.97654" lon="4.64489">
        <ele>302</ele>
        <time>2016-09-12T10:45:00Z</time>
      </trkpt>
      <trkpt lat="45.97655" lon="4.64501">
        <ele>301</ele>
        <time>2016-09-12T10:45:01Z</time>
      </trkpt>
      <trkpt lat="45.97656" lon="4.64513">
        <ele>301</ele>
        <time>2016-09-12T10:45:02Z</time>
      </trkpt>
      <trkpt lat="45.97657" lon="4.64524">
        <ele>300</ele>
        <time>2016-09-12T10:45:03Z</time>
      </trkpt>
      <trkpt lat="45.97658" lon="4.64536">
        <ele>299</ele>
        <time>2016-09-12T10:45:04Z</time>
      </trkpt>
      <trkpt lat="45.97659" lon="4.64547">
        <ele>299</ele>
        <time>2016-09-12T10:45:05Z</time>
      </trkpt>
      <trkpt lat="45.9766" lon="4.64558">
        <ele>298</ele>
        <time>2016-09-12T10:45:06Z</time>
      </trkpt>
      <trkpt lat="45.97661" lon="4.64569">
        <ele>298</ele>
        <time>2016-09-12T10:45:07Z</time>
      </trkpt>
      <trkpt lat="45.97663" lon="4.6458">
        <ele>297</ele>
        <time>2016-09-12T10:45:08Z</time>
      </trkpt>
      <trkpt lat="45.97664" lon="4.64591">
        <ele>296</ele>
        <time>2016-09-12T10:45:09Z</time>
      </trkpt>
      <trkpt lat="45.97665" lon="4.64603">
        <ele>296</ele>
        <time>2016-09-12T10:45:10Z</time>
      </trkpt>
      <trkpt lat="45.97666" lon="4.64614">
        <ele>295</ele>
        <time>2016-09-12T10:45:11Z</time>
      </trkpt>
      <trkpt lat="45.97668" lon="4.64626">
        <ele>294</ele>
        <time>2016-09-12T10:45:12Z</time>
      </trkpt>
      <trkpt lat="45.97669" lon="4.64638">
        <ele>293</ele>
        <time>2016-09-12T10:45:13Z</time>
      </trkpt>
      <trkpt lat="45.9767" lon="4.64651">
        <ele>293</ele>
        <time>2016-09-12T10:45:14Z</time>
      </trkpt>
      <trkpt lat="45.97672" lon="4.64663">
        <ele>292</ele>
        <time>2016-09-12T10:45:15Z</time>
      </trkpt>
      <trkpt lat="45.97673" lon="4.64675">
        <ele>292</ele>
        <time>2016-09-12T10:45:16Z</time>
      </trkpt>
      <trkpt lat="45.97674" lon="4.64687">
        <ele>291</ele>
        <time>2016-09-12T10:45:17Z</time>
      </trkpt>
      <trkpt lat="45.97676" lon="4.647">
        <ele>291</ele>
        <time>2016-09-12T10:45:18Z</time>
      </trkpt>
      <trkpt lat="45.97677" lon="4.64712">
        <ele>291</ele>
        <time>2016-09-12T10:45:19Z</time>
      </trkpt>
      <trkpt lat="45.97678" lon="4.64724">
        <ele>291</ele>
        <time>2016-09-12T10:45:20Z</time>
      </trkpt>
      <trkpt lat="45.9768" lon="4.64737">
        <ele>291</ele>
        <time>2016-09-12T10:45:21Z</time>
      </trkpt>
      <trkpt lat="45.97681" lon="4.6475">
        <ele>291</ele>
        <time>2016-09-12T10:45:22Z</time>
      </trkpt>
      <trkpt lat="45.97683" lon="4.64762">
        <ele>290</ele>
        <time>2016-09-12T10:45:23Z</time>
      </trkpt>
      <trkpt lat="45.97684" lon="4.64775">
        <ele>290</ele>
        <time>2016-09-12T10:45:24Z</time>
      </trkpt>
      <trkpt lat="45.97686" lon="4.64788">
        <ele>290</ele>
        <time>2016-09-12T10:45:25Z</time>
      </trkpt>
      <trkpt lat="45.97687" lon="4.64801">
        <ele>290</ele>
        <time>2016-09-12T10:45:26Z</time>
      </trkpt>
      <trkpt lat="45.97689" lon="4.64814">
        <ele>290</ele>
        <time>2016-09-12T10:45:27Z</time>
      </trkpt>
      <trkpt lat="45.9769" lon="4.64827">
        <ele>289</ele>
        <time>2016-09-12T10:45:28Z</time>
      </trkpt>
      <trkpt lat="45.97692" lon="4.6484">
        <ele>289</ele>
        <time>2016-09-12T10:45:29Z</time>
      </trkpt>
      <trkpt lat="45.97693" lon="4.64854">
        <ele>289</ele>
        <time>2016-09-12T10:45:30Z</time>
      </trkpt>
      <trkpt lat="45.97695" lon="4.64867">
        <ele>289</ele>
        <time>2016-09-12T10:45:31Z</time>
      </trkpt>
      <trkpt lat="45.97696" lon="4.64881">
        <ele>288</ele>
        <time>2016-09-12T10:45:32Z</time>
      </trkpt>
      <trkpt lat="45.97698" lon="4.64894">
        <ele>288</ele>
        <time>2016-09-12T10:45:33Z</time>
      </trkpt>
      <trkpt lat="45.97699" lon="4.64907">
        <ele>288</ele>
        <time>2016-09-12T10:45:34Z</time>
      </trkpt>
      <trkpt lat="45.97701" lon="4.64919">
        <ele>288</ele>
        <time>2016-09-12T10:45:35Z</time>
      </trkpt>
      <trkpt lat="45.97703" lon="4.64932">
        <ele>287</ele>
        <time>2016-09-12T10:45:36Z</time>
      </trkpt>
      <trkpt lat="45.97704" lon="4.64945">
        <ele>287</ele>
        <time>2016-09-12T10:45:37Z</time>
      </trkpt>
      <trkpt lat="45.97705" lon="4.64959">
        <ele>287</ele>
        <time>2016-09-12T10:45:38Z</time>
      </trkpt>
      <trkpt lat="45.97706" lon="4.64972">
        <ele>287</ele>
        <time>2016-09-12T10:45:39Z</time>
      </trkpt>
      <trkpt lat="45.97707" lon="4.64985">
        <ele>287</ele>
        <time>2016-09-12T10:45:40Z</time>
      </trkpt>
      <trkpt lat="45.97708" lon="4.64998">
        <ele>287</ele>
        <time>2016-09-12T10:45:41Z</time>
      </trkpt>
      <trkpt lat="45.97709" lon="4.65009">
        <ele>286</ele>
        <time>2016-09-12T10:45:42Z</time>
      </trkpt>
      <trkpt lat="45.9771" lon="4.65019">
        <ele>286</ele>
        <time>2016-09-12T10:45:43Z</time>
      </trkpt>
      <trkpt lat="45.97711" lon="4.65028">
        <ele>286</ele>
        <time>2016-09-12T10:45:44Z</time>
      </trkpt>
      <trkpt lat="45.97712" lon="4.65038">
        <ele>286</ele>
        <time>2016-09-12T10:45:45Z</time>
      </trkpt>
      <trkpt lat="45.97712" lon="4.65047">
        <ele>285</ele>
        <time>2016-09-12T10:45:46Z</time>
      </trkpt>
      <trkpt lat="45.97714" lon="4.65055">
        <ele>285</ele>
        <time>2016-09-12T10:45:47Z</time>
      </trkpt>
      <trkpt lat="45.97717" lon="4.65064">
        <ele>285</ele>
        <time>2016-09-12T10:45:48Z</time>
      </trkpt>
      <trkpt lat="45.97719" lon="4.65074">
        <ele>285</ele>
        <time>2016-09-12T10:45:49Z</time>
      </trkpt>
      <trkpt lat="45.97721" lon="4.65085">
        <ele>285</ele>
        <time>2016-09-12T10:45:50Z</time>
      </trkpt>
      <trkpt lat="45.97722" lon="4.65095">
        <ele>285</ele>
        <time>2016-09-12T10:45:51Z</time>
      </trkpt>
      <trkpt lat="45.97724" lon="4.65104">
        <ele>285</ele>
        <time>2016-09-12T10:45:52Z</time>
      </trkpt>
      <trkpt lat="45.97725" lon="4.65114">
        <ele>285</ele>
        <time>2016-09-12T10:45:53Z</time>
      </trkpt>
      <trkpt lat="45.97725" lon="4.65124">
        <ele>285</ele>
        <time>2016-09-12T10:45:54Z</time>
      </trkpt>
      <trkpt lat="45.97726" lon="4.65134">
        <ele>285</ele>
        <time>2016-09-12T10:45:55Z</time>
      </trkpt>
      <trkpt lat="45.97727" lon="4.65144">
        <ele>285</ele>
        <time>2016-09-12T10:45:56Z</time>
      </trkpt>
      <trkpt lat="45.97727" lon="4.65155">
        <ele>285</ele>
        <time>2016-09-12T10:45:57Z</time>
      </trkpt>
      <trkpt lat="45.97728" lon="4.65165">
        <ele>285</ele>
        <time>2016-09-12T10:45:58Z</time>
      </trkpt>
      <trkpt lat="45.97729" lon="4.65175">
        <ele>284</ele>
        <time>2016-09-12T10:45:59Z</time>
      </trkpt>
      <trkpt lat="45.97729" lon="4.65185">
        <ele>284</ele>
        <time>2016-09-12T10:46:00Z</time>
      </trkpt>
      <trkpt lat="45.9773" lon="4.65195">
        <ele>284</ele>
        <time>2016-09-12T10:46:01Z</time>
      </trkpt>
      <trkpt lat="45.97731" lon="4.65205">
        <ele>284</ele>
        <time>2016-09-12T10:46:02Z</time>
      </trkpt>
      <trkpt lat="45.97732" lon="4.65216">
        <ele>284</ele>
        <time>2016-09-12T10:46:03Z</time>
      </trkpt>
      <trkpt lat="45.97733" lon="4.65226">
        <ele>284</ele>
        <time>2016-09-12T10:46:04Z</time>
      </trkpt>
      <trkpt lat="45.97734" lon="4.65236">
        <ele>284</ele>
        <time>2016-09-12T10:46:05Z</time>
      </trkpt>
      <trkpt lat="45.97735" lon="4.65245">
        <ele>284</ele>
        <time>2016-09-12T10:46:06Z</time>
      </trkpt>
      <trkpt lat="45.97736" lon="4.65255">
        <ele>283</ele>
        <time>2016-09-12T10:46:07Z</time>
      </trkpt>
      <trkpt lat="45.97737" lon="4.65264">
        <ele>283</ele>
        <time>2016-09-12T10:46:08Z</time>
      </trkpt>
      <trkpt lat="45.97738" lon="4.65273">
        <ele>283</ele>
        <time>2016-09-12T10:46:09Z</time>
      </trkpt>
      <trkpt lat="45.9774" lon="4.65282">
        <ele>283</ele>
        <time>2016-09-12T10:46:10Z</time>
      </trkpt>
      <trkpt lat="45.97741" lon="4.65291">
        <ele>283</ele>
        <time>2016-09-12T10:46:11Z</time>
      </trkpt>
      <trkpt lat="45.97742" lon="4.65299">
        <ele>282</ele>
        <time>2016-09-12T10:46:12Z</time>
      </trkpt>
      <trkpt lat="45.97744" lon="4.65308">
        <ele>282</ele>
        <time>2016-09-12T10:46:13Z</time>
      </trkpt>
      <trkpt lat="45.97746" lon="4.65316">
        <ele>282</ele>
        <time>2016-09-12T10:46:14Z</time>
      </trkpt>
      <trkpt lat="45.9775" lon="4.65324">
        <ele>282</ele>
        <time>2016-09-12T10:46:15Z</time>
      </trkpt>
      <trkpt lat="45.97753" lon="4.65332">
        <ele>282</ele>
        <time>2016-09-12T10:46:16Z</time>
      </trkpt>
      <trkpt lat="45.97755" lon="4.65339">
        <ele>282</ele>
        <time>2016-09-12T10:46:17Z</time>
      </trkpt>
      <trkpt lat="45.97758" lon="4.65347">
        <ele>282</ele>
        <time>2016-09-12T10:46:18Z</time>
      </trkpt>
      <trkpt lat="45.97761" lon="4.65355">
        <ele>282</ele>
        <time>2016-09-12T10:46:19Z</time>
      </trkpt>
      <trkpt lat="45.97764" lon="4.65363">
        <ele>282</ele>
        <time>2016-09-12T10:46:20Z</time>
      </trkpt>
      <trkpt lat="45.97766" lon="4.65371">
        <ele>282</ele>
        <time>2016-09-12T10:46:21Z</time>
      </trkpt>
      <trkpt lat="45.97769" lon="4.65379">
        <ele>282</ele>
        <time>2016-09-12T10:46:22Z</time>
      </trkpt>
      <trkpt lat="45.97772" lon="4.65387">
        <ele>282</ele>
        <time>2016-09-12T10:46:23Z</time>
      </trkpt>
      <trkpt lat="45.97774" lon="4.65394">
        <ele>282</ele>
        <time>2016-09-12T10:46:24Z</time>
      </trkpt>
      <trkpt lat="45.97777" lon="4.65402">
        <ele>282</ele>
        <time>2016-09-12T10:46:25Z</time>
      </trkpt>
      <trkpt lat="45.9778" lon="4.65409">
        <ele>282</ele>
        <time>2016-09-12T10:46:26Z</time>
      </trkpt>
      <trkpt lat="45.97783" lon="4.65417">
        <ele>281</ele>
        <time>2016-09-12T10:46:27Z</time>
      </trkpt>
      <trkpt lat="45.97786" lon="4.65425">
        <ele>281</ele>
        <time>2016-09-12T10:46:28Z</time>
      </trkpt>
      <trkpt lat="45.97789" lon="4.65433">
        <ele>281</ele>
        <time>2016-09-12T10:46:29Z</time>
      </trkpt>
      <trkpt lat="45.97792" lon="4.65441">
        <ele>281</ele>
        <time>2016-09-12T10:46:30Z</time>
      </trkpt>
      <trkpt lat="45.97794" lon="4.65449">
        <ele>281</ele>
        <time>2016-09-12T10:46:31Z</time>
      </trkpt>
      <trkpt lat="45.97797" lon="4.65456">
        <ele>281</ele>
        <time>2016-09-12T10:46:32Z</time>
      </trkpt>
      <trkpt lat="45.97799" lon="4.65464">
        <ele>281</ele>
        <time>2016-09-12T10:46:33Z</time>
      </trkpt>
      <trkpt lat="45.97802" lon="4.65472">
        <ele>281</ele>
        <time>2016-09-12T10:46:34Z</time>
      </trkpt>
      <trkpt lat="45.97804" lon="4.65481">
        <ele>281</ele>
        <time>2016-09-12T10:46:35Z</time>
      </trkpt>
      <trkpt lat="45.97807" lon="4.65489">
        <ele>280</ele>
        <time>2016-09-12T10:46:36Z</time>
      </trkpt>
      <trkpt lat="45.9781" lon="4.65498">
        <ele>280</ele>
        <time>2016-09-12T10:46:37Z</time>
      </trkpt>
      <trkpt lat="45.97812" lon="4.65508">
        <ele>280</ele>
        <time>2016-09-12T10:46:38Z</time>
      </trkpt>
      <trkpt lat="45.97814" lon="4.65517">
        <ele>280</ele>
        <time>2016-09-12T10:46:39Z</time>
      </trkpt>
      <trkpt lat="45.97817" lon="4.65527">
        <ele>280</ele>
        <time>2016-09-12T10:46:40Z</time>
      </trkpt>
      <trkpt lat="45.97819" lon="4.65537">
        <ele>280</ele>
        <time>2016-09-12T10:46:41Z</time>
      </trkpt>
      <trkpt lat="45.97822" lon="4.65547">
        <ele>280</ele>
        <time>2016-09-12T10:46:42Z</time>
      </trkpt>
      <trkpt lat="45.97824" lon="4.65557">
        <ele>280</ele>
        <time>2016-09-12T10:46:43Z</time>
      </trkpt>
      <trkpt lat="45.97826" lon="4.65567">
        <ele>280</ele>
        <time>2016-09-12T10:46:44Z</time>
      </trkpt>
      <trkpt lat="45.97828" lon="4.65576">
        <ele>280</ele>
        <time>2016-09-12T10:46:45Z</time>
      </trkpt>
      <trkpt lat="45.97831" lon="4.65586">
        <ele>280</ele>
        <time>2016-09-12T10:46:46Z</time>
      </trkpt>
      <trkpt lat="45.97833" lon="4.65595">
        <ele>280</ele>
        <time>2016-09-12T10:46:47Z</time>
      </trkpt>
      <trkpt lat="45.97836" lon="4.65605">
        <ele>280</ele>
        <time>2016-09-12T10:46:48Z</time>
      </trkpt>
      <trkpt lat="45.97838" lon="4.65613">
        <ele>279</ele>
        <time>2016-09-12T10:46:49Z</time>
      </trkpt>
      <trkpt lat="45.97841" lon="4.65622">
        <ele>279</ele>
        <time>2016-09-12T10:46:50Z</time>
      </trkpt>
      <trkpt lat="45.97843" lon="4.65631">
        <ele>279</ele>
        <time>2016-09-12T10:46:51Z</time>
      </trkpt>
      <trkpt lat="45.97846" lon="4.6564">
        <ele>279</ele>
        <time>2016-09-12T10:46:52Z</time>
      </trkpt>
      <trkpt lat="45.97848" lon="4.65649">
        <ele>279</ele>
        <time>2016-09-12T10:46:53Z</time>
      </trkpt>
      <trkpt lat="45.97851" lon="4.65658">
        <ele>279</ele>
        <time>2016-09-12T10:46:54Z</time>
      </trkpt>
      <trkpt lat="45.97854" lon="4.65667">
        <ele>278</ele>
        <time>2016-09-12T10:46:55Z</time>
      </trkpt>
      <trkpt lat="45.97857" lon="4.65676">
        <ele>278</ele>
        <time>2016-09-12T10:46:56Z</time>
      </trkpt>
      <trkpt lat="45.9786" lon="4.65685">
        <ele>278</ele>
        <time>2016-09-12T10:46:57Z</time>
      </trkpt>
      <trkpt lat="45.97863" lon="4.65694">
        <ele>278</ele>
        <time>2016-09-12T10:46:58Z</time>
      </trkpt>
      <trkpt lat="45.97866" lon="4.65703">
        <ele>278</ele>
        <time>2016-09-12T10:46:59Z</time>
      </trkpt>
      <trkpt lat="45.97869" lon="4.65712">
        <ele>278</ele>
        <time>2016-09-12T10:47:00Z</time>
      </trkpt>
      <trkpt lat="45.97871" lon="4.65722">
        <ele>278</ele>
        <time>2016-09-12T10:47:01Z</time>
      </trkpt>
      <trkpt lat="45.97874" lon="4.65731">
        <ele>278</ele>
        <time>2016-09-12T10:47:02Z</time>
      </trkpt>
      <trkpt lat="45.97877" lon="4.6574">
        <ele>278</ele>
        <time>2016-09-12T10:47:03Z</time>
      </trkpt>
      <trkpt lat="45.9788" lon="4.65749">
        <ele>278</ele>
        <time>2016-09-12T10:47:04Z</time>
      </trkpt>
      <trkpt lat="45.97882" lon="4.65758">
        <ele>277</ele>
        <time>2016-09-12T10:47:05Z</time>
      </trkpt>
      <trkpt lat="45.97885" lon="4.65767">
        <ele>277</ele>
        <time>2016-09-12T10:47:06Z</time>
      </trkpt>
      <trkpt lat="45.97888" lon="4.65776">
        <ele>277</ele>
        <time>2016-09-12T10:47:07Z</time>
      </trkpt>
      <trkpt lat="45.97891" lon="4.65785">
        <ele>277</ele>
        <time>2016-09-12T10:47:08Z</time>
      </trkpt>
      <trkpt lat="45.97894" lon="4.65794">
        <ele>277</ele>
        <time>2016-09-12T10:47:09Z</time>
      </trkpt>
      <trkpt lat="45.97897" lon="4.65803">
        <ele>277</ele>
        <time>2016-09-12T10:47:10Z</time>
      </trkpt>
      <trkpt lat="45.979" lon="4.65811">
        <ele>277</ele>
        <time>2016-09-12T10:47:11Z</time>
      </trkpt>
      <trkpt lat="45.97903" lon="4.6582">
        <ele>277</ele>
        <time>2016-09-12T10:47:12Z</time>
      </trkpt>
      <trkpt lat="45.97906" lon="4.65828">
        <ele>278</ele>
        <time>2016-09-12T10:47:13Z</time>
      </trkpt>
      <trkpt lat="45.97909" lon="4.65837">
        <ele>277</ele>
        <time>2016-09-12T10:47:14Z</time>
      </trkpt>
      <trkpt lat="45.97912" lon="4.65845">
        <ele>277</ele>
        <time>2016-09-12T10:47:15Z</time>
      </trkpt>
      <trkpt lat="45.97915" lon="4.65854">
        <ele>277</ele>
        <time>2016-09-12T10:47:16Z</time>
      </trkpt>
      <trkpt lat="45.97918" lon="4.65862">
        <ele>276</ele>
        <time>2016-09-12T10:47:17Z</time>
      </trkpt>
      <trkpt lat="45.9792" lon="4.65872">
        <ele>276</ele>
        <time>2016-09-12T10:47:18Z</time>
      </trkpt>
      <trkpt lat="45.97923" lon="4.65882">
        <ele>276</ele>
        <time>2016-09-12T10:47:19Z</time>
      </trkpt>
      <trkpt lat="45.97925" lon="4.65893">
        <ele>276</ele>
        <time>2016-09-12T10:47:20Z</time>
      </trkpt>
      <trkpt lat="45.97927" lon="4.65904">
        <ele>276</ele>
        <time>2016-09-12T10:47:21Z</time>
      </trkpt>
      <trkpt lat="45.97929" lon="4.65916">
        <ele>276</ele>
        <time>2016-09-12T10:47:22Z</time>
      </trkpt>
      <trkpt lat="45.9793" lon="4.65926">
        <ele>274</ele>
        <time>2016-09-12T10:47:23Z</time>
      </trkpt>
      <trkpt lat="45.97931" lon="4.65938">
        <ele>273</ele>
        <time>2016-09-12T10:47:24Z</time>
      </trkpt>
      <trkpt lat="45.97931" lon="4.65949">
        <ele>273</ele>
        <time>2016-09-12T10:47:25Z</time>
      </trkpt>
      <trkpt lat="45.97932" lon="4.65961">
        <ele>272</ele>
        <time>2016-09-12T10:47:26Z</time>
      </trkpt>
      <trkpt lat="45.97932" lon="4.65972">
        <ele>272</ele>
        <time>2016-09-12T10:47:27Z</time>
      </trkpt>
      <trkpt lat="45.97933" lon="4.65983">
        <ele>272</ele>
        <time>2016-09-12T10:47:28Z</time>
      </trkpt>
      <trkpt lat="45.97933" lon="4.65994">
        <ele>272</ele>
        <time>2016-09-12T10:47:29Z</time>
      </trkpt>
      <trkpt lat="45.97933" lon="4.66005">
        <ele>271</ele>
        <time>2016-09-12T10:47:30Z</time>
      </trkpt>
      <trkpt lat="45.97933" lon="4.66016">
        <ele>270</ele>
        <time>2016-09-12T10:47:31Z</time>
      </trkpt>
      <trkpt lat="45.97933" lon="4.66027">
        <ele>270</ele>
        <time>2016-09-12T10:47:32Z</time>
      </trkpt>
      <trkpt lat="45.97932" lon="4.66038">
        <ele>270</ele>
        <time>2016-09-12T10:47:33Z</time>
      </trkpt>
      <trkpt lat="45.97931" lon="4.66048">
        <ele>270</ele>
        <time>2016-09-12T10:47:34Z</time>
      </trkpt>
      <trkpt lat="45.97931" lon="4.66058">
        <ele>270</ele>
        <time>2016-09-12T10:47:35Z</time>
      </trkpt>
      <trkpt lat="45.9793" lon="4.66068">
        <ele>270</ele>
        <time>2016-09-12T10:47:36Z</time>
      </trkpt>
      <trkpt lat="45.9793" lon="4.66079">
        <ele>270</ele>
        <time>2016-09-12T10:47:37Z</time>
      </trkpt>
      <trkpt lat="45.9793" lon="4.66089">
        <ele>270</ele>
        <time>2016-09-12T10:47:38Z</time>
      </trkpt>
      <trkpt lat="45.97931" lon="4.66098">
        <ele>270</ele>
        <time>2016-09-12T10:47:39Z</time>
      </trkpt>
      <trkpt lat="45.97933" lon="4.66108">
        <ele>269</ele>
        <time>2016-09-12T10:47:40Z</time>
      </trkpt>
      <trkpt lat="45.97934" lon="4.66118">
        <ele>269</ele>
        <time>2016-09-12T10:47:41Z</time>
      </trkpt>
      <trkpt lat="45.97936" lon="4.66128">
        <ele>269</ele>
        <time>2016-09-12T10:47:42Z</time>
      </trkpt>
      <trkpt lat="45.97939" lon="4.66138">
        <ele>269</ele>
        <time>2016-09-12T10:47:43Z</time>
      </trkpt>
      <trkpt lat="45.97941" lon="4.66148">
        <ele>269</ele>
        <time>2016-09-12T10:47:44Z</time>
      </trkpt>
      <trkpt lat="45.97944" lon="4.6616">
        <ele>269</ele>
        <time>2016-09-12T10:47:45Z</time>
      </trkpt>
      <trkpt lat="45.97946" lon="4.6617">
        <ele>270</ele>
        <time>2016-09-12T10:47:46Z</time>
      </trkpt>
      <trkpt lat="45.97948" lon="4.66181">
        <ele>270</ele>
        <time>2016-09-12T10:47:47Z</time>
      </trkpt>
      <trkpt lat="45.9795" lon="4.6619">
        <ele>270</ele>
        <time>2016-09-12T10:47:48Z</time>
      </trkpt>
      <trkpt lat="45.97952" lon="4.66201">
        <ele>270</ele>
        <time>2016-09-12T10:47:49Z</time>
      </trkpt>
      <trkpt lat="45.97953" lon="4.66211">
        <ele>270</ele>
        <time>2016-09-12T10:47:50Z</time>
      </trkpt>
      <trkpt lat="45.97956" lon="4.6622">
        <ele>270</ele>
        <time>2016-09-12T10:47:51Z</time>
      </trkpt>
      <trkpt lat="45.97959" lon="4.66229">
        <ele>270</ele>
        <time>2016-09-12T10:47:52Z</time>
      </trkpt>
      <trkpt lat="45.97962" lon="4.66237">
        <ele>270</ele>
        <time>2016-09-12T10:47:53Z</time>
      </trkpt>
      <trkpt lat="45.97966" lon="4.66246">
        <ele>270</ele>
        <time>2016-09-12T10:47:54Z</time>
      </trkpt>
      <trkpt lat="45.9797" lon="4.66253">
        <ele>270</ele>
        <time>2016-09-12T10:47:55Z</time>
      </trkpt>
      <trkpt lat="45.97974" lon="4.6626">
        <ele>270</ele>
        <time>2016-09-12T10:47:56Z</time>
      </trkpt>
      <trkpt lat="45.97979" lon="4.66267">
        <ele>270</ele>
        <time>2016-09-12T10:47:57Z</time>
      </trkpt>
      <trkpt lat="45.97984" lon="4.66274">
        <ele>270</ele>
        <time>2016-09-12T10:47:58Z</time>
      </trkpt>
      <trkpt lat="45.9799" lon="4.66281">
        <ele>270</ele>
        <time>2016-09-12T10:47:59Z</time>
      </trkpt>
      <trkpt lat="45.97996" lon="4.66287">
        <ele>270</ele>
        <time>2016-09-12T10:48:00Z</time>
      </trkpt>
      <trkpt lat="45.98002" lon="4.66294">
        <ele>268</ele>
        <time>2016-09-12T10:48:01Z</time>
      </trkpt>
      <trkpt lat="45.98008" lon="4.663">
        <ele>268</ele>
        <time>2016-09-12T10:48:02Z</time>
      </trkpt>
      <trkpt lat="45.98015" lon="4.66307">
        <ele>268</ele>
        <time>2016-09-12T10:48:03Z</time>
      </trkpt>
      <trkpt lat="45.98021" lon="4.66315">
        <ele>268</ele>
        <time>2016-09-12T10:48:04Z</time>
      </trkpt>
      <trkpt lat="45.98026" lon="4.66324">
        <ele>268</ele>
        <time>2016-09-12T10:48:05Z</time>
      </trkpt>
      <trkpt lat="45.98032" lon="4.66333">
        <ele>268</ele>
        <time>2016-09-12T10:48:06Z</time>
      </trkpt>
      <trkpt lat="45.98037" lon="4.66342">
        <ele>267</ele>
        <time>2016-09-12T10:48:07Z</time>
      </trkpt>
      <trkpt lat="45.98041" lon="4.66353">
        <ele>267</ele>
        <time>2016-09-12T10:48:08Z</time>
      </trkpt>
      <trkpt lat="45.98045" lon="4.66364">
        <ele>267</ele>
        <time>2016-09-12T10:48:09Z</time>
      </trkpt>
      <trkpt lat="45.98049" lon="4.66375">
        <ele>267</ele>
        <time>2016-09-12T10:48:10Z</time>
      </trkpt>
      <trkpt lat="45.98053" lon="4.66386">
        <ele>267</ele>
        <time>2016-09-12T10:48:11Z</time>
      </trkpt>
      <trkpt lat="45.98056" lon="4.66397">
        <ele>267</ele>
        <time>2016-09-12T10:48:12Z</time>
      </trkpt>
      <trkpt lat="45.98059" lon="4.66407">
        <ele>266</ele>
        <time>2016-09-12T10:48:13Z</time>
      </trkpt>
      <trkpt lat="45.98063" lon="4.66418">
        <ele>266</ele>
        <time>2016-09-12T10:48:14Z</time>
      </trkpt>
      <trkpt lat="45.98065" lon="4.66428">
        <ele>266</ele>
        <time>2016-09-12T10:48:15Z</time>
      </trkpt>
      <trkpt lat="45.98068" lon="4.66439">
        <ele>266</ele>
        <time>2016-09-12T10:48:16Z</time>
      </trkpt>
      <trkpt lat="45.9807" lon="4.66449">
        <ele>266</ele>
        <time>2016-09-12T10:48:17Z</time>
      </trkpt>
      <trkpt lat="45.98072" lon="4.6646">
        <ele>266</ele>
        <time>2016-09-12T10:48:18Z</time>
      </trkpt>
      <trkpt lat="45.98073" lon="4.66471">
        <ele>266</ele>
        <time>2016-09-12T10:48:19Z</time>
      </trkpt>
      <trkpt lat="45.98074" lon="4.66481">
        <ele>266</ele>
        <time>2016-09-12T10:48:20Z</time>
      </trkpt>
      <trkpt lat="45.98075" lon="4.66492">
        <ele>265</ele>
        <time>2016-09-12T10:48:21Z</time>
      </trkpt>
      <trkpt lat="45.98075" lon="4.66503">
        <ele>265</ele>
        <time>2016-09-12T10:48:22Z</time>
      </trkpt>
      <trkpt lat="45.98076" lon="4.66515">
        <ele>265</ele>
        <time>2016-09-12T10:48:23Z</time>
      </trkpt>
      <trkpt lat="45.98077" lon="4.66526">
        <ele>264</ele>
        <time>2016-09-12T10:48:24Z</time>
      </trkpt>
      <trkpt lat="45.98077" lon="4.66537">
        <ele>264</ele>
        <time>2016-09-12T10:48:25Z</time>
      </trkpt>
      <trkpt lat="45.98078" lon="4.66547">
        <ele>264</ele>
        <time>2016-09-12T10:48:26Z</time>
      </trkpt>
      <trkpt lat="45.98079" lon="4.66558">
        <ele>263</ele>
        <time>2016-09-12T10:48:27Z</time>
      </trkpt>
      <trkpt lat="45.9808" lon="4.66569">
        <ele>263</ele>
        <time>2016-09-12T10:48:28Z</time>
      </trkpt>
      <trkpt lat="45.98081" lon="4.66579">
        <ele>262</ele>
        <time>2016-09-12T10:48:29Z</time>
      </trkpt>
      <trkpt lat="45.98083" lon="4.6659">
        <ele>262</ele>
        <time>2016-09-12T10:48:30Z</time>
      </trkpt>
      <trkpt lat="45.98085" lon="4.66601">
        <ele>260</ele>
        <time>2016-09-12T10:48:31Z</time>
      </trkpt>
      <trkpt lat="45.98087" lon="4.66611">
        <ele>260</ele>
        <time>2016-09-12T10:48:32Z</time>
      </trkpt>
      <trkpt lat="45.98089" lon="4.66623">
        <ele>259</ele>
        <time>2016-09-12T10:48:33Z</time>
      </trkpt>
      <trkpt lat="45.98091" lon="4.66634">
        <ele>259</ele>
        <time>2016-09-12T10:48:34Z</time>
      </trkpt>
      <trkpt lat="45.98094" lon="4.66645">
        <ele>259</ele>
        <time>2016-09-12T10:48:35Z</time>
      </trkpt>
      <trkpt lat="45.98096" lon="4.66657">
        <ele>259</ele>
        <time>2016-09-12T10:48:36Z</time>
      </trkpt>
      <trkpt lat="45.98098" lon="4.66668">
        <ele>258</ele>
        <time>2016-09-12T10:48:37Z</time>
      </trkpt>
      <trkpt lat="45.98101" lon="4.66681">
        <ele>258</ele>
        <time>2016-09-12T10:48:38Z</time>
      </trkpt>
      <trkpt lat="45.98103" lon="4.66692">
        <ele>257</ele>
        <time>2016-09-12T10:48:39Z</time>
      </trkpt>
      <trkpt lat="45.98105" lon="4.66704">
        <ele>257</ele>
        <time>2016-09-12T10:48:40Z</time>
      </trkpt>
      <trkpt lat="45.98107" lon="4.66716">
        <ele>257</ele>
        <time>2016-09-12T10:48:41Z</time>
      </trkpt>
      <trkpt lat="45.9811" lon="4.66728">
        <ele>257</ele>
        <time>2016-09-12T10:48:42Z</time>
      </trkpt>
      <trkpt lat="45.98112" lon="4.6674">
        <ele>256</ele>
        <time>2016-09-12T10:48:43Z</time>
      </trkpt>
      <trkpt lat="45.98114" lon="4.66752">
        <ele>255</ele>
        <time>2016-09-12T10:48:44Z</time>
      </trkpt>
      <trkpt lat="45.98117" lon="4.66764">
        <ele>255</ele>
        <time>2016-09-12T10:48:45Z</time>
      </trkpt>
      <trkpt lat="45.98119" lon="4.66776">
        <ele>255</ele>
        <time>2016-09-12T10:48:46Z</time>
      </trkpt>
      <trkpt lat="45.98121" lon="4.66787">
        <ele>255</ele>
        <time>2016-09-12T10:48:47Z</time>
      </trkpt>
      <trkpt lat="45.98123" lon="4.66799">
        <ele>255</ele>
        <time>2016-09-12T10:48:48Z</time>
      </trkpt>
      <trkpt lat="45.98126" lon="4.6681">
        <ele>254</ele>
        <time>2016-09-12T10:48:49Z</time>
      </trkpt>
      <trkpt lat="45.98128" lon="4.66822">
        <ele>254</ele>
        <time>2016-09-12T10:48:50Z</time>
      </trkpt>
      <trkpt lat="45.9813" lon="4.66833">
        <ele>254</ele>
        <time>2016-09-12T10:48:51Z</time>
      </trkpt>
      <trkpt lat="45.98132" lon="4.66845">
        <ele>254</ele>
        <time>2016-09-12T10:48:52Z</time>
      </trkpt>
      <trkpt lat="45.98134" lon="4.66856">
        <ele>254</ele>
        <time>2016-09-12T10:48:53Z</time>
      </trkpt>
      <trkpt lat="45.98136" lon="4.66867">
        <ele>254</ele>
        <time>2016-09-12T10:48:54Z</time>
      </trkpt>
      <trkpt lat="45.98137" lon="4.66879">
        <ele>254</ele>
        <time>2016-09-12T10:48:55Z</time>
      </trkpt>
      <trkpt lat="45.98138" lon="4.66891">
        <ele>254</ele>
        <time>2016-09-12T10:48:56Z</time>
      </trkpt>
      <trkpt lat="45.98139" lon="4.66903">
        <ele>254</ele>
        <time>2016-09-12T10:48:57Z</time>
      </trkpt>
      <trkpt lat="45.9814" lon="4.66915">
        <ele>254</ele>
        <time>2016-09-12T10:48:58Z</time>
      </trkpt>
      <trkpt lat="45.98141" lon="4.66927">
        <ele>253</ele>
        <time>2016-09-12T10:48:59Z</time>
      </trkpt>
      <trkpt lat="45.98141" lon="4.66939">
        <ele>253</ele>
        <time>2016-09-12T10:49:00Z</time>
      </trkpt>
      <trkpt lat="45.98141" lon="4.66951">
        <ele>253</ele>
        <time>2016-09-12T10:49:01Z</time>
      </trkpt>
      <trkpt lat="45.98142" lon="4.66963">
        <ele>253</ele>
        <time>2016-09-12T10:49:02Z</time>
      </trkpt>
      <trkpt lat="45.98142" lon="4.66975">
        <ele>253</ele>
        <time>2016-09-12T10:49:03Z</time>
      </trkpt>
      <trkpt lat="45.98142" lon="4.66986">
        <ele>253</ele>
        <time>2016-09-12T10:49:04Z</time>
      </trkpt>
      <trkpt lat="45.98142" lon="4.66997">
        <ele>253</ele>
        <time>2016-09-12T10:49:05Z</time>
      </trkpt>
      <trkpt lat="45.98143" lon="4.67008">
        <ele>251</ele>
        <time>2016-09-12T10:49:06Z</time>
      </trkpt>
      <trkpt lat="45.98143" lon="4.67019">
        <ele>251</ele>
        <time>2016-09-12T10:49:07Z</time>
      </trkpt>
      <trkpt lat="45.98144" lon="4.67029">
        <ele>251</ele>
        <time>2016-09-12T10:49:08Z</time>
      </trkpt>
      <trkpt lat="45.98145" lon="4.67039">
        <ele>251</ele>
        <time>2016-09-12T10:49:09Z</time>
      </trkpt>
      <trkpt lat="45.98146" lon="4.6705">
        <ele>251</ele>
        <time>2016-09-12T10:49:10Z</time>
      </trkpt>
      <trkpt lat="45.98148" lon="4.6706">
        <ele>251</ele>
        <time>2016-09-12T10:49:11Z</time>
      </trkpt>
      <trkpt lat="45.9815" lon="4.67069">
        <ele>251</ele>
        <time>2016-09-12T10:49:12Z</time>
      </trkpt>
      <trkpt lat="45.98152" lon="4.67079">
        <ele>251</ele>
        <time>2016-09-12T10:49:13Z</time>
      </trkpt>
      <trkpt lat="45.98155" lon="4.67089">
        <ele>251</ele>
        <time>2016-09-12T10:49:14Z</time>
      </trkpt>
      <trkpt lat="45.98157" lon="4.67098">
        <ele>251</ele>
        <time>2016-09-12T10:49:15Z</time>
      </trkpt>
      <trkpt lat="45.9816" lon="4.67109">
        <ele>251</ele>
        <time>2016-09-12T10:49:16Z</time>
      </trkpt>
      <trkpt lat="45.98163" lon="4.6712">
        <ele>251</ele>
        <time>2016-09-12T10:49:17Z</time>
      </trkpt>
      <trkpt lat="45.98166" lon="4.6713">
        <ele>251</ele>
        <time>2016-09-12T10:49:18Z</time>
      </trkpt>
      <trkpt lat="45.98169" lon="4.6714">
        <ele>249</ele>
        <time>2016-09-12T10:49:19Z</time>
      </trkpt>
      <trkpt lat="45.98172" lon="4.6715">
        <ele>250</ele>
        <time>2016-09-12T10:49:20Z</time>
      </trkpt>
      <trkpt lat="45.98175" lon="4.6716">
        <ele>250</ele>
        <time>2016-09-12T10:49:21Z</time>
      </trkpt>
      <trkpt lat="45.98178" lon="4.67171">
        <ele>251</ele>
        <time>2016-09-12T10:49:22Z</time>
      </trkpt>
      <trkpt lat="45.98181" lon="4.67182">
        <ele>250</ele>
        <time>2016-09-12T10:49:23Z</time>
      </trkpt>
      <trkpt lat="45.98184" lon="4.67193">
        <ele>250</ele>
        <time>2016-09-12T10:49:24Z</time>
      </trkpt>
      <trkpt lat="45.98187" lon="4.67204">
        <ele>250</ele>
        <time>2016-09-12T10:49:25Z</time>
      </trkpt>
      <trkpt lat="45.98189" lon="4.67215">
        <ele>250</ele>
        <time>2016-09-12T10:49:26Z</time>
      </trkpt>
      <trkpt lat="45.98191" lon="4.67225">
        <ele>250</ele>
        <time>2016-09-12T10:49:27Z</time>
      </trkpt>
      <trkpt lat="45.98194" lon="4.67235">
        <ele>250</ele>
        <time>2016-09-12T10:49:28Z</time>
      </trkpt>
      <trkpt lat="45.98195" lon="4.67245">
        <ele>250</ele>
        <time>2016-09-12T10:49:29Z</time>
      </trkpt>
      <trkpt lat="45.98197" lon="4.67255">
        <ele>250</ele>
        <time>2016-09-12T10:49:30Z</time>
      </trkpt>
      <trkpt lat="45.98197" lon="4.67265">
        <ele>250</ele>
        <time>2016-09-12T10:49:31Z</time>
      </trkpt>
      <trkpt lat="45.98197" lon="4.67275">
        <ele>249</ele>
        <time>2016-09-12T10:49:32Z</time>
      </trkpt>
      <trkpt lat="45.98198" lon="4.67285">
        <ele>249</ele>
        <time>2016-09-12T10:49:33Z</time>
      </trkpt>
      <trkpt lat="45.98199" lon="4.67294">
        <ele>249</ele>
        <time>2016-09-12T10:49:34Z</time>
      </trkpt>
      <trkpt lat="45.98199" lon="4.67304">
        <ele>249</ele>
        <time>2016-09-12T10:49:35Z</time>
      </trkpt>
      <trkpt lat="45.982" lon="4.67313">
        <ele>249</ele>
        <time>2016-09-12T10:49:36Z</time>
      </trkpt>
      <trkpt lat="45.982" lon="4.67322">
        <ele>249</ele>
        <time>2016-09-12T10:49:37Z</time>
      </trkpt>
      <trkpt lat="45.98201" lon="4.67331">
        <ele>249</ele>
        <time>2016-09-12T10:49:38Z</time>
      </trkpt>
      <trkpt lat="45.98201" lon="4.67341">
        <ele>248</ele>
        <time>2016-09-12T10:49:39Z</time>
      </trkpt>
      <trkpt lat="45.98201" lon="4.6735">
        <ele>248</ele>
        <time>2016-09-12T10:49:40Z</time>
      </trkpt>
      <trkpt lat="45.98201" lon="4.67358">
        <ele>248</ele>
        <time>2016-09-12T10:49:41Z</time>
      </trkpt>
      <trkpt lat="45.98201" lon="4.67368">
        <ele>248</ele>
        <time>2016-09-12T10:49:42Z</time>
      </trkpt>
      <trkpt lat="45.98201" lon="4.67377">
        <ele>248</ele>
        <time>2016-09-12T10:49:43Z</time>
      </trkpt>
      <trkpt lat="45.98202" lon="4.67387">
        <ele>248</ele>
        <time>2016-09-12T10:49:44Z</time>
      </trkpt>
      <trkpt lat="45.98202" lon="4.67396">
        <ele>248</ele>
        <time>2016-09-12T10:49:45Z</time>
      </trkpt>
      <trkpt lat="45.98202" lon="4.67405">
        <ele>248</ele>
        <time>2016-09-12T10:49:46Z</time>
      </trkpt>
      <trkpt lat="45.98202" lon="4.67414">
        <ele>248</ele>
        <time>2016-09-12T10:49:47Z</time>
      </trkpt>
      <trkpt lat="45.98202" lon="4.67423">
        <ele>247</ele>
        <time>2016-09-12T10:49:48Z</time>
      </trkpt>
      <trkpt lat="45.98202" lon="4.67432">
        <ele>247</ele>
        <time>2016-09-12T10:49:49Z</time>
      </trkpt>
      <trkpt lat="45.98202" lon="4.67441">
        <ele>247</ele>
        <time>2016-09-12T10:49:50Z</time>
      </trkpt>
      <trkpt lat="45.98203" lon="4.67449">
        <ele>247</ele>
        <time>2016-09-12T10:49:51Z</time>
      </trkpt>
      <trkpt lat="45.98203" lon="4.67458">
        <ele>247</ele>
        <time>2016-09-12T10:49:52Z</time>
      </trkpt>
      <trkpt lat="45.98203" lon="4.67467">
        <ele>247</ele>
        <time>2016-09-12T10:49:53Z</time>
      </trkpt>
      <trkpt lat="45.98204" lon="4.67476">
        <ele>247</ele>
        <time>2016-09-12T10:49:54Z</time>
      </trkpt>
      <trkpt lat="45.98204" lon="4.67486">
        <ele>247</ele>
        <time>2016-09-12T10:49:55Z</time>
      </trkpt>
      <trkpt lat="45.98205" lon="4.67496">
        <ele>247</ele>
        <time>2016-09-12T10:49:56Z</time>
      </trkpt>
      <trkpt lat="45.98206" lon="4.67506">
        <ele>247</ele>
        <time>2016-09-12T10:49:57Z</time>
      </trkpt>
      <trkpt lat="45.98206" lon="4.67516">
        <ele>247</ele>
        <time>2016-09-12T10:49:58Z</time>
      </trkpt>
      <trkpt lat="45.98207" lon="4.67527">
        <ele>247</ele>
        <time>2016-09-12T10:49:59Z</time>
      </trkpt>
      <trkpt lat="45.98208" lon="4.67537">
        <ele>247</ele>
        <time>2016-09-12T10:50:00Z</time>
      </trkpt>
      <trkpt lat="45.98209" lon="4.67547">
        <ele>247</ele>
        <time>2016-09-12T10:50:01Z</time>
      </trkpt>
      <trkpt lat="45.9821" lon="4.67558">
        <ele>247</ele>
        <time>2016-09-12T10:50:02Z</time>
      </trkpt>
      <trkpt lat="45.98212" lon="4.67568">
        <ele>247</ele>
        <time>2016-09-12T10:50:03Z</time>
      </trkpt>
      <trkpt lat="45.98213" lon="4.67579">
        <ele>247</ele>
        <time>2016-09-12T10:50:04Z</time>
      </trkpt>
      <trkpt lat="45.98215" lon="4.6759">
        <ele>246</ele>
        <time>2016-09-12T10:50:05Z</time>
      </trkpt>
      <trkpt lat="45.98217" lon="4.676">
        <ele>246</ele>
        <time>2016-09-12T10:50:06Z</time>
      </trkpt>
      <trkpt lat="45.98219" lon="4.67611">
        <ele>246</ele>
        <time>2016-09-12T10:50:07Z</time>
      </trkpt>
      <trkpt lat="45.98221" lon="4.67623">
        <ele>246</ele>
        <time>2016-09-12T10:50:08Z</time>
      </trkpt>
      <trkpt lat="45.98223" lon="4.67634">
        <ele>246</ele>
        <time>2016-09-12T10:50:09Z</time>
      </trkpt>
      <trkpt lat="45.98225" lon="4.67645">
        <ele>246</ele>
        <time>2016-09-12T10:50:10Z</time>
      </trkpt>
      <trkpt lat="45.98227" lon="4.67657">
        <ele>246</ele>
        <time>2016-09-12T10:50:11Z</time>
      </trkpt>
      <trkpt lat="45.98229" lon="4.67668">
        <ele>244</ele>
        <time>2016-09-12T10:50:12Z</time>
      </trkpt>
      <trkpt lat="45.98231" lon="4.6768">
        <ele>244</ele>
        <time>2016-09-12T10:50:13Z</time>
      </trkpt>
      <trkpt lat="45.98232" lon="4.67692">
        <ele>244</ele>
        <time>2016-09-12T10:50:14Z</time>
      </trkpt>
      <trkpt lat="45.98234" lon="4.67705">
        <ele>243</ele>
        <time>2016-09-12T10:50:15Z</time>
      </trkpt>
      <trkpt lat="45.98234" lon="4.67718">
        <ele>243</ele>
        <time>2016-09-12T10:50:16Z</time>
      </trkpt>
      <trkpt lat="45.98234" lon="4.67731">
        <ele>242</ele>
        <time>2016-09-12T10:50:17Z</time>
      </trkpt>
      <trkpt lat="45.98233" lon="4.67744">
        <ele>242</ele>
        <time>2016-09-12T10:50:18Z</time>
      </trkpt>
      <trkpt lat="45.98232" lon="4.67758">
        <ele>240</ele>
        <time>2016-09-12T10:50:19Z</time>
      </trkpt>
      <trkpt lat="45.9823" lon="4.67771">
        <ele>239</ele>
        <time>2016-09-12T10:50:20Z</time>
      </trkpt>
      <trkpt lat="45.98228" lon="4.67785">
        <ele>238</ele>
        <time>2016-09-12T10:50:21Z</time>
      </trkpt>
      <trkpt lat="45.98225" lon="4.67798">
        <ele>238</ele>
        <time>2016-09-12T10:50:22Z</time>
      </trkpt>
      <trkpt lat="45.98222" lon="4.67812">
        <ele>237</ele>
        <time>2016-09-12T10:50:23Z</time>
      </trkpt>
      <trkpt lat="45.98219" lon="4.67826">
        <ele>237</ele>
        <time>2016-09-12T10:50:24Z</time>
      </trkpt>
      <trkpt lat="45.98216" lon="4.6784">
        <ele>234</ele>
        <time>2016-09-12T10:50:25Z</time>
      </trkpt>
      <trkpt lat="45.98214" lon="4.67854">
        <ele>233</ele>
        <time>2016-09-12T10:50:26Z</time>
      </trkpt>
      <trkpt lat="45.98214" lon="4.67869">
        <ele>233</ele>
        <time>2016-09-12T10:50:27Z</time>
      </trkpt>
      <trkpt lat="45.98215" lon="4.67883">
        <ele>232</ele>
        <time>2016-09-12T10:50:28Z</time>
      </trkpt>
      <trkpt lat="45.98216" lon="4.67898">
        <ele>232</ele>
        <time>2016-09-12T10:50:29Z</time>
      </trkpt>
      <trkpt lat="45.98218" lon="4.67912">
        <ele>232</ele>
        <time>2016-09-12T10:50:30Z</time>
      </trkpt>
      <trkpt lat="45.98221" lon="4.67927">
        <ele>230</ele>
        <time>2016-09-12T10:50:31Z</time>
      </trkpt>
      <trkpt lat="45.98222" lon="4.67941">
        <ele>230</ele>
        <time>2016-09-12T10:50:32Z</time>
      </trkpt>
      <trkpt lat="45.98223" lon="4.67956">
        <ele>229</ele>
        <time>2016-09-12T10:50:33Z</time>
      </trkpt>
      <trkpt lat="45.98224" lon="4.6797">
        <ele>229</ele>
        <time>2016-09-12T10:50:34Z</time>
      </trkpt>
      <trkpt lat="45.98224" lon="4.67984">
        <ele>229</ele>
        <time>2016-09-12T10:50:35Z</time>
      </trkpt>
      <trkpt lat="45.98224" lon="4.67997">
        <ele>229</ele>
        <time>2016-09-12T10:50:36Z</time>
      </trkpt>
      <trkpt lat="45.98224" lon="4.68011">
        <ele>228</ele>
        <time>2016-09-12T10:50:37Z</time>
      </trkpt>
      <trkpt lat="45.98224" lon="4.68024">
        <ele>228</ele>
        <time>2016-09-12T10:50:38Z</time>
      </trkpt>
      <trkpt lat="45.98224" lon="4.68037">
        <ele>228</ele>
        <time>2016-09-12T10:50:39Z</time>
      </trkpt>
      <trkpt lat="45.98224" lon="4.6805">
        <ele>228</ele>
        <time>2016-09-12T10:50:40Z</time>
      </trkpt>
      <trkpt lat="45.98225" lon="4.68062">
        <ele>228</ele>
        <time>2016-09-12T10:50:41Z</time>
      </trkpt>
      <trkpt lat="45.98225" lon="4.68075">
        <ele>228</ele>
        <time>2016-09-12T10:50:42Z</time>
      </trkpt>
      <trkpt lat="45.98225" lon="4.68087">
        <ele>228</ele>
        <time>2016-09-12T10:50:43Z</time>
      </trkpt>
      <trkpt lat="45.98225" lon="4.68099">
        <ele>228</ele>
        <time>2016-09-12T10:50:44Z</time>
      </trkpt>
      <trkpt lat="45.98225" lon="4.68111">
        <ele>228</ele>
        <time>2016-09-12T10:50:45Z</time>
      </trkpt>
      <trkpt lat="45.98226" lon="4.68122">
        <ele>228</ele>
        <time>2016-09-12T10:50:46Z</time>
      </trkpt>
      <trkpt lat="45.98226" lon="4.68135">
        <ele>228</ele>
        <time>2016-09-12T10:50:47Z</time>
      </trkpt>
      <trkpt lat="45.98226" lon="4.68146">
        <ele>228</ele>
        <time>2016-09-12T10:50:48Z</time>
      </trkpt>
      <trkpt lat="45.98226" lon="4.68158">
        <ele>228</ele>
        <time>2016-09-12T10:50:49Z</time>
      </trkpt>
      <trkpt lat="45.98226" lon="4.68169">
        <ele>227</ele>
        <time>2016-09-12T10:50:50Z</time>
      </trkpt>
      <trkpt lat="45.98225" lon="4.6818">
        <ele>227</ele>
        <time>2016-09-12T10:50:51Z</time>
      </trkpt>
      <trkpt lat="45.98224" lon="4.68191">
        <ele>227</ele>
        <time>2016-09-12T10:50:52Z</time>
      </trkpt>
      <trkpt lat="45.98224" lon="4.68201">
        <ele>226</ele>
        <time>2016-09-12T10:50:53Z</time>
      </trkpt>
      <trkpt lat="45.98225" lon="4.68211">
        <ele>226</ele>
        <time>2016-09-12T10:50:54Z</time>
      </trkpt>
      <trkpt lat="45.98225" lon="4.68222">
        <ele>226</ele>
        <time>2016-09-12T10:50:55Z</time>
      </trkpt>
      <trkpt lat="45.98227" lon="4.68233">
        <ele>226</ele>
        <time>2016-09-12T10:50:56Z</time>
      </trkpt>
      <trkpt lat="45.98228" lon="4.68245">
        <ele>225</ele>
        <time>2016-09-12T10:50:57Z</time>
      </trkpt>
      <trkpt lat="45.98228" lon="4.68256">
        <ele>223</ele>
        <time>2016-09-12T10:50:58Z</time>
      </trkpt>
      <trkpt lat="45.9823" lon="4.68267">
        <ele>223</ele>
        <time>2016-09-12T10:50:59Z</time>
      </trkpt>
      <trkpt lat="45.9823" lon="4.68279">
        <ele>222</ele>
        <time>2016-09-12T10:51:00Z</time>
      </trkpt>
      <trkpt lat="45.98231" lon="4.6829">
        <ele>222</ele>
        <time>2016-09-12T10:51:01Z</time>
      </trkpt>
      <trkpt lat="45.98231" lon="4.68302">
        <ele>221</ele>
        <time>2016-09-12T10:51:02Z</time>
      </trkpt>
      <trkpt lat="45.98232" lon="4.68314">
        <ele>221</ele>
        <time>2016-09-12T10:51:03Z</time>
      </trkpt>
      <trkpt lat="45.98233" lon="4.68326">
        <ele>221</ele>
        <time>2016-09-12T10:51:04Z</time>
      </trkpt>
      <trkpt lat="45.98233" lon="4.68339">
        <ele>219</ele>
        <time>2016-09-12T10:51:05Z</time>
      </trkpt>
      <trkpt lat="45.98234" lon="4.68351">
        <ele>218</ele>
        <time>2016-09-12T10:51:06Z</time>
      </trkpt>
      <trkpt lat="45.98233" lon="4.68364">
        <ele>218</ele>
        <time>2016-09-12T10:51:07Z</time>
      </trkpt>
      <trkpt lat="45.98233" lon="4.68378">
        <ele>217</ele>
        <time>2016-09-12T10:51:08Z</time>
      </trkpt>
      <trkpt lat="45.98232" lon="4.68391">
        <ele>217</ele>
        <time>2016-09-12T10:51:09Z</time>
      </trkpt>
      <trkpt lat="45.98232" lon="4.68405">
        <ele>217</ele>
        <time>2016-09-12T10:51:10Z</time>
      </trkpt>
      <trkpt lat="45.98231" lon="4.68418">
        <ele>215</ele>
        <time>2016-09-12T10:51:11Z</time>
      </trkpt>
      <trkpt lat="45.98231" lon="4.68432">
        <ele>214</ele>
        <time>2016-09-12T10:51:12Z</time>
      </trkpt>
      <trkpt lat="45.9823" lon="4.68446">
        <ele>214</ele>
        <time>2016-09-12T10:51:13Z</time>
      </trkpt>
      <trkpt lat="45.9823" lon="4.6846">
        <ele>213</ele>
        <time>2016-09-12T10:51:14Z</time>
      </trkpt>
      <trkpt lat="45.9823" lon="4.68474">
        <ele>213</ele>
        <time>2016-09-12T10:51:15Z</time>
      </trkpt>
      <trkpt lat="45.9823" lon="4.68489">
        <ele>213</ele>
        <time>2016-09-12T10:51:16Z</time>
      </trkpt>
      <trkpt lat="45.9823" lon="4.68504">
        <ele>211</ele>
        <time>2016-09-12T10:51:17Z</time>
      </trkpt>
      <trkpt lat="45.9823" lon="4.68519">
        <ele>211</ele>
        <time>2016-09-12T10:51:18Z</time>
      </trkpt>
      <trkpt lat="45.9823" lon="4.68535">
        <ele>210</ele>
        <time>2016-09-12T10:51:19Z</time>
      </trkpt>
      <trkpt lat="45.98231" lon="4.68551">
        <ele>210</ele>
        <time>2016-09-12T10:51:20Z</time>
      </trkpt>
      <trkpt lat="45.98232" lon="4.68567">
        <ele>210</ele>
        <time>2016-09-12T10:51:21Z</time>
      </trkpt>
      <trkpt lat="45.98233" lon="4.68583">
        <ele>210</ele>
        <time>2016-09-12T10:51:22Z</time>
      </trkpt>
      <trkpt lat="45.98235" lon="4.68598">
        <ele>209</ele>
        <time>2016-09-12T10:51:23Z</time>
      </trkpt>
      <trkpt lat="45.98236" lon="4.68614">
        <ele>209</ele>
        <time>2016-09-12T10:51:24Z</time>
      </trkpt>
      <trkpt lat="45.98237" lon="4.68629">
        <ele>208</ele>
        <time>2016-09-12T10:51:25Z</time>
      </trkpt>
      <trkpt lat="45.98235" lon="4.68644">
        <ele>209</ele>
        <time>2016-09-12T10:51:26Z</time>
      </trkpt>
      <trkpt lat="45.98233" lon="4.68658">
        <ele>209</ele>
        <time>2016-09-12T10:51:27Z</time>
      </trkpt>
      <trkpt lat="45.9823" lon="4.68673">
        <ele>208</ele>
        <time>2016-09-12T10:51:28Z</time>
      </trkpt>
      <trkpt lat="45.98227" lon="4.68687">
        <ele>207</ele>
        <time>2016-09-12T10:51:29Z</time>
      </trkpt>
      <trkpt lat="45.98225" lon="4.68701">
        <ele>207</ele>
        <time>2016-09-12T10:51:30Z</time>
      </trkpt>
      <trkpt lat="45.98223" lon="4.68715">
        <ele>207</ele>
        <time>2016-09-12T10:51:31Z</time>
      </trkpt>
      <trkpt lat="45.9822" lon="4.68729">
        <ele>206</ele>
        <time>2016-09-12T10:51:32Z</time>
      </trkpt>
      <trkpt lat="45.98218" lon="4.68742">
        <ele>206</ele>
        <time>2016-09-12T10:51:33Z</time>
      </trkpt>
      <trkpt lat="45.98216" lon="4.68756">
        <ele>205</ele>
        <time>2016-09-12T10:51:34Z</time>
      </trkpt>
      <trkpt lat="45.98214" lon="4.68769">
        <ele>205</ele>
        <time>2016-09-12T10:51:35Z</time>
      </trkpt>
      <trkpt lat="45.98213" lon="4.68781">
        <ele>204</ele>
        <time>2016-09-12T10:51:36Z</time>
      </trkpt>
      <trkpt lat="45.98211" lon="4.68792">
        <ele>204</ele>
        <time>2016-09-12T10:51:37Z</time>
      </trkpt>
      <trkpt lat="45.9821" lon="4.68804">
        <ele>204</ele>
        <time>2016-09-12T10:51:38Z</time>
      </trkpt>
      <trkpt lat="45.98209" lon="4.68816">
        <ele>204</ele>
        <time>2016-09-12T10:51:39Z</time>
      </trkpt>
      <trkpt lat="45.98208" lon="4.68828">
        <ele>204</ele>
        <time>2016-09-12T10:51:40Z</time>
      </trkpt>
      <trkpt lat="45.98208" lon="4.68838">
        <ele>203</ele>
        <time>2016-09-12T10:51:41Z</time>
      </trkpt>
      <trkpt lat="45.98207" lon="4.68849">
        <ele>203</ele>
        <time>2016-09-12T10:51:42Z</time>
      </trkpt>
      <trkpt lat="45.98206" lon="4.68859">
        <ele>203</ele>
        <time>2016-09-12T10:51:43Z</time>
      </trkpt>
      <trkpt lat="45.98205" lon="4.68869">
        <ele>203</ele>
        <time>2016-09-12T10:51:44Z</time>
      </trkpt>
      <trkpt lat="45.98205" lon="4.68879">
        <ele>203</ele>
        <time>2016-09-12T10:51:45Z</time>
      </trkpt>
      <trkpt lat="45.98204" lon="4.68889">
        <ele>203</ele>
        <time>2016-09-12T10:51:46Z</time>
      </trkpt>
      <trkpt lat="45.98204" lon="4.68898">
        <ele>203</ele>
        <time>2016-09-12T10:51:47Z</time>
      </trkpt>
      <trkpt lat="45.98202" lon="4.68907">
        <ele>202</ele>
        <time>2016-09-12T10:51:48Z</time>
      </trkpt>
      <trkpt lat="45.98201" lon="4.68915">
        <ele>202</ele>
        <time>2016-09-12T10:51:49Z</time>
      </trkpt>
      <trkpt lat="45.982" lon="4.68924">
        <ele>202</ele>
        <time>2016-09-12T10:51:50Z</time>
      </trkpt>
      <trkpt lat="45.98199" lon="4.68933">
        <ele>202</ele>
        <time>2016-09-12T10:51:51Z</time>
      </trkpt>
      <trkpt lat="45.98198" lon="4.68941">
        <ele>202</ele>
        <time>2016-09-12T10:51:52Z</time>
      </trkpt>
      <trkpt lat="45.98196" lon="4.6895">
        <ele>202</ele>
        <time>2016-09-12T10:51:53Z</time>
      </trkpt>
      <trkpt lat="45.98195" lon="4.68958">
        <ele>202</ele>
        <time>2016-09-12T10:51:54Z</time>
      </trkpt>
      <trkpt lat="45.98194" lon="4.68967">
        <ele>202</ele>
        <time>2016-09-12T10:51:55Z</time>
      </trkpt>
      <trkpt lat="45.98193" lon="4.68976">
        <ele>202</ele>
        <time>2016-09-12T10:51:56Z</time>
      </trkpt>
      <trkpt lat="45.98193" lon="4.68985">
        <ele>202</ele>
        <time>2016-09-12T10:51:57Z</time>
      </trkpt>
      <trkpt lat="45.98192" lon="4.68994">
        <ele>202</ele>
        <time>2016-09-12T10:51:58Z</time>
      </trkpt>
      <trkpt lat="45.98191" lon="4.69003">
        <ele>201</ele>
        <time>2016-09-12T10:51:59Z</time>
      </trkpt>
      <trkpt lat="45.98191" lon="4.69012">
        <ele>201</ele>
        <time>2016-09-12T10:52:00Z</time>
      </trkpt>
      <trkpt lat="45.98191" lon="4.6902">
        <ele>201</ele>
        <time>2016-09-12T10:52:01Z</time>
      </trkpt>
      <trkpt lat="45.98191" lon="4.69029">
        <ele>201</ele>
        <time>2016-09-12T10:52:02Z</time>
      </trkpt>
      <trkpt lat="45.98193" lon="4.69037">
        <ele>201</ele>
        <time>2016-09-12T10:52:03Z</time>
      </trkpt>
      <trkpt lat="45.98195" lon="4.69045">
        <ele>201</ele>
        <time>2016-09-12T10:52:04Z</time>
      </trkpt>
      <trkpt lat="45.98199" lon="4.69054">
        <ele>201</ele>
        <time>2016-09-12T10:52:05Z</time>
      </trkpt>
      <trkpt lat="45.98202" lon="4.69063">
        <ele>201</ele>
        <time>2016-09-12T10:52:06Z</time>
      </trkpt>
      <trkpt lat="45.98206" lon="4.69071">
        <ele>201</ele>
        <time>2016-09-12T10:52:07Z</time>
      </trkpt>
      <trkpt lat="45.98209" lon="4.69079">
        <ele>201</ele>
        <time>2016-09-12T10:52:08Z</time>
      </trkpt>
      <trkpt lat="45.98213" lon="4.69087">
        <ele>200</ele>
        <time>2016-09-12T10:52:09Z</time>
      </trkpt>
      <trkpt lat="45.98216" lon="4.69096">
        <ele>200</ele>
        <time>2016-09-12T10:52:10Z</time>
      </trkpt>
      <trkpt lat="45.98219" lon="4.69105">
        <ele>200</ele>
        <time>2016-09-12T10:52:11Z</time>
      </trkpt>
      <trkpt lat="45.98222" lon="4.69115">
        <ele>199</ele>
        <time>2016-09-12T10:52:12Z</time>
      </trkpt>
      <trkpt lat="45.98225" lon="4.69124">
        <ele>199</ele>
        <time>2016-09-12T10:52:13Z</time>
      </trkpt>
      <trkpt lat="45.98228" lon="4.69133">
        <ele>199</ele>
        <time>2016-09-12T10:52:14Z</time>
      </trkpt>
      <trkpt lat="45.9823" lon="4.69143">
        <ele>199</ele>
        <time>2016-09-12T10:52:15Z</time>
      </trkpt>
      <trkpt lat="45.98232" lon="4.69153">
        <ele>199</ele>
        <time>2016-09-12T10:52:16Z</time>
      </trkpt>
      <trkpt lat="45.98233" lon="4.69163">
        <ele>199</ele>
        <time>2016-09-12T10:52:17Z</time>
      </trkpt>
      <trkpt lat="45.98232" lon="4.69172">
        <ele>197</ele>
        <time>2016-09-12T10:52:18Z</time>
      </trkpt>
      <trkpt lat="45.98232" lon="4.69183">
        <ele>197</ele>
        <time>2016-09-12T10:52:19Z</time>
      </trkpt>
      <trkpt lat="45.9823" lon="4.69193">
        <ele>197</ele>
        <time>2016-09-12T10:52:20Z</time>
      </trkpt>
      <trkpt lat="45.98229" lon="4.69203">
        <ele>196</ele>
        <time>2016-09-12T10:52:21Z</time>
      </trkpt>
      <trkpt lat="45.98227" lon="4.69214">
        <ele>196</ele>
        <time>2016-09-12T10:52:22Z</time>
      </trkpt>
      <trkpt lat="45.98227" lon="4.69225">
        <ele>196</ele>
        <time>2016-09-12T10:52:23Z</time>
      </trkpt>
      <trkpt lat="45.98225" lon="4.69236">
        <ele>196</ele>
        <time>2016-09-12T10:52:24Z</time>
      </trkpt>
      <trkpt lat="45.98224" lon="4.69247">
        <ele>195</ele>
        <time>2016-09-12T10:52:25Z</time>
      </trkpt>
      <trkpt lat="45.98222" lon="4.69258">
        <ele>194</ele>
        <time>2016-09-12T10:52:26Z</time>
      </trkpt>
      <trkpt lat="45.98221" lon="4.69269">
        <ele>194</ele>
        <time>2016-09-12T10:52:27Z</time>
      </trkpt>
      <trkpt lat="45.98219" lon="4.69281">
        <ele>194</ele>
        <time>2016-09-12T10:52:28Z</time>
      </trkpt>
      <trkpt lat="45.98217" lon="4.69292">
        <ele>194</ele>
        <time>2016-09-12T10:52:29Z</time>
      </trkpt>
      <trkpt lat="45.98215" lon="4.69303">
        <ele>194</ele>
        <time>2016-09-12T10:52:30Z</time>
      </trkpt>
      <trkpt lat="45.98213" lon="4.69312">
        <ele>194</ele>
        <time>2016-09-12T10:52:31Z</time>
      </trkpt>
      <trkpt lat="45.98211" lon="4.69318">
        <ele>194</ele>
        <time>2016-09-12T10:52:32Z</time>
      </trkpt>
      <trkpt lat="45.98208" lon="4.69325">
        <ele>194</ele>
        <time>2016-09-12T10:52:33Z</time>
      </trkpt>
      <trkpt lat="45.98205" lon="4.69333">
        <ele>194</ele>
        <time>2016-09-12T10:52:34Z</time>
      </trkpt>
      <trkpt lat="45.98203" lon="4.69342">
        <ele>193</ele>
        <time>2016-09-12T10:52:35Z</time>
      </trkpt>
      <trkpt lat="45.98202" lon="4.69351">
        <ele>193</ele>
        <time>2016-09-12T10:52:36Z</time>
      </trkpt>
      <trkpt lat="45.98201" lon="4.6936">
        <ele>193</ele>
        <time>2016-09-12T10:52:37Z</time>
      </trkpt>
      <trkpt lat="45.98199" lon="4.6937">
        <ele>193</ele>
        <time>2016-09-12T10:52:38Z</time>
      </trkpt>
      <trkpt lat="45.98196" lon="4.69379">
        <ele>194</ele>
        <time>2016-09-12T10:52:39Z</time>
      </trkpt>
      <trkpt lat="45.98194" lon="4.69388">
        <ele>194</ele>
        <time>2016-09-12T10:52:40Z</time>
      </trkpt>
      <trkpt lat="45.98191" lon="4.69397">
        <ele>194</ele>
        <time>2016-09-12T10:52:41Z</time>
      </trkpt>
      <trkpt lat="45.98189" lon="4.69406">
        <ele>194</ele>
        <time>2016-09-12T10:52:42Z</time>
      </trkpt>
      <trkpt lat="45.98186" lon="4.69415">
        <ele>194</ele>
        <time>2016-09-12T10:52:43Z</time>
      </trkpt>
      <trkpt lat="45.98184" lon="4.69425">
        <ele>194</ele>
        <time>2016-09-12T10:52:44Z</time>
      </trkpt>
      <trkpt lat="45.98182" lon="4.69433">
        <ele>194</ele>
        <time>2016-09-12T10:52:45Z</time>
      </trkpt>
      <trkpt lat="45.98179" lon="4.69442">
        <ele>194</ele>
        <time>2016-09-12T10:52:46Z</time>
      </trkpt>
      <trkpt lat="45.98177" lon="4.6945">
        <ele>194</ele>
        <time>2016-09-12T10:52:47Z</time>
      </trkpt>
      <trkpt lat="45.98175" lon="4.69458">
        <ele>194</ele>
        <time>2016-09-12T10:52:48Z</time>
      </trkpt>
      <trkpt lat="45.98172" lon="4.69464">
        <ele>194</ele>
        <time>2016-09-12T10:52:49Z</time>
      </trkpt>
      <trkpt lat="45.98168" lon="4.69471">
        <ele>194</ele>
        <time>2016-09-12T10:52:50Z</time>
      </trkpt>
      <trkpt lat="45.98165" lon="4.69477">
        <ele>195</ele>
        <time>2016-09-12T10:52:51Z</time>
      </trkpt>
      <trkpt lat="45.98162" lon="4.69483">
        <ele>195</ele>
        <time>2016-09-12T10:52:52Z</time>
      </trkpt>
      <trkpt lat="45.9816" lon="4.6949">
        <ele>195</ele>
        <time>2016-09-12T10:52:53Z</time>
      </trkpt>
      <trkpt lat="45.98158" lon="4.69497">
        <ele>195</ele>
        <time>2016-09-12T10:52:54Z</time>
      </trkpt>
      <trkpt lat="45.98157" lon="4.69505">
        <ele>196</ele>
        <time>2016-09-12T10:52:55Z</time>
      </trkpt>
      <trkpt lat="45.98155" lon="4.69512">
        <ele>196</ele>
        <time>2016-09-12T10:52:56Z</time>
      </trkpt>
      <trkpt lat="45.98153" lon="4.69519">
        <ele>196</ele>
        <time>2016-09-12T10:52:57Z</time>
      </trkpt>
      <trkpt lat="45.9815" lon="4.69526">
        <ele>196</ele>
        <time>2016-09-12T10:52:58Z</time>
      </trkpt>
      <trkpt lat="45.98148" lon="4.69533">
        <ele>196</ele>
        <time>2016-09-12T10:52:59Z</time>
      </trkpt>
      <trkpt lat="45.98146" lon="4.69539">
        <ele>197</ele>
        <time>2016-09-12T10:53:00Z</time>
      </trkpt>
      <trkpt lat="45.98143" lon="4.69546">
        <ele>197</ele>
        <time>2016-09-12T10:53:01Z</time>
      </trkpt>
      <trkpt lat="45.98141" lon="4.69553">
        <ele>197</ele>
        <time>2016-09-12T10:53:02Z</time>
      </trkpt>
      <trkpt lat="45.98139" lon="4.6956">
        <ele>197</ele>
        <time>2016-09-12T10:53:03Z</time>
      </trkpt>
      <trkpt lat="45.98137" lon="4.69566">
        <ele>197</ele>
        <time>2016-09-12T10:53:04Z</time>
      </trkpt>
      <trkpt lat="45.98136" lon="4.69573">
        <ele>197</ele>
        <time>2016-09-12T10:53:05Z</time>
      </trkpt>
      <trkpt lat="45.98134" lon="4.69579">
        <ele>197</ele>
        <time>2016-09-12T10:53:06Z</time>
      </trkpt>
      <trkpt lat="45.98132" lon="4.69585">
        <ele>198</ele>
        <time>2016-09-12T10:53:07Z</time>
      </trkpt>
      <trkpt lat="45.9813" lon="4.69592">
        <ele>198</ele>
        <time>2016-09-12T10:53:08Z</time>
      </trkpt>
      <trkpt lat="45.98128" lon="4.69598">
        <ele>198</ele>
        <time>2016-09-12T10:53:09Z</time>
      </trkpt>
      <trkpt lat="45.98127" lon="4.69604">
        <ele>198</ele>
        <time>2016-09-12T10:53:10Z</time>
      </trkpt>
      <trkpt lat="45.98125" lon="4.6961">
        <ele>198</ele>
        <time>2016-09-12T10:53:11Z</time>
      </trkpt>
      <trkpt lat="45.98123" lon="4.69622">
        <ele>198</ele>
        <time>2016-09-12T10:53:13Z</time>
      </trkpt>
      <trkpt lat="45.98122" lon="4.69628">
        <ele>199</ele>
        <time>2016-09-12T10:53:14Z</time>
      </trkpt>
      <trkpt lat="45.98119" lon="4.69639">
        <ele>199</ele>
        <time>2016-09-12T10:53:16Z</time>
      </trkpt>
      <trkpt lat="45.98117" lon="4.69644">
        <ele>199</ele>
        <time>2016-09-12T10:53:17Z</time>
      </trkpt>
      <trkpt lat="45.98114" lon="4.69654">
        <ele>199</ele>
        <time>2016-09-12T10:53:19Z</time>
      </trkpt>
      <trkpt lat="45.98113" lon="4.69659">
        <ele>199</ele>
        <time>2016-09-12T10:53:20Z</time>
      </trkpt>
      <trkpt lat="45.98109" lon="4.69666">
        <ele>199</ele>
        <time>2016-09-12T10:53:22Z</time>
      </trkpt>
      <trkpt lat="45.98107" lon="4.6967">
        <ele>200</ele>
        <time>2016-09-12T10:53:23Z</time>
      </trkpt>
      <trkpt lat="45.98103" lon="4.69677">
        <ele>200</ele>
        <time>2016-09-12T10:53:25Z</time>
      </trkpt>
      <trkpt lat="45.98101" lon="4.6968">
        <ele>200</ele>
        <time>2016-09-12T10:53:26Z</time>
      </trkpt>
      <trkpt lat="45.98096" lon="4.69687">
        <ele>200</ele>
        <time>2016-09-12T10:53:28Z</time>
      </trkpt>
      <trkpt lat="45.98094" lon="4.69689">
        <ele>200</ele>
        <time>2016-09-12T10:53:29Z</time>
      </trkpt>
      <trkpt lat="45.98089" lon="4.69695">
        <ele>200</ele>
        <time>2016-09-12T10:53:31Z</time>
      </trkpt>
      <trkpt lat="45.98087" lon="4.69698">
        <ele>200</ele>
        <time>2016-09-12T10:53:32Z</time>
      </trkpt>
      <trkpt lat="45.98082" lon="4.69705">
        <ele>202</ele>
        <time>2016-09-12T10:53:34Z</time>
      </trkpt>
      <trkpt lat="45.9808" lon="4.69708">
        <ele>202</ele>
        <time>2016-09-12T10:53:35Z</time>
      </trkpt>
      <trkpt lat="45.98076" lon="4.69714">
        <ele>202</ele>
        <time>2016-09-12T10:53:37Z</time>
      </trkpt>
      <trkpt lat="45.98074" lon="4.69718">
        <ele>202</ele>
        <time>2016-09-12T10:53:38Z</time>
      </trkpt>
      <trkpt lat="45.98069" lon="4.69725">
        <ele>202</ele>
        <time>2016-09-12T10:53:40Z</time>
      </trkpt>
      <trkpt lat="45.98067" lon="4.69729">
        <ele>202</ele>
        <time>2016-09-12T10:53:41Z</time>
      </trkpt>
      <trkpt lat="45.9806" lon="4.69738">
        <ele>202</ele>
        <time>2016-09-12T10:53:44Z</time>
      </trkpt>
      <trkpt lat="45.98058" lon="4.69741">
        <ele>203</ele>
        <time>2016-09-12T10:53:45Z</time>
      </trkpt>
      <trkpt lat="45.98053" lon="4.69747">
        <ele>203</ele>
        <time>2016-09-12T10:53:47Z</time>
      </trkpt>
      <trkpt lat="45.98051" lon="4.6975">
        <ele>203</ele>
        <time>2016-09-12T10:53:48Z</time>
      </trkpt>
      <trkpt lat="45.98044" lon="4.69758">
        <ele>205</ele>
        <time>2016-09-12T10:53:51Z</time>
      </trkpt>
      <trkpt lat="45.98042" lon="4.69761">
        <ele>205</ele>
        <time>2016-09-12T10:53:52Z</time>
      </trkpt>
      <trkpt lat="45.98035" lon="4.69768">
        <ele>206</ele>
        <time>2016-09-12T10:53:55Z</time>
      </trkpt>
      <trkpt lat="45.98033" lon="4.69772">
        <ele>206</ele>
        <time>2016-09-12T10:53:56Z</time>
      </trkpt>
      <trkpt lat="45.98029" lon="4.69779">
        <ele>206</ele>
        <time>2016-09-12T10:53:58Z</time>
      </trkpt>
      <trkpt lat="45.98027" lon="4.69781">
        <ele>206</ele>
        <time>2016-09-12T10:53:59Z</time>
      </trkpt>
      <trkpt lat="45.9802" lon="4.69787">
        <ele>206</ele>
        <time>2016-09-12T10:54:02Z</time>
      </trkpt>
      <trkpt lat="45.98018" lon="4.69789">
        <ele>206</ele>
        <time>2016-09-12T10:54:03Z</time>
      </trkpt>
      <trkpt lat="45.98012" lon="4.69795">
        <ele>206</ele>
        <time>2016-09-12T10:54:05Z</time>
      </trkpt>
      <trkpt lat="45.9801" lon="4.69798">
        <ele>206</ele>
        <time>2016-09-12T10:54:06Z</time>
      </trkpt>
      <trkpt lat="45.98005" lon="4.69805">
        <ele>207</ele>
        <time>2016-09-12T10:54:08Z</time>
      </trkpt>
      <trkpt lat="45.98002" lon="4.69808">
        <ele>207</ele>
        <time>2016-09-12T10:54:09Z</time>
      </trkpt>
      <trkpt lat="45.97995" lon="4.69812">
        <ele>207</ele>
        <time>2016-09-12T10:54:11Z</time>
      </trkpt>
      <trkpt lat="45.97991" lon="4.69814">
        <ele>207</ele>
        <time>2016-09-12T10:54:12Z</time>
      </trkpt>
      <trkpt lat="45.97984" lon="4.69821">
        <ele>207</ele>
        <time>2016-09-12T10:54:14Z</time>
      </trkpt>
      <trkpt lat="45.97982" lon="4.69825">
        <ele>207</ele>
        <time>2016-09-12T10:54:15Z</time>
      </trkpt>
      <trkpt lat="45.97977" lon="4.69834">
        <ele>208</ele>
        <time>2016-09-12T10:54:17Z</time>
      </trkpt>
      <trkpt lat="45.97974" lon="4.69837">
        <ele>208</ele>
        <time>2016-09-12T10:54:18Z</time>
      </trkpt>
      <trkpt lat="45.97969" lon="4.69841">
        <ele>209</ele>
        <time>2016-09-12T10:54:20Z</time>
      </trkpt>
      <trkpt lat="45.97967" lon="4.69845">
        <ele>209</ele>
        <time>2016-09-12T10:54:21Z</time>
      </trkpt>
      <trkpt lat="45.97963" lon="4.6985">
        <ele>209</ele>
        <time>2016-09-12T10:54:23Z</time>
      </trkpt>
      <trkpt lat="45.97961" lon="4.69855">
        <ele>209</ele>
        <time>2016-09-12T10:54:24Z</time>
      </trkpt>
      <trkpt lat="45.97956" lon="4.69861">
        <ele>209</ele>
        <time>2016-09-12T10:54:26Z</time>
      </trkpt>
      <trkpt lat="45.97954" lon="4.69864">
        <ele>209</ele>
        <time>2016-09-12T10:54:27Z</time>
      </trkpt>
      <trkpt lat="45.97949" lon="4.69871">
        <ele>209</ele>
        <time>2016-09-12T10:54:29Z</time>
      </trkpt>
      <trkpt lat="45.97946" lon="4.69874">
        <ele>209</ele>
        <time>2016-09-12T10:54:30Z</time>
      </trkpt>
      <trkpt lat="45.97942" lon="4.69881">
        <ele>209</ele>
        <time>2016-09-12T10:54:32Z</time>
      </trkpt>
      <trkpt lat="45.97939" lon="4.69885">
        <ele>209</ele>
        <time>2016-09-12T10:54:33Z</time>
      </trkpt>
      <trkpt lat="45.97935" lon="4.69892">
        <ele>210</ele>
        <time>2016-09-12T10:54:35Z</time>
      </trkpt>
      <trkpt lat="45.97932" lon="4.69895">
        <ele>210</ele>
        <time>2016-09-12T10:54:36Z</time>
      </trkpt>
      <trkpt lat="45.97928" lon="4.69901">
        <ele>210</ele>
        <time>2016-09-12T10:54:38Z</time>
      </trkpt>
      <trkpt lat="45.97925" lon="4.69905">
        <ele>210</ele>
        <time>2016-09-12T10:54:39Z</time>
      </trkpt>
      <trkpt lat="45.9792" lon="4.6991">
        <ele>211</ele>
        <time>2016-09-12T10:54:41Z</time>
      </trkpt>
      <trkpt lat="45.97918" lon="4.69913">
        <ele>211</ele>
        <time>2016-09-12T10:54:42Z</time>
      </trkpt>
      <trkpt lat="45.97912" lon="4.69917">
        <ele>212</ele>
        <time>2016-09-12T10:54:44Z</time>
      </trkpt>
      <trkpt lat="45.9791" lon="4.6992">
        <ele>212</ele>
        <time>2016-09-12T10:54:45Z</time>
      </trkpt>
      <trkpt lat="45.97906" lon="4.69928">
        <ele>213</ele>
        <time>2016-09-12T10:54:47Z</time>
      </trkpt>
      <trkpt lat="45.97904" lon="4.69931">
        <ele>213</ele>
        <time>2016-09-12T10:54:48Z</time>
      </trkpt>
      <trkpt lat="45.97899" lon="4.69939">
        <ele>213</ele>
        <time>2016-09-12T10:54:51Z</time>
      </trkpt>
      <trkpt lat="45.97897" lon="4.69941">
        <ele>213</ele>
        <time>2016-09-12T10:54:52Z</time>
      </trkpt>
      <trkpt lat="45.97891" lon="4.69948">
        <ele>214</ele>
        <time>2016-09-12T10:54:55Z</time>
      </trkpt>
      <trkpt lat="45.97889" lon="4.69949">
        <ele>214</ele>
        <time>2016-09-12T10:54:56Z</time>
      </trkpt>
      <trkpt lat="45.97883" lon="4.69955">
        <ele>214</ele>
        <time>2016-09-12T10:54:59Z</time>
      </trkpt>
      <trkpt lat="45.97881" lon="4.69957">
        <ele>214</ele>
        <time>2016-09-12T10:55:00Z</time>
      </trkpt>
      <trkpt lat="45.97876" lon="4.69963">
        <ele>214</ele>
        <time>2016-09-12T10:55:03Z</time>
      </trkpt>
      <trkpt lat="45.97873" lon="4.69965">
        <ele>214</ele>
        <time>2016-09-12T10:55:04Z</time>
      </trkpt>
      <trkpt lat="45.97867" lon="4.69973">
        <ele>215</ele>
        <time>2016-09-12T10:55:08Z</time>
      </trkpt>
      <trkpt lat="45.97865" lon="4.69975">
        <ele>215</ele>
        <time>2016-09-12T10:55:09Z</time>
      </trkpt>
      <trkpt lat="45.97858" lon="4.69982">
        <ele>215</ele>
        <time>2016-09-12T10:55:12Z</time>
      </trkpt>
      <trkpt lat="45.97856" lon="4.69984">
        <ele>215</ele>
        <time>2016-09-12T10:55:13Z</time>
      </trkpt>
      <trkpt lat="45.9785" lon="4.69992">
        <ele>216</ele>
        <time>2016-09-12T10:55:16Z</time>
      </trkpt>
      <trkpt lat="45.97849" lon="4.69994">
        <ele>216</ele>
        <time>2016-09-12T10:55:17Z</time>
      </trkpt>
      <trkpt lat="45.97844" lon="4.7">
        <ele>216</ele>
        <time>2016-09-12T10:55:20Z</time>
      </trkpt>
      <trkpt lat="45.97842" lon="4.70002">
        <ele>217</ele>
        <time>2016-09-12T10:55:21Z</time>
      </trkpt>
      <trkpt lat="45.97836" lon="4.7001">
        <ele>217</ele>
        <time>2016-09-12T10:55:24Z</time>
      </trkpt>
      <trkpt lat="45.97835" lon="4.70012">
        <ele>217</ele>
        <time>2016-09-12T10:55:25Z</time>
      </trkpt>
      <trkpt lat="45.97828" lon="4.70021">
        <ele>218</ele>
        <time>2016-09-12T10:55:29Z</time>
      </trkpt>
      <trkpt lat="45.97827" lon="4.70023">
        <ele>218</ele>
        <time>2016-09-12T10:55:30Z</time>
      </trkpt>
      <trkpt lat="45.97823" lon="4.70032">
        <ele>218</ele>
        <time>2016-09-12T10:55:33Z</time>
      </trkpt>
      <trkpt lat="45.97822" lon="4.70035">
        <ele>219</ele>
        <time>2016-09-12T10:55:34Z</time>
      </trkpt>
      <trkpt lat="45.97817" lon="4.70044">
        <ele>219</ele>
        <time>2016-09-12T10:55:37Z</time>
      </trkpt>
      <trkpt lat="45.97817" lon="4.70047">
        <ele>219</ele>
        <time>2016-09-12T10:55:38Z</time>
      </trkpt>
      <trkpt lat="45.97816" lon="4.7006">
        <ele>219</ele>
        <time>2016-09-12T10:55:42Z</time>
      </trkpt>
      <trkpt lat="45.97816" lon="4.70064">
        <ele>219</ele>
        <time>2016-09-12T10:55:43Z</time>
      </trkpt>
      <trkpt lat="45.97817" lon="4.70076">
        <ele>219</ele>
        <time>2016-09-12T10:55:46Z</time>
      </trkpt>
      <trkpt lat="45.97816" lon="4.7008">
        <ele>219</ele>
        <time>2016-09-12T10:55:47Z</time>
      </trkpt>
      <trkpt lat="45.97815" lon="4.70089">
        <ele>220</ele>
        <time>2016-09-12T10:55:49Z</time>
      </trkpt>
      <trkpt lat="45.97815" lon="4.70093">
        <ele>220</ele>
        <time>2016-09-12T10:55:50Z</time>
      </trkpt>
      <trkpt lat="45.97814" lon="4.70102">
        <ele>221</ele>
        <time>2016-09-12T10:55:52Z</time>
      </trkpt>
      <trkpt lat="45.97814" lon="4.70108">
        <ele>221</ele>
        <time>2016-09-12T10:55:53Z</time>
      </trkpt>
      <trkpt lat="45.97814" lon="4.70118">
        <ele>221</ele>
        <time>2016-09-12T10:55:55Z</time>
      </trkpt>
      <trkpt lat="45.97814" lon="4.70123">
        <ele>221</ele>
        <time>2016-09-12T10:55:56Z</time>
      </trkpt>
      <trkpt lat="45.97814" lon="4.70133">
        <ele>221</ele>
        <time>2016-09-12T10:55:58Z</time>
      </trkpt>
      <trkpt lat="45.97814" lon="4.70138">
        <ele>221</ele>
        <time>2016-09-12T10:55:59Z</time>
      </trkpt>
      <trkpt lat="45.97814" lon="4.70147">
        <ele>221</ele>
        <time>2016-09-12T10:56:01Z</time>
      </trkpt>
      <trkpt lat="45.97814" lon="4.70152">
        <ele>221</ele>
        <time>2016-09-12T10:56:02Z</time>
      </trkpt>
      <trkpt lat="45.97814" lon="4.70162">
        <ele>221</ele>
        <time>2016-09-12T10:56:04Z</time>
      </trkpt>
      <trkpt lat="45.97814" lon="4.70167">
        <ele>221</ele>
        <time>2016-09-12T10:56:05Z</time>
      </trkpt>
      <trkpt lat="45.97814" lon="4.70177">
        <ele>222</ele>
        <time>2016-09-12T10:56:07Z</time>
      </trkpt>
      <trkpt lat="45.97813" lon="4.70181">
        <ele>222</ele>
        <time>2016-09-12T10:56:08Z</time>
      </trkpt>
      <trkpt lat="45.97813" lon="4.70192">
        <ele>223</ele>
        <time>2016-09-12T10:56:10Z</time>
      </trkpt>
      <trkpt lat="45.97813" lon="4.70197">
        <ele>223</ele>
        <time>2016-09-12T10:56:11Z</time>
      </trkpt>
      <trkpt lat="45.97814" lon="4.70209">
        <ele>223</ele>
        <time>2016-09-12T10:56:13Z</time>
      </trkpt>
      <trkpt lat="45.97814" lon="4.70215">
        <ele>223</ele>
        <time>2016-09-12T10:56:14Z</time>
      </trkpt>
      <trkpt lat="45.97814" lon="4.70226">
        <ele>223</ele>
        <time>2016-09-12T10:56:16Z</time>
      </trkpt>
      <trkpt lat="45.97814" lon="4.70231">
        <ele>223</ele>
        <time>2016-09-12T10:56:17Z</time>
      </trkpt>
      <trkpt lat="45.97814" lon="4.70242">
        <ele>223</ele>
        <time>2016-09-12T10:56:19Z</time>
      </trkpt>
      <trkpt lat="45.97814" lon="4.70247">
        <ele>223</ele>
        <time>2016-09-12T10:56:20Z</time>
      </trkpt>
      <trkpt lat="45.97815" lon="4.70259">
        <ele>223</ele>
        <time>2016-09-12T10:56:22Z</time>
      </trkpt>
      <trkpt lat="45.97815" lon="4.70264">
        <ele>223</ele>
        <time>2016-09-12T10:56:23Z</time>
      </trkpt>
      <trkpt lat="45.97816" lon="4.70274">
        <ele>223</ele>
        <time>2016-09-12T10:56:25Z</time>
      </trkpt>
      <trkpt lat="45.97815" lon="4.7028">
        <ele>223</ele>
        <time>2016-09-12T10:56:26Z</time>
      </trkpt>
      <trkpt lat="45.97816" lon="4.70292">
        <ele>223</ele>
        <time>2016-09-12T10:56:28Z</time>
      </trkpt>
      <trkpt lat="45.97816" lon="4.70299">
        <ele>223</ele>
        <time>2016-09-12T10:56:29Z</time>
      </trkpt>
      <trkpt lat="45.97816" lon="4.70306">
        <ele>223</ele>
        <time>2016-09-12T10:56:30Z</time>
      </trkpt>
      <trkpt lat="45.97817" lon="4.70314">
        <ele>223</ele>
        <time>2016-09-12T10:56:31Z</time>
      </trkpt>
      <trkpt lat="45.97817" lon="4.70321">
        <ele>222</ele>
        <time>2016-09-12T10:56:32Z</time>
      </trkpt>
      <trkpt lat="45.97816" lon="4.70327">
        <ele>222</ele>
        <time>2016-09-12T10:56:33Z</time>
      </trkpt>
      <trkpt lat="45.97815" lon="4.70334">
        <ele>222</ele>
        <time>2016-09-12T10:56:34Z</time>
      </trkpt>
      <trkpt lat="45.97814" lon="4.70341">
        <ele>222</ele>
        <time>2016-09-12T10:56:35Z</time>
      </trkpt>
      <trkpt lat="45.97812" lon="4.70353">
        <ele>222</ele>
        <time>2016-09-12T10:56:37Z</time>
      </trkpt>
      <trkpt lat="45.97812" lon="4.70359">
        <ele>222</ele>
        <time>2016-09-12T10:56:38Z</time>
      </trkpt>
      <trkpt lat="45.9781" lon="4.70369">
        <ele>222</ele>
        <time>2016-09-12T10:56:40Z</time>
      </trkpt>
      <trkpt lat="45.97809" lon="4.70374">
        <ele>222</ele>
        <time>2016-09-12T10:56:41Z</time>
      </trkpt>
      <trkpt lat="45.97808" lon="4.70385">
        <ele>222</ele>
        <time>2016-09-12T10:56:43Z</time>
      </trkpt>
      <trkpt lat="45.97806" lon="4.70391">
        <ele>222</ele>
        <time>2016-09-12T10:56:44Z</time>
      </trkpt>
      <trkpt lat="45.97803" lon="4.70403">
        <ele>222</ele>
        <time>2016-09-12T10:56:46Z</time>
      </trkpt>
      <trkpt lat="45.97802" lon="4.70408">
        <ele>222</ele>
        <time>2016-09-12T10:56:47Z</time>
      </trkpt>
      <trkpt lat="45.978" lon="4.70419">
        <ele>221</ele>
        <time>2016-09-12T10:56:49Z</time>
      </trkpt>
      <trkpt lat="45.97799" lon="4.70425">
        <ele>221</ele>
        <time>2016-09-12T10:56:50Z</time>
      </trkpt>
      <trkpt lat="45.97797" lon="4.70431">
        <ele>221</ele>
        <time>2016-09-12T10:56:51Z</time>
      </trkpt>
      <trkpt lat="45.97797" lon="4.70438">
        <ele>221</ele>
        <time>2016-09-12T10:56:52Z</time>
      </trkpt>
      <trkpt lat="45.97796" lon="4.70445">
        <ele>221</ele>
        <time>2016-09-12T10:56:53Z</time>
      </trkpt>
      <trkpt lat="45.97795" lon="4.70451">
        <ele>221</ele>
        <time>2016-09-12T10:56:54Z</time>
      </trkpt>
      <trkpt lat="45.97794" lon="4.70463">
        <ele>221</ele>
        <time>2016-09-12T10:56:56Z</time>
      </trkpt>
      <trkpt lat="45.97793" lon="4.70468">
        <ele>221</ele>
        <time>2016-09-12T10:56:57Z</time>
      </trkpt>
      <trkpt lat="45.97793" lon="4.70475">
        <ele>221</ele>
        <time>2016-09-12T10:56:58Z</time>
      </trkpt>
      <trkpt lat="45.97793" lon="4.70482">
        <ele>221</ele>
        <time>2016-09-12T10:56:59Z</time>
      </trkpt>
      <trkpt lat="45.97793" lon="4.7049">
        <ele>221</ele>
        <time>2016-09-12T10:57:00Z</time>
      </trkpt>
      <trkpt lat="45.97792" lon="4.70498">
        <ele>221</ele>
        <time>2016-09-12T10:57:01Z</time>
      </trkpt>
      <trkpt lat="45.97792" lon="4.70506">
        <ele>222</ele>
        <time>2016-09-12T10:57:02Z</time>
      </trkpt>
      <trkpt lat="45.97792" lon="4.70513">
        <ele>222</ele>
        <time>2016-09-12T10:57:03Z</time>
      </trkpt>
      <trkpt lat="45.97792" lon="4.70521">
        <ele>222</ele>
        <time>2016-09-12T10:57:04Z</time>
      </trkpt>
      <trkpt lat="45.97792" lon="4.70529">
        <ele>222</ele>
        <time>2016-09-12T10:57:05Z</time>
      </trkpt>
      <trkpt lat="45.97792" lon="4.70536">
        <ele>222</ele>
        <time>2016-09-12T10:57:06Z</time>
      </trkpt>
      <trkpt lat="45.97792" lon="4.70543">
        <ele>222</ele>
        <time>2016-09-12T10:57:07Z</time>
      </trkpt>
      <trkpt lat="45.97792" lon="4.70551">
        <ele>222</ele>
        <time>2016-09-12T10:57:08Z</time>
      </trkpt>
      <trkpt lat="45.97791" lon="4.70559">
        <ele>222</ele>
        <time>2016-09-12T10:57:09Z</time>
      </trkpt>
      <trkpt lat="45.97791" lon="4.70567">
        <ele>222</ele>
        <time>2016-09-12T10:57:10Z</time>
      </trkpt>
      <trkpt lat="45.97791" lon="4.70575">
        <ele>223</ele>
        <time>2016-09-12T10:57:11Z</time>
      </trkpt>
      <trkpt lat="45.97791" lon="4.70583">
        <ele>223</ele>
        <time>2016-09-12T10:57:12Z</time>
      </trkpt>
      <trkpt lat="45.97791" lon="4.70591">
        <ele>223</ele>
        <time>2016-09-12T10:57:13Z</time>
      </trkpt>
      <trkpt lat="45.9779" lon="4.706">
        <ele>223</ele>
        <time>2016-09-12T10:57:14Z</time>
      </trkpt>
      <trkpt lat="45.9779" lon="4.70609">
        <ele>223</ele>
        <time>2016-09-12T10:57:15Z</time>
      </trkpt>
      <trkpt lat="45.9779" lon="4.70617">
        <ele>223</ele>
        <time>2016-09-12T10:57:16Z</time>
      </trkpt>
      <trkpt lat="45.97789" lon="4.70625">
        <ele>223</ele>
        <time>2016-09-12T10:57:17Z</time>
      </trkpt>
      <trkpt lat="45.97789" lon="4.70634">
        <ele>222</ele>
        <time>2016-09-12T10:57:18Z</time>
      </trkpt>
      <trkpt lat="45.97788" lon="4.70642">
        <ele>222</ele>
        <time>2016-09-12T10:57:19Z</time>
      </trkpt>
      <trkpt lat="45.97788" lon="4.7065">
        <ele>222</ele>
        <time>2016-09-12T10:57:20Z</time>
      </trkpt>
      <trkpt lat="45.97789" lon="4.70658">
        <ele>222</ele>
        <time>2016-09-12T10:57:21Z</time>
      </trkpt>
      <trkpt lat="45.97789" lon="4.70668">
        <ele>222</ele>
        <time>2016-09-12T10:57:22Z</time>
      </trkpt>
      <trkpt lat="45.9779" lon="4.70676">
        <ele>222</ele>
        <time>2016-09-12T10:57:23Z</time>
      </trkpt>
      <trkpt lat="45.9779" lon="4.70684">
        <ele>222</ele>
        <time>2016-09-12T10:57:24Z</time>
      </trkpt>
      <trkpt lat="45.9779" lon="4.70692">
        <ele>222</ele>
        <time>2016-09-12T10:57:25Z</time>
      </trkpt>
      <trkpt lat="45.9779" lon="4.707">
        <ele>222</ele>
        <time>2016-09-12T10:57:26Z</time>
      </trkpt>
      <trkpt lat="45.9779" lon="4.70707">
        <ele>222</ele>
        <time>2016-09-12T10:57:27Z</time>
      </trkpt>
      <trkpt lat="45.9779" lon="4.70716">
        <ele>222</ele>
        <time>2016-09-12T10:57:28Z</time>
      </trkpt>
      <trkpt lat="45.9779" lon="4.70723">
        <ele>222</ele>
        <time>2016-09-12T10:57:29Z</time>
      </trkpt>
      <trkpt lat="45.9779" lon="4.70731">
        <ele>222</ele>
        <time>2016-09-12T10:57:30Z</time>
      </trkpt>
      <trkpt lat="45.9779" lon="4.70739">
        <ele>222</ele>
        <time>2016-09-12T10:57:31Z</time>
      </trkpt>
      <trkpt lat="45.9779" lon="4.70747">
        <ele>222</ele>
        <time>2016-09-12T10:57:32Z</time>
      </trkpt>
      <trkpt lat="45.9779" lon="4.70755">
        <ele>221</ele>
        <time>2016-09-12T10:57:33Z</time>
      </trkpt>
      <trkpt lat="45.97789" lon="4.70762">
        <ele>221</ele>
        <time>2016-09-12T10:57:34Z</time>
      </trkpt>
      <trkpt lat="45.97788" lon="4.70769">
        <ele>221</ele>
        <time>2016-09-12T10:57:35Z</time>
      </trkpt>
      <trkpt lat="45.97787" lon="4.70776">
        <ele>221</ele>
        <time>2016-09-12T10:57:36Z</time>
      </trkpt>
      <trkpt lat="45.97787" lon="4.70783">
        <ele>221</ele>
        <time>2016-09-12T10:57:37Z</time>
      </trkpt>
      <trkpt lat="45.97787" lon="4.7079">
        <ele>221</ele>
        <time>2016-09-12T10:57:38Z</time>
      </trkpt>
      <trkpt lat="45.97791" lon="4.70797">
        <ele>221</ele>
        <time>2016-09-12T10:57:39Z</time>
      </trkpt>
      <trkpt lat="45.97796" lon="4.70802">
        <ele>221</ele>
        <time>2016-09-12T10:57:40Z</time>
      </trkpt>
      <trkpt lat="45.97801" lon="4.70806">
        <ele>221</ele>
        <time>2016-09-12T10:57:41Z</time>
      </trkpt>
      <trkpt lat="45.97805" lon="4.70811">
        <ele>221</ele>
        <time>2016-09-12T10:57:42Z</time>
      </trkpt>
      <trkpt lat="45.97809" lon="4.70817">
        <ele>221</ele>
        <time>2016-09-12T10:57:43Z</time>
      </trkpt>
      <trkpt lat="45.97812" lon="4.70824">
        <ele>221</ele>
        <time>2016-09-12T10:57:44Z</time>
      </trkpt>
      <trkpt lat="45.97815" lon="4.7083">
        <ele>221</ele>
        <time>2016-09-12T10:57:45Z</time>
      </trkpt>
      <trkpt lat="45.97817" lon="4.70838">
        <ele>221</ele>
        <time>2016-09-12T10:57:46Z</time>
      </trkpt>
      <trkpt lat="45.97818" lon="4.70846">
        <ele>220</ele>
        <time>2016-09-12T10:57:47Z</time>
      </trkpt>
      <trkpt lat="45.9782" lon="4.70856">
        <ele>220</ele>
        <time>2016-09-12T10:57:48Z</time>
      </trkpt>
      <trkpt lat="45.97821" lon="4.70865">
        <ele>220</ele>
        <time>2016-09-12T10:57:49Z</time>
      </trkpt>
      <trkpt lat="45.97822" lon="4.70875">
        <ele>220</ele>
        <time>2016-09-12T10:57:50Z</time>
      </trkpt>
      <trkpt lat="45.97822" lon="4.70884">
        <ele>220</ele>
        <time>2016-09-12T10:57:51Z</time>
      </trkpt>
      <trkpt lat="45.97823" lon="4.70894">
        <ele>220</ele>
        <time>2016-09-12T10:57:52Z</time>
      </trkpt>
      <trkpt lat="45.97823" lon="4.70905">
        <ele>219</ele>
        <time>2016-09-12T10:57:53Z</time>
      </trkpt>
      <trkpt lat="45.97823" lon="4.70914">
        <ele>219</ele>
        <time>2016-09-12T10:57:54Z</time>
      </trkpt>
      <trkpt lat="45.97822" lon="4.70925">
        <ele>219</ele>
        <time>2016-09-12T10:57:55Z</time>
      </trkpt>
      <trkpt lat="45.97824" lon="4.70936">
        <ele>218</ele>
        <time>2016-09-12T10:57:56Z</time>
      </trkpt>
      <trkpt lat="45.97828" lon="4.70947">
        <ele>218</ele>
        <time>2016-09-12T10:57:57Z</time>
      </trkpt>
      <trkpt lat="45.97832" lon="4.70956">
        <ele>218</ele>
        <time>2016-09-12T10:57:58Z</time>
      </trkpt>
      <trkpt lat="45.97835" lon="4.70966">
        <ele>217</ele>
        <time>2016-09-12T10:57:59Z</time>
      </trkpt>
      <trkpt lat="45.97836" lon="4.70977">
        <ele>217</ele>
        <time>2016-09-12T10:58:00Z</time>
      </trkpt>
      <trkpt lat="45.97838" lon="4.70988">
        <ele>217</ele>
        <time>2016-09-12T10:58:01Z</time>
      </trkpt>
      <trkpt lat="45.97839" lon="4.70999">
        <ele>216</ele>
        <time>2016-09-12T10:58:02Z</time>
      </trkpt>
      <trkpt lat="45.9784" lon="4.71011">
        <ele>216</ele>
        <time>2016-09-12T10:58:03Z</time>
      </trkpt>
      <trkpt lat="45.97841" lon="4.71022">
        <ele>216</ele>
        <time>2016-09-12T10:58:04Z</time>
      </trkpt>
      <trkpt lat="45.97842" lon="4.71034">
        <ele>216</ele>
        <time>2016-09-12T10:58:05Z</time>
      </trkpt>
      <trkpt lat="45.97843" lon="4.71046">
        <ele>215</ele>
        <time>2016-09-12T10:58:06Z</time>
      </trkpt>
      <trkpt lat="45.97845" lon="4.71058">
        <ele>215</ele>
        <time>2016-09-12T10:58:07Z</time>
      </trkpt>
      <trkpt lat="45.97845" lon="4.71069">
        <ele>215</ele>
        <time>2016-09-12T10:58:08Z</time>
      </trkpt>
      <trkpt lat="45.97846" lon="4.7108">
        <ele>215</ele>
        <time>2016-09-12T10:58:09Z</time>
      </trkpt>
      <trkpt lat="45.97847" lon="4.7109">
        <ele>213</ele>
        <time>2016-09-12T10:58:10Z</time>
      </trkpt>
      <trkpt lat="45.97848" lon="4.711">
        <ele>213</ele>
        <time>2016-09-12T10:58:11Z</time>
      </trkpt>
      <trkpt lat="45.97849" lon="4.71109">
        <ele>213</ele>
        <time>2016-09-12T10:58:12Z</time>
      </trkpt>
      <trkpt lat="45.9785" lon="4.71118">
        <ele>213</ele>
        <time>2016-09-12T10:58:13Z</time>
      </trkpt>
      <trkpt lat="45.9785" lon="4.71127">
        <ele>212</ele>
        <time>2016-09-12T10:58:14Z</time>
      </trkpt>
      <trkpt lat="45.97851" lon="4.71136">
        <ele>212</ele>
        <time>2016-09-12T10:58:15Z</time>
      </trkpt>
      <trkpt lat="45.97851" lon="4.71145">
        <ele>212</ele>
        <time>2016-09-12T10:58:16Z</time>
      </trkpt>
      <trkpt lat="45.97853" lon="4.71153">
        <ele>212</ele>
        <time>2016-09-12T10:58:17Z</time>
      </trkpt>
      <trkpt lat="45.97854" lon="4.71162">
        <ele>212</ele>
        <time>2016-09-12T10:58:18Z</time>
      </trkpt>
      <trkpt lat="45.97855" lon="4.71171">
        <ele>209</ele>
        <time>2016-09-12T10:58:19Z</time>
      </trkpt>
      <trkpt lat="45.97855" lon="4.71179">
        <ele>209</ele>
        <time>2016-09-12T10:58:20Z</time>
      </trkpt>
      <trkpt lat="45.97854" lon="4.71185">
        <ele>209</ele>
        <time>2016-09-12T10:58:21Z</time>
      </trkpt>
      <trkpt lat="45.97854" lon="4.71198">
        <ele>209</ele>
        <time>2016-09-12T10:58:23Z</time>
      </trkpt>
      <trkpt lat="45.97855" lon="4.71204">
        <ele>209</ele>
        <time>2016-09-12T10:58:24Z</time>
      </trkpt>
      <trkpt lat="45.97855" lon="4.71211">
        <ele>208</ele>
        <time>2016-09-12T10:58:25Z</time>
      </trkpt>
      <trkpt lat="45.97855" lon="4.71218">
        <ele>208</ele>
        <time>2016-09-12T10:58:26Z</time>
      </trkpt>
      <trkpt lat="45.97854" lon="4.71225">
        <ele>208</ele>
        <time>2016-09-12T10:58:27Z</time>
      </trkpt>
      <trkpt lat="45.97854" lon="4.71232">
        <ele>208</ele>
        <time>2016-09-12T10:58:28Z</time>
      </trkpt>
      <trkpt lat="45.97854" lon="4.71244">
        <ele>208</ele>
        <time>2016-09-12T10:58:30Z</time>
      </trkpt>
      <trkpt lat="45.97854" lon="4.7125">
        <ele>207</ele>
        <time>2016-09-12T10:58:31Z</time>
      </trkpt>
      <trkpt lat="45.97853" lon="4.71262">
        <ele>206</ele>
        <time>2016-09-12T10:58:33Z</time>
      </trkpt>
      <trkpt lat="45.97853" lon="4.71269">
        <ele>206</ele>
        <time>2016-09-12T10:58:34Z</time>
      </trkpt>
      <trkpt lat="45.97852" lon="4.7128">
        <ele>206</ele>
        <time>2016-09-12T10:58:36Z</time>
      </trkpt>
      <trkpt lat="45.97853" lon="4.71285">
        <ele>206</ele>
        <time>2016-09-12T10:58:37Z</time>
      </trkpt>
      <trkpt lat="45.97853" lon="4.71296">
        <ele>206</ele>
        <time>2016-09-12T10:58:39Z</time>
      </trkpt>
      <trkpt lat="45.97853" lon="4.71301">
        <ele>206</ele>
        <time>2016-09-12T10:58:40Z</time>
      </trkpt>
      <trkpt lat="45.97853" lon="4.71307">
        <ele>205</ele>
        <time>2016-09-12T10:58:41Z</time>
      </trkpt>
      <trkpt lat="45.97853" lon="4.71315">
        <ele>205</ele>
        <time>2016-09-12T10:58:42Z</time>
      </trkpt>
      <trkpt lat="45.97852" lon="4.71324">
        <ele>205</ele>
        <time>2016-09-12T10:58:43Z</time>
      </trkpt>
      <trkpt lat="45.97853" lon="4.71333">
        <ele>205</ele>
        <time>2016-09-12T10:58:44Z</time>
      </trkpt>
      <trkpt lat="45.97853" lon="4.71342">
        <ele>204</ele>
        <time>2016-09-12T10:58:45Z</time>
      </trkpt>
      <trkpt lat="45.97853" lon="4.71352">
        <ele>204</ele>
        <time>2016-09-12T10:58:46Z</time>
      </trkpt>
      <trkpt lat="45.97853" lon="4.71361">
        <ele>204</ele>
        <time>2016-09-12T10:58:47Z</time>
      </trkpt>
      <trkpt lat="45.97853" lon="4.71371">
        <ele>203</ele>
        <time>2016-09-12T10:58:48Z</time>
      </trkpt>
      <trkpt lat="45.97853" lon="4.71381">
        <ele>203</ele>
        <time>2016-09-12T10:58:49Z</time>
      </trkpt>
      <trkpt lat="45.97854" lon="4.7139">
        <ele>203</ele>
        <time>2016-09-12T10:58:50Z</time>
      </trkpt>
      <trkpt lat="45.97855" lon="4.714">
        <ele>203</ele>
        <time>2016-09-12T10:58:51Z</time>
      </trkpt>
      <trkpt lat="45.97856" lon="4.71409">
        <ele>203</ele>
        <time>2016-09-12T10:58:52Z</time>
      </trkpt>
      <trkpt lat="45.97858" lon="4.71419">
        <ele>202</ele>
        <time>2016-09-12T10:58:53Z</time>
      </trkpt>
      <trkpt lat="45.9786" lon="4.7143">
        <ele>201</ele>
        <time>2016-09-12T10:58:54Z</time>
      </trkpt>
      <trkpt lat="45.97862" lon="4.71441">
        <ele>201</ele>
        <time>2016-09-12T10:58:55Z</time>
      </trkpt>
      <trkpt lat="45.97864" lon="4.71453">
        <ele>201</ele>
        <time>2016-09-12T10:58:56Z</time>
      </trkpt>
      <trkpt lat="45.97865" lon="4.71463">
        <ele>201</ele>
        <time>2016-09-12T10:58:57Z</time>
      </trkpt>
      <trkpt lat="45.97867" lon="4.71474">
        <ele>201</ele>
        <time>2016-09-12T10:58:58Z</time>
      </trkpt>
      <trkpt lat="45.97869" lon="4.71485">
        <ele>201</ele>
        <time>2016-09-12T10:58:59Z</time>
      </trkpt>
      <trkpt lat="45.97871" lon="4.71496">
        <ele>201</ele>
        <time>2016-09-12T10:59:00Z</time>
      </trkpt>
      <trkpt lat="45.97873" lon="4.71507">
        <ele>199</ele>
        <time>2016-09-12T10:59:01Z</time>
      </trkpt>
      <trkpt lat="45.97875" lon="4.71517">
        <ele>199</ele>
        <time>2016-09-12T10:59:02Z</time>
      </trkpt>
      <trkpt lat="45.97877" lon="4.71528">
        <ele>199</ele>
        <time>2016-09-12T10:59:03Z</time>
      </trkpt>
      <trkpt lat="45.97879" lon="4.71539">
        <ele>199</ele>
        <time>2016-09-12T10:59:04Z</time>
      </trkpt>
      <trkpt lat="45.97881" lon="4.7155">
        <ele>199</ele>
        <time>2016-09-12T10:59:05Z</time>
      </trkpt>
      <trkpt lat="45.97882" lon="4.7156">
        <ele>198</ele>
        <time>2016-09-12T10:59:06Z</time>
      </trkpt>
      <trkpt lat="45.97883" lon="4.71571">
        <ele>198</ele>
        <time>2016-09-12T10:59:07Z</time>
      </trkpt>
      <trkpt lat="45.97884" lon="4.71582">
        <ele>198</ele>
        <time>2016-09-12T10:59:08Z</time>
      </trkpt>
      <trkpt lat="45.97885" lon="4.71593">
        <ele>197</ele>
        <time>2016-09-12T10:59:09Z</time>
      </trkpt>
      <trkpt lat="45.97885" lon="4.71603">
        <ele>197</ele>
        <time>2016-09-12T10:59:10Z</time>
      </trkpt>
      <trkpt lat="45.97885" lon="4.71614">
        <ele>197</ele>
        <time>2016-09-12T10:59:11Z</time>
      </trkpt>
      <trkpt lat="45.97886" lon="4.71625">
        <ele>197</ele>
        <time>2016-09-12T10:59:12Z</time>
      </trkpt>
      <trkpt lat="45.97885" lon="4.71636">
        <ele>197</ele>
        <time>2016-09-12T10:59:13Z</time>
      </trkpt>
      <trkpt lat="45.97883" lon="4.71647">
        <ele>197</ele>
        <time>2016-09-12T10:59:14Z</time>
      </trkpt>
      <trkpt lat="45.97881" lon="4.71658">
        <ele>197</ele>
        <time>2016-09-12T10:59:15Z</time>
      </trkpt>
      <trkpt lat="45.97879" lon="4.71668">
        <ele>196</ele>
        <time>2016-09-12T10:59:16Z</time>
      </trkpt>
      <trkpt lat="45.97876" lon="4.71678">
        <ele>196</ele>
        <time>2016-09-12T10:59:17Z</time>
      </trkpt>
      <trkpt lat="45.97874" lon="4.71689">
        <ele>196</ele>
        <time>2016-09-12T10:59:18Z</time>
      </trkpt>
      <trkpt lat="45.97872" lon="4.71699">
        <ele>196</ele>
        <time>2016-09-12T10:59:19Z</time>
      </trkpt>
      <trkpt lat="45.97869" lon="4.71709">
        <ele>196</ele>
        <time>2016-09-12T10:59:20Z</time>
      </trkpt>
      <trkpt lat="45.97866" lon="4.71717">
        <ele>196</ele>
        <time>2016-09-12T10:59:21Z</time>
      </trkpt>
      <trkpt lat="45.97862" lon="4.71724">
        <ele>196</ele>
        <time>2016-09-12T10:59:22Z</time>
      </trkpt>
      <trkpt lat="45.97858" lon="4.71732">
        <ele>196</ele>
        <time>2016-09-12T10:59:23Z</time>
      </trkpt>
      <trkpt lat="45.97854" lon="4.71739">
        <ele>196</ele>
        <time>2016-09-12T10:59:24Z</time>
      </trkpt>
      <trkpt lat="45.9785" lon="4.71744">
        <ele>195</ele>
        <time>2016-09-12T10:59:25Z</time>
      </trkpt>
      <trkpt lat="45.97846" lon="4.71746">
        <ele>195</ele>
        <time>2016-09-12T10:59:26Z</time>
      </trkpt>
      <trkpt lat="45.9784" lon="4.71748">
        <ele>195</ele>
        <time>2016-09-12T10:59:27Z</time>
      </trkpt>
      <trkpt lat="45.97834" lon="4.71748">
        <ele>195</ele>
        <time>2016-09-12T10:59:28Z</time>
      </trkpt>
      <trkpt lat="45.97829" lon="4.71746">
        <ele>195</ele>
        <time>2016-09-12T10:59:29Z</time>
      </trkpt>
      <trkpt lat="45.97823" lon="4.71745">
        <ele>196</ele>
        <time>2016-09-12T10:59:30Z</time>
      </trkpt>
      <trkpt lat="45.97817" lon="4.71745">
        <ele>196</ele>
        <time>2016-09-12T10:59:31Z</time>
      </trkpt>
      <trkpt lat="45.97811" lon="4.71743">
        <ele>196</ele>
        <time>2016-09-12T10:59:32Z</time>
      </trkpt>
      <trkpt lat="45.97805" lon="4.71741">
        <ele>196</ele>
        <time>2016-09-12T10:59:33Z</time>
      </trkpt>
      <trkpt lat="45.978" lon="4.71741">
        <ele>196</ele>
        <time>2016-09-12T10:59:34Z</time>
      </trkpt>
      <trkpt lat="45.97794" lon="4.71741">
        <ele>196</ele>
        <time>2016-09-12T10:59:35Z</time>
      </trkpt>
      <trkpt lat="45.97789" lon="4.71741">
        <ele>196</ele>
        <time>2016-09-12T10:59:36Z</time>
      </trkpt>
      <trkpt lat="45.97783" lon="4.71741">
        <ele>196</ele>
        <time>2016-09-12T10:59:37Z</time>
      </trkpt>
      <trkpt lat="45.97777" lon="4.71741">
        <ele>196</ele>
        <time>2016-09-12T10:59:38Z</time>
      </trkpt>
      <trkpt lat="45.97772" lon="4.71741">
        <ele>196</ele>
        <time>2016-09-12T10:59:39Z</time>
      </trkpt>
      <trkpt lat="45.97767" lon="4.7174">
        <ele>196</ele>
        <time>2016-09-12T10:59:40Z</time>
      </trkpt>
      <trkpt lat="45.97762" lon="4.71739">
        <ele>196</ele>
        <time>2016-09-12T10:59:41Z</time>
      </trkpt>
      <trkpt lat="45.97756" lon="4.71739">
        <ele>196</ele>
        <time>2016-09-12T10:59:42Z</time>
      </trkpt>
      <trkpt lat="45.97751" lon="4.71738">
        <ele>196</ele>
        <time>2016-09-12T10:59:43Z</time>
      </trkpt>
      <trkpt lat="45.97745" lon="4.71738">
        <ele>196</ele>
        <time>2016-09-12T10:59:44Z</time>
      </trkpt>
      <trkpt lat="45.97739" lon="4.71737">
        <ele>196</ele>
        <time>2016-09-12T10:59:45Z</time>
      </trkpt>
      <trkpt lat="45.97732" lon="4.71736">
        <ele>196</ele>
        <time>2016-09-12T10:59:46Z</time>
      </trkpt>
      <trkpt lat="45.97727" lon="4.71735">
        <ele>196</ele>
        <time>2016-09-12T10:59:47Z</time>
      </trkpt>
      <trkpt lat="45.97721" lon="4.71734">
        <ele>196</ele>
        <time>2016-09-12T10:59:48Z</time>
      </trkpt>
      <trkpt lat="45.97714" lon="4.71733">
        <ele>196</ele>
        <time>2016-09-12T10:59:49Z</time>
      </trkpt>
      <trkpt lat="45.97708" lon="4.71733">
        <ele>196</ele>
        <time>2016-09-12T10:59:50Z</time>
      </trkpt>
      <trkpt lat="45.97703" lon="4.71733">
        <ele>196</ele>
        <time>2016-09-12T10:59:51Z</time>
      </trkpt>
      <trkpt lat="45.97697" lon="4.71732">
        <ele>196</ele>
        <time>2016-09-12T10:59:52Z</time>
      </trkpt>
      <trkpt lat="45.97692" lon="4.71732">
        <ele>196</ele>
        <time>2016-09-12T10:59:53Z</time>
      </trkpt>
      <trkpt lat="45.97687" lon="4.71731">
        <ele>196</ele>
        <time>2016-09-12T10:59:54Z</time>
      </trkpt>
      <trkpt lat="45.97682" lon="4.71731">
        <ele>196</ele>
        <time>2016-09-12T10:59:55Z</time>
      </trkpt>
      <trkpt lat="45.97677" lon="4.7173">
        <ele>196</ele>
        <time>2016-09-12T10:59:56Z</time>
      </trkpt>
      <trkpt lat="45.97673" lon="4.71729">
        <ele>196</ele>
        <time>2016-09-12T10:59:57Z</time>
      </trkpt>
      <trkpt lat="45.97668" lon="4.71728">
        <ele>196</ele>
        <time>2016-09-12T10:59:58Z</time>
      </trkpt>
      <trkpt lat="45.97663" lon="4.71728">
        <ele>196</ele>
        <time>2016-09-12T10:59:59Z</time>
      </trkpt>
      <trkpt lat="45.97657" lon="4.71729">
        <ele>196</ele>
        <time>2016-09-12T11:00:00Z</time>
      </trkpt>
      <trkpt lat="45.97652" lon="4.71728">
        <ele>196</ele>
        <time>2016-09-12T11:00:01Z</time>
      </trkpt>
      <trkpt lat="45.97647" lon="4.71728">
        <ele>196</ele>
        <time>2016-09-12T11:00:02Z</time>
      </trkpt>
      <trkpt lat="45.97638" lon="4.71726">
        <ele>196</ele>
        <time>2016-09-12T11:00:04Z</time>
      </trkpt>
      <trkpt lat="45.97634" lon="4.71722">
        <ele>197</ele>
        <time>2016-09-12T11:00:05Z</time>
      </trkpt>
      <trkpt lat="45.9763" lon="4.71719">
        <ele>197</ele>
        <time>2016-09-12T11:00:06Z</time>
      </trkpt>
      <trkpt lat="45.97626" lon="4.71716">
        <ele>197</ele>
        <time>2016-09-12T11:00:07Z</time>
      </trkpt>
      <trkpt lat="45.97621" lon="4.71715">
        <ele>197</ele>
        <time>2016-09-12T11:00:08Z</time>
      </trkpt>
      <trkpt lat="45.97616" lon="4.71714">
        <ele>197</ele>
        <time>2016-09-12T11:00:09Z</time>
      </trkpt>
      <trkpt lat="45.97611" lon="4.71716">
        <ele>197</ele>
        <time>2016-09-12T11:00:10Z</time>
      </trkpt>
      <trkpt lat="45.97606" lon="4.71719">
        <ele>197</ele>
        <time>2016-09-12T11:00:11Z</time>
      </trkpt>
      <trkpt lat="45.97601" lon="4.71722">
        <ele>197</ele>
        <time>2016-09-12T11:00:12Z</time>
      </trkpt>
      <trkpt lat="45.97595" lon="4.71724">
        <ele>197</ele>
        <time>2016-09-12T11:00:13Z</time>
      </trkpt>
      <trkpt lat="45.97589" lon="4.71724">
        <ele>196</ele>
        <time>2016-09-12T11:00:14Z</time>
      </trkpt>
      <trkpt lat="45.97584" lon="4.71724">
        <ele>197</ele>
        <time>2016-09-12T11:00:15Z</time>
      </trkpt>
      <trkpt lat="45.97578" lon="4.71723">
        <ele>197</ele>
        <time>2016-09-12T11:00:16Z</time>
      </trkpt>
      <trkpt lat="45.97573" lon="4.71723">
        <ele>198</ele>
        <time>2016-09-12T11:00:17Z</time>
      </trkpt>
      <trkpt lat="45.97568" lon="4.71722">
        <ele>198</ele>
        <time>2016-09-12T11:00:18Z</time>
      </trkpt>
      <trkpt lat="45.97563" lon="4.71721">
        <ele>198</ele>
        <time>2016-09-12T11:00:19Z</time>
      </trkpt>
      <trkpt lat="45.97554" lon="4.71719">
        <ele>198</ele>
        <time>2016-09-12T11:00:21Z</time>
      </trkpt>
      <trkpt lat="45.97549" lon="4.71719">
        <ele>198</ele>
        <time>2016-09-12T11:00:22Z</time>
      </trkpt>
      <trkpt lat="45.97545" lon="4.71718">
        <ele>198</ele>
        <time>2016-09-12T11:00:23Z</time>
      </trkpt>
      <trkpt lat="45.9754" lon="4.71717">
        <ele>198</ele>
        <time>2016-09-12T11:00:24Z</time>
      </trkpt>
      <trkpt lat="45.97535" lon="4.71716">
        <ele>198</ele>
        <time>2016-09-12T11:00:25Z</time>
      </trkpt>
      <trkpt lat="45.9753" lon="4.71715">
        <ele>198</ele>
        <time>2016-09-12T11:00:26Z</time>
      </trkpt>
      <trkpt lat="45.97525" lon="4.71715">
        <ele>198</ele>
        <time>2016-09-12T11:00:27Z</time>
      </trkpt>
      <trkpt lat="45.97519" lon="4.71714">
        <ele>198</ele>
        <time>2016-09-12T11:00:28Z</time>
      </trkpt>
      <trkpt lat="45.97514" lon="4.71713">
        <ele>199</ele>
        <time>2016-09-12T11:00:29Z</time>
      </trkpt>
      <trkpt lat="45.97508" lon="4.71713">
        <ele>199</ele>
        <time>2016-09-12T11:00:30Z</time>
      </trkpt>
      <trkpt lat="45.97502" lon="4.71712">
        <ele>199</ele>
        <time>2016-09-12T11:00:31Z</time>
      </trkpt>
      <trkpt lat="45.97496" lon="4.71714">
        <ele>198</ele>
        <time>2016-09-12T11:00:32Z</time>
      </trkpt>
      <trkpt lat="45.97491" lon="4.71713">
        <ele>198</ele>
        <time>2016-09-12T11:00:33Z</time>
      </trkpt>
      <trkpt lat="45.97486" lon="4.71713">
        <ele>198</ele>
        <time>2016-09-12T11:00:34Z</time>
      </trkpt>
      <trkpt lat="45.97481" lon="4.71712">
        <ele>198</ele>
        <time>2016-09-12T11:00:35Z</time>
      </trkpt>
      <trkpt lat="45.97476" lon="4.71712">
        <ele>198</ele>
        <time>2016-09-12T11:00:36Z</time>
      </trkpt>
      <trkpt lat="45.97471" lon="4.71711">
        <ele>197</ele>
        <time>2016-09-12T11:00:37Z</time>
      </trkpt>
      <trkpt lat="45.97466" lon="4.71711">
        <ele>197</ele>
        <time>2016-09-12T11:00:38Z</time>
      </trkpt>
      <trkpt lat="45.9746" lon="4.71711">
        <ele>197</ele>
        <time>2016-09-12T11:00:39Z</time>
      </trkpt>
      <trkpt lat="45.97455" lon="4.7171">
        <ele>197</ele>
        <time>2016-09-12T11:00:40Z</time>
      </trkpt>
      <trkpt lat="45.9745" lon="4.7171">
        <ele>197</ele>
        <time>2016-09-12T11:00:41Z</time>
      </trkpt>
      <trkpt lat="45.97445" lon="4.7171">
        <ele>197</ele>
        <time>2016-09-12T11:00:42Z</time>
      </trkpt>
      <trkpt lat="45.9744" lon="4.7171">
        <ele>197</ele>
        <time>2016-09-12T11:00:43Z</time>
      </trkpt>
      <trkpt lat="45.97435" lon="4.7171">
        <ele>197</ele>
        <time>2016-09-12T11:00:44Z</time>
      </trkpt>
      <trkpt lat="45.97429" lon="4.7171">
        <ele>197</ele>
        <time>2016-09-12T11:00:45Z</time>
      </trkpt>
      <trkpt lat="45.97424" lon="4.7171">
        <ele>196</ele>
        <time>2016-09-12T11:00:46Z</time>
      </trkpt>
      <trkpt lat="45.97419" lon="4.71709">
        <ele>196</ele>
        <time>2016-09-12T11:00:47Z</time>
      </trkpt>
      <trkpt lat="45.97413" lon="4.71709">
        <ele>195</ele>
        <time>2016-09-12T11:00:48Z</time>
      </trkpt>
      <trkpt lat="45.97409" lon="4.71709">
        <ele>195</ele>
        <time>2016-09-12T11:00:49Z</time>
      </trkpt>
      <trkpt lat="45.97404" lon="4.71709">
        <ele>195</ele>
        <time>2016-09-12T11:00:50Z</time>
      </trkpt>
      <trkpt lat="45.97399" lon="4.71708">
        <ele>195</ele>
        <time>2016-09-12T11:00:51Z</time>
      </trkpt>
      <trkpt lat="45.97393" lon="4.71708">
        <ele>195</ele>
        <time>2016-09-12T11:00:52Z</time>
      </trkpt>
      <trkpt lat="45.97388" lon="4.71708">
        <ele>195</ele>
        <time>2016-09-12T11:00:53Z</time>
      </trkpt>
      <trkpt lat="45.97383" lon="4.71708">
        <ele>195</ele>
        <time>2016-09-12T11:00:54Z</time>
      </trkpt>
      <trkpt lat="45.97377" lon="4.71708">
        <ele>195</ele>
        <time>2016-09-12T11:00:55Z</time>
      </trkpt>
      <trkpt lat="45.97372" lon="4.71708">
        <ele>195</ele>
        <time>2016-09-12T11:00:56Z</time>
      </trkpt>
      <trkpt lat="45.97366" lon="4.71707">
        <ele>195</ele>
        <time>2016-09-12T11:00:57Z</time>
      </trkpt>
      <trkpt lat="45.9736" lon="4.71707">
        <ele>195</ele>
        <time>2016-09-12T11:00:58Z</time>
      </trkpt>
      <trkpt lat="45.97354" lon="4.71707">
        <ele>195</ele>
        <time>2016-09-12T11:00:59Z</time>
      </trkpt>
      <trkpt lat="45.97349" lon="4.71707">
        <ele>195</ele>
        <time>2016-09-12T11:01:00Z</time>
      </trkpt>
      <trkpt lat="45.97344" lon="4.71707">
        <ele>195</ele>
        <time>2016-09-12T11:01:01Z</time>
      </trkpt>
      <trkpt lat="45.97338" lon="4.71706">
        <ele>195</ele>
        <time>2016-09-12T11:01:02Z</time>
      </trkpt>
      <trkpt lat="45.97333" lon="4.71706">
        <ele>196</ele>
        <time>2016-09-12T11:01:03Z</time>
      </trkpt>
      <trkpt lat="45.97328" lon="4.71705">
        <ele>196</ele>
        <time>2016-09-12T11:01:04Z</time>
      </trkpt>
      <trkpt lat="45.97323" lon="4.71703">
        <ele>196</ele>
        <time>2016-09-12T11:01:05Z</time>
      </trkpt>
      <trkpt lat="45.97319" lon="4.717">
        <ele>196</ele>
        <time>2016-09-12T11:01:06Z</time>
      </trkpt>
      <trkpt lat="45.97314" lon="4.71697">
        <ele>196</ele>
        <time>2016-09-12T11:01:07Z</time>
      </trkpt>
      <trkpt lat="45.97309" lon="4.71694">
        <ele>196</ele>
        <time>2016-09-12T11:01:08Z</time>
      </trkpt>
      <trkpt lat="45.97303" lon="4.71695">
        <ele>196</ele>
        <time>2016-09-12T11:01:09Z</time>
      </trkpt>
      <trkpt lat="45.97297" lon="4.71697">
        <ele>196</ele>
        <time>2016-09-12T11:01:10Z</time>
      </trkpt>
      <trkpt lat="45.97292" lon="4.717">
        <ele>196</ele>
        <time>2016-09-12T11:01:11Z</time>
      </trkpt>
      <trkpt lat="45.97287" lon="4.71703">
        <ele>196</ele>
        <time>2016-09-12T11:01:12Z</time>
      </trkpt>
      <trkpt lat="45.97282" lon="4.71705">
        <ele>196</ele>
        <time>2016-09-12T11:01:13Z</time>
      </trkpt>
      <trkpt lat="45.97276" lon="4.71704">
        <ele>196</ele>
        <time>2016-09-12T11:01:14Z</time>
      </trkpt>
      <trkpt lat="45.97271" lon="4.71703">
        <ele>197</ele>
        <time>2016-09-12T11:01:15Z</time>
      </trkpt>
      <trkpt lat="45.97265" lon="4.71703">
        <ele>197</ele>
        <time>2016-09-12T11:01:16Z</time>
      </trkpt>
      <trkpt lat="45.9726" lon="4.71702">
        <ele>197</ele>
        <time>2016-09-12T11:01:17Z</time>
      </trkpt>
      <trkpt lat="45.97255" lon="4.71701">
        <ele>197</ele>
        <time>2016-09-12T11:01:18Z</time>
      </trkpt>
      <trkpt lat="45.97249" lon="4.717">
        <ele>197</ele>
        <time>2016-09-12T11:01:19Z</time>
      </trkpt>
      <trkpt lat="45.97244" lon="4.71699">
        <ele>197</ele>
        <time>2016-09-12T11:01:20Z</time>
      </trkpt>
      <trkpt lat="45.97238" lon="4.71698">
        <ele>197</ele>
        <time>2016-09-12T11:01:21Z</time>
      </trkpt>
      <trkpt lat="45.97232" lon="4.71698">
        <ele>197</ele>
        <time>2016-09-12T11:01:22Z</time>
      </trkpt>
      <trkpt lat="45.97227" lon="4.71697">
        <ele>197</ele>
        <time>2016-09-12T11:01:23Z</time>
      </trkpt>
      <trkpt lat="45.97221" lon="4.71696">
        <ele>197</ele>
        <time>2016-09-12T11:01:24Z</time>
      </trkpt>
      <trkpt lat="45.97217" lon="4.71697">
        <ele>197</ele>
        <time>2016-09-12T11:01:25Z</time>
      </trkpt>
      <trkpt lat="45.97211" lon="4.71696">
        <ele>197</ele>
        <time>2016-09-12T11:01:26Z</time>
      </trkpt>
      <trkpt lat="45.97206" lon="4.71694">
        <ele>197</ele>
        <time>2016-09-12T11:01:27Z</time>
      </trkpt>
      <trkpt lat="45.972" lon="4.71693">
        <ele>197</ele>
        <time>2016-09-12T11:01:28Z</time>
      </trkpt>
      <trkpt lat="45.97194" lon="4.71691">
        <ele>197</ele>
        <time>2016-09-12T11:01:29Z</time>
      </trkpt>
      <trkpt lat="45.97188" lon="4.71691">
        <ele>197</ele>
        <time>2016-09-12T11:01:30Z</time>
      </trkpt>
      <trkpt lat="45.97182" lon="4.71691">
        <ele>197</ele>
        <time>2016-09-12T11:01:31Z</time>
      </trkpt>
      <trkpt lat="45.97176" lon="4.7169">
        <ele>197</ele>
        <time>2016-09-12T11:01:32Z</time>
      </trkpt>
      <trkpt lat="45.97171" lon="4.7169">
        <ele>197</ele>
        <time>2016-09-12T11:01:33Z</time>
      </trkpt>
      <trkpt lat="45.97166" lon="4.7169">
        <ele>196</ele>
        <time>2016-09-12T11:01:34Z</time>
      </trkpt>
      <trkpt lat="45.97161" lon="4.7169">
        <ele>196</ele>
        <time>2016-09-12T11:01:35Z</time>
      </trkpt>
      <trkpt lat="45.97156" lon="4.7169">
        <ele>195</ele>
        <time>2016-09-12T11:01:36Z</time>
      </trkpt>
      <trkpt lat="45.97151" lon="4.71689">
        <ele>195</ele>
        <time>2016-09-12T11:01:37Z</time>
      </trkpt>
      <trkpt lat="45.97146" lon="4.71688">
        <ele>195</ele>
        <time>2016-09-12T11:01:38Z</time>
      </trkpt>
      <trkpt lat="45.97141" lon="4.71688">
        <ele>195</ele>
        <time>2016-09-12T11:01:39Z</time>
      </trkpt>
      <trkpt lat="45.97136" lon="4.71687">
        <ele>195</ele>
        <time>2016-09-12T11:01:40Z</time>
      </trkpt>
      <trkpt lat="45.97131" lon="4.71687">
        <ele>195</ele>
        <time>2016-09-12T11:01:41Z</time>
      </trkpt>
      <trkpt lat="45.97126" lon="4.71687">
        <ele>195</ele>
        <time>2016-09-12T11:01:42Z</time>
      </trkpt>
      <trkpt lat="45.97121" lon="4.71687">
        <ele>195</ele>
        <time>2016-09-12T11:01:43Z</time>
      </trkpt>
      <trkpt lat="45.97117" lon="4.71686">
        <ele>194</ele>
        <time>2016-09-12T11:01:44Z</time>
      </trkpt>
      <trkpt lat="45.97112" lon="4.71686">
        <ele>194</ele>
        <time>2016-09-12T11:01:45Z</time>
      </trkpt>
      <trkpt lat="45.97107" lon="4.71686">
        <ele>194</ele>
        <time>2016-09-12T11:01:46Z</time>
      </trkpt>
      <trkpt lat="45.97102" lon="4.71685">
        <ele>194</ele>
        <time>2016-09-12T11:01:47Z</time>
      </trkpt>
      <trkpt lat="45.97097" lon="4.71685">
        <ele>194</ele>
        <time>2016-09-12T11:01:48Z</time>
      </trkpt>
      <trkpt lat="45.97092" lon="4.71684">
        <ele>194</ele>
        <time>2016-09-12T11:01:49Z</time>
      </trkpt>
      <trkpt lat="45.97087" lon="4.71683">
        <ele>194</ele>
        <time>2016-09-12T11:01:50Z</time>
      </trkpt>
      <trkpt lat="45.97081" lon="4.71682">
        <ele>194</ele>
        <time>2016-09-12T11:01:51Z</time>
      </trkpt>
      <trkpt lat="45.97076" lon="4.71681">
        <ele>194</ele>
        <time>2016-09-12T11:01:52Z</time>
      </trkpt>
      <trkpt lat="45.97071" lon="4.71681">
        <ele>193</ele>
        <time>2016-09-12T11:01:53Z</time>
      </trkpt>
      <trkpt lat="45.97065" lon="4.7168">
        <ele>193</ele>
        <time>2016-09-12T11:01:54Z</time>
      </trkpt>
      <trkpt lat="45.9706" lon="4.71679">
        <ele>193</ele>
        <time>2016-09-12T11:01:55Z</time>
      </trkpt>
      <trkpt lat="45.97054" lon="4.71678">
        <ele>193</ele>
        <time>2016-09-12T11:01:56Z</time>
      </trkpt>
      <trkpt lat="45.97048" lon="4.71677">
        <ele>193</ele>
        <time>2016-09-12T11:01:57Z</time>
      </trkpt>
      <trkpt lat="45.97043" lon="4.71677">
        <ele>193</ele>
        <time>2016-09-12T11:01:58Z</time>
      </trkpt>
      <trkpt lat="45.97037" lon="4.71675">
        <ele>193</ele>
        <time>2016-09-12T11:01:59Z</time>
      </trkpt>
      <trkpt lat="45.97031" lon="4.71674">
        <ele>193</ele>
        <time>2016-09-12T11:02:00Z</time>
      </trkpt>
      <trkpt lat="45.97024" lon="4.71674">
        <ele>193</ele>
        <time>2016-09-12T11:02:01Z</time>
      </trkpt>
      <trkpt lat="45.97018" lon="4.71673">
        <ele>193</ele>
        <time>2016-09-12T11:02:02Z</time>
      </trkpt>
      <trkpt lat="45.97011" lon="4.71674">
        <ele>193</ele>
        <time>2016-09-12T11:02:03Z</time>
      </trkpt>
      <trkpt lat="45.97005" lon="4.71674">
        <ele>193</ele>
        <time>2016-09-12T11:02:04Z</time>
      </trkpt>
      <trkpt lat="45.97" lon="4.71673">
        <ele>193</ele>
        <time>2016-09-12T11:02:05Z</time>
      </trkpt>
      <trkpt lat="45.96994" lon="4.71673">
        <ele>193</ele>
        <time>2016-09-12T11:02:06Z</time>
      </trkpt>
      <trkpt lat="45.96989" lon="4.71672">
        <ele>193</ele>
        <time>2016-09-12T11:02:07Z</time>
      </trkpt>
      <trkpt lat="45.96983" lon="4.71672">
        <ele>192</ele>
        <time>2016-09-12T11:02:08Z</time>
      </trkpt>
      <trkpt lat="45.96978" lon="4.71672">
        <ele>192</ele>
        <time>2016-09-12T11:02:09Z</time>
      </trkpt>
      <trkpt lat="45.96972" lon="4.71672">
        <ele>192</ele>
        <time>2016-09-12T11:02:10Z</time>
      </trkpt>
      <trkpt lat="45.96966" lon="4.71672">
        <ele>192</ele>
        <time>2016-09-12T11:02:11Z</time>
      </trkpt>
      <trkpt lat="45.96961" lon="4.71672">
        <ele>192</ele>
        <time>2016-09-12T11:02:12Z</time>
      </trkpt>
      <trkpt lat="45.96955" lon="4.71672">
        <ele>192</ele>
        <time>2016-09-12T11:02:13Z</time>
      </trkpt>
      <trkpt lat="45.96949" lon="4.71671">
        <ele>192</ele>
        <time>2016-09-12T11:02:14Z</time>
      </trkpt>
      <trkpt lat="45.96943" lon="4.71671">
        <ele>192</ele>
        <time>2016-09-12T11:02:15Z</time>
      </trkpt>
      <trkpt lat="45.96937" lon="4.71671">
        <ele>193</ele>
        <time>2016-09-12T11:02:16Z</time>
      </trkpt>
      <trkpt lat="45.96931" lon="4.71671">
        <ele>193</ele>
        <time>2016-09-12T11:02:17Z</time>
      </trkpt>
      <trkpt lat="45.96925" lon="4.7167">
        <ele>194</ele>
        <time>2016-09-12T11:02:18Z</time>
      </trkpt>
      <trkpt lat="45.96918" lon="4.71669">
        <ele>194</ele>
        <time>2016-09-12T11:02:19Z</time>
      </trkpt>
      <trkpt lat="45.96912" lon="4.71669">
        <ele>194</ele>
        <time>2016-09-12T11:02:20Z</time>
      </trkpt>
      <trkpt lat="45.96906" lon="4.71669">
        <ele>193</ele>
        <time>2016-09-12T11:02:21Z</time>
      </trkpt>
      <trkpt lat="45.969" lon="4.71668">
        <ele>192</ele>
        <time>2016-09-12T11:02:22Z</time>
      </trkpt>
      <trkpt lat="45.96894" lon="4.71668">
        <ele>192</ele>
        <time>2016-09-12T11:02:23Z</time>
      </trkpt>
      <trkpt lat="45.96888" lon="4.71667">
        <ele>191</ele>
        <time>2016-09-12T11:02:24Z</time>
      </trkpt>
      <trkpt lat="45.96883" lon="4.71666">
        <ele>195</ele>
        <time>2016-09-12T11:02:25Z</time>
      </trkpt>
      <trkpt lat="45.96877" lon="4.71665">
        <ele>195</ele>
        <time>2016-09-12T11:02:26Z</time>
      </trkpt>
      <trkpt lat="45.96871" lon="4.71665">
        <ele>195</ele>
        <time>2016-09-12T11:02:27Z</time>
      </trkpt>
      <trkpt lat="45.96865" lon="4.71664">
        <ele>195</ele>
        <time>2016-09-12T11:02:28Z</time>
      </trkpt>
      <trkpt lat="45.96859" lon="4.71663">
        <ele>194</ele>
        <time>2016-09-12T11:02:29Z</time>
      </trkpt>
      <trkpt lat="45.96852" lon="4.71662">
        <ele>194</ele>
        <time>2016-09-12T11:02:30Z</time>
      </trkpt>
      <trkpt lat="45.96846" lon="4.71662">
        <ele>194</ele>
        <time>2016-09-12T11:02:31Z</time>
      </trkpt>
      <trkpt lat="45.96837" lon="4.71659">
        <ele>193</ele>
        <time>2016-09-12T11:02:32Z</time>
      </trkpt>
      <trkpt lat="45.96831" lon="4.71658">
        <ele>192</ele>
        <time>2016-09-12T11:02:33Z</time>
      </trkpt>
      <trkpt lat="45.96824" lon="4.71656">
        <ele>193</ele>
        <time>2016-09-12T11:02:34Z</time>
      </trkpt>
      <trkpt lat="45.96818" lon="4.71655">
        <ele>193</ele>
        <time>2016-09-12T11:02:35Z</time>
      </trkpt>
      <trkpt lat="45.96812" lon="4.71654">
        <ele>193</ele>
        <time>2016-09-12T11:02:36Z</time>
      </trkpt>
      <trkpt lat="45.96807" lon="4.71654">
        <ele>193</ele>
        <time>2016-09-12T11:02:37Z</time>
      </trkpt>
      <trkpt lat="45.96801" lon="4.71653">
        <ele>193</ele>
        <time>2016-09-12T11:02:38Z</time>
      </trkpt>
      <trkpt lat="45.96795" lon="4.71652">
        <ele>193</ele>
        <time>2016-09-12T11:02:39Z</time>
      </trkpt>
      <trkpt lat="45.96789" lon="4.71651">
        <ele>192</ele>
        <time>2016-09-12T11:02:40Z</time>
      </trkpt>
      <trkpt lat="45.96784" lon="4.71651">
        <ele>192</ele>
        <time>2016-09-12T11:02:41Z</time>
      </trkpt>
      <trkpt lat="45.96778" lon="4.7165">
        <ele>192</ele>
        <time>2016-09-12T11:02:42Z</time>
      </trkpt>
      <trkpt lat="45.96772" lon="4.71649">
        <ele>192</ele>
        <time>2016-09-12T11:02:43Z</time>
      </trkpt>
      <trkpt lat="45.96766" lon="4.71649">
        <ele>192</ele>
        <time>2016-09-12T11:02:44Z</time>
      </trkpt>
      <trkpt lat="45.96759" lon="4.71647">
        <ele>191</ele>
        <time>2016-09-12T11:02:45Z</time>
      </trkpt>
      <trkpt lat="45.96753" lon="4.71646">
        <ele>191</ele>
        <time>2016-09-12T11:02:46Z</time>
      </trkpt>
      <trkpt lat="45.96746" lon="4.71645">
        <ele>190</ele>
        <time>2016-09-12T11:02:47Z</time>
      </trkpt>
      <trkpt lat="45.96739" lon="4.71645">
        <ele>190</ele>
        <time>2016-09-12T11:02:48Z</time>
      </trkpt>
      <trkpt lat="45.96733" lon="4.71644">
        <ele>190</ele>
        <time>2016-09-12T11:02:49Z</time>
      </trkpt>
      <trkpt lat="45.96726" lon="4.71643">
        <ele>190</ele>
        <time>2016-09-12T11:02:50Z</time>
      </trkpt>
      <trkpt lat="45.9672" lon="4.71641">
        <ele>190</ele>
        <time>2016-09-12T11:02:51Z</time>
      </trkpt>
      <trkpt lat="45.96714" lon="4.7164">
        <ele>190</ele>
        <time>2016-09-12T11:02:52Z</time>
      </trkpt>
      <trkpt lat="45.96707" lon="4.7164">
        <ele>190</ele>
        <time>2016-09-12T11:02:53Z</time>
      </trkpt>
      <trkpt lat="45.96702" lon="4.71639">
        <ele>190</ele>
        <time>2016-09-12T11:02:54Z</time>
      </trkpt>
      <trkpt lat="45.96696" lon="4.71638">
        <ele>190</ele>
        <time>2016-09-12T11:02:55Z</time>
      </trkpt>
      <trkpt lat="45.9669" lon="4.71637">
        <ele>190</ele>
        <time>2016-09-12T11:02:56Z</time>
      </trkpt>
      <trkpt lat="45.96685" lon="4.71636">
        <ele>190</ele>
        <time>2016-09-12T11:02:57Z</time>
      </trkpt>
      <trkpt lat="45.96679" lon="4.71635">
        <ele>190</ele>
        <time>2016-09-12T11:02:58Z</time>
      </trkpt>
      <trkpt lat="45.96673" lon="4.71635">
        <ele>190</ele>
        <time>2016-09-12T11:02:59Z</time>
      </trkpt>
      <trkpt lat="45.96668" lon="4.71634">
        <ele>190</ele>
        <time>2016-09-12T11:03:00Z</time>
      </trkpt>
      <trkpt lat="45.96662" lon="4.71633">
        <ele>188</ele>
        <time>2016-09-12T11:03:01Z</time>
      </trkpt>
      <trkpt lat="45.96656" lon="4.71632">
        <ele>188</ele>
        <time>2016-09-12T11:03:02Z</time>
      </trkpt>
      <trkpt lat="45.96649" lon="4.71631">
        <ele>188</ele>
        <time>2016-09-12T11:03:03Z</time>
      </trkpt>
      <trkpt lat="45.96643" lon="4.7163">
        <ele>188</ele>
        <time>2016-09-12T11:03:04Z</time>
      </trkpt>
      <trkpt lat="45.96637" lon="4.71629">
        <ele>188</ele>
        <time>2016-09-12T11:03:05Z</time>
      </trkpt>
      <trkpt lat="45.96631" lon="4.71628">
        <ele>188</ele>
        <time>2016-09-12T11:03:06Z</time>
      </trkpt>
      <trkpt lat="45.96624" lon="4.71627">
        <ele>188</ele>
        <time>2016-09-12T11:03:07Z</time>
      </trkpt>
      <trkpt lat="45.96618" lon="4.71626">
        <ele>188</ele>
        <time>2016-09-12T11:03:08Z</time>
      </trkpt>
      <trkpt lat="45.96612" lon="4.71625">
        <ele>187</ele>
        <time>2016-09-12T11:03:09Z</time>
      </trkpt>
      <trkpt lat="45.96606" lon="4.71624">
        <ele>187</ele>
        <time>2016-09-12T11:03:10Z</time>
      </trkpt>
      <trkpt lat="45.96601" lon="4.71623">
        <ele>187</ele>
        <time>2016-09-12T11:03:11Z</time>
      </trkpt>
      <trkpt lat="45.96595" lon="4.71622">
        <ele>187</ele>
        <time>2016-09-12T11:03:12Z</time>
      </trkpt>
      <trkpt lat="45.96589" lon="4.71621">
        <ele>187</ele>
        <time>2016-09-12T11:03:13Z</time>
      </trkpt>
      <trkpt lat="45.96583" lon="4.7162">
        <ele>185</ele>
        <time>2016-09-12T11:03:14Z</time>
      </trkpt>
      <trkpt lat="45.96578" lon="4.7162">
        <ele>185</ele>
        <time>2016-09-12T11:03:15Z</time>
      </trkpt>
      <trkpt lat="45.96572" lon="4.71619">
        <ele>185</ele>
        <time>2016-09-12T11:03:16Z</time>
      </trkpt>
      <trkpt lat="45.96567" lon="4.71618">
        <ele>185</ele>
        <time>2016-09-12T11:03:17Z</time>
      </trkpt>
      <trkpt lat="45.96562" lon="4.71617">
        <ele>185</ele>
        <time>2016-09-12T11:03:18Z</time>
      </trkpt>
      <trkpt lat="45.96557" lon="4.71615">
        <ele>185</ele>
        <time>2016-09-12T11:03:19Z</time>
      </trkpt>
      <trkpt lat="45.96552" lon="4.71613">
        <ele>185</ele>
        <time>2016-09-12T11:03:20Z</time>
      </trkpt>
      <trkpt lat="45.96547" lon="4.71611">
        <ele>185</ele>
        <time>2016-09-12T11:03:21Z</time>
      </trkpt>
      <trkpt lat="45.96543" lon="4.71607">
        <ele>185</ele>
        <time>2016-09-12T11:03:22Z</time>
      </trkpt>
      <trkpt lat="45.96537" lon="4.71604">
        <ele>185</ele>
        <time>2016-09-12T11:03:23Z</time>
      </trkpt>
      <trkpt lat="45.96532" lon="4.71603">
        <ele>185</ele>
        <time>2016-09-12T11:03:24Z</time>
      </trkpt>
      <trkpt lat="45.96525" lon="4.71602">
        <ele>185</ele>
        <time>2016-09-12T11:03:25Z</time>
      </trkpt>
      <trkpt lat="45.96518" lon="4.71601">
        <ele>185</ele>
        <time>2016-09-12T11:03:26Z</time>
      </trkpt>
      <trkpt lat="45.96511" lon="4.71602">
        <ele>184</ele>
        <time>2016-09-12T11:03:27Z</time>
      </trkpt>
      <trkpt lat="45.96505" lon="4.71603">
        <ele>184</ele>
        <time>2016-09-12T11:03:28Z</time>
      </trkpt>
      <trkpt lat="45.96498" lon="4.71603">
        <ele>184</ele>
        <time>2016-09-12T11:03:29Z</time>
      </trkpt>
      <trkpt lat="45.96492" lon="4.71602">
        <ele>184</ele>
        <time>2016-09-12T11:03:30Z</time>
      </trkpt>
      <trkpt lat="45.96486" lon="4.71601">
        <ele>183</ele>
        <time>2016-09-12T11:03:31Z</time>
      </trkpt>
      <trkpt lat="45.96481" lon="4.71599">
        <ele>183</ele>
        <time>2016-09-12T11:03:32Z</time>
      </trkpt>
      <trkpt lat="45.96475" lon="4.71598">
        <ele>183</ele>
        <time>2016-09-12T11:03:33Z</time>
      </trkpt>
      <trkpt lat="45.9647" lon="4.71597">
        <ele>183</ele>
        <time>2016-09-12T11:03:34Z</time>
      </trkpt>
      <trkpt lat="45.96465" lon="4.71597">
        <ele>183</ele>
        <time>2016-09-12T11:03:35Z</time>
      </trkpt>
      <trkpt lat="45.9646" lon="4.71597">
        <ele>183</ele>
        <time>2016-09-12T11:03:36Z</time>
      </trkpt>
      <trkpt lat="45.96454" lon="4.71596">
        <ele>183</ele>
        <time>2016-09-12T11:03:37Z</time>
      </trkpt>
      <trkpt lat="45.96449" lon="4.71595">
        <ele>183</ele>
        <time>2016-09-12T11:03:38Z</time>
      </trkpt>
      <trkpt lat="45.96444" lon="4.71594">
        <ele>183</ele>
        <time>2016-09-12T11:03:39Z</time>
      </trkpt>
      <trkpt lat="45.96438" lon="4.71594">
        <ele>184</ele>
        <time>2016-09-12T11:03:40Z</time>
      </trkpt>
      <trkpt lat="45.96432" lon="4.71594">
        <ele>184</ele>
        <time>2016-09-12T11:03:41Z</time>
      </trkpt>
      <trkpt lat="45.96426" lon="4.71593">
        <ele>184</ele>
        <time>2016-09-12T11:03:42Z</time>
      </trkpt>
      <trkpt lat="45.9642" lon="4.71593">
        <ele>184</ele>
        <time>2016-09-12T11:03:43Z</time>
      </trkpt>
      <trkpt lat="45.96414" lon="4.71592">
        <ele>184</ele>
        <time>2016-09-12T11:03:44Z</time>
      </trkpt>
      <trkpt lat="45.96408" lon="4.71592">
        <ele>184</ele>
        <time>2016-09-12T11:03:45Z</time>
      </trkpt>
      <trkpt lat="45.96402" lon="4.71592">
        <ele>183</ele>
        <time>2016-09-12T11:03:46Z</time>
      </trkpt>
      <trkpt lat="45.96396" lon="4.71592">
        <ele>183</ele>
        <time>2016-09-12T11:03:47Z</time>
      </trkpt>
      <trkpt lat="45.96391" lon="4.71591">
        <ele>183</ele>
        <time>2016-09-12T11:03:48Z</time>
      </trkpt>
      <trkpt lat="45.96386" lon="4.71589">
        <ele>183</ele>
        <time>2016-09-12T11:03:49Z</time>
      </trkpt>
      <trkpt lat="45.96381" lon="4.71588">
        <ele>183</ele>
        <time>2016-09-12T11:03:50Z</time>
      </trkpt>
      <trkpt lat="45.96376" lon="4.71587">
        <ele>182</ele>
        <time>2016-09-12T11:03:51Z</time>
      </trkpt>
      <trkpt lat="45.96371" lon="4.71586">
        <ele>182</ele>
        <time>2016-09-12T11:03:52Z</time>
      </trkpt>
      <trkpt lat="45.96366" lon="4.71585">
        <ele>182</ele>
        <time>2016-09-12T11:03:53Z</time>
      </trkpt>
      <trkpt lat="45.9636" lon="4.71585">
        <ele>182</ele>
        <time>2016-09-12T11:03:54Z</time>
      </trkpt>
      <trkpt lat="45.96354" lon="4.71584">
        <ele>182</ele>
        <time>2016-09-12T11:03:55Z</time>
      </trkpt>
      <trkpt lat="45.96349" lon="4.71583">
        <ele>185</ele>
        <time>2016-09-12T11:03:56Z</time>
      </trkpt>
      <trkpt lat="45.96343" lon="4.71582">
        <ele>184</ele>
        <time>2016-09-12T11:03:57Z</time>
      </trkpt>
      <trkpt lat="45.96337" lon="4.71581">
        <ele>184</ele>
        <time>2016-09-12T11:03:58Z</time>
      </trkpt>
      <trkpt lat="45.96331" lon="4.71579">
        <ele>183</ele>
        <time>2016-09-12T11:03:59Z</time>
      </trkpt>
      <trkpt lat="45.96325" lon="4.71578">
        <ele>184</ele>
        <time>2016-09-12T11:04:00Z</time>
      </trkpt>
      <trkpt lat="45.96319" lon="4.71577">
        <ele>184</ele>
        <time>2016-09-12T11:04:01Z</time>
      </trkpt>
      <trkpt lat="45.96313" lon="4.71576">
        <ele>184</ele>
        <time>2016-09-12T11:04:02Z</time>
      </trkpt>
      <trkpt lat="45.96307" lon="4.71575">
        <ele>184</ele>
        <time>2016-09-12T11:04:03Z</time>
      </trkpt>
      <trkpt lat="45.96302" lon="4.71574">
        <ele>184</ele>
        <time>2016-09-12T11:04:04Z</time>
      </trkpt>
      <trkpt lat="45.96296" lon="4.71573">
        <ele>184</ele>
        <time>2016-09-12T11:04:05Z</time>
      </trkpt>
      <trkpt lat="45.9629" lon="4.71572">
        <ele>184</ele>
        <time>2016-09-12T11:04:06Z</time>
      </trkpt>
      <trkpt lat="45.96284" lon="4.71571">
        <ele>184</ele>
        <time>2016-09-12T11:04:07Z</time>
      </trkpt>
      <trkpt lat="45.96278" lon="4.7157">
        <ele>184</ele>
        <time>2016-09-12T11:04:08Z</time>
      </trkpt>
      <trkpt lat="45.96273" lon="4.71569">
        <ele>184</ele>
        <time>2016-09-12T11:04:09Z</time>
      </trkpt>
      <trkpt lat="45.96267" lon="4.71569">
        <ele>184</ele>
        <time>2016-09-12T11:04:10Z</time>
      </trkpt>
      <trkpt lat="45.96261" lon="4.71568">
        <ele>183</ele>
        <time>2016-09-12T11:04:11Z</time>
      </trkpt>
      <trkpt lat="45.96256" lon="4.71567">
        <ele>183</ele>
        <time>2016-09-12T11:04:12Z</time>
      </trkpt>
      <trkpt lat="45.9625" lon="4.71567">
        <ele>183</ele>
        <time>2016-09-12T11:04:13Z</time>
      </trkpt>
      <trkpt lat="45.96245" lon="4.71566">
        <ele>183</ele>
        <time>2016-09-12T11:04:14Z</time>
      </trkpt>
      <trkpt lat="45.96239" lon="4.71566">
        <ele>183</ele>
        <time>2016-09-12T11:04:15Z</time>
      </trkpt>
      <trkpt lat="45.96233" lon="4.71565">
        <ele>183</ele>
        <time>2016-09-12T11:04:16Z</time>
      </trkpt>
      <trkpt lat="45.96228" lon="4.71564">
        <ele>183</ele>
        <time>2016-09-12T11:04:17Z</time>
      </trkpt>
      <trkpt lat="45.96222" lon="4.71563">
        <ele>183</ele>
        <time>2016-09-12T11:04:18Z</time>
      </trkpt>
      <trkpt lat="45.96216" lon="4.71562">
        <ele>183</ele>
        <time>2016-09-12T11:04:19Z</time>
      </trkpt>
      <trkpt lat="45.96211" lon="4.71561">
        <ele>183</ele>
        <time>2016-09-12T11:04:20Z</time>
      </trkpt>
      <trkpt lat="45.96205" lon="4.7156">
        <ele>183</ele>
        <time>2016-09-12T11:04:21Z</time>
      </trkpt>
      <trkpt lat="45.962" lon="4.71559">
        <ele>183</ele>
        <time>2016-09-12T11:04:22Z</time>
      </trkpt>
      <trkpt lat="45.96194" lon="4.71558">
        <ele>183</ele>
        <time>2016-09-12T11:04:23Z</time>
      </trkpt>
      <trkpt lat="45.96189" lon="4.71557">
        <ele>183</ele>
        <time>2016-09-12T11:04:24Z</time>
      </trkpt>
      <trkpt lat="45.96184" lon="4.71555">
        <ele>183</ele>
        <time>2016-09-12T11:04:25Z</time>
      </trkpt>
      <trkpt lat="45.96178" lon="4.71554">
        <ele>183</ele>
        <time>2016-09-12T11:04:26Z</time>
      </trkpt>
      <trkpt lat="45.96173" lon="4.71553">
        <ele>183</ele>
        <time>2016-09-12T11:04:27Z</time>
      </trkpt>
      <trkpt lat="45.96167" lon="4.71552">
        <ele>183</ele>
        <time>2016-09-12T11:04:28Z</time>
      </trkpt>
      <trkpt lat="45.96162" lon="4.71551">
        <ele>184</ele>
        <time>2016-09-12T11:04:29Z</time>
      </trkpt>
      <trkpt lat="45.96156" lon="4.7155">
        <ele>184</ele>
        <time>2016-09-12T11:04:30Z</time>
      </trkpt>
      <trkpt lat="45.96151" lon="4.7155">
        <ele>184</ele>
        <time>2016-09-12T11:04:31Z</time>
      </trkpt>
      <trkpt lat="45.96146" lon="4.71549">
        <ele>184</ele>
        <time>2016-09-12T11:04:32Z</time>
      </trkpt>
      <trkpt lat="45.96141" lon="4.71548">
        <ele>184</ele>
        <time>2016-09-12T11:04:33Z</time>
      </trkpt>
      <trkpt lat="45.96136" lon="4.71547">
        <ele>184</ele>
        <time>2016-09-12T11:04:34Z</time>
      </trkpt>
      <trkpt lat="45.96131" lon="4.71547">
        <ele>184</ele>
        <time>2016-09-12T11:04:35Z</time>
      </trkpt>
      <trkpt lat="45.96126" lon="4.71546">
        <ele>185</ele>
        <time>2016-09-12T11:04:36Z</time>
      </trkpt>
      <trkpt lat="45.96122" lon="4.71545">
        <ele>185</ele>
        <time>2016-09-12T11:04:37Z</time>
      </trkpt>
      <trkpt lat="45.96116" lon="4.71545">
        <ele>185</ele>
        <time>2016-09-12T11:04:38Z</time>
      </trkpt>
      <trkpt lat="45.96111" lon="4.71544">
        <ele>185</ele>
        <time>2016-09-12T11:04:39Z</time>
      </trkpt>
      <trkpt lat="45.96105" lon="4.71543">
        <ele>185</ele>
        <time>2016-09-12T11:04:40Z</time>
      </trkpt>
      <trkpt lat="45.961" lon="4.71542">
        <ele>185</ele>
        <time>2016-09-12T11:04:41Z</time>
      </trkpt>
      <trkpt lat="45.96095" lon="4.71541">
        <ele>185</ele>
        <time>2016-09-12T11:04:42Z</time>
      </trkpt>
      <trkpt lat="45.96089" lon="4.7154">
        <ele>185</ele>
        <time>2016-09-12T11:04:43Z</time>
      </trkpt>
      <trkpt lat="45.96084" lon="4.71539">
        <ele>185</ele>
        <time>2016-09-12T11:04:44Z</time>
      </trkpt>
      <trkpt lat="45.96079" lon="4.71537">
        <ele>186</ele>
        <time>2016-09-12T11:04:45Z</time>
      </trkpt>
      <trkpt lat="45.96074" lon="4.71537">
        <ele>186</ele>
        <time>2016-09-12T11:04:46Z</time>
      </trkpt>
      <trkpt lat="45.96069" lon="4.71536">
        <ele>186</ele>
        <time>2016-09-12T11:04:47Z</time>
      </trkpt>
      <trkpt lat="45.96065" lon="4.71535">
        <ele>186</ele>
        <time>2016-09-12T11:04:48Z</time>
      </trkpt>
      <trkpt lat="45.9606" lon="4.71533">
        <ele>186</ele>
        <time>2016-09-12T11:04:49Z</time>
      </trkpt>
      <trkpt lat="45.96055" lon="4.71532">
        <ele>186</ele>
        <time>2016-09-12T11:04:50Z</time>
      </trkpt>
      <trkpt lat="45.96051" lon="4.71531">
        <ele>186</ele>
        <time>2016-09-12T11:04:51Z</time>
      </trkpt>
      <trkpt lat="45.96046" lon="4.7153">
        <ele>186</ele>
        <time>2016-09-12T11:04:52Z</time>
      </trkpt>
      <trkpt lat="45.96042" lon="4.71529">
        <ele>186</ele>
        <time>2016-09-12T11:04:53Z</time>
      </trkpt>
      <trkpt lat="45.96037" lon="4.71528">
        <ele>186</ele>
        <time>2016-09-12T11:04:54Z</time>
      </trkpt>
      <trkpt lat="45.96032" lon="4.71527">
        <ele>186</ele>
        <time>2016-09-12T11:04:55Z</time>
      </trkpt>
      <trkpt lat="45.96027" lon="4.71527">
        <ele>186</ele>
        <time>2016-09-12T11:04:56Z</time>
      </trkpt>
      <trkpt lat="45.96023" lon="4.71525">
        <ele>186</ele>
        <time>2016-09-12T11:04:57Z</time>
      </trkpt>
      <trkpt lat="45.96018" lon="4.71524">
        <ele>186</ele>
        <time>2016-09-12T11:04:58Z</time>
      </trkpt>
      <trkpt lat="45.96013" lon="4.71523">
        <ele>186</ele>
        <time>2016-09-12T11:04:59Z</time>
      </trkpt>
      <trkpt lat="45.96009" lon="4.71522">
        <ele>186</ele>
        <time>2016-09-12T11:05:00Z</time>
      </trkpt>
      <trkpt lat="45.96004" lon="4.7152">
        <ele>186</ele>
        <time>2016-09-12T11:05:01Z</time>
      </trkpt>
      <trkpt lat="45.95999" lon="4.71518">
        <ele>186</ele>
        <time>2016-09-12T11:05:02Z</time>
      </trkpt>
      <trkpt lat="45.95995" lon="4.71515">
        <ele>186</ele>
        <time>2016-09-12T11:05:03Z</time>
      </trkpt>
      <trkpt lat="45.9599" lon="4.71512">
        <ele>186</ele>
        <time>2016-09-12T11:05:04Z</time>
      </trkpt>
      <trkpt lat="45.95985" lon="4.7151">
        <ele>186</ele>
        <time>2016-09-12T11:05:05Z</time>
      </trkpt>
      <trkpt lat="45.9598" lon="4.7151">
        <ele>185</ele>
        <time>2016-09-12T11:05:06Z</time>
      </trkpt>
      <trkpt lat="45.95975" lon="4.71512">
        <ele>185</ele>
        <time>2016-09-12T11:05:07Z</time>
      </trkpt>
      <trkpt lat="45.9597" lon="4.71516">
        <ele>185</ele>
        <time>2016-09-12T11:05:08Z</time>
      </trkpt>
      <trkpt lat="45.95965" lon="4.71519">
        <ele>184</ele>
        <time>2016-09-12T11:05:09Z</time>
      </trkpt>
      <trkpt lat="45.9596" lon="4.71521">
        <ele>184</ele>
        <time>2016-09-12T11:05:10Z</time>
      </trkpt>
      <trkpt lat="45.95954" lon="4.71522">
        <ele>184</ele>
        <time>2016-09-12T11:05:11Z</time>
      </trkpt>
      <trkpt lat="45.95949" lon="4.71522">
        <ele>184</ele>
        <time>2016-09-12T11:05:12Z</time>
      </trkpt>
      <trkpt lat="45.95943" lon="4.71523">
        <ele>184</ele>
        <time>2016-09-12T11:05:13Z</time>
      </trkpt>
      <trkpt lat="45.95937" lon="4.71523">
        <ele>184</ele>
        <time>2016-09-12T11:05:14Z</time>
      </trkpt>
      <trkpt lat="45.95931" lon="4.71523">
        <ele>184</ele>
        <time>2016-09-12T11:05:15Z</time>
      </trkpt>
      <trkpt lat="45.95926" lon="4.71523">
        <ele>184</ele>
        <time>2016-09-12T11:05:16Z</time>
      </trkpt>
      <trkpt lat="45.9592" lon="4.71523">
        <ele>184</ele>
        <time>2016-09-12T11:05:17Z</time>
      </trkpt>
      <trkpt lat="45.95914" lon="4.71523">
        <ele>183</ele>
        <time>2016-09-12T11:05:18Z</time>
      </trkpt>
      <trkpt lat="45.95908" lon="4.71522">
        <ele>183</ele>
        <time>2016-09-12T11:05:19Z</time>
      </trkpt>
      <trkpt lat="45.95901" lon="4.71522">
        <ele>182</ele>
        <time>2016-09-12T11:05:20Z</time>
      </trkpt>
      <trkpt lat="45.95896" lon="4.71522">
        <ele>182</ele>
        <time>2016-09-12T11:05:21Z</time>
      </trkpt>
      <trkpt lat="45.95889" lon="4.71522">
        <ele>182</ele>
        <time>2016-09-12T11:05:22Z</time>
      </trkpt>
      <trkpt lat="45.95883" lon="4.71521">
        <ele>182</ele>
        <time>2016-09-12T11:05:23Z</time>
      </trkpt>
      <trkpt lat="45.95877" lon="4.71521">
        <ele>182</ele>
        <time>2016-09-12T11:05:24Z</time>
      </trkpt>
      <trkpt lat="45.95871" lon="4.7152">
        <ele>182</ele>
        <time>2016-09-12T11:05:25Z</time>
      </trkpt>
      <trkpt lat="45.95866" lon="4.71519">
        <ele>182</ele>
        <time>2016-09-12T11:05:26Z</time>
      </trkpt>
      <trkpt lat="45.9586" lon="4.71519">
        <ele>182</ele>
        <time>2016-09-12T11:05:27Z</time>
      </trkpt>
      <trkpt lat="45.95855" lon="4.71519">
        <ele>182</ele>
        <time>2016-09-12T11:05:28Z</time>
      </trkpt>
      <trkpt lat="45.95849" lon="4.71519">
        <ele>182</ele>
        <time>2016-09-12T11:05:29Z</time>
      </trkpt>
      <trkpt lat="45.95844" lon="4.71519">
        <ele>182</ele>
        <time>2016-09-12T11:05:30Z</time>
      </trkpt>
      <trkpt lat="45.95839" lon="4.71519">
        <ele>182</ele>
        <time>2016-09-12T11:05:31Z</time>
      </trkpt>
      <trkpt lat="45.95833" lon="4.71519">
        <ele>182</ele>
        <time>2016-09-12T11:05:32Z</time>
      </trkpt>
      <trkpt lat="45.95827" lon="4.71518">
        <ele>182</ele>
        <time>2016-09-12T11:05:33Z</time>
      </trkpt>
      <trkpt lat="45.95821" lon="4.71518">
        <ele>182</ele>
        <time>2016-09-12T11:05:34Z</time>
      </trkpt>
      <trkpt lat="45.95815" lon="4.71518">
        <ele>182</ele>
        <time>2016-09-12T11:05:35Z</time>
      </trkpt>
      <trkpt lat="45.95809" lon="4.71517">
        <ele>181</ele>
        <time>2016-09-12T11:05:36Z</time>
      </trkpt>
      <trkpt lat="45.95802" lon="4.71517">
        <ele>181</ele>
        <time>2016-09-12T11:05:37Z</time>
      </trkpt>
      <trkpt lat="45.95796" lon="4.71516">
        <ele>181</ele>
        <time>2016-09-12T11:05:38Z</time>
      </trkpt>
      <trkpt lat="45.95789" lon="4.71516">
        <ele>181</ele>
        <time>2016-09-12T11:05:39Z</time>
      </trkpt>
      <trkpt lat="45.95783" lon="4.71515">
        <ele>181</ele>
        <time>2016-09-12T11:05:40Z</time>
      </trkpt>
      <trkpt lat="45.95776" lon="4.71515">
        <ele>181</ele>
        <time>2016-09-12T11:05:41Z</time>
      </trkpt>
      <trkpt lat="45.9577" lon="4.71515">
        <ele>181</ele>
        <time>2016-09-12T11:05:42Z</time>
      </trkpt>
      <trkpt lat="45.95764" lon="4.71514">
        <ele>181</ele>
        <time>2016-09-12T11:05:43Z</time>
      </trkpt>
      <trkpt lat="45.95758" lon="4.71514">
        <ele>181</ele>
        <time>2016-09-12T11:05:44Z</time>
      </trkpt>
      <trkpt lat="45.95752" lon="4.71514">
        <ele>181</ele>
        <time>2016-09-12T11:05:45Z</time>
      </trkpt>
      <trkpt lat="45.95746" lon="4.71514">
        <ele>181</ele>
        <time>2016-09-12T11:05:46Z</time>
      </trkpt>
      <trkpt lat="45.9574" lon="4.71513">
        <ele>181</ele>
        <time>2016-09-12T11:05:47Z</time>
      </trkpt>
      <trkpt lat="45.95734" lon="4.71513">
        <ele>181</ele>
        <time>2016-09-12T11:05:48Z</time>
      </trkpt>
      <trkpt lat="45.95728" lon="4.71513">
        <ele>180</ele>
        <time>2016-09-12T11:05:49Z</time>
      </trkpt>
      <trkpt lat="45.95723" lon="4.71512">
        <ele>180</ele>
        <time>2016-09-12T11:05:50Z</time>
      </trkpt>
      <trkpt lat="45.95718" lon="4.71512">
        <ele>180</ele>
        <time>2016-09-12T11:05:51Z</time>
      </trkpt>
      <trkpt lat="45.95712" lon="4.71512">
        <ele>180</ele>
        <time>2016-09-12T11:05:52Z</time>
      </trkpt>
      <trkpt lat="45.95708" lon="4.71512">
        <ele>180</ele>
        <time>2016-09-12T11:05:53Z</time>
      </trkpt>
      <trkpt lat="45.95702" lon="4.71512">
        <ele>180</ele>
        <time>2016-09-12T11:05:54Z</time>
      </trkpt>
      <trkpt lat="45.95696" lon="4.71512">
        <ele>180</ele>
        <time>2016-09-12T11:05:55Z</time>
      </trkpt>
      <trkpt lat="45.95691" lon="4.71512">
        <ele>180</ele>
        <time>2016-09-12T11:05:56Z</time>
      </trkpt>
      <trkpt lat="45.95685" lon="4.71511">
        <ele>181</ele>
        <time>2016-09-12T11:05:57Z</time>
      </trkpt>
      <trkpt lat="45.95679" lon="4.71511">
        <ele>181</ele>
        <time>2016-09-12T11:05:58Z</time>
      </trkpt>
      <trkpt lat="45.95672" lon="4.7151">
        <ele>181</ele>
        <time>2016-09-12T11:05:59Z</time>
      </trkpt>
      <trkpt lat="45.95666" lon="4.7151">
        <ele>181</ele>
        <time>2016-09-12T11:06:00Z</time>
      </trkpt>
      <trkpt lat="45.95659" lon="4.7151">
        <ele>181</ele>
        <time>2016-09-12T11:06:01Z</time>
      </trkpt>
      <trkpt lat="45.95652" lon="4.71509">
        <ele>180</ele>
        <time>2016-09-12T11:06:02Z</time>
      </trkpt>
      <trkpt lat="45.95646" lon="4.71508">
        <ele>180</ele>
        <time>2016-09-12T11:06:03Z</time>
      </trkpt>
      <trkpt lat="45.95638" lon="4.71508">
        <ele>180</ele>
        <time>2016-09-12T11:06:04Z</time>
      </trkpt>
      <trkpt lat="45.95631" lon="4.71507">
        <ele>180</ele>
        <time>2016-09-12T11:06:05Z</time>
      </trkpt>
      <trkpt lat="45.95625" lon="4.71507">
        <ele>180</ele>
        <time>2016-09-12T11:06:06Z</time>
      </trkpt>
      <trkpt lat="45.95618" lon="4.71506">
        <ele>179</ele>
        <time>2016-09-12T11:06:07Z</time>
      </trkpt>
      <trkpt lat="45.95611" lon="4.71505">
        <ele>179</ele>
        <time>2016-09-12T11:06:08Z</time>
      </trkpt>
      <trkpt lat="45.95604" lon="4.71503">
        <ele>179</ele>
        <time>2016-09-12T11:06:09Z</time>
      </trkpt>
      <trkpt lat="45.95597" lon="4.71501">
        <ele>180</ele>
        <time>2016-09-12T11:06:10Z</time>
      </trkpt>
      <trkpt lat="45.95591" lon="4.71501">
        <ele>180</ele>
        <time>2016-09-12T11:06:11Z</time>
      </trkpt>
      <trkpt lat="45.95584" lon="4.715">
        <ele>180</ele>
        <time>2016-09-12T11:06:12Z</time>
      </trkpt>
      <trkpt lat="45.95578" lon="4.71499">
        <ele>180</ele>
        <time>2016-09-12T11:06:13Z</time>
      </trkpt>
      <trkpt lat="45.95572" lon="4.71499">
        <ele>180</ele>
        <time>2016-09-12T11:06:14Z</time>
      </trkpt>
      <trkpt lat="45.95565" lon="4.71499">
        <ele>179</ele>
        <time>2016-09-12T11:06:15Z</time>
      </trkpt>
      <trkpt lat="45.95559" lon="4.71499">
        <ele>179</ele>
        <time>2016-09-12T11:06:16Z</time>
      </trkpt>
      <trkpt lat="45.95552" lon="4.71498">
        <ele>179</ele>
        <time>2016-09-12T11:06:17Z</time>
      </trkpt>
      <trkpt lat="45.95546" lon="4.71498">
        <ele>179</ele>
        <time>2016-09-12T11:06:18Z</time>
      </trkpt>
      <trkpt lat="45.9554" lon="4.71498">
        <ele>179</ele>
        <time>2016-09-12T11:06:19Z</time>
      </trkpt>
      <trkpt lat="45.95533" lon="4.71498">
        <ele>179</ele>
        <time>2016-09-12T11:06:20Z</time>
      </trkpt>
      <trkpt lat="45.95527" lon="4.71497">
        <ele>178</ele>
        <time>2016-09-12T11:06:21Z</time>
      </trkpt>
      <trkpt lat="45.95521" lon="4.71496">
        <ele>178</ele>
        <time>2016-09-12T11:06:22Z</time>
      </trkpt>
      <trkpt lat="45.95514" lon="4.71496">
        <ele>178</ele>
        <time>2016-09-12T11:06:23Z</time>
      </trkpt>
      <trkpt lat="45.95508" lon="4.71496">
        <ele>178</ele>
        <time>2016-09-12T11:06:24Z</time>
      </trkpt>
      <trkpt lat="45.95502" lon="4.71495">
        <ele>177</ele>
        <time>2016-09-12T11:06:25Z</time>
      </trkpt>
      <trkpt lat="45.95497" lon="4.71495">
        <ele>177</ele>
        <time>2016-09-12T11:06:26Z</time>
      </trkpt>
      <trkpt lat="45.95491" lon="4.71495">
        <ele>177</ele>
        <time>2016-09-12T11:06:27Z</time>
      </trkpt>
      <trkpt lat="45.95485" lon="4.71495">
        <ele>177</ele>
        <time>2016-09-12T11:06:28Z</time>
      </trkpt>
      <trkpt lat="45.95479" lon="4.71495">
        <ele>176</ele>
        <time>2016-09-12T11:06:29Z</time>
      </trkpt>
      <trkpt lat="45.95473" lon="4.71495">
        <ele>176</ele>
        <time>2016-09-12T11:06:30Z</time>
      </trkpt>
      <trkpt lat="45.95467" lon="4.71494">
        <ele>176</ele>
        <time>2016-09-12T11:06:31Z</time>
      </trkpt>
      <trkpt lat="45.95461" lon="4.71494">
        <ele>176</ele>
        <time>2016-09-12T11:06:32Z</time>
      </trkpt>
      <trkpt lat="45.95454" lon="4.71493">
        <ele>176</ele>
        <time>2016-09-12T11:06:33Z</time>
      </trkpt>
      <trkpt lat="45.95448" lon="4.71493">
        <ele>176</ele>
        <time>2016-09-12T11:06:34Z</time>
      </trkpt>
      <trkpt lat="45.95441" lon="4.71492">
        <ele>175</ele>
        <time>2016-09-12T11:06:35Z</time>
      </trkpt>
      <trkpt lat="45.95433" lon="4.71491">
        <ele>175</ele>
        <time>2016-09-12T11:06:36Z</time>
      </trkpt>
      <trkpt lat="45.95426" lon="4.71491">
        <ele>175</ele>
        <time>2016-09-12T11:06:37Z</time>
      </trkpt>
      <trkpt lat="45.95418" lon="4.7149">
        <ele>175</ele>
        <time>2016-09-12T11:06:38Z</time>
      </trkpt>
      <trkpt lat="45.95411" lon="4.7149">
        <ele>175</ele>
        <time>2016-09-12T11:06:39Z</time>
      </trkpt>
      <trkpt lat="45.95404" lon="4.71488">
        <ele>175</ele>
        <time>2016-09-12T11:06:40Z</time>
      </trkpt>
      <trkpt lat="45.95397" lon="4.71487">
        <ele>175</ele>
        <time>2016-09-12T11:06:41Z</time>
      </trkpt>
      <trkpt lat="45.9539" lon="4.71486">
        <ele>175</ele>
        <time>2016-09-12T11:06:42Z</time>
      </trkpt>
      <trkpt lat="45.95382" lon="4.71486">
        <ele>175</ele>
        <time>2016-09-12T11:06:43Z</time>
      </trkpt>
      <trkpt lat="45.95376" lon="4.71486">
        <ele>175</ele>
        <time>2016-09-12T11:06:44Z</time>
      </trkpt>
      <trkpt lat="45.95369" lon="4.71486">
        <ele>175</ele>
        <time>2016-09-12T11:06:45Z</time>
      </trkpt>
      <trkpt lat="45.95363" lon="4.71485">
        <ele>175</ele>
        <time>2016-09-12T11:06:46Z</time>
      </trkpt>
      <trkpt lat="45.95357" lon="4.71485">
        <ele>175</ele>
        <time>2016-09-12T11:06:47Z</time>
      </trkpt>
      <trkpt lat="45.95351" lon="4.71485">
        <ele>175</ele>
        <time>2016-09-12T11:06:48Z</time>
      </trkpt>
      <trkpt lat="45.95345" lon="4.71484">
        <ele>175</ele>
        <time>2016-09-12T11:06:49Z</time>
      </trkpt>
      <trkpt lat="45.95339" lon="4.71484">
        <ele>175</ele>
        <time>2016-09-12T11:06:50Z</time>
      </trkpt>
      <trkpt lat="45.95334" lon="4.71484">
        <ele>175</ele>
        <time>2016-09-12T11:06:51Z</time>
      </trkpt>
      <trkpt lat="45.95328" lon="4.71484">
        <ele>175</ele>
        <time>2016-09-12T11:06:52Z</time>
      </trkpt>
      <trkpt lat="45.95322" lon="4.71484">
        <ele>175</ele>
        <time>2016-09-12T11:06:53Z</time>
      </trkpt>
      <trkpt lat="45.95317" lon="4.71484">
        <ele>175</ele>
        <time>2016-09-12T11:06:54Z</time>
      </trkpt>
      <trkpt lat="45.95311" lon="4.71483">
        <ele>175</ele>
        <time>2016-09-12T11:06:55Z</time>
      </trkpt>
      <trkpt lat="45.95305" lon="4.71483">
        <ele>175</ele>
        <time>2016-09-12T11:06:56Z</time>
      </trkpt>
      <trkpt lat="45.95299" lon="4.71483">
        <ele>176</ele>
        <time>2016-09-12T11:06:57Z</time>
      </trkpt>
      <trkpt lat="45.95293" lon="4.71482">
        <ele>176</ele>
        <time>2016-09-12T11:06:58Z</time>
      </trkpt>
      <trkpt lat="45.95287" lon="4.71481">
        <ele>176</ele>
        <time>2016-09-12T11:06:59Z</time>
      </trkpt>
      <trkpt lat="45.9528" lon="4.71481">
        <ele>176</ele>
        <time>2016-09-12T11:07:00Z</time>
      </trkpt>
      <trkpt lat="45.95275" lon="4.71481">
        <ele>176</ele>
        <time>2016-09-12T11:07:01Z</time>
      </trkpt>
      <trkpt lat="45.95268" lon="4.71481">
        <ele>176</ele>
        <time>2016-09-12T11:07:02Z</time>
      </trkpt>
      <trkpt lat="45.95262" lon="4.71481">
        <ele>176</ele>
        <time>2016-09-12T11:07:03Z</time>
      </trkpt>
      <trkpt lat="45.95256" lon="4.71479">
        <ele>176</ele>
        <time>2016-09-12T11:07:04Z</time>
      </trkpt>
      <trkpt lat="45.9525" lon="4.71479">
        <ele>176</ele>
        <time>2016-09-12T11:07:05Z</time>
      </trkpt>
      <trkpt lat="45.95244" lon="4.71479">
        <ele>177</ele>
        <time>2016-09-12T11:07:06Z</time>
      </trkpt>
      <trkpt lat="45.95239" lon="4.71478">
        <ele>177</ele>
        <time>2016-09-12T11:07:07Z</time>
      </trkpt>
      <trkpt lat="45.95233" lon="4.71477">
        <ele>177</ele>
        <time>2016-09-12T11:07:08Z</time>
      </trkpt>
      <trkpt lat="45.95228" lon="4.71476">
        <ele>177</ele>
        <time>2016-09-12T11:07:09Z</time>
      </trkpt>
      <trkpt lat="45.95222" lon="4.71475">
        <ele>177</ele>
        <time>2016-09-12T11:07:10Z</time>
      </trkpt>
      <trkpt lat="45.95215" lon="4.71476">
        <ele>177</ele>
        <time>2016-09-12T11:07:11Z</time>
      </trkpt>
      <trkpt lat="45.9521" lon="4.71476">
        <ele>177</ele>
        <time>2016-09-12T11:07:12Z</time>
      </trkpt>
      <trkpt lat="45.95204" lon="4.71475">
        <ele>177</ele>
        <time>2016-09-12T11:07:13Z</time>
      </trkpt>
      <trkpt lat="45.95199" lon="4.71475">
        <ele>177</ele>
        <time>2016-09-12T11:07:14Z</time>
      </trkpt>
      <trkpt lat="45.95193" lon="4.71474">
        <ele>177</ele>
        <time>2016-09-12T11:07:15Z</time>
      </trkpt>
      <trkpt lat="45.95187" lon="4.71474">
        <ele>177</ele>
        <time>2016-09-12T11:07:16Z</time>
      </trkpt>
      <trkpt lat="45.95182" lon="4.71474">
        <ele>177</ele>
        <time>2016-09-12T11:07:17Z</time>
      </trkpt>
      <trkpt lat="45.95177" lon="4.71473">
        <ele>177</ele>
        <time>2016-09-12T11:07:18Z</time>
      </trkpt>
      <trkpt lat="45.95171" lon="4.71473">
        <ele>177</ele>
        <time>2016-09-12T11:07:19Z</time>
      </trkpt>
      <trkpt lat="45.95166" lon="4.71472">
        <ele>178</ele>
        <time>2016-09-12T11:07:20Z</time>
      </trkpt>
      <trkpt lat="45.9516" lon="4.71472">
        <ele>178</ele>
        <time>2016-09-12T11:07:21Z</time>
      </trkpt>
      <trkpt lat="45.95155" lon="4.71471">
        <ele>178</ele>
        <time>2016-09-12T11:07:22Z</time>
      </trkpt>
      <trkpt lat="45.95149" lon="4.71471">
        <ele>178</ele>
        <time>2016-09-12T11:07:23Z</time>
      </trkpt>
      <trkpt lat="45.95144" lon="4.7147">
        <ele>178</ele>
        <time>2016-09-12T11:07:24Z</time>
      </trkpt>
      <trkpt lat="45.95139" lon="4.7147">
        <ele>178</ele>
        <time>2016-09-12T11:07:25Z</time>
      </trkpt>
      <trkpt lat="45.95133" lon="4.71469">
        <ele>178</ele>
        <time>2016-09-12T11:07:26Z</time>
      </trkpt>
      <trkpt lat="45.95128" lon="4.71468">
        <ele>178</ele>
        <time>2016-09-12T11:07:27Z</time>
      </trkpt>
      <trkpt lat="45.95123" lon="4.71468">
        <ele>178</ele>
        <time>2016-09-12T11:07:28Z</time>
      </trkpt>
      <trkpt lat="45.95118" lon="4.71468">
        <ele>179</ele>
        <time>2016-09-12T11:07:29Z</time>
      </trkpt>
      <trkpt lat="45.95112" lon="4.71467">
        <ele>179</ele>
        <time>2016-09-12T11:07:30Z</time>
      </trkpt>
      <trkpt lat="45.95108" lon="4.71467">
        <ele>179</ele>
        <time>2016-09-12T11:07:31Z</time>
      </trkpt>
      <trkpt lat="45.95102" lon="4.71467">
        <ele>179</ele>
        <time>2016-09-12T11:07:32Z</time>
      </trkpt>
      <trkpt lat="45.95097" lon="4.71467">
        <ele>179</ele>
        <time>2016-09-12T11:07:33Z</time>
      </trkpt>
      <trkpt lat="45.95092" lon="4.71466">
        <ele>179</ele>
        <time>2016-09-12T11:07:34Z</time>
      </trkpt>
      <trkpt lat="45.95087" lon="4.71467">
        <ele>179</ele>
        <time>2016-09-12T11:07:35Z</time>
      </trkpt>
      <trkpt lat="45.95082" lon="4.71467">
        <ele>181</ele>
        <time>2016-09-12T11:07:36Z</time>
      </trkpt>
      <trkpt lat="45.95077" lon="4.71467">
        <ele>181</ele>
        <time>2016-09-12T11:07:37Z</time>
      </trkpt>
      <trkpt lat="45.95072" lon="4.71466">
        <ele>181</ele>
        <time>2016-09-12T11:07:38Z</time>
      </trkpt>
      <trkpt lat="45.95067" lon="4.71465">
        <ele>181</ele>
        <time>2016-09-12T11:07:39Z</time>
      </trkpt>
      <trkpt lat="45.95062" lon="4.71465">
        <ele>181</ele>
        <time>2016-09-12T11:07:40Z</time>
      </trkpt>
      <trkpt lat="45.95057" lon="4.71465">
        <ele>181</ele>
        <time>2016-09-12T11:07:41Z</time>
      </trkpt>
      <trkpt lat="45.95053" lon="4.71465">
        <ele>181</ele>
        <time>2016-09-12T11:07:42Z</time>
      </trkpt>
      <trkpt lat="45.95044" lon="4.71464">
        <ele>182</ele>
        <time>2016-09-12T11:07:44Z</time>
      </trkpt>
      <trkpt lat="45.9504" lon="4.71463">
        <ele>182</ele>
        <time>2016-09-12T11:07:45Z</time>
      </trkpt>
      <trkpt lat="45.95032" lon="4.71462">
        <ele>182</ele>
        <time>2016-09-12T11:07:47Z</time>
      </trkpt>
      <trkpt lat="45.95028" lon="4.71462">
        <ele>182</ele>
        <time>2016-09-12T11:07:48Z</time>
      </trkpt>
      <trkpt lat="45.9502" lon="4.71461">
        <ele>182</ele>
        <time>2016-09-12T11:07:50Z</time>
      </trkpt>
      <trkpt lat="45.95016" lon="4.71462">
        <ele>182</ele>
        <time>2016-09-12T11:07:51Z</time>
      </trkpt>
      <trkpt lat="45.95008" lon="4.71461">
        <ele>182</ele>
        <time>2016-09-12T11:07:53Z</time>
      </trkpt>
      <trkpt lat="45.95005" lon="4.71461">
        <ele>182</ele>
        <time>2016-09-12T11:07:54Z</time>
      </trkpt>
      <trkpt lat="45.94997" lon="4.71457">
        <ele>184</ele>
        <time>2016-09-12T11:07:56Z</time>
      </trkpt>
      <trkpt lat="45.94994" lon="4.71454">
        <ele>184</ele>
        <time>2016-09-12T11:07:57Z</time>
      </trkpt>
      <trkpt lat="45.94988" lon="4.71446">
        <ele>184</ele>
        <time>2016-09-12T11:07:59Z</time>
      </trkpt>
      <trkpt lat="45.94985" lon="4.71441">
        <ele>184</ele>
        <time>2016-09-12T11:08:00Z</time>
      </trkpt>
      <trkpt lat="45.94978" lon="4.71436">
        <ele>185</ele>
        <time>2016-09-12T11:08:02Z</time>
      </trkpt>
      <trkpt lat="45.94974" lon="4.71435">
        <ele>185</ele>
        <time>2016-09-12T11:08:03Z</time>
      </trkpt>
      <trkpt lat="45.94965" lon="4.71436">
        <ele>184</ele>
        <time>2016-09-12T11:08:05Z</time>
      </trkpt>
      <trkpt lat="45.94961" lon="4.71439">
        <ele>184</ele>
        <time>2016-09-12T11:08:06Z</time>
      </trkpt>
      <trkpt lat="45.94957" lon="4.71442">
        <ele>184</ele>
        <time>2016-09-12T11:08:07Z</time>
      </trkpt>
      <trkpt lat="45.94953" lon="4.71446">
        <ele>184</ele>
        <time>2016-09-12T11:08:08Z</time>
      </trkpt>
      <trkpt lat="45.94949" lon="4.71449">
        <ele>184</ele>
        <time>2016-09-12T11:08:09Z</time>
      </trkpt>
      <trkpt lat="45.94945" lon="4.71452">
        <ele>184</ele>
        <time>2016-09-12T11:08:10Z</time>
      </trkpt>
      <trkpt lat="45.94936" lon="4.71457">
        <ele>184</ele>
        <time>2016-09-12T11:08:12Z</time>
      </trkpt>
      <trkpt lat="45.94931" lon="4.71457">
        <ele>184</ele>
        <time>2016-09-12T11:08:13Z</time>
      </trkpt>
      <trkpt lat="45.94926" lon="4.71457">
        <ele>184</ele>
        <time>2016-09-12T11:08:14Z</time>
      </trkpt>
      <trkpt lat="45.94922" lon="4.71457">
        <ele>184</ele>
        <time>2016-09-12T11:08:15Z</time>
      </trkpt>
      <trkpt lat="45.94917" lon="4.71457">
        <ele>184</ele>
        <time>2016-09-12T11:08:16Z</time>
      </trkpt>
      <trkpt lat="45.94912" lon="4.71457">
        <ele>184</ele>
        <time>2016-09-12T11:08:17Z</time>
      </trkpt>
      <trkpt lat="45.94903" lon="4.71456">
        <ele>184</ele>
        <time>2016-09-12T11:08:19Z</time>
      </trkpt>
      <trkpt lat="45.94899" lon="4.71456">
        <ele>184</ele>
        <time>2016-09-12T11:08:20Z</time>
      </trkpt>
      <trkpt lat="45.94894" lon="4.71455">
        <ele>184</ele>
        <time>2016-09-12T11:08:21Z</time>
      </trkpt>
      <trkpt lat="45.94889" lon="4.71454">
        <ele>184</ele>
        <time>2016-09-12T11:08:22Z</time>
      </trkpt>
      <trkpt lat="45.94884" lon="4.71454">
        <ele>184</ele>
        <time>2016-09-12T11:08:23Z</time>
      </trkpt>
      <trkpt lat="45.9488" lon="4.71453">
        <ele>184</ele>
        <time>2016-09-12T11:08:24Z</time>
      </trkpt>
      <trkpt lat="45.94871" lon="4.71453">
        <ele>184</ele>
        <time>2016-09-12T11:08:26Z</time>
      </trkpt>
      <trkpt lat="45.94866" lon="4.71453">
        <ele>184</ele>
        <time>2016-09-12T11:08:27Z</time>
      </trkpt>
      <trkpt lat="45.94861" lon="4.71453">
        <ele>184</ele>
        <time>2016-09-12T11:08:28Z</time>
      </trkpt>
      <trkpt lat="45.94856" lon="4.71452">
        <ele>184</ele>
        <time>2016-09-12T11:08:29Z</time>
      </trkpt>
      <trkpt lat="45.94851" lon="4.71452">
        <ele>184</ele>
        <time>2016-09-12T11:08:30Z</time>
      </trkpt>
      <trkpt lat="45.94846" lon="4.71452">
        <ele>184</ele>
        <time>2016-09-12T11:08:31Z</time>
      </trkpt>
      <trkpt lat="45.94841" lon="4.71451">
        <ele>184</ele>
        <time>2016-09-12T11:08:32Z</time>
      </trkpt>
      <trkpt lat="45.94836" lon="4.71451">
        <ele>184</ele>
        <time>2016-09-12T11:08:33Z</time>
      </trkpt>
      <trkpt lat="45.94831" lon="4.71451">
        <ele>184</ele>
        <time>2016-09-12T11:08:34Z</time>
      </trkpt>
      <trkpt lat="45.94826" lon="4.71451">
        <ele>184</ele>
        <time>2016-09-12T11:08:35Z</time>
      </trkpt>
      <trkpt lat="45.94821" lon="4.71451">
        <ele>183</ele>
        <time>2016-09-12T11:08:36Z</time>
      </trkpt>
      <trkpt lat="45.94816" lon="4.7145">
        <ele>183</ele>
        <time>2016-09-12T11:08:37Z</time>
      </trkpt>
      <trkpt lat="45.94811" lon="4.7145">
        <ele>183</ele>
        <time>2016-09-12T11:08:38Z</time>
      </trkpt>
      <trkpt lat="45.94806" lon="4.71449">
        <ele>183</ele>
        <time>2016-09-12T11:08:39Z</time>
      </trkpt>
      <trkpt lat="45.94801" lon="4.71448">
        <ele>183</ele>
        <time>2016-09-12T11:08:40Z</time>
      </trkpt>
      <trkpt lat="45.94797" lon="4.71448">
        <ele>183</ele>
        <time>2016-09-12T11:08:41Z</time>
      </trkpt>
      <trkpt lat="45.94792" lon="4.71447">
        <ele>183</ele>
        <time>2016-09-12T11:08:42Z</time>
      </trkpt>
      <trkpt lat="45.94787" lon="4.71446">
        <ele>183</ele>
        <time>2016-09-12T11:08:43Z</time>
      </trkpt>
      <trkpt lat="45.94782" lon="4.71445">
        <ele>183</ele>
        <time>2016-09-12T11:08:44Z</time>
      </trkpt>
      <trkpt lat="45.94778" lon="4.71446">
        <ele>183</ele>
        <time>2016-09-12T11:08:45Z</time>
      </trkpt>
      <trkpt lat="45.94773" lon="4.71446">
        <ele>183</ele>
        <time>2016-09-12T11:08:46Z</time>
      </trkpt>
      <trkpt lat="45.94768" lon="4.71446">
        <ele>184</ele>
        <time>2016-09-12T11:08:47Z</time>
      </trkpt>
      <trkpt lat="45.94763" lon="4.71445">
        <ele>184</ele>
        <time>2016-09-12T11:08:48Z</time>
      </trkpt>
      <trkpt lat="45.94758" lon="4.71444">
        <ele>184</ele>
        <time>2016-09-12T11:08:49Z</time>
      </trkpt>
      <trkpt lat="45.94753" lon="4.71443">
        <ele>184</ele>
        <time>2016-09-12T11:08:50Z</time>
      </trkpt>
      <trkpt lat="45.94748" lon="4.71442">
        <ele>183</ele>
        <time>2016-09-12T11:08:51Z</time>
      </trkpt>
      <trkpt lat="45.94742" lon="4.71442">
        <ele>183</ele>
        <time>2016-09-12T11:08:52Z</time>
      </trkpt>
      <trkpt lat="45.94737" lon="4.71441">
        <ele>183</ele>
        <time>2016-09-12T11:08:53Z</time>
      </trkpt>
      <trkpt lat="45.94732" lon="4.71441">
        <ele>183</ele>
        <time>2016-09-12T11:08:54Z</time>
      </trkpt>
      <trkpt lat="45.94726" lon="4.71441">
        <ele>183</ele>
        <time>2016-09-12T11:08:55Z</time>
      </trkpt>
      <trkpt lat="45.94721" lon="4.7144">
        <ele>182</ele>
        <time>2016-09-12T11:08:56Z</time>
      </trkpt>
      <trkpt lat="45.94716" lon="4.7144">
        <ele>182</ele>
        <time>2016-09-12T11:08:57Z</time>
      </trkpt>
      <trkpt lat="45.94712" lon="4.71439">
        <ele>182</ele>
        <time>2016-09-12T11:08:58Z</time>
      </trkpt>
      <trkpt lat="45.94707" lon="4.71438">
        <ele>182</ele>
        <time>2016-09-12T11:08:59Z</time>
      </trkpt>
      <trkpt lat="45.94702" lon="4.71438">
        <ele>182</ele>
        <time>2016-09-12T11:09:00Z</time>
      </trkpt>
      <trkpt lat="45.94696" lon="4.71438">
        <ele>182</ele>
        <time>2016-09-12T11:09:01Z</time>
      </trkpt>
      <trkpt lat="45.94691" lon="4.71439">
        <ele>182</ele>
        <time>2016-09-12T11:09:02Z</time>
      </trkpt>
      <trkpt lat="45.94685" lon="4.71439">
        <ele>182</ele>
        <time>2016-09-12T11:09:03Z</time>
      </trkpt>
      <trkpt lat="45.94679" lon="4.71439">
        <ele>182</ele>
        <time>2016-09-12T11:09:04Z</time>
      </trkpt>
      <trkpt lat="45.94673" lon="4.71439">
        <ele>182</ele>
        <time>2016-09-12T11:09:05Z</time>
      </trkpt>
      <trkpt lat="45.94667" lon="4.71438">
        <ele>182</ele>
        <time>2016-09-12T11:09:06Z</time>
      </trkpt>
      <trkpt lat="45.9466" lon="4.71438">
        <ele>182</ele>
        <time>2016-09-12T11:09:07Z</time>
      </trkpt>
      <trkpt lat="45.94654" lon="4.71438">
        <ele>182</ele>
        <time>2016-09-12T11:09:08Z</time>
      </trkpt>
      <trkpt lat="45.94649" lon="4.71437">
        <ele>182</ele>
        <time>2016-09-12T11:09:09Z</time>
      </trkpt>
      <trkpt lat="45.94643" lon="4.71437">
        <ele>182</ele>
        <time>2016-09-12T11:09:10Z</time>
      </trkpt>
      <trkpt lat="45.94638" lon="4.71437">
        <ele>181</ele>
        <time>2016-09-12T11:09:11Z</time>
      </trkpt>
      <trkpt lat="45.94632" lon="4.71438">
        <ele>181</ele>
        <time>2016-09-12T11:09:12Z</time>
      </trkpt>
      <trkpt lat="45.94627" lon="4.71438">
        <ele>181</ele>
        <time>2016-09-12T11:09:13Z</time>
      </trkpt>
      <trkpt lat="45.94622" lon="4.71438">
        <ele>181</ele>
        <time>2016-09-12T11:09:14Z</time>
      </trkpt>
      <trkpt lat="45.94617" lon="4.71437">
        <ele>182</ele>
        <time>2016-09-12T11:09:15Z</time>
      </trkpt>
      <trkpt lat="45.94611" lon="4.71437">
        <ele>182</ele>
        <time>2016-09-12T11:09:16Z</time>
      </trkpt>
      <trkpt lat="45.94605" lon="4.71437">
        <ele>182</ele>
        <time>2016-09-12T11:09:17Z</time>
      </trkpt>
      <trkpt lat="45.94599" lon="4.71437">
        <ele>182</ele>
        <time>2016-09-12T11:09:18Z</time>
      </trkpt>
      <trkpt lat="45.94593" lon="4.71437">
        <ele>182</ele>
        <time>2016-09-12T11:09:19Z</time>
      </trkpt>
      <trkpt lat="45.94588" lon="4.71437">
        <ele>182</ele>
        <time>2016-09-12T11:09:20Z</time>
      </trkpt>
      <trkpt lat="45.94581" lon="4.71437">
        <ele>182</ele>
        <time>2016-09-12T11:09:21Z</time>
      </trkpt>
      <trkpt lat="45.94575" lon="4.71438">
        <ele>182</ele>
        <time>2016-09-12T11:09:22Z</time>
      </trkpt>
      <trkpt lat="45.94569" lon="4.71439">
        <ele>182</ele>
        <time>2016-09-12T11:09:23Z</time>
      </trkpt>
      <trkpt lat="45.94562" lon="4.71439">
        <ele>181</ele>
        <time>2016-09-12T11:09:24Z</time>
      </trkpt>
      <trkpt lat="45.94556" lon="4.7144">
        <ele>181</ele>
        <time>2016-09-12T11:09:25Z</time>
      </trkpt>
      <trkpt lat="45.9455" lon="4.71442">
        <ele>181</ele>
        <time>2016-09-12T11:09:26Z</time>
      </trkpt>
      <trkpt lat="45.94544" lon="4.71444">
        <ele>181</ele>
        <time>2016-09-12T11:09:27Z</time>
      </trkpt>
      <trkpt lat="45.94538" lon="4.71446">
        <ele>180</ele>
        <time>2016-09-12T11:09:28Z</time>
      </trkpt>
      <trkpt lat="45.94532" lon="4.71448">
        <ele>180</ele>
        <time>2016-09-12T11:09:29Z</time>
      </trkpt>
      <trkpt lat="45.94526" lon="4.71451">
        <ele>180</ele>
        <time>2016-09-12T11:09:30Z</time>
      </trkpt>
      <trkpt lat="45.9452" lon="4.71453">
        <ele>180</ele>
        <time>2016-09-12T11:09:31Z</time>
      </trkpt>
      <trkpt lat="45.94514" lon="4.71455">
        <ele>180</ele>
        <time>2016-09-12T11:09:32Z</time>
      </trkpt>
      <trkpt lat="45.94508" lon="4.71457">
        <ele>180</ele>
        <time>2016-09-12T11:09:33Z</time>
      </trkpt>
      <trkpt lat="45.94501" lon="4.71459">
        <ele>180</ele>
        <time>2016-09-12T11:09:34Z</time>
      </trkpt>
      <trkpt lat="45.94495" lon="4.71461">
        <ele>179</ele>
        <time>2016-09-12T11:09:35Z</time>
      </trkpt>
      <trkpt lat="45.94489" lon="4.71463">
        <ele>179</ele>
        <time>2016-09-12T11:09:36Z</time>
      </trkpt>
      <trkpt lat="45.94483" lon="4.71466">
        <ele>179</ele>
        <time>2016-09-12T11:09:37Z</time>
      </trkpt>
      <trkpt lat="45.94477" lon="4.71468">
        <ele>179</ele>
        <time>2016-09-12T11:09:38Z</time>
      </trkpt>
      <trkpt lat="45.94471" lon="4.71471">
        <ele>179</ele>
        <time>2016-09-12T11:09:39Z</time>
      </trkpt>
      <trkpt lat="45.94465" lon="4.71473">
        <ele>179</ele>
        <time>2016-09-12T11:09:40Z</time>
      </trkpt>
      <trkpt lat="45.94459" lon="4.71475">
        <ele>179</ele>
        <time>2016-09-12T11:09:41Z</time>
      </trkpt>
      <trkpt lat="45.94453" lon="4.71478">
        <ele>179</ele>
        <time>2016-09-12T11:09:42Z</time>
      </trkpt>
      <trkpt lat="45.94447" lon="4.7148">
        <ele>179</ele>
        <time>2016-09-12T11:09:43Z</time>
      </trkpt>
      <trkpt lat="45.94441" lon="4.71483">
        <ele>179</ele>
        <time>2016-09-12T11:09:44Z</time>
      </trkpt>
      <trkpt lat="45.94435" lon="4.71486">
        <ele>178</ele>
        <time>2016-09-12T11:09:45Z</time>
      </trkpt>
      <trkpt lat="45.9443" lon="4.71488">
        <ele>178</ele>
        <time>2016-09-12T11:09:46Z</time>
      </trkpt>
      <trkpt lat="45.94424" lon="4.71489">
        <ele>178</ele>
        <time>2016-09-12T11:09:47Z</time>
      </trkpt>
      <trkpt lat="45.94418" lon="4.71491">
        <ele>178</ele>
        <time>2016-09-12T11:09:48Z</time>
      </trkpt>
      <trkpt lat="45.94412" lon="4.71493">
        <ele>178</ele>
        <time>2016-09-12T11:09:49Z</time>
      </trkpt>
      <trkpt lat="45.94405" lon="4.71495">
        <ele>178</ele>
        <time>2016-09-12T11:09:50Z</time>
      </trkpt>
      <trkpt lat="45.94399" lon="4.71498">
        <ele>178</ele>
        <time>2016-09-12T11:09:51Z</time>
      </trkpt>
      <trkpt lat="45.94393" lon="4.71499">
        <ele>177</ele>
        <time>2016-09-12T11:09:52Z</time>
      </trkpt>
      <trkpt lat="45.94387" lon="4.71501">
        <ele>177</ele>
        <time>2016-09-12T11:09:53Z</time>
      </trkpt>
      <trkpt lat="45.94381" lon="4.71503">
        <ele>177</ele>
        <time>2016-09-12T11:09:54Z</time>
      </trkpt>
      <trkpt lat="45.94375" lon="4.71505">
        <ele>177</ele>
        <time>2016-09-12T11:09:55Z</time>
      </trkpt>
      <trkpt lat="45.94369" lon="4.71508">
        <ele>176</ele>
        <time>2016-09-12T11:09:56Z</time>
      </trkpt>
      <trkpt lat="45.94363" lon="4.7151">
        <ele>176</ele>
        <time>2016-09-12T11:09:57Z</time>
      </trkpt>
      <trkpt lat="45.94357" lon="4.71512">
        <ele>176</ele>
        <time>2016-09-12T11:09:58Z</time>
      </trkpt>
      <trkpt lat="45.9435" lon="4.71515">
        <ele>176</ele>
        <time>2016-09-12T11:09:59Z</time>
      </trkpt>
      <trkpt lat="45.94344" lon="4.71517">
        <ele>176</ele>
        <time>2016-09-12T11:10:00Z</time>
      </trkpt>
      <trkpt lat="45.94337" lon="4.71519">
        <ele>176</ele>
        <time>2016-09-12T11:10:01Z</time>
      </trkpt>
      <trkpt lat="45.94331" lon="4.71522">
        <ele>176</ele>
        <time>2016-09-12T11:10:02Z</time>
      </trkpt>
      <trkpt lat="45.94324" lon="4.71524">
        <ele>176</ele>
        <time>2016-09-12T11:10:03Z</time>
      </trkpt>
      <trkpt lat="45.94318" lon="4.71527">
        <ele>176</ele>
        <time>2016-09-12T11:10:04Z</time>
      </trkpt>
      <trkpt lat="45.94312" lon="4.71529">
        <ele>175</ele>
        <time>2016-09-12T11:10:05Z</time>
      </trkpt>
      <trkpt lat="45.94306" lon="4.71531">
        <ele>175</ele>
        <time>2016-09-12T11:10:06Z</time>
      </trkpt>
      <trkpt lat="45.94299" lon="4.71534">
        <ele>175</ele>
        <time>2016-09-12T11:10:07Z</time>
      </trkpt>
      <trkpt lat="45.94293" lon="4.71536">
        <ele>175</ele>
        <time>2016-09-12T11:10:08Z</time>
      </trkpt>
      <trkpt lat="45.94287" lon="4.71538">
        <ele>175</ele>
        <time>2016-09-12T11:10:09Z</time>
      </trkpt>
      <trkpt lat="45.94281" lon="4.71541">
        <ele>175</ele>
        <time>2016-09-12T11:10:10Z</time>
      </trkpt>
      <trkpt lat="45.94275" lon="4.71543">
        <ele>175</ele>
        <time>2016-09-12T11:10:11Z</time>
      </trkpt>
      <trkpt lat="45.94269" lon="4.71546">
        <ele>175</ele>
        <time>2016-09-12T11:10:12Z</time>
      </trkpt>
      <trkpt lat="45.94263" lon="4.71548">
        <ele>175</ele>
        <time>2016-09-12T11:10:13Z</time>
      </trkpt>
      <trkpt lat="45.94257" lon="4.71551">
        <ele>175</ele>
        <time>2016-09-12T11:10:14Z</time>
      </trkpt>
      <trkpt lat="45.9425" lon="4.71553">
        <ele>175</ele>
        <time>2016-09-12T11:10:15Z</time>
      </trkpt>
      <trkpt lat="45.94244" lon="4.71555">
        <ele>174</ele>
        <time>2016-09-12T11:10:16Z</time>
      </trkpt>
      <trkpt lat="45.94238" lon="4.71558">
        <ele>174</ele>
        <time>2016-09-12T11:10:17Z</time>
      </trkpt>
      <trkpt lat="45.94231" lon="4.71559">
        <ele>174</ele>
        <time>2016-09-12T11:10:18Z</time>
      </trkpt>
      <trkpt lat="45.94225" lon="4.71561">
        <ele>174</ele>
        <time>2016-09-12T11:10:19Z</time>
      </trkpt>
      <trkpt lat="45.9422" lon="4.71563">
        <ele>174</ele>
        <time>2016-09-12T11:10:20Z</time>
      </trkpt>
      <trkpt lat="45.94215" lon="4.71563">
        <ele>174</ele>
        <time>2016-09-12T11:10:21Z</time>
      </trkpt>
      <trkpt lat="45.9421" lon="4.71565">
        <ele>174</ele>
        <time>2016-09-12T11:10:22Z</time>
      </trkpt>
      <trkpt lat="45.94204" lon="4.71567">
        <ele>174</ele>
        <time>2016-09-12T11:10:23Z</time>
      </trkpt>
      <trkpt lat="45.94199" lon="4.7157">
        <ele>174</ele>
        <time>2016-09-12T11:10:24Z</time>
      </trkpt>
      <trkpt lat="45.94193" lon="4.71573">
        <ele>174</ele>
        <time>2016-09-12T11:10:25Z</time>
      </trkpt>
      <trkpt lat="45.94187" lon="4.71575">
        <ele>174</ele>
        <time>2016-09-12T11:10:26Z</time>
      </trkpt>
      <trkpt lat="45.94181" lon="4.71577">
        <ele>174</ele>
        <time>2016-09-12T11:10:27Z</time>
      </trkpt>
      <trkpt lat="45.94175" lon="4.7158">
        <ele>174</ele>
        <time>2016-09-12T11:10:28Z</time>
      </trkpt>
      <trkpt lat="45.94168" lon="4.71583">
        <ele>174</ele>
        <time>2016-09-12T11:10:29Z</time>
      </trkpt>
      <trkpt lat="45.94163" lon="4.71586">
        <ele>174</ele>
        <time>2016-09-12T11:10:30Z</time>
      </trkpt>
      <trkpt lat="45.94157" lon="4.71589">
        <ele>174</ele>
        <time>2016-09-12T11:10:31Z</time>
      </trkpt>
      <trkpt lat="45.94152" lon="4.71592">
        <ele>173</ele>
        <time>2016-09-12T11:10:32Z</time>
      </trkpt>
      <trkpt lat="45.94146" lon="4.71594">
        <ele>173</ele>
        <time>2016-09-12T11:10:33Z</time>
      </trkpt>
      <trkpt lat="45.9414" lon="4.71596">
        <ele>173</ele>
        <time>2016-09-12T11:10:34Z</time>
      </trkpt>
      <trkpt lat="45.94135" lon="4.71598">
        <ele>173</ele>
        <time>2016-09-12T11:10:35Z</time>
      </trkpt>
      <trkpt lat="45.94129" lon="4.716">
        <ele>173</ele>
        <time>2016-09-12T11:10:36Z</time>
      </trkpt>
      <trkpt lat="45.94125" lon="4.71602">
        <ele>173</ele>
        <time>2016-09-12T11:10:37Z</time>
      </trkpt>
      <trkpt lat="45.9412" lon="4.71604">
        <ele>173</ele>
        <time>2016-09-12T11:10:38Z</time>
      </trkpt>
      <trkpt lat="45.94116" lon="4.71606">
        <ele>173</ele>
        <time>2016-09-12T11:10:39Z</time>
      </trkpt>
      <trkpt lat="45.94111" lon="4.71609">
        <ele>173</ele>
        <time>2016-09-12T11:10:40Z</time>
      </trkpt>
      <trkpt lat="45.94106" lon="4.7161">
        <ele>173</ele>
        <time>2016-09-12T11:10:41Z</time>
      </trkpt>
      <trkpt lat="45.94101" lon="4.71612">
        <ele>173</ele>
        <time>2016-09-12T11:10:42Z</time>
      </trkpt>
      <trkpt lat="45.94096" lon="4.71614">
        <ele>173</ele>
        <time>2016-09-12T11:10:43Z</time>
      </trkpt>
      <trkpt lat="45.94091" lon="4.71616">
        <ele>173</ele>
        <time>2016-09-12T11:10:44Z</time>
      </trkpt>
      <trkpt lat="45.94086" lon="4.71618">
        <ele>173</ele>
        <time>2016-09-12T11:10:45Z</time>
      </trkpt>
      <trkpt lat="45.9408" lon="4.71619">
        <ele>174</ele>
        <time>2016-09-12T11:10:46Z</time>
      </trkpt>
      <trkpt lat="45.94074" lon="4.71621">
        <ele>174</ele>
        <time>2016-09-12T11:10:47Z</time>
      </trkpt>
      <trkpt lat="45.94069" lon="4.71624">
        <ele>174</ele>
        <time>2016-09-12T11:10:48Z</time>
      </trkpt>
      <trkpt lat="45.94065" lon="4.71627">
        <ele>174</ele>
        <time>2016-09-12T11:10:49Z</time>
      </trkpt>
      <trkpt lat="45.9406" lon="4.71629">
        <ele>174</ele>
        <time>2016-09-12T11:10:50Z</time>
      </trkpt>
      <trkpt lat="45.94055" lon="4.71632">
        <ele>174</ele>
        <time>2016-09-12T11:10:51Z</time>
      </trkpt>
      <trkpt lat="45.9405" lon="4.71633">
        <ele>175</ele>
        <time>2016-09-12T11:10:52Z</time>
      </trkpt>
      <trkpt lat="45.94045" lon="4.71634">
        <ele>175</ele>
        <time>2016-09-12T11:10:53Z</time>
      </trkpt>
      <trkpt lat="45.9404" lon="4.71636">
        <ele>175</ele>
        <time>2016-09-12T11:10:54Z</time>
      </trkpt>
      <trkpt lat="45.94035" lon="4.71638">
        <ele>175</ele>
        <time>2016-09-12T11:10:55Z</time>
      </trkpt>
      <trkpt lat="45.9403" lon="4.7164">
        <ele>175</ele>
        <time>2016-09-12T11:10:56Z</time>
      </trkpt>
      <trkpt lat="45.94025" lon="4.71642">
        <ele>175</ele>
        <time>2016-09-12T11:10:57Z</time>
      </trkpt>
      <trkpt lat="45.9402" lon="4.71643">
        <ele>175</ele>
        <time>2016-09-12T11:10:58Z</time>
      </trkpt>
      <trkpt lat="45.94015" lon="4.71646">
        <ele>176</ele>
        <time>2016-09-12T11:10:59Z</time>
      </trkpt>
      <trkpt lat="45.94011" lon="4.71648">
        <ele>176</ele>
        <time>2016-09-12T11:11:00Z</time>
      </trkpt>
      <trkpt lat="45.94006" lon="4.7165">
        <ele>176</ele>
        <time>2016-09-12T11:11:01Z</time>
      </trkpt>
      <trkpt lat="45.94001" lon="4.71653">
        <ele>176</ele>
        <time>2016-09-12T11:11:02Z</time>
      </trkpt>
      <trkpt lat="45.93996" lon="4.71655">
        <ele>177</ele>
        <time>2016-09-12T11:11:03Z</time>
      </trkpt>
      <trkpt lat="45.93991" lon="4.71657">
        <ele>177</ele>
        <time>2016-09-12T11:11:04Z</time>
      </trkpt>
      <trkpt lat="45.93987" lon="4.71658">
        <ele>177</ele>
        <time>2016-09-12T11:11:05Z</time>
      </trkpt>
      <trkpt lat="45.93978" lon="4.71659">
        <ele>177</ele>
        <time>2016-09-12T11:11:07Z</time>
      </trkpt>
      <trkpt lat="45.93973" lon="4.71661">
        <ele>177</ele>
        <time>2016-09-12T11:11:08Z</time>
      </trkpt>
      <trkpt lat="45.93966" lon="4.71663">
        <ele>177</ele>
        <time>2016-09-12T11:11:10Z</time>
      </trkpt>
      <trkpt lat="45.93962" lon="4.71664">
        <ele>177</ele>
        <time>2016-09-12T11:11:11Z</time>
      </trkpt>
      <trkpt lat="45.93954" lon="4.71667">
        <ele>176</ele>
        <time>2016-09-12T11:11:13Z</time>
      </trkpt>
      <trkpt lat="45.93949" lon="4.71668">
        <ele>175</ele>
        <time>2016-09-12T11:11:14Z</time>
      </trkpt>
      <trkpt lat="45.93941" lon="4.71671">
        <ele>175</ele>
        <time>2016-09-12T11:11:16Z</time>
      </trkpt>
      <trkpt lat="45.93936" lon="4.71672">
        <ele>175</ele>
        <time>2016-09-12T11:11:17Z</time>
      </trkpt>
      <trkpt lat="45.93932" lon="4.71674">
        <ele>175</ele>
        <time>2016-09-12T11:11:18Z</time>
      </trkpt>
      <trkpt lat="45.93927" lon="4.71679">
        <ele>175</ele>
        <time>2016-09-12T11:11:19Z</time>
      </trkpt>
      <trkpt lat="45.93923" lon="4.71682">
        <ele>175</ele>
        <time>2016-09-12T11:11:20Z</time>
      </trkpt>
      <trkpt lat="45.93918" lon="4.71683">
        <ele>175</ele>
        <time>2016-09-12T11:11:21Z</time>
      </trkpt>
      <trkpt lat="45.9391" lon="4.71686">
        <ele>174</ele>
        <time>2016-09-12T11:11:23Z</time>
      </trkpt>
      <trkpt lat="45.93906" lon="4.71687">
        <ele>174</ele>
        <time>2016-09-12T11:11:24Z</time>
      </trkpt>
      <trkpt lat="45.93901" lon="4.71688">
        <ele>174</ele>
        <time>2016-09-12T11:11:25Z</time>
      </trkpt>
      <trkpt lat="45.93896" lon="4.71689">
        <ele>174</ele>
        <time>2016-09-12T11:11:26Z</time>
      </trkpt>
      <trkpt lat="45.93889" lon="4.71692">
        <ele>174</ele>
        <time>2016-09-12T11:11:28Z</time>
      </trkpt>
      <trkpt lat="45.93885" lon="4.71693">
        <ele>174</ele>
        <time>2016-09-12T11:11:29Z</time>
      </trkpt>
      <trkpt lat="45.9388" lon="4.71695">
        <ele>174</ele>
        <time>2016-09-12T11:11:30Z</time>
      </trkpt>
      <trkpt lat="45.93876" lon="4.71697">
        <ele>174</ele>
        <time>2016-09-12T11:11:31Z</time>
      </trkpt>
      <trkpt lat="45.93872" lon="4.71699">
        <ele>174</ele>
        <time>2016-09-12T11:11:32Z</time>
      </trkpt>
      <trkpt lat="45.93867" lon="4.71701">
        <ele>174</ele>
        <time>2016-09-12T11:11:33Z</time>
      </trkpt>
      <trkpt lat="45.93862" lon="4.71703">
        <ele>174</ele>
        <time>2016-09-12T11:11:34Z</time>
      </trkpt>
      <trkpt lat="45.93857" lon="4.71705">
        <ele>174</ele>
        <time>2016-09-12T11:11:35Z</time>
      </trkpt>
      <trkpt lat="45.93852" lon="4.71707">
        <ele>174</ele>
        <time>2016-09-12T11:11:36Z</time>
      </trkpt>
      <trkpt lat="45.93848" lon="4.7171">
        <ele>174</ele>
        <time>2016-09-12T11:11:37Z</time>
      </trkpt>
      <trkpt lat="45.93843" lon="4.71711">
        <ele>174</ele>
        <time>2016-09-12T11:11:38Z</time>
      </trkpt>
      <trkpt lat="45.93838" lon="4.71712">
        <ele>175</ele>
        <time>2016-09-12T11:11:39Z</time>
      </trkpt>
      <trkpt lat="45.93834" lon="4.71714">
        <ele>175</ele>
        <time>2016-09-12T11:11:40Z</time>
      </trkpt>
      <trkpt lat="45.93829" lon="4.71716">
        <ele>175</ele>
        <time>2016-09-12T11:11:41Z</time>
      </trkpt>
      <trkpt lat="45.93824" lon="4.71718">
        <ele>175</ele>
        <time>2016-09-12T11:11:42Z</time>
      </trkpt>
      <trkpt lat="45.93819" lon="4.7172">
        <ele>175</ele>
        <time>2016-09-12T11:11:43Z</time>
      </trkpt>
      <trkpt lat="45.93815" lon="4.71721">
        <ele>175</ele>
        <time>2016-09-12T11:11:44Z</time>
      </trkpt>
      <trkpt lat="45.9381" lon="4.71723">
        <ele>175</ele>
        <time>2016-09-12T11:11:45Z</time>
      </trkpt>
      <trkpt lat="45.93805" lon="4.71725">
        <ele>175</ele>
        <time>2016-09-12T11:11:46Z</time>
      </trkpt>
      <trkpt lat="45.938" lon="4.71726">
        <ele>175</ele>
        <time>2016-09-12T11:11:47Z</time>
      </trkpt>
      <trkpt lat="45.93795" lon="4.71728">
        <ele>175</ele>
        <time>2016-09-12T11:11:48Z</time>
      </trkpt>
      <trkpt lat="45.9379" lon="4.7173">
        <ele>175</ele>
        <time>2016-09-12T11:11:49Z</time>
      </trkpt>
      <trkpt lat="45.93785" lon="4.71733">
        <ele>175</ele>
        <time>2016-09-12T11:11:50Z</time>
      </trkpt>
      <trkpt lat="45.93779" lon="4.71735">
        <ele>175</ele>
        <time>2016-09-12T11:11:51Z</time>
      </trkpt>
      <trkpt lat="45.93774" lon="4.71736">
        <ele>175</ele>
        <time>2016-09-12T11:11:52Z</time>
      </trkpt>
      <trkpt lat="45.93769" lon="4.71738">
        <ele>175</ele>
        <time>2016-09-12T11:11:53Z</time>
      </trkpt>
      <trkpt lat="45.93764" lon="4.71739">
        <ele>175</ele>
        <time>2016-09-12T11:11:54Z</time>
      </trkpt>
      <trkpt lat="45.93759" lon="4.71741">
        <ele>175</ele>
        <time>2016-09-12T11:11:55Z</time>
      </trkpt>
      <trkpt lat="45.93754" lon="4.71743">
        <ele>175</ele>
        <time>2016-09-12T11:11:56Z</time>
      </trkpt>
      <trkpt lat="45.93749" lon="4.71745">
        <ele>175</ele>
        <time>2016-09-12T11:11:57Z</time>
      </trkpt>
      <trkpt lat="45.93744" lon="4.71746">
        <ele>175</ele>
        <time>2016-09-12T11:11:58Z</time>
      </trkpt>
      <trkpt lat="45.9374" lon="4.71749">
        <ele>176</ele>
        <time>2016-09-12T11:11:59Z</time>
      </trkpt>
      <trkpt lat="45.93735" lon="4.7175">
        <ele>176</ele>
        <time>2016-09-12T11:12:00Z</time>
      </trkpt>
      <trkpt lat="45.93731" lon="4.71751">
        <ele>176</ele>
        <time>2016-09-12T11:12:01Z</time>
      </trkpt>
      <trkpt lat="45.93723" lon="4.71755">
        <ele>176</ele>
        <time>2016-09-12T11:12:03Z</time>
      </trkpt>
      <trkpt lat="45.9372" lon="4.71757">
        <ele>176</ele>
        <time>2016-09-12T11:12:04Z</time>
      </trkpt>
      <trkpt lat="45.93713" lon="4.71763">
        <ele>176</ele>
        <time>2016-09-12T11:12:07Z</time>
      </trkpt>
      <trkpt lat="45.93713" lon="4.71763">
        <ele>176</ele>
        <time>2016-09-12T11:12:08Z</time>
      </trkpt>
      <trkpt lat="45.9371" lon="4.71764">
        <ele>176</ele>
        <time>2016-09-12T11:12:16Z</time>
      </trkpt>
      <trkpt lat="45.93709" lon="4.71768">
        <ele>176</ele>
        <time>2016-09-12T11:12:17Z</time>
      </trkpt>
      <trkpt lat="45.93706" lon="4.71778">
        <ele>176</ele>
        <time>2016-09-12T11:12:19Z</time>
      </trkpt>
      <trkpt lat="45.93704" lon="4.71784">
        <ele>176</ele>
        <time>2016-09-12T11:12:20Z</time>
      </trkpt>
      <trkpt lat="45.93703" lon="4.71792">
        <ele>176</ele>
        <time>2016-09-12T11:12:21Z</time>
      </trkpt>
      <trkpt lat="45.93701" lon="4.71798">
        <ele>176</ele>
        <time>2016-09-12T11:12:22Z</time>
      </trkpt>
      <trkpt lat="45.93698" lon="4.71803">
        <ele>176</ele>
        <time>2016-09-12T11:12:23Z</time>
      </trkpt>
      <trkpt lat="45.93696" lon="4.7181">
        <ele>176</ele>
        <time>2016-09-12T11:12:24Z</time>
      </trkpt>
      <trkpt lat="45.93695" lon="4.71818">
        <ele>176</ele>
        <time>2016-09-12T11:12:25Z</time>
      </trkpt>
      <trkpt lat="45.93693" lon="4.71825">
        <ele>176</ele>
        <time>2016-09-12T11:12:26Z</time>
      </trkpt>
      <trkpt lat="45.93691" lon="4.71832">
        <ele>176</ele>
        <time>2016-09-12T11:12:27Z</time>
      </trkpt>
      <trkpt lat="45.93689" lon="4.71838">
        <ele>175</ele>
        <time>2016-09-12T11:12:28Z</time>
      </trkpt>
      <trkpt lat="45.93687" lon="4.71844">
        <ele>176</ele>
        <time>2016-09-12T11:12:29Z</time>
      </trkpt>
      <trkpt lat="45.93684" lon="4.7185">
        <ele>175</ele>
        <time>2016-09-12T11:12:30Z</time>
      </trkpt>
      <trkpt lat="45.93682" lon="4.71856">
        <ele>175</ele>
        <time>2016-09-12T11:12:31Z</time>
      </trkpt>
      <trkpt lat="45.93681" lon="4.71864">
        <ele>175</ele>
        <time>2016-09-12T11:12:32Z</time>
      </trkpt>
      <trkpt lat="45.93679" lon="4.71871">
        <ele>175</ele>
        <time>2016-09-12T11:12:33Z</time>
      </trkpt>
      <trkpt lat="45.93676" lon="4.71878">
        <ele>175</ele>
        <time>2016-09-12T11:12:34Z</time>
      </trkpt>
      <trkpt lat="45.93672" lon="4.71885">
        <ele>175</ele>
        <time>2016-09-12T11:12:35Z</time>
      </trkpt>
      <trkpt lat="45.9367" lon="4.71892">
        <ele>175</ele>
        <time>2016-09-12T11:12:36Z</time>
      </trkpt>
      <trkpt lat="45.93667" lon="4.719">
        <ele>175</ele>
        <time>2016-09-12T11:12:37Z</time>
      </trkpt>
      <trkpt lat="45.93664" lon="4.71909">
        <ele>176</ele>
        <time>2016-09-12T11:12:38Z</time>
      </trkpt>
      <trkpt lat="45.93662" lon="4.71916">
        <ele>175</ele>
        <time>2016-09-12T11:12:39Z</time>
      </trkpt>
      <trkpt lat="45.93661" lon="4.71924">
        <ele>175</ele>
        <time>2016-09-12T11:12:40Z</time>
      </trkpt>
      <trkpt lat="45.93659" lon="4.71931">
        <ele>175</ele>
        <time>2016-09-12T11:12:41Z</time>
      </trkpt>
      <trkpt lat="45.93657" lon="4.71938">
        <ele>175</ele>
        <time>2016-09-12T11:12:42Z</time>
      </trkpt>
      <trkpt lat="45.93654" lon="4.71945">
        <ele>175</ele>
        <time>2016-09-12T11:12:43Z</time>
      </trkpt>
      <trkpt lat="45.93651" lon="4.71952">
        <ele>175</ele>
        <time>2016-09-12T11:12:44Z</time>
      </trkpt>
      <trkpt lat="45.93648" lon="4.7196">
        <ele>175</ele>
        <time>2016-09-12T11:12:45Z</time>
      </trkpt>
      <trkpt lat="45.93645" lon="4.71967">
        <ele>175</ele>
        <time>2016-09-12T11:12:46Z</time>
      </trkpt>
      <trkpt lat="45.93642" lon="4.71974">
        <ele>175</ele>
        <time>2016-09-12T11:12:47Z</time>
      </trkpt>
      <trkpt lat="45.93639" lon="4.71982">
        <ele>175</ele>
        <time>2016-09-12T11:12:48Z</time>
      </trkpt>
      <trkpt lat="45.93636" lon="4.71988">
        <ele>175</ele>
        <time>2016-09-12T11:12:49Z</time>
      </trkpt>
      <trkpt lat="45.93633" lon="4.71995">
        <ele>175</ele>
        <time>2016-09-12T11:12:50Z</time>
      </trkpt>
      <trkpt lat="45.93631" lon="4.72002">
        <ele>174</ele>
        <time>2016-09-12T11:12:51Z</time>
      </trkpt>
      <trkpt lat="45.93628" lon="4.72011">
        <ele>175</ele>
        <time>2016-09-12T11:12:52Z</time>
      </trkpt>
      <trkpt lat="45.93625" lon="4.72019">
        <ele>175</ele>
        <time>2016-09-12T11:12:53Z</time>
      </trkpt>
      <trkpt lat="45.93623" lon="4.72026">
        <ele>175</ele>
        <time>2016-09-12T11:12:54Z</time>
      </trkpt>
      <trkpt lat="45.93621" lon="4.72033">
        <ele>175</ele>
        <time>2016-09-12T11:12:55Z</time>
      </trkpt>
      <trkpt lat="45.93619" lon="4.7204">
        <ele>175</ele>
        <time>2016-09-12T11:12:56Z</time>
      </trkpt>
      <trkpt lat="45.93618" lon="4.72047">
        <ele>175</ele>
        <time>2016-09-12T11:12:57Z</time>
      </trkpt>
      <trkpt lat="45.93614" lon="4.72052">
        <ele>175</ele>
        <time>2016-09-12T11:12:58Z</time>
      </trkpt>
      <trkpt lat="45.93612" lon="4.72059">
        <ele>175</ele>
        <time>2016-09-12T11:12:59Z</time>
      </trkpt>
      <trkpt lat="45.9361" lon="4.72066">
        <ele>175</ele>
        <time>2016-09-12T11:13:00Z</time>
      </trkpt>
      <trkpt lat="45.93609" lon="4.72073">
        <ele>175</ele>
        <time>2016-09-12T11:13:01Z</time>
      </trkpt>
      <trkpt lat="45.93607" lon="4.72079">
        <ele>175</ele>
        <time>2016-09-12T11:13:02Z</time>
      </trkpt>
      <trkpt lat="45.93604" lon="4.72089">
        <ele>174</ele>
        <time>2016-09-12T11:13:05Z</time>
      </trkpt>
      <trkpt lat="45.93605" lon="4.72092">
        <ele>174</ele>
        <time>2016-09-12T11:13:06Z</time>
      </trkpt>
      <trkpt lat="45.936" lon="4.721">
        <ele>174</ele>
        <time>2016-09-12T11:13:09Z</time>
      </trkpt>
      <trkpt lat="45.93598" lon="4.72103">
        <ele>174</ele>
        <time>2016-09-12T11:13:10Z</time>
      </trkpt>
      <trkpt lat="45.93594" lon="4.72111">
        <ele>174</ele>
        <time>2016-09-12T11:13:12Z</time>
      </trkpt>
      <trkpt lat="45.93592" lon="4.72115">
        <ele>174</ele>
        <time>2016-09-12T11:13:13Z</time>
      </trkpt>
      <trkpt lat="45.93587" lon="4.72125">
        <ele>174</ele>
        <time>2016-09-12T11:13:15Z</time>
      </trkpt>
      <trkpt lat="45.93584" lon="4.7213">
        <ele>174</ele>
        <time>2016-09-12T11:13:16Z</time>
      </trkpt>
      <trkpt lat="45.93582" lon="4.72137">
        <ele>174</ele>
        <time>2016-09-12T11:13:17Z</time>
      </trkpt>
      <trkpt lat="45.9358" lon="4.72144">
        <ele>174</ele>
        <time>2016-09-12T11:13:18Z</time>
      </trkpt>
      <trkpt lat="45.9358" lon="4.72153">
        <ele>174</ele>
        <time>2016-09-12T11:13:19Z</time>
      </trkpt>
      <trkpt lat="45.93577" lon="4.7216">
        <ele>173</ele>
        <time>2016-09-12T11:13:20Z</time>
      </trkpt>
      <trkpt lat="45.93574" lon="4.72167">
        <ele>173</ele>
        <time>2016-09-12T11:13:21Z</time>
      </trkpt>
      <trkpt lat="45.9357" lon="4.72173">
        <ele>173</ele>
        <time>2016-09-12T11:13:22Z</time>
      </trkpt>
      <trkpt lat="45.93565" lon="4.72181">
        <ele>173</ele>
        <time>2016-09-12T11:13:23Z</time>
      </trkpt>
      <trkpt lat="45.93561" lon="4.72187">
        <ele>173</ele>
        <time>2016-09-12T11:13:24Z</time>
      </trkpt>
      <trkpt lat="45.93557" lon="4.72198">
        <ele>173</ele>
        <time>2016-09-12T11:13:26Z</time>
      </trkpt>
      <trkpt lat="45.93554" lon="4.72203">
        <ele>173</ele>
        <time>2016-09-12T11:13:27Z</time>
      </trkpt>
      <trkpt lat="45.93551" lon="4.72208">
        <ele>173</ele>
        <time>2016-09-12T11:13:28Z</time>
      </trkpt>
      <trkpt lat="45.93549" lon="4.72214">
        <ele>173</ele>
        <time>2016-09-12T11:13:29Z</time>
      </trkpt>
      <trkpt lat="45.93546" lon="4.7222">
        <ele>172</ele>
        <time>2016-09-12T11:13:30Z</time>
      </trkpt>
      <trkpt lat="45.93543" lon="4.72226">
        <ele>172</ele>
        <time>2016-09-12T11:13:31Z</time>
      </trkpt>
      <trkpt lat="45.93541" lon="4.72232">
        <ele>172</ele>
        <time>2016-09-12T11:13:32Z</time>
      </trkpt>
      <trkpt lat="45.93538" lon="4.72239">
        <ele>172</ele>
        <time>2016-09-12T11:13:33Z</time>
      </trkpt>
      <trkpt lat="45.93535" lon="4.72244">
        <ele>172</ele>
        <time>2016-09-12T11:13:34Z</time>
      </trkpt>
      <trkpt lat="45.93533" lon="4.72251">
        <ele>172</ele>
        <time>2016-09-12T11:13:35Z</time>
      </trkpt>
      <trkpt lat="45.93531" lon="4.72258">
        <ele>172</ele>
        <time>2016-09-12T11:13:36Z</time>
      </trkpt>
      <trkpt lat="45.93528" lon="4.72264">
        <ele>172</ele>
        <time>2016-09-12T11:13:37Z</time>
      </trkpt>
      <trkpt lat="45.93526" lon="4.7227">
        <ele>172</ele>
        <time>2016-09-12T11:13:38Z</time>
      </trkpt>
      <trkpt lat="45.93523" lon="4.72277">
        <ele>172</ele>
        <time>2016-09-12T11:13:39Z</time>
      </trkpt>
      <trkpt lat="45.9352" lon="4.72284">
        <ele>172</ele>
        <time>2016-09-12T11:13:40Z</time>
      </trkpt>
      <trkpt lat="45.93517" lon="4.7229">
        <ele>172</ele>
        <time>2016-09-12T11:13:41Z</time>
      </trkpt>
      <trkpt lat="45.93513" lon="4.72296">
        <ele>172</ele>
        <time>2016-09-12T11:13:42Z</time>
      </trkpt>
      <trkpt lat="45.93509" lon="4.72302">
        <ele>172</ele>
        <time>2016-09-12T11:13:43Z</time>
      </trkpt>
      <trkpt lat="45.93505" lon="4.72308">
        <ele>173</ele>
        <time>2016-09-12T11:13:44Z</time>
      </trkpt>
      <trkpt lat="45.93501" lon="4.72314">
        <ele>173</ele>
        <time>2016-09-12T11:13:45Z</time>
      </trkpt>
      <trkpt lat="45.93497" lon="4.7232">
        <ele>173</ele>
        <time>2016-09-12T11:13:46Z</time>
      </trkpt>
      <trkpt lat="45.93493" lon="4.72326">
        <ele>173</ele>
        <time>2016-09-12T11:13:47Z</time>
      </trkpt>
      <trkpt lat="45.93488" lon="4.72332">
        <ele>173</ele>
        <time>2016-09-12T11:13:48Z</time>
      </trkpt>
      <trkpt lat="45.93484" lon="4.72338">
        <ele>173</ele>
        <time>2016-09-12T11:13:49Z</time>
      </trkpt>
      <trkpt lat="45.9348" lon="4.72345">
        <ele>173</ele>
        <time>2016-09-12T11:13:50Z</time>
      </trkpt>
      <trkpt lat="45.93476" lon="4.7235">
        <ele>173</ele>
        <time>2016-09-12T11:13:51Z</time>
      </trkpt>
      <trkpt lat="45.93472" lon="4.72355">
        <ele>173</ele>
        <time>2016-09-12T11:13:52Z</time>
      </trkpt>
      <trkpt lat="45.93468" lon="4.72361">
        <ele>173</ele>
        <time>2016-09-12T11:13:53Z</time>
      </trkpt>
      <trkpt lat="45.93464" lon="4.72367">
        <ele>173</ele>
        <time>2016-09-12T11:13:54Z</time>
      </trkpt>
      <trkpt lat="45.9346" lon="4.72372">
        <ele>173</ele>
        <time>2016-09-12T11:13:55Z</time>
      </trkpt>
      <trkpt lat="45.93456" lon="4.72377">
        <ele>173</ele>
        <time>2016-09-12T11:13:56Z</time>
      </trkpt>
      <trkpt lat="45.93452" lon="4.72382">
        <ele>173</ele>
        <time>2016-09-12T11:13:57Z</time>
      </trkpt>
      <trkpt lat="45.93448" lon="4.72386">
        <ele>173</ele>
        <time>2016-09-12T11:13:58Z</time>
      </trkpt>
      <trkpt lat="45.93444" lon="4.7239">
        <ele>173</ele>
        <time>2016-09-12T11:13:59Z</time>
      </trkpt>
      <trkpt lat="45.93439" lon="4.72395">
        <ele>173</ele>
        <time>2016-09-12T11:14:00Z</time>
      </trkpt>
      <trkpt lat="45.93434" lon="4.72399">
        <ele>173</ele>
        <time>2016-09-12T11:14:01Z</time>
      </trkpt>
      <trkpt lat="45.93429" lon="4.72402">
        <ele>174</ele>
        <time>2016-09-12T11:14:02Z</time>
      </trkpt>
      <trkpt lat="45.93423" lon="4.72404">
        <ele>174</ele>
        <time>2016-09-12T11:14:03Z</time>
      </trkpt>
      <trkpt lat="45.93418" lon="4.72406">
        <ele>174</ele>
        <time>2016-09-12T11:14:04Z</time>
      </trkpt>
      <trkpt lat="45.93413" lon="4.72408">
        <ele>174</ele>
        <time>2016-09-12T11:14:05Z</time>
      </trkpt>
      <trkpt lat="45.93408" lon="4.72409">
        <ele>174</ele>
        <time>2016-09-12T11:14:06Z</time>
      </trkpt>
      <trkpt lat="45.93404" lon="4.72408">
        <ele>174</ele>
        <time>2016-09-12T11:14:07Z</time>
      </trkpt>
      <trkpt lat="45.93399" lon="4.72407">
        <ele>174</ele>
        <time>2016-09-12T11:14:08Z</time>
      </trkpt>
      <trkpt lat="45.93395" lon="4.72407">
        <ele>174</ele>
        <time>2016-09-12T11:14:09Z</time>
      </trkpt>
      <trkpt lat="45.9339" lon="4.7241">
        <ele>174</ele>
        <time>2016-09-12T11:14:10Z</time>
      </trkpt>
      <trkpt lat="45.93387" lon="4.72415">
        <ele>174</ele>
        <time>2016-09-12T11:14:11Z</time>
      </trkpt>
      <trkpt lat="45.93385" lon="4.72427">
        <ele>173</ele>
        <time>2016-09-12T11:14:13Z</time>
      </trkpt>
      <trkpt lat="45.93387" lon="4.72434">
        <ele>173</ele>
        <time>2016-09-12T11:14:14Z</time>
      </trkpt>
      <trkpt lat="45.9339" lon="4.7244">
        <ele>173</ele>
        <time>2016-09-12T11:14:15Z</time>
      </trkpt>
      <trkpt lat="45.93392" lon="4.72446">
        <ele>173</ele>
        <time>2016-09-12T11:14:16Z</time>
      </trkpt>
      <trkpt lat="45.93393" lon="4.72453">
        <ele>173</ele>
        <time>2016-09-12T11:14:17Z</time>
      </trkpt>
      <trkpt lat="45.93393" lon="4.7246">
        <ele>173</ele>
        <time>2016-09-12T11:14:18Z</time>
      </trkpt>
      <trkpt lat="45.9339" lon="4.72466">
        <ele>173</ele>
        <time>2016-09-12T11:14:19Z</time>
      </trkpt>
      <trkpt lat="45.93387" lon="4.72471">
        <ele>173</ele>
        <time>2016-09-12T11:14:20Z</time>
      </trkpt>
      <trkpt lat="45.93382" lon="4.72476">
        <ele>173</ele>
        <time>2016-09-12T11:14:21Z</time>
      </trkpt>
      <trkpt lat="45.93378" lon="4.72481">
        <ele>173</ele>
        <time>2016-09-12T11:14:22Z</time>
      </trkpt>
      <trkpt lat="45.93373" lon="4.72486">
        <ele>173</ele>
        <time>2016-09-12T11:14:23Z</time>
      </trkpt>
      <trkpt lat="45.93369" lon="4.72491">
        <ele>173</ele>
        <time>2016-09-12T11:14:24Z</time>
      </trkpt>
      <trkpt lat="45.93364" lon="4.72496">
        <ele>173</ele>
        <time>2016-09-12T11:14:25Z</time>
      </trkpt>
      <trkpt lat="45.9336" lon="4.72502">
        <ele>172</ele>
        <time>2016-09-12T11:14:26Z</time>
      </trkpt>
      <trkpt lat="45.93355" lon="4.72506">
        <ele>172</ele>
        <time>2016-09-12T11:14:27Z</time>
      </trkpt>
      <trkpt lat="45.9335" lon="4.7251">
        <ele>172</ele>
        <time>2016-09-12T11:14:28Z</time>
      </trkpt>
      <trkpt lat="45.93346" lon="4.72515">
        <ele>172</ele>
        <time>2016-09-12T11:14:29Z</time>
      </trkpt>
      <trkpt lat="45.93342" lon="4.72521">
        <ele>172</ele>
        <time>2016-09-12T11:14:30Z</time>
      </trkpt>
      <trkpt lat="45.93339" lon="4.72526">
        <ele>172</ele>
        <time>2016-09-12T11:14:31Z</time>
      </trkpt>
      <trkpt lat="45.93335" lon="4.7253">
        <ele>172</ele>
        <time>2016-09-12T11:14:32Z</time>
      </trkpt>
      <trkpt lat="45.93331" lon="4.72535">
        <ele>172</ele>
        <time>2016-09-12T11:14:33Z</time>
      </trkpt>
      <trkpt lat="45.93327" lon="4.7254">
        <ele>172</ele>
        <time>2016-09-12T11:14:34Z</time>
      </trkpt>
      <trkpt lat="45.93323" lon="4.72544">
        <ele>172</ele>
        <time>2016-09-12T11:14:35Z</time>
      </trkpt>
      <trkpt lat="45.93319" lon="4.72548">
        <ele>172</ele>
        <time>2016-09-12T11:14:36Z</time>
      </trkpt>
      <trkpt lat="45.93314" lon="4.72553">
        <ele>172</ele>
        <time>2016-09-12T11:14:37Z</time>
      </trkpt>
      <trkpt lat="45.9331" lon="4.72558">
        <ele>172</ele>
        <time>2016-09-12T11:14:38Z</time>
      </trkpt>
      <trkpt lat="45.93305" lon="4.72564">
        <ele>171</ele>
        <time>2016-09-12T11:14:39Z</time>
      </trkpt>
      <trkpt lat="45.933" lon="4.7257">
        <ele>171</ele>
        <time>2016-09-12T11:14:40Z</time>
      </trkpt>
      <trkpt lat="45.93295" lon="4.72576">
        <ele>171</ele>
        <time>2016-09-12T11:14:41Z</time>
      </trkpt>
      <trkpt lat="45.93291" lon="4.72581">
        <ele>171</ele>
        <time>2016-09-12T11:14:42Z</time>
      </trkpt>
      <trkpt lat="45.93286" lon="4.72586">
        <ele>170</ele>
        <time>2016-09-12T11:14:43Z</time>
      </trkpt>
      <trkpt lat="45.93282" lon="4.7259">
        <ele>170</ele>
        <time>2016-09-12T11:14:44Z</time>
      </trkpt>
      <trkpt lat="45.93278" lon="4.72595">
        <ele>170</ele>
        <time>2016-09-12T11:14:45Z</time>
      </trkpt>
      <trkpt lat="45.93274" lon="4.72599">
        <ele>170</ele>
        <time>2016-09-12T11:14:46Z</time>
      </trkpt>
      <trkpt lat="45.9327" lon="4.72604">
        <ele>170</ele>
        <time>2016-09-12T11:14:47Z</time>
      </trkpt>
      <trkpt lat="45.93266" lon="4.72608">
        <ele>170</ele>
        <time>2016-09-12T11:14:48Z</time>
      </trkpt>
      <trkpt lat="45.93262" lon="4.72612">
        <ele>170</ele>
        <time>2016-09-12T11:14:49Z</time>
      </trkpt>
      <trkpt lat="45.93259" lon="4.72616">
        <ele>170</ele>
        <time>2016-09-12T11:14:50Z</time>
      </trkpt>
      <trkpt lat="45.93255" lon="4.7262">
        <ele>170</ele>
        <time>2016-09-12T11:14:51Z</time>
      </trkpt>
      <trkpt lat="45.93251" lon="4.72625">
        <ele>170</ele>
        <time>2016-09-12T11:14:52Z</time>
      </trkpt>
      <trkpt lat="45.93247" lon="4.72628">
        <ele>170</ele>
        <time>2016-09-12T11:14:53Z</time>
      </trkpt>
      <trkpt lat="45.93243" lon="4.72632">
        <ele>170</ele>
        <time>2016-09-12T11:14:54Z</time>
      </trkpt>
      <trkpt lat="45.93239" lon="4.72636">
        <ele>170</ele>
        <time>2016-09-12T11:14:55Z</time>
      </trkpt>
      <trkpt lat="45.93236" lon="4.7264">
        <ele>170</ele>
        <time>2016-09-12T11:14:56Z</time>
      </trkpt>
      <trkpt lat="45.93233" lon="4.72645">
        <ele>170</ele>
        <time>2016-09-12T11:14:57Z</time>
      </trkpt>
      <trkpt lat="45.93229" lon="4.72649">
        <ele>170</ele>
        <time>2016-09-12T11:14:58Z</time>
      </trkpt>
      <trkpt lat="45.93226" lon="4.72654">
        <ele>170</ele>
        <time>2016-09-12T11:14:59Z</time>
      </trkpt>
      <trkpt lat="45.93222" lon="4.72658">
        <ele>170</ele>
        <time>2016-09-12T11:15:00Z</time>
      </trkpt>
      <trkpt lat="45.93218" lon="4.72663">
        <ele>170</ele>
        <time>2016-09-12T11:15:01Z</time>
      </trkpt>
      <trkpt lat="45.93214" lon="4.72667">
        <ele>169</ele>
        <time>2016-09-12T11:15:02Z</time>
      </trkpt>
      <trkpt lat="45.9321" lon="4.72672">
        <ele>169</ele>
        <time>2016-09-12T11:15:03Z</time>
      </trkpt>
      <trkpt lat="45.93206" lon="4.72677">
        <ele>169</ele>
        <time>2016-09-12T11:15:04Z</time>
      </trkpt>
      <trkpt lat="45.93201" lon="4.72681">
        <ele>169</ele>
        <time>2016-09-12T11:15:05Z</time>
      </trkpt>
      <trkpt lat="45.93197" lon="4.72686">
        <ele>169</ele>
        <time>2016-09-12T11:15:06Z</time>
      </trkpt>
      <trkpt lat="45.93193" lon="4.72691">
        <ele>169</ele>
        <time>2016-09-12T11:15:07Z</time>
      </trkpt>
      <trkpt lat="45.93189" lon="4.72695">
        <ele>169</ele>
        <time>2016-09-12T11:15:08Z</time>
      </trkpt>
      <trkpt lat="45.93185" lon="4.727">
        <ele>169</ele>
        <time>2016-09-12T11:15:09Z</time>
      </trkpt>
      <trkpt lat="45.93181" lon="4.72705">
        <ele>169</ele>
        <time>2016-09-12T11:15:10Z</time>
      </trkpt>
      <trkpt lat="45.93177" lon="4.7271">
        <ele>169</ele>
        <time>2016-09-12T11:15:11Z</time>
      </trkpt>
      <trkpt lat="45.93173" lon="4.72714">
        <ele>170</ele>
        <time>2016-09-12T11:15:12Z</time>
      </trkpt>
      <trkpt lat="45.93169" lon="4.72719">
        <ele>170</ele>
        <time>2016-09-12T11:15:13Z</time>
      </trkpt>
      <trkpt lat="45.93165" lon="4.72724">
        <ele>170</ele>
        <time>2016-09-12T11:15:14Z</time>
      </trkpt>
      <trkpt lat="45.9316" lon="4.72728">
        <ele>170</ele>
        <time>2016-09-12T11:15:15Z</time>
      </trkpt>
      <trkpt lat="45.93156" lon="4.72734">
        <ele>170</ele>
        <time>2016-09-12T11:15:16Z</time>
      </trkpt>
      <trkpt lat="45.93152" lon="4.72739">
        <ele>170</ele>
        <time>2016-09-12T11:15:17Z</time>
      </trkpt>
      <trkpt lat="45.93148" lon="4.72744">
        <ele>170</ele>
        <time>2016-09-12T11:15:18Z</time>
      </trkpt>
      <trkpt lat="45.93144" lon="4.72749">
        <ele>170</ele>
        <time>2016-09-12T11:15:19Z</time>
      </trkpt>
      <trkpt lat="45.9314" lon="4.72754">
        <ele>171</ele>
        <time>2016-09-12T11:15:20Z</time>
      </trkpt>
      <trkpt lat="45.93136" lon="4.72759">
        <ele>171</ele>
        <time>2016-09-12T11:15:21Z</time>
      </trkpt>
      <trkpt lat="45.93132" lon="4.72763">
        <ele>171</ele>
        <time>2016-09-12T11:15:22Z</time>
      </trkpt>
      <trkpt lat="45.93128" lon="4.72768">
        <ele>171</ele>
        <time>2016-09-12T11:15:23Z</time>
      </trkpt>
      <trkpt lat="45.93124" lon="4.72773">
        <ele>171</ele>
        <time>2016-09-12T11:15:24Z</time>
      </trkpt>
      <trkpt lat="45.93121" lon="4.72779">
        <ele>171</ele>
        <time>2016-09-12T11:15:25Z</time>
      </trkpt>
      <trkpt lat="45.93117" lon="4.72784">
        <ele>171</ele>
        <time>2016-09-12T11:15:26Z</time>
      </trkpt>
      <trkpt lat="45.93112" lon="4.72787">
        <ele>171</ele>
        <time>2016-09-12T11:15:27Z</time>
      </trkpt>
      <trkpt lat="45.93107" lon="4.72791">
        <ele>171</ele>
        <time>2016-09-12T11:15:28Z</time>
      </trkpt>
      <trkpt lat="45.93102" lon="4.72796">
        <ele>171</ele>
        <time>2016-09-12T11:15:29Z</time>
      </trkpt>
      <trkpt lat="45.93098" lon="4.72801">
        <ele>171</ele>
        <time>2016-09-12T11:15:30Z</time>
      </trkpt>
      <trkpt lat="45.93093" lon="4.72806">
        <ele>172</ele>
        <time>2016-09-12T11:15:31Z</time>
      </trkpt>
      <trkpt lat="45.93089" lon="4.7281">
        <ele>172</ele>
        <time>2016-09-12T11:15:32Z</time>
      </trkpt>
      <trkpt lat="45.93084" lon="4.72815">
        <ele>172</ele>
        <time>2016-09-12T11:15:33Z</time>
      </trkpt>
      <trkpt lat="45.9308" lon="4.72818">
        <ele>172</ele>
        <time>2016-09-12T11:15:34Z</time>
      </trkpt>
      <trkpt lat="45.93075" lon="4.72822">
        <ele>173</ele>
        <time>2016-09-12T11:15:35Z</time>
      </trkpt>
      <trkpt lat="45.93072" lon="4.72827">
        <ele>173</ele>
        <time>2016-09-12T11:15:36Z</time>
      </trkpt>
      <trkpt lat="45.93068" lon="4.7283">
        <ele>173</ele>
        <time>2016-09-12T11:15:37Z</time>
      </trkpt>
      <trkpt lat="45.93063" lon="4.72833">
        <ele>173</ele>
        <time>2016-09-12T11:15:38Z</time>
      </trkpt>
      <trkpt lat="45.93059" lon="4.72836">
        <ele>173</ele>
        <time>2016-09-12T11:15:39Z</time>
      </trkpt>
      <trkpt lat="45.93054" lon="4.72844">
        <ele>172</ele>
        <time>2016-09-12T11:15:40Z</time>
      </trkpt>
      <trkpt lat="45.9305" lon="4.72851">
        <ele>172</ele>
        <time>2016-09-12T11:15:41Z</time>
      </trkpt>
      <trkpt lat="45.93045" lon="4.72855">
        <ele>172</ele>
        <time>2016-09-12T11:15:42Z</time>
      </trkpt>
      <trkpt lat="45.9304" lon="4.72862">
        <ele>172</ele>
        <time>2016-09-12T11:15:44Z</time>
      </trkpt>
      <trkpt lat="45.93035" lon="4.72867">
        <ele>172</ele>
        <time>2016-09-12T11:15:45Z</time>
      </trkpt>
      <trkpt lat="45.93031" lon="4.72872">
        <ele>172</ele>
        <time>2016-09-12T11:15:46Z</time>
      </trkpt>
      <trkpt lat="45.93027" lon="4.72878">
        <ele>172</ele>
        <time>2016-09-12T11:15:47Z</time>
      </trkpt>
      <trkpt lat="45.93022" lon="4.72883">
        <ele>172</ele>
        <time>2016-09-12T11:15:48Z</time>
      </trkpt>
      <trkpt lat="45.93018" lon="4.72889">
        <ele>172</ele>
        <time>2016-09-12T11:15:49Z</time>
      </trkpt>
      <trkpt lat="45.93014" lon="4.72894">
        <ele>172</ele>
        <time>2016-09-12T11:15:50Z</time>
      </trkpt>
      <trkpt lat="45.9301" lon="4.729">
        <ele>172</ele>
        <time>2016-09-12T11:15:51Z</time>
      </trkpt>
      <trkpt lat="45.93007" lon="4.72905">
        <ele>171</ele>
        <time>2016-09-12T11:15:52Z</time>
      </trkpt>
      <trkpt lat="45.93003" lon="4.7291">
        <ele>171</ele>
        <time>2016-09-12T11:15:53Z</time>
      </trkpt>
      <trkpt lat="45.93" lon="4.72915">
        <ele>171</ele>
        <time>2016-09-12T11:15:54Z</time>
      </trkpt>
      <trkpt lat="45.92996" lon="4.7292">
        <ele>171</ele>
        <time>2016-09-12T11:15:55Z</time>
      </trkpt>
      <trkpt lat="45.92993" lon="4.72924">
        <ele>171</ele>
        <time>2016-09-12T11:15:56Z</time>
      </trkpt>
      <trkpt lat="45.92989" lon="4.72929">
        <ele>171</ele>
        <time>2016-09-12T11:15:57Z</time>
      </trkpt>
      <trkpt lat="45.92986" lon="4.72933">
        <ele>171</ele>
        <time>2016-09-12T11:15:58Z</time>
      </trkpt>
      <trkpt lat="45.92982" lon="4.72938">
        <ele>171</ele>
        <time>2016-09-12T11:15:59Z</time>
      </trkpt>
      <trkpt lat="45.92977" lon="4.72942">
        <ele>171</ele>
        <time>2016-09-12T11:16:00Z</time>
      </trkpt>
      <trkpt lat="45.92974" lon="4.72947">
        <ele>171</ele>
        <time>2016-09-12T11:16:01Z</time>
      </trkpt>
      <trkpt lat="45.9297" lon="4.72952">
        <ele>171</ele>
        <time>2016-09-12T11:16:02Z</time>
      </trkpt>
      <trkpt lat="45.92966" lon="4.72957">
        <ele>171</ele>
        <time>2016-09-12T11:16:03Z</time>
      </trkpt>
      <trkpt lat="45.92962" lon="4.72961">
        <ele>171</ele>
        <time>2016-09-12T11:16:04Z</time>
      </trkpt>
      <trkpt lat="45.92957" lon="4.72966">
        <ele>171</ele>
        <time>2016-09-12T11:16:05Z</time>
      </trkpt>
      <trkpt lat="45.92953" lon="4.72971">
        <ele>171</ele>
        <time>2016-09-12T11:16:06Z</time>
      </trkpt>
      <trkpt lat="45.92948" lon="4.72975">
        <ele>171</ele>
        <time>2016-09-12T11:16:07Z</time>
      </trkpt>
      <trkpt lat="45.92943" lon="4.7298">
        <ele>171</ele>
        <time>2016-09-12T11:16:08Z</time>
      </trkpt>
      <trkpt lat="45.92939" lon="4.72985">
        <ele>171</ele>
        <time>2016-09-12T11:16:09Z</time>
      </trkpt>
      <trkpt lat="45.92935" lon="4.7299">
        <ele>172</ele>
        <time>2016-09-12T11:16:10Z</time>
      </trkpt>
      <trkpt lat="45.92931" lon="4.72995">
        <ele>172</ele>
        <time>2016-09-12T11:16:11Z</time>
      </trkpt>
      <trkpt lat="45.92927" lon="4.73001">
        <ele>172</ele>
        <time>2016-09-12T11:16:12Z</time>
      </trkpt>
      <trkpt lat="45.92924" lon="4.73006">
        <ele>172</ele>
        <time>2016-09-12T11:16:13Z</time>
      </trkpt>
      <trkpt lat="45.92921" lon="4.7301">
        <ele>172</ele>
        <time>2016-09-12T11:16:14Z</time>
      </trkpt>
      <trkpt lat="45.92917" lon="4.73015">
        <ele>172</ele>
        <time>2016-09-12T11:16:15Z</time>
      </trkpt>
      <trkpt lat="45.92914" lon="4.7302">
        <ele>172</ele>
        <time>2016-09-12T11:16:16Z</time>
      </trkpt>
      <trkpt lat="45.92911" lon="4.73025">
        <ele>172</ele>
        <time>2016-09-12T11:16:17Z</time>
      </trkpt>
      <trkpt lat="45.92908" lon="4.7303">
        <ele>172</ele>
        <time>2016-09-12T11:16:18Z</time>
      </trkpt>
      <trkpt lat="45.92904" lon="4.73035">
        <ele>172</ele>
        <time>2016-09-12T11:16:19Z</time>
      </trkpt>
      <trkpt lat="45.929" lon="4.7304">
        <ele>172</ele>
        <time>2016-09-12T11:16:20Z</time>
      </trkpt>
      <trkpt lat="45.92897" lon="4.73045">
        <ele>172</ele>
        <time>2016-09-12T11:16:21Z</time>
      </trkpt>
      <trkpt lat="45.92893" lon="4.73051">
        <ele>172</ele>
        <time>2016-09-12T11:16:22Z</time>
      </trkpt>
      <trkpt lat="45.92889" lon="4.73056">
        <ele>172</ele>
        <time>2016-09-12T11:16:23Z</time>
      </trkpt>
      <trkpt lat="45.92886" lon="4.73062">
        <ele>172</ele>
        <time>2016-09-12T11:16:24Z</time>
      </trkpt>
      <trkpt lat="45.92883" lon="4.73067">
        <ele>172</ele>
        <time>2016-09-12T11:16:25Z</time>
      </trkpt>
      <trkpt lat="45.9288" lon="4.73073">
        <ele>172</ele>
        <time>2016-09-12T11:16:26Z</time>
      </trkpt>
      <trkpt lat="45.92878" lon="4.73079">
        <ele>172</ele>
        <time>2016-09-12T11:16:27Z</time>
      </trkpt>
      <trkpt lat="45.92876" lon="4.73085">
        <ele>172</ele>
        <time>2016-09-12T11:16:28Z</time>
      </trkpt>
      <trkpt lat="45.92874" lon="4.73092">
        <ele>172</ele>
        <time>2016-09-12T11:16:29Z</time>
      </trkpt>
      <trkpt lat="45.92872" lon="4.73099">
        <ele>172</ele>
        <time>2016-09-12T11:16:30Z</time>
      </trkpt>
      <trkpt lat="45.9287" lon="4.73105">
        <ele>172</ele>
        <time>2016-09-12T11:16:31Z</time>
      </trkpt>
      <trkpt lat="45.92868" lon="4.73112">
        <ele>171</ele>
        <time>2016-09-12T11:16:32Z</time>
      </trkpt>
      <trkpt lat="45.92867" lon="4.7312">
        <ele>171</ele>
        <time>2016-09-12T11:16:33Z</time>
      </trkpt>
      <trkpt lat="45.92866" lon="4.73128">
        <ele>171</ele>
        <time>2016-09-12T11:16:34Z</time>
      </trkpt>
      <trkpt lat="45.92865" lon="4.73134">
        <ele>171</ele>
        <time>2016-09-12T11:16:35Z</time>
      </trkpt>
      <trkpt lat="45.92864" lon="4.7314">
        <ele>171</ele>
        <time>2016-09-12T11:16:36Z</time>
      </trkpt>
      <trkpt lat="45.92863" lon="4.73147">
        <ele>171</ele>
        <time>2016-09-12T11:16:37Z</time>
      </trkpt>
      <trkpt lat="45.92861" lon="4.73158">
        <ele>171</ele>
        <time>2016-09-12T11:16:39Z</time>
      </trkpt>
      <trkpt lat="45.9286" lon="4.73164">
        <ele>171</ele>
        <time>2016-09-12T11:16:40Z</time>
      </trkpt>
      <trkpt lat="45.92859" lon="4.73171">
        <ele>171</ele>
        <time>2016-09-12T11:16:41Z</time>
      </trkpt>
      <trkpt lat="45.92859" lon="4.73178">
        <ele>171</ele>
        <time>2016-09-12T11:16:42Z</time>
      </trkpt>
      <trkpt lat="45.92858" lon="4.73185">
        <ele>171</ele>
        <time>2016-09-12T11:16:43Z</time>
      </trkpt>
      <trkpt lat="45.92858" lon="4.73192">
        <ele>171</ele>
        <time>2016-09-12T11:16:44Z</time>
      </trkpt>
      <trkpt lat="45.92858" lon="4.73199">
        <ele>171</ele>
        <time>2016-09-12T11:16:45Z</time>
      </trkpt>
      <trkpt lat="45.92857" lon="4.73205">
        <ele>171</ele>
        <time>2016-09-12T11:16:46Z</time>
      </trkpt>
      <trkpt lat="45.92857" lon="4.73212">
        <ele>171</ele>
        <time>2016-09-12T11:16:47Z</time>
      </trkpt>
      <trkpt lat="45.92856" lon="4.73219">
        <ele>171</ele>
        <time>2016-09-12T11:16:48Z</time>
      </trkpt>
      <trkpt lat="45.92855" lon="4.73226">
        <ele>171</ele>
        <time>2016-09-12T11:16:49Z</time>
      </trkpt>
      <trkpt lat="45.92854" lon="4.73234">
        <ele>171</ele>
        <time>2016-09-12T11:16:50Z</time>
      </trkpt>
      <trkpt lat="45.92854" lon="4.73241">
        <ele>171</ele>
        <time>2016-09-12T11:16:51Z</time>
      </trkpt>
      <trkpt lat="45.92853" lon="4.73249">
        <ele>171</ele>
        <time>2016-09-12T11:16:52Z</time>
      </trkpt>
      <trkpt lat="45.92852" lon="4.73257">
        <ele>171</ele>
        <time>2016-09-12T11:16:53Z</time>
      </trkpt>
      <trkpt lat="45.92852" lon="4.73264">
        <ele>171</ele>
        <time>2016-09-12T11:16:54Z</time>
      </trkpt>
      <trkpt lat="45.92851" lon="4.73272">
        <ele>171</ele>
        <time>2016-09-12T11:16:55Z</time>
      </trkpt>
      <trkpt lat="45.92849" lon="4.7328">
        <ele>171</ele>
        <time>2016-09-12T11:16:56Z</time>
      </trkpt>
      <trkpt lat="45.92848" lon="4.73287">
        <ele>171</ele>
        <time>2016-09-12T11:16:57Z</time>
      </trkpt>
      <trkpt lat="45.92847" lon="4.73294">
        <ele>171</ele>
        <time>2016-09-12T11:16:58Z</time>
      </trkpt>
      <trkpt lat="45.92846" lon="4.73301">
        <ele>171</ele>
        <time>2016-09-12T11:16:59Z</time>
      </trkpt>
      <trkpt lat="45.92846" lon="4.73309">
        <ele>171</ele>
        <time>2016-09-12T11:17:00Z</time>
      </trkpt>
      <trkpt lat="45.92845" lon="4.73316">
        <ele>171</ele>
        <time>2016-09-12T11:17:01Z</time>
      </trkpt>
      <trkpt lat="45.92845" lon="4.73325">
        <ele>171</ele>
        <time>2016-09-12T11:17:02Z</time>
      </trkpt>
      <trkpt lat="45.92844" lon="4.73333">
        <ele>171</ele>
        <time>2016-09-12T11:17:03Z</time>
      </trkpt>
      <trkpt lat="45.92843" lon="4.73341">
        <ele>171</ele>
        <time>2016-09-12T11:17:04Z</time>
      </trkpt>
      <trkpt lat="45.92842" lon="4.73349">
        <ele>171</ele>
        <time>2016-09-12T11:17:05Z</time>
      </trkpt>
      <trkpt lat="45.92842" lon="4.73356">
        <ele>171</ele>
        <time>2016-09-12T11:17:06Z</time>
      </trkpt>
      <trkpt lat="45.92841" lon="4.73363">
        <ele>171</ele>
        <time>2016-09-12T11:17:07Z</time>
      </trkpt>
      <trkpt lat="45.9284" lon="4.73369">
        <ele>171</ele>
        <time>2016-09-12T11:17:08Z</time>
      </trkpt>
      <trkpt lat="45.92839" lon="4.73376">
        <ele>172</ele>
        <time>2016-09-12T11:17:09Z</time>
      </trkpt>
      <trkpt lat="45.92838" lon="4.73383">
        <ele>172</ele>
        <time>2016-09-12T11:17:10Z</time>
      </trkpt>
      <trkpt lat="45.92837" lon="4.73391">
        <ele>172</ele>
        <time>2016-09-12T11:17:11Z</time>
      </trkpt>
      <trkpt lat="45.92836" lon="4.73399">
        <ele>172</ele>
        <time>2016-09-12T11:17:12Z</time>
      </trkpt>
      <trkpt lat="45.92834" lon="4.73407">
        <ele>172</ele>
        <time>2016-09-12T11:17:13Z</time>
      </trkpt>
      <trkpt lat="45.92833" lon="4.73415">
        <ele>172</ele>
        <time>2016-09-12T11:17:14Z</time>
      </trkpt>
      <trkpt lat="45.92833" lon="4.73423">
        <ele>172</ele>
        <time>2016-09-12T11:17:15Z</time>
      </trkpt>
      <trkpt lat="45.92832" lon="4.73432">
        <ele>172</ele>
        <time>2016-09-12T11:17:16Z</time>
      </trkpt>
      <trkpt lat="45.92831" lon="4.73439">
        <ele>172</ele>
        <time>2016-09-12T11:17:17Z</time>
      </trkpt>
      <trkpt lat="45.92829" lon="4.73446">
        <ele>172</ele>
        <time>2016-09-12T11:17:18Z</time>
      </trkpt>
      <trkpt lat="45.92828" lon="4.73453">
        <ele>172</ele>
        <time>2016-09-12T11:17:19Z</time>
      </trkpt>
      <trkpt lat="45.92827" lon="4.7346">
        <ele>172</ele>
        <time>2016-09-12T11:17:20Z</time>
      </trkpt>
      <trkpt lat="45.92826" lon="4.73467">
        <ele>172</ele>
        <time>2016-09-12T11:17:21Z</time>
      </trkpt>
      <trkpt lat="45.92825" lon="4.73474">
        <ele>172</ele>
        <time>2016-09-12T11:17:22Z</time>
      </trkpt>
      <trkpt lat="45.92825" lon="4.7348">
        <ele>172</ele>
        <time>2016-09-12T11:17:23Z</time>
      </trkpt>
      <trkpt lat="45.92824" lon="4.73487">
        <ele>172</ele>
        <time>2016-09-12T11:17:24Z</time>
      </trkpt>
      <trkpt lat="45.92823" lon="4.73494">
        <ele>172</ele>
        <time>2016-09-12T11:17:25Z</time>
      </trkpt>
      <trkpt lat="45.92822" lon="4.73502">
        <ele>172</ele>
        <time>2016-09-12T11:17:26Z</time>
      </trkpt>
      <trkpt lat="45.92821" lon="4.73509">
        <ele>172</ele>
        <time>2016-09-12T11:17:27Z</time>
      </trkpt>
      <trkpt lat="45.9282" lon="4.73517">
        <ele>172</ele>
        <time>2016-09-12T11:17:28Z</time>
      </trkpt>
      <trkpt lat="45.92819" lon="4.73524">
        <ele>172</ele>
        <time>2016-09-12T11:17:29Z</time>
      </trkpt>
      <trkpt lat="45.92818" lon="4.73531">
        <ele>172</ele>
        <time>2016-09-12T11:17:30Z</time>
      </trkpt>
      <trkpt lat="45.92817" lon="4.73539">
        <ele>172</ele>
        <time>2016-09-12T11:17:31Z</time>
      </trkpt>
      <trkpt lat="45.92817" lon="4.73549">
        <ele>171</ele>
        <time>2016-09-12T11:17:32Z</time>
      </trkpt>
      <trkpt lat="45.92817" lon="4.73557">
        <ele>171</ele>
        <time>2016-09-12T11:17:33Z</time>
      </trkpt>
      <trkpt lat="45.92817" lon="4.73566">
        <ele>171</ele>
        <time>2016-09-12T11:17:34Z</time>
      </trkpt>
      <trkpt lat="45.92817" lon="4.73575">
        <ele>171</ele>
        <time>2016-09-12T11:17:35Z</time>
      </trkpt>
      <trkpt lat="45.92817" lon="4.73583">
        <ele>171</ele>
        <time>2016-09-12T11:17:36Z</time>
      </trkpt>
      <trkpt lat="45.92817" lon="4.73591">
        <ele>171</ele>
        <time>2016-09-12T11:17:37Z</time>
      </trkpt>
      <trkpt lat="45.92817" lon="4.73598">
        <ele>171</ele>
        <time>2016-09-12T11:17:38Z</time>
      </trkpt>
      <trkpt lat="45.92817" lon="4.73605">
        <ele>172</ele>
        <time>2016-09-12T11:17:39Z</time>
      </trkpt>
      <trkpt lat="45.92816" lon="4.73612">
        <ele>172</ele>
        <time>2016-09-12T11:17:40Z</time>
      </trkpt>
      <trkpt lat="45.92815" lon="4.73619">
        <ele>172</ele>
        <time>2016-09-12T11:17:41Z</time>
      </trkpt>
      <trkpt lat="45.92813" lon="4.73626">
        <ele>172</ele>
        <time>2016-09-12T11:17:42Z</time>
      </trkpt>
      <trkpt lat="45.9281" lon="4.73631">
        <ele>172</ele>
        <time>2016-09-12T11:17:43Z</time>
      </trkpt>
      <trkpt lat="45.92807" lon="4.73636">
        <ele>172</ele>
        <time>2016-09-12T11:17:44Z</time>
      </trkpt>
      <trkpt lat="45.92804" lon="4.73641">
        <ele>172</ele>
        <time>2016-09-12T11:17:45Z</time>
      </trkpt>
      <trkpt lat="45.92801" lon="4.73646">
        <ele>172</ele>
        <time>2016-09-12T11:17:46Z</time>
      </trkpt>
      <trkpt lat="45.92798" lon="4.73652">
        <ele>172</ele>
        <time>2016-09-12T11:17:47Z</time>
      </trkpt>
      <trkpt lat="45.92796" lon="4.73658">
        <ele>172</ele>
        <time>2016-09-12T11:17:48Z</time>
      </trkpt>
      <trkpt lat="45.92794" lon="4.73664">
        <ele>172</ele>
        <time>2016-09-12T11:17:49Z</time>
      </trkpt>
      <trkpt lat="45.92792" lon="4.73671">
        <ele>172</ele>
        <time>2016-09-12T11:17:50Z</time>
      </trkpt>
      <trkpt lat="45.92791" lon="4.73678">
        <ele>172</ele>
        <time>2016-09-12T11:17:51Z</time>
      </trkpt>
      <trkpt lat="45.9279" lon="4.73684">
        <ele>172</ele>
        <time>2016-09-12T11:17:52Z</time>
      </trkpt>
      <trkpt lat="45.92789" lon="4.73691">
        <ele>172</ele>
        <time>2016-09-12T11:17:53Z</time>
      </trkpt>
      <trkpt lat="45.92788" lon="4.73697">
        <ele>172</ele>
        <time>2016-09-12T11:17:54Z</time>
      </trkpt>
      <trkpt lat="45.92787" lon="4.73709">
        <ele>172</ele>
        <time>2016-09-12T11:17:56Z</time>
      </trkpt>
      <trkpt lat="45.92786" lon="4.73715">
        <ele>172</ele>
        <time>2016-09-12T11:17:57Z</time>
      </trkpt>
      <trkpt lat="45.92781" lon="4.73725">
        <ele>172</ele>
        <time>2016-09-12T11:17:59Z</time>
      </trkpt>
      <trkpt lat="45.92777" lon="4.73726">
        <ele>172</ele>
        <time>2016-09-12T11:18:00Z</time>
      </trkpt>
      <trkpt lat="45.92769" lon="4.73725">
        <ele>172</ele>
        <time>2016-09-12T11:18:02Z</time>
      </trkpt>
      <trkpt lat="45.92765" lon="4.73723">
        <ele>172</ele>
        <time>2016-09-12T11:18:03Z</time>
      </trkpt>
      <trkpt lat="45.9276" lon="4.73721">
        <ele>172</ele>
        <time>2016-09-12T11:18:04Z</time>
      </trkpt>
      <trkpt lat="45.92754" lon="4.73719">
        <ele>172</ele>
        <time>2016-09-12T11:18:05Z</time>
      </trkpt>
      <trkpt lat="45.92748" lon="4.73718">
        <ele>173</ele>
        <time>2016-09-12T11:18:06Z</time>
      </trkpt>
      <trkpt lat="45.92742" lon="4.73717">
        <ele>173</ele>
        <time>2016-09-12T11:18:07Z</time>
      </trkpt>
      <trkpt lat="45.92736" lon="4.73715">
        <ele>173</ele>
        <time>2016-09-12T11:18:08Z</time>
      </trkpt>
      <trkpt lat="45.92731" lon="4.73715">
        <ele>173</ele>
        <time>2016-09-12T11:18:09Z</time>
      </trkpt>
      <trkpt lat="45.92726" lon="4.73715">
        <ele>173</ele>
        <time>2016-09-12T11:18:10Z</time>
      </trkpt>
      <trkpt lat="45.9272" lon="4.73713">
        <ele>173</ele>
        <time>2016-09-12T11:18:11Z</time>
      </trkpt>
      <trkpt lat="45.92715" lon="4.73711">
        <ele>173</ele>
        <time>2016-09-12T11:18:12Z</time>
      </trkpt>
      <trkpt lat="45.9271" lon="4.7371">
        <ele>173</ele>
        <time>2016-09-12T11:18:13Z</time>
      </trkpt>
      <trkpt lat="45.92704" lon="4.73708">
        <ele>173</ele>
        <time>2016-09-12T11:18:14Z</time>
      </trkpt>
      <trkpt lat="45.927" lon="4.73707">
        <ele>173</ele>
        <time>2016-09-12T11:18:15Z</time>
      </trkpt>
      <trkpt lat="45.92691" lon="4.73706">
        <ele>173</ele>
        <time>2016-09-12T11:18:17Z</time>
      </trkpt>
      <trkpt lat="45.92687" lon="4.73705">
        <ele>173</ele>
        <time>2016-09-12T11:18:18Z</time>
      </trkpt>
      <trkpt lat="45.92682" lon="4.73704">
        <ele>173</ele>
        <time>2016-09-12T11:18:19Z</time>
      </trkpt>
      <trkpt lat="45.92677" lon="4.73702">
        <ele>173</ele>
        <time>2016-09-12T11:18:20Z</time>
      </trkpt>
      <trkpt lat="45.92673" lon="4.737">
        <ele>174</ele>
        <time>2016-09-12T11:18:21Z</time>
      </trkpt>
      <trkpt lat="45.92668" lon="4.73698">
        <ele>174</ele>
        <time>2016-09-12T11:18:22Z</time>
      </trkpt>
      <trkpt lat="45.92664" lon="4.73695">
        <ele>173</ele>
        <time>2016-09-12T11:18:23Z</time>
      </trkpt>
      <trkpt lat="45.9266" lon="4.73692">
        <ele>173</ele>
        <time>2016-09-12T11:18:24Z</time>
      </trkpt>
      <trkpt lat="45.92655" lon="4.73687">
        <ele>173</ele>
        <time>2016-09-12T11:18:25Z</time>
      </trkpt>
      <trkpt lat="45.92651" lon="4.73684">
        <ele>173</ele>
        <time>2016-09-12T11:18:26Z</time>
      </trkpt>
      <trkpt lat="45.92646" lon="4.7368">
        <ele>173</ele>
        <time>2016-09-12T11:18:27Z</time>
      </trkpt>
      <trkpt lat="45.92642" lon="4.73675">
        <ele>173</ele>
        <time>2016-09-12T11:18:28Z</time>
      </trkpt>
      <trkpt lat="45.92637" lon="4.73666">
        <ele>173</ele>
        <time>2016-09-12T11:18:30Z</time>
      </trkpt>
      <trkpt lat="45.92635" lon="4.73658">
        <ele>173</ele>
        <time>2016-09-12T11:18:31Z</time>
      </trkpt>
      <trkpt lat="45.92633" lon="4.73652">
        <ele>173</ele>
        <time>2016-09-12T11:18:32Z</time>
      </trkpt>
      <trkpt lat="45.9263" lon="4.73645">
        <ele>173</ele>
        <time>2016-09-12T11:18:33Z</time>
      </trkpt>
      <trkpt lat="45.92625" lon="4.73635">
        <ele>173</ele>
        <time>2016-09-12T11:18:35Z</time>
      </trkpt>
      <trkpt lat="45.92621" lon="4.73632">
        <ele>173</ele>
        <time>2016-09-12T11:18:36Z</time>
      </trkpt>
      <trkpt lat="45.92617" lon="4.73628">
        <ele>173</ele>
        <time>2016-09-12T11:18:37Z</time>
      </trkpt>
      <trkpt lat="45.92613" lon="4.73626">
        <ele>173</ele>
        <time>2016-09-12T11:18:38Z</time>
      </trkpt>
      <trkpt lat="45.92608" lon="4.73625">
        <ele>173</ele>
        <time>2016-09-12T11:18:39Z</time>
      </trkpt>
      <trkpt lat="45.92602" lon="4.73626">
        <ele>173</ele>
        <time>2016-09-12T11:18:40Z</time>
      </trkpt>
      <trkpt lat="45.92596" lon="4.73626">
        <ele>173</ele>
        <time>2016-09-12T11:18:41Z</time>
      </trkpt>
      <trkpt lat="45.9259" lon="4.73627">
        <ele>172</ele>
        <time>2016-09-12T11:18:42Z</time>
      </trkpt>
      <trkpt lat="45.92585" lon="4.73628">
        <ele>172</ele>
        <time>2016-09-12T11:18:43Z</time>
      </trkpt>
      <trkpt lat="45.92579" lon="4.73629">
        <ele>173</ele>
        <time>2016-09-12T11:18:44Z</time>
      </trkpt>
      <trkpt lat="45.92574" lon="4.7363">
        <ele>173</ele>
        <time>2016-09-12T11:18:45Z</time>
      </trkpt>
      <trkpt lat="45.92569" lon="4.73631">
        <ele>173</ele>
        <time>2016-09-12T11:18:46Z</time>
      </trkpt>
      <trkpt lat="45.92564" lon="4.73631">
        <ele>173</ele>
        <time>2016-09-12T11:18:47Z</time>
      </trkpt>
      <trkpt lat="45.92558" lon="4.73631">
        <ele>173</ele>
        <time>2016-09-12T11:18:48Z</time>
      </trkpt>
      <trkpt lat="45.92553" lon="4.73631">
        <ele>173</ele>
        <time>2016-09-12T11:18:49Z</time>
      </trkpt>
      <trkpt lat="45.92548" lon="4.73632">
        <ele>173</ele>
        <time>2016-09-12T11:18:50Z</time>
      </trkpt>
      <trkpt lat="45.92543" lon="4.73633">
        <ele>173</ele>
        <time>2016-09-12T11:18:51Z</time>
      </trkpt>
      <trkpt lat="45.92537" lon="4.73634">
        <ele>173</ele>
        <time>2016-09-12T11:18:52Z</time>
      </trkpt>
      <trkpt lat="45.92531" lon="4.73634">
        <ele>173</ele>
        <time>2016-09-12T11:18:53Z</time>
      </trkpt>
      <trkpt lat="45.92525" lon="4.73634">
        <ele>173</ele>
        <time>2016-09-12T11:18:54Z</time>
      </trkpt>
      <trkpt lat="45.92519" lon="4.73635">
        <ele>173</ele>
        <time>2016-09-12T11:18:55Z</time>
      </trkpt>
      <trkpt lat="45.92514" lon="4.73635">
        <ele>173</ele>
        <time>2016-09-12T11:18:56Z</time>
      </trkpt>
      <trkpt lat="45.92509" lon="4.73636">
        <ele>174</ele>
        <time>2016-09-12T11:18:57Z</time>
      </trkpt>
      <trkpt lat="45.92504" lon="4.73636">
        <ele>174</ele>
        <time>2016-09-12T11:18:58Z</time>
      </trkpt>
      <trkpt lat="45.92495" lon="4.73638">
        <ele>174</ele>
        <time>2016-09-12T11:19:00Z</time>
      </trkpt>
      <trkpt lat="45.92491" lon="4.73638">
        <ele>174</ele>
        <time>2016-09-12T11:19:01Z</time>
      </trkpt>
      <trkpt lat="45.92482" lon="4.73638">
        <ele>174</ele>
        <time>2016-09-12T11:19:03Z</time>
      </trkpt>
      <trkpt lat="45.92478" lon="4.73639">
        <ele>174</ele>
        <time>2016-09-12T11:19:04Z</time>
      </trkpt>
      <trkpt lat="45.92472" lon="4.73646">
        <ele>174</ele>
        <time>2016-09-12T11:19:06Z</time>
      </trkpt>
      <trkpt lat="45.9247" lon="4.73651">
        <ele>174</ele>
        <time>2016-09-12T11:19:07Z</time>
      </trkpt>
      <trkpt lat="45.92468" lon="4.73661">
        <ele>174</ele>
        <time>2016-09-12T11:19:09Z</time>
      </trkpt>
      <trkpt lat="45.92468" lon="4.73667">
        <ele>174</ele>
        <time>2016-09-12T11:19:10Z</time>
      </trkpt>
      <trkpt lat="45.92466" lon="4.73676">
        <ele>174</ele>
        <time>2016-09-12T11:19:12Z</time>
      </trkpt>
      <trkpt lat="45.92465" lon="4.73681">
        <ele>174</ele>
        <time>2016-09-12T11:19:13Z</time>
      </trkpt>
      <trkpt lat="45.92463" lon="4.7369">
        <ele>174</ele>
        <time>2016-09-12T11:19:15Z</time>
      </trkpt>
      <trkpt lat="45.92463" lon="4.73695">
        <ele>174</ele>
        <time>2016-09-12T11:19:16Z</time>
      </trkpt>
      <trkpt lat="45.92462" lon="4.73705">
        <ele>174</ele>
        <time>2016-09-12T11:19:19Z</time>
      </trkpt>
      <trkpt lat="45.92462" lon="4.73705">
        <ele>174</ele>
        <time>2016-09-12T11:19:20Z</time>
      </trkpt>
      <trkpt lat="45.92462" lon="4.73707">
        <ele>174</ele>
        <time>2016-09-12T11:19:53.052Z</time>
      </trkpt>
    </trkseg>
  </trk>
</gpx>